<?xml version='1.0' encoding='UTF-8'?><gpx version="1.1" creator="JPX - https://github.com/jenetics/jpx" xmlns="http://www.topografix.com/GPX/1/1"><trk><trkseg><trkpt lat="37.91951005563691" lon="15.990579257960603"><ele>20.0</ele><time>2026-03-22T07:57:10.001Z</time></trkpt><trkpt lat="37.91946428712032" lon="15.990521245673245"><ele>20.0</ele><time>2026-03-22T07:57:11.001Z</time></trkpt><trkpt lat="37.91948900254607" lon="15.990444025841915"><ele>20.0</ele><time>2026-03-22T07:57:12Z</time></trkpt><trkpt lat="37.91951099986439" lon="15.990326106215134"><ele>20.0</ele><time>2026-03-22T07:57:14Z</time></trkpt><trkpt lat="37.91952687304259" lon="15.99020679305277"><ele>20.0</ele><time>2026-03-22T07:57:16Z</time></trkpt><trkpt lat="37.91953345798264" lon="15.990113940001523"><ele>20.0</ele><time>2026-03-22T07:57:18Z</time></trkpt><trkpt lat="37.91942734247711" lon="15.990074538350036"><ele>20.0</ele><time>2026-03-22T07:57:21Z</time></trkpt><trkpt lat="37.9193154325915" lon="15.990051774990478"><ele>20.0</ele><time>2026-03-22T07:57:23Z</time></trkpt><trkpt lat="37.919238775056805" lon="15.99005630280557"><ele>20.0</ele><time>2026-03-22T07:57:24Z</time></trkpt><trkpt lat="37.919186498400144" lon="15.99000632518808"><ele>20.0</ele><time>2026-03-22T07:57:25Z</time></trkpt><trkpt lat="37.91908848846025" lon="15.990009246162975"><ele>20.0</ele><time>2026-03-22T07:57:27Z</time></trkpt><trkpt lat="37.91902565048873" lon="15.989981746890798"><ele>20.0</ele><time>2026-03-22T07:57:29Z</time></trkpt><trkpt lat="37.91891550624321" lon="15.989968174125572"><ele>18.4</ele><time>2026-03-22T07:57:31Z</time></trkpt><trkpt lat="37.918833882243" lon="15.989959216133906"><ele>16.8</ele><time>2026-03-22T07:57:32Z</time></trkpt><trkpt lat="37.91873494396001" lon="15.989960033278715"><ele>15.2</ele><time>2026-03-22T07:57:34Z</time></trkpt><trkpt lat="37.91865386053495" lon="15.98993696752321"><ele>13.6</ele><time>2026-03-22T07:57:39Z</time></trkpt><trkpt lat="37.91863086188128" lon="15.990135359302107"><ele>12.0</ele><time>2026-03-22T07:57:42Z</time></trkpt><trkpt lat="37.91862184778054" lon="15.990257308546127"><ele>12.0</ele><time>2026-03-22T07:57:43Z</time></trkpt><trkpt lat="37.918620563087956" lon="15.990378411269349"><ele>12.0</ele><time>2026-03-22T07:57:44Z</time></trkpt><trkpt lat="37.91862118334433" lon="15.990505177826664"><ele>12.0</ele><time>2026-03-22T07:57:45Z</time></trkpt><trkpt lat="37.91860878333213" lon="15.99064740879506"><ele>12.0</ele><time>2026-03-22T07:57:46Z</time></trkpt><trkpt lat="37.91859610594073" lon="15.990789071103066"><ele>12.0</ele><time>2026-03-22T07:57:47Z</time></trkpt><trkpt lat="37.91857377860078" lon="15.990937994091109"><ele>13.5</ele><time>2026-03-22T07:57:48Z</time></trkpt><trkpt lat="37.918566028973856" lon="15.99108951140354"><ele>15.0</ele><time>2026-03-22T07:57:49Z</time></trkpt><trkpt lat="37.91856608369322" lon="15.991240453305728"><ele>16.5</ele><time>2026-03-22T07:57:50Z</time></trkpt><trkpt lat="37.91855680604595" lon="15.991401581940298"><ele>18.0</ele><time>2026-03-22T07:57:51Z</time></trkpt><trkpt lat="37.918546781426635" lon="15.991568299795816"><ele>18.0</ele><time>2026-03-22T07:57:52Z</time></trkpt><trkpt lat="37.91852388920776" lon="15.991751206051084"><ele>18.0</ele><time>2026-03-22T07:57:53Z</time></trkpt><trkpt lat="37.91852150061358" lon="15.991923945289937"><ele>18.0</ele><time>2026-03-22T07:57:54Z</time></trkpt><trkpt lat="37.918494669878" lon="15.992076669970453"><ele>18.0</ele><time>2026-03-22T07:57:55Z</time></trkpt><trkpt lat="37.91848248645455" lon="15.992255618772257"><ele>18.0</ele><time>2026-03-22T07:57:56Z</time></trkpt><trkpt lat="37.91846895805673" lon="15.992435321147665"><ele>18.0</ele><time>2026-03-22T07:57:57Z</time></trkpt><trkpt lat="37.91844482773344" lon="15.99260571834296"><ele>18.0</ele><time>2026-03-22T07:57:58Z</time></trkpt><trkpt lat="37.91842762316955" lon="15.992786782348553"><ele>18.0</ele><time>2026-03-22T07:57:59Z</time></trkpt><trkpt lat="37.91839167850717" lon="15.992958511532965"><ele>15.25</ele><time>2026-03-22T07:58:00Z</time></trkpt><trkpt lat="37.918301814848384" lon="15.993115414002618"><ele>12.5</ele><time>2026-03-22T07:58:01Z</time></trkpt><trkpt lat="37.91830742973589" lon="15.993301724395202"><ele>9.75</ele><time>2026-03-22T07:58:02Z</time></trkpt><trkpt lat="37.91825816283488" lon="15.993473627250145"><ele>7.0</ele><time>2026-03-22T07:58:03Z</time></trkpt><trkpt lat="37.918204918361894" lon="15.993635606892221"><ele>7.0</ele><time>2026-03-22T07:58:04Z</time></trkpt><trkpt lat="37.918154391045924" lon="15.993803992061315"><ele>7.0</ele><time>2026-03-22T07:58:05Z</time></trkpt><trkpt lat="37.91810276824429" lon="15.993959864354245"><ele>7.0</ele><time>2026-03-22T07:58:06Z</time></trkpt><trkpt lat="37.918044283085656" lon="15.994117576747971"><ele>7.0</ele><time>2026-03-22T07:58:07Z</time></trkpt><trkpt lat="37.917986837362456" lon="15.994270279608136"><ele>7.5</ele><time>2026-03-22T07:58:08Z</time></trkpt><trkpt lat="37.917942186746394" lon="15.994422271960868"><ele>8.0</ele><time>2026-03-22T07:58:09Z</time></trkpt><trkpt lat="37.91790510311001" lon="15.994583120519604"><ele>8.5</ele><time>2026-03-22T07:58:10Z</time></trkpt><trkpt lat="37.917879449225374" lon="15.994742221526872"><ele>9.0</ele><time>2026-03-22T07:58:11Z</time></trkpt><trkpt lat="37.9178736923546" lon="15.994905722784493"><ele>9.5</ele><time>2026-03-22T07:58:12Z</time></trkpt><trkpt lat="37.91788924475353" lon="15.995071077728289"><ele>10.0</ele><time>2026-03-22T07:58:13Z</time></trkpt><trkpt lat="37.917906896891175" lon="15.995242335933012"><ele>10.5</ele><time>2026-03-22T07:58:14Z</time></trkpt><trkpt lat="37.91791976585576" lon="15.99540866127546"><ele>11.0</ele><time>2026-03-22T07:58:15Z</time></trkpt><trkpt lat="37.91793883631899" lon="15.995581028856764"><ele>11.0</ele><time>2026-03-22T07:58:16Z</time></trkpt><trkpt lat="37.91795457698006" lon="15.995750149415557"><ele>11.0</ele><time>2026-03-22T07:58:17Z</time></trkpt><trkpt lat="37.917970628361125" lon="15.995909967701557"><ele>11.0</ele><time>2026-03-22T07:58:18Z</time></trkpt><trkpt lat="37.91797560444058" lon="15.996068194308297"><ele>11.0</ele><time>2026-03-22T07:58:19Z</time></trkpt><trkpt lat="37.917982711675265" lon="15.996221876651326"><ele>11.5</ele><time>2026-03-22T07:58:20Z</time></trkpt><trkpt lat="37.917979061552934" lon="15.996370475491618"><ele>12.0</ele><time>2026-03-22T07:58:21Z</time></trkpt><trkpt lat="37.91794286506538" lon="15.99650096244122"><ele>12.5</ele><time>2026-03-22T07:58:22Z</time></trkpt><trkpt lat="37.917887015857" lon="15.99663368428534"><ele>13.0</ele><time>2026-03-22T07:58:23Z</time></trkpt><trkpt lat="37.91783277104441" lon="15.996763871793611"><ele>14.25</ele><time>2026-03-22T07:58:24Z</time></trkpt><trkpt lat="37.917746468018294" lon="15.99687132326615"><ele>15.5</ele><time>2026-03-22T07:58:25Z</time></trkpt><trkpt lat="37.917691143386214" lon="15.996994823245446"><ele>16.75</ele><time>2026-03-22T07:58:26Z</time></trkpt><trkpt lat="37.91761255183184" lon="15.997121064050322"><ele>18.0</ele><time>2026-03-22T07:58:27Z</time></trkpt><trkpt lat="37.91754862980683" lon="15.997242036606913"><ele>18.0</ele><time>2026-03-22T07:58:28Z</time></trkpt><trkpt lat="37.91748067038081" lon="15.997343220973569"><ele>18.0</ele><time>2026-03-22T07:58:29Z</time></trkpt><trkpt lat="37.91740479262964" lon="15.997429874854467"><ele>18.0</ele><time>2026-03-22T07:58:30Z</time></trkpt><trkpt lat="37.91730503244324" lon="15.997461445790318"><ele>18.0</ele><time>2026-03-22T07:58:31Z</time></trkpt><trkpt lat="37.91721194423865" lon="15.997489146170302"><ele>18.0</ele><time>2026-03-22T07:58:32Z</time></trkpt><trkpt lat="37.91710919418039" lon="15.997476389181028"><ele>18.0</ele><time>2026-03-22T07:58:33Z</time></trkpt><trkpt lat="37.91699203209031" lon="15.997480001735003"><ele>18.0</ele><time>2026-03-22T07:58:34Z</time></trkpt><trkpt lat="37.916873791139906" lon="15.997449243396686"><ele>18.0</ele><time>2026-03-22T07:58:35Z</time></trkpt><trkpt lat="37.91677134975422" lon="15.997438316734119"><ele>18.0</ele><time>2026-03-22T07:58:36Z</time></trkpt><trkpt lat="37.916670697496244" lon="15.997462210110216"><ele>18.0</ele><time>2026-03-22T07:58:37Z</time></trkpt><trkpt lat="37.916568132058636" lon="15.997504078628413"><ele>18.2</ele><time>2026-03-22T07:58:38Z</time></trkpt><trkpt lat="37.916476557610224" lon="15.99758185079924"><ele>18.4</ele><time>2026-03-22T07:58:39Z</time></trkpt><trkpt lat="37.91640354637004" lon="15.997683413139555"><ele>18.599999999999998</ele><time>2026-03-22T07:58:40Z</time></trkpt><trkpt lat="37.91635021587005" lon="15.997801454330979"><ele>18.8</ele><time>2026-03-22T07:58:41Z</time></trkpt><trkpt lat="37.91631035407956" lon="15.997922593509893"><ele>19.0</ele><time>2026-03-22T07:58:42Z</time></trkpt><trkpt lat="37.916293253216175" lon="15.998052321454818"><ele>19.0</ele><time>2026-03-22T07:58:43Z</time></trkpt><trkpt lat="37.91631346380639" lon="15.998184957521268"><ele>19.0</ele><time>2026-03-22T07:58:44Z</time></trkpt><trkpt lat="37.91634544025033" lon="15.998310589858823"><ele>19.0</ele><time>2026-03-22T07:58:45Z</time></trkpt><trkpt lat="37.91640322641183" lon="15.998421536654076"><ele>19.0</ele><time>2026-03-22T07:58:46Z</time></trkpt><trkpt lat="37.91646041813486" lon="15.99853911039659"><ele>19.0</ele><time>2026-03-22T07:58:47Z</time></trkpt><trkpt lat="37.916519428908295" lon="15.998662030620958"><ele>17.4</ele><time>2026-03-22T07:58:48Z</time></trkpt><trkpt lat="37.91657944929157" lon="15.998782419795967"><ele>15.799999999999999</ele><time>2026-03-22T07:58:49Z</time></trkpt><trkpt lat="37.916646765730384" lon="15.998889591712324"><ele>14.2</ele><time>2026-03-22T07:58:50Z</time></trkpt><trkpt lat="37.916726060350115" lon="15.998969826393346"><ele>12.600000000000001</ele><time>2026-03-22T07:58:51Z</time></trkpt><trkpt lat="37.916817779161796" lon="15.99902558607458"><ele>11.0</ele><time>2026-03-22T07:58:52Z</time></trkpt><trkpt lat="37.91692699445565" lon="15.99907454163771"><ele>12.0</ele><time>2026-03-22T07:58:53Z</time></trkpt><trkpt lat="37.91700358531447" lon="15.999161618618407"><ele>13.0</ele><time>2026-03-22T07:58:54Z</time></trkpt><trkpt lat="37.917057110806674" lon="15.999263042289597"><ele>14.000000000000002</ele><time>2026-03-22T07:58:55Z</time></trkpt><trkpt lat="37.917102481974155" lon="15.999384499611791"><ele>15.0</ele><time>2026-03-22T07:58:56Z</time></trkpt><trkpt lat="37.91715668262321" lon="15.999514055430042"><ele>16.0</ele><time>2026-03-22T07:58:57Z</time></trkpt><trkpt lat="37.91723096725086" lon="15.999629977159406"><ele>16.0</ele><time>2026-03-22T07:58:58Z</time></trkpt><trkpt lat="37.91733825533697" lon="15.99973988804118"><ele>16.0</ele><time>2026-03-22T07:58:59Z</time></trkpt><trkpt lat="37.9174322763317" lon="15.999862875341593"><ele>16.0</ele><time>2026-03-22T07:59:00Z</time></trkpt><trkpt lat="37.917522640914626" lon="15.999996179702036"><ele>16.0</ele><time>2026-03-22T07:59:01Z</time></trkpt><trkpt lat="37.91760933620574" lon="16.000142783584092"><ele>22.666666666666664</ele><time>2026-03-22T07:59:02Z</time></trkpt><trkpt lat="37.91769436045796" lon="16.000305457431427"><ele>29.333333333333332</ele><time>2026-03-22T07:59:03Z</time></trkpt><trkpt lat="37.91777647010188" lon="16.000482881713292"><ele>36.0</ele><time>2026-03-22T07:59:04Z</time></trkpt><trkpt lat="37.917858177076226" lon="16.000650611559838"><ele>36.0</ele><time>2026-03-22T07:59:05Z</time></trkpt><trkpt lat="37.917942112922155" lon="16.00083212807873"><ele>36.0</ele><time>2026-03-22T07:59:06Z</time></trkpt><trkpt lat="37.918037324506926" lon="16.001022079559196"><ele>36.0</ele><time>2026-03-22T07:59:07Z</time></trkpt><trkpt lat="37.91812576602628" lon="16.00120525626052"><ele>38.333333333333336</ele><time>2026-03-22T07:59:08Z</time></trkpt><trkpt lat="37.918213378337086" lon="16.001417599858275"><ele>40.66666666666667</ele><time>2026-03-22T07:59:09Z</time></trkpt><trkpt lat="37.918299061649776" lon="16.001602329301"><ele>43.0</ele><time>2026-03-22T07:59:10Z</time></trkpt><trkpt lat="37.91841497300903" lon="16.0017826376816"><ele>43.0</ele><time>2026-03-22T07:59:11Z</time></trkpt><trkpt lat="37.91851516448373" lon="16.00197111480992"><ele>43.0</ele><time>2026-03-22T07:59:12Z</time></trkpt><trkpt lat="37.918606290165286" lon="16.002165065752763"><ele>43.0</ele><time>2026-03-22T07:59:13Z</time></trkpt><trkpt lat="37.91869348535724" lon="16.00236225027614"><ele>36.66666666666667</ele><time>2026-03-22T07:59:14Z</time></trkpt><trkpt lat="37.91879789025744" lon="16.00254382890015"><ele>30.333333333333336</ele><time>2026-03-22T07:59:15Z</time></trkpt><trkpt lat="37.91888405355845" lon="16.002737905620133"><ele>24.0</ele><time>2026-03-22T07:59:16Z</time></trkpt><trkpt lat="37.91895146570037" lon="16.002949973429992"><ele>24.0</ele><time>2026-03-22T07:59:17Z</time></trkpt><trkpt lat="37.91899519528456" lon="16.00315173393092"><ele>24.0</ele><time>2026-03-22T07:59:18Z</time></trkpt><trkpt lat="37.91903796211133" lon="16.003366957840115"><ele>24.0</ele><time>2026-03-22T07:59:19Z</time></trkpt><trkpt lat="37.919088132886614" lon="16.003569709979402"><ele>20.666666666666668</ele><time>2026-03-22T07:59:20Z</time></trkpt><trkpt lat="37.91912245460125" lon="16.003790826461184"><ele>17.333333333333336</ele><time>2026-03-22T07:59:21Z</time></trkpt><trkpt lat="37.91917145538146" lon="16.004027001513805"><ele>14.0</ele><time>2026-03-22T07:59:22Z</time></trkpt><trkpt lat="37.919210840248724" lon="16.004233676522205"><ele>17.666666666666668</ele><time>2026-03-22T07:59:23Z</time></trkpt><trkpt lat="37.91924272967999" lon="16.004443010895653"><ele>21.333333333333336</ele><time>2026-03-22T07:59:24Z</time></trkpt><trkpt lat="37.919281764293196" lon="16.004661421032008"><ele>25.0</ele><time>2026-03-22T07:59:25Z</time></trkpt><trkpt lat="37.919333445846846" lon="16.004885060715356"><ele>22.666666666666668</ele><time>2026-03-22T07:59:26Z</time></trkpt><trkpt lat="37.91937733391715" lon="16.005103362436408"><ele>20.333333333333336</ele><time>2026-03-22T07:59:27Z</time></trkpt><trkpt lat="37.919411061466164" lon="16.005320549242"><ele>18.0</ele><time>2026-03-22T07:59:28Z</time></trkpt><trkpt lat="37.91945254057883" lon="16.00554218430891"><ele>18.0</ele><time>2026-03-22T07:59:29Z</time></trkpt><trkpt lat="37.919513866325964" lon="16.00578256600603"><ele>18.0</ele><time>2026-03-22T07:59:30Z</time></trkpt><trkpt lat="37.91952567389729" lon="16.00599039292262"><ele>18.0</ele><time>2026-03-22T07:59:31Z</time></trkpt><trkpt lat="37.91956180227252" lon="16.00621335731766"><ele>17.333333333333332</ele><time>2026-03-22T07:59:32Z</time></trkpt><trkpt lat="37.91959384522864" lon="16.00643724415834"><ele>16.666666666666664</ele><time>2026-03-22T07:59:33Z</time></trkpt><trkpt lat="37.91962431682808" lon="16.006661734630566"><ele>16.0</ele><time>2026-03-22T07:59:34Z</time></trkpt><trkpt lat="37.91965574804887" lon="16.0068897818354"><ele>15.666666666666666</ele><time>2026-03-22T07:59:35Z</time></trkpt><trkpt lat="37.919690259216814" lon="16.00711258419553"><ele>15.333333333333332</ele><time>2026-03-22T07:59:36Z</time></trkpt><trkpt lat="37.91971824309599" lon="16.007334969885424"><ele>15.0</ele><time>2026-03-22T07:59:37Z</time></trkpt><trkpt lat="37.91975204730876" lon="16.007555781688616"><ele>14.666666666666668</ele><time>2026-03-22T07:59:38Z</time></trkpt><trkpt lat="37.91978856302082" lon="16.007778000136256"><ele>14.333333333333334</ele><time>2026-03-22T07:59:39Z</time></trkpt><trkpt lat="37.91982422624976" lon="16.008006227434045"><ele>14.0</ele><time>2026-03-22T07:59:40Z</time></trkpt><trkpt lat="37.91985586193253" lon="16.00822718881923"><ele>13.666666666666668</ele><time>2026-03-22T07:59:41Z</time></trkpt><trkpt lat="37.91988996028831" lon="16.00845310630194"><ele>13.333333333333332</ele><time>2026-03-22T07:59:42Z</time></trkpt><trkpt lat="37.919926215612975" lon="16.008678703081458"><ele>13.0</ele><time>2026-03-22T07:59:43Z</time></trkpt><trkpt lat="37.91996624266553" lon="16.008905359232536"><ele>13.0</ele><time>2026-03-22T07:59:44Z</time></trkpt><trkpt lat="37.91998538269901" lon="16.009142083056496"><ele>13.0</ele><time>2026-03-22T07:59:45Z</time></trkpt><trkpt lat="37.920013385808836" lon="16.009366960091718"><ele>13.0</ele><time>2026-03-22T07:59:46Z</time></trkpt><trkpt lat="37.92007361879177" lon="16.00957472215283"><ele>13.333333333333332</ele><time>2026-03-22T07:59:47Z</time></trkpt><trkpt lat="37.92012807355833" lon="16.009781752007203"><ele>13.666666666666668</ele><time>2026-03-22T07:59:48Z</time></trkpt><trkpt lat="37.920183145474304" lon="16.010004069511613"><ele>14.0</ele><time>2026-03-22T07:59:49Z</time></trkpt><trkpt lat="37.920254131407304" lon="16.010219095836543"><ele>12.666666666666668</ele><time>2026-03-22T07:59:50Z</time></trkpt><trkpt lat="37.92031348691704" lon="16.010433769180644"><ele>11.333333333333334</ele><time>2026-03-22T07:59:51Z</time></trkpt><trkpt lat="37.92037364665209" lon="16.010594535034766"><ele>10.0</ele><time>2026-03-22T07:59:52Z</time></trkpt><trkpt lat="37.920413420230474" lon="16.010784072790536"><ele>9.25</ele><time>2026-03-22T07:59:53Z</time></trkpt><trkpt lat="37.9204675534534" lon="16.010960477874654"><ele>8.5</ele><time>2026-03-22T07:59:54Z</time></trkpt><trkpt lat="37.920535080339825" lon="16.01112230331772"><ele>7.75</ele><time>2026-03-22T07:59:55Z</time></trkpt><trkpt lat="37.92061739713975" lon="16.01127843608328"><ele>7.0</ele><time>2026-03-22T07:59:56Z</time></trkpt><trkpt lat="37.92070993575773" lon="16.011432856196127"><ele>7.0</ele><time>2026-03-22T07:59:57Z</time></trkpt><trkpt lat="37.920810855934185" lon="16.0115820728702"><ele>7.0</ele><time>2026-03-22T07:59:58Z</time></trkpt><trkpt lat="37.920923649590435" lon="16.01171981813763"><ele>7.0</ele><time>2026-03-22T07:59:59Z</time></trkpt><trkpt lat="37.92104153065966" lon="16.011854755238264"><ele>8.0</ele><time>2026-03-22T08:00:00Z</time></trkpt><trkpt lat="37.92115929623609" lon="16.01199341574987"><ele>9.0</ele><time>2026-03-22T08:00:01Z</time></trkpt><trkpt lat="37.92127083988832" lon="16.012142112320888"><ele>10.0</ele><time>2026-03-22T08:00:02Z</time></trkpt><trkpt lat="37.92137236859289" lon="16.01231135173368"><ele>9.333333333333334</ele><time>2026-03-22T08:00:03Z</time></trkpt><trkpt lat="37.92147294673214" lon="16.012496141315896"><ele>8.666666666666666</ele><time>2026-03-22T08:00:04Z</time></trkpt><trkpt lat="37.92155307510622" lon="16.0126687645121"><ele>8.0</ele><time>2026-03-22T08:00:05Z</time></trkpt><trkpt lat="37.92162987311849" lon="16.01279811030628"><ele>8.0</ele><time>2026-03-22T08:00:06Z</time></trkpt><trkpt lat="37.92171953468423" lon="16.012929829277674"><ele>8.0</ele><time>2026-03-22T08:00:07Z</time></trkpt><trkpt lat="37.92176809766792" lon="16.013107046904963"><ele>8.0</ele><time>2026-03-22T08:00:08Z</time></trkpt><trkpt lat="37.9218293000173" lon="16.013272160353896"><ele>8.0</ele><time>2026-03-22T08:00:09Z</time></trkpt><trkpt lat="37.92189349136844" lon="16.013439230728572"><ele>9.25</ele><time>2026-03-22T08:00:10Z</time></trkpt><trkpt lat="37.921910145253946" lon="16.013599233671155"><ele>10.5</ele><time>2026-03-22T08:00:11Z</time></trkpt><trkpt lat="37.92192959815599" lon="16.013778772625326"><ele>11.75</ele><time>2026-03-22T08:00:12Z</time></trkpt><trkpt lat="37.92197580829457" lon="16.013974890811422"><ele>13.0</ele><time>2026-03-22T08:00:13Z</time></trkpt><trkpt lat="37.922032297293086" lon="16.014179938126766"><ele>13.0</ele><time>2026-03-22T08:00:14Z</time></trkpt><trkpt lat="37.9220890384338" lon="16.014402654574752"><ele>13.0</ele><time>2026-03-22T08:00:15Z</time></trkpt><trkpt lat="37.92214014954163" lon="16.01462078671922"><ele>13.0</ele><time>2026-03-22T08:00:16Z</time></trkpt><trkpt lat="37.92217510433869" lon="16.014827327863568"><ele>12.333333333333332</ele><time>2026-03-22T08:00:17Z</time></trkpt><trkpt lat="37.92222941501165" lon="16.01504867752118"><ele>11.666666666666666</ele><time>2026-03-22T08:00:18Z</time></trkpt><trkpt lat="37.922288960323144" lon="16.015272463279704"><ele>11.0</ele><time>2026-03-22T08:00:19Z</time></trkpt><trkpt lat="37.922341495898024" lon="16.015494901135717"><ele>11.0</ele><time>2026-03-22T08:00:20Z</time></trkpt><trkpt lat="37.922399931589965" lon="16.015720982893594"><ele>11.0</ele><time>2026-03-22T08:00:21Z</time></trkpt><trkpt lat="37.922448058360324" lon="16.015945485334512"><ele>11.0</ele><time>2026-03-22T08:00:22Z</time></trkpt><trkpt lat="37.922502958278606" lon="16.016178580258675"><ele>10.333333333333332</ele><time>2026-03-22T08:00:23Z</time></trkpt><trkpt lat="37.922560286374306" lon="16.016408468719696"><ele>9.666666666666666</ele><time>2026-03-22T08:00:24Z</time></trkpt><trkpt lat="37.922600149538624" lon="16.016629498674302"><ele>9.0</ele><time>2026-03-22T08:00:25Z</time></trkpt><trkpt lat="37.922634861576874" lon="16.016863183636833"><ele>11.333333333333332</ele><time>2026-03-22T08:00:26Z</time></trkpt><trkpt lat="37.9226720356632" lon="16.0170900785532"><ele>13.666666666666666</ele><time>2026-03-22T08:00:27Z</time></trkpt><trkpt lat="37.9227128598536" lon="16.017323403412163"><ele>16.0</ele><time>2026-03-22T08:00:28Z</time></trkpt><trkpt lat="37.92275034073078" lon="16.017549829327955"><ele>16.0</ele><time>2026-03-22T08:00:29Z</time></trkpt><trkpt lat="37.92278983706193" lon="16.017779774114135"><ele>16.0</ele><time>2026-03-22T08:00:30Z</time></trkpt><trkpt lat="37.92282745953397" lon="16.0180063148503"><ele>16.0</ele><time>2026-03-22T08:00:31Z</time></trkpt><trkpt lat="37.92286208776296" lon="16.018229941130826"><ele>15.333333333333332</ele><time>2026-03-22T08:00:32Z</time></trkpt><trkpt lat="37.922927362751494" lon="16.01846843215822"><ele>14.666666666666668</ele><time>2026-03-22T08:00:33Z</time></trkpt><trkpt lat="37.9229659168568" lon="16.018678991034424"><ele>14.0</ele><time>2026-03-22T08:00:34Z</time></trkpt><trkpt lat="37.92298252374154" lon="16.018925644056406"><ele>12.666666666666668</ele><time>2026-03-22T08:00:35Z</time></trkpt><trkpt lat="37.92305523361128" lon="16.01915274335603"><ele>11.333333333333334</ele><time>2026-03-22T08:00:36Z</time></trkpt><trkpt lat="37.92309442955948" lon="16.019381386969094"><ele>10.0</ele><time>2026-03-22T08:00:37Z</time></trkpt><trkpt lat="37.92313957796281" lon="16.019609927479518"><ele>10.0</ele><time>2026-03-22T08:00:38Z</time></trkpt><trkpt lat="37.923167849257226" lon="16.019835664349788"><ele>10.0</ele><time>2026-03-22T08:00:39Z</time></trkpt><trkpt lat="37.923205963375864" lon="16.020068039474324"><ele>10.0</ele><time>2026-03-22T08:00:40Z</time></trkpt><trkpt lat="37.92324464020369" lon="16.020300084300644"><ele>10.0</ele><time>2026-03-22T08:00:41Z</time></trkpt><trkpt lat="37.92328465485956" lon="16.020523795304833"><ele>10.0</ele><time>2026-03-22T08:00:42Z</time></trkpt><trkpt lat="37.923322233168456" lon="16.020753504620046"><ele>10.0</ele><time>2026-03-22T08:00:43Z</time></trkpt><trkpt lat="37.9233608281959" lon="16.020980095203733"><ele>10.666666666666668</ele><time>2026-03-22T08:00:44Z</time></trkpt><trkpt lat="37.92339781239213" lon="16.02120901559979"><ele>11.333333333333334</ele><time>2026-03-22T08:00:45Z</time></trkpt><trkpt lat="37.92343541019761" lon="16.02143556096628"><ele>12.0</ele><time>2026-03-22T08:00:46Z</time></trkpt><trkpt lat="37.92347231569456" lon="16.021658003810913"><ele>13.333333333333332</ele><time>2026-03-22T08:00:47Z</time></trkpt><trkpt lat="37.923510128051376" lon="16.021882894385488"><ele>14.666666666666666</ele><time>2026-03-22T08:00:48Z</time></trkpt><trkpt lat="37.92354908065953" lon="16.02210410159952"><ele>16.0</ele><time>2026-03-22T08:00:49Z</time></trkpt><trkpt lat="37.9235886042071" lon="16.02232790196938"><ele>16.333333333333332</ele><time>2026-03-22T08:00:50Z</time></trkpt><trkpt lat="37.92362546261081" lon="16.022549966470176"><ele>16.666666666666668</ele><time>2026-03-22T08:00:51Z</time></trkpt><trkpt lat="37.92366268139544" lon="16.02277282696241"><ele>17.0</ele><time>2026-03-22T08:00:52Z</time></trkpt><trkpt lat="37.92369862365394" lon="16.022991761201066"><ele>17.0</ele><time>2026-03-22T08:00:53Z</time></trkpt><trkpt lat="37.92373865510702" lon="16.02321193384697"><ele>17.0</ele><time>2026-03-22T08:00:54Z</time></trkpt><trkpt lat="37.92378430460804" lon="16.023430708058335"><ele>17.0</ele><time>2026-03-22T08:00:55Z</time></trkpt><trkpt lat="37.92383213957114" lon="16.02365058989239"><ele>16.333333333333336</ele><time>2026-03-22T08:00:56Z</time></trkpt><trkpt lat="37.923874565229205" lon="16.023866282597556"><ele>15.666666666666668</ele><time>2026-03-22T08:00:57Z</time></trkpt><trkpt lat="37.9239169655765" lon="16.024083208986507"><ele>15.0</ele><time>2026-03-22T08:00:58Z</time></trkpt><trkpt lat="37.92396250442612" lon="16.024302822049883"><ele>13.666666666666666</ele><time>2026-03-22T08:00:59Z</time></trkpt><trkpt lat="37.92400853417132" lon="16.02452482593207"><ele>12.333333333333332</ele><time>2026-03-22T08:01:00Z</time></trkpt><trkpt lat="37.924060200277445" lon="16.02474404406601"><ele>11.0</ele><time>2026-03-22T08:01:01Z</time></trkpt><trkpt lat="37.92410217528188" lon="16.024963089347057"><ele>10.666666666666666</ele><time>2026-03-22T08:01:02Z</time></trkpt><trkpt lat="37.92412968469783" lon="16.025179675676974"><ele>10.333333333333334</ele><time>2026-03-22T08:01:03Z</time></trkpt><trkpt lat="37.92414275275636" lon="16.025398421949628"><ele>10.0</ele><time>2026-03-22T08:01:04Z</time></trkpt><trkpt lat="37.92414239500388" lon="16.02561954791683"><ele>10.666666666666668</ele><time>2026-03-22T08:01:05Z</time></trkpt><trkpt lat="37.924134458000786" lon="16.025855657299196"><ele>11.333333333333334</ele><time>2026-03-22T08:01:06Z</time></trkpt><trkpt lat="37.92411623592557" lon="16.02608179042644"><ele>12.0</ele><time>2026-03-22T08:01:07Z</time></trkpt><trkpt lat="37.92412231334518" lon="16.026310219514965"><ele>12.0</ele><time>2026-03-22T08:01:08Z</time></trkpt><trkpt lat="37.92411724321656" lon="16.026536027514844"><ele>12.0</ele><time>2026-03-22T08:01:09Z</time></trkpt><trkpt lat="37.924116379878434" lon="16.026758455479204"><ele>12.0</ele><time>2026-03-22T08:01:10Z</time></trkpt><trkpt lat="37.92411536997381" lon="16.026980754035495"><ele>12.666666666666668</ele><time>2026-03-22T08:01:11Z</time></trkpt><trkpt lat="37.92411069598292" lon="16.027203209588077"><ele>13.333333333333334</ele><time>2026-03-22T08:01:12Z</time></trkpt><trkpt lat="37.92411710889073" lon="16.027429094376394"><ele>14.0</ele><time>2026-03-22T08:01:13Z</time></trkpt><trkpt lat="37.924115404426686" lon="16.02765032624516"><ele>14.0</ele><time>2026-03-22T08:01:14Z</time></trkpt><trkpt lat="37.924102092887345" lon="16.027875117220578"><ele>14.0</ele><time>2026-03-22T08:01:15Z</time></trkpt><trkpt lat="37.92409067661559" lon="16.028103546094883"><ele>14.0</ele><time>2026-03-22T08:01:16Z</time></trkpt><trkpt lat="37.92405726316209" lon="16.02832840012669"><ele>14.333333333333334</ele><time>2026-03-22T08:01:17Z</time></trkpt><trkpt lat="37.92401519513165" lon="16.028551588087154"><ele>14.666666666666668</ele><time>2026-03-22T08:01:18Z</time></trkpt><trkpt lat="37.92398121576296" lon="16.02877232578172"><ele>15.0</ele><time>2026-03-22T08:01:19Z</time></trkpt><trkpt lat="37.923945369428026" lon="16.028996919377256"><ele>14.666666666666668</ele><time>2026-03-22T08:01:20Z</time></trkpt><trkpt lat="37.923930433977816" lon="16.029227426370085"><ele>14.333333333333334</ele><time>2026-03-22T08:01:21Z</time></trkpt><trkpt lat="37.92392123601128" lon="16.029454541036582"><ele>14.0</ele><time>2026-03-22T08:01:22Z</time></trkpt><trkpt lat="37.92392369878223" lon="16.029682400721008"><ele>14.0</ele><time>2026-03-22T08:01:23Z</time></trkpt><trkpt lat="37.92393733163011" lon="16.029907121719603"><ele>14.0</ele><time>2026-03-22T08:01:24Z</time></trkpt><trkpt lat="37.92395261789322" lon="16.030138036117247"><ele>14.0</ele><time>2026-03-22T08:01:25Z</time></trkpt><trkpt lat="37.9239700713352" lon="16.030366817442687"><ele>13.666666666666668</ele><time>2026-03-22T08:01:26Z</time></trkpt><trkpt lat="37.92398299979025" lon="16.030599734349803"><ele>13.333333333333332</ele><time>2026-03-22T08:01:27Z</time></trkpt><trkpt lat="37.923995389818145" lon="16.030833466630725"><ele>13.0</ele><time>2026-03-22T08:01:28Z</time></trkpt><trkpt lat="37.92401245132924" lon="16.03106861811284"><ele>13.0</ele><time>2026-03-22T08:01:29Z</time></trkpt><trkpt lat="37.92402994000737" lon="16.031301818439633"><ele>13.0</ele><time>2026-03-22T08:01:30Z</time></trkpt><trkpt lat="37.92405306206815" lon="16.031535369796988"><ele>13.0</ele><time>2026-03-22T08:01:31Z</time></trkpt><trkpt lat="37.92408972478329" lon="16.031765935940005"><ele>12.666666666666666</ele><time>2026-03-22T08:01:32Z</time></trkpt><trkpt lat="37.9241360565507" lon="16.031993272084772"><ele>12.333333333333332</ele><time>2026-03-22T08:01:33Z</time></trkpt><trkpt lat="37.92417705382954" lon="16.032209684385194"><ele>12.0</ele><time>2026-03-22T08:01:34Z</time></trkpt><trkpt lat="37.924205507952465" lon="16.03241683447299"><ele>11.666666666666666</ele><time>2026-03-22T08:01:35Z</time></trkpt><trkpt lat="37.92421606404042" lon="16.032627254045288"><ele>11.333333333333332</ele><time>2026-03-22T08:01:36Z</time></trkpt><trkpt lat="37.924212861727526" lon="16.032835790627164"><ele>11.0</ele><time>2026-03-22T08:01:37Z</time></trkpt><trkpt lat="37.924202515833855" lon="16.033042438900296"><ele>11.0</ele><time>2026-03-22T08:01:38Z</time></trkpt><trkpt lat="37.924192382637386" lon="16.03324903171954"><ele>11.0</ele><time>2026-03-22T08:01:39Z</time></trkpt><trkpt lat="37.924194543570685" lon="16.03346224825436"><ele>11.0</ele><time>2026-03-22T08:01:40Z</time></trkpt><trkpt lat="37.92421451812507" lon="16.033674728909503"><ele>16.666666666666668</ele><time>2026-03-22T08:01:41Z</time></trkpt><trkpt lat="37.92425317946254" lon="16.033887758137315"><ele>22.333333333333336</ele><time>2026-03-22T08:01:42Z</time></trkpt><trkpt lat="37.924303875619835" lon="16.03410044427396"><ele>28.0</ele><time>2026-03-22T08:01:43Z</time></trkpt><trkpt lat="37.92435718248659" lon="16.034315811749444"><ele>29.333333333333336</ele><time>2026-03-22T08:01:44Z</time></trkpt><trkpt lat="37.92441049849094" lon="16.03453404010441"><ele>30.666666666666664</ele><time>2026-03-22T08:01:45Z</time></trkpt><trkpt lat="37.9244605524708" lon="16.03475444979598"><ele>32.0</ele><time>2026-03-22T08:01:46Z</time></trkpt><trkpt lat="37.92451841251" lon="16.034972468699035"><ele>29.333333333333332</ele><time>2026-03-22T08:01:47Z</time></trkpt><trkpt lat="37.92458584428634" lon="16.0351846668378"><ele>26.666666666666664</ele><time>2026-03-22T08:01:48Z</time></trkpt><trkpt lat="37.9246567850478" lon="16.03538495059513"><ele>24.0</ele><time>2026-03-22T08:01:49Z</time></trkpt><trkpt lat="37.924719268574364" lon="16.035578853147967"><ele>24.0</ele><time>2026-03-22T08:01:50Z</time></trkpt><trkpt lat="37.924772842633146" lon="16.035767790338973"><ele>24.0</ele><time>2026-03-22T08:01:51Z</time></trkpt><trkpt lat="37.924799112462004" lon="16.035958555339537"><ele>24.0</ele><time>2026-03-22T08:01:52Z</time></trkpt><trkpt lat="37.92479885558467" lon="16.03615579162452"><ele>20.666666666666668</ele><time>2026-03-22T08:01:53Z</time></trkpt><trkpt lat="37.92478803991177" lon="16.036361274544284"><ele>17.333333333333336</ele><time>2026-03-22T08:01:54Z</time></trkpt><trkpt lat="37.92476820347872" lon="16.036574053141663"><ele>14.0</ele><time>2026-03-22T08:01:55Z</time></trkpt><trkpt lat="37.924746000805115" lon="16.036790500309408"><ele>13.666666666666668</ele><time>2026-03-22T08:01:56Z</time></trkpt><trkpt lat="37.924728482702484" lon="16.03700888416658"><ele>13.333333333333332</ele><time>2026-03-22T08:01:57Z</time></trkpt><trkpt lat="37.92471022805929" lon="16.037235511928827"><ele>13.0</ele><time>2026-03-22T08:01:58Z</time></trkpt><trkpt lat="37.9246896849555" lon="16.037463398105032"><ele>13.333333333333332</ele><time>2026-03-22T08:01:59Z</time></trkpt><trkpt lat="37.92467139876072" lon="16.037696485827844"><ele>13.666666666666668</ele><time>2026-03-22T08:02:00Z</time></trkpt><trkpt lat="37.92464680751413" lon="16.037930872368886"><ele>14.0</ele><time>2026-03-22T08:02:01Z</time></trkpt><trkpt lat="37.9246272276893" lon="16.038169264239745"><ele>14.0</ele><time>2026-03-22T08:02:02Z</time></trkpt><trkpt lat="37.92460359894004" lon="16.038409437219325"><ele>14.0</ele><time>2026-03-22T08:02:03Z</time></trkpt><trkpt lat="37.92458062699631" lon="16.038646000248267"><ele>14.0</ele><time>2026-03-22T08:02:04Z</time></trkpt><trkpt lat="37.924557575491086" lon="16.038871046212048"><ele>14.0</ele><time>2026-03-22T08:02:05Z</time></trkpt><trkpt lat="37.92453471467527" lon="16.03908403904364"><ele>14.0</ele><time>2026-03-22T08:02:06Z</time></trkpt><trkpt lat="37.92451631155418" lon="16.039286186912424"><ele>14.0</ele><time>2026-03-22T08:02:07Z</time></trkpt><trkpt lat="37.92449136297804" lon="16.039482321790445"><ele>15.0</ele><time>2026-03-22T08:02:08Z</time></trkpt><trkpt lat="37.9244653107628" lon="16.039680202430173"><ele>16.0</ele><time>2026-03-22T08:02:09Z</time></trkpt><trkpt lat="37.924433826613516" lon="16.039858895759714"><ele>17.0</ele><time>2026-03-22T08:02:10Z</time></trkpt><trkpt lat="37.92437733883366" lon="16.040027914136324"><ele>18.0</ele><time>2026-03-22T08:02:11Z</time></trkpt><trkpt lat="37.9243028459273" lon="16.040189430846777"><ele>16.0</ele><time>2026-03-22T08:02:12Z</time></trkpt><trkpt lat="37.92421986537312" lon="16.040370780853156"><ele>14.0</ele><time>2026-03-22T08:02:13Z</time></trkpt><trkpt lat="37.924169521524234" lon="16.040555007857165"><ele>12.0</ele><time>2026-03-22T08:02:14Z</time></trkpt><trkpt lat="37.924088446520884" lon="16.04074926964533"><ele>12.333333333333332</ele><time>2026-03-22T08:02:15Z</time></trkpt><trkpt lat="37.92399789546466" lon="16.040939071084065"><ele>12.666666666666666</ele><time>2026-03-22T08:02:16Z</time></trkpt><trkpt lat="37.92390735467104" lon="16.041128353650524"><ele>13.0</ele><time>2026-03-22T08:02:17Z</time></trkpt><trkpt lat="37.923821674215176" lon="16.04133041095185"><ele>13.0</ele><time>2026-03-22T08:02:18Z</time></trkpt><trkpt lat="37.923734892581564" lon="16.041529962518457"><ele>13.0</ele><time>2026-03-22T08:02:19Z</time></trkpt><trkpt lat="37.92362865656311" lon="16.04172028305195"><ele>13.0</ele><time>2026-03-22T08:02:20Z</time></trkpt><trkpt lat="37.923548596200845" lon="16.041914559357235"><ele>13.666666666666666</ele><time>2026-03-22T08:02:21Z</time></trkpt><trkpt lat="37.92346613341447" lon="16.042102264267065"><ele>14.333333333333332</ele><time>2026-03-22T08:02:22Z</time></trkpt><trkpt lat="37.92339253970927" lon="16.042295244191884"><ele>15.0</ele><time>2026-03-22T08:02:23Z</time></trkpt><trkpt lat="37.92331641053076" lon="16.04248101660037"><ele>13.333333333333334</ele><time>2026-03-22T08:02:24Z</time></trkpt><trkpt lat="37.92327017599587" lon="16.042686603189477"><ele>11.666666666666668</ele><time>2026-03-22T08:02:25Z</time></trkpt><trkpt lat="37.92325741127472" lon="16.04291431719095"><ele>10.0</ele><time>2026-03-22T08:02:26Z</time></trkpt><trkpt lat="37.92323655706613" lon="16.043145235813594"><ele>9.666666666666668</ele><time>2026-03-22T08:02:27Z</time></trkpt><trkpt lat="37.923216526657725" lon="16.043376391621848"><ele>9.333333333333334</ele><time>2026-03-22T08:02:28Z</time></trkpt><trkpt lat="37.92318675399829" lon="16.043619425425476"><ele>9.0</ele><time>2026-03-22T08:02:29Z</time></trkpt><trkpt lat="37.923176126013146" lon="16.04385228782599"><ele>9.0</ele><time>2026-03-22T08:02:30Z</time></trkpt><trkpt lat="37.92315174869753" lon="16.04408133333506"><ele>9.0</ele><time>2026-03-22T08:02:31Z</time></trkpt><trkpt lat="37.92313064810091" lon="16.044304354879927"><ele>9.0</ele><time>2026-03-22T08:02:32Z</time></trkpt><trkpt lat="37.923117615967804" lon="16.04451152126535"><ele>9.0</ele><time>2026-03-22T08:02:33Z</time></trkpt><trkpt lat="37.923105739759556" lon="16.044704587981325"><ele>9.0</ele><time>2026-03-22T08:02:34Z</time></trkpt><trkpt lat="37.92310678843353" lon="16.044892014346015"><ele>9.0</ele><time>2026-03-22T08:02:35Z</time></trkpt><trkpt lat="37.923132941709774" lon="16.045079190892654"><ele>10.333333333333332</ele><time>2026-03-22T08:02:36Z</time></trkpt><trkpt lat="37.923182491106076" lon="16.04526810721529"><ele>11.666666666666666</ele><time>2026-03-22T08:02:37Z</time></trkpt><trkpt lat="37.92323919560545" lon="16.04545984807713"><ele>13.0</ele><time>2026-03-22T08:02:38Z</time></trkpt><trkpt lat="37.9233067252976" lon="16.04565657616672"><ele>12.333333333333332</ele><time>2026-03-22T08:02:39Z</time></trkpt><trkpt lat="37.92337013053015" lon="16.045862921692844"><ele>11.666666666666666</ele><time>2026-03-22T08:02:40Z</time></trkpt><trkpt lat="37.923435046839245" lon="16.046072827980193"><ele>11.0</ele><time>2026-03-22T08:02:41Z</time></trkpt><trkpt lat="37.92350145121244" lon="16.046291028359047"><ele>13.333333333333332</ele><time>2026-03-22T08:02:42Z</time></trkpt><trkpt lat="37.92356940041257" lon="16.046511272687702"><ele>15.666666666666666</ele><time>2026-03-22T08:02:43Z</time></trkpt><trkpt lat="37.9236330673659" lon="16.0467375622203"><ele>18.0</ele><time>2026-03-22T08:02:44Z</time></trkpt><trkpt lat="37.92369884398806" lon="16.04697191281296"><ele>18.0</ele><time>2026-03-22T08:02:45Z</time></trkpt><trkpt lat="37.92375964164071" lon="16.047213660952163"><ele>18.0</ele><time>2026-03-22T08:02:46Z</time></trkpt><trkpt lat="37.923813158864185" lon="16.047461480852842"><ele>18.0</ele><time>2026-03-22T08:02:47Z</time></trkpt><trkpt lat="37.923861160034896" lon="16.047720415631048"><ele>17.0</ele><time>2026-03-22T08:02:48Z</time></trkpt><trkpt lat="37.923903851196854" lon="16.047982443186815"><ele>16.0</ele><time>2026-03-22T08:02:49Z</time></trkpt><trkpt lat="37.923948880641134" lon="16.048246918471342"><ele>15.0</ele><time>2026-03-22T08:02:50Z</time></trkpt><trkpt lat="37.92399417111339" lon="16.048512167972145"><ele>13.666666666666666</ele><time>2026-03-22T08:02:51Z</time></trkpt><trkpt lat="37.92403926786106" lon="16.048775217061902"><ele>12.333333333333332</ele><time>2026-03-22T08:02:52Z</time></trkpt><trkpt lat="37.92408630338741" lon="16.04902788725892"><ele>11.0</ele><time>2026-03-22T08:02:53Z</time></trkpt><trkpt lat="37.924127655105586" lon="16.04927807577854"><ele>10.333333333333332</ele><time>2026-03-22T08:02:54Z</time></trkpt><trkpt lat="37.924163653177345" lon="16.049521732986776"><ele>9.666666666666666</ele><time>2026-03-22T08:02:55Z</time></trkpt><trkpt lat="37.924204828145726" lon="16.049772101637938"><ele>9.0</ele><time>2026-03-22T08:02:56Z</time></trkpt><trkpt lat="37.924238912604125" lon="16.05001835375393"><ele>12.333333333333332</ele><time>2026-03-22T08:02:57Z</time></trkpt><trkpt lat="37.92426468109018" lon="16.05026659580583"><ele>15.666666666666666</ele><time>2026-03-22T08:02:58Z</time></trkpt><trkpt lat="37.9242812715719" lon="16.050511764502538"><ele>19.0</ele><time>2026-03-22T08:02:59Z</time></trkpt><trkpt lat="37.92429418036618" lon="16.050758715020272"><ele>20.0</ele><time>2026-03-22T08:03:00Z</time></trkpt><trkpt lat="37.924299733658394" lon="16.051007706806875"><ele>21.0</ele><time>2026-03-22T08:03:01Z</time></trkpt><trkpt lat="37.92430394205558" lon="16.05125120934582"><ele>22.0</ele><time>2026-03-22T08:03:02Z</time></trkpt><trkpt lat="37.9243083626089" lon="16.051496604359123"><ele>22.333333333333332</ele><time>2026-03-22T08:03:03Z</time></trkpt><trkpt lat="37.92431810168513" lon="16.051740187943196"><ele>22.666666666666668</ele><time>2026-03-22T08:03:04Z</time></trkpt><trkpt lat="37.92433277723868" lon="16.051983115586875"><ele>23.0</ele><time>2026-03-22T08:03:05Z</time></trkpt><trkpt lat="37.92435612853154" lon="16.052229966091502"><ele>21.333333333333336</ele><time>2026-03-22T08:03:06Z</time></trkpt><trkpt lat="37.92438513200229" lon="16.052474072016082"><ele>19.666666666666668</ele><time>2026-03-22T08:03:07Z</time></trkpt><trkpt lat="37.9244166931542" lon="16.052720353548615"><ele>18.0</ele><time>2026-03-22T08:03:08Z</time></trkpt><trkpt lat="37.924447509972694" lon="16.052965558384354"><ele>18.0</ele><time>2026-03-22T08:03:09Z</time></trkpt><trkpt lat="37.92447740803896" lon="16.053211432387734"><ele>18.0</ele><time>2026-03-22T08:03:10Z</time></trkpt><trkpt lat="37.924512875043575" lon="16.053458204666878"><ele>18.0</ele><time>2026-03-22T08:03:11Z</time></trkpt><trkpt lat="37.92454482153162" lon="16.0537086484169"><ele>18.333333333333332</ele><time>2026-03-22T08:03:12Z</time></trkpt><trkpt lat="37.924579034956636" lon="16.05395642272156"><ele>18.666666666666664</ele><time>2026-03-22T08:03:13Z</time></trkpt><trkpt lat="37.9245958631763" lon="16.054197456447035"><ele>19.0</ele><time>2026-03-22T08:03:14Z</time></trkpt><trkpt lat="37.9246054334323" lon="16.054444419721015"><ele>19.0</ele><time>2026-03-22T08:03:15Z</time></trkpt><trkpt lat="37.92461441793144" lon="16.05469026484381"><ele>19.0</ele><time>2026-03-22T08:03:16Z</time></trkpt><trkpt lat="37.924638580200565" lon="16.0549365635834"><ele>19.0</ele><time>2026-03-22T08:03:17Z</time></trkpt><trkpt lat="37.92465369211577" lon="16.05518668125022"><ele>22.666666666666664</ele><time>2026-03-22T08:03:18Z</time></trkpt><trkpt lat="37.92467066572578" lon="16.055439501585873"><ele>26.333333333333332</ele><time>2026-03-22T08:03:19Z</time></trkpt><trkpt lat="37.924687069647895" lon="16.055700462046957"><ele>30.0</ele><time>2026-03-22T08:03:20Z</time></trkpt><trkpt lat="37.924710757751086" lon="16.05595188697257"><ele>30.0</ele><time>2026-03-22T08:03:21Z</time></trkpt><trkpt lat="37.92476036903169" lon="16.056214208023096"><ele>30.0</ele><time>2026-03-22T08:03:22Z</time></trkpt><trkpt lat="37.92479624182895" lon="16.056467291403333"><ele>30.0</ele><time>2026-03-22T08:03:23Z</time></trkpt><trkpt lat="37.924831627192766" lon="16.056717265023014"><ele>27.666666666666668</ele><time>2026-03-22T08:03:24Z</time></trkpt><trkpt lat="37.92486633515322" lon="16.05697073568733"><ele>25.333333333333336</ele><time>2026-03-22T08:03:25Z</time></trkpt><trkpt lat="37.9249005893726" lon="16.057215581962215"><ele>23.0</ele><time>2026-03-22T08:03:26Z</time></trkpt><trkpt lat="37.92492984278871" lon="16.057467660897085"><ele>21.666666666666668</ele><time>2026-03-22T08:03:27Z</time></trkpt><trkpt lat="37.92495269223653" lon="16.05771674494459"><ele>20.333333333333332</ele><time>2026-03-22T08:03:28Z</time></trkpt><trkpt lat="37.92499161445629" lon="16.05796752857466"><ele>19.0</ele><time>2026-03-22T08:03:29Z</time></trkpt><trkpt lat="37.92501365101003" lon="16.058217618326164"><ele>18.0</ele><time>2026-03-22T08:03:30Z</time></trkpt><trkpt lat="37.925031675062066" lon="16.058473145298322"><ele>17.0</ele><time>2026-03-22T08:03:31Z</time></trkpt><trkpt lat="37.92504925948926" lon="16.058729035372128"><ele>16.0</ele><time>2026-03-22T08:03:32Z</time></trkpt><trkpt lat="37.92506221525811" lon="16.058984366099978"><ele>26.0</ele><time>2026-03-22T08:03:33Z</time></trkpt><trkpt lat="37.9250863935515" lon="16.05923875830424"><ele>36.0</ele><time>2026-03-22T08:03:34Z</time></trkpt><trkpt lat="37.92510218857714" lon="16.059497295907423"><ele>46.0</ele><time>2026-03-22T08:03:35Z</time></trkpt><trkpt lat="37.925101880539295" lon="16.059748320009813"><ele>43.0</ele><time>2026-03-22T08:03:36Z</time></trkpt><trkpt lat="37.92510473032402" lon="16.060002202731347"><ele>40.0</ele><time>2026-03-22T08:03:37Z</time></trkpt><trkpt lat="37.925101412452165" lon="16.060257164065334"><ele>37.0</ele><time>2026-03-22T08:03:38Z</time></trkpt><trkpt lat="37.92509455363155" lon="16.060508202697658"><ele>37.0</ele><time>2026-03-22T08:03:39Z</time></trkpt><trkpt lat="37.925105580433616" lon="16.060761237533843"><ele>37.0</ele><time>2026-03-22T08:03:40Z</time></trkpt><trkpt lat="37.92513039057083" lon="16.06100307472928"><ele>37.0</ele><time>2026-03-22T08:03:41Z</time></trkpt><trkpt lat="37.92517647812848" lon="16.061243880686405"><ele>35.333333333333336</ele><time>2026-03-22T08:03:42Z</time></trkpt><trkpt lat="37.92523136165788" lon="16.061484220489415"><ele>33.666666666666664</ele><time>2026-03-22T08:03:43Z</time></trkpt><trkpt lat="37.92529985585498" lon="16.061718420277188"><ele>32.0</ele><time>2026-03-22T08:03:44Z</time></trkpt><trkpt lat="37.925382561285886" lon="16.061947407793557"><ele>26.666666666666664</ele><time>2026-03-22T08:03:45Z</time></trkpt><trkpt lat="37.925455952975874" lon="16.062172956563483"><ele>21.333333333333332</ele><time>2026-03-22T08:03:46Z</time></trkpt><trkpt lat="37.925542022965345" lon="16.062397849578446"><ele>16.0</ele><time>2026-03-22T08:03:47Z</time></trkpt><trkpt lat="37.92563582733635" lon="16.06261668806001"><ele>13.0</ele><time>2026-03-22T08:03:48Z</time></trkpt><trkpt lat="37.92573764765271" lon="16.062835845460242"><ele>10.0</ele><time>2026-03-22T08:03:49Z</time></trkpt><trkpt lat="37.925851022109" lon="16.063042488841777"><ele>7.0</ele><time>2026-03-22T08:03:50Z</time></trkpt><trkpt lat="37.92597715529978" lon="16.063230195906833"><ele>6.333333333333334</ele><time>2026-03-22T08:03:51Z</time></trkpt><trkpt lat="37.926116795647744" lon="16.063399496487868"><ele>5.666666666666667</ele><time>2026-03-22T08:03:52Z</time></trkpt><trkpt lat="37.92626380102568" lon="16.06355862225566"><ele>5.0</ele><time>2026-03-22T08:03:53Z</time></trkpt><trkpt lat="37.926412558281974" lon="16.06371677524553"><ele>5.0</ele><time>2026-03-22T08:03:54Z</time></trkpt><trkpt lat="37.926565715913796" lon="16.063872071792815"><ele>5.0</ele><time>2026-03-22T08:03:55Z</time></trkpt><trkpt lat="37.9267122820174" lon="16.064016325890247"><ele>5.0</ele><time>2026-03-22T08:03:56Z</time></trkpt><trkpt lat="37.92684401502894" lon="16.064153422574737"><ele>7.333333333333334</ele><time>2026-03-22T08:03:57Z</time></trkpt><trkpt lat="37.926961738649" lon="16.064290266507818"><ele>9.666666666666666</ele><time>2026-03-22T08:03:58Z</time></trkpt><trkpt lat="37.9270653501461" lon="16.06442587796809"><ele>12.0</ele><time>2026-03-22T08:03:59Z</time></trkpt><trkpt lat="37.92714987069018" lon="16.06457484495107"><ele>12.0</ele><time>2026-03-22T08:04:00Z</time></trkpt><trkpt lat="37.927233633701434" lon="16.06472879978786"><ele>12.0</ele><time>2026-03-22T08:04:01Z</time></trkpt><trkpt lat="37.92733798691926" lon="16.064859991810042"><ele>12.0</ele><time>2026-03-22T08:04:02Z</time></trkpt><trkpt lat="37.92746060977757" lon="16.064989794828946"><ele>15.333333333333332</ele><time>2026-03-22T08:04:03Z</time></trkpt><trkpt lat="37.92759957651917" lon="16.06510241511462"><ele>18.666666666666664</ele><time>2026-03-22T08:04:04Z</time></trkpt><trkpt lat="37.92774969532233" lon="16.065210923205317"><ele>22.0</ele><time>2026-03-22T08:04:05Z</time></trkpt><trkpt lat="37.92789894378085" lon="16.065323112328905"><ele>22.0</ele><time>2026-03-22T08:04:06Z</time></trkpt><trkpt lat="37.92805483596635" lon="16.06543090564285"><ele>22.0</ele><time>2026-03-22T08:04:07Z</time></trkpt><trkpt lat="37.928204348969395" lon="16.065538159504904"><ele>22.0</ele><time>2026-03-22T08:04:08Z</time></trkpt><trkpt lat="37.92836011822489" lon="16.065659339250473"><ele>19.666666666666664</ele><time>2026-03-22T08:04:09Z</time></trkpt><trkpt lat="37.92852942395117" lon="16.065771764675503"><ele>17.333333333333332</ele><time>2026-03-22T08:04:10Z</time></trkpt><trkpt lat="37.92869762607058" lon="16.065886005213912"><ele>15.0</ele><time>2026-03-22T08:04:11Z</time></trkpt><trkpt lat="37.928866361181164" lon="16.06600015705665"><ele>15.0</ele><time>2026-03-22T08:04:12Z</time></trkpt><trkpt lat="37.929040918489996" lon="16.066114824755232"><ele>15.0</ele><time>2026-03-22T08:04:13Z</time></trkpt><trkpt lat="37.92921785363666" lon="16.066231824452686"><ele>15.0</ele><time>2026-03-22T08:04:14Z</time></trkpt><trkpt lat="37.92939706915858" lon="16.066347612116775"><ele>13.0</ele><time>2026-03-22T08:04:15Z</time></trkpt><trkpt lat="37.92957570353882" lon="16.066464185252347"><ele>11.0</ele><time>2026-03-22T08:04:16Z</time></trkpt><trkpt lat="37.92975228674215" lon="16.066576792193082"><ele>9.0</ele><time>2026-03-22T08:04:17Z</time></trkpt><trkpt lat="37.92992592984977" lon="16.06669212930409"><ele>11.666666666666668</ele><time>2026-03-22T08:04:18Z</time></trkpt><trkpt lat="37.930112502613795" lon="16.066810872407775"><ele>14.333333333333334</ele><time>2026-03-22T08:04:19Z</time></trkpt><trkpt lat="37.93029186701696" lon="16.06692284923052"><ele>17.0</ele><time>2026-03-22T08:04:20Z</time></trkpt><trkpt lat="37.93046857054541" lon="16.067044502740494"><ele>17.0</ele><time>2026-03-22T08:04:21Z</time></trkpt><trkpt lat="37.93064240330158" lon="16.067171104472028"><ele>17.0</ele><time>2026-03-22T08:04:22Z</time></trkpt><trkpt lat="37.93081542613819" lon="16.06730055401"><ele>17.0</ele><time>2026-03-22T08:04:23Z</time></trkpt><trkpt lat="37.93098160242301" lon="16.06742650205687"><ele>15.333333333333334</ele><time>2026-03-22T08:04:24Z</time></trkpt><trkpt lat="37.93115983071344" lon="16.067553426201528"><ele>13.666666666666668</ele><time>2026-03-22T08:04:25Z</time></trkpt><trkpt lat="37.93133498583015" lon="16.067681624364194"><ele>12.0</ele><time>2026-03-22T08:04:26Z</time></trkpt><trkpt lat="37.93148614277216" lon="16.06783691823779"><ele>12.0</ele><time>2026-03-22T08:04:27Z</time></trkpt><trkpt lat="37.93163773091511" lon="16.068006626770003"><ele>12.0</ele><time>2026-03-22T08:04:28Z</time></trkpt><trkpt lat="37.931782623902336" lon="16.068171309906084"><ele>12.0</ele><time>2026-03-22T08:04:29Z</time></trkpt><trkpt lat="37.931928720119984" lon="16.068342188070893"><ele>11.666666666666666</ele><time>2026-03-22T08:04:30Z</time></trkpt><trkpt lat="37.93207621068685" lon="16.06851437627949"><ele>11.333333333333332</ele><time>2026-03-22T08:04:31Z</time></trkpt><trkpt lat="37.932215030935424" lon="16.06869265874124"><ele>11.0</ele><time>2026-03-22T08:04:32Z</time></trkpt><trkpt lat="37.93235650531173" lon="16.06888076915445"><ele>11.0</ele><time>2026-03-22T08:04:33Z</time></trkpt><trkpt lat="37.932494053916116" lon="16.069054110626816"><ele>11.0</ele><time>2026-03-22T08:04:34Z</time></trkpt><trkpt lat="37.932631236457574" lon="16.069237499921876"><ele>11.0</ele><time>2026-03-22T08:04:35Z</time></trkpt><trkpt lat="37.93277528203172" lon="16.069419498563423"><ele>10.666666666666666</ele><time>2026-03-22T08:04:36Z</time></trkpt><trkpt lat="37.93291916259135" lon="16.069599218737686"><ele>10.333333333333334</ele><time>2026-03-22T08:04:37Z</time></trkpt><trkpt lat="37.93306402295846" lon="16.069779578107454"><ele>10.0</ele><time>2026-03-22T08:04:38Z</time></trkpt><trkpt lat="37.93321377068325" lon="16.069962719533066"><ele>9.333333333333334</ele><time>2026-03-22T08:04:39Z</time></trkpt><trkpt lat="37.933357280102506" lon="16.070150798216382"><ele>8.666666666666666</ele><time>2026-03-22T08:04:40Z</time></trkpt><trkpt lat="37.93350357615453" lon="16.070341159682002"><ele>8.0</ele><time>2026-03-22T08:04:41Z</time></trkpt><trkpt lat="37.933651243894865" lon="16.070533348882346"><ele>7.666666666666666</ele><time>2026-03-22T08:04:42Z</time></trkpt><trkpt lat="37.93380174221265" lon="16.07072602996899"><ele>7.333333333333334</ele><time>2026-03-22T08:04:43Z</time></trkpt><trkpt lat="37.93394721213011" lon="16.070919993271346"><ele>7.0</ele><time>2026-03-22T08:04:44Z</time></trkpt><trkpt lat="37.934095816337596" lon="16.07111615706971"><ele>8.0</ele><time>2026-03-22T08:04:45Z</time></trkpt><trkpt lat="37.93424456442905" lon="16.0713113565552"><ele>9.0</ele><time>2026-03-22T08:04:46Z</time></trkpt><trkpt lat="37.934396397403056" lon="16.071507077693212"><ele>10.0</ele><time>2026-03-22T08:04:47Z</time></trkpt><trkpt lat="37.934548181470056" lon="16.071702504638782"><ele>10.0</ele><time>2026-03-22T08:04:48Z</time></trkpt><trkpt lat="37.93470082488082" lon="16.071902227246866"><ele>10.0</ele><time>2026-03-22T08:04:49Z</time></trkpt><trkpt lat="37.93485165690444" lon="16.07210302178542"><ele>10.0</ele><time>2026-03-22T08:04:50Z</time></trkpt><trkpt lat="37.93500305228367" lon="16.07230489828935"><ele>10.0</ele><time>2026-03-22T08:04:51Z</time></trkpt><trkpt lat="37.935156789419494" lon="16.072502901990404"><ele>10.0</ele><time>2026-03-22T08:04:52Z</time></trkpt><trkpt lat="37.93531317581516" lon="16.072705820283417"><ele>10.0</ele><time>2026-03-22T08:04:53Z</time></trkpt><trkpt lat="37.93546866908329" lon="16.072906137871858"><ele>10.0</ele><time>2026-03-22T08:04:54Z</time></trkpt><trkpt lat="37.935619966494734" lon="16.073105875751462"><ele>10.0</ele><time>2026-03-22T08:04:55Z</time></trkpt><trkpt lat="37.9357699109718" lon="16.073306139748087"><ele>10.0</ele><time>2026-03-22T08:04:56Z</time></trkpt><trkpt lat="37.935919848088105" lon="16.073499065377405"><ele>10.666666666666668</ele><time>2026-03-22T08:04:57Z</time></trkpt><trkpt lat="37.93607234119341" lon="16.07368990399355"><ele>11.333333333333334</ele><time>2026-03-22T08:04:58Z</time></trkpt><trkpt lat="37.93622135600296" lon="16.07388207765858"><ele>12.0</ele><time>2026-03-22T08:04:59Z</time></trkpt><trkpt lat="37.93636723545643" lon="16.07407530180894"><ele>13.0</ele><time>2026-03-22T08:05:00Z</time></trkpt><trkpt lat="37.936511780657675" lon="16.07426743885819"><ele>14.0</ele><time>2026-03-22T08:05:01Z</time></trkpt><trkpt lat="37.936660516286814" lon="16.074461160983248"><ele>15.0</ele><time>2026-03-22T08:05:02Z</time></trkpt><trkpt lat="37.93680928754304" lon="16.07465527041165"><ele>15.0</ele><time>2026-03-22T08:05:03Z</time></trkpt><trkpt lat="37.93695364876458" lon="16.07484827297169"><ele>15.0</ele><time>2026-03-22T08:05:04Z</time></trkpt><trkpt lat="37.93710265915918" lon="16.075042532327597"><ele>15.0</ele><time>2026-03-22T08:05:05Z</time></trkpt><trkpt lat="37.93724606908197" lon="16.0752410674512"><ele>14.333333333333332</ele><time>2026-03-22T08:05:06Z</time></trkpt><trkpt lat="37.93739406075691" lon="16.075441238580353"><ele>13.666666666666666</ele><time>2026-03-22T08:05:07Z</time></trkpt><trkpt lat="37.937541932482134" lon="16.07563617854339"><ele>13.0</ele><time>2026-03-22T08:05:08Z</time></trkpt><trkpt lat="37.93768975107875" lon="16.07583312663566"><ele>13.0</ele><time>2026-03-22T08:05:09Z</time></trkpt><trkpt lat="37.93785000826937" lon="16.076025778541783"><ele>13.0</ele><time>2026-03-22T08:05:10Z</time></trkpt><trkpt lat="37.93801372911739" lon="16.07621668768251"><ele>13.0</ele><time>2026-03-22T08:05:11Z</time></trkpt><trkpt lat="37.93817407933786" lon="16.07640770848766"><ele>13.0</ele><time>2026-03-22T08:05:12Z</time></trkpt><trkpt lat="37.938328899247374" lon="16.07659911552085"><ele>13.0</ele><time>2026-03-22T08:05:13Z</time></trkpt><trkpt lat="37.938494313261494" lon="16.076792788492874"><ele>13.0</ele><time>2026-03-22T08:05:14Z</time></trkpt><trkpt lat="37.93865254584538" lon="16.076999221032477"><ele>15.0</ele><time>2026-03-22T08:05:15Z</time></trkpt><trkpt lat="37.93883438625321" lon="16.0771674195697"><ele>17.0</ele><time>2026-03-22T08:05:16Z</time></trkpt><trkpt lat="37.93900215922559" lon="16.077363613990745"><ele>14.0</ele><time>2026-03-22T08:05:17Z</time></trkpt><trkpt lat="37.939181804520345" lon="16.077538207732772"><ele>11.0</ele><time>2026-03-22T08:05:18Z</time></trkpt><trkpt lat="37.93936492967341" lon="16.07771484405027"><ele>11.0</ele><time>2026-03-22T08:05:19Z</time></trkpt><trkpt lat="37.939549529437016" lon="16.077892976321742"><ele>11.0</ele><time>2026-03-22T08:05:20Z</time></trkpt><trkpt lat="37.93973035911356" lon="16.078045375296835"><ele>11.0</ele><time>2026-03-22T08:05:21Z</time></trkpt><trkpt lat="37.939898217538115" lon="16.078218438478476"><ele>10.333333333333332</ele><time>2026-03-22T08:05:22Z</time></trkpt><trkpt lat="37.94005847501572" lon="16.078384209513626"><ele>9.666666666666666</ele><time>2026-03-22T08:05:23Z</time></trkpt><trkpt lat="37.94019573526431" lon="16.078519498356236"><ele>9.0</ele><time>2026-03-22T08:05:24Z</time></trkpt><trkpt lat="37.940330104360186" lon="16.0786317653691"><ele>9.0</ele><time>2026-03-22T08:05:25Z</time></trkpt><trkpt lat="37.940466349279106" lon="16.078764788960353"><ele>9.0</ele><time>2026-03-22T08:05:26Z</time></trkpt><trkpt lat="37.94060903374561" lon="16.078901896466864"><ele>9.0</ele><time>2026-03-22T08:05:27Z</time></trkpt><trkpt lat="37.940728840552225" lon="16.07904878378089"><ele>9.333333333333334</ele><time>2026-03-22T08:05:28Z</time></trkpt><trkpt lat="37.940865259458825" lon="16.079172223337512"><ele>9.666666666666668</ele><time>2026-03-22T08:05:29Z</time></trkpt><trkpt lat="37.94100923019536" lon="16.079304691505378"><ele>10.0</ele><time>2026-03-22T08:05:30Z</time></trkpt><trkpt lat="37.94114482876075" lon="16.079440703173248"><ele>10.0</ele><time>2026-03-22T08:05:31Z</time></trkpt><trkpt lat="37.94129117251315" lon="16.079585906997835"><ele>10.0</ele><time>2026-03-22T08:05:32Z</time></trkpt><trkpt lat="37.94143594024899" lon="16.079738391711643"><ele>10.0</ele><time>2026-03-22T08:05:33Z</time></trkpt><trkpt lat="37.94157806281411" lon="16.079891888864786"><ele>10.0</ele><time>2026-03-22T08:05:34Z</time></trkpt><trkpt lat="37.941715636476985" lon="16.080052499962065"><ele>10.0</ele><time>2026-03-22T08:05:35Z</time></trkpt><trkpt lat="37.94185065895832" lon="16.080217862154104"><ele>10.0</ele><time>2026-03-22T08:05:36Z</time></trkpt><trkpt lat="37.94198798615208" lon="16.080384020686765"><ele>10.0</ele><time>2026-03-22T08:05:37Z</time></trkpt><trkpt lat="37.94212694615985" lon="16.080553084958396"><ele>10.0</ele><time>2026-03-22T08:05:38Z</time></trkpt><trkpt lat="37.94226773504531" lon="16.08072369557506"><ele>10.0</ele><time>2026-03-22T08:05:39Z</time></trkpt><trkpt lat="37.94240742102651" lon="16.080900344093635"><ele>10.666666666666668</ele><time>2026-03-22T08:05:40Z</time></trkpt><trkpt lat="37.94254916416063" lon="16.081075310469224"><ele>11.333333333333334</ele><time>2026-03-22T08:05:41Z</time></trkpt><trkpt lat="37.942691068549045" lon="16.081253100581026"><ele>12.0</ele><time>2026-03-22T08:05:42Z</time></trkpt><trkpt lat="37.942835112425804" lon="16.081431369681976"><ele>10.333333333333334</ele><time>2026-03-22T08:05:43Z</time></trkpt><trkpt lat="37.94298510623125" lon="16.081606186039163"><ele>8.666666666666668</ele><time>2026-03-22T08:05:44Z</time></trkpt><trkpt lat="37.94313683782658" lon="16.0817804185371"><ele>7.0</ele><time>2026-03-22T08:05:45Z</time></trkpt><trkpt lat="37.94328927858568" lon="16.081967776989714"><ele>8.0</ele><time>2026-03-22T08:05:46Z</time></trkpt><trkpt lat="37.943438046474206" lon="16.082161070255548"><ele>9.0</ele><time>2026-03-22T08:05:47Z</time></trkpt><trkpt lat="37.94358625892756" lon="16.082353703241722"><ele>10.0</ele><time>2026-03-22T08:05:48Z</time></trkpt><trkpt lat="37.9437372749652" lon="16.082547323441446"><ele>10.0</ele><time>2026-03-22T08:05:49Z</time></trkpt><trkpt lat="37.94389802109215" lon="16.082735993733152"><ele>10.0</ele><time>2026-03-22T08:05:50Z</time></trkpt><trkpt lat="37.944062343696864" lon="16.082912247632475"><ele>10.0</ele><time>2026-03-22T08:05:51Z</time></trkpt><trkpt lat="37.94423763355365" lon="16.083078405514975"><ele>10.333333333333334</ele><time>2026-03-22T08:05:52Z</time></trkpt><trkpt lat="37.9444130585208" lon="16.083231278452317"><ele>10.666666666666666</ele><time>2026-03-22T08:05:53Z</time></trkpt><trkpt lat="37.944592542986456" lon="16.083383950660657"><ele>11.0</ele><time>2026-03-22T08:05:54Z</time></trkpt><trkpt lat="37.94477538902097" lon="16.083527384399698"><ele>10.333333333333332</ele><time>2026-03-22T08:05:55Z</time></trkpt><trkpt lat="37.944967139943934" lon="16.083671950616278"><ele>9.666666666666666</ele><time>2026-03-22T08:05:56Z</time></trkpt><trkpt lat="37.94515067837576" lon="16.083824770544627"><ele>9.0</ele><time>2026-03-22T08:05:57Z</time></trkpt><trkpt lat="37.94533970379601" lon="16.08397711259444"><ele>9.0</ele><time>2026-03-22T08:05:58Z</time></trkpt><trkpt lat="37.94551952385183" lon="16.08413217003351"><ele>9.0</ele><time>2026-03-22T08:05:59Z</time></trkpt><trkpt lat="37.945703454637744" lon="16.084286613320728"><ele>9.0</ele><time>2026-03-22T08:06:00Z</time></trkpt><trkpt lat="37.945891638623024" lon="16.084444577831157"><ele>9.0</ele><time>2026-03-22T08:06:01Z</time></trkpt><trkpt lat="37.946080984516215" lon="16.084595820491337"><ele>9.0</ele><time>2026-03-22T08:06:02Z</time></trkpt><trkpt lat="37.94626650001031" lon="16.08474024004191"><ele>9.0</ele><time>2026-03-22T08:06:03Z</time></trkpt><trkpt lat="37.946457388865475" lon="16.08489030538"><ele>9.0</ele><time>2026-03-22T08:06:04Z</time></trkpt><trkpt lat="37.946649086158146" lon="16.08504525662917"><ele>9.0</ele><time>2026-03-22T08:06:05Z</time></trkpt><trkpt lat="37.94684503463007" lon="16.08520408454112"><ele>9.0</ele><time>2026-03-22T08:06:06Z</time></trkpt><trkpt lat="37.94703212150523" lon="16.08535900445183"><ele>9.0</ele><time>2026-03-22T08:06:07Z</time></trkpt><trkpt lat="37.947211704496524" lon="16.085516173783105"><ele>9.0</ele><time>2026-03-22T08:06:08Z</time></trkpt><trkpt lat="37.94737041225723" lon="16.085686616913378"><ele>9.0</ele><time>2026-03-22T08:06:09Z</time></trkpt><trkpt lat="37.947551949381904" lon="16.08584214317154"><ele>9.0</ele><time>2026-03-22T08:06:10Z</time></trkpt><trkpt lat="37.9477471789649" lon="16.0859986491664"><ele>9.0</ele><time>2026-03-22T08:06:11Z</time></trkpt><trkpt lat="37.94792346090104" lon="16.08612417142485"><ele>9.0</ele><time>2026-03-22T08:06:12Z</time></trkpt><trkpt lat="37.94810154349959" lon="16.086258562261758"><ele>9.0</ele><time>2026-03-22T08:06:13Z</time></trkpt><trkpt lat="37.94829139554218" lon="16.086407089838882"><ele>8.666666666666666</ele><time>2026-03-22T08:06:14Z</time></trkpt><trkpt lat="37.94847658322132" lon="16.086558782322367"><ele>8.333333333333332</ele><time>2026-03-22T08:06:15Z</time></trkpt><trkpt lat="37.948663803381315" lon="16.086709848941265"><ele>8.0</ele><time>2026-03-22T08:06:16Z</time></trkpt><trkpt lat="37.94885618589852" lon="16.086861916884157"><ele>7.5</ele><time>2026-03-22T08:06:17Z</time></trkpt><trkpt lat="37.949047061153905" lon="16.087019896751958"><ele>7.0</ele><time>2026-03-22T08:06:18Z</time></trkpt><trkpt lat="37.94923617697833" lon="16.087174324150997"><ele>7.666666666666667</ele><time>2026-03-22T08:06:19Z</time></trkpt><trkpt lat="37.9494164344037" lon="16.087335207625447"><ele>8.333333333333334</ele><time>2026-03-22T08:06:20Z</time></trkpt><trkpt lat="37.9495995501725" lon="16.087493889668558"><ele>9.0</ele><time>2026-03-22T08:06:21Z</time></trkpt><trkpt lat="37.949784363935485" lon="16.087649806877245"><ele>9.0</ele><time>2026-03-22T08:06:22Z</time></trkpt><trkpt lat="37.949980292125574" lon="16.087798774811134"><ele>9.0</ele><time>2026-03-22T08:06:23Z</time></trkpt><trkpt lat="37.95016219229962" lon="16.087956986313163"><ele>9.0</ele><time>2026-03-22T08:06:24Z</time></trkpt><trkpt lat="37.95034452334691" lon="16.088103793409317"><ele>10.5</ele><time>2026-03-22T08:06:25Z</time></trkpt><trkpt lat="37.95053755183742" lon="16.08825702836168"><ele>12.0</ele><time>2026-03-22T08:06:26Z</time></trkpt><trkpt lat="37.95072748081615" lon="16.08841709297251"><ele>12.0</ele><time>2026-03-22T08:06:27Z</time></trkpt><trkpt lat="37.95092116518625" lon="16.088573978303508"><ele>12.0</ele><time>2026-03-22T08:06:28Z</time></trkpt><trkpt lat="37.951113996882576" lon="16.088725865028355"><ele>12.0</ele><time>2026-03-22T08:06:29Z</time></trkpt><trkpt lat="37.95130409332399" lon="16.088879340001043"><ele>12.0</ele><time>2026-03-22T08:06:30Z</time></trkpt><trkpt lat="37.95149051246249" lon="16.08903554438564"><ele>12.0</ele><time>2026-03-22T08:06:31Z</time></trkpt><trkpt lat="37.95167167915492" lon="16.089195745263368"><ele>13.0</ele><time>2026-03-22T08:06:32Z</time></trkpt><trkpt lat="37.95184978984271" lon="16.08935867562926"><ele>14.0</ele><time>2026-03-22T08:06:33Z</time></trkpt><trkpt lat="37.95202475913225" lon="16.089522602146392"><ele>15.0</ele><time>2026-03-22T08:06:34Z</time></trkpt><trkpt lat="37.95220095215535" lon="16.089689780056183"><ele>15.0</ele><time>2026-03-22T08:06:35Z</time></trkpt><trkpt lat="37.952373684648585" lon="16.08986073529997"><ele>15.0</ele><time>2026-03-22T08:06:36Z</time></trkpt><trkpt lat="37.95254389006088" lon="16.09003360215979"><ele>15.0</ele><time>2026-03-22T08:06:37Z</time></trkpt><trkpt lat="37.95271421852596" lon="16.09021329716777"><ele>15.666666666666668</ele><time>2026-03-22T08:06:38Z</time></trkpt><trkpt lat="37.952882412519536" lon="16.09039887082453"><ele>16.333333333333336</ele><time>2026-03-22T08:06:39Z</time></trkpt><trkpt lat="37.95305142599856" lon="16.09058647886016"><ele>17.0</ele><time>2026-03-22T08:06:40Z</time></trkpt><trkpt lat="37.95321815639281" lon="16.09077422408629"><ele>15.5</ele><time>2026-03-22T08:06:41Z</time></trkpt><trkpt lat="37.953386864652906" lon="16.090967329217893"><ele>14.0</ele><time>2026-03-22T08:06:42Z</time></trkpt><trkpt lat="37.95356193989146" lon="16.091161428671818"><ele>14.0</ele><time>2026-03-22T08:06:43Z</time></trkpt><trkpt lat="37.95372964111824" lon="16.09135456953194"><ele>14.0</ele><time>2026-03-22T08:06:44Z</time></trkpt><trkpt lat="37.953893103409186" lon="16.091551316648253"><ele>13.5</ele><time>2026-03-22T08:06:45Z</time></trkpt><trkpt lat="37.954065066409754" lon="16.091742668879778"><ele>13.0</ele><time>2026-03-22T08:06:46Z</time></trkpt><trkpt lat="37.95423834445613" lon="16.091943219347005"><ele>13.0</ele><time>2026-03-22T08:06:47Z</time></trkpt><trkpt lat="37.95440770364845" lon="16.09214071111575"><ele>13.0</ele><time>2026-03-22T08:06:48Z</time></trkpt><trkpt lat="37.95459304321003" lon="16.09234375468609"><ele>11.5</ele><time>2026-03-22T08:06:49Z</time></trkpt><trkpt lat="37.95477498760841" lon="16.092550376258792"><ele>10.0</ele><time>2026-03-22T08:06:50Z</time></trkpt><trkpt lat="37.95493799969812" lon="16.09276903125891"><ele>12.5</ele><time>2026-03-22T08:06:51Z</time></trkpt><trkpt lat="37.955117972917975" lon="16.092952423893987"><ele>15.0</ele><time>2026-03-22T08:06:52Z</time></trkpt><trkpt lat="37.955279996013424" lon="16.093169001737248"><ele>12.5</ele><time>2026-03-22T08:06:53Z</time></trkpt><trkpt lat="37.95544943074598" lon="16.093367030468094"><ele>10.0</ele><time>2026-03-22T08:06:54Z</time></trkpt><trkpt lat="37.955625959230304" lon="16.093551924037616"><ele>10.0</ele><time>2026-03-22T08:06:55Z</time></trkpt><trkpt lat="37.95579349845436" lon="16.09375347586271"><ele>10.0</ele><time>2026-03-22T08:06:56Z</time></trkpt><trkpt lat="37.95595692614334" lon="16.093953338143184"><ele>11.5</ele><time>2026-03-22T08:06:57Z</time></trkpt><trkpt lat="37.956123592054816" lon="16.094150846801824"><ele>13.0</ele><time>2026-03-22T08:06:58Z</time></trkpt><trkpt lat="37.956287481016716" lon="16.09434452046655"><ele>13.0</ele><time>2026-03-22T08:06:59Z</time></trkpt><trkpt lat="37.95645049204502" lon="16.094537728062758"><ele>13.0</ele><time>2026-03-22T08:07:00Z</time></trkpt><trkpt lat="37.956614994433444" lon="16.094728607196487"><ele>13.0</ele><time>2026-03-22T08:07:01Z</time></trkpt><trkpt lat="37.95678393488316" lon="16.094913035051544"><ele>15.0</ele><time>2026-03-22T08:07:02Z</time></trkpt><trkpt lat="37.956953222756155" lon="16.09510318382047"><ele>17.0</ele><time>2026-03-22T08:07:03Z</time></trkpt><trkpt lat="37.957120980628" lon="16.095294466109408"><ele>17.0</ele><time>2026-03-22T08:07:04Z</time></trkpt><trkpt lat="37.95728565014549" lon="16.0954862233402"><ele>17.0</ele><time>2026-03-22T08:07:05Z</time></trkpt><trkpt lat="37.95745279246792" lon="16.09567657324943"><ele>17.0</ele><time>2026-03-22T08:07:06Z</time></trkpt><trkpt lat="37.95761806129703" lon="16.095860974422894"><ele>17.0</ele><time>2026-03-22T08:07:07Z</time></trkpt><trkpt lat="37.957784620973" lon="16.096037216047417"><ele>17.0</ele><time>2026-03-22T08:07:08Z</time></trkpt><trkpt lat="37.95793770677177" lon="16.09622908078912"><ele>17.0</ele><time>2026-03-22T08:07:09Z</time></trkpt><trkpt lat="37.958097853362446" lon="16.096411392305647"><ele>15.0</ele><time>2026-03-22T08:07:10Z</time></trkpt><trkpt lat="37.95825586409424" lon="16.096589213441284"><ele>13.0</ele><time>2026-03-22T08:07:11Z</time></trkpt><trkpt lat="37.95843368558561" lon="16.096787383611673"><ele>11.0</ele><time>2026-03-22T08:07:12Z</time></trkpt><trkpt lat="37.95862782008535" lon="16.096930705225162"><ele>11.0</ele><time>2026-03-22T08:07:13Z</time></trkpt><trkpt lat="37.958799102948554" lon="16.097111559055318"><ele>11.0</ele><time>2026-03-22T08:07:14Z</time></trkpt><trkpt lat="37.95895724886852" lon="16.09730409984378"><ele>11.0</ele><time>2026-03-22T08:07:15Z</time></trkpt><trkpt lat="37.95914417516147" lon="16.09751072007514"><ele>11.333333333333332</ele><time>2026-03-22T08:07:16Z</time></trkpt><trkpt lat="37.959317449407834" lon="16.09770503424141"><ele>11.666666666666666</ele><time>2026-03-22T08:07:17Z</time></trkpt><trkpt lat="37.95946425715624" lon="16.097871870906104"><ele>12.0</ele><time>2026-03-22T08:07:18Z</time></trkpt><trkpt lat="37.959603269460615" lon="16.098052377316737"><ele>12.0</ele><time>2026-03-22T08:07:19Z</time></trkpt><trkpt lat="37.95976589381924" lon="16.098194003938826"><ele>12.0</ele><time>2026-03-22T08:07:20Z</time></trkpt><trkpt lat="37.959935996687186" lon="16.098311861424047"><ele>12.0</ele><time>2026-03-22T08:07:21Z</time></trkpt><trkpt lat="37.96008711982047" lon="16.098462893860287"><ele>13.0</ele><time>2026-03-22T08:07:22Z</time></trkpt><trkpt lat="37.96024531082986" lon="16.098600613089456"><ele>14.0</ele><time>2026-03-22T08:07:23Z</time></trkpt><trkpt lat="37.960392834024525" lon="16.098725047677487"><ele>15.0</ele><time>2026-03-22T08:07:24Z</time></trkpt><trkpt lat="37.96053201987934" lon="16.09884216852749"><ele>15.0</ele><time>2026-03-22T08:07:25Z</time></trkpt><trkpt lat="37.9606728146885" lon="16.098944759044695"><ele>15.0</ele><time>2026-03-22T08:07:26Z</time></trkpt><trkpt lat="37.960797077527694" lon="16.099069016579744"><ele>15.0</ele><time>2026-03-22T08:07:27Z</time></trkpt><trkpt lat="37.96092200524611" lon="16.099172313763514"><ele>15.75</ele><time>2026-03-22T08:07:28Z</time></trkpt><trkpt lat="37.96103699190947" lon="16.09926794143575"><ele>16.5</ele><time>2026-03-22T08:07:29Z</time></trkpt><trkpt lat="37.96114683226258" lon="16.099361541474433"><ele>17.25</ele><time>2026-03-22T08:07:30Z</time></trkpt><trkpt lat="37.96125757166826" lon="16.09945932317877"><ele>18.0</ele><time>2026-03-22T08:07:31Z</time></trkpt><trkpt lat="37.961374847148896" lon="16.099553912263605"><ele>18.0</ele><time>2026-03-22T08:07:32Z</time></trkpt><trkpt lat="37.96149420396913" lon="16.099648632550146"><ele>18.0</ele><time>2026-03-22T08:07:33Z</time></trkpt><trkpt lat="37.96159982822484" lon="16.099744599031748"><ele>18.0</ele><time>2026-03-22T08:07:34Z</time></trkpt><trkpt lat="37.96170546394047" lon="16.09982707961981"><ele>18.0</ele><time>2026-03-22T08:07:35Z</time></trkpt><trkpt lat="37.96180336421837" lon="16.099907843731597"><ele>18.2</ele><time>2026-03-22T08:07:36Z</time></trkpt><trkpt lat="37.9618977337836" lon="16.09998888471765"><ele>18.4</ele><time>2026-03-22T08:07:37Z</time></trkpt><trkpt lat="37.961985864704026" lon="16.100069722972496"><ele>18.599999999999998</ele><time>2026-03-22T08:07:38Z</time></trkpt><trkpt lat="37.962078034808805" lon="16.100144958985556"><ele>18.8</ele><time>2026-03-22T08:07:39Z</time></trkpt><trkpt lat="37.96216329379461" lon="16.100218653146158"><ele>19.0</ele><time>2026-03-22T08:07:40Z</time></trkpt><trkpt lat="37.962246534612085" lon="16.100295072002087"><ele>19.0</ele><time>2026-03-22T08:07:41Z</time></trkpt><trkpt lat="37.96233691535323" lon="16.100372381286135"><ele>19.0</ele><time>2026-03-22T08:07:42Z</time></trkpt><trkpt lat="37.962428696614765" lon="16.10045484244968"><ele>19.0</ele><time>2026-03-22T08:07:43Z</time></trkpt><trkpt lat="37.96252069517331" lon="16.10053546341371"><ele>19.0</ele><time>2026-03-22T08:07:44Z</time></trkpt><trkpt lat="37.962609294820474" lon="16.100612490786823"><ele>19.0</ele><time>2026-03-22T08:07:45Z</time></trkpt><trkpt lat="37.96269575869716" lon="16.100685424553056"><ele>18.2</ele><time>2026-03-22T08:07:46Z</time></trkpt><trkpt lat="37.96278841785727" lon="16.100753933018932"><ele>17.4</ele><time>2026-03-22T08:07:47Z</time></trkpt><trkpt lat="37.962872512723024" lon="16.100841022574127"><ele>16.6</ele><time>2026-03-22T08:07:48Z</time></trkpt><trkpt lat="37.96296544602648" lon="16.100913513176636"><ele>15.8</ele><time>2026-03-22T08:07:49Z</time></trkpt><trkpt lat="37.963061927133516" lon="16.100986885645312"><ele>15.0</ele><time>2026-03-22T08:07:50Z</time></trkpt><trkpt lat="37.9631534875922" lon="16.101055779767602"><ele>15.0</ele><time>2026-03-22T08:07:51Z</time></trkpt><trkpt lat="37.963243621269754" lon="16.101121976937467"><ele>15.0</ele><time>2026-03-22T08:07:52Z</time></trkpt><trkpt lat="37.963329600543936" lon="16.101185285099287"><ele>15.0</ele><time>2026-03-22T08:07:53Z</time></trkpt><trkpt lat="37.96342957371097" lon="16.101259158926723"><ele>15.0</ele><time>2026-03-22T08:07:54Z</time></trkpt><trkpt lat="37.9635434398237" lon="16.10134329877603"><ele>14.75</ele><time>2026-03-22T08:07:55Z</time></trkpt><trkpt lat="37.96366168694767" lon="16.101430008674278"><ele>14.5</ele><time>2026-03-22T08:07:56Z</time></trkpt><trkpt lat="37.96378569389268" lon="16.101520107990467"><ele>14.25</ele><time>2026-03-22T08:07:57Z</time></trkpt><trkpt lat="37.96392778456646" lon="16.101621778394666"><ele>14.0</ele><time>2026-03-22T08:07:58Z</time></trkpt><trkpt lat="37.96405700233715" lon="16.10171466878567"><ele>14.0</ele><time>2026-03-22T08:07:59Z</time></trkpt><trkpt lat="37.96418750208237" lon="16.10180848054271"><ele>14.0</ele><time>2026-03-22T08:08:00Z</time></trkpt><trkpt lat="37.964320345129636" lon="16.101902885078104"><ele>14.0</ele><time>2026-03-22T08:08:01Z</time></trkpt><trkpt lat="37.9644588383197" lon="16.102001442220338"><ele>13.75</ele><time>2026-03-22T08:08:02Z</time></trkpt><trkpt lat="37.964593698593774" lon="16.102097228113827"><ele>13.5</ele><time>2026-03-22T08:08:03Z</time></trkpt><trkpt lat="37.964711702275" lon="16.1021810632733"><ele>13.25</ele><time>2026-03-22T08:08:04Z</time></trkpt><trkpt lat="37.964848087614776" lon="16.102277951656973"><ele>13.0</ele><time>2026-03-22T08:08:05Z</time></trkpt><trkpt lat="37.96496766251039" lon="16.10236289790707"><ele>12.75</ele><time>2026-03-22T08:08:06Z</time></trkpt><trkpt lat="37.9650852027852" lon="16.10244630069927"><ele>12.5</ele><time>2026-03-22T08:08:07Z</time></trkpt><trkpt lat="37.965203789257146" lon="16.102530432505944"><ele>12.25</ele><time>2026-03-22T08:08:08Z</time></trkpt><trkpt lat="37.96531545131041" lon="16.10260958892357"><ele>12.0</ele><time>2026-03-22T08:08:09Z</time></trkpt><trkpt lat="37.965410692774945" lon="16.10267711233438"><ele>12.0</ele><time>2026-03-22T08:08:10Z</time></trkpt><trkpt lat="37.96550757608607" lon="16.10274587011053"><ele>12.0</ele><time>2026-03-22T08:08:11Z</time></trkpt><trkpt lat="37.96561648071841" lon="16.10282342267008"><ele>12.0</ele><time>2026-03-22T08:08:12Z</time></trkpt><trkpt lat="37.96572451658378" lon="16.102900512091896"><ele>12.0</ele><time>2026-03-22T08:08:13Z</time></trkpt><trkpt lat="37.96585007299416" lon="16.10295565008257"><ele>12.0</ele><time>2026-03-22T08:08:14Z</time></trkpt><trkpt lat="37.965965198883694" lon="16.103054472314632"><ele>12.0</ele><time>2026-03-22T08:08:15Z</time></trkpt><trkpt lat="37.966072242103635" lon="16.10313695337588"><ele>12.0</ele><time>2026-03-22T08:08:16Z</time></trkpt><trkpt lat="37.96617550952856" lon="16.103204589737903"><ele>12.0</ele><time>2026-03-22T08:08:17Z</time></trkpt><trkpt lat="37.96629573632096" lon="16.103264196056028"><ele>12.0</ele><time>2026-03-22T08:08:18Z</time></trkpt><trkpt lat="37.96642174519432" lon="16.103331282513498"><ele>12.0</ele><time>2026-03-22T08:08:19Z</time></trkpt><trkpt lat="37.966520246661176" lon="16.103443323033858"><ele>12.0</ele><time>2026-03-22T08:08:20Z</time></trkpt><trkpt lat="37.96664269186911" lon="16.10354540950769"><ele>12.0</ele><time>2026-03-22T08:08:21Z</time></trkpt><trkpt lat="37.96676517899856" lon="16.10363114287727"><ele>13.5</ele><time>2026-03-22T08:08:22Z</time></trkpt><trkpt lat="37.966891416822506" lon="16.103719530393942"><ele>15.0</ele><time>2026-03-22T08:08:23Z</time></trkpt><trkpt lat="37.96701671164349" lon="16.10380785990356"><ele>16.5</ele><time>2026-03-22T08:08:24Z</time></trkpt><trkpt lat="37.967154764813884" lon="16.103905237642266"><ele>18.0</ele><time>2026-03-22T08:08:25Z</time></trkpt><trkpt lat="37.96729040190054" lon="16.104001493263056"><ele>16.0</ele><time>2026-03-22T08:08:26Z</time></trkpt><trkpt lat="37.967430978530054" lon="16.104101421276887"><ele>14.0</ele><time>2026-03-22T08:08:27Z</time></trkpt><trkpt lat="37.96756774858037" lon="16.10419864606935"><ele>12.0</ele><time>2026-03-22T08:08:28Z</time></trkpt><trkpt lat="37.96774543091907" lon="16.104229508893564"><ele>12.0</ele><time>2026-03-22T08:08:29Z</time></trkpt><trkpt lat="37.967855672205815" lon="16.10431590369854"><ele>12.0</ele><time>2026-03-22T08:08:30Z</time></trkpt><trkpt lat="37.967933068547715" lon="16.104390051041953"><ele>12.0</ele><time>2026-03-22T08:08:31Z</time></trkpt><trkpt lat="37.9680054995997" lon="16.104489018600205"><ele>12.0</ele><time>2026-03-22T08:08:32Z</time></trkpt><trkpt lat="37.9681106200292" lon="16.104599903783928"><ele>12.0</ele><time>2026-03-22T08:08:33Z</time></trkpt><trkpt lat="37.96821222578213" lon="16.104700654202233"><ele>12.0</ele><time>2026-03-22T08:08:34Z</time></trkpt><trkpt lat="37.96833254153293" lon="16.10481598328292"><ele>12.0</ele><time>2026-03-22T08:08:35Z</time></trkpt><trkpt lat="37.96846708068746" lon="16.10490807596904"><ele>12.0</ele><time>2026-03-22T08:08:36Z</time></trkpt><trkpt lat="37.96860607635629" lon="16.105036895597177"><ele>10.333333333333334</ele><time>2026-03-22T08:08:37Z</time></trkpt><trkpt lat="37.968771335355314" lon="16.105164865815436"><ele>8.666666666666668</ele><time>2026-03-22T08:08:38Z</time></trkpt><trkpt lat="37.968952740496256" lon="16.105301708692032"><ele>7.0</ele><time>2026-03-22T08:08:39Z</time></trkpt><trkpt lat="37.96911591763726" lon="16.1054474603865"><ele>5.5</ele><time>2026-03-22T08:08:40Z</time></trkpt><trkpt lat="37.96931690746491" lon="16.105576742526274"><ele>4.0</ele><time>2026-03-22T08:08:41Z</time></trkpt><trkpt lat="37.96951957449844" lon="16.105703454641503"><ele>4.666666666666666</ele><time>2026-03-22T08:08:42Z</time></trkpt><trkpt lat="37.969708484183954" lon="16.105811880781207"><ele>5.333333333333333</ele><time>2026-03-22T08:08:43Z</time></trkpt><trkpt lat="37.96991050016589" lon="16.10592466061086"><ele>6.0</ele><time>2026-03-22T08:08:44Z</time></trkpt><trkpt lat="37.97010065410553" lon="16.106065186733474"><ele>6.5</ele><time>2026-03-22T08:08:45Z</time></trkpt><trkpt lat="37.970296943329224" lon="16.106216938877346"><ele>7.0</ele><time>2026-03-22T08:08:46Z</time></trkpt><trkpt lat="37.97049623429437" lon="16.106356139194407"><ele>7.0</ele><time>2026-03-22T08:08:47Z</time></trkpt><trkpt lat="37.97069665436095" lon="16.106505103863963"><ele>7.0</ele><time>2026-03-22T08:08:48Z</time></trkpt><trkpt lat="37.97089526457474" lon="16.106653901905588"><ele>7.5</ele><time>2026-03-22T08:08:49Z</time></trkpt><trkpt lat="37.97109250834808" lon="16.106806426315362"><ele>8.0</ele><time>2026-03-22T08:08:50Z</time></trkpt><trkpt lat="37.971286342823944" lon="16.106956663794723"><ele>8.0</ele><time>2026-03-22T08:08:51Z</time></trkpt><trkpt lat="37.97147840536212" lon="16.10710200654183"><ele>8.0</ele><time>2026-03-22T08:08:52Z</time></trkpt><trkpt lat="37.97166788193536" lon="16.10724651492942"><ele>8.0</ele><time>2026-03-22T08:08:53Z</time></trkpt><trkpt lat="37.9718699557531" lon="16.10741836165407"><ele>8.0</ele><time>2026-03-22T08:08:54Z</time></trkpt><trkpt lat="37.97207809413862" lon="16.10755349596956"><ele>8.0</ele><time>2026-03-22T08:08:55Z</time></trkpt><trkpt lat="37.972269890328285" lon="16.10769387090819"><ele>8.0</ele><time>2026-03-22T08:08:56Z</time></trkpt><trkpt lat="37.972469126045894" lon="16.107840671926095"><ele>8.0</ele><time>2026-03-22T08:08:57Z</time></trkpt><trkpt lat="37.972655481791826" lon="16.10798011176025"><ele>8.0</ele><time>2026-03-22T08:08:58Z</time></trkpt><trkpt lat="37.97285068786783" lon="16.10811977506305"><ele>7.666666666666666</ele><time>2026-03-22T08:08:59Z</time></trkpt><trkpt lat="37.973035565057025" lon="16.108256528635422"><ele>7.333333333333334</ele><time>2026-03-22T08:09:00Z</time></trkpt><trkpt lat="37.973225135892854" lon="16.108406655108322"><ele>7.0</ele><time>2026-03-22T08:09:01Z</time></trkpt><trkpt lat="37.97340604885529" lon="16.108568231028947"><ele>8.5</ele><time>2026-03-22T08:09:02Z</time></trkpt><trkpt lat="37.973581341864936" lon="16.108743147771843"><ele>10.0</ele><time>2026-03-22T08:09:03Z</time></trkpt><trkpt lat="37.97376506330184" lon="16.108912548340378"><ele>9.666666666666668</ele><time>2026-03-22T08:09:04Z</time></trkpt><trkpt lat="37.97393364958233" lon="16.109091641544754"><ele>9.333333333333334</ele><time>2026-03-22T08:09:05Z</time></trkpt><trkpt lat="37.97410688026747" lon="16.10927707873071"><ele>9.0</ele><time>2026-03-22T08:09:06Z</time></trkpt><trkpt lat="37.97428634842289" lon="16.10946037473112"><ele>9.0</ele><time>2026-03-22T08:09:07Z</time></trkpt><trkpt lat="37.97445919150086" lon="16.109642286737753"><ele>9.0</ele><time>2026-03-22T08:09:08Z</time></trkpt><trkpt lat="37.9746368826695" lon="16.109825295719457"><ele>8.0</ele><time>2026-03-22T08:09:09Z</time></trkpt><trkpt lat="37.97481174252736" lon="16.1100157656075"><ele>7.0</ele><time>2026-03-22T08:09:10Z</time></trkpt><trkpt lat="37.97498317648715" lon="16.11019465214827"><ele>8.666666666666668</ele><time>2026-03-22T08:09:11Z</time></trkpt><trkpt lat="37.975150553360166" lon="16.11037478210337"><ele>10.333333333333334</ele><time>2026-03-22T08:09:12Z</time></trkpt><trkpt lat="37.97532287839274" lon="16.11055372674514"><ele>12.0</ele><time>2026-03-22T08:09:13Z</time></trkpt><trkpt lat="37.975488023385694" lon="16.11073611839863"><ele>12.0</ele><time>2026-03-22T08:09:14Z</time></trkpt><trkpt lat="37.97565805792082" lon="16.11091572025384"><ele>12.0</ele><time>2026-03-22T08:09:15Z</time></trkpt><trkpt lat="37.975837583930385" lon="16.111092368237518"><ele>12.0</ele><time>2026-03-22T08:09:16Z</time></trkpt><trkpt lat="37.9760048575635" lon="16.111271017215685"><ele>12.0</ele><time>2026-03-22T08:09:17Z</time></trkpt><trkpt lat="37.97618500393234" lon="16.111448545071454"><ele>12.0</ele><time>2026-03-22T08:09:18Z</time></trkpt><trkpt lat="37.976361517755436" lon="16.111615977503643"><ele>12.0</ele><time>2026-03-22T08:09:19Z</time></trkpt><trkpt lat="37.97653835559333" lon="16.11177426178024"><ele>11.5</ele><time>2026-03-22T08:09:20Z</time></trkpt><trkpt lat="37.97673203628549" lon="16.1119215145781"><ele>11.0</ele><time>2026-03-22T08:09:21Z</time></trkpt><trkpt lat="37.97692248135735" lon="16.112071735050446"><ele>11.0</ele><time>2026-03-22T08:09:22Z</time></trkpt><trkpt lat="37.97711134248131" lon="16.112232139815205"><ele>11.0</ele><time>2026-03-22T08:09:23Z</time></trkpt><trkpt lat="37.97730857522016" lon="16.11238372939597"><ele>10.0</ele><time>2026-03-22T08:09:24Z</time></trkpt><trkpt lat="37.97750103678144" lon="16.11253237336608"><ele>9.0</ele><time>2026-03-22T08:09:25Z</time></trkpt><trkpt lat="37.97771834393682" lon="16.112656131143588"><ele>9.0</ele><time>2026-03-22T08:09:26Z</time></trkpt><trkpt lat="37.97792321567086" lon="16.112777555176375"><ele>9.0</ele><time>2026-03-22T08:09:27Z</time></trkpt><trkpt lat="37.97812343338951" lon="16.112919610846486"><ele>9.0</ele><time>2026-03-22T08:09:28Z</time></trkpt><trkpt lat="37.97833878214238" lon="16.11304510062157"><ele>9.0</ele><time>2026-03-22T08:09:29Z</time></trkpt><trkpt lat="37.978546963172114" lon="16.11315260224225"><ele>9.0</ele><time>2026-03-22T08:09:30Z</time></trkpt><trkpt lat="37.97876304757084" lon="16.113278419136446"><ele>9.0</ele><time>2026-03-22T08:09:31Z</time></trkpt><trkpt lat="37.97896577838195" lon="16.11340977793426"><ele>9.0</ele><time>2026-03-22T08:09:32Z</time></trkpt><trkpt lat="37.97918208412934" lon="16.11352736210418"><ele>9.0</ele><time>2026-03-22T08:09:33Z</time></trkpt><trkpt lat="37.979394870118256" lon="16.113647231059105"><ele>10.0</ele><time>2026-03-22T08:09:34Z</time></trkpt><trkpt lat="37.97961603562113" lon="16.11377092233284"><ele>11.0</ele><time>2026-03-22T08:09:35Z</time></trkpt><trkpt lat="37.979822596181926" lon="16.113900608239963"><ele>10.333333333333332</ele><time>2026-03-22T08:09:36Z</time></trkpt><trkpt lat="37.98002786660459" lon="16.114020236613694"><ele>9.666666666666666</ele><time>2026-03-22T08:09:37Z</time></trkpt><trkpt lat="37.98019926326619" lon="16.114120290895407"><ele>9.0</ele><time>2026-03-22T08:09:38Z</time></trkpt><trkpt lat="37.98038762539073" lon="16.114230195448894"><ele>8.333333333333334</ele><time>2026-03-22T08:09:39Z</time></trkpt><trkpt lat="37.98057795379564" lon="16.1143412267269"><ele>7.666666666666667</ele><time>2026-03-22T08:09:40Z</time></trkpt><trkpt lat="37.98075514267647" lon="16.11444454813453"><ele>7.0</ele><time>2026-03-22T08:09:41Z</time></trkpt><trkpt lat="37.980954436274715" lon="16.11453919499083"><ele>6.666666666666667</ele><time>2026-03-22T08:09:42Z</time></trkpt><trkpt lat="37.98114016027122" lon="16.114667578070453"><ele>6.333333333333334</ele><time>2026-03-22T08:09:43Z</time></trkpt><trkpt lat="37.981339580633424" lon="16.11478286476637"><ele>6.0</ele><time>2026-03-22T08:09:44Z</time></trkpt><trkpt lat="37.98155299694125" lon="16.114859157562996"><ele>5.333333333333333</ele><time>2026-03-22T08:09:45Z</time></trkpt><trkpt lat="37.981747169549614" lon="16.11497997120517"><ele>4.666666666666666</ele><time>2026-03-22T08:09:46Z</time></trkpt><trkpt lat="37.98194714031393" lon="16.11510874036693"><ele>4.0</ele><time>2026-03-22T08:09:47Z</time></trkpt><trkpt lat="37.98215150327786" lon="16.115226791622977"><ele>4.0</ele><time>2026-03-22T08:09:48Z</time></trkpt><trkpt lat="37.98235482982833" lon="16.11534636208135"><ele>4.0</ele><time>2026-03-22T08:09:49Z</time></trkpt><trkpt lat="37.98255859531963" lon="16.11546697684853"><ele>4.0</ele><time>2026-03-22T08:09:50Z</time></trkpt><trkpt lat="37.98275484172373" lon="16.11560146771734"><ele>4.5</ele><time>2026-03-22T08:09:51Z</time></trkpt><trkpt lat="37.98295834679707" lon="16.115720060127018"><ele>5.0</ele><time>2026-03-22T08:09:52Z</time></trkpt><trkpt lat="37.98316777919239" lon="16.115841993933305"><ele>5.0</ele><time>2026-03-22T08:09:53Z</time></trkpt><trkpt lat="37.98336983013178" lon="16.115959662263304"><ele>5.0</ele><time>2026-03-22T08:09:54Z</time></trkpt><trkpt lat="37.98357688593839" lon="16.11607928698762"><ele>5.0</ele><time>2026-03-22T08:09:55Z</time></trkpt><trkpt lat="37.98378531498365" lon="16.11619956093191"><ele>5.0</ele><time>2026-03-22T08:09:56Z</time></trkpt><trkpt lat="37.98399398972908" lon="16.116320559995234"><ele>5.0</ele><time>2026-03-22T08:09:57Z</time></trkpt><trkpt lat="37.984199574327725" lon="16.116438282683923"><ele>5.0</ele><time>2026-03-22T08:09:58Z</time></trkpt><trkpt lat="37.98440854834785" lon="16.116560378871302"><ele>5.0</ele><time>2026-03-22T08:09:59Z</time></trkpt><trkpt lat="37.984620608338254" lon="16.1166845288186"><ele>5.0</ele><time>2026-03-22T08:10:00Z</time></trkpt><trkpt lat="37.984828106545024" lon="16.116804102569805"><ele>5.0</ele><time>2026-03-22T08:10:01Z</time></trkpt><trkpt lat="37.98504457080792" lon="16.11691915918541"><ele>5.0</ele><time>2026-03-22T08:10:02Z</time></trkpt><trkpt lat="37.98525344031182" lon="16.11702709881169"><ele>5.0</ele><time>2026-03-22T08:10:03Z</time></trkpt><trkpt lat="37.985473976245125" lon="16.117124729679556"><ele>5.0</ele><time>2026-03-22T08:10:04Z</time></trkpt><trkpt lat="37.98568428742823" lon="16.117234070749387"><ele>5.5</ele><time>2026-03-22T08:10:05Z</time></trkpt><trkpt lat="37.985896269110015" lon="16.117354060291678"><ele>6.0</ele><time>2026-03-22T08:10:06Z</time></trkpt><trkpt lat="37.98610781806996" lon="16.117481328467854"><ele>6.0</ele><time>2026-03-22T08:10:07Z</time></trkpt><trkpt lat="37.98631916030476" lon="16.117613974604648"><ele>6.0</ele><time>2026-03-22T08:10:08Z</time></trkpt><trkpt lat="37.98652549214682" lon="16.117748731998283"><ele>7.5</ele><time>2026-03-22T08:10:09Z</time></trkpt><trkpt lat="37.98673297852664" lon="16.117886222535976"><ele>9.0</ele><time>2026-03-22T08:10:10Z</time></trkpt><trkpt lat="37.98693795809689" lon="16.11801831049524"><ele>9.0</ele><time>2026-03-22T08:10:11Z</time></trkpt><trkpt lat="37.987145109955165" lon="16.118147536917537"><ele>9.0</ele><time>2026-03-22T08:10:12Z</time></trkpt><trkpt lat="37.98734790641972" lon="16.118275173086964"><ele>8.666666666666666</ele><time>2026-03-22T08:10:13Z</time></trkpt><trkpt lat="37.987549246281866" lon="16.11839755648069"><ele>8.333333333333332</ele><time>2026-03-22T08:10:14Z</time></trkpt><trkpt lat="37.98775337318526" lon="16.118514048647757"><ele>8.0</ele><time>2026-03-22T08:10:15Z</time></trkpt><trkpt lat="37.98794997426647" lon="16.11863092127039"><ele>8.0</ele><time>2026-03-22T08:10:16Z</time></trkpt><trkpt lat="37.98814808163123" lon="16.118743519735514"><ele>8.0</ele><time>2026-03-22T08:10:17Z</time></trkpt><trkpt lat="37.98834088308113" lon="16.11885607409899"><ele>8.0</ele><time>2026-03-22T08:10:18Z</time></trkpt><trkpt lat="37.98853015482764" lon="16.118970256394267"><ele>7.666666666666666</ele><time>2026-03-22T08:10:19Z</time></trkpt><trkpt lat="37.988720485100956" lon="16.119077722242668"><ele>7.333333333333334</ele><time>2026-03-22T08:10:20Z</time></trkpt><trkpt lat="37.988908230309995" lon="16.119179239752096"><ele>7.0</ele><time>2026-03-22T08:10:21Z</time></trkpt><trkpt lat="37.98910499576876" lon="16.119281200717865"><ele>8.0</ele><time>2026-03-22T08:10:22Z</time></trkpt><trkpt lat="37.9893046738734" lon="16.119388141131587"><ele>9.0</ele><time>2026-03-22T08:10:23Z</time></trkpt><trkpt lat="37.989497597163435" lon="16.119515860988177"><ele>10.0</ele><time>2026-03-22T08:10:24Z</time></trkpt><trkpt lat="37.98969147586257" lon="16.119633652176375"><ele>10.0</ele><time>2026-03-22T08:10:25Z</time></trkpt><trkpt lat="37.98989370282329" lon="16.119751919755416"><ele>10.0</ele><time>2026-03-22T08:10:26Z</time></trkpt><trkpt lat="37.99009831583754" lon="16.119863673289878"><ele>10.0</ele><time>2026-03-22T08:10:27Z</time></trkpt><trkpt lat="37.9903058948295" lon="16.11998082575509"><ele>8.5</ele><time>2026-03-22T08:10:28Z</time></trkpt><trkpt lat="37.990515111213554" lon="16.120102869981473"><ele>7.0</ele><time>2026-03-22T08:10:29Z</time></trkpt><trkpt lat="37.99072463046226" lon="16.12020676564907"><ele>8.333333333333334</ele><time>2026-03-22T08:10:30Z</time></trkpt><trkpt lat="37.99093490724012" lon="16.120303252291116"><ele>9.666666666666666</ele><time>2026-03-22T08:10:31Z</time></trkpt><trkpt lat="37.99113739053304" lon="16.120397800167463"><ele>11.0</ele><time>2026-03-22T08:10:32Z</time></trkpt><trkpt lat="37.99135272805276" lon="16.120491722990828"><ele>11.0</ele><time>2026-03-22T08:10:33Z</time></trkpt><trkpt lat="37.991569672399834" lon="16.12059206662228"><ele>11.0</ele><time>2026-03-22T08:10:34Z</time></trkpt><trkpt lat="37.9918029512358" lon="16.120668840388547"><ele>10.5</ele><time>2026-03-22T08:10:35Z</time></trkpt><trkpt lat="37.992027511129436" lon="16.120756186043117"><ele>10.0</ele><time>2026-03-22T08:10:36Z</time></trkpt><trkpt lat="37.9922481002864" lon="16.120831996888672"><ele>10.0</ele><time>2026-03-22T08:10:37Z</time></trkpt><trkpt lat="37.992471767473475" lon="16.120919407773883"><ele>10.0</ele><time>2026-03-22T08:10:38Z</time></trkpt><trkpt lat="37.992682231682345" lon="16.121012927954556"><ele>11.5</ele><time>2026-03-22T08:10:39Z</time></trkpt><trkpt lat="37.99291781470064" lon="16.12109693425727"><ele>13.0</ele><time>2026-03-22T08:10:40Z</time></trkpt><trkpt lat="37.99313994920975" lon="16.121179846987285"><ele>15.5</ele><time>2026-03-22T08:10:41Z</time></trkpt><trkpt lat="37.99335980372597" lon="16.121264848397594"><ele>18.0</ele><time>2026-03-22T08:10:42Z</time></trkpt><trkpt lat="37.993580469016734" lon="16.121349180061742"><ele>18.0</ele><time>2026-03-22T08:10:43Z</time></trkpt><trkpt lat="37.99379420583282" lon="16.12143923232165"><ele>18.0</ele><time>2026-03-22T08:10:44Z</time></trkpt><trkpt lat="37.99401232945463" lon="16.121509462718695"><ele>14.5</ele><time>2026-03-22T08:10:45Z</time></trkpt><trkpt lat="37.994234596081284" lon="16.121596324538633"><ele>11.0</ele><time>2026-03-22T08:10:46Z</time></trkpt><trkpt lat="37.99444745040382" lon="16.121662216695047"><ele>11.0</ele><time>2026-03-22T08:10:47Z</time></trkpt><trkpt lat="37.99466279614021" lon="16.1217271491546"><ele>11.0</ele><time>2026-03-22T08:10:48Z</time></trkpt><trkpt lat="37.99487788308226" lon="16.121802754298802"><ele>11.0</ele><time>2026-03-22T08:10:49Z</time></trkpt><trkpt lat="37.99508699220894" lon="16.121886466333546"><ele>12.333333333333332</ele><time>2026-03-22T08:10:50Z</time></trkpt><trkpt lat="37.995304460430695" lon="16.121959674866503"><ele>13.666666666666666</ele><time>2026-03-22T08:10:51Z</time></trkpt><trkpt lat="37.9955208657134" lon="16.122026600145947"><ele>15.0</ele><time>2026-03-22T08:10:52Z</time></trkpt><trkpt lat="37.99573089203316" lon="16.122103438821185"><ele>18.333333333333336</ele><time>2026-03-22T08:10:53Z</time></trkpt><trkpt lat="37.99594366146922" lon="16.122185864636183"><ele>21.666666666666668</ele><time>2026-03-22T08:10:54Z</time></trkpt><trkpt lat="37.99615353475781" lon="16.122262737875523"><ele>25.0</ele><time>2026-03-22T08:10:55Z</time></trkpt><trkpt lat="37.99636158018791" lon="16.122340346870057"><ele>20.666666666666668</ele><time>2026-03-22T08:10:56Z</time></trkpt><trkpt lat="37.99656931785217" lon="16.122419865295193"><ele>16.333333333333336</ele><time>2026-03-22T08:10:57Z</time></trkpt><trkpt lat="37.99677652135144" lon="16.12249034183625"><ele>12.0</ele><time>2026-03-22T08:10:58Z</time></trkpt><trkpt lat="37.996978437733205" lon="16.122553488836864"><ele>12.0</ele><time>2026-03-22T08:10:59Z</time></trkpt><trkpt lat="37.997170943538535" lon="16.122617154817206"><ele>12.0</ele><time>2026-03-22T08:11:00Z</time></trkpt><trkpt lat="37.99735434141521" lon="16.122675896901875"><ele>12.0</ele><time>2026-03-22T08:11:01Z</time></trkpt><trkpt lat="37.99753133960443" lon="16.122731417189826"><ele>11.333333333333334</ele><time>2026-03-22T08:11:02Z</time></trkpt><trkpt lat="37.99770791869541" lon="16.12279679607583"><ele>10.666666666666668</ele><time>2026-03-22T08:11:03Z</time></trkpt><trkpt lat="37.99789001154767" lon="16.122857508065852"><ele>10.0</ele><time>2026-03-22T08:11:04Z</time></trkpt><trkpt lat="37.9980807525051" lon="16.122883854216873"><ele>10.0</ele><time>2026-03-22T08:11:05Z</time></trkpt><trkpt lat="37.99827462242331" lon="16.122879746396496"><ele>10.0</ele><time>2026-03-22T08:11:06Z</time></trkpt><trkpt lat="37.99847069371301" lon="16.1228655502157"><ele>10.0</ele><time>2026-03-22T08:11:07Z</time></trkpt><trkpt lat="37.99867028745291" lon="16.122837352583318"><ele>9.666666666666668</ele><time>2026-03-22T08:11:08Z</time></trkpt><trkpt lat="37.99887048237233" lon="16.122811337752513"><ele>9.333333333333334</ele><time>2026-03-22T08:11:09Z</time></trkpt><trkpt lat="37.99906388584538" lon="16.122800597089736"><ele>9.0</ele><time>2026-03-22T08:11:10Z</time></trkpt><trkpt lat="37.99924362762004" lon="16.122827416838966"><ele>9.0</ele><time>2026-03-22T08:11:11Z</time></trkpt><trkpt lat="37.999431057402205" lon="16.12288359962058"><ele>9.0</ele><time>2026-03-22T08:11:12Z</time></trkpt><trkpt lat="37.999622075487366" lon="16.122941722009514"><ele>9.0</ele><time>2026-03-22T08:11:13Z</time></trkpt><trkpt lat="37.99981614699672" lon="16.123022842351265"><ele>9.0</ele><time>2026-03-22T08:11:14Z</time></trkpt><trkpt lat="37.999998754973504" lon="16.123137219953495"><ele>9.0</ele><time>2026-03-22T08:11:15Z</time></trkpt><trkpt lat="38.00016446088158" lon="16.123266659195487"><ele>9.0</ele><time>2026-03-22T08:11:16Z</time></trkpt><trkpt lat="38.00033100144005" lon="16.12341774214367"><ele>8.333333333333334</ele><time>2026-03-22T08:11:17Z</time></trkpt><trkpt lat="38.0004808368945" lon="16.12358937971189"><ele>7.666666666666667</ele><time>2026-03-22T08:11:18Z</time></trkpt><trkpt lat="38.000617748700435" lon="16.123782833068233"><ele>7.0</ele><time>2026-03-22T08:11:19Z</time></trkpt><trkpt lat="38.000760230023914" lon="16.12397963037171"><ele>7.333333333333334</ele><time>2026-03-22T08:11:20Z</time></trkpt><trkpt lat="38.00090621404141" lon="16.124178617907745"><ele>7.666666666666666</ele><time>2026-03-22T08:11:21Z</time></trkpt><trkpt lat="38.00105491817646" lon="16.12436877011135"><ele>8.0</ele><time>2026-03-22T08:11:22Z</time></trkpt><trkpt lat="38.00119733401067" lon="16.124563691492085"><ele>8.0</ele><time>2026-03-22T08:11:23Z</time></trkpt><trkpt lat="38.00135689624517" lon="16.124788437184485"><ele>8.0</ele><time>2026-03-22T08:11:24Z</time></trkpt><trkpt lat="38.00153348445821" lon="16.124988671145463"><ele>8.666666666666666</ele><time>2026-03-22T08:11:25Z</time></trkpt><trkpt lat="38.00168564581236" lon="16.12519331479354"><ele>9.333333333333334</ele><time>2026-03-22T08:11:26Z</time></trkpt><trkpt lat="38.00182635283252" lon="16.125393098651042"><ele>10.0</ele><time>2026-03-22T08:11:27Z</time></trkpt><trkpt lat="38.00197350616603" lon="16.125588236649186"><ele>10.333333333333334</ele><time>2026-03-22T08:11:28Z</time></trkpt><trkpt lat="38.002135979771346" lon="16.125755231795154"><ele>10.666666666666666</ele><time>2026-03-22T08:11:29Z</time></trkpt><trkpt lat="38.002314841795545" lon="16.125900187823007"><ele>11.0</ele><time>2026-03-22T08:11:30Z</time></trkpt><trkpt lat="38.0025074173169" lon="16.1260331939372"><ele>11.0</ele><time>2026-03-22T08:11:31Z</time></trkpt><trkpt lat="38.00270237371408" lon="16.12615658797723"><ele>11.0</ele><time>2026-03-22T08:11:32Z</time></trkpt><trkpt lat="38.00290004963306" lon="16.126277521666836"><ele>11.0</ele><time>2026-03-22T08:11:33Z</time></trkpt><trkpt lat="38.0030990708398" lon="16.126400263896365"><ele>11.0</ele><time>2026-03-22T08:11:34Z</time></trkpt><trkpt lat="38.00330251865208" lon="16.126521153001796"><ele>11.0</ele><time>2026-03-22T08:11:35Z</time></trkpt><trkpt lat="38.003506912552105" lon="16.12663623496411"><ele>11.0</ele><time>2026-03-22T08:11:36Z</time></trkpt><trkpt lat="38.00371453070189" lon="16.1267460900482"><ele>10.0</ele><time>2026-03-22T08:11:37Z</time></trkpt><trkpt lat="38.0039173699105" lon="16.126855003482234"><ele>9.0</ele><time>2026-03-22T08:11:38Z</time></trkpt><trkpt lat="38.00412927944148" lon="16.126960869014724"><ele>8.0</ele><time>2026-03-22T08:11:39Z</time></trkpt><trkpt lat="38.00433672787634" lon="16.127061776815804"><ele>11.666666666666666</ele><time>2026-03-22T08:11:40Z</time></trkpt><trkpt lat="38.00453666694618" lon="16.12715883903125"><ele>15.333333333333332</ele><time>2026-03-22T08:11:41Z</time></trkpt><trkpt lat="38.004736428396974" lon="16.12725553795405"><ele>19.0</ele><time>2026-03-22T08:11:42Z</time></trkpt><trkpt lat="38.004941424636236" lon="16.12734524568144"><ele>16.333333333333332</ele><time>2026-03-22T08:11:43Z</time></trkpt><trkpt lat="38.00514766732353" lon="16.127432757701488"><ele>13.666666666666666</ele><time>2026-03-22T08:11:44Z</time></trkpt><trkpt lat="38.00535216195665" lon="16.12752307586356"><ele>11.0</ele><time>2026-03-22T08:11:45Z</time></trkpt><trkpt lat="38.00556297186851" lon="16.127613053706106"><ele>11.0</ele><time>2026-03-22T08:11:46Z</time></trkpt><trkpt lat="38.00577376406563" lon="16.127702976214476"><ele>11.0</ele><time>2026-03-22T08:11:47Z</time></trkpt><trkpt lat="38.00597550404502" lon="16.127787765893174"><ele>11.0</ele><time>2026-03-22T08:11:48Z</time></trkpt><trkpt lat="38.00617565608573" lon="16.127880257407206"><ele>11.0</ele><time>2026-03-22T08:11:49Z</time></trkpt><trkpt lat="38.006379080364354" lon="16.127977767359337"><ele>11.0</ele><time>2026-03-22T08:11:50Z</time></trkpt><trkpt lat="38.00658130781587" lon="16.128081656943657"><ele>11.0</ele><time>2026-03-22T08:11:51Z</time></trkpt><trkpt lat="38.00678097168314" lon="16.12819434110405"><ele>10.333333333333332</ele><time>2026-03-22T08:11:52Z</time></trkpt><trkpt lat="38.00698348517276" lon="16.128316768037404"><ele>9.666666666666666</ele><time>2026-03-22T08:11:53Z</time></trkpt><trkpt lat="38.007184576419846" lon="16.128441971778205"><ele>9.0</ele><time>2026-03-22T08:11:54Z</time></trkpt><trkpt lat="38.00738696642641" lon="16.12856187580006"><ele>12.5</ele><time>2026-03-22T08:11:55Z</time></trkpt><trkpt lat="38.007595247217566" lon="16.12868206708301"><ele>16.0</ele><time>2026-03-22T08:11:56Z</time></trkpt><trkpt lat="38.00780561698185" lon="16.128796707638273"><ele>16.0</ele><time>2026-03-22T08:11:57Z</time></trkpt><trkpt lat="38.008014891029084" lon="16.128926910964122"><ele>16.0</ele><time>2026-03-22T08:11:58Z</time></trkpt><trkpt lat="38.00822813207778" lon="16.129053595654824"><ele>13.0</ele><time>2026-03-22T08:11:59Z</time></trkpt><trkpt lat="38.00843667645309" lon="16.129174833172957"><ele>10.0</ele><time>2026-03-22T08:12:00Z</time></trkpt><trkpt lat="38.00865075273072" lon="16.129287700130128"><ele>10.0</ele><time>2026-03-22T08:12:01Z</time></trkpt><trkpt lat="38.00884669561063" lon="16.129410619521366"><ele>10.0</ele><time>2026-03-22T08:12:02Z</time></trkpt><trkpt lat="38.009053095161754" lon="16.129531814159392"><ele>10.0</ele><time>2026-03-22T08:12:03Z</time></trkpt><trkpt lat="38.00924913620715" lon="16.12965810106172"><ele>10.333333333333334</ele><time>2026-03-22T08:12:04Z</time></trkpt><trkpt lat="38.00944973084265" lon="16.129782711935974"><ele>10.666666666666666</ele><time>2026-03-22T08:12:05Z</time></trkpt><trkpt lat="38.00964361149228" lon="16.12990063194887"><ele>11.0</ele><time>2026-03-22T08:12:06Z</time></trkpt><trkpt lat="38.00984559732804" lon="16.13002677468725"><ele>10.333333333333332</ele><time>2026-03-22T08:12:07Z</time></trkpt><trkpt lat="38.01004001006808" lon="16.130145140780293"><ele>9.666666666666666</ele><time>2026-03-22T08:12:08Z</time></trkpt><trkpt lat="38.010233592762425" lon="16.130267234245864"><ele>9.0</ele><time>2026-03-22T08:12:09Z</time></trkpt><trkpt lat="38.010433280660145" lon="16.130403454160987"><ele>9.0</ele><time>2026-03-22T08:12:10Z</time></trkpt><trkpt lat="38.01062049962912" lon="16.13051524909296"><ele>9.0</ele><time>2026-03-22T08:12:11Z</time></trkpt><trkpt lat="38.01080676650103" lon="16.13062430986346"><ele>9.0</ele><time>2026-03-22T08:12:12Z</time></trkpt><trkpt lat="38.01099203223455" lon="16.130745432694003"><ele>9.666666666666666</ele><time>2026-03-22T08:12:13Z</time></trkpt><trkpt lat="38.01117970015525" lon="16.130869153033732"><ele>10.333333333333332</ele><time>2026-03-22T08:12:14Z</time></trkpt><trkpt lat="38.01136777820999" lon="16.130988443697042"><ele>11.0</ele><time>2026-03-22T08:12:15Z</time></trkpt><trkpt lat="38.01155564549728" lon="16.13110811876643"><ele>13.666666666666666</ele><time>2026-03-22T08:12:16Z</time></trkpt><trkpt lat="38.01175211824329" lon="16.131219447837704"><ele>16.333333333333332</ele><time>2026-03-22T08:12:17Z</time></trkpt><trkpt lat="38.01194400076697" lon="16.131342162005886"><ele>19.0</ele><time>2026-03-22T08:12:18Z</time></trkpt><trkpt lat="38.01213817332219" lon="16.131462420255122"><ele>17.666666666666664</ele><time>2026-03-22T08:12:19Z</time></trkpt><trkpt lat="38.012331518570946" lon="16.131571076900308"><ele>16.333333333333332</ele><time>2026-03-22T08:12:20Z</time></trkpt><trkpt lat="38.012521951547605" lon="16.131686690383056"><ele>15.0</ele><time>2026-03-22T08:12:21Z</time></trkpt><trkpt lat="38.01271251343926" lon="16.13182014003533"><ele>15.0</ele><time>2026-03-22T08:12:22Z</time></trkpt><trkpt lat="38.01289831246286" lon="16.13191342975065"><ele>15.0</ele><time>2026-03-22T08:12:23Z</time></trkpt><trkpt lat="38.013095851232826" lon="16.132030665857283"><ele>15.0</ele><time>2026-03-22T08:12:24Z</time></trkpt><trkpt lat="38.01328960879665" lon="16.132152165452833"><ele>14.0</ele><time>2026-03-22T08:12:25Z</time></trkpt><trkpt lat="38.01347916517812" lon="16.13227331929217"><ele>13.0</ele><time>2026-03-22T08:12:26Z</time></trkpt><trkpt lat="38.01366883387606" lon="16.13238666378935"><ele>12.0</ele><time>2026-03-22T08:12:27Z</time></trkpt><trkpt lat="38.0138585005789" lon="16.132501783147603"><ele>12.0</ele><time>2026-03-22T08:12:28Z</time></trkpt><trkpt lat="38.01405354493687" lon="16.132620826964896"><ele>12.0</ele><time>2026-03-22T08:12:29Z</time></trkpt><trkpt lat="38.014248597246755" lon="16.132737091243765"><ele>12.0</ele><time>2026-03-22T08:12:30Z</time></trkpt><trkpt lat="38.014442873161485" lon="16.132855958983402"><ele>14.333333333333332</ele><time>2026-03-22T08:12:31Z</time></trkpt><trkpt lat="38.01463533266585" lon="16.132977364326102"><ele>16.666666666666664</ele><time>2026-03-22T08:12:32Z</time></trkpt><trkpt lat="38.01482622588613" lon="16.13309242338836"><ele>19.0</ele><time>2026-03-22T08:12:33Z</time></trkpt><trkpt lat="38.015012707393964" lon="16.133202967042262"><ele>17.666666666666664</ele><time>2026-03-22T08:12:34Z</time></trkpt><trkpt lat="38.01518444503509" lon="16.133312266232238"><ele>16.333333333333332</ele><time>2026-03-22T08:12:35Z</time></trkpt><trkpt lat="38.01534325331379" lon="16.133418319473343"><ele>15.0</ele><time>2026-03-22T08:12:36Z</time></trkpt><trkpt lat="38.01549499911628" lon="16.133516535906324"><ele>15.0</ele><time>2026-03-22T08:12:37Z</time></trkpt><trkpt lat="38.01564236964336" lon="16.133606445677515"><ele>15.0</ele><time>2026-03-22T08:12:38Z</time></trkpt><trkpt lat="38.015786313494914" lon="16.13369177871662"><ele>15.0</ele><time>2026-03-22T08:12:39Z</time></trkpt><trkpt lat="38.01592549850559" lon="16.13376814931279"><ele>17.0</ele><time>2026-03-22T08:12:40Z</time></trkpt><trkpt lat="38.01608080526804" lon="16.1338023803087"><ele>19.0</ele><time>2026-03-22T08:12:41Z</time></trkpt><trkpt lat="38.01621646447519" lon="16.13384258987623"><ele>21.0</ele><time>2026-03-22T08:12:42Z</time></trkpt><trkpt lat="38.01634828225426" lon="16.133864945808003"><ele>23.0</ele><time>2026-03-22T08:12:43Z</time></trkpt><trkpt lat="38.01648034652867" lon="16.1338746466939"><ele>23.0</ele><time>2026-03-22T08:12:44Z</time></trkpt><trkpt lat="38.01661715097114" lon="16.133851298424098"><ele>23.0</ele><time>2026-03-22T08:12:45Z</time></trkpt><trkpt lat="38.01675555997863" lon="16.133806410394232"><ele>23.0</ele><time>2026-03-22T08:12:46Z</time></trkpt><trkpt lat="38.01689258343154" lon="16.133730067749735"><ele>23.0</ele><time>2026-03-22T08:12:47Z</time></trkpt><trkpt lat="38.017019951691566" lon="16.133651304010137"><ele>22.25</ele><time>2026-03-22T08:12:48Z</time></trkpt><trkpt lat="38.01713414923662" lon="16.133560107753194"><ele>21.5</ele><time>2026-03-22T08:12:49Z</time></trkpt><trkpt lat="38.017251751215596" lon="16.13349532483862"><ele>20.75</ele><time>2026-03-22T08:12:50Z</time></trkpt><trkpt lat="38.01737013740179" lon="16.13344106076245"><ele>20.0</ele><time>2026-03-22T08:12:51Z</time></trkpt><trkpt lat="38.01749697501696" lon="16.133404153472547"><ele>18.0</ele><time>2026-03-22T08:12:52Z</time></trkpt><trkpt lat="38.0176296263303" lon="16.133389534388193"><ele>16.0</ele><time>2026-03-22T08:12:53Z</time></trkpt><trkpt lat="38.01776839279014" lon="16.133399516424827"><ele>14.0</ele><time>2026-03-22T08:12:54Z</time></trkpt><trkpt lat="38.01791342432198" lon="16.133429859152727"><ele>12.0</ele><time>2026-03-22T08:12:55Z</time></trkpt><trkpt lat="38.018062591770786" lon="16.13347452249174"><ele>12.0</ele><time>2026-03-22T08:12:56Z</time></trkpt><trkpt lat="38.01821584836374" lon="16.133528895158836"><ele>12.0</ele><time>2026-03-22T08:12:57Z</time></trkpt><trkpt lat="38.01837086152571" lon="16.133596373005567"><ele>12.0</ele><time>2026-03-22T08:12:58Z</time></trkpt><trkpt lat="38.018529597665136" lon="16.13367321711814"><ele>10.666666666666666</ele><time>2026-03-22T08:12:59Z</time></trkpt><trkpt lat="38.01869388703987" lon="16.13375265997227"><ele>9.333333333333332</ele><time>2026-03-22T08:13:00Z</time></trkpt><trkpt lat="38.018864405309685" lon="16.133835634895828"><ele>8.0</ele><time>2026-03-22T08:13:01Z</time></trkpt><trkpt lat="38.01903616757684" lon="16.13391743512701"><ele>8.0</ele><time>2026-03-22T08:13:02Z</time></trkpt><trkpt lat="38.01920832249008" lon="16.13399690559905"><ele>8.0</ele><time>2026-03-22T08:13:03Z</time></trkpt><trkpt lat="38.019372951915265" lon="16.13406863168118"><ele>8.0</ele><time>2026-03-22T08:13:04Z</time></trkpt><trkpt lat="38.01953362779492" lon="16.134149492847644"><ele>8.333333333333332</ele><time>2026-03-22T08:13:05Z</time></trkpt><trkpt lat="38.01968859454666" lon="16.134239626403033"><ele>8.666666666666666</ele><time>2026-03-22T08:13:06Z</time></trkpt><trkpt lat="38.01983279642131" lon="16.13434174751932"><ele>9.0</ele><time>2026-03-22T08:13:07Z</time></trkpt><trkpt lat="38.01996103354648" lon="16.134473420466307"><ele>9.666666666666666</ele><time>2026-03-22T08:13:08Z</time></trkpt><trkpt lat="38.02007662930473" lon="16.13462775219723"><ele>10.333333333333332</ele><time>2026-03-22T08:13:09Z</time></trkpt><trkpt lat="38.020174573846504" lon="16.134804568192052"><ele>11.0</ele><time>2026-03-22T08:13:10Z</time></trkpt><trkpt lat="38.02025836720785" lon="16.134999246645723"><ele>11.0</ele><time>2026-03-22T08:13:11Z</time></trkpt><trkpt lat="38.02033775533879" lon="16.135188458662128"><ele>11.0</ele><time>2026-03-22T08:13:12Z</time></trkpt><trkpt lat="38.02043522749873" lon="16.135390072364725"><ele>11.0</ele><time>2026-03-22T08:13:13Z</time></trkpt><trkpt lat="38.020552668508905" lon="16.135568792658848"><ele>10.333333333333332</ele><time>2026-03-22T08:13:14Z</time></trkpt><trkpt lat="38.02067784777315" lon="16.13576082211469"><ele>9.666666666666666</ele><time>2026-03-22T08:13:15Z</time></trkpt><trkpt lat="38.020802397082925" lon="16.135937126699073"><ele>9.0</ele><time>2026-03-22T08:13:16Z</time></trkpt><trkpt lat="38.020938451884156" lon="16.136122131903697"><ele>9.333333333333334</ele><time>2026-03-22T08:13:17Z</time></trkpt><trkpt lat="38.021132854510554" lon="16.136279424319863"><ele>9.666666666666668</ele><time>2026-03-22T08:13:18Z</time></trkpt><trkpt lat="38.021293263970534" lon="16.136451973202025"><ele>10.0</ele><time>2026-03-22T08:13:19Z</time></trkpt><trkpt lat="38.021445559470536" lon="16.13661110246511"><ele>10.0</ele><time>2026-03-22T08:13:20Z</time></trkpt><trkpt lat="38.02159759367229" lon="16.136789685576336"><ele>10.0</ele><time>2026-03-22T08:13:21Z</time></trkpt><trkpt lat="38.021754614359416" lon="16.136964166099844"><ele>10.0</ele><time>2026-03-22T08:13:22Z</time></trkpt><trkpt lat="38.021907386193156" lon="16.137123307988258"><ele>9.666666666666668</ele><time>2026-03-22T08:13:23Z</time></trkpt><trkpt lat="38.02206259163874" lon="16.137288243808992"><ele>9.333333333333334</ele><time>2026-03-22T08:13:24Z</time></trkpt><trkpt lat="38.02221205910361" lon="16.137459573033393"><ele>9.0</ele><time>2026-03-22T08:13:25Z</time></trkpt><trkpt lat="38.02236368303156" lon="16.137628947816914"><ele>11.666666666666668</ele><time>2026-03-22T08:13:26Z</time></trkpt><trkpt lat="38.022519519515754" lon="16.137787307517396"><ele>14.333333333333334</ele><time>2026-03-22T08:13:27Z</time></trkpt><trkpt lat="38.022686114379404" lon="16.13792762977287"><ele>17.0</ele><time>2026-03-22T08:13:28Z</time></trkpt><trkpt lat="38.02286536619568" lon="16.13804870086605"><ele>17.0</ele><time>2026-03-22T08:13:29Z</time></trkpt><trkpt lat="38.02305518156171" lon="16.138153379035018"><ele>17.0</ele><time>2026-03-22T08:13:30Z</time></trkpt><trkpt lat="38.02323783305023" lon="16.13827288249478"><ele>17.0</ele><time>2026-03-22T08:13:31Z</time></trkpt><trkpt lat="38.023411761075316" lon="16.138366390945578"><ele>15.333333333333334</ele><time>2026-03-22T08:13:32Z</time></trkpt><trkpt lat="38.023585881685776" lon="16.138459511637087"><ele>13.666666666666668</ele><time>2026-03-22T08:13:33Z</time></trkpt><trkpt lat="38.02376959526643" lon="16.13855674502555"><ele>12.0</ele><time>2026-03-22T08:13:34Z</time></trkpt><trkpt lat="38.023949475405956" lon="16.138651949455298"><ele>12.0</ele><time>2026-03-22T08:13:35Z</time></trkpt><trkpt lat="38.02413685694089" lon="16.138751124210476"><ele>12.0</ele><time>2026-03-22T08:13:36Z</time></trkpt><trkpt lat="38.024323479976445" lon="16.138848077997903"><ele>12.0</ele><time>2026-03-22T08:13:37Z</time></trkpt><trkpt lat="38.02450695241114" lon="16.138937959953957"><ele>12.333333333333332</ele><time>2026-03-22T08:13:38Z</time></trkpt><trkpt lat="38.02469424301973" lon="16.13901801714046"><ele>12.666666666666666</ele><time>2026-03-22T08:13:39Z</time></trkpt><trkpt lat="38.02488832686912" lon="16.139074272410635"><ele>13.0</ele><time>2026-03-22T08:13:40Z</time></trkpt><trkpt lat="38.025072810392814" lon="16.139166097598185"><ele>13.0</ele><time>2026-03-22T08:13:41Z</time></trkpt><trkpt lat="38.02526424010235" lon="16.139240204015092"><ele>13.0</ele><time>2026-03-22T08:13:42Z</time></trkpt><trkpt lat="38.02544773626281" lon="16.13929698919175"><ele>13.0</ele><time>2026-03-22T08:13:43Z</time></trkpt><trkpt lat="38.025614557791066" lon="16.13936756540399"><ele>13.0</ele><time>2026-03-22T08:13:44Z</time></trkpt><trkpt lat="38.025773847877986" lon="16.139438099714553"><ele>13.0</ele><time>2026-03-22T08:13:45Z</time></trkpt><trkpt lat="38.025922644081845" lon="16.139519080449336"><ele>13.0</ele><time>2026-03-22T08:13:46Z</time></trkpt><trkpt lat="38.02605475880631" lon="16.13960849200916"><ele>11.75</ele><time>2026-03-22T08:13:47Z</time></trkpt><trkpt lat="38.02617268895744" lon="16.139696711363204"><ele>10.5</ele><time>2026-03-22T08:13:48Z</time></trkpt><trkpt lat="38.0262866323368" lon="16.139779444709124"><ele>9.25</ele><time>2026-03-22T08:13:49Z</time></trkpt><trkpt lat="38.026392797244654" lon="16.13986305487688"><ele>8.0</ele><time>2026-03-22T08:13:50Z</time></trkpt><trkpt lat="38.02649511905669" lon="16.139936562906517"><ele>8.0</ele><time>2026-03-22T08:13:51Z</time></trkpt><trkpt lat="38.02658668088948" lon="16.140010838628537"><ele>8.0</ele><time>2026-03-22T08:13:52Z</time></trkpt><trkpt lat="38.026670921420596" lon="16.14006943029669"><ele>8.0</ele><time>2026-03-22T08:13:53Z</time></trkpt><trkpt lat="38.02674745699091" lon="16.140120239374"><ele>8.0</ele><time>2026-03-22T08:13:54Z</time></trkpt><trkpt lat="38.0268117073586" lon="16.140188290355447"><ele>8.0</ele><time>2026-03-22T08:13:55Z</time></trkpt><trkpt lat="38.0268680256573" lon="16.14025203766267"><ele>9.714285714285714</ele><time>2026-03-22T08:13:56Z</time></trkpt><trkpt lat="38.02692225859943" lon="16.140312906315728"><ele>11.428571428571427</ele><time>2026-03-22T08:13:57Z</time></trkpt><trkpt lat="38.02698233705756" lon="16.14036171947158"><ele>13.142857142857142</ele><time>2026-03-22T08:13:58Z</time></trkpt><trkpt lat="38.027031067580346" lon="16.140413941316933"><ele>14.857142857142858</ele><time>2026-03-22T08:13:59Z</time></trkpt><trkpt lat="38.02708465215809" lon="16.14045996999934"><ele>16.571428571428573</ele><time>2026-03-22T08:14:00Z</time></trkpt><trkpt lat="38.027140043776" lon="16.14049995000596"><ele>18.285714285714285</ele><time>2026-03-22T08:14:01Z</time></trkpt><trkpt lat="38.027213666758016" lon="16.140570650303893"><ele>20.0</ele><time>2026-03-22T08:14:03Z</time></trkpt><trkpt lat="38.02726666082242" lon="16.140621370892635"><ele>20.0</ele><time>2026-03-22T08:14:06Z</time></trkpt><trkpt lat="38.02734133835956" lon="16.14069488330577"><ele>20.0</ele><time>2026-03-22T08:14:49Z</time></trkpt><trkpt lat="38.02742646591961" lon="16.14078134301561"><ele>20.0</ele><time>2026-03-22T08:14:51Z</time></trkpt><trkpt lat="38.027480457918216" lon="16.140841683617968"><ele>20.0</ele><time>2026-03-22T08:14:52Z</time></trkpt><trkpt lat="38.0275532591513" lon="16.140904078954136"><ele>20.0</ele><time>2026-03-22T08:14:53Z</time></trkpt><trkpt lat="38.02762767534659" lon="16.14097475209006"><ele>20.5</ele><time>2026-03-22T08:14:54Z</time></trkpt><trkpt lat="38.02770953238722" lon="16.141066316841155"><ele>21.0</ele><time>2026-03-22T08:14:55Z</time></trkpt><trkpt lat="38.02780401443048" lon="16.14115006512706"><ele>21.5</ele><time>2026-03-22T08:14:56Z</time></trkpt><trkpt lat="38.02790066334359" lon="16.14123545167863"><ele>22.0</ele><time>2026-03-22T08:14:57Z</time></trkpt><trkpt lat="38.02799243436101" lon="16.141354223955187"><ele>22.0</ele><time>2026-03-22T08:14:58Z</time></trkpt><trkpt lat="38.028096545614915" lon="16.14144475204172"><ele>22.0</ele><time>2026-03-22T08:14:59Z</time></trkpt><trkpt lat="38.02821834376972" lon="16.141552133956168"><ele>22.0</ele><time>2026-03-22T08:15:00Z</time></trkpt><trkpt lat="38.02832864313155" lon="16.141681185927993"><ele>22.0</ele><time>2026-03-22T08:15:01Z</time></trkpt><trkpt lat="38.02845855075732" lon="16.14179238392222"><ele>24.333333333333332</ele><time>2026-03-22T08:15:02Z</time></trkpt><trkpt lat="38.02860301623536" lon="16.141910029012944"><ele>26.666666666666664</ele><time>2026-03-22T08:15:03Z</time></trkpt><trkpt lat="38.02874214526405" lon="16.14201496278249"><ele>29.0</ele><time>2026-03-22T08:15:04Z</time></trkpt><trkpt lat="38.028876620256625" lon="16.142116275666904"><ele>29.0</ele><time>2026-03-22T08:15:05Z</time></trkpt><trkpt lat="38.028999125460295" lon="16.14220498321492"><ele>29.0</ele><time>2026-03-22T08:15:06Z</time></trkpt><trkpt lat="38.029114061136156" lon="16.14228477048904"><ele>29.0</ele><time>2026-03-22T08:15:07Z</time></trkpt><trkpt lat="38.029239654995486" lon="16.142345667765813"><ele>29.0</ele><time>2026-03-22T08:15:08Z</time></trkpt><trkpt lat="38.02937801207026" lon="16.14238382224833"><ele>24.75</ele><time>2026-03-22T08:15:09Z</time></trkpt><trkpt lat="38.02952640333579" lon="16.14238829014289"><ele>20.5</ele><time>2026-03-22T08:15:10Z</time></trkpt><trkpt lat="38.02967411572563" lon="16.14238744065145"><ele>16.25</ele><time>2026-03-22T08:15:11Z</time></trkpt><trkpt lat="38.02980499798633" lon="16.142387116625443"><ele>12.0</ele><time>2026-03-22T08:15:12Z</time></trkpt><trkpt lat="38.029945789168785" lon="16.142393522059578"><ele>15.666666666666668</ele><time>2026-03-22T08:15:13Z</time></trkpt><trkpt lat="38.030093314111255" lon="16.142405976186375"><ele>19.333333333333336</ele><time>2026-03-22T08:15:14Z</time></trkpt><trkpt lat="38.03024274891148" lon="16.142423960498526"><ele>23.0</ele><time>2026-03-22T08:15:15Z</time></trkpt><trkpt lat="38.03039380424267" lon="16.142444429305723"><ele>23.0</ele><time>2026-03-22T08:15:16Z</time></trkpt><trkpt lat="38.03054189672215" lon="16.14246784050229"><ele>23.0</ele><time>2026-03-22T08:15:17Z</time></trkpt><trkpt lat="38.030699682762716" lon="16.14250811558431"><ele>23.0</ele><time>2026-03-22T08:15:18Z</time></trkpt><trkpt lat="38.03083400060761" lon="16.142552458417036"><ele>23.0</ele><time>2026-03-22T08:15:19Z</time></trkpt><trkpt lat="38.03096683365725" lon="16.14265485759127"><ele>25.0</ele><time>2026-03-22T08:15:20Z</time></trkpt><trkpt lat="38.03109244957998" lon="16.142759404207926"><ele>27.0</ele><time>2026-03-22T08:15:21Z</time></trkpt><trkpt lat="38.03123512440127" lon="16.142860245685906"><ele>29.0</ele><time>2026-03-22T08:15:22Z</time></trkpt><trkpt lat="38.03136615362829" lon="16.142934408098228"><ele>29.0</ele><time>2026-03-22T08:15:23Z</time></trkpt><trkpt lat="38.031515648972956" lon="16.1430053975309"><ele>29.0</ele><time>2026-03-22T08:15:24Z</time></trkpt><trkpt lat="38.03166422493703" lon="16.143044339965737"><ele>29.0</ele><time>2026-03-22T08:15:25Z</time></trkpt><trkpt lat="38.03182327094614" lon="16.14311074369046"><ele>26.0</ele><time>2026-03-22T08:15:26Z</time></trkpt><trkpt lat="38.03197610133918" lon="16.143155470296232"><ele>23.0</ele><time>2026-03-22T08:15:27Z</time></trkpt><trkpt lat="38.03212668015438" lon="16.14319953634002"><ele>20.0</ele><time>2026-03-22T08:15:28Z</time></trkpt><trkpt lat="38.03228841101754" lon="16.143225588884857"><ele>20.0</ele><time>2026-03-22T08:15:29Z</time></trkpt><trkpt lat="38.03245220441457" lon="16.143232678627644"><ele>20.0</ele><time>2026-03-22T08:15:30Z</time></trkpt><trkpt lat="38.03260275952204" lon="16.1432587315147"><ele>20.0</ele><time>2026-03-22T08:15:31Z</time></trkpt><trkpt lat="38.03276954466669" lon="16.14325724626393"><ele>21.666666666666668</ele><time>2026-03-22T08:15:32Z</time></trkpt><trkpt lat="38.03293369342968" lon="16.143235730809515"><ele>23.333333333333336</ele><time>2026-03-22T08:15:33Z</time></trkpt><trkpt lat="38.03308925388637" lon="16.143188169585525"><ele>25.0</ele><time>2026-03-22T08:15:34Z</time></trkpt><trkpt lat="38.03323469050783" lon="16.14310358989274"><ele>32.5</ele><time>2026-03-22T08:15:35Z</time></trkpt><trkpt lat="38.03338297596092" lon="16.143053077948593"><ele>40.0</ele><time>2026-03-22T08:15:36Z</time></trkpt><trkpt lat="38.03352162550265" lon="16.14300351513156"><ele>47.5</ele><time>2026-03-22T08:15:37Z</time></trkpt><trkpt lat="38.033655269170566" lon="16.142957130796198"><ele>55.0</ele><time>2026-03-22T08:15:38Z</time></trkpt><trkpt lat="38.033779974228274" lon="16.142912025123692"><ele>55.0</ele><time>2026-03-22T08:15:39Z</time></trkpt><trkpt lat="38.03389597757901" lon="16.142876316478674"><ele>55.0</ele><time>2026-03-22T08:15:40Z</time></trkpt><trkpt lat="38.03400754912799" lon="16.14284702749097"><ele>55.0</ele><time>2026-03-22T08:15:41Z</time></trkpt><trkpt lat="38.03410969639531" lon="16.142815243120747"><ele>55.0</ele><time>2026-03-22T08:15:42Z</time></trkpt><trkpt lat="38.03421108762441" lon="16.14281287495999"><ele>55.0</ele><time>2026-03-22T08:15:43Z</time></trkpt><trkpt lat="38.03429428736621" lon="16.142798278727916"><ele>52.99999999999999</ele><time>2026-03-22T08:15:44Z</time></trkpt><trkpt lat="38.034404782033484" lon="16.14277889223177"><ele>51.0</ele><time>2026-03-22T08:15:45Z</time></trkpt><trkpt lat="38.034488235343275" lon="16.142764250163676"><ele>49.0</ele><time>2026-03-22T08:15:46Z</time></trkpt><trkpt lat="38.03457267392537" lon="16.14274943523646"><ele>47.0</ele><time>2026-03-22T08:15:47Z</time></trkpt><trkpt lat="38.034650537477965" lon="16.1427357739296"><ele>45.0</ele><time>2026-03-22T08:15:48Z</time></trkpt><trkpt lat="38.034725704477935" lon="16.14272258571304"><ele>43.0</ele><time>2026-03-22T08:15:49Z</time></trkpt><trkpt lat="38.034837646341" lon="16.142702945274984"><ele>43.0</ele><time>2026-03-22T08:15:50Z</time></trkpt><trkpt lat="38.03494480492355" lon="16.142684144071033"><ele>43.0</ele><time>2026-03-22T08:15:51Z</time></trkpt><trkpt lat="38.035080013783165" lon="16.142660434641545"><ele>43.0</ele><time>2026-03-22T08:15:52Z</time></trkpt><trkpt lat="38.0352080017495" lon="16.14263799292817"><ele>43.0</ele><time>2026-03-22T08:15:53Z</time></trkpt><trkpt lat="38.0353520503631" lon="16.142612568649707"><ele>40.0</ele><time>2026-03-22T08:15:54Z</time></trkpt><trkpt lat="38.035495188136096" lon="16.14258779134752"><ele>37.0</ele><time>2026-03-22T08:15:55Z</time></trkpt><trkpt lat="38.03561535533303" lon="16.142567748612866"><ele>34.0</ele><time>2026-03-22T08:15:56Z</time></trkpt><trkpt lat="38.035743241802415" lon="16.14255205221627"><ele>31.0</ele><time>2026-03-22T08:15:57Z</time></trkpt><trkpt lat="38.03586466115357" lon="16.142549886430295"><ele>28.5</ele><time>2026-03-22T08:15:58Z</time></trkpt><trkpt lat="38.03599871353251" lon="16.14255994676975"><ele>26.0</ele><time>2026-03-22T08:15:59Z</time></trkpt><trkpt lat="38.03614149038272" lon="16.142583261372714"><ele>23.5</ele><time>2026-03-22T08:16:00Z</time></trkpt><trkpt lat="38.036295449262376" lon="16.142611854368145"><ele>21.0</ele><time>2026-03-22T08:16:01Z</time></trkpt><trkpt lat="38.03646507095651" lon="16.142643356191776"><ele>21.0</ele><time>2026-03-22T08:16:02Z</time></trkpt><trkpt lat="38.0366288835527" lon="16.142668236625912"><ele>21.0</ele><time>2026-03-22T08:16:03Z</time></trkpt><trkpt lat="38.036787516278636" lon="16.14268603958866"><ele>21.0</ele><time>2026-03-22T08:16:04Z</time></trkpt><trkpt lat="38.03693161928314" lon="16.142701279804058"><ele>22.5</ele><time>2026-03-22T08:16:05Z</time></trkpt><trkpt lat="38.0370771484262" lon="16.142716376032904"><ele>24.0</ele><time>2026-03-22T08:16:06Z</time></trkpt><trkpt lat="38.037213789085136" lon="16.142730768175856"><ele>25.5</ele><time>2026-03-22T08:16:07Z</time></trkpt><trkpt lat="38.03734681022496" lon="16.142746278819967"><ele>27.0</ele><time>2026-03-22T08:16:08Z</time></trkpt><trkpt lat="38.03747757554807" lon="16.14276152643569"><ele>27.6</ele><time>2026-03-22T08:16:09Z</time></trkpt><trkpt lat="38.03759725920467" lon="16.142780336941467"><ele>28.200000000000003</ele><time>2026-03-22T08:16:10Z</time></trkpt><trkpt lat="38.03770632124972" lon="16.14280342447767"><ele>28.8</ele><time>2026-03-22T08:16:11Z</time></trkpt><trkpt lat="38.03781249205374" lon="16.14282753902861"><ele>29.4</ele><time>2026-03-22T08:16:12Z</time></trkpt><trkpt lat="38.037901842060855" lon="16.14288174265288"><ele>30.0</ele><time>2026-03-22T08:16:13Z</time></trkpt><trkpt lat="38.03799546398483" lon="16.142965244798173"><ele>30.0</ele><time>2026-03-22T08:16:14Z</time></trkpt><trkpt lat="38.0380794934343" lon="16.14305607987082"><ele>30.0</ele><time>2026-03-22T08:16:15Z</time></trkpt><trkpt lat="38.03815705101701" lon="16.143153907557043"><ele>30.0</ele><time>2026-03-22T08:16:16Z</time></trkpt><trkpt lat="38.03822217530458" lon="16.14325567810185"><ele>30.0</ele><time>2026-03-22T08:16:17Z</time></trkpt><trkpt lat="38.03829807498586" lon="16.143357913527883"><ele>30.0</ele><time>2026-03-22T08:16:18Z</time></trkpt><trkpt lat="38.03836565221734" lon="16.143462610982613"><ele>30.666666666666668</ele><time>2026-03-22T08:16:19Z</time></trkpt><trkpt lat="38.03841666784271" lon="16.14358350215461"><ele>31.333333333333336</ele><time>2026-03-22T08:16:20Z</time></trkpt><trkpt lat="38.038474622360546" lon="16.143672615495355"><ele>32.0</ele><time>2026-03-22T08:16:21Z</time></trkpt><trkpt lat="38.03853527585368" lon="16.143752074025723"><ele>32.66666666666667</ele><time>2026-03-22T08:16:22Z</time></trkpt><trkpt lat="38.03859680856472" lon="16.14382277897572"><ele>33.333333333333336</ele><time>2026-03-22T08:16:23Z</time></trkpt><trkpt lat="38.03865145207121" lon="16.143885661869184"><ele>34.0</ele><time>2026-03-22T08:16:24Z</time></trkpt><trkpt lat="38.038682573034535" lon="16.14396069109396"><ele>33.99999999999999</ele><time>2026-03-22T08:16:25Z</time></trkpt><trkpt lat="38.03872685428724" lon="16.144026765561033"><ele>34.0</ele><time>2026-03-22T08:16:26Z</time></trkpt><trkpt lat="38.03876837202059" lon="16.14408871646587"><ele>34.0</ele><time>2026-03-22T08:16:27Z</time></trkpt><trkpt lat="38.03882436968626" lon="16.144172273562337"><ele>34.0</ele><time>2026-03-22T08:16:29Z</time></trkpt><trkpt lat="38.03886832137679" lon="16.144237277078922"><ele>34.0</ele><time>2026-03-22T08:16:31Z</time></trkpt><trkpt lat="38.03891562596954" lon="16.14430707937668"><ele>33.99999999999999</ele><time>2026-03-22T08:16:46Z</time></trkpt><trkpt lat="38.03895983122603" lon="16.14437231436579"><ele>34.0</ele><time>2026-03-22T08:16:48Z</time></trkpt><trkpt lat="38.039033750065364" lon="16.14448141913266"><ele>35.16666666666667</ele><time>2026-03-22T08:16:50Z</time></trkpt><trkpt lat="38.03908351024303" lon="16.14455491114544"><ele>36.333333333333336</ele><time>2026-03-22T08:16:51Z</time></trkpt><trkpt lat="38.03913838746477" lon="16.144630894838382"><ele>37.5</ele><time>2026-03-22T08:16:52Z</time></trkpt><trkpt lat="38.039197805143104" lon="16.144705940839934"><ele>38.666666666666664</ele><time>2026-03-22T08:16:53Z</time></trkpt><trkpt lat="38.0392728187936" lon="16.144765597804064"><ele>39.83333333333333</ele><time>2026-03-22T08:16:54Z</time></trkpt><trkpt lat="38.03935820789304" lon="16.144804398301247"><ele>41.0</ele><time>2026-03-22T08:16:55Z</time></trkpt><trkpt lat="38.03944178271422" lon="16.144828921829653"><ele>41.0</ele><time>2026-03-22T08:16:56Z</time></trkpt><trkpt lat="38.039542660647584" lon="16.14483057403258"><ele>41.0</ele><time>2026-03-22T08:16:57Z</time></trkpt><trkpt lat="38.039626716442264" lon="16.14481301282419"><ele>41.0</ele><time>2026-03-22T08:16:58Z</time></trkpt><trkpt lat="38.039734618952046" lon="16.144773008770322"><ele>41.0</ele><time>2026-03-22T08:16:59Z</time></trkpt><trkpt lat="38.03982610652641" lon="16.144714510284803"><ele>41.0</ele><time>2026-03-22T08:17:00Z</time></trkpt><trkpt lat="38.03990643912714" lon="16.144610319691132"><ele>39.0</ele><time>2026-03-22T08:17:01Z</time></trkpt><trkpt lat="38.03996814775673" lon="16.144512566728537"><ele>37.0</ele><time>2026-03-22T08:17:02Z</time></trkpt><trkpt lat="38.04002724825611" lon="16.144409636974512"><ele>35.0</ele><time>2026-03-22T08:17:03Z</time></trkpt><trkpt lat="38.040087827965216" lon="16.144298879719422"><ele>33.0</ele><time>2026-03-22T08:17:04Z</time></trkpt><trkpt lat="38.040146217826994" lon="16.14419012415051"><ele>31.0</ele><time>2026-03-22T08:17:05Z</time></trkpt><trkpt lat="38.04020277838092" lon="16.144080486458265"><ele>35.5</ele><time>2026-03-22T08:17:06Z</time></trkpt><trkpt lat="38.04025869736724" lon="16.143962018244093"><ele>40.0</ele><time>2026-03-22T08:17:07Z</time></trkpt><trkpt lat="38.040305794656526" lon="16.143839752220146"><ele>44.5</ele><time>2026-03-22T08:17:08Z</time></trkpt><trkpt lat="38.04034753892854" lon="16.14370998148472"><ele>49.0</ele><time>2026-03-22T08:17:09Z</time></trkpt><trkpt lat="38.04036719185123" lon="16.143553433572958"><ele>49.0</ele><time>2026-03-22T08:17:10Z</time></trkpt><trkpt lat="38.04040506086851" lon="16.143396131847084"><ele>49.0</ele><time>2026-03-22T08:17:11Z</time></trkpt><trkpt lat="38.04043889968378" lon="16.143235841863106"><ele>49.0</ele><time>2026-03-22T08:17:12Z</time></trkpt><trkpt lat="38.040475960639796" lon="16.14305359427098"><ele>49.0</ele><time>2026-03-22T08:17:13Z</time></trkpt><trkpt lat="38.04052493244535" lon="16.142880680695207"><ele>53.666666666666664</ele><time>2026-03-22T08:17:14Z</time></trkpt><trkpt lat="38.04059691074199" lon="16.142718321772744"><ele>58.33333333333333</ele><time>2026-03-22T08:17:15Z</time></trkpt><trkpt lat="38.04068866717929" lon="16.142566867137894"><ele>63.0</ele><time>2026-03-22T08:17:16Z</time></trkpt><trkpt lat="38.0407863645152" lon="16.14241283545069"><ele>59.0</ele><time>2026-03-22T08:17:17Z</time></trkpt><trkpt lat="38.040905278063214" lon="16.142339072769186"><ele>55.0</ele><time>2026-03-22T08:17:18Z</time></trkpt><trkpt lat="38.04104641719015" lon="16.14219850964425"><ele>51.0</ele><time>2026-03-22T08:17:19Z</time></trkpt><trkpt lat="38.04117103675892" lon="16.142075407873282"><ele>51.0</ele><time>2026-03-22T08:17:20Z</time></trkpt><trkpt lat="38.04130288848307" lon="16.141946454088533"><ele>51.0</ele><time>2026-03-22T08:17:21Z</time></trkpt><trkpt lat="38.04142799626596" lon="16.1418245464013"><ele>51.0</ele><time>2026-03-22T08:17:22Z</time></trkpt><trkpt lat="38.041561720491465" lon="16.141694242284583"><ele>46.333333333333336</ele><time>2026-03-22T08:17:23Z</time></trkpt><trkpt lat="38.04169707464844" lon="16.141562350111393"><ele>41.66666666666667</ele><time>2026-03-22T08:17:24Z</time></trkpt><trkpt lat="38.04184111589813" lon="16.14142290282275"><ele>37.0</ele><time>2026-03-22T08:17:25Z</time></trkpt><trkpt lat="38.04197909139012" lon="16.141293599250805"><ele>37.0</ele><time>2026-03-22T08:17:26Z</time></trkpt><trkpt lat="38.042117310780995" lon="16.141172807387665"><ele>37.0</ele><time>2026-03-22T08:17:27Z</time></trkpt><trkpt lat="38.04225570221543" lon="16.141064855297746"><ele>37.0</ele><time>2026-03-22T08:17:28Z</time></trkpt><trkpt lat="38.042394790788954" lon="16.140975656570916"><ele>30.666666666666668</ele><time>2026-03-22T08:17:29Z</time></trkpt><trkpt lat="38.042542065927336" lon="16.140898140239138"><ele>24.333333333333336</ele><time>2026-03-22T08:17:30Z</time></trkpt><trkpt lat="38.04269838459479" lon="16.14083369135769"><ele>18.0</ele><time>2026-03-22T08:17:31Z</time></trkpt><trkpt lat="38.042863036843784" lon="16.140768929955737"><ele>18.0</ele><time>2026-03-22T08:17:32Z</time></trkpt><trkpt lat="38.0430383485519" lon="16.14074114331927"><ele>18.0</ele><time>2026-03-22T08:17:33Z</time></trkpt><trkpt lat="38.043214588099595" lon="16.140713989391863"><ele>18.0</ele><time>2026-03-22T08:17:34Z</time></trkpt><trkpt lat="38.04339427017857" lon="16.140692207847742"><ele>20.0</ele><time>2026-03-22T08:17:35Z</time></trkpt><trkpt lat="38.04357117104022" lon="16.14063008879819"><ele>22.0</ele><time>2026-03-22T08:17:36Z</time></trkpt><trkpt lat="38.043758250540535" lon="16.140557158723553"><ele>24.0</ele><time>2026-03-22T08:17:37Z</time></trkpt><trkpt lat="38.04394631251825" lon="16.14047750048597"><ele>20.666666666666668</ele><time>2026-03-22T08:17:38Z</time></trkpt><trkpt lat="38.04413782656604" lon="16.140395268015986"><ele>17.333333333333336</ele><time>2026-03-22T08:17:39Z</time></trkpt><trkpt lat="38.04433150339531" lon="16.140312106797364"><ele>14.0</ele><time>2026-03-22T08:17:40Z</time></trkpt><trkpt lat="38.044526439134735" lon="16.140228405090667"><ele>14.0</ele><time>2026-03-22T08:17:41Z</time></trkpt><trkpt lat="38.04471857605753" lon="16.140145539635256"><ele>14.0</ele><time>2026-03-22T08:17:42Z</time></trkpt><trkpt lat="38.0449126209972" lon="16.14006165167243"><ele>14.0</ele><time>2026-03-22T08:17:43Z</time></trkpt><trkpt lat="38.045108168199384" lon="16.139977114234966"><ele>13.333333333333334</ele><time>2026-03-22T08:17:44Z</time></trkpt><trkpt lat="38.04529863876699" lon="16.139894771504522"><ele>12.666666666666668</ele><time>2026-03-22T08:17:45Z</time></trkpt><trkpt lat="38.045488411924666" lon="16.139812730295613"><ele>12.0</ele><time>2026-03-22T08:17:46Z</time></trkpt><trkpt lat="38.04567234012265" lon="16.13973384219569"><ele>11.0</ele><time>2026-03-22T08:17:47Z</time></trkpt><trkpt lat="38.045860803451205" lon="16.139635505917294"><ele>10.0</ele><time>2026-03-22T08:17:48Z</time></trkpt><trkpt lat="38.04605245471995" lon="16.139560541275035"><ele>9.0</ele><time>2026-03-22T08:17:49Z</time></trkpt><trkpt lat="38.04624704555378" lon="16.139496078502646"><ele>9.0</ele><time>2026-03-22T08:17:50Z</time></trkpt><trkpt lat="38.04644574833298" lon="16.139453036644326"><ele>9.0</ele><time>2026-03-22T08:17:51Z</time></trkpt><trkpt lat="38.04664100247058" lon="16.139429520119208"><ele>9.0</ele><time>2026-03-22T08:17:52Z</time></trkpt><trkpt lat="38.0468444853129" lon="16.139416563731714"><ele>8.666666666666666</ele><time>2026-03-22T08:17:53Z</time></trkpt><trkpt lat="38.047045586231924" lon="16.13940054642353"><ele>8.333333333333332</ele><time>2026-03-22T08:17:54Z</time></trkpt><trkpt lat="38.04724550055564" lon="16.139392378453124"><ele>8.0</ele><time>2026-03-22T08:17:55Z</time></trkpt><trkpt lat="38.04744630083147" lon="16.139390886507975"><ele>7.666666666666666</ele><time>2026-03-22T08:17:56Z</time></trkpt><trkpt lat="38.04764969917033" lon="16.139388060542228"><ele>7.333333333333334</ele><time>2026-03-22T08:17:57Z</time></trkpt><trkpt lat="38.04785000664636" lon="16.1393892088831"><ele>7.0</ele><time>2026-03-22T08:17:58Z</time></trkpt><trkpt lat="38.048053959979086" lon="16.139381113869515"><ele>7.0</ele><time>2026-03-22T08:17:59Z</time></trkpt><trkpt lat="38.048256420332514" lon="16.13937055820544"><ele>7.0</ele><time>2026-03-22T08:18:00Z</time></trkpt><trkpt lat="38.04845939185694" lon="16.139382523227045"><ele>7.0</ele><time>2026-03-22T08:18:01Z</time></trkpt><trkpt lat="38.0486645920456" lon="16.139378080713488"><ele>6.666666666666667</ele><time>2026-03-22T08:18:02Z</time></trkpt><trkpt lat="38.04887102886041" lon="16.13937361003009"><ele>6.333333333333334</ele><time>2026-03-22T08:18:03Z</time></trkpt><trkpt lat="38.04907267391769" lon="16.13936891870718"><ele>6.0</ele><time>2026-03-22T08:18:04Z</time></trkpt><trkpt lat="38.04927438901242" lon="16.139363173883996"><ele>5.666666666666667</ele><time>2026-03-22T08:18:05Z</time></trkpt><trkpt lat="38.049474184149574" lon="16.139357964160286"><ele>5.333333333333334</ele><time>2026-03-22T08:18:06Z</time></trkpt><trkpt lat="38.04967605062257" lon="16.139352584106327"><ele>5.0</ele><time>2026-03-22T08:18:07Z</time></trkpt><trkpt lat="38.04987666600304" lon="16.139347435181342"><ele>5.333333333333334</ele><time>2026-03-22T08:18:08Z</time></trkpt><trkpt lat="38.05007821759976" lon="16.13934242549433"><ele>5.666666666666667</ele><time>2026-03-22T08:18:09Z</time></trkpt><trkpt lat="38.05027798488748" lon="16.139337460154884"><ele>6.0</ele><time>2026-03-22T08:18:10Z</time></trkpt><trkpt lat="38.05048107713054" lon="16.13933241217348"><ele>6.0</ele><time>2026-03-22T08:18:11Z</time></trkpt><trkpt lat="38.05068095079697" lon="16.139327444191068"><ele>6.0</ele><time>2026-03-22T08:18:12Z</time></trkpt><trkpt lat="38.05088062368378" lon="16.139322747736294"><ele>6.0</ele><time>2026-03-22T08:18:13Z</time></trkpt><trkpt lat="38.051076170252095" lon="16.139318247978895"><ele>6.333333333333334</ele><time>2026-03-22T08:18:14Z</time></trkpt><trkpt lat="38.05127684075089" lon="16.139313630315396"><ele>6.666666666666667</ele><time>2026-03-22T08:18:15Z</time></trkpt><trkpt lat="38.05147457146365" lon="16.139309080300645"><ele>7.0</ele><time>2026-03-22T08:18:16Z</time></trkpt><trkpt lat="38.0516681789922" lon="16.139304392424144"><ele>7.333333333333334</ele><time>2026-03-22T08:18:17Z</time></trkpt><trkpt lat="38.051850642524805" lon="16.139258344736184"><ele>7.666666666666666</ele><time>2026-03-22T08:18:18Z</time></trkpt><trkpt lat="38.05201102017596" lon="16.139255460385794"><ele>8.0</ele><time>2026-03-22T08:18:19Z</time></trkpt><trkpt lat="38.05216753183844" lon="16.13924786492768"><ele>8.0</ele><time>2026-03-22T08:18:20Z</time></trkpt><trkpt lat="38.05230755141164" lon="16.1392521633316"><ele>8.0</ele><time>2026-03-22T08:18:21Z</time></trkpt><trkpt lat="38.05243215049744" lon="16.13928972110553"><ele>8.0</ele><time>2026-03-22T08:18:22Z</time></trkpt><trkpt lat="38.052535229637265" lon="16.139287546782512"><ele>8.0</ele><time>2026-03-22T08:18:23Z</time></trkpt><trkpt lat="38.05263692077393" lon="16.139285401746804"><ele>8.5</ele><time>2026-03-22T08:18:24Z</time></trkpt><trkpt lat="38.05272758564638" lon="16.139282947259773"><ele>9.0</ele><time>2026-03-22T08:18:25Z</time></trkpt><trkpt lat="38.05279782768307" lon="16.139313745078987"><ele>9.5</ele><time>2026-03-22T08:18:26Z</time></trkpt><trkpt lat="38.05286707761848" lon="16.139335742988163"><ele>10.0</ele><time>2026-03-22T08:18:27Z</time></trkpt><trkpt lat="38.05294370649087" lon="16.139332171532036"><ele>10.5</ele><time>2026-03-22T08:18:29Z</time></trkpt><trkpt lat="38.05301082602059" lon="16.13931525029051"><ele>11.0</ele><time>2026-03-22T08:18:32Z</time></trkpt><trkpt lat="38.053084130803576" lon="16.139289485308645"><ele>11.0</ele><time>2026-03-22T08:18:40Z</time></trkpt><trkpt lat="38.05319764061854" lon="16.139332286013616"><ele>11.0</ele><time>2026-03-22T08:18:42Z</time></trkpt><trkpt lat="38.053312085281945" lon="16.1393159412737"><ele>11.0</ele><time>2026-03-22T08:18:43Z</time></trkpt><trkpt lat="38.05345356322729" lon="16.139311277458127"><ele>11.0</ele><time>2026-03-22T08:18:44Z</time></trkpt><trkpt lat="38.053620640245796" lon="16.139332380207694"><ele>11.333333333333332</ele><time>2026-03-22T08:18:45Z</time></trkpt><trkpt lat="38.05383286068692" lon="16.13933282790189"><ele>11.666666666666666</ele><time>2026-03-22T08:18:46Z</time></trkpt><trkpt lat="38.05405029972339" lon="16.13933903091611"><ele>12.0</ele><time>2026-03-22T08:18:47Z</time></trkpt><trkpt lat="38.05430606719018" lon="16.13930940992806"><ele>14.0</ele><time>2026-03-22T08:18:48Z</time></trkpt><trkpt lat="38.054549629588315" lon="16.139348743825245"><ele>16.0</ele><time>2026-03-22T08:18:49Z</time></trkpt><trkpt lat="38.05479363645785" lon="16.13939474684014"><ele>16.333333333333332</ele><time>2026-03-22T08:18:50Z</time></trkpt><trkpt lat="38.05501702472311" lon="16.13943523153427"><ele>16.666666666666668</ele><time>2026-03-22T08:18:51Z</time></trkpt><trkpt lat="38.055228023025684" lon="16.1394874895609"><ele>17.0</ele><time>2026-03-22T08:18:52Z</time></trkpt><trkpt lat="38.05545532721022" lon="16.13954978193302"><ele>17.0</ele><time>2026-03-22T08:18:53Z</time></trkpt><trkpt lat="38.05567135337866" lon="16.139591217611933"><ele>17.0</ele><time>2026-03-22T08:18:54Z</time></trkpt><trkpt lat="38.05587697261541" lon="16.139634017801782"><ele>17.0</ele><time>2026-03-22T08:18:55Z</time></trkpt><trkpt lat="38.056053861583685" lon="16.139675228387418"><ele>16.666666666666668</ele><time>2026-03-22T08:18:56Z</time></trkpt><trkpt lat="38.05622623183281" lon="16.139671736181217"><ele>16.333333333333332</ele><time>2026-03-22T08:18:57Z</time></trkpt><trkpt lat="38.05639608738058" lon="16.13968049779375"><ele>16.0</ele><time>2026-03-22T08:18:58Z</time></trkpt><trkpt lat="38.056578174814064" lon="16.139613853170694"><ele>16.333333333333332</ele><time>2026-03-22T08:18:59Z</time></trkpt><trkpt lat="38.05675769752852" lon="16.1395704790681"><ele>16.666666666666668</ele><time>2026-03-22T08:19:00Z</time></trkpt><trkpt lat="38.0569399639772" lon="16.13952449749035"><ele>17.0</ele><time>2026-03-22T08:19:01Z</time></trkpt><trkpt lat="38.0570855056894" lon="16.13948844999667"><ele>17.0</ele><time>2026-03-22T08:19:02Z</time></trkpt><trkpt lat="38.05724373208855" lon="16.13944008161578"><ele>17.0</ele><time>2026-03-22T08:19:03Z</time></trkpt><trkpt lat="38.057388628005164" lon="16.139441211727316"><ele>17.0</ele><time>2026-03-22T08:19:04Z</time></trkpt><trkpt lat="38.05754455139992" lon="16.139419814999666"><ele>15.666666666666668</ele><time>2026-03-22T08:19:05Z</time></trkpt><trkpt lat="38.05771789631243" lon="16.1394404623576"><ele>14.333333333333332</ele><time>2026-03-22T08:19:06Z</time></trkpt><trkpt lat="38.05790105199158" lon="16.139470474754983"><ele>13.0</ele><time>2026-03-22T08:19:07Z</time></trkpt><trkpt lat="38.05809365973022" lon="16.139506066375805"><ele>12.666666666666666</ele><time>2026-03-22T08:19:08Z</time></trkpt><trkpt lat="38.058287153933726" lon="16.139532807153635"><ele>12.333333333333332</ele><time>2026-03-22T08:19:09Z</time></trkpt><trkpt lat="38.05849027030964" lon="16.13956896235301"><ele>12.0</ele><time>2026-03-22T08:19:10Z</time></trkpt><trkpt lat="38.058715128340125" lon="16.139620480605377"><ele>12.0</ele><time>2026-03-22T08:19:11Z</time></trkpt><trkpt lat="38.058936603102815" lon="16.139651500760724"><ele>12.0</ele><time>2026-03-22T08:19:12Z</time></trkpt><trkpt lat="38.059158954359205" lon="16.139686935928527"><ele>12.0</ele><time>2026-03-22T08:19:13Z</time></trkpt><trkpt lat="38.05935798492385" lon="16.139741076023096"><ele>12.333333333333332</ele><time>2026-03-22T08:19:14Z</time></trkpt><trkpt lat="38.059571435844774" lon="16.139779332082735"><ele>12.666666666666666</ele><time>2026-03-22T08:19:15Z</time></trkpt><trkpt lat="38.059772835074455" lon="16.13979799120211"><ele>13.0</ele><time>2026-03-22T08:19:16Z</time></trkpt><trkpt lat="38.05998506089705" lon="16.139786311370948"><ele>13.0</ele><time>2026-03-22T08:19:17Z</time></trkpt><trkpt lat="38.06019040021035" lon="16.139795943190528"><ele>13.0</ele><time>2026-03-22T08:19:18Z</time></trkpt><trkpt lat="38.06038777565342" lon="16.13979001615535"><ele>13.0</ele><time>2026-03-22T08:19:19Z</time></trkpt><trkpt lat="38.060583242908336" lon="16.139786190437555"><ele>12.666666666666666</ele><time>2026-03-22T08:19:20Z</time></trkpt><trkpt lat="38.06080165425846" lon="16.139794757820997"><ele>12.333333333333332</ele><time>2026-03-22T08:19:21Z</time></trkpt><trkpt lat="38.061016325102536" lon="16.139817094443547"><ele>12.0</ele><time>2026-03-22T08:19:22Z</time></trkpt><trkpt lat="38.061239304036484" lon="16.13985285666831"><ele>11.333333333333334</ele><time>2026-03-22T08:19:23Z</time></trkpt><trkpt lat="38.06145819754971" lon="16.13989344473085"><ele>10.666666666666668</ele><time>2026-03-22T08:19:24Z</time></trkpt><trkpt lat="38.06167943503084" lon="16.139937110043217"><ele>10.0</ele><time>2026-03-22T08:19:25Z</time></trkpt><trkpt lat="38.06190373483165" lon="16.13997785504611"><ele>9.666666666666668</ele><time>2026-03-22T08:19:26Z</time></trkpt><trkpt lat="38.06212622453009" lon="16.1400203234343"><ele>9.333333333333334</ele><time>2026-03-22T08:19:27Z</time></trkpt><trkpt lat="38.062342392212614" lon="16.140061224662208"><ele>9.0</ele><time>2026-03-22T08:19:28Z</time></trkpt><trkpt lat="38.0625575937345" lon="16.14010233483262"><ele>9.666666666666666</ele><time>2026-03-22T08:19:29Z</time></trkpt><trkpt lat="38.06277208266198" lon="16.140143308907994"><ele>10.333333333333332</ele><time>2026-03-22T08:19:30Z</time></trkpt><trkpt lat="38.0629839231183" lon="16.14018351877926"><ele>11.0</ele><time>2026-03-22T08:19:31Z</time></trkpt><trkpt lat="38.06319522321564" lon="16.140209495463214"><ele>10.333333333333332</ele><time>2026-03-22T08:19:32Z</time></trkpt><trkpt lat="38.06340841151464" lon="16.140256924580857"><ele>9.666666666666666</ele><time>2026-03-22T08:19:33Z</time></trkpt><trkpt lat="38.06362299480531" lon="16.14029558541901"><ele>9.0</ele><time>2026-03-22T08:19:34Z</time></trkpt><trkpt lat="38.06383527095559" lon="16.140332606597884"><ele>9.0</ele><time>2026-03-22T08:19:35Z</time></trkpt><trkpt lat="38.06404521359452" lon="16.140371896939072"><ele>9.0</ele><time>2026-03-22T08:19:36Z</time></trkpt><trkpt lat="38.06425524659718" lon="16.140415522448993"><ele>9.0</ele><time>2026-03-22T08:19:37Z</time></trkpt><trkpt lat="38.06446334984213" lon="16.14046175286744"><ele>9.666666666666666</ele><time>2026-03-22T08:19:38Z</time></trkpt><trkpt lat="38.06466788700921" lon="16.14051204330055"><ele>10.333333333333332</ele><time>2026-03-22T08:19:39Z</time></trkpt><trkpt lat="38.06487784574057" lon="16.140571798041428"><ele>11.0</ele><time>2026-03-22T08:19:40Z</time></trkpt><trkpt lat="38.06509075007458" lon="16.140631627252226"><ele>10.5</ele><time>2026-03-22T08:19:41Z</time></trkpt><trkpt lat="38.06531026061784" lon="16.14069760920987"><ele>10.0</ele><time>2026-03-22T08:19:42Z</time></trkpt><trkpt lat="38.06553345158783" lon="16.14076428239876"><ele>10.0</ele><time>2026-03-22T08:19:43Z</time></trkpt><trkpt lat="38.06575358101877" lon="16.140836031861685"><ele>10.0</ele><time>2026-03-22T08:19:44Z</time></trkpt><trkpt lat="38.06597891364548" lon="16.140900088445562"><ele>11.0</ele><time>2026-03-22T08:19:45Z</time></trkpt><trkpt lat="38.0662039246223" lon="16.14096870742212"><ele>12.0</ele><time>2026-03-22T08:19:46Z</time></trkpt><trkpt lat="38.06643055893722" lon="16.14103851571434"><ele>13.0</ele><time>2026-03-22T08:19:47Z</time></trkpt><trkpt lat="38.06665591733999" lon="16.141111267805197"><ele>14.0</ele><time>2026-03-22T08:19:48Z</time></trkpt><trkpt lat="38.066885900129066" lon="16.141183333440143"><ele>14.0</ele><time>2026-03-22T08:19:49Z</time></trkpt><trkpt lat="38.067113751754405" lon="16.141255656186"><ele>14.0</ele><time>2026-03-22T08:19:50Z</time></trkpt><trkpt lat="38.067343907621336" lon="16.141325483825177"><ele>18.0</ele><time>2026-03-22T08:19:51Z</time></trkpt><trkpt lat="38.0675730280841" lon="16.141389359361376"><ele>22.0</ele><time>2026-03-22T08:19:52Z</time></trkpt><trkpt lat="38.067798591386996" lon="16.14147586338198"><ele>22.0</ele><time>2026-03-22T08:19:53Z</time></trkpt><trkpt lat="38.06802680844041" lon="16.141546258352193"><ele>22.0</ele><time>2026-03-22T08:19:54Z</time></trkpt><trkpt lat="38.068255103059954" lon="16.14161636410216"><ele>20.5</ele><time>2026-03-22T08:19:55Z</time></trkpt><trkpt lat="38.06848463141976" lon="16.141686478282846"><ele>19.0</ele><time>2026-03-22T08:19:56Z</time></trkpt><trkpt lat="38.06871609104296" lon="16.141735779365206"><ele>19.0</ele><time>2026-03-22T08:19:57Z</time></trkpt><trkpt lat="38.06894554879516" lon="16.141807408458394"><ele>19.0</ele><time>2026-03-22T08:19:58Z</time></trkpt><trkpt lat="38.0691739724801" lon="16.14188038411569"><ele>19.5</ele><time>2026-03-22T08:19:59Z</time></trkpt><trkpt lat="38.069405128719474" lon="16.14194861091116"><ele>20.0</ele><time>2026-03-22T08:20:00Z</time></trkpt><trkpt lat="38.069636548699805" lon="16.142017718936895"><ele>20.0</ele><time>2026-03-22T08:20:01Z</time></trkpt><trkpt lat="38.069869329276784" lon="16.142086022851306"><ele>20.0</ele><time>2026-03-22T08:20:02Z</time></trkpt><trkpt lat="38.07009880231061" lon="16.142148343151785"><ele>21.5</ele><time>2026-03-22T08:20:03Z</time></trkpt><trkpt lat="38.07032937196469" lon="16.142208914211725"><ele>23.0</ele><time>2026-03-22T08:20:04Z</time></trkpt><trkpt lat="38.070558796573984" lon="16.14226623025554"><ele>23.5</ele><time>2026-03-22T08:20:05Z</time></trkpt><trkpt lat="38.07079004557587" lon="16.142324042858114"><ele>24.0</ele><time>2026-03-22T08:20:06Z</time></trkpt><trkpt lat="38.071016371685005" lon="16.142381181781303"><ele>22.5</ele><time>2026-03-22T08:20:07Z</time></trkpt><trkpt lat="38.071243126656995" lon="16.14243505531452"><ele>21.0</ele><time>2026-03-22T08:20:08Z</time></trkpt><trkpt lat="38.07146973491434" lon="16.14249032035817"><ele>19.5</ele><time>2026-03-22T08:20:09Z</time></trkpt><trkpt lat="38.07169355083252" lon="16.14254711079049"><ele>18.0</ele><time>2026-03-22T08:20:10Z</time></trkpt><trkpt lat="38.07191847289064" lon="16.14260830844976"><ele>18.0</ele><time>2026-03-22T08:20:11Z</time></trkpt><trkpt lat="38.07214464871948" lon="16.14267038781108"><ele>18.0</ele><time>2026-03-22T08:20:12Z</time></trkpt><trkpt lat="38.07237165363702" lon="16.142727708330774"><ele>19.5</ele><time>2026-03-22T08:20:13Z</time></trkpt><trkpt lat="38.072596708500534" lon="16.142780435926554"><ele>21.0</ele><time>2026-03-22T08:20:14Z</time></trkpt><trkpt lat="38.072822891876584" lon="16.14284078997819"><ele>21.0</ele><time>2026-03-22T08:20:15Z</time></trkpt><trkpt lat="38.07304760861997" lon="16.142904038361433"><ele>21.0</ele><time>2026-03-22T08:20:16Z</time></trkpt><trkpt lat="38.07327653771575" lon="16.14296987629438"><ele>24.0</ele><time>2026-03-22T08:20:17Z</time></trkpt><trkpt lat="38.073499987415204" lon="16.143028920442774"><ele>27.0</ele><time>2026-03-22T08:20:18Z</time></trkpt><trkpt lat="38.07372658964188" lon="16.14308803829326"><ele>27.0</ele><time>2026-03-22T08:20:19Z</time></trkpt><trkpt lat="38.0739486345118" lon="16.143142565362304"><ele>27.0</ele><time>2026-03-22T08:20:20Z</time></trkpt><trkpt lat="38.07417337292889" lon="16.143196198606464"><ele>24.0</ele><time>2026-03-22T08:20:21Z</time></trkpt><trkpt lat="38.07440369166547" lon="16.14325147088049"><ele>21.0</ele><time>2026-03-22T08:20:22Z</time></trkpt><trkpt lat="38.07463830351715" lon="16.143311440980668"><ele>21.0</ele><time>2026-03-22T08:20:23Z</time></trkpt><trkpt lat="38.074872326484254" lon="16.143376044865132"><ele>21.0</ele><time>2026-03-22T08:20:24Z</time></trkpt><trkpt lat="38.0751010490775" lon="16.143437715556384"><ele>21.5</ele><time>2026-03-22T08:20:25Z</time></trkpt><trkpt lat="38.075329415040486" lon="16.14349999609368"><ele>22.0</ele><time>2026-03-22T08:20:26Z</time></trkpt><trkpt lat="38.075553678692586" lon="16.1435610359699"><ele>23.5</ele><time>2026-03-22T08:20:27Z</time></trkpt><trkpt lat="38.075781559672684" lon="16.143629302185882"><ele>25.0</ele><time>2026-03-22T08:20:28Z</time></trkpt><trkpt lat="38.07603333289854" lon="16.143692698911913"><ele>25.0</ele><time>2026-03-22T08:20:29Z</time></trkpt><trkpt lat="38.07626874635784" lon="16.143748952884547"><ele>25.0</ele><time>2026-03-22T08:20:30Z</time></trkpt><trkpt lat="38.07651831678556" lon="16.14380846570768"><ele>24.5</ele><time>2026-03-22T08:20:31Z</time></trkpt><trkpt lat="38.07676641850418" lon="16.143876491274877"><ele>24.0</ele><time>2026-03-22T08:20:32Z</time></trkpt><trkpt lat="38.07701199250703" lon="16.143942115374955"><ele>24.0</ele><time>2026-03-22T08:20:33Z</time></trkpt><trkpt lat="38.07724622574673" lon="16.144003564086834"><ele>24.0</ele><time>2026-03-22T08:20:34Z</time></trkpt><trkpt lat="38.077485116176874" lon="16.144056845377634"><ele>22.5</ele><time>2026-03-22T08:20:35Z</time></trkpt><trkpt lat="38.07771595363162" lon="16.144109400094493"><ele>21.0</ele><time>2026-03-22T08:20:36Z</time></trkpt><trkpt lat="38.077931264834305" lon="16.14416330311653"><ele>21.0</ele><time>2026-03-22T08:20:37Z</time></trkpt><trkpt lat="38.078142295146755" lon="16.14421838933249"><ele>21.0</ele><time>2026-03-22T08:20:38Z</time></trkpt><trkpt lat="38.07833204577839" lon="16.14426678308607"><ele>21.0</ele><time>2026-03-22T08:20:39Z</time></trkpt><trkpt lat="38.078525416917714" lon="16.14432728896282"><ele>21.666666666666668</ele><time>2026-03-22T08:20:40Z</time></trkpt><trkpt lat="38.07870534858024" lon="16.144414778234587"><ele>22.333333333333336</ele><time>2026-03-22T08:20:41Z</time></trkpt><trkpt lat="38.0788734566518" lon="16.14452131074954"><ele>23.0</ele><time>2026-03-22T08:20:42Z</time></trkpt><trkpt lat="38.079036969996125" lon="16.144643143245116"><ele>25.0</ele><time>2026-03-22T08:20:43Z</time></trkpt><trkpt lat="38.07920518217779" lon="16.14478007341585"><ele>27.0</ele><time>2026-03-22T08:20:44Z</time></trkpt><trkpt lat="38.07937829169675" lon="16.144923960849596"><ele>29.0</ele><time>2026-03-22T08:20:45Z</time></trkpt><trkpt lat="38.07956170687581" lon="16.145071853035706"><ele>26.0</ele><time>2026-03-22T08:20:46Z</time></trkpt><trkpt lat="38.0797449897673" lon="16.145229708676215"><ele>23.0</ele><time>2026-03-22T08:20:47Z</time></trkpt><trkpt lat="38.079929376614885" lon="16.145393445037726"><ele>20.0</ele><time>2026-03-22T08:20:48Z</time></trkpt><trkpt lat="38.08011408833509" lon="16.145563018856443"><ele>15.5</ele><time>2026-03-22T08:20:49Z</time></trkpt><trkpt lat="38.08030168315679" lon="16.145720280317157"><ele>11.0</ele><time>2026-03-22T08:20:50Z</time></trkpt><trkpt lat="38.080490173027734" lon="16.14589903357911"><ele>11.0</ele><time>2026-03-22T08:20:51Z</time></trkpt><trkpt lat="38.08068178616712" lon="16.146068211040042"><ele>11.0</ele><time>2026-03-22T08:20:52Z</time></trkpt><trkpt lat="38.08085645404319" lon="16.146242571510136"><ele>10.0</ele><time>2026-03-22T08:20:53Z</time></trkpt><trkpt lat="38.08104418227327" lon="16.146410859248373"><ele>9.0</ele><time>2026-03-22T08:20:54Z</time></trkpt><trkpt lat="38.0812319399095" lon="16.146582229843123"><ele>9.0</ele><time>2026-03-22T08:20:55Z</time></trkpt><trkpt lat="38.08140157812676" lon="16.146770574867464"><ele>9.0</ele><time>2026-03-22T08:20:56Z</time></trkpt><trkpt lat="38.08158331708491" lon="16.146947700493698"><ele>9.0</ele><time>2026-03-22T08:20:57Z</time></trkpt><trkpt lat="38.081773004425905" lon="16.1471186688268"><ele>9.0</ele><time>2026-03-22T08:20:58Z</time></trkpt><trkpt lat="38.081946535625534" lon="16.147298214987604"><ele>10.0</ele><time>2026-03-22T08:20:59Z</time></trkpt><trkpt lat="38.082149432545734" lon="16.147501429133285"><ele>11.0</ele><time>2026-03-22T08:21:00Z</time></trkpt><trkpt lat="38.082334051922345" lon="16.14765942076289"><ele>10.666666666666666</ele><time>2026-03-22T08:21:01Z</time></trkpt><trkpt lat="38.08249880612497" lon="16.147826420237468"><ele>10.333333333333334</ele><time>2026-03-22T08:21:02Z</time></trkpt><trkpt lat="38.08267194092486" lon="16.148004134405696"><ele>10.0</ele><time>2026-03-22T08:21:03Z</time></trkpt><trkpt lat="38.082844570176675" lon="16.148173881737325"><ele>10.0</ele><time>2026-03-22T08:21:04Z</time></trkpt><trkpt lat="38.0830077467619" lon="16.148331526345604"><ele>10.0</ele><time>2026-03-22T08:21:05Z</time></trkpt><trkpt lat="38.083178688190074" lon="16.14850224079804"><ele>10.0</ele><time>2026-03-22T08:21:06Z</time></trkpt><trkpt lat="38.08333557122845" lon="16.148662981636477"><ele>10.0</ele><time>2026-03-22T08:21:07Z</time></trkpt><trkpt lat="38.08348470979568" lon="16.148811846075883"><ele>10.0</ele><time>2026-03-22T08:21:08Z</time></trkpt><trkpt lat="38.0836347912532" lon="16.148960298736398"><ele>10.0</ele><time>2026-03-22T08:21:09Z</time></trkpt><trkpt lat="38.083791373026045" lon="16.14910727282784"><ele>10.0</ele><time>2026-03-22T08:21:10Z</time></trkpt><trkpt lat="38.08394806912648" lon="16.149263928502293"><ele>10.0</ele><time>2026-03-22T08:21:11Z</time></trkpt><trkpt lat="38.084100350371" lon="16.149412134182988"><ele>10.0</ele><time>2026-03-22T08:21:12Z</time></trkpt><trkpt lat="38.08424404691692" lon="16.149552963901172"><ele>10.0</ele><time>2026-03-22T08:21:13Z</time></trkpt><trkpt lat="38.08438653923367" lon="16.149692411204374"><ele>10.0</ele><time>2026-03-22T08:21:14Z</time></trkpt><trkpt lat="38.08452864213905" lon="16.14983141807336"><ele>10.0</ele><time>2026-03-22T08:21:15Z</time></trkpt><trkpt lat="38.0846986725617" lon="16.149896028570133"><ele>10.0</ele><time>2026-03-22T08:21:16Z</time></trkpt><trkpt lat="38.084829294479775" lon="16.1500184136214"><ele>10.0</ele><time>2026-03-22T08:21:17Z</time></trkpt><trkpt lat="38.0849584160982" lon="16.150146598468314"><ele>10.0</ele><time>2026-03-22T08:21:18Z</time></trkpt><trkpt lat="38.08507484109647" lon="16.150303286915463"><ele>10.0</ele><time>2026-03-22T08:21:19Z</time></trkpt><trkpt lat="38.08518151221569" lon="16.150467491609255"><ele>10.0</ele><time>2026-03-22T08:21:20Z</time></trkpt><trkpt lat="38.08530131581447" lon="16.15056494511673"><ele>10.0</ele><time>2026-03-22T08:21:21Z</time></trkpt><trkpt lat="38.0853998397461" lon="16.1506798135035"><ele>10.0</ele><time>2026-03-22T08:21:22Z</time></trkpt><trkpt lat="38.08550408973132" lon="16.15078123442935"><ele>10.0</ele><time>2026-03-22T08:21:23Z</time></trkpt><trkpt lat="38.08561533561884" lon="16.15088946139601"><ele>10.0</ele><time>2026-03-22T08:21:24Z</time></trkpt><trkpt lat="38.085719292695025" lon="16.150990597366366"><ele>10.0</ele><time>2026-03-22T08:21:25Z</time></trkpt><trkpt lat="38.08582015956479" lon="16.151088726983357"><ele>10.0</ele><time>2026-03-22T08:21:26Z</time></trkpt><trkpt lat="38.085919152871234" lon="16.151185033780727"><ele>10.0</ele><time>2026-03-22T08:21:27Z</time></trkpt><trkpt lat="38.086014806067084" lon="16.151276332165292"><ele>10.0</ele><time>2026-03-22T08:21:28Z</time></trkpt><trkpt lat="38.08611105989755" lon="16.151364055188758"><ele>10.0</ele><time>2026-03-22T08:21:29Z</time></trkpt><trkpt lat="38.08621030676045" lon="16.15145209847482"><ele>10.0</ele><time>2026-03-22T08:21:30Z</time></trkpt><trkpt lat="38.08632328737337" lon="16.15154431135594"><ele>10.0</ele><time>2026-03-22T08:21:31Z</time></trkpt><trkpt lat="38.08642811090187" lon="16.151624500120807"><ele>10.0</ele><time>2026-03-22T08:21:32Z</time></trkpt><trkpt lat="38.08652704635976" lon="16.151697079041977"><ele>10.0</ele><time>2026-03-22T08:21:33Z</time></trkpt><trkpt lat="38.08662005936021" lon="16.151762042996303"><ele>10.0</ele><time>2026-03-22T08:21:34Z</time></trkpt><trkpt lat="38.08673168764283" lon="16.15183479905899"><ele>10.25</ele><time>2026-03-22T08:21:35Z</time></trkpt><trkpt lat="38.086856348942355" lon="16.151908100505313"><ele>10.5</ele><time>2026-03-22T08:21:36Z</time></trkpt><trkpt lat="38.08698177788177" lon="16.151976517047643"><ele>10.75</ele><time>2026-03-22T08:21:37Z</time></trkpt><trkpt lat="38.08710583273223" lon="16.152042250513993"><ele>11.0</ele><time>2026-03-22T08:21:38Z</time></trkpt><trkpt lat="38.08724245075341" lon="16.152088853634698"><ele>11.0</ele><time>2026-03-22T08:21:39Z</time></trkpt><trkpt lat="38.08735764455293" lon="16.152131771976755"><ele>11.0</ele><time>2026-03-22T08:21:40Z</time></trkpt><trkpt lat="38.08745922931272" lon="16.152174874317087"><ele>11.0</ele><time>2026-03-22T08:21:41Z</time></trkpt><trkpt lat="38.08754622721821" lon="16.15221768269464"><ele>11.0</ele><time>2026-03-22T08:21:42Z</time></trkpt><trkpt lat="38.08762224331041" lon="16.152255087461636"><ele>11.0</ele><time>2026-03-22T08:21:43Z</time></trkpt><trkpt lat="38.08769249692218" lon="16.15228938586634"><ele>10.833333333333332</ele><time>2026-03-22T08:21:44Z</time></trkpt><trkpt lat="38.087756366268366" lon="16.152320745825868"><ele>10.666666666666666</ele><time>2026-03-22T08:21:45Z</time></trkpt><trkpt lat="38.08782875992957" lon="16.152357102112436"><ele>10.5</ele><time>2026-03-22T08:21:46Z</time></trkpt><trkpt lat="38.087923498322546" lon="16.15238925079714"><ele>10.333333333333334</ele><time>2026-03-22T08:21:48Z</time></trkpt><trkpt lat="38.087999455237096" lon="16.152444279606893"><ele>10.166666666666668</ele><time>2026-03-22T08:21:50Z</time></trkpt><trkpt lat="38.08810586437867" lon="16.152475786302546"><ele>10.0</ele><time>2026-03-22T08:21:52Z</time></trkpt><trkpt lat="38.08817412030935" lon="16.152494854792728"><ele>10.0</ele><time>2026-03-22T08:21:53Z</time></trkpt><trkpt lat="38.088247825256275" lon="16.15253830970602"><ele>10.0</ele><time>2026-03-22T08:21:54Z</time></trkpt><trkpt lat="38.08834118642335" lon="16.15256661378967"><ele>10.0</ele><time>2026-03-22T08:21:55Z</time></trkpt><trkpt lat="38.08844180178857" lon="16.15259640552474"><ele>10.0</ele><time>2026-03-22T08:21:56Z</time></trkpt><trkpt lat="38.08854229843778" lon="16.15261566996049"><ele>10.0</ele><time>2026-03-22T08:21:57Z</time></trkpt><trkpt lat="38.08863677706376" lon="16.152639760364"><ele>10.0</ele><time>2026-03-22T08:21:58Z</time></trkpt><trkpt lat="38.08872280114927" lon="16.152678418229762"><ele>10.0</ele><time>2026-03-22T08:21:59Z</time></trkpt><trkpt lat="38.088801448272825" lon="16.1526874321237"><ele>10.0</ele><time>2026-03-22T08:22:00Z</time></trkpt><trkpt lat="38.088889145114806" lon="16.152709989203437"><ele>10.0</ele><time>2026-03-22T08:22:01Z</time></trkpt><trkpt lat="38.08895763490415" lon="16.15276315004374"><ele>10.0</ele><time>2026-03-22T08:22:02Z</time></trkpt><trkpt lat="38.08903475892364" lon="16.152799973299047"><ele>10.0</ele><time>2026-03-22T08:22:03Z</time></trkpt><trkpt lat="38.0891190368464" lon="16.15282811476591"><ele>10.0</ele><time>2026-03-22T08:22:04Z</time></trkpt><trkpt lat="38.08921925562998" lon="16.152851124360883"><ele>10.0</ele><time>2026-03-22T08:22:05Z</time></trkpt><trkpt lat="38.08933183956008" lon="16.152875752988532"><ele>10.0</ele><time>2026-03-22T08:22:06Z</time></trkpt><trkpt lat="38.08945688127904" lon="16.152902836153775"><ele>10.0</ele><time>2026-03-22T08:22:07Z</time></trkpt><trkpt lat="38.089590406592365" lon="16.152939202899965"><ele>10.0</ele><time>2026-03-22T08:22:08Z</time></trkpt><trkpt lat="38.08972591022424" lon="16.1529763809745"><ele>10.0</ele><time>2026-03-22T08:22:09Z</time></trkpt><trkpt lat="38.089869956052105" lon="16.153027355116976"><ele>10.0</ele><time>2026-03-22T08:22:10Z</time></trkpt><trkpt lat="38.09001534704999" lon="16.153072313718663"><ele>10.0</ele><time>2026-03-22T08:22:11Z</time></trkpt><trkpt lat="38.09016655948933" lon="16.15312954233932"><ele>9.333333333333334</ele><time>2026-03-22T08:22:12Z</time></trkpt><trkpt lat="38.09031278191919" lon="16.153184032231994"><ele>8.666666666666666</ele><time>2026-03-22T08:22:13Z</time></trkpt><trkpt lat="38.090461319944495" lon="16.153220445425607"><ele>8.0</ele><time>2026-03-22T08:22:14Z</time></trkpt><trkpt lat="38.09062145281963" lon="16.153251120015604"><ele>7.333333333333333</ele><time>2026-03-22T08:22:15Z</time></trkpt><trkpt lat="38.09078193917161" lon="16.153288570953976"><ele>6.666666666666666</ele><time>2026-03-22T08:22:16Z</time></trkpt><trkpt lat="38.09093662475187" lon="16.15332753895534"><ele>6.0</ele><time>2026-03-22T08:22:17Z</time></trkpt><trkpt lat="38.09109368797698" lon="16.153379684568232"><ele>6.0</ele><time>2026-03-22T08:22:18Z</time></trkpt><trkpt lat="38.09125014945994" lon="16.15343327589001"><ele>6.0</ele><time>2026-03-22T08:22:19Z</time></trkpt><trkpt lat="38.09140778540999" lon="16.153495549943568"><ele>6.0</ele><time>2026-03-22T08:22:20Z</time></trkpt><trkpt lat="38.09156143271671" lon="16.15354020597595"><ele>6.666666666666666</ele><time>2026-03-22T08:22:21Z</time></trkpt><trkpt lat="38.09172560622461" lon="16.153576291496737"><ele>7.333333333333333</ele><time>2026-03-22T08:22:22Z</time></trkpt><trkpt lat="38.09189155513901" lon="16.153623187867343"><ele>8.0</ele><time>2026-03-22T08:22:23Z</time></trkpt><trkpt lat="38.092055170207075" lon="16.153672542551856"><ele>8.0</ele><time>2026-03-22T08:22:24Z</time></trkpt><trkpt lat="38.092215245726244" lon="16.153733467470982"><ele>8.0</ele><time>2026-03-22T08:22:25Z</time></trkpt><trkpt lat="38.09238301128454" lon="16.153785255052878"><ele>8.0</ele><time>2026-03-22T08:22:26Z</time></trkpt><trkpt lat="38.09256405185698" lon="16.153841140495974"><ele>8.333333333333332</ele><time>2026-03-22T08:22:27Z</time></trkpt><trkpt lat="38.09274310495133" lon="16.153897117921478"><ele>8.666666666666666</ele><time>2026-03-22T08:22:28Z</time></trkpt><trkpt lat="38.09292112953812" lon="16.153952933200753"><ele>9.0</ele><time>2026-03-22T08:22:29Z</time></trkpt><trkpt lat="38.09309554306252" lon="16.154008265792914"><ele>8.333333333333334</ele><time>2026-03-22T08:22:30Z</time></trkpt><trkpt lat="38.09326955983611" lon="16.154063999479472"><ele>7.666666666666667</ele><time>2026-03-22T08:22:31Z</time></trkpt><trkpt lat="38.09348319245845" lon="16.154129970534896"><ele>7.0</ele><time>2026-03-22T08:22:32Z</time></trkpt><trkpt lat="38.09366654727363" lon="16.154170400868345"><ele>7.0</ele><time>2026-03-22T08:22:33Z</time></trkpt><trkpt lat="38.093819542781624" lon="16.154222492250174"><ele>7.0</ele><time>2026-03-22T08:22:34Z</time></trkpt><trkpt lat="38.09400976408378" lon="16.15424753548842"><ele>7.0</ele><time>2026-03-22T08:22:35Z</time></trkpt><trkpt lat="38.09419662595846" lon="16.15432149606408"><ele>7.333333333333334</ele><time>2026-03-22T08:22:36Z</time></trkpt><trkpt lat="38.09436902728014" lon="16.15438003536369"><ele>7.666666666666666</ele><time>2026-03-22T08:22:37Z</time></trkpt><trkpt lat="38.09454516308605" lon="16.154441178437473"><ele>8.0</ele><time>2026-03-22T08:22:38Z</time></trkpt><trkpt lat="38.09472522022578" lon="16.154499355121132"><ele>8.0</ele><time>2026-03-22T08:22:39Z</time></trkpt><trkpt lat="38.09490670596196" lon="16.154557065367577"><ele>8.0</ele><time>2026-03-22T08:22:40Z</time></trkpt><trkpt lat="38.09509201030252" lon="16.154613757407756"><ele>8.0</ele><time>2026-03-22T08:22:41Z</time></trkpt><trkpt lat="38.095274880300074" lon="16.154673162584952"><ele>8.0</ele><time>2026-03-22T08:22:42Z</time></trkpt><trkpt lat="38.0954576555014" lon="16.15473098172883"><ele>8.0</ele><time>2026-03-22T08:22:43Z</time></trkpt><trkpt lat="38.095645367913356" lon="16.15478725748877"><ele>8.0</ele><time>2026-03-22T08:22:44Z</time></trkpt><trkpt lat="38.09583072482844" lon="16.154846063155187"><ele>7.333333333333333</ele><time>2026-03-22T08:22:45Z</time></trkpt><trkpt lat="38.09601477766073" lon="16.154908281748316"><ele>6.666666666666666</ele><time>2026-03-22T08:22:46Z</time></trkpt><trkpt lat="38.09620086688108" lon="16.15496825810529"><ele>6.0</ele><time>2026-03-22T08:22:47Z</time></trkpt><trkpt lat="38.09638339805649" lon="16.155033222502723"><ele>6.0</ele><time>2026-03-22T08:22:48Z</time></trkpt><trkpt lat="38.09656250245511" lon="16.15509586860761"><ele>6.0</ele><time>2026-03-22T08:22:49Z</time></trkpt><trkpt lat="38.09673823950135" lon="16.155146912148712"><ele>6.0</ele><time>2026-03-22T08:22:50Z</time></trkpt><trkpt lat="38.096910444263884" lon="16.155203927840468"><ele>6.666666666666666</ele><time>2026-03-22T08:22:51Z</time></trkpt><trkpt lat="38.09709164619804" lon="16.155273327824656"><ele>7.333333333333333</ele><time>2026-03-22T08:22:52Z</time></trkpt><trkpt lat="38.097263351233735" lon="16.15533681995881"><ele>8.0</ele><time>2026-03-22T08:22:53Z</time></trkpt><trkpt lat="38.09744586724578" lon="16.155396520268102"><ele>8.0</ele><time>2026-03-22T08:22:54Z</time></trkpt><trkpt lat="38.09760434245835" lon="16.155433594360762"><ele>8.0</ele><time>2026-03-22T08:22:55Z</time></trkpt><trkpt lat="38.09777396963399" lon="16.15548248993384"><ele>8.0</ele><time>2026-03-22T08:22:56Z</time></trkpt><trkpt lat="38.09810025576837" lon="16.155608475574923"><ele>8.0</ele><time>2026-03-22T08:22:58Z</time></trkpt><trkpt lat="38.09827100320872" lon="16.155649238383518"><ele>8.0</ele><time>2026-03-22T08:22:59Z</time></trkpt><trkpt lat="38.098443357503456" lon="16.155690349217384"><ele>8.0</ele><time>2026-03-22T08:23:00Z</time></trkpt><trkpt lat="38.098606187435664" lon="16.155740358604316"><ele>7.666666666666666</ele><time>2026-03-22T08:23:01Z</time></trkpt><trkpt lat="38.0987789898363" lon="16.155785941481042"><ele>7.333333333333334</ele><time>2026-03-22T08:23:02Z</time></trkpt><trkpt lat="38.098962618701115" lon="16.155829696905734"><ele>7.0</ele><time>2026-03-22T08:23:03Z</time></trkpt><trkpt lat="38.09913678802321" lon="16.155890076509436"><ele>6.666666666666667</ele><time>2026-03-22T08:23:04Z</time></trkpt><trkpt lat="38.09930101806521" lon="16.15595400969712"><ele>6.333333333333334</ele><time>2026-03-22T08:23:05Z</time></trkpt><trkpt lat="38.099461667080455" lon="16.15601566268873"><ele>6.0</ele><time>2026-03-22T08:23:06Z</time></trkpt><trkpt lat="38.09962034274992" lon="16.15606619577897"><ele>6.0</ele><time>2026-03-22T08:23:07Z</time></trkpt><trkpt lat="38.09976138922184" lon="16.15612024438905"><ele>6.0</ele><time>2026-03-22T08:23:08Z</time></trkpt><trkpt lat="38.09990266082573" lon="16.156171982576172"><ele>6.0</ele><time>2026-03-22T08:23:09Z</time></trkpt><trkpt lat="38.10003983875417" lon="16.156190338493612"><ele>6.0</ele><time>2026-03-22T08:23:10Z</time></trkpt><trkpt lat="38.10016279920209" lon="16.156227924797694"><ele>6.25</ele><time>2026-03-22T08:23:11Z</time></trkpt><trkpt lat="38.100285006834504" lon="16.156285571324425"><ele>6.5</ele><time>2026-03-22T08:23:12Z</time></trkpt><trkpt lat="38.10040331396575" lon="16.15635389116551"><ele>6.75</ele><time>2026-03-22T08:23:13Z</time></trkpt><trkpt lat="38.100526925484836" lon="16.156402951563603"><ele>7.0</ele><time>2026-03-22T08:23:14Z</time></trkpt><trkpt lat="38.10064560203609" lon="16.15643674968672"><ele>7.0</ele><time>2026-03-22T08:23:15Z</time></trkpt><trkpt lat="38.10078455332848" lon="16.15647413876561"><ele>7.0</ele><time>2026-03-22T08:23:16Z</time></trkpt><trkpt lat="38.100925011806375" lon="16.156505986860896"><ele>7.0</ele><time>2026-03-22T08:23:17Z</time></trkpt><trkpt lat="38.101068120277155" lon="16.15653879905211"><ele>7.0</ele><time>2026-03-22T08:23:18Z</time></trkpt><trkpt lat="38.10122555314797" lon="16.15656839305263"><ele>7.0</ele><time>2026-03-22T08:23:19Z</time></trkpt><trkpt lat="38.10139524028358" lon="16.156594588550604"><ele>7.0</ele><time>2026-03-22T08:23:20Z</time></trkpt><trkpt lat="38.101516597799055" lon="16.15660887575372"><ele>7.0</ele><time>2026-03-22T08:23:21Z</time></trkpt><trkpt lat="38.10163689466923" lon="16.156622668705857"><ele>7.0</ele><time>2026-03-22T08:23:22Z</time></trkpt><trkpt lat="38.10177624358139" lon="16.15663812210802"><ele>7.0</ele><time>2026-03-22T08:23:23Z</time></trkpt><trkpt lat="38.10193067079686" lon="16.156655239450867"><ele>7.0</ele><time>2026-03-22T08:23:24Z</time></trkpt><trkpt lat="38.10211108611016" lon="16.156675237343467"><ele>7.0</ele><time>2026-03-22T08:23:25Z</time></trkpt><trkpt lat="38.10227126381572" lon="16.156691198819153"><ele>6.666666666666667</ele><time>2026-03-22T08:23:26Z</time></trkpt><trkpt lat="38.102432762835015" lon="16.15668422925378"><ele>6.333333333333334</ele><time>2026-03-22T08:23:27Z</time></trkpt><trkpt lat="38.102583725441725" lon="16.15667714121259"><ele>6.0</ele><time>2026-03-22T08:23:28Z</time></trkpt><trkpt lat="38.102734686779705" lon="16.156672445828985"><ele>6.0</ele><time>2026-03-22T08:23:29Z</time></trkpt><trkpt lat="38.10289193338405" lon="16.156686398300426"><ele>6.0</ele><time>2026-03-22T08:23:30Z</time></trkpt><trkpt lat="38.10305228851061" lon="16.15670288132214"><ele>6.0</ele><time>2026-03-22T08:23:31Z</time></trkpt><trkpt lat="38.10320592490188" lon="16.156710948740585"><ele>5.666666666666667</ele><time>2026-03-22T08:23:32Z</time></trkpt><trkpt lat="38.10335789231509" lon="16.15672183897685"><ele>5.333333333333334</ele><time>2026-03-22T08:23:33Z</time></trkpt><trkpt lat="38.10351313889419" lon="16.1567245164395"><ele>5.0</ele><time>2026-03-22T08:23:34Z</time></trkpt><trkpt lat="38.1036757504671" lon="16.156742892065722"><ele>5.0</ele><time>2026-03-22T08:23:35Z</time></trkpt><trkpt lat="38.10383535363468" lon="16.156776336745146"><ele>5.0</ele><time>2026-03-22T08:23:36Z</time></trkpt><trkpt lat="38.10400180184807" lon="16.156795869569226"><ele>5.0</ele><time>2026-03-22T08:23:37Z</time></trkpt><trkpt lat="38.1041627569268" lon="16.15680258147289"><ele>5.666666666666667</ele><time>2026-03-22T08:23:38Z</time></trkpt><trkpt lat="38.1043278352981" lon="16.156822727250443"><ele>6.333333333333334</ele><time>2026-03-22T08:23:39Z</time></trkpt><trkpt lat="38.10449227533081" lon="16.156838983010218"><ele>7.0</ele><time>2026-03-22T08:23:40Z</time></trkpt><trkpt lat="38.1046578939362" lon="16.15685549215974"><ele>7.0</ele><time>2026-03-22T08:23:41Z</time></trkpt><trkpt lat="38.10482082193098" lon="16.156873420709573"><ele>7.0</ele><time>2026-03-22T08:23:42Z</time></trkpt><trkpt lat="38.10498975787837" lon="16.156894848565468"><ele>7.0</ele><time>2026-03-22T08:23:43Z</time></trkpt><trkpt lat="38.10515260858776" lon="16.15691518493651"><ele>7.333333333333334</ele><time>2026-03-22T08:23:44Z</time></trkpt><trkpt lat="38.10531540814803" lon="16.15692977874786"><ele>7.666666666666666</ele><time>2026-03-22T08:23:45Z</time></trkpt><trkpt lat="38.105483642159975" lon="16.15695603702077"><ele>8.0</ele><time>2026-03-22T08:23:46Z</time></trkpt><trkpt lat="38.10565724144806" lon="16.15697882884571"><ele>8.0</ele><time>2026-03-22T08:23:47Z</time></trkpt><trkpt lat="38.105831180270386" lon="16.15701166001922"><ele>8.0</ele><time>2026-03-22T08:23:48Z</time></trkpt><trkpt lat="38.10600679436213" lon="16.157029247430795"><ele>8.0</ele><time>2026-03-22T08:23:49Z</time></trkpt><trkpt lat="38.106187286194526" lon="16.157052984462663"><ele>8.0</ele><time>2026-03-22T08:23:50Z</time></trkpt><trkpt lat="38.10636229085558" lon="16.15707504970067"><ele>8.0</ele><time>2026-03-22T08:23:51Z</time></trkpt><trkpt lat="38.10653177711015" lon="16.157091073427086"><ele>8.0</ele><time>2026-03-22T08:23:52Z</time></trkpt><trkpt lat="38.10670004967527" lon="16.157106376776472"><ele>8.0</ele><time>2026-03-22T08:23:53Z</time></trkpt><trkpt lat="38.106875172687715" lon="16.157133823963274"><ele>8.0</ele><time>2026-03-22T08:23:54Z</time></trkpt><trkpt lat="38.10704097585258" lon="16.15715613112992"><ele>8.0</ele><time>2026-03-22T08:23:55Z</time></trkpt><trkpt lat="38.107212972028954" lon="16.157186466543312"><ele>8.0</ele><time>2026-03-22T08:23:56Z</time></trkpt><trkpt lat="38.107378552777405" lon="16.157206242645795"><ele>8.0</ele><time>2026-03-22T08:23:57Z</time></trkpt><trkpt lat="38.10754437216481" lon="16.157227492557695"><ele>8.0</ele><time>2026-03-22T08:23:58Z</time></trkpt><trkpt lat="38.107717572463926" lon="16.15724812973653"><ele>8.0</ele><time>2026-03-22T08:23:59Z</time></trkpt><trkpt lat="38.107881270489884" lon="16.157266404934507"><ele>8.0</ele><time>2026-03-22T08:24:00Z</time></trkpt><trkpt lat="38.10804843926597" lon="16.15728065683383"><ele>8.0</ele><time>2026-03-22T08:24:01Z</time></trkpt><trkpt lat="38.10821915907521" lon="16.15729828862254"><ele>8.666666666666666</ele><time>2026-03-22T08:24:02Z</time></trkpt><trkpt lat="38.108380831444606" lon="16.157314568442732"><ele>9.333333333333334</ele><time>2026-03-22T08:24:03Z</time></trkpt><trkpt lat="38.108544641215445" lon="16.157336003909887"><ele>10.0</ele><time>2026-03-22T08:24:04Z</time></trkpt><trkpt lat="38.10871867350873" lon="16.15736031892868"><ele>10.0</ele><time>2026-03-22T08:24:05Z</time></trkpt><trkpt lat="38.10889338612083" lon="16.157390827610715"><ele>10.0</ele><time>2026-03-22T08:24:06Z</time></trkpt><trkpt lat="38.10906560556028" lon="16.15741361438798"><ele>10.0</ele><time>2026-03-22T08:24:07Z</time></trkpt><trkpt lat="38.10924280390469" lon="16.1574412853502"><ele>10.0</ele><time>2026-03-22T08:24:08Z</time></trkpt><trkpt lat="38.10941677469694" lon="16.157465001747877"><ele>10.0</ele><time>2026-03-22T08:24:09Z</time></trkpt><trkpt lat="38.10959286580555" lon="16.157479986385823"><ele>10.0</ele><time>2026-03-22T08:24:10Z</time></trkpt><trkpt lat="38.10976626568301" lon="16.157502670487666"><ele>9.333333333333334</ele><time>2026-03-22T08:24:11Z</time></trkpt><trkpt lat="38.10993688986147" lon="16.157520885338155"><ele>8.666666666666666</ele><time>2026-03-22T08:24:12Z</time></trkpt><trkpt lat="38.11011545972229" lon="16.157544020202195"><ele>8.0</ele><time>2026-03-22T08:24:13Z</time></trkpt><trkpt lat="38.11029153562022" lon="16.157570368316534"><ele>8.0</ele><time>2026-03-22T08:24:14Z</time></trkpt><trkpt lat="38.110480732397164" lon="16.157609585806163"><ele>8.0</ele><time>2026-03-22T08:24:15Z</time></trkpt><trkpt lat="38.11065075555347" lon="16.15761905305235"><ele>8.0</ele><time>2026-03-22T08:24:16Z</time></trkpt><trkpt lat="38.11082203300337" lon="16.15764060821868"><ele>8.333333333333332</ele><time>2026-03-22T08:24:17Z</time></trkpt><trkpt lat="38.110996980904986" lon="16.15766657538517"><ele>8.666666666666666</ele><time>2026-03-22T08:24:18Z</time></trkpt><trkpt lat="38.1111701808185" lon="16.157683698980502"><ele>9.0</ele><time>2026-03-22T08:24:19Z</time></trkpt><trkpt lat="38.1113402192982" lon="16.157709588446394"><ele>9.0</ele><time>2026-03-22T08:24:20Z</time></trkpt><trkpt lat="38.11151890422855" lon="16.15772967716284"><ele>9.0</ele><time>2026-03-22T08:24:21Z</time></trkpt><trkpt lat="38.11169796991363" lon="16.15777333463682"><ele>9.0</ele><time>2026-03-22T08:24:22Z</time></trkpt><trkpt lat="38.11187810272546" lon="16.157778924819368"><ele>8.666666666666666</ele><time>2026-03-22T08:24:23Z</time></trkpt><trkpt lat="38.1120522640339" lon="16.157804865963442"><ele>8.333333333333332</ele><time>2026-03-22T08:24:24Z</time></trkpt><trkpt lat="38.11222245806104" lon="16.157842269383302"><ele>8.0</ele><time>2026-03-22T08:24:25Z</time></trkpt><trkpt lat="38.11240586423068" lon="16.157853637435778"><ele>7.666666666666666</ele><time>2026-03-22T08:24:26Z</time></trkpt><trkpt lat="38.112584719349314" lon="16.15787890081375"><ele>7.333333333333334</ele><time>2026-03-22T08:24:27Z</time></trkpt><trkpt lat="38.11276296873163" lon="16.157902628814593"><ele>7.0</ele><time>2026-03-22T08:24:28Z</time></trkpt><trkpt lat="38.11293958459743" lon="16.15791548555977"><ele>7.0</ele><time>2026-03-22T08:24:29Z</time></trkpt><trkpt lat="38.11311779821314" lon="16.157959887793414"><ele>7.0</ele><time>2026-03-22T08:24:30Z</time></trkpt><trkpt lat="38.11330133988836" lon="16.157983999166653"><ele>7.0</ele><time>2026-03-22T08:24:31Z</time></trkpt><trkpt lat="38.11348677123713" lon="16.158008358792333"><ele>7.0</ele><time>2026-03-22T08:24:32Z</time></trkpt><trkpt lat="38.11367017868305" lon="16.158032452523443"><ele>7.0</ele><time>2026-03-22T08:24:33Z</time></trkpt><trkpt lat="38.11385759856788" lon="16.158057073368298"><ele>7.0</ele><time>2026-03-22T08:24:34Z</time></trkpt><trkpt lat="38.11404852548297" lon="16.15808268928629"><ele>7.333333333333334</ele><time>2026-03-22T08:24:35Z</time></trkpt><trkpt lat="38.11424156143011" lon="16.158108037694287"><ele>7.666666666666666</ele><time>2026-03-22T08:24:36Z</time></trkpt><trkpt lat="38.114431101707815" lon="16.158132927082622"><ele>8.0</ele><time>2026-03-22T08:24:37Z</time></trkpt><trkpt lat="38.11462551020029" lon="16.15815845572205"><ele>8.0</ele><time>2026-03-22T08:24:38Z</time></trkpt><trkpt lat="38.114822361886425" lon="16.158184299980768"><ele>8.0</ele><time>2026-03-22T08:24:39Z</time></trkpt><trkpt lat="38.11501679183196" lon="16.15820982161711"><ele>8.0</ele><time>2026-03-22T08:24:40Z</time></trkpt><trkpt lat="38.11524104569494" lon="16.158239258082578"><ele>7.666666666666666</ele><time>2026-03-22T08:24:41Z</time></trkpt><trkpt lat="38.11543989612318" lon="16.158265359937534"><ele>7.333333333333334</ele><time>2026-03-22T08:24:42Z</time></trkpt><trkpt lat="38.1156432272645" lon="16.15829205000468"><ele>7.0</ele><time>2026-03-22T08:24:43Z</time></trkpt><trkpt lat="38.11584834860132" lon="16.15831897634129"><ele>7.0</ele><time>2026-03-22T08:24:44Z</time></trkpt><trkpt lat="38.11606106088652" lon="16.158346897789738"><ele>7.0</ele><time>2026-03-22T08:24:45Z</time></trkpt><trkpt lat="38.11627863706044" lon="16.15837545768444"><ele>7.0</ele><time>2026-03-22T08:24:46Z</time></trkpt><trkpt lat="38.11650096023569" lon="16.158404640695117"><ele>7.333333333333334</ele><time>2026-03-22T08:24:47Z</time></trkpt><trkpt lat="38.11672201351629" lon="16.15843365701964"><ele>7.666666666666666</ele><time>2026-03-22T08:24:48Z</time></trkpt><trkpt lat="38.116939070312746" lon="16.15846214872244"><ele>8.0</ele><time>2026-03-22T08:24:49Z</time></trkpt><trkpt lat="38.11715996391669" lon="16.15849114430969"><ele>8.0</ele><time>2026-03-22T08:24:50Z</time></trkpt><trkpt lat="38.11738226675591" lon="16.158521605278057"><ele>8.0</ele><time>2026-03-22T08:24:51Z</time></trkpt><trkpt lat="38.11760330888685" lon="16.158550448114976"><ele>8.0</ele><time>2026-03-22T08:24:52Z</time></trkpt><trkpt lat="38.11781855814235" lon="16.158564708895366"><ele>8.0</ele><time>2026-03-22T08:24:53Z</time></trkpt><trkpt lat="38.118034092281384" lon="16.158600987393754"><ele>8.0</ele><time>2026-03-22T08:24:54Z</time></trkpt><trkpt lat="38.11824498740132" lon="16.15863315149712"><ele>8.0</ele><time>2026-03-22T08:24:55Z</time></trkpt><trkpt lat="38.11846359935216" lon="16.15866020986329"><ele>8.666666666666666</ele><time>2026-03-22T08:24:56Z</time></trkpt><trkpt lat="38.118682766367584" lon="16.158686665404513"><ele>9.333333333333334</ele><time>2026-03-22T08:24:57Z</time></trkpt><trkpt lat="38.118908766822216" lon="16.15871013134771"><ele>10.0</ele><time>2026-03-22T08:24:58Z</time></trkpt><trkpt lat="38.11912694267654" lon="16.158738025440798"><ele>11.0</ele><time>2026-03-22T08:24:59Z</time></trkpt><trkpt lat="38.11935897115853" lon="16.158781582531173"><ele>12.0</ele><time>2026-03-22T08:25:00Z</time></trkpt><trkpt lat="38.1195846297259" lon="16.158811420077036"><ele>12.0</ele><time>2026-03-22T08:25:01Z</time></trkpt><trkpt lat="38.11980949140491" lon="16.158841152250673"><ele>12.0</ele><time>2026-03-22T08:25:02Z</time></trkpt><trkpt lat="38.120041167171586" lon="16.158858996026474"><ele>13.5</ele><time>2026-03-22T08:25:03Z</time></trkpt><trkpt lat="38.120275004799375" lon="16.158911265929028"><ele>15.0</ele><time>2026-03-22T08:25:04Z</time></trkpt><trkpt lat="38.12050469092314" lon="16.15895690672715"><ele>15.0</ele><time>2026-03-22T08:25:05Z</time></trkpt><trkpt lat="38.12072424652674" lon="16.158996626666955"><ele>15.0</ele><time>2026-03-22T08:25:06Z</time></trkpt><trkpt lat="38.12093829931913" lon="16.159037669889194"><ele>15.0</ele><time>2026-03-22T08:25:07Z</time></trkpt><trkpt lat="38.12117682019937" lon="16.15906362907548"><ele>12.0</ele><time>2026-03-22T08:25:08Z</time></trkpt><trkpt lat="38.121416755644375" lon="16.159095185255353"><ele>9.0</ele><time>2026-03-22T08:25:09Z</time></trkpt><trkpt lat="38.12165404817232" lon="16.15911374872561"><ele>9.0</ele><time>2026-03-22T08:25:10Z</time></trkpt><trkpt lat="38.12187565680248" lon="16.15914849690542"><ele>9.0</ele><time>2026-03-22T08:25:11Z</time></trkpt><trkpt lat="38.12212017250132" lon="16.159166741755737"><ele>9.0</ele><time>2026-03-22T08:25:12Z</time></trkpt><trkpt lat="38.12235632217227" lon="16.15920099208614"><ele>9.0</ele><time>2026-03-22T08:25:13Z</time></trkpt><trkpt lat="38.122584643349626" lon="16.159208808529453"><ele>8.5</ele><time>2026-03-22T08:25:14Z</time></trkpt><trkpt lat="38.12282135487841" lon="16.159241934383864"><ele>8.0</ele><time>2026-03-22T08:25:15Z</time></trkpt><trkpt lat="38.12305771866771" lon="16.159270129209432"><ele>7.0</ele><time>2026-03-22T08:25:16Z</time></trkpt><trkpt lat="38.1232865766917" lon="16.15929355869043"><ele>6.0</ele><time>2026-03-22T08:25:17Z</time></trkpt><trkpt lat="38.12350384465759" lon="16.159338673195005"><ele>6.0</ele><time>2026-03-22T08:25:18Z</time></trkpt><trkpt lat="38.12374041208728" lon="16.15935842122992"><ele>6.0</ele><time>2026-03-22T08:25:19Z</time></trkpt><trkpt lat="38.12397123159716" lon="16.15938287910474"><ele>6.333333333333334</ele><time>2026-03-22T08:25:20Z</time></trkpt><trkpt lat="38.12417216963989" lon="16.159427557503022"><ele>6.666666666666667</ele><time>2026-03-22T08:25:21Z</time></trkpt><trkpt lat="38.124391552042525" lon="16.159451336353396"><ele>7.0</ele><time>2026-03-22T08:25:22Z</time></trkpt><trkpt lat="38.12462959551961" lon="16.159465102996922"><ele>7.0</ele><time>2026-03-22T08:25:23Z</time></trkpt><trkpt lat="38.12484626636898" lon="16.159464300358884"><ele>7.0</ele><time>2026-03-22T08:25:24Z</time></trkpt><trkpt lat="38.1250691839707" lon="16.159428650310524"><ele>7.0</ele><time>2026-03-22T08:25:25Z</time></trkpt><trkpt lat="38.12529131781547" lon="16.159400002347056"><ele>7.0</ele><time>2026-03-22T08:25:26Z</time></trkpt><trkpt lat="38.1255091868772" lon="16.159376501254616"><ele>7.0</ele><time>2026-03-22T08:25:27Z</time></trkpt><trkpt lat="38.12572483682275" lon="16.159367495797362"><ele>7.0</ele><time>2026-03-22T08:25:28Z</time></trkpt><trkpt lat="38.12593912095537" lon="16.15934186048878"><ele>6.666666666666667</ele><time>2026-03-22T08:25:29Z</time></trkpt><trkpt lat="38.126156027663804" lon="16.1592998567295"><ele>6.333333333333334</ele><time>2026-03-22T08:25:30Z</time></trkpt><trkpt lat="38.12637341375881" lon="16.159285398054255"><ele>6.0</ele><time>2026-03-22T08:25:31Z</time></trkpt><trkpt lat="38.12659388877241" lon="16.159287100621853"><ele>6.666666666666666</ele><time>2026-03-22T08:25:32Z</time></trkpt><trkpt lat="38.12681432150162" lon="16.15930052524794"><ele>7.333333333333333</ele><time>2026-03-22T08:25:33Z</time></trkpt><trkpt lat="38.12704018459584" lon="16.1593104656758"><ele>8.0</ele><time>2026-03-22T08:25:34Z</time></trkpt><trkpt lat="38.127268316348676" lon="16.159332507826615"><ele>6.5</ele><time>2026-03-22T08:25:35Z</time></trkpt><trkpt lat="38.127495075473924" lon="16.15935580591592"><ele>5.0</ele><time>2026-03-22T08:25:36Z</time></trkpt><trkpt lat="38.127719019011" lon="16.159363622020155"><ele>5.0</ele><time>2026-03-22T08:25:37Z</time></trkpt><trkpt lat="38.12793987606972" lon="16.159397474018093"><ele>5.0</ele><time>2026-03-22T08:25:38Z</time></trkpt><trkpt lat="38.128166008044474" lon="16.15941536769636"><ele>5.0</ele><time>2026-03-22T08:25:39Z</time></trkpt><trkpt lat="38.12839067921087" lon="16.15943409093256"><ele>6.0</ele><time>2026-03-22T08:25:40Z</time></trkpt><trkpt lat="38.12861282500974" lon="16.159459914078365"><ele>7.0</ele><time>2026-03-22T08:25:41Z</time></trkpt><trkpt lat="38.12883919000732" lon="16.1595068853236"><ele>6.5</ele><time>2026-03-22T08:25:42Z</time></trkpt><trkpt lat="38.1290619682867" lon="16.15957792080056"><ele>6.0</ele><time>2026-03-22T08:25:43Z</time></trkpt><trkpt lat="38.12928249208911" lon="16.159654493147382"><ele>6.0</ele><time>2026-03-22T08:25:44Z</time></trkpt><trkpt lat="38.12950787980401" lon="16.15973255994905"><ele>6.0</ele><time>2026-03-22T08:25:45Z</time></trkpt><trkpt lat="38.12972293429309" lon="16.15980865545307"><ele>7.5</ele><time>2026-03-22T08:25:46Z</time></trkpt><trkpt lat="38.12993974495911" lon="16.159887207796945"><ele>9.0</ele><time>2026-03-22T08:25:47Z</time></trkpt><trkpt lat="38.130159219539955" lon="16.15997467309297"><ele>9.0</ele><time>2026-03-22T08:25:48Z</time></trkpt><trkpt lat="38.13038722525291" lon="16.160056754616175"><ele>9.0</ele><time>2026-03-22T08:25:49Z</time></trkpt><trkpt lat="38.130598088849034" lon="16.160168705429555"><ele>8.5</ele><time>2026-03-22T08:25:50Z</time></trkpt><trkpt lat="38.13082180532932" lon="16.16027178450197"><ele>8.0</ele><time>2026-03-22T08:25:51Z</time></trkpt><trkpt lat="38.131027102448016" lon="16.160389969688353"><ele>8.0</ele><time>2026-03-22T08:25:52Z</time></trkpt><trkpt lat="38.13124480522278" lon="16.160507940326283"><ele>8.0</ele><time>2026-03-22T08:25:53Z</time></trkpt><trkpt lat="38.13146061835427" lon="16.160624511681657"><ele>8.5</ele><time>2026-03-22T08:25:54Z</time></trkpt><trkpt lat="38.13166801299942" lon="16.160748072218073"><ele>9.0</ele><time>2026-03-22T08:25:55Z</time></trkpt><trkpt lat="38.13186636499574" lon="16.160877713589752"><ele>9.0</ele><time>2026-03-22T08:25:56Z</time></trkpt><trkpt lat="38.132054439249174" lon="16.16102359654344"><ele>9.0</ele><time>2026-03-22T08:25:57Z</time></trkpt><trkpt lat="38.13223021534723" lon="16.16116219076657"><ele>9.0</ele><time>2026-03-22T08:25:58Z</time></trkpt><trkpt lat="38.1323915297332" lon="16.161299279776436"><ele>9.0</ele><time>2026-03-22T08:25:59Z</time></trkpt><trkpt lat="38.13255598841199" lon="16.161443218892025"><ele>9.0</ele><time>2026-03-22T08:26:00Z</time></trkpt><trkpt lat="38.13273526894951" lon="16.161590398248954"><ele>9.0</ele><time>2026-03-22T08:26:01Z</time></trkpt><trkpt lat="38.13289611580709" lon="16.16174115173259"><ele>9.333333333333334</ele><time>2026-03-22T08:26:02Z</time></trkpt><trkpt lat="38.13307483366661" lon="16.16187380941733"><ele>9.666666666666668</ele><time>2026-03-22T08:26:03Z</time></trkpt><trkpt lat="38.133243023355384" lon="16.16201794025601"><ele>10.0</ele><time>2026-03-22T08:26:04Z</time></trkpt><trkpt lat="38.133427372675555" lon="16.162156045453067"><ele>10.0</ele><time>2026-03-22T08:26:05Z</time></trkpt><trkpt lat="38.133609458220974" lon="16.162297561695095"><ele>10.0</ele><time>2026-03-22T08:26:06Z</time></trkpt><trkpt lat="38.13379514865309" lon="16.162439485794554"><ele>10.0</ele><time>2026-03-22T08:26:07Z</time></trkpt><trkpt lat="38.1339837199754" lon="16.162582000703427"><ele>9.666666666666668</ele><time>2026-03-22T08:26:08Z</time></trkpt><trkpt lat="38.13416682862857" lon="16.162720121693148"><ele>9.333333333333334</ele><time>2026-03-22T08:26:09Z</time></trkpt><trkpt lat="38.134356508259344" lon="16.162856785055602"><ele>9.0</ele><time>2026-03-22T08:26:10Z</time></trkpt><trkpt lat="38.134556916738966" lon="16.162988777123843"><ele>9.0</ele><time>2026-03-22T08:26:11Z</time></trkpt><trkpt lat="38.13477328177555" lon="16.163123204590065"><ele>9.0</ele><time>2026-03-22T08:26:12Z</time></trkpt><trkpt lat="38.13496764583394" lon="16.16328067671272"><ele>8.333333333333334</ele><time>2026-03-22T08:26:13Z</time></trkpt><trkpt lat="38.135165592130214" lon="16.16341788647177"><ele>7.666666666666667</ele><time>2026-03-22T08:26:14Z</time></trkpt><trkpt lat="38.13535729148556" lon="16.163551537726466"><ele>7.0</ele><time>2026-03-22T08:26:15Z</time></trkpt><trkpt lat="38.13554573656771" lon="16.163683025678253"><ele>6.333333333333334</ele><time>2026-03-22T08:26:16Z</time></trkpt><trkpt lat="38.13573402083647" lon="16.163814401418264"><ele>5.666666666666667</ele><time>2026-03-22T08:26:17Z</time></trkpt><trkpt lat="38.135930745943945" lon="16.163951666769027"><ele>5.0</ele><time>2026-03-22T08:26:18Z</time></trkpt><trkpt lat="38.13612225243062" lon="16.164084920222535"><ele>5.0</ele><time>2026-03-22T08:26:19Z</time></trkpt><trkpt lat="38.136313212663836" lon="16.164217705915693"><ele>5.0</ele><time>2026-03-22T08:26:20Z</time></trkpt><trkpt lat="38.13649959533334" lon="16.164347438448523"><ele>5.0</ele><time>2026-03-22T08:26:21Z</time></trkpt><trkpt lat="38.13668578672228" lon="16.164478503686286"><ele>4.333333333333334</ele><time>2026-03-22T08:26:22Z</time></trkpt><trkpt lat="38.13687443401609" lon="16.1646118028579"><ele>3.666666666666667</ele><time>2026-03-22T08:26:23Z</time></trkpt><trkpt lat="38.13705985224338" lon="16.164724446212027"><ele>3.0</ele><time>2026-03-22T08:26:24Z</time></trkpt><trkpt lat="38.137235194046745" lon="16.164856718008153"><ele>3.333333333333333</ele><time>2026-03-22T08:26:25Z</time></trkpt><trkpt lat="38.137408449658885" lon="16.164992148171006"><ele>3.6666666666666665</ele><time>2026-03-22T08:26:26Z</time></trkpt><trkpt lat="38.13756478943335" lon="16.165116955154193"><ele>4.0</ele><time>2026-03-22T08:26:27Z</time></trkpt><trkpt lat="38.13770705183899" lon="16.16522677348719"><ele>4.0</ele><time>2026-03-22T08:26:28Z</time></trkpt><trkpt lat="38.13785982508279" lon="16.165320601791667"><ele>4.0</ele><time>2026-03-22T08:26:29Z</time></trkpt><trkpt lat="38.13800375121345" lon="16.165433278811275"><ele>4.0</ele><time>2026-03-22T08:26:30Z</time></trkpt><trkpt lat="38.13817632332101" lon="16.165466180129066"><ele>4.666666666666666</ele><time>2026-03-22T08:26:31Z</time></trkpt><trkpt lat="38.13833521742443" lon="16.16551177321438"><ele>5.333333333333333</ele><time>2026-03-22T08:26:32Z</time></trkpt><trkpt lat="38.138503173735586" lon="16.165536329252973"><ele>6.0</ele><time>2026-03-22T08:26:33Z</time></trkpt><trkpt lat="38.13867879416434" lon="16.165536574385758"><ele>6.0</ele><time>2026-03-22T08:26:34Z</time></trkpt><trkpt lat="38.13886502489682" lon="16.165598729970547"><ele>6.0</ele><time>2026-03-22T08:26:35Z</time></trkpt><trkpt lat="38.13904893965559" lon="16.165590047918347"><ele>6.0</ele><time>2026-03-22T08:26:36Z</time></trkpt><trkpt lat="38.13924351983738" lon="16.165586186960848"><ele>6.0</ele><time>2026-03-22T08:26:37Z</time></trkpt><trkpt lat="38.13943863975738" lon="16.165582534453844"><ele>6.0</ele><time>2026-03-22T08:26:38Z</time></trkpt><trkpt lat="38.139638148854715" lon="16.165575800575443"><ele>6.0</ele><time>2026-03-22T08:26:39Z</time></trkpt><trkpt lat="38.13983618565665" lon="16.165569770662586"><ele>7.333333333333334</ele><time>2026-03-22T08:26:40Z</time></trkpt><trkpt lat="38.140027063959494" lon="16.16555577277531"><ele>8.666666666666668</ele><time>2026-03-22T08:26:41Z</time></trkpt><trkpt lat="38.140225586467366" lon="16.165552311338438"><ele>10.0</ele><time>2026-03-22T08:26:42Z</time></trkpt><trkpt lat="38.14042083733666" lon="16.16554793048558"><ele>10.0</ele><time>2026-03-22T08:26:43Z</time></trkpt><trkpt lat="38.14060446330462" lon="16.16555501602477"><ele>10.0</ele><time>2026-03-22T08:26:44Z</time></trkpt><trkpt lat="38.14080844967804" lon="16.165590687424597"><ele>10.0</ele><time>2026-03-22T08:26:45Z</time></trkpt><trkpt lat="38.14100038924498" lon="16.165623253930825"><ele>9.666666666666668</ele><time>2026-03-22T08:26:46Z</time></trkpt><trkpt lat="38.14119473583947" lon="16.165706945364555"><ele>9.333333333333334</ele><time>2026-03-22T08:26:47Z</time></trkpt><trkpt lat="38.141378402817736" lon="16.165783996195227"><ele>9.0</ele><time>2026-03-22T08:26:48Z</time></trkpt><trkpt lat="38.14156020446089" lon="16.165867308241438"><ele>9.0</ele><time>2026-03-22T08:26:49Z</time></trkpt><trkpt lat="38.14173433122427" lon="16.165970294264245"><ele>9.0</ele><time>2026-03-22T08:26:50Z</time></trkpt><trkpt lat="38.141915992731015" lon="16.166086713858487"><ele>9.0</ele><time>2026-03-22T08:26:51Z</time></trkpt><trkpt lat="38.14209747995099" lon="16.166209740915992"><ele>9.0</ele><time>2026-03-22T08:26:52Z</time></trkpt><trkpt lat="38.14227526016986" lon="16.166352628206972"><ele>9.0</ele><time>2026-03-22T08:26:53Z</time></trkpt><trkpt lat="38.14245947046032" lon="16.166493840111354"><ele>9.0</ele><time>2026-03-22T08:26:54Z</time></trkpt><trkpt lat="38.142639965829154" lon="16.166623887615074"><ele>9.0</ele><time>2026-03-22T08:26:55Z</time></trkpt><trkpt lat="38.142828583861835" lon="16.16675972857375"><ele>9.0</ele><time>2026-03-22T08:26:56Z</time></trkpt><trkpt lat="38.14301888043276" lon="16.166896512802268"><ele>9.0</ele><time>2026-03-22T08:26:57Z</time></trkpt><trkpt lat="38.14320768830135" lon="16.16704239744545"><ele>9.0</ele><time>2026-03-22T08:26:58Z</time></trkpt><trkpt lat="38.143393404824316" lon="16.16717650097439"><ele>9.0</ele><time>2026-03-22T08:26:59Z</time></trkpt><trkpt lat="38.1435889887425" lon="16.167303810152774"><ele>9.0</ele><time>2026-03-22T08:27:00Z</time></trkpt><trkpt lat="38.14377197193901" lon="16.16743416626407"><ele>9.0</ele><time>2026-03-22T08:27:01Z</time></trkpt><trkpt lat="38.14394604380845" lon="16.167559051117493"><ele>9.0</ele><time>2026-03-22T08:27:02Z</time></trkpt><trkpt lat="38.14413024952212" lon="16.167675855679818"><ele>9.0</ele><time>2026-03-22T08:27:03Z</time></trkpt><trkpt lat="38.14429664911388" lon="16.167784325367425"><ele>9.333333333333334</ele><time>2026-03-22T08:27:04Z</time></trkpt><trkpt lat="38.144482129126594" lon="16.16787734977994"><ele>9.666666666666668</ele><time>2026-03-22T08:27:05Z</time></trkpt><trkpt lat="38.1446646891005" lon="16.16794807598022"><ele>10.0</ele><time>2026-03-22T08:27:06Z</time></trkpt><trkpt lat="38.14484639634644" lon="16.168000124712837"><ele>11.0</ele><time>2026-03-22T08:27:07Z</time></trkpt><trkpt lat="38.14503315722051" lon="16.168032466687634"><ele>12.0</ele><time>2026-03-22T08:27:08Z</time></trkpt><trkpt lat="38.14520314983602" lon="16.16807331135609"><ele>13.0</ele><time>2026-03-22T08:27:09Z</time></trkpt><trkpt lat="38.14537397874513" lon="16.168081504520234"><ele>13.0</ele><time>2026-03-22T08:27:10Z</time></trkpt><trkpt lat="38.14554865100273" lon="16.168066665520794"><ele>13.0</ele><time>2026-03-22T08:27:11Z</time></trkpt><trkpt lat="38.14572349253626" lon="16.168063828494983"><ele>13.0</ele><time>2026-03-22T08:27:12Z</time></trkpt><trkpt lat="38.1459028080105" lon="16.168065398996074"><ele>14.333333333333332</ele><time>2026-03-22T08:27:13Z</time></trkpt><trkpt lat="38.14609642161504" lon="16.168075179784015"><ele>15.666666666666668</ele><time>2026-03-22T08:27:14Z</time></trkpt><trkpt lat="38.14628577283527" lon="16.16808281798897"><ele>17.0</ele><time>2026-03-22T08:27:15Z</time></trkpt><trkpt lat="38.146485052494484" lon="16.16807305523304"><ele>17.666666666666668</ele><time>2026-03-22T08:27:16Z</time></trkpt><trkpt lat="38.14666913539411" lon="16.16806823197953"><ele>18.333333333333332</ele><time>2026-03-22T08:27:17Z</time></trkpt><trkpt lat="38.146836981460254" lon="16.168065708037826"><ele>19.0</ele><time>2026-03-22T08:27:18Z</time></trkpt><trkpt lat="38.14700135713428" lon="16.168068770973324"><ele>19.0</ele><time>2026-03-22T08:27:19Z</time></trkpt><trkpt lat="38.14713461754965" lon="16.16806520651398"><ele>19.0</ele><time>2026-03-22T08:27:20Z</time></trkpt><trkpt lat="38.147272233576636" lon="16.168064815944394"><ele>19.0</ele><time>2026-03-22T08:27:21Z</time></trkpt><trkpt lat="38.14740309127184" lon="16.168046806082895"><ele>19.0</ele><time>2026-03-22T08:27:22Z</time></trkpt><trkpt lat="38.14753574134118" lon="16.168060451137286"><ele>19.25</ele><time>2026-03-22T08:27:23Z</time></trkpt><trkpt lat="38.14767520077363" lon="16.168058984735023"><ele>19.5</ele><time>2026-03-22T08:27:24Z</time></trkpt><trkpt lat="38.147814158301244" lon="16.168057445194027"><ele>19.75</ele><time>2026-03-22T08:27:25Z</time></trkpt><trkpt lat="38.147966424700584" lon="16.168011262741942"><ele>20.0</ele><time>2026-03-22T08:27:26Z</time></trkpt><trkpt lat="38.14811364310605" lon="16.16801645999617"><ele>19.333333333333336</ele><time>2026-03-22T08:27:27Z</time></trkpt><trkpt lat="38.148269363126644" lon="16.168011569926257"><ele>18.666666666666668</ele><time>2026-03-22T08:27:28Z</time></trkpt><trkpt lat="38.14843564903871" lon="16.16800579394771"><ele>18.0</ele><time>2026-03-22T08:27:29Z</time></trkpt><trkpt lat="38.14859547193841" lon="16.16805684751818"><ele>18.0</ele><time>2026-03-22T08:27:30Z</time></trkpt><trkpt lat="38.148757078934075" lon="16.16805600514268"><ele>18.0</ele><time>2026-03-22T08:27:31Z</time></trkpt><trkpt lat="38.148925772841224" lon="16.16805600514129"><ele>18.0</ele><time>2026-03-22T08:27:32Z</time></trkpt><trkpt lat="38.14909040523539" lon="16.168061338659292"><ele>19.0</ele><time>2026-03-22T08:27:33Z</time></trkpt><trkpt lat="38.149265057370506" lon="16.168077508646125"><ele>20.0</ele><time>2026-03-22T08:27:34Z</time></trkpt><trkpt lat="38.14943171012805" lon="16.168112063095865"><ele>21.0</ele><time>2026-03-22T08:27:35Z</time></trkpt><trkpt lat="38.14960498247923" lon="16.16816750780839"><ele>21.0</ele><time>2026-03-22T08:27:36Z</time></trkpt><trkpt lat="38.14976500800689" lon="16.16823292295922"><ele>21.0</ele><time>2026-03-22T08:27:37Z</time></trkpt><trkpt lat="38.1499423060695" lon="16.16830210181643"><ele>21.0</ele><time>2026-03-22T08:27:38Z</time></trkpt><trkpt lat="38.1501001797838" lon="16.168428642467855"><ele>21.0</ele><time>2026-03-22T08:27:39Z</time></trkpt><trkpt lat="38.15025107669077" lon="16.168551690325287"><ele>21.0</ele><time>2026-03-22T08:27:40Z</time></trkpt><trkpt lat="38.15040733883938" lon="16.16867347983319"><ele>21.0</ele><time>2026-03-22T08:27:41Z</time></trkpt><trkpt lat="38.150540656913996" lon="16.168843518215557"><ele>21.0</ele><time>2026-03-22T08:27:42Z</time></trkpt><trkpt lat="38.150701156045" lon="16.168990214368804"><ele>21.0</ele><time>2026-03-22T08:27:43Z</time></trkpt><trkpt lat="38.15084247166529" lon="16.169158530397656"><ele>21.0</ele><time>2026-03-22T08:27:44Z</time></trkpt><trkpt lat="38.15098780877603" lon="16.169326894269297"><ele>21.333333333333332</ele><time>2026-03-22T08:27:45Z</time></trkpt><trkpt lat="38.151137394120546" lon="16.169491441909262"><ele>21.666666666666664</ele><time>2026-03-22T08:27:46Z</time></trkpt><trkpt lat="38.15129246586009" lon="16.16965532783646"><ele>22.0</ele><time>2026-03-22T08:27:47Z</time></trkpt><trkpt lat="38.151451405884465" lon="16.169829293386627"><ele>24.333333333333332</ele><time>2026-03-22T08:27:48Z</time></trkpt><trkpt lat="38.15160580246752" lon="16.16999785118397"><ele>26.666666666666664</ele><time>2026-03-22T08:27:49Z</time></trkpt><trkpt lat="38.151761229833674" lon="16.170165850850896"><ele>29.0</ele><time>2026-03-22T08:27:50Z</time></trkpt><trkpt lat="38.151918498905744" lon="16.17033169649851"><ele>29.0</ele><time>2026-03-22T08:27:51Z</time></trkpt><trkpt lat="38.1520559844729" lon="16.170523871190316"><ele>29.0</ele><time>2026-03-22T08:27:52Z</time></trkpt><trkpt lat="38.15220671545341" lon="16.17070341411532"><ele>29.0</ele><time>2026-03-22T08:27:53.021Z</time></trkpt><trkpt lat="38.152345938417156" lon="16.17089139879817"><ele>31.666666666666664</ele><time>2026-03-22T08:27:54.023Z</time></trkpt><trkpt lat="38.15246799798492" lon="16.171090025753617"><ele>34.333333333333336</ele><time>2026-03-22T08:27:55Z</time></trkpt><trkpt lat="38.15257776257955" lon="16.171295351637678"><ele>37.0</ele><time>2026-03-22T08:27:56Z</time></trkpt><trkpt lat="38.15268421838375" lon="16.171494688092803"><ele>35.66666666666667</ele><time>2026-03-22T08:27:57Z</time></trkpt><trkpt lat="38.152756368147486" lon="16.171732068375576"><ele>34.333333333333336</ele><time>2026-03-22T08:27:58Z</time></trkpt><trkpt lat="38.15284801903221" lon="16.17197399824678"><ele>33.0</ele><time>2026-03-22T08:27:59Z</time></trkpt><trkpt lat="38.15292290302938" lon="16.172225603086513"><ele>31.666666666666664</ele><time>2026-03-22T08:28:00Z</time></trkpt><trkpt lat="38.15300898213185" lon="16.172476959836736"><ele>30.333333333333332</ele><time>2026-03-22T08:28:01Z</time></trkpt><trkpt lat="38.153089109492214" lon="16.172732197664608"><ele>29.0</ele><time>2026-03-22T08:28:02Z</time></trkpt><trkpt lat="38.15317349599674" lon="16.172983369209348"><ele>29.666666666666664</ele><time>2026-03-22T08:28:03Z</time></trkpt><trkpt lat="38.15325072706427" lon="16.173245119233083"><ele>30.333333333333336</ele><time>2026-03-22T08:28:04Z</time></trkpt><trkpt lat="38.15333371224294" lon="16.1734990146075"><ele>31.0</ele><time>2026-03-22T08:28:05Z</time></trkpt><trkpt lat="38.15341932435565" lon="16.17374851868965"><ele>31.0</ele><time>2026-03-22T08:28:06Z</time></trkpt><trkpt lat="38.153506300353534" lon="16.17399737619333"><ele>31.0</ele><time>2026-03-22T08:28:07Z</time></trkpt><trkpt lat="38.1535763549462" lon="16.174255737591913"><ele>31.0</ele><time>2026-03-22T08:28:08Z</time></trkpt><trkpt lat="38.15365522548783" lon="16.17450047897269"><ele>29.666666666666668</ele><time>2026-03-22T08:28:09Z</time></trkpt><trkpt lat="38.1537499140784" lon="16.174745884736694"><ele>28.333333333333336</ele><time>2026-03-22T08:28:10Z</time></trkpt><trkpt lat="38.153828821366986" lon="16.174995714784025"><ele>27.0</ele><time>2026-03-22T08:28:11Z</time></trkpt><trkpt lat="38.15390270439606" lon="16.17525450457433"><ele>26.666666666666664</ele><time>2026-03-22T08:28:12Z</time></trkpt><trkpt lat="38.15398037670751" lon="16.175511444491956"><ele>26.333333333333332</ele><time>2026-03-22T08:28:13Z</time></trkpt><trkpt lat="38.15406598608385" lon="16.17576681425695"><ele>26.0</ele><time>2026-03-22T08:28:14Z</time></trkpt><trkpt lat="38.1541529049985" lon="16.176024952038894"><ele>26.0</ele><time>2026-03-22T08:28:15Z</time></trkpt><trkpt lat="38.15423770069115" lon="16.176277749781132"><ele>26.0</ele><time>2026-03-22T08:28:16Z</time></trkpt><trkpt lat="38.15432948351019" lon="16.176530150959522"><ele>26.0</ele><time>2026-03-22T08:28:17Z</time></trkpt><trkpt lat="38.15444436029769" lon="16.176773401606948"><ele>25.666666666666664</ele><time>2026-03-22T08:28:18Z</time></trkpt><trkpt lat="38.15457310209509" lon="16.177005114290665"><ele>25.333333333333336</ele><time>2026-03-22T08:28:19Z</time></trkpt><trkpt lat="38.154705384385416" lon="16.1772352314204"><ele>25.0</ele><time>2026-03-22T08:28:20Z</time></trkpt><trkpt lat="38.15483914097031" lon="16.177465983504092"><ele>25.666666666666668</ele><time>2026-03-22T08:28:21Z</time></trkpt><trkpt lat="38.154965196406096" lon="16.177687526161787"><ele>26.333333333333336</ele><time>2026-03-22T08:28:22Z</time></trkpt><trkpt lat="38.15509729513929" lon="16.17791458072792"><ele>27.0</ele><time>2026-03-22T08:28:23Z</time></trkpt><trkpt lat="38.15523028498139" lon="16.178145085307474"><ele>26.0</ele><time>2026-03-22T08:28:24Z</time></trkpt><trkpt lat="38.155362585181855" lon="16.17837731587532"><ele>25.0</ele><time>2026-03-22T08:28:25Z</time></trkpt><trkpt lat="38.15550700726547" lon="16.17859724984009"><ele>25.0</ele><time>2026-03-22T08:28:26Z</time></trkpt><trkpt lat="38.155650845663146" lon="16.178820715805394"><ele>25.0</ele><time>2026-03-22T08:28:27Z</time></trkpt><trkpt lat="38.15579163057443" lon="16.179044058196816"><ele>26.5</ele><time>2026-03-22T08:28:28Z</time></trkpt><trkpt lat="38.15592240628447" lon="16.179277433994123"><ele>28.0</ele><time>2026-03-22T08:28:29Z</time></trkpt><trkpt lat="38.15606011289637" lon="16.179512550838705"><ele>28.0</ele><time>2026-03-22T08:28:30Z</time></trkpt><trkpt lat="38.15621381383702" lon="16.17974131486972"><ele>28.0</ele><time>2026-03-22T08:28:31Z</time></trkpt><trkpt lat="38.156369537593456" lon="16.17997187424735"><ele>28.0</ele><time>2026-03-22T08:28:32Z</time></trkpt><trkpt lat="38.15651082781483" lon="16.18020738698158"><ele>28.0</ele><time>2026-03-22T08:28:33Z</time></trkpt><trkpt lat="38.15664605899452" lon="16.18043820831857"><ele>28.0</ele><time>2026-03-22T08:28:34Z</time></trkpt><trkpt lat="38.15679556758186" lon="16.180664890835804"><ele>28.0</ele><time>2026-03-22T08:28:35Z</time></trkpt><trkpt lat="38.156919094324486" lon="16.180894279830046"><ele>26.666666666666668</ele><time>2026-03-22T08:28:36Z</time></trkpt><trkpt lat="38.15705342238465" lon="16.181103450660938"><ele>25.333333333333336</ele><time>2026-03-22T08:28:37Z</time></trkpt><trkpt lat="38.15715571248462" lon="16.181317168593253"><ele>24.0</ele><time>2026-03-22T08:28:38Z</time></trkpt><trkpt lat="38.157254271229505" lon="16.181512599373917"><ele>23.666666666666668</ele><time>2026-03-22T08:28:39Z</time></trkpt><trkpt lat="38.15734764666408" lon="16.181715017045804"><ele>23.333333333333336</ele><time>2026-03-22T08:28:40Z</time></trkpt><trkpt lat="38.15744394429403" lon="16.18192907795238"><ele>23.0</ele><time>2026-03-22T08:28:41Z</time></trkpt><trkpt lat="38.15753724091423" lon="16.18215763020662"><ele>22.0</ele><time>2026-03-22T08:28:42Z</time></trkpt><trkpt lat="38.157629709108846" lon="16.18239735524136"><ele>21.0</ele><time>2026-03-22T08:28:43Z</time></trkpt><trkpt lat="38.157725136381536" lon="16.182634617741467"><ele>20.0</ele><time>2026-03-22T08:28:44Z</time></trkpt><trkpt lat="38.157822052816734" lon="16.182880352415292"><ele>20.0</ele><time>2026-03-22T08:28:45Z</time></trkpt><trkpt lat="38.15792319428069" lon="16.183140908315913"><ele>20.0</ele><time>2026-03-22T08:28:46Z</time></trkpt><trkpt lat="38.15802875115235" lon="16.183397269890058"><ele>19.666666666666668</ele><time>2026-03-22T08:28:47Z</time></trkpt><trkpt lat="38.15814130085047" lon="16.18364200190381"><ele>19.333333333333332</ele><time>2026-03-22T08:28:48Z</time></trkpt><trkpt lat="38.15825174160203" lon="16.18388904495042"><ele>19.0</ele><time>2026-03-22T08:28:49Z</time></trkpt><trkpt lat="38.15835393478557" lon="16.184134529204744"><ele>18.0</ele><time>2026-03-22T08:28:50Z</time></trkpt><trkpt lat="38.158456491378715" lon="16.18438573897811"><ele>17.0</ele><time>2026-03-22T08:28:51Z</time></trkpt><trkpt lat="38.15856505432978" lon="16.18463509031811"><ele>16.0</ele><time>2026-03-22T08:28:52Z</time></trkpt><trkpt lat="38.1586724995477" lon="16.1848860956456"><ele>15.5</ele><time>2026-03-22T08:28:53Z</time></trkpt><trkpt lat="38.1587847498657" lon="16.185146097726363"><ele>15.0</ele><time>2026-03-22T08:28:54Z</time></trkpt><trkpt lat="38.158898078797016" lon="16.185403841766536"><ele>15.0</ele><time>2026-03-22T08:28:55Z</time></trkpt><trkpt lat="38.15901000325532" lon="16.18566464107977"><ele>15.0</ele><time>2026-03-22T08:28:56Z</time></trkpt><trkpt lat="38.15912571813027" lon="16.185931995159727"><ele>14.0</ele><time>2026-03-22T08:28:57Z</time></trkpt><trkpt lat="38.159237517474224" lon="16.186198336739935"><ele>13.0</ele><time>2026-03-22T08:28:58Z</time></trkpt><trkpt lat="38.15935023761869" lon="16.186467683638647"><ele>12.0</ele><time>2026-03-22T08:28:59Z</time></trkpt><trkpt lat="38.15946396112223" lon="16.18673701080241"><ele>11.0</ele><time>2026-03-22T08:29:00Z</time></trkpt><trkpt lat="38.15958029172811" lon="16.187006001197226"><ele>11.0</ele><time>2026-03-22T08:29:01Z</time></trkpt><trkpt lat="38.15969581857534" lon="16.187277272020456"><ele>11.0</ele><time>2026-03-22T08:29:02Z</time></trkpt><trkpt lat="38.15980959362478" lon="16.187547405371696"><ele>11.5</ele><time>2026-03-22T08:29:03Z</time></trkpt><trkpt lat="38.15992574647332" lon="16.187820212041075"><ele>12.0</ele><time>2026-03-22T08:29:04Z</time></trkpt><trkpt lat="38.16004078991378" lon="16.188090315109793"><ele>11.0</ele><time>2026-03-22T08:29:05Z</time></trkpt><trkpt lat="38.16015584834958" lon="16.188360231776457"><ele>10.0</ele><time>2026-03-22T08:29:06Z</time></trkpt><trkpt lat="38.16027122654242" lon="16.18863011580517"><ele>10.0</ele><time>2026-03-22T08:29:07Z</time></trkpt><trkpt lat="38.16038732088195" lon="16.188901464541765"><ele>10.0</ele><time>2026-03-22T08:29:08Z</time></trkpt><trkpt lat="38.16050457999295" lon="16.189172642316592"><ele>9.5</ele><time>2026-03-22T08:29:09Z</time></trkpt><trkpt lat="38.16062053218638" lon="16.189442834080282"><ele>9.0</ele><time>2026-03-22T08:29:10Z</time></trkpt><trkpt lat="38.16073595035959" lon="16.189715189591194"><ele>8.0</ele><time>2026-03-22T08:29:11Z</time></trkpt><trkpt lat="38.16085132238659" lon="16.18998744509156"><ele>7.0</ele><time>2026-03-22T08:29:12Z</time></trkpt><trkpt lat="38.16096601041228" lon="16.190248803724504"><ele>7.0</ele><time>2026-03-22T08:29:13Z</time></trkpt><trkpt lat="38.16108206461747" lon="16.190518484351163"><ele>7.0</ele><time>2026-03-22T08:29:14Z</time></trkpt><trkpt lat="38.16119779355781" lon="16.190789805349915"><ele>7.5</ele><time>2026-03-22T08:29:15Z</time></trkpt><trkpt lat="38.161313938281666" lon="16.191051889394956"><ele>8.0</ele><time>2026-03-22T08:29:16Z</time></trkpt><trkpt lat="38.161437710930436" lon="16.191319246452945"><ele>10.0</ele><time>2026-03-22T08:29:17Z</time></trkpt><trkpt lat="38.161561187791236" lon="16.19158448736195"><ele>12.0</ele><time>2026-03-22T08:29:18Z</time></trkpt><trkpt lat="38.161689852687196" lon="16.191847884057616"><ele>12.0</ele><time>2026-03-22T08:29:19Z</time></trkpt><trkpt lat="38.161821720964696" lon="16.192108212526318"><ele>12.0</ele><time>2026-03-22T08:29:20Z</time></trkpt><trkpt lat="38.16194379250376" lon="16.19237644101661"><ele>10.5</ele><time>2026-03-22T08:29:21Z</time></trkpt><trkpt lat="38.16208529089394" lon="16.192623460920576"><ele>9.0</ele><time>2026-03-22T08:29:22Z</time></trkpt><trkpt lat="38.1622259445401" lon="16.192860020762772"><ele>9.0</ele><time>2026-03-22T08:29:23Z</time></trkpt><trkpt lat="38.16236462791283" lon="16.19311021699366"><ele>9.0</ele><time>2026-03-22T08:29:24Z</time></trkpt><trkpt lat="38.16250374608136" lon="16.193358533666697"><ele>9.0</ele><time>2026-03-22T08:29:25Z</time></trkpt><trkpt lat="38.16263526359229" lon="16.19359637132148"><ele>9.0</ele><time>2026-03-22T08:29:26Z</time></trkpt><trkpt lat="38.1627680484598" lon="16.19384185656203"><ele>8.5</ele><time>2026-03-22T08:29:27Z</time></trkpt><trkpt lat="38.16290409228836" lon="16.194084786911"><ele>8.0</ele><time>2026-03-22T08:29:28Z</time></trkpt><trkpt lat="38.1630493366352" lon="16.194330472127792"><ele>8.0</ele><time>2026-03-22T08:29:29Z</time></trkpt><trkpt lat="38.1631782409033" lon="16.194575244842483"><ele>8.0</ele><time>2026-03-22T08:29:30Z</time></trkpt><trkpt lat="38.163309977788956" lon="16.194819743923063"><ele>8.5</ele><time>2026-03-22T08:29:31Z</time></trkpt><trkpt lat="38.16344255125458" lon="16.195063104856914"><ele>9.0</ele><time>2026-03-22T08:29:32Z</time></trkpt><trkpt lat="38.16358742471442" lon="16.195293773033917"><ele>9.0</ele><time>2026-03-22T08:29:33Z</time></trkpt><trkpt lat="38.163740487722805" lon="16.195507678458423"><ele>9.0</ele><time>2026-03-22T08:29:34Z</time></trkpt><trkpt lat="38.16389280554401" lon="16.19573052322749"><ele>7.5</ele><time>2026-03-22T08:29:35Z</time></trkpt><trkpt lat="38.164050995448775" lon="16.19594219141279"><ele>6.0</ele><time>2026-03-22T08:29:36Z</time></trkpt><trkpt lat="38.164219019666966" lon="16.196142646463382"><ele>6.0</ele><time>2026-03-22T08:29:37Z</time></trkpt><trkpt lat="38.16437503374337" lon="16.19634409784568"><ele>6.0</ele><time>2026-03-22T08:29:38Z</time></trkpt><trkpt lat="38.164524022547226" lon="16.196536738376956"><ele>6.0</ele><time>2026-03-22T08:29:39Z</time></trkpt><trkpt lat="38.16467249349639" lon="16.19671533636198"><ele>6.333333333333334</ele><time>2026-03-22T08:29:40Z</time></trkpt><trkpt lat="38.1647986782647" lon="16.196869521911243"><ele>6.666666666666667</ele><time>2026-03-22T08:29:41Z</time></trkpt><trkpt lat="38.164906969102155" lon="16.197006624722604"><ele>7.0</ele><time>2026-03-22T08:29:42Z</time></trkpt><trkpt lat="38.16501676330129" lon="16.197131655353964"><ele>6.666666666666667</ele><time>2026-03-22T08:29:43Z</time></trkpt><trkpt lat="38.1651361841719" lon="16.19724937335338"><ele>6.333333333333334</ele><time>2026-03-22T08:29:44Z</time></trkpt><trkpt lat="38.16527239245115" lon="16.1973644528285"><ele>6.0</ele><time>2026-03-22T08:29:45Z</time></trkpt><trkpt lat="38.16541965255987" lon="16.197488771750645"><ele>6.0</ele><time>2026-03-22T08:29:46Z</time></trkpt><trkpt lat="38.165569446344286" lon="16.197615568037286"><ele>6.0</ele><time>2026-03-22T08:29:47Z</time></trkpt><trkpt lat="38.16572721681726" lon="16.19775165039644"><ele>6.0</ele><time>2026-03-22T08:29:48Z</time></trkpt><trkpt lat="38.16588828053008" lon="16.19788890818641"><ele>6.0</ele><time>2026-03-22T08:29:49Z</time></trkpt><trkpt lat="38.16605139058103" lon="16.198031340103316"><ele>6.0</ele><time>2026-03-22T08:29:50Z</time></trkpt><trkpt lat="38.16621425318597" lon="16.198175452273325"><ele>6.0</ele><time>2026-03-22T08:29:51Z</time></trkpt><trkpt lat="38.16637718777828" lon="16.198321383536793"><ele>6.0</ele><time>2026-03-22T08:29:52Z</time></trkpt><trkpt lat="38.16653860944658" lon="16.198464061157217"><ele>6.0</ele><time>2026-03-22T08:29:53Z</time></trkpt><trkpt lat="38.166700904876166" lon="16.19861640548225"><ele>6.0</ele><time>2026-03-22T08:29:54Z</time></trkpt><trkpt lat="38.16686286220058" lon="16.19876682247158"><ele>6.0</ele><time>2026-03-22T08:29:55Z</time></trkpt><trkpt lat="38.16702547734127" lon="16.198913526277362"><ele>6.0</ele><time>2026-03-22T08:29:56Z</time></trkpt><trkpt lat="38.16718785824611" lon="16.199058062164017"><ele>6.0</ele><time>2026-03-22T08:29:57Z</time></trkpt><trkpt lat="38.16734694330211" lon="16.19919342201119"><ele>6.333333333333334</ele><time>2026-03-22T08:29:58Z</time></trkpt><trkpt lat="38.16749604712204" lon="16.19931939545163"><ele>6.666666666666667</ele><time>2026-03-22T08:29:59Z</time></trkpt><trkpt lat="38.16763178739118" lon="16.19944679452766"><ele>7.0</ele><time>2026-03-22T08:30:00Z</time></trkpt><trkpt lat="38.167761316470965" lon="16.19956808396515"><ele>7.0</ele><time>2026-03-22T08:30:01Z</time></trkpt><trkpt lat="38.16788175897716" lon="16.19968062746661"><ele>7.0</ele><time>2026-03-22T08:30:02Z</time></trkpt><trkpt lat="38.16799766582987" lon="16.199779338421877"><ele>7.0</ele><time>2026-03-22T08:30:03Z</time></trkpt><trkpt lat="38.168105021376284" lon="16.199877325168355"><ele>7.0</ele><time>2026-03-22T08:30:04Z</time></trkpt><trkpt lat="38.16821990323061" lon="16.19998047129928"><ele>7.333333333333334</ele><time>2026-03-22T08:30:05Z</time></trkpt><trkpt lat="38.16834953185381" lon="16.200080418801246"><ele>7.666666666666666</ele><time>2026-03-22T08:30:06Z</time></trkpt><trkpt lat="38.16848233423988" lon="16.200193217460477"><ele>8.0</ele><time>2026-03-22T08:30:07Z</time></trkpt><trkpt lat="38.168618431133225" lon="16.200319656115354"><ele>8.0</ele><time>2026-03-22T08:30:08Z</time></trkpt><trkpt lat="38.16875834162394" lon="16.200449783040508"><ele>8.0</ele><time>2026-03-22T08:30:09Z</time></trkpt><trkpt lat="38.16890140982951" lon="16.20058445848995"><ele>8.0</ele><time>2026-03-22T08:30:10Z</time></trkpt><trkpt lat="38.169045396826796" lon="16.200711735450632"><ele>8.0</ele><time>2026-03-22T08:30:11Z</time></trkpt><trkpt lat="38.16919124753879" lon="16.200840948762124"><ele>8.0</ele><time>2026-03-22T08:30:12Z</time></trkpt><trkpt lat="38.16933713387593" lon="16.200954080211922"><ele>8.0</ele><time>2026-03-22T08:30:13Z</time></trkpt><trkpt lat="38.16947236737212" lon="16.201063977315712"><ele>8.0</ele><time>2026-03-22T08:30:14Z</time></trkpt><trkpt lat="38.16961696182678" lon="16.201186076138377"><ele>8.0</ele><time>2026-03-22T08:30:15Z</time></trkpt><trkpt lat="38.16976089941307" lon="16.201307449580415"><ele>8.0</ele><time>2026-03-22T08:30:16Z</time></trkpt><trkpt lat="38.1699017876933" lon="16.201430509561206"><ele>8.333333333333332</ele><time>2026-03-22T08:30:17Z</time></trkpt><trkpt lat="38.17004545485843" lon="16.20154805460854"><ele>8.666666666666666</ele><time>2026-03-22T08:30:18Z</time></trkpt><trkpt lat="38.17018933968219" lon="16.201660954133168"><ele>9.0</ele><time>2026-03-22T08:30:19Z</time></trkpt><trkpt lat="38.17032869297078" lon="16.201780907048853"><ele>9.0</ele><time>2026-03-22T08:30:20Z</time></trkpt><trkpt lat="38.17047760535413" lon="16.201900840531533"><ele>9.0</ele><time>2026-03-22T08:30:21Z</time></trkpt><trkpt lat="38.17058570431183" lon="16.20203550694024"><ele>9.0</ele><time>2026-03-22T08:30:22Z</time></trkpt><trkpt lat="38.170727976915316" lon="16.202147155133158"><ele>8.0</ele><time>2026-03-22T08:30:23Z</time></trkpt><trkpt lat="38.17086856833267" lon="16.202269109192336"><ele>7.0</ele><time>2026-03-22T08:30:24Z</time></trkpt><trkpt lat="38.17100274599958" lon="16.202388782253696"><ele>6.0</ele><time>2026-03-22T08:30:25Z</time></trkpt><trkpt lat="38.171134270536925" lon="16.20249607413258"><ele>6.0</ele><time>2026-03-22T08:30:26Z</time></trkpt><trkpt lat="38.171255474718926" lon="16.20260139301068"><ele>6.0</ele><time>2026-03-22T08:30:27Z</time></trkpt><trkpt lat="38.17138640899361" lon="16.20269223486188"><ele>6.0</ele><time>2026-03-22T08:30:28Z</time></trkpt><trkpt lat="38.171492655341" lon="16.202774386671148"><ele>6.0</ele><time>2026-03-22T08:30:29Z</time></trkpt><trkpt lat="38.17159422587927" lon="16.202860557228117"><ele>6.25</ele><time>2026-03-22T08:30:30Z</time></trkpt><trkpt lat="38.1717153508213" lon="16.202959259669385"><ele>6.5</ele><time>2026-03-22T08:30:31Z</time></trkpt><trkpt lat="38.17183035139575" lon="16.203056408415748"><ele>6.75</ele><time>2026-03-22T08:30:32Z</time></trkpt><trkpt lat="38.171957819827696" lon="16.203163642071736"><ele>7.0</ele><time>2026-03-22T08:30:33Z</time></trkpt><trkpt lat="38.17208585842203" lon="16.203270970416863"><ele>7.0</ele><time>2026-03-22T08:30:34Z</time></trkpt><trkpt lat="38.17220905018205" lon="16.203377229534873"><ele>7.0</ele><time>2026-03-22T08:30:35Z</time></trkpt><trkpt lat="38.172311157045094" lon="16.203465301878605"><ele>7.0</ele><time>2026-03-22T08:30:36Z</time></trkpt><trkpt lat="38.17241875038428" lon="16.203559789468716"><ele>7.0</ele><time>2026-03-22T08:30:37Z</time></trkpt><trkpt lat="38.172516541694684" lon="16.203646143730705"><ele>7.25</ele><time>2026-03-22T08:30:38Z</time></trkpt><trkpt lat="38.17261651076763" lon="16.20373572362659"><ele>7.5</ele><time>2026-03-22T08:30:39Z</time></trkpt><trkpt lat="38.17270713303563" lon="16.203846268942463"><ele>7.75</ele><time>2026-03-22T08:30:40Z</time></trkpt><trkpt lat="38.17280464001724" lon="16.20395528421509"><ele>8.0</ele><time>2026-03-22T08:30:41Z</time></trkpt><trkpt lat="38.17289160230567" lon="16.204099838821456"><ele>8.333333333333332</ele><time>2026-03-22T08:30:42Z</time></trkpt><trkpt lat="38.17300488768185" lon="16.20422089648592"><ele>8.666666666666666</ele><time>2026-03-22T08:30:43Z</time></trkpt><trkpt lat="38.173131208708966" lon="16.20434665551599"><ele>9.0</ele><time>2026-03-22T08:30:44Z</time></trkpt><trkpt lat="38.17324426487665" lon="16.204461027430796"><ele>9.0</ele><time>2026-03-22T08:30:45Z</time></trkpt><trkpt lat="38.17336290148228" lon="16.20458060418939"><ele>9.0</ele><time>2026-03-22T08:30:46Z</time></trkpt><trkpt lat="38.17346559099024" lon="16.204683742359045"><ele>9.0</ele><time>2026-03-22T08:30:47Z</time></trkpt><trkpt lat="38.173577924125084" lon="16.204807325520672"><ele>9.0</ele><time>2026-03-22T08:30:48Z</time></trkpt><trkpt lat="38.17368692910997" lon="16.204872518307916"><ele>9.0</ele><time>2026-03-22T08:30:49Z</time></trkpt><trkpt lat="38.17376639707014" lon="16.20493323560018"><ele>9.0</ele><time>2026-03-22T08:30:50Z</time></trkpt><trkpt lat="38.17382851377814" lon="16.20500803176256"><ele>9.0</ele><time>2026-03-22T08:30:51Z</time></trkpt><trkpt lat="38.173909705998206" lon="16.205067278669212"><ele>9.0</ele><time>2026-03-22T08:30:52Z</time></trkpt><trkpt lat="38.17397508419045" lon="16.205127335746358"><ele>9.0</ele><time>2026-03-22T08:30:53Z</time></trkpt><trkpt lat="38.174029618452835" lon="16.20518332718401"><ele>9.0</ele><time>2026-03-22T08:30:54Z</time></trkpt><trkpt lat="38.17409951078282" lon="16.205267553145575"><ele>9.0</ele><time>2026-03-22T08:30:56Z</time></trkpt><trkpt lat="38.17416732899611" lon="16.20532200882696"><ele>9.0</ele><time>2026-03-22T08:30:57Z</time></trkpt><trkpt lat="38.17424889564044" lon="16.20540394551587"><ele>9.0</ele><time>2026-03-22T08:30:58Z</time></trkpt><trkpt lat="38.17433985318099" lon="16.205510881868985"><ele>9.0</ele><time>2026-03-22T08:30:59Z</time></trkpt><trkpt lat="38.17445732193638" lon="16.205651384713327"><ele>9.333333333333334</ele><time>2026-03-22T08:31:00Z</time></trkpt><trkpt lat="38.17459491690121" lon="16.20581052191733"><ele>9.666666666666668</ele><time>2026-03-22T08:31:01Z</time></trkpt><trkpt lat="38.17476346305022" lon="16.205972916681798"><ele>10.0</ele><time>2026-03-22T08:31:02Z</time></trkpt><trkpt lat="38.174933090424105" lon="16.20615990533595"><ele>10.0</ele><time>2026-03-22T08:31:03Z</time></trkpt><trkpt lat="38.17509002677071" lon="16.206320092461837"><ele>10.0</ele><time>2026-03-22T08:31:04Z</time></trkpt><trkpt lat="38.17525112962772" lon="16.20644123384884"><ele>10.0</ele><time>2026-03-22T08:31:05Z</time></trkpt><trkpt lat="38.1754106526594" lon="16.206567852905437"><ele>10.0</ele><time>2026-03-22T08:31:06Z</time></trkpt><trkpt lat="38.175544288931555" lon="16.20670302138624"><ele>10.0</ele><time>2026-03-22T08:31:07Z</time></trkpt><trkpt lat="38.17567299145221" lon="16.206849131854188"><ele>10.0</ele><time>2026-03-22T08:31:08Z</time></trkpt><trkpt lat="38.175800756712825" lon="16.2069872972702"><ele>10.333333333333334</ele><time>2026-03-22T08:31:09Z</time></trkpt><trkpt lat="38.17593752838542" lon="16.20711258972736"><ele>10.666666666666666</ele><time>2026-03-22T08:31:10Z</time></trkpt><trkpt lat="38.1760790047502" lon="16.20722880094383"><ele>11.0</ele><time>2026-03-22T08:31:11Z</time></trkpt><trkpt lat="38.176219569798626" lon="16.207354035109446"><ele>11.0</ele><time>2026-03-22T08:31:12Z</time></trkpt><trkpt lat="38.17635075205683" lon="16.20750344785163"><ele>11.0</ele><time>2026-03-22T08:31:13Z</time></trkpt><trkpt lat="38.17650070401615" lon="16.207620933482723"><ele>11.0</ele><time>2026-03-22T08:31:14Z</time></trkpt><trkpt lat="38.17664147012328" lon="16.207763090539828"><ele>11.0</ele><time>2026-03-22T08:31:15Z</time></trkpt><trkpt lat="38.1767848516213" lon="16.207926069276784"><ele>11.0</ele><time>2026-03-22T08:31:16Z</time></trkpt><trkpt lat="38.17692312283805" lon="16.208065252825687"><ele>11.0</ele><time>2026-03-22T08:31:17Z</time></trkpt><trkpt lat="38.177057898565614" lon="16.208200917817596"><ele>10.75</ele><time>2026-03-22T08:31:18Z</time></trkpt><trkpt lat="38.17718739516682" lon="16.208331268770674"><ele>10.5</ele><time>2026-03-22T08:31:19Z</time></trkpt><trkpt lat="38.17730180766452" lon="16.208447259708322"><ele>10.25</ele><time>2026-03-22T08:31:20Z</time></trkpt><trkpt lat="38.177414570924675" lon="16.20854817545267"><ele>10.0</ele><time>2026-03-22T08:31:21Z</time></trkpt><trkpt lat="38.177541900348025" lon="16.208668181984002"><ele>10.0</ele><time>2026-03-22T08:31:22Z</time></trkpt><trkpt lat="38.17764210771766" lon="16.208792978892554"><ele>10.0</ele><time>2026-03-22T08:31:23Z</time></trkpt><trkpt lat="38.1777448043704" lon="16.208898307409026"><ele>10.0</ele><time>2026-03-22T08:31:24Z</time></trkpt><trkpt lat="38.1778526923158" lon="16.209010763486006"><ele>10.0</ele><time>2026-03-22T08:31:25Z</time></trkpt><trkpt lat="38.177956409093206" lon="16.20912096494436"><ele>9.75</ele><time>2026-03-22T08:31:26Z</time></trkpt><trkpt lat="38.17806596721289" lon="16.20921652290279"><ele>9.5</ele><time>2026-03-22T08:31:27Z</time></trkpt><trkpt lat="38.17817866002628" lon="16.20933515362204"><ele>9.25</ele><time>2026-03-22T08:31:28Z</time></trkpt><trkpt lat="38.178276798620516" lon="16.209454943420592"><ele>9.0</ele><time>2026-03-22T08:31:29Z</time></trkpt><trkpt lat="38.17839517068593" lon="16.209554751954443"><ele>9.0</ele><time>2026-03-22T08:31:30Z</time></trkpt><trkpt lat="38.17850980096034" lon="16.209668990162754"><ele>9.0</ele><time>2026-03-22T08:31:31Z</time></trkpt><trkpt lat="38.17862331848151" lon="16.20978306088457"><ele>9.0</ele><time>2026-03-22T08:31:32Z</time></trkpt><trkpt lat="38.17873689066583" lon="16.209901451990756"><ele>9.0</ele><time>2026-03-22T08:31:33Z</time></trkpt><trkpt lat="38.178844396078944" lon="16.21000957667018"><ele>9.25</ele><time>2026-03-22T08:31:34Z</time></trkpt><trkpt lat="38.17894876824215" lon="16.210113215674387"><ele>9.5</ele><time>2026-03-22T08:31:35Z</time></trkpt><trkpt lat="38.17905795060243" lon="16.210202432460527"><ele>9.75</ele><time>2026-03-22T08:31:36Z</time></trkpt><trkpt lat="38.1791468471785" lon="16.2103184663553"><ele>10.0</ele><time>2026-03-22T08:31:37Z</time></trkpt><trkpt lat="38.179250636597736" lon="16.210412039449732"><ele>9.75</ele><time>2026-03-22T08:31:38Z</time></trkpt><trkpt lat="38.179334005659115" lon="16.210509551488144"><ele>9.5</ele><time>2026-03-22T08:31:39Z</time></trkpt><trkpt lat="38.17941189336236" lon="16.21059660090597"><ele>9.25</ele><time>2026-03-22T08:31:40Z</time></trkpt><trkpt lat="38.179505898099336" lon="16.210681848213138"><ele>9.0</ele><time>2026-03-22T08:31:41Z</time></trkpt><trkpt lat="38.17960370866886" lon="16.21076722420004"><ele>9.0</ele><time>2026-03-22T08:31:42Z</time></trkpt><trkpt lat="38.17970970816737" lon="16.210869532252985"><ele>9.0</ele><time>2026-03-22T08:31:43Z</time></trkpt><trkpt lat="38.17978297300747" lon="16.21099539609946"><ele>9.0</ele><time>2026-03-22T08:31:44Z</time></trkpt><trkpt lat="38.179906847253584" lon="16.21112140066814"><ele>9.0</ele><time>2026-03-22T08:31:45Z</time></trkpt><trkpt lat="38.180025804538474" lon="16.211239523088345"><ele>8.666666666666666</ele><time>2026-03-22T08:31:46Z</time></trkpt><trkpt lat="38.18015716229128" lon="16.211369966436877"><ele>8.333333333333332</ele><time>2026-03-22T08:31:47Z</time></trkpt><trkpt lat="38.1802821801513" lon="16.211499487253246"><ele>8.0</ele><time>2026-03-22T08:31:48Z</time></trkpt><trkpt lat="38.18042951984539" lon="16.21163837329468"><ele>8.0</ele><time>2026-03-22T08:31:49Z</time></trkpt><trkpt lat="38.18057379805152" lon="16.211781071998075"><ele>8.0</ele><time>2026-03-22T08:31:50Z</time></trkpt><trkpt lat="38.18074070480994" lon="16.211931616853672"><ele>8.0</ele><time>2026-03-22T08:31:51Z</time></trkpt><trkpt lat="38.180899499036514" lon="16.212122763072443"><ele>7.666666666666666</ele><time>2026-03-22T08:31:52Z</time></trkpt><trkpt lat="38.181076192466044" lon="16.212254926110617"><ele>7.333333333333334</ele><time>2026-03-22T08:31:53Z</time></trkpt><trkpt lat="38.18123990235102" lon="16.212429187821222"><ele>7.0</ele><time>2026-03-22T08:31:54Z</time></trkpt><trkpt lat="38.181421697921465" lon="16.212597445454456"><ele>6.666666666666667</ele><time>2026-03-22T08:31:55Z</time></trkpt><trkpt lat="38.1815812415815" lon="16.212770645836084"><ele>6.333333333333334</ele><time>2026-03-22T08:31:56Z</time></trkpt><trkpt lat="38.181745156192" lon="16.21294580684417"><ele>6.0</ele><time>2026-03-22T08:31:57Z</time></trkpt><trkpt lat="38.181914830461785" lon="16.213120396199244"><ele>7.0</ele><time>2026-03-22T08:31:58Z</time></trkpt><trkpt lat="38.182083662290424" lon="16.213310899731994"><ele>8.0</ele><time>2026-03-22T08:31:59Z</time></trkpt><trkpt lat="38.18226463942155" lon="16.213492421861222"><ele>7.5</ele><time>2026-03-22T08:32:00Z</time></trkpt><trkpt lat="38.18245829179296" lon="16.213659773342734"><ele>7.0</ele><time>2026-03-22T08:32:01Z</time></trkpt><trkpt lat="38.182635032597794" lon="16.21384695602714"><ele>6.0</ele><time>2026-03-22T08:32:02Z</time></trkpt><trkpt lat="38.1828019155978" lon="16.21402316513296"><ele>5.0</ele><time>2026-03-22T08:32:03Z</time></trkpt><trkpt lat="38.182966771779846" lon="16.214190699731347"><ele>4.0</ele><time>2026-03-22T08:32:04Z</time></trkpt><trkpt lat="38.183135775724914" lon="16.214362803693593"><ele>4.333333333333333</ele><time>2026-03-22T08:32:05Z</time></trkpt><trkpt lat="38.18330879909447" lon="16.214538627640152"><ele>4.666666666666667</ele><time>2026-03-22T08:32:06Z</time></trkpt><trkpt lat="38.18348370086779" lon="16.214718838867583"><ele>5.0</ele><time>2026-03-22T08:32:07Z</time></trkpt><trkpt lat="38.18365355744523" lon="16.214901233968664"><ele>5.0</ele><time>2026-03-22T08:32:08Z</time></trkpt><trkpt lat="38.18382834137602" lon="16.215092959236625"><ele>5.0</ele><time>2026-03-22T08:32:09Z</time></trkpt><trkpt lat="38.18401218566703" lon="16.215281646855434"><ele>6.0</ele><time>2026-03-22T08:32:10Z</time></trkpt><trkpt lat="38.18419819915206" lon="16.215458576427817"><ele>7.0</ele><time>2026-03-22T08:32:11Z</time></trkpt><trkpt lat="38.18438487050008" lon="16.21564998051079"><ele>6.0</ele><time>2026-03-22T08:32:12Z</time></trkpt><trkpt lat="38.1845664532855" lon="16.215842247185023"><ele>5.0</ele><time>2026-03-22T08:32:13Z</time></trkpt><trkpt lat="38.184746782482414" lon="16.216026451605117"><ele>6.0</ele><time>2026-03-22T08:32:14Z</time></trkpt><trkpt lat="38.18492614194787" lon="16.216214883427227"><ele>7.0</ele><time>2026-03-22T08:32:15Z</time></trkpt><trkpt lat="38.185112317468246" lon="16.21640067433092"><ele>5.0</ele><time>2026-03-22T08:32:16Z</time></trkpt><trkpt lat="38.18529655401767" lon="16.216592079030068"><ele>3.0</ele><time>2026-03-22T08:32:17Z</time></trkpt><trkpt lat="38.18548377091701" lon="16.216780400814578"><ele>3.0</ele><time>2026-03-22T08:32:18Z</time></trkpt><trkpt lat="38.185671359493796" lon="16.216973010152312"><ele>3.0</ele><time>2026-03-22T08:32:19Z</time></trkpt><trkpt lat="38.185853907844155" lon="16.217162258496607"><ele>4.0</ele><time>2026-03-22T08:32:20Z</time></trkpt><trkpt lat="38.18603898013222" lon="16.217354512806242"><ele>5.0</ele><time>2026-03-22T08:32:21Z</time></trkpt><trkpt lat="38.18622296135715" lon="16.217539674052702"><ele>5.0</ele><time>2026-03-22T08:32:22Z</time></trkpt><trkpt lat="38.1864135948161" lon="16.217723517949853"><ele>5.0</ele><time>2026-03-22T08:32:23Z</time></trkpt><trkpt lat="38.186602036206985" lon="16.21790407188247"><ele>4.5</ele><time>2026-03-22T08:32:24Z</time></trkpt><trkpt lat="38.186794383558265" lon="16.218078869561502"><ele>4.0</ele><time>2026-03-22T08:32:25Z</time></trkpt><trkpt lat="38.18698470410887" lon="16.218252408817314"><ele>4.5</ele><time>2026-03-22T08:32:26Z</time></trkpt><trkpt lat="38.18717823018412" lon="16.21841826067264"><ele>5.0</ele><time>2026-03-22T08:32:27Z</time></trkpt><trkpt lat="38.18737368356243" lon="16.218585280380985"><ele>5.0</ele><time>2026-03-22T08:32:28Z</time></trkpt><trkpt lat="38.187570425018514" lon="16.218748452142425"><ele>5.0</ele><time>2026-03-22T08:32:29Z</time></trkpt><trkpt lat="38.18775887227343" lon="16.218916359880403"><ele>3.5</ele><time>2026-03-22T08:32:30Z</time></trkpt><trkpt lat="38.18795509259963" lon="16.219078095636384"><ele>2.0</ele><time>2026-03-22T08:32:31Z</time></trkpt><trkpt lat="38.18815063490073" lon="16.219255688486694"><ele>4.5</ele><time>2026-03-22T08:32:32Z</time></trkpt><trkpt lat="38.18834458900317" lon="16.21941975943945"><ele>7.0</ele><time>2026-03-22T08:32:33Z</time></trkpt><trkpt lat="38.18852584637809" lon="16.21960084130865"><ele>7.0</ele><time>2026-03-22T08:32:34Z</time></trkpt><trkpt lat="38.18872670101288" lon="16.219766023190328"><ele>7.0</ele><time>2026-03-22T08:32:35Z</time></trkpt><trkpt lat="38.18890889590695" lon="16.21994600784247"><ele>5.5</ele><time>2026-03-22T08:32:36Z</time></trkpt><trkpt lat="38.1890990582036" lon="16.220122159887133"><ele>4.0</ele><time>2026-03-22T08:32:37Z</time></trkpt><trkpt lat="38.18928786874264" lon="16.220295808428986"><ele>4.0</ele><time>2026-03-22T08:32:38Z</time></trkpt><trkpt lat="38.189475097208245" lon="16.220465442654756"><ele>4.0</ele><time>2026-03-22T08:32:39Z</time></trkpt><trkpt lat="38.189662598802826" lon="16.22063759374229"><ele>6.0</ele><time>2026-03-22T08:32:40Z</time></trkpt><trkpt lat="38.189852905585504" lon="16.22081349118438"><ele>8.0</ele><time>2026-03-22T08:32:41Z</time></trkpt><trkpt lat="38.190044941272326" lon="16.22098794910186"><ele>8.0</ele><time>2026-03-22T08:32:42Z</time></trkpt><trkpt lat="38.19023279237277" lon="16.221164114251636"><ele>8.0</ele><time>2026-03-22T08:32:43Z</time></trkpt><trkpt lat="38.190419425986924" lon="16.221336052225915"><ele>6.5</ele><time>2026-03-22T08:32:44Z</time></trkpt><trkpt lat="38.190608172986536" lon="16.22150499956131"><ele>5.0</ele><time>2026-03-22T08:32:45Z</time></trkpt><trkpt lat="38.19079719910414" lon="16.22167980861848"><ele>5.0</ele><time>2026-03-22T08:32:46Z</time></trkpt><trkpt lat="38.190984268286336" lon="16.22185326788765"><ele>5.0</ele><time>2026-03-22T08:32:47Z</time></trkpt><trkpt lat="38.191174082388876" lon="16.222026445430945"><ele>5.0</ele><time>2026-03-22T08:32:48Z</time></trkpt><trkpt lat="38.19136323702418" lon="16.22220413556927"><ele>5.0</ele><time>2026-03-22T08:32:49Z</time></trkpt><trkpt lat="38.19155262922296" lon="16.222380382908224"><ele>4.5</ele><time>2026-03-22T08:32:50Z</time></trkpt><trkpt lat="38.191745159967375" lon="16.222555755920318"><ele>4.0</ele><time>2026-03-22T08:32:51Z</time></trkpt><trkpt lat="38.191939321282526" lon="16.222729713174317"><ele>4.0</ele><time>2026-03-22T08:32:52Z</time></trkpt><trkpt lat="38.192130597061436" lon="16.222905099366844"><ele>4.0</ele><time>2026-03-22T08:32:53Z</time></trkpt><trkpt lat="38.19232240877468" lon="16.22308296739707"><ele>4.5</ele><time>2026-03-22T08:32:54Z</time></trkpt><trkpt lat="38.192513799397815" lon="16.223256679841285"><ele>5.0</ele><time>2026-03-22T08:32:55Z</time></trkpt><trkpt lat="38.192702994595535" lon="16.223431114577757"><ele>5.0</ele><time>2026-03-22T08:32:56Z</time></trkpt><trkpt lat="38.192895409542025" lon="16.223602812736114"><ele>5.0</ele><time>2026-03-22T08:32:57Z</time></trkpt><trkpt lat="38.19308716820306" lon="16.223778651844345"><ele>5.0</ele><time>2026-03-22T08:32:58Z</time></trkpt><trkpt lat="38.193280505029286" lon="16.22395117654278"><ele>5.0</ele><time>2026-03-22T08:32:59Z</time></trkpt><trkpt lat="38.19347603449853" lon="16.224125831693094"><ele>5.0</ele><time>2026-03-22T08:33:00Z</time></trkpt><trkpt lat="38.19366776112419" lon="16.224299605124827"><ele>5.0</ele><time>2026-03-22T08:33:01Z</time></trkpt><trkpt lat="38.193857257661094" lon="16.224474872878428"><ele>4.5</ele><time>2026-03-22T08:33:02Z</time></trkpt><trkpt lat="38.19404726706062" lon="16.224649118466626"><ele>4.0</ele><time>2026-03-22T08:33:03Z</time></trkpt><trkpt lat="38.19423840319448" lon="16.22482429500738"><ele>4.0</ele><time>2026-03-22T08:33:04Z</time></trkpt><trkpt lat="38.194430107695744" lon="16.224998050860915"><ele>4.0</ele><time>2026-03-22T08:33:05Z</time></trkpt><trkpt lat="38.19462139061703" lon="16.225173113347235"><ele>4.0</ele><time>2026-03-22T08:33:06Z</time></trkpt><trkpt lat="38.19480916254704" lon="16.2253471134738"><ele>4.0</ele><time>2026-03-22T08:33:07Z</time></trkpt><trkpt lat="38.19499651699757" lon="16.22552067355262"><ele>5.0</ele><time>2026-03-22T08:33:08Z</time></trkpt><trkpt lat="38.195182726379905" lon="16.225694925709025"><ele>6.0</ele><time>2026-03-22T08:33:09Z</time></trkpt><trkpt lat="38.19537263315776" lon="16.22586528762405"><ele>6.0</ele><time>2026-03-22T08:33:10Z</time></trkpt><trkpt lat="38.19556009311842" lon="16.226037459714487"><ele>6.0</ele><time>2026-03-22T08:33:11Z</time></trkpt><trkpt lat="38.19574263613334" lon="16.22620829080262"><ele>6.0</ele><time>2026-03-22T08:33:12Z</time></trkpt><trkpt lat="38.19592595191934" lon="16.22637542441221"><ele>6.0</ele><time>2026-03-22T08:33:13Z</time></trkpt><trkpt lat="38.19610399877809" lon="16.22654318014838"><ele>6.0</ele><time>2026-03-22T08:33:14Z</time></trkpt><trkpt lat="38.196275561006225" lon="16.2267094858361"><ele>6.0</ele><time>2026-03-22T08:33:15Z</time></trkpt><trkpt lat="38.19643715416391" lon="16.22686940935745"><ele>6.0</ele><time>2026-03-22T08:33:16Z</time></trkpt><trkpt lat="38.19658989709932" lon="16.227017112104708"><ele>6.0</ele><time>2026-03-22T08:33:17Z</time></trkpt><trkpt lat="38.196732887163115" lon="16.22715406265603"><ele>6.333333333333334</ele><time>2026-03-22T08:33:18Z</time></trkpt><trkpt lat="38.196872582712686" lon="16.227283270392295"><ele>6.666666666666667</ele><time>2026-03-22T08:33:19Z</time></trkpt><trkpt lat="38.19701570253573" lon="16.22741520756622"><ele>7.0</ele><time>2026-03-22T08:33:20Z</time></trkpt><trkpt lat="38.197159228765756" lon="16.227545752245284"><ele>7.0</ele><time>2026-03-22T08:33:21Z</time></trkpt><trkpt lat="38.19730992425261" lon="16.2276719431056"><ele>7.0</ele><time>2026-03-22T08:33:22Z</time></trkpt><trkpt lat="38.19745239700066" lon="16.22779513838761"><ele>7.0</ele><time>2026-03-22T08:33:23Z</time></trkpt><trkpt lat="38.197593652628434" lon="16.22793336455334"><ele>7.0</ele><time>2026-03-22T08:33:24Z</time></trkpt><trkpt lat="38.1977449010464" lon="16.2280524420549"><ele>7.0</ele><time>2026-03-22T08:33:25Z</time></trkpt><trkpt lat="38.19790840890787" lon="16.228170714802236"><ele>7.0</ele><time>2026-03-22T08:33:26Z</time></trkpt><trkpt lat="38.19808095712242" lon="16.22830259229927"><ele>7.333333333333334</ele><time>2026-03-22T08:33:27Z</time></trkpt><trkpt lat="38.19825617819619" lon="16.228453008719615"><ele>7.666666666666666</ele><time>2026-03-22T08:33:28Z</time></trkpt><trkpt lat="38.19845439904791" lon="16.22860129716247"><ele>8.0</ele><time>2026-03-22T08:33:29Z</time></trkpt><trkpt lat="38.19864779075423" lon="16.228761865769453"><ele>8.0</ele><time>2026-03-22T08:33:30Z</time></trkpt><trkpt lat="38.19883948211763" lon="16.228927838631012"><ele>8.0</ele><time>2026-03-22T08:33:31Z</time></trkpt><trkpt lat="38.19903886821613" lon="16.22909653831065"><ele>7.5</ele><time>2026-03-22T08:33:32Z</time></trkpt><trkpt lat="38.19921912655019" lon="16.2293219144178"><ele>7.0</ele><time>2026-03-22T08:33:33Z</time></trkpt><trkpt lat="38.19933995768978" lon="16.229571313112285"><ele>7.0</ele><time>2026-03-22T08:33:34Z</time></trkpt><trkpt lat="38.199513493115006" lon="16.229803271841053"><ele>7.0</ele><time>2026-03-22T08:33:35Z</time></trkpt><trkpt lat="38.199688567853634" lon="16.23001073705874"><ele>7.0</ele><time>2026-03-22T08:33:36Z</time></trkpt><trkpt lat="38.199873871834384" lon="16.230221904892844"><ele>7.0</ele><time>2026-03-22T08:33:37Z</time></trkpt><trkpt lat="38.20004879163469" lon="16.230424069945784"><ele>7.0</ele><time>2026-03-22T08:33:38Z</time></trkpt><trkpt lat="38.20022417751065" lon="16.230629242025092"><ele>7.0</ele><time>2026-03-22T08:33:39Z</time></trkpt><trkpt lat="38.200380142103285" lon="16.230828682242432"><ele>6.5</ele><time>2026-03-22T08:33:40Z</time></trkpt><trkpt lat="38.20056828294742" lon="16.23101081526207"><ele>6.0</ele><time>2026-03-22T08:33:41Z</time></trkpt><trkpt lat="38.20074020779746" lon="16.23121235482015"><ele>6.0</ele><time>2026-03-22T08:33:42Z</time></trkpt><trkpt lat="38.200905367157354" lon="16.23140568163135"><ele>6.0</ele><time>2026-03-22T08:33:43Z</time></trkpt><trkpt lat="38.20107464590055" lon="16.231594646880666"><ele>5.5</ele><time>2026-03-22T08:33:44Z</time></trkpt><trkpt lat="38.20124261565027" lon="16.2317819843282"><ele>5.0</ele><time>2026-03-22T08:33:45Z</time></trkpt><trkpt lat="38.20142759413688" lon="16.231962061662266"><ele>5.333333333333334</ele><time>2026-03-22T08:33:46Z</time></trkpt><trkpt lat="38.201601442306064" lon="16.232146411033586"><ele>5.666666666666667</ele><time>2026-03-22T08:33:47Z</time></trkpt><trkpt lat="38.20177409388953" lon="16.232324943062967"><ele>6.0</ele><time>2026-03-22T08:33:48Z</time></trkpt><trkpt lat="38.201947109539695" lon="16.232504741469036"><ele>6.0</ele><time>2026-03-22T08:33:49Z</time></trkpt><trkpt lat="38.2021206021705" lon="16.232693183136927"><ele>6.0</ele><time>2026-03-22T08:33:50Z</time></trkpt><trkpt lat="38.20228756670816" lon="16.232884744357868"><ele>6.0</ele><time>2026-03-22T08:33:51Z</time></trkpt><trkpt lat="38.202450775511174" lon="16.23307294237357"><ele>6.0</ele><time>2026-03-22T08:33:52Z</time></trkpt><trkpt lat="38.20261128816489" lon="16.233259471587033"><ele>6.0</ele><time>2026-03-22T08:33:53Z</time></trkpt><trkpt lat="38.202773045380745" lon="16.23343897716522"><ele>6.333333333333334</ele><time>2026-03-22T08:33:54Z</time></trkpt><trkpt lat="38.20293155319962" lon="16.233614235422625"><ele>6.666666666666667</ele><time>2026-03-22T08:33:55Z</time></trkpt><trkpt lat="38.20308376005378" lon="16.233782560274783"><ele>7.0</ele><time>2026-03-22T08:33:56Z</time></trkpt><trkpt lat="38.203231500927785" lon="16.2339385469463"><ele>7.333333333333334</ele><time>2026-03-22T08:33:57Z</time></trkpt><trkpt lat="38.20337517899898" lon="16.23409102780555"><ele>7.666666666666666</ele><time>2026-03-22T08:33:58Z</time></trkpt><trkpt lat="38.203508334198986" lon="16.234241556227285"><ele>8.0</ele><time>2026-03-22T08:33:59Z</time></trkpt><trkpt lat="38.203632291345826" lon="16.23438664446905"><ele>8.0</ele><time>2026-03-22T08:34:00Z</time></trkpt><trkpt lat="38.20375858107063" lon="16.23452786576837"><ele>8.0</ele><time>2026-03-22T08:34:01Z</time></trkpt><trkpt lat="38.20388717697884" lon="16.234675330223034"><ele>8.0</ele><time>2026-03-22T08:34:02Z</time></trkpt><trkpt lat="38.20401132396915" lon="16.234821356418504"><ele>8.333333333333332</ele><time>2026-03-22T08:34:03Z</time></trkpt><trkpt lat="38.20415189602161" lon="16.234959933435828"><ele>8.666666666666666</ele><time>2026-03-22T08:34:04Z</time></trkpt><trkpt lat="38.20431751001504" lon="16.23510328005357"><ele>9.0</ele><time>2026-03-22T08:34:05Z</time></trkpt><trkpt lat="38.20446888118688" lon="16.235277676977006"><ele>9.0</ele><time>2026-03-22T08:34:06Z</time></trkpt><trkpt lat="38.20462946742225" lon="16.235449846727178"><ele>9.0</ele><time>2026-03-22T08:34:07Z</time></trkpt><trkpt lat="38.20478498748352" lon="16.235630818548724"><ele>9.0</ele><time>2026-03-22T08:34:08Z</time></trkpt><trkpt lat="38.20493833573162" lon="16.235812079240183"><ele>8.666666666666666</ele><time>2026-03-22T08:34:09Z</time></trkpt><trkpt lat="38.20511565400057" lon="16.23597435007667"><ele>8.333333333333332</ele><time>2026-03-22T08:34:10Z</time></trkpt><trkpt lat="38.205284550270314" lon="16.236174414793844"><ele>8.0</ele><time>2026-03-22T08:34:11Z</time></trkpt><trkpt lat="38.20545061560876" lon="16.236374084685984"><ele>7.5</ele><time>2026-03-22T08:34:12Z</time></trkpt><trkpt lat="38.205627016172045" lon="16.236564185472222"><ele>7.0</ele><time>2026-03-22T08:34:13Z</time></trkpt><trkpt lat="38.20580317572893" lon="16.236766771298644"><ele>7.0</ele><time>2026-03-22T08:34:14Z</time></trkpt><trkpt lat="38.205979749672316" lon="16.23697540076982"><ele>7.0</ele><time>2026-03-22T08:34:15Z</time></trkpt><trkpt lat="38.20616347939501" lon="16.237177419407193"><ele>6.5</ele><time>2026-03-22T08:34:16Z</time></trkpt><trkpt lat="38.206340727295256" lon="16.237372016904764"><ele>6.0</ele><time>2026-03-22T08:34:17Z</time></trkpt><trkpt lat="38.2065200470067" lon="16.237568312468564"><ele>5.5</ele><time>2026-03-22T08:34:18Z</time></trkpt><trkpt lat="38.206695486210556" lon="16.237760360171958"><ele>5.0</ele><time>2026-03-22T08:34:19Z</time></trkpt><trkpt lat="38.206877846520946" lon="16.237944668366914"><ele>5.5</ele><time>2026-03-22T08:34:20Z</time></trkpt><trkpt lat="38.20704131472112" lon="16.238139322246116"><ele>6.0</ele><time>2026-03-22T08:34:21Z</time></trkpt><trkpt lat="38.207237439125535" lon="16.238324240788813"><ele>5.5</ele><time>2026-03-22T08:34:22Z</time></trkpt><trkpt lat="38.207402144144616" lon="16.238528225821312"><ele>5.0</ele><time>2026-03-22T08:34:23Z</time></trkpt><trkpt lat="38.20757424803947" lon="16.238716292898232"><ele>5.0</ele><time>2026-03-22T08:34:24Z</time></trkpt><trkpt lat="38.20774527052394" lon="16.238903178250258"><ele>5.0</ele><time>2026-03-22T08:34:25Z</time></trkpt><trkpt lat="38.207916089323696" lon="16.23908965537699"><ele>5.0</ele><time>2026-03-22T08:34:26Z</time></trkpt><trkpt lat="38.20808339312392" lon="16.239272179220293"><ele>5.0</ele><time>2026-03-22T08:34:27Z</time></trkpt><trkpt lat="38.20825733481784" lon="16.239461944836645"><ele>5.0</ele><time>2026-03-22T08:34:28Z</time></trkpt><trkpt lat="38.208429807069635" lon="16.239650107311654"><ele>5.5</ele><time>2026-03-22T08:34:29Z</time></trkpt><trkpt lat="38.208611871602514" lon="16.23984400391174"><ele>6.0</ele><time>2026-03-22T08:34:30Z</time></trkpt><trkpt lat="38.208782512857084" lon="16.240042121053527"><ele>6.0</ele><time>2026-03-22T08:34:31Z</time></trkpt><trkpt lat="38.208958963626515" lon="16.240237079879677"><ele>6.0</ele><time>2026-03-22T08:34:32Z</time></trkpt><trkpt lat="38.2091420297738" lon="16.240417927423767"><ele>6.333333333333334</ele><time>2026-03-22T08:34:33Z</time></trkpt><trkpt lat="38.209319110241196" lon="16.240591075971427"><ele>6.666666666666667</ele><time>2026-03-22T08:34:34Z</time></trkpt><trkpt lat="38.209488081217785" lon="16.24075997966714"><ele>7.0</ele><time>2026-03-22T08:34:35Z</time></trkpt><trkpt lat="38.209647319027574" lon="16.240926946689754"><ele>7.0</ele><time>2026-03-22T08:34:36Z</time></trkpt><trkpt lat="38.209801405965194" lon="16.241094266441586"><ele>7.0</ele><time>2026-03-22T08:34:37Z</time></trkpt><trkpt lat="38.20995888207982" lon="16.241258195542596"><ele>7.0</ele><time>2026-03-22T08:34:38Z</time></trkpt><trkpt lat="38.210120180276995" lon="16.241413982396043"><ele>6.666666666666667</ele><time>2026-03-22T08:34:39Z</time></trkpt><trkpt lat="38.2102801354615" lon="16.24160239074642"><ele>6.333333333333334</ele><time>2026-03-22T08:34:40Z</time></trkpt><trkpt lat="38.21045495892391" lon="16.241775482000076"><ele>6.0</ele><time>2026-03-22T08:34:41Z</time></trkpt><trkpt lat="38.21063516269466" lon="16.241953425856895"><ele>6.5</ele><time>2026-03-22T08:34:42Z</time></trkpt><trkpt lat="38.21081426717378" lon="16.242113096859228"><ele>7.0</ele><time>2026-03-22T08:34:43Z</time></trkpt><trkpt lat="38.21099224943194" lon="16.242309324531615"><ele>7.0</ele><time>2026-03-22T08:34:44Z</time></trkpt><trkpt lat="38.21116652414216" lon="16.24248241002753"><ele>7.0</ele><time>2026-03-22T08:34:45Z</time></trkpt><trkpt lat="38.211346433498456" lon="16.24266136635223"><ele>7.0</ele><time>2026-03-22T08:34:46Z</time></trkpt><trkpt lat="38.21154236804513" lon="16.24281533923518"><ele>7.0</ele><time>2026-03-22T08:34:47Z</time></trkpt><trkpt lat="38.21173155888517" lon="16.242988317957597"><ele>7.0</ele><time>2026-03-22T08:34:48Z</time></trkpt><trkpt lat="38.21191527909943" lon="16.24317250897294"><ele>7.0</ele><time>2026-03-22T08:34:49Z</time></trkpt><trkpt lat="38.21209763899736" lon="16.243364301146435"><ele>7.0</ele><time>2026-03-22T08:34:50Z</time></trkpt><trkpt lat="38.212276482363954" lon="16.243561004599638"><ele>7.0</ele><time>2026-03-22T08:34:51Z</time></trkpt><trkpt lat="38.21245731342119" lon="16.243750068491533"><ele>7.0</ele><time>2026-03-22T08:34:52Z</time></trkpt><trkpt lat="38.21263311265414" lon="16.243935693305918"><ele>6.5</ele><time>2026-03-22T08:34:53Z</time></trkpt><trkpt lat="38.21281525252185" lon="16.244121468716127"><ele>6.0</ele><time>2026-03-22T08:34:54Z</time></trkpt><trkpt lat="38.21299619824251" lon="16.244299505659967"><ele>6.0</ele><time>2026-03-22T08:34:55Z</time></trkpt><trkpt lat="38.2131664470331" lon="16.24447847880065"><ele>6.0</ele><time>2026-03-22T08:34:56Z</time></trkpt><trkpt lat="38.213314668985234" lon="16.244626888271632"><ele>6.0</ele><time>2026-03-22T08:34:57Z</time></trkpt><trkpt lat="38.21346147903415" lon="16.24479334829358"><ele>6.0</ele><time>2026-03-22T08:34:58Z</time></trkpt><trkpt lat="38.21360409768312" lon="16.24494228578847"><ele>6.0</ele><time>2026-03-22T08:34:59Z</time></trkpt><trkpt lat="38.21373089469845" lon="16.24508290467268"><ele>6.0</ele><time>2026-03-22T08:35:00Z</time></trkpt><trkpt lat="38.213872147161986" lon="16.24520959356865"><ele>6.0</ele><time>2026-03-22T08:35:01Z</time></trkpt><trkpt lat="38.213990425926035" lon="16.24529498613638"><ele>6.0</ele><time>2026-03-22T08:35:02Z</time></trkpt><trkpt lat="38.21411049632603" lon="16.24541050342136"><ele>6.0</ele><time>2026-03-22T08:35:03Z</time></trkpt><trkpt lat="38.21422376296799" lon="16.24551368751225"><ele>6.0</ele><time>2026-03-22T08:35:04Z</time></trkpt><trkpt lat="38.21432308033279" lon="16.24563255184723"><ele>5.8</ele><time>2026-03-22T08:35:05Z</time></trkpt><trkpt lat="38.214429310510695" lon="16.245721719784626"><ele>5.6</ele><time>2026-03-22T08:35:06Z</time></trkpt><trkpt lat="38.21451435285473" lon="16.245823999120883"><ele>5.4</ele><time>2026-03-22T08:35:07Z</time></trkpt><trkpt lat="38.214598829328104" lon="16.245908552613702"><ele>5.2</ele><time>2026-03-22T08:35:08Z</time></trkpt><trkpt lat="38.21466869605352" lon="16.2459784830395"><ele>5.0</ele><time>2026-03-22T08:35:09Z</time></trkpt><trkpt lat="38.21477304492057" lon="16.245981573299286"><ele>5.4</ele><time>2026-03-22T08:35:10Z</time></trkpt><trkpt lat="38.214827768737074" lon="16.2460505739831"><ele>5.8</ele><time>2026-03-22T08:35:11Z</time></trkpt><trkpt lat="38.21487201399167" lon="16.246143347991136"><ele>6.199999999999999</ele><time>2026-03-22T08:35:12Z</time></trkpt><trkpt lat="38.21494086030181" lon="16.246223063266704"><ele>6.6</ele><time>2026-03-22T08:35:13Z</time></trkpt><trkpt lat="38.21503461072746" lon="16.246290835909324"><ele>7.0</ele><time>2026-03-22T08:35:14Z</time></trkpt><trkpt lat="38.215174510391606" lon="16.246335316098637"><ele>7.0</ele><time>2026-03-22T08:35:15Z</time></trkpt><trkpt lat="38.21527132456697" lon="16.246431182044926"><ele>7.0</ele><time>2026-03-22T08:35:16Z</time></trkpt><trkpt lat="38.21532546795921" lon="16.24654787863238"><ele>7.0</ele><time>2026-03-22T08:35:17Z</time></trkpt><trkpt lat="38.21541070640259" lon="16.246691209352864"><ele>7.0</ele><time>2026-03-22T08:35:18Z</time></trkpt><trkpt lat="38.21550677344184" lon="16.246821418422112"><ele>7.0</ele><time>2026-03-22T08:35:19Z</time></trkpt><trkpt lat="38.21562443635215" lon="16.246918645169785"><ele>7.0</ele><time>2026-03-22T08:35:20Z</time></trkpt><trkpt lat="38.2157519660769" lon="16.24704641457654"><ele>7.0</ele><time>2026-03-22T08:35:21Z</time></trkpt><trkpt lat="38.215879614635774" lon="16.24718741041351"><ele>6.333333333333334</ele><time>2026-03-22T08:35:22Z</time></trkpt><trkpt lat="38.21601832060017" lon="16.247333883835488"><ele>5.666666666666667</ele><time>2026-03-22T08:35:23Z</time></trkpt><trkpt lat="38.21617290492479" lon="16.247476753219487"><ele>5.0</ele><time>2026-03-22T08:35:24Z</time></trkpt><trkpt lat="38.216326788168594" lon="16.24764075121237"><ele>5.0</ele><time>2026-03-22T08:35:25Z</time></trkpt><trkpt lat="38.21647902434463" lon="16.247800454304688"><ele>5.0</ele><time>2026-03-22T08:35:26Z</time></trkpt><trkpt lat="38.21664878221692" lon="16.247953242674892"><ele>5.0</ele><time>2026-03-22T08:35:27Z</time></trkpt><trkpt lat="38.216808032287226" lon="16.24811373168841"><ele>5.333333333333334</ele><time>2026-03-22T08:35:28Z</time></trkpt><trkpt lat="38.21697534552695" lon="16.24827075787756"><ele>5.666666666666667</ele><time>2026-03-22T08:35:29Z</time></trkpt><trkpt lat="38.21714587469276" lon="16.248440542949062"><ele>6.0</ele><time>2026-03-22T08:35:30Z</time></trkpt><trkpt lat="38.21731464886667" lon="16.248622386996328"><ele>6.0</ele><time>2026-03-22T08:35:31Z</time></trkpt><trkpt lat="38.21748382359393" lon="16.24881358909995"><ele>6.0</ele><time>2026-03-22T08:35:32Z</time></trkpt><trkpt lat="38.217655502615294" lon="16.248997874274803"><ele>6.0</ele><time>2026-03-22T08:35:33Z</time></trkpt><trkpt lat="38.2178322315309" lon="16.24915985512344"><ele>6.0</ele><time>2026-03-22T08:35:34Z</time></trkpt><trkpt lat="38.21800810581349" lon="16.249334113838678"><ele>6.0</ele><time>2026-03-22T08:35:35Z</time></trkpt><trkpt lat="38.21818509669687" lon="16.24950558591893"><ele>5.666666666666667</ele><time>2026-03-22T08:35:36Z</time></trkpt><trkpt lat="38.218362450379026" lon="16.249679457139333"><ele>5.333333333333334</ele><time>2026-03-22T08:35:37Z</time></trkpt><trkpt lat="38.21853975584566" lon="16.249853409490928"><ele>5.0</ele><time>2026-03-22T08:35:38Z</time></trkpt><trkpt lat="38.21871552693101" lon="16.250027145000207"><ele>5.0</ele><time>2026-03-22T08:35:39Z</time></trkpt><trkpt lat="38.21889144775944" lon="16.250203989662843"><ele>5.0</ele><time>2026-03-22T08:35:40Z</time></trkpt><trkpt lat="38.21906906046562" lon="16.25037813500326"><ele>5.0</ele><time>2026-03-22T08:35:41Z</time></trkpt><trkpt lat="38.21924215926683" lon="16.250553867748014"><ele>6.333333333333334</ele><time>2026-03-22T08:35:42Z</time></trkpt><trkpt lat="38.21941679734493" lon="16.250728690226914"><ele>7.666666666666667</ele><time>2026-03-22T08:35:43Z</time></trkpt><trkpt lat="38.21959021924482" lon="16.25090382232441"><ele>9.0</ele><time>2026-03-22T08:35:44Z</time></trkpt><trkpt lat="38.219768350537834" lon="16.251078769129357"><ele>8.0</ele><time>2026-03-22T08:35:45Z</time></trkpt><trkpt lat="38.21994461634789" lon="16.251256455964224"><ele>7.0</ele><time>2026-03-22T08:35:46Z</time></trkpt><trkpt lat="38.22012375968469" lon="16.251437043165772"><ele>7.0</ele><time>2026-03-22T08:35:47Z</time></trkpt><trkpt lat="38.22030417086596" lon="16.25161959403929"><ele>7.0</ele><time>2026-03-22T08:35:48Z</time></trkpt><trkpt lat="38.22048332901707" lon="16.251800161607633"><ele>6.5</ele><time>2026-03-22T08:35:49Z</time></trkpt><trkpt lat="38.220662552203585" lon="16.25198217981845"><ele>6.0</ele><time>2026-03-22T08:35:50Z</time></trkpt><trkpt lat="38.22084527036137" lon="16.25216161009697"><ele>5.5</ele><time>2026-03-22T08:35:51Z</time></trkpt><trkpt lat="38.22102465484265" lon="16.252345420980784"><ele>5.0</ele><time>2026-03-22T08:35:52Z</time></trkpt><trkpt lat="38.221204809419596" lon="16.252526962797603"><ele>5.0</ele><time>2026-03-22T08:35:53Z</time></trkpt><trkpt lat="38.22138465835705" lon="16.252704191809674"><ele>5.0</ele><time>2026-03-22T08:35:54Z</time></trkpt><trkpt lat="38.22156424235123" lon="16.25288115599044"><ele>5.0</ele><time>2026-03-22T08:35:55Z</time></trkpt><trkpt lat="38.22174604097833" lon="16.253054451419775"><ele>5.0</ele><time>2026-03-22T08:35:56Z</time></trkpt><trkpt lat="38.22192565237614" lon="16.253228418893876"><ele>4.5</ele><time>2026-03-22T08:35:57Z</time></trkpt><trkpt lat="38.222100636343264" lon="16.253410883432487"><ele>4.0</ele><time>2026-03-22T08:35:58Z</time></trkpt><trkpt lat="38.22227680526983" lon="16.25359204666385"><ele>4.5</ele><time>2026-03-22T08:35:59Z</time></trkpt><trkpt lat="38.22245469584944" lon="16.25376817977191"><ele>5.0</ele><time>2026-03-22T08:36:00Z</time></trkpt><trkpt lat="38.22263401516256" lon="16.253945781251375"><ele>4.5</ele><time>2026-03-22T08:36:01Z</time></trkpt><trkpt lat="38.22281317182357" lon="16.254123057718292"><ele>4.0</ele><time>2026-03-22T08:36:02Z</time></trkpt><trkpt lat="38.22299256515607" lon="16.254298287418937"><ele>5.0</ele><time>2026-03-22T08:36:03Z</time></trkpt><trkpt lat="38.22317439735717" lon="16.254476357515127"><ele>6.0</ele><time>2026-03-22T08:36:04Z</time></trkpt><trkpt lat="38.22335477960203" lon="16.25465467132442"><ele>6.0</ele><time>2026-03-22T08:36:05Z</time></trkpt><trkpt lat="38.223536032274694" lon="16.25483937707235"><ele>6.0</ele><time>2026-03-22T08:36:06Z</time></trkpt><trkpt lat="38.22371582274088" lon="16.255018490822803"><ele>6.0</ele><time>2026-03-22T08:36:07Z</time></trkpt><trkpt lat="38.223894794273754" lon="16.25519693810874"><ele>6.0</ele><time>2026-03-22T08:36:08Z</time></trkpt><trkpt lat="38.22407674754831" lon="16.255370196329334"><ele>6.0</ele><time>2026-03-22T08:36:09Z</time></trkpt><trkpt lat="38.224255769875725" lon="16.255537869686417"><ele>6.0</ele><time>2026-03-22T08:36:10Z</time></trkpt><trkpt lat="38.22443269708084" lon="16.25569916433533"><ele>6.0</ele><time>2026-03-22T08:36:11Z</time></trkpt><trkpt lat="38.2246081171483" lon="16.255858203782726"><ele>5.666666666666667</ele><time>2026-03-22T08:36:12Z</time></trkpt><trkpt lat="38.22477087071798" lon="16.256024094215306"><ele>5.333333333333334</ele><time>2026-03-22T08:36:13Z</time></trkpt><trkpt lat="38.22494096937022" lon="16.256196970830633"><ele>5.0</ele><time>2026-03-22T08:36:14Z</time></trkpt><trkpt lat="38.225102897702484" lon="16.25635520178192"><ele>5.0</ele><time>2026-03-22T08:36:15Z</time></trkpt><trkpt lat="38.225264028285395" lon="16.25651267739201"><ele>5.0</ele><time>2026-03-22T08:36:16Z</time></trkpt><trkpt lat="38.225423794009004" lon="16.256667421421565"><ele>5.0</ele><time>2026-03-22T08:36:17Z</time></trkpt><trkpt lat="38.225574124535754" lon="16.256809483796587"><ele>6.0</ele><time>2026-03-22T08:36:18Z</time></trkpt><trkpt lat="38.22571051813379" lon="16.256956391105483"><ele>7.0</ele><time>2026-03-22T08:36:19Z</time></trkpt><trkpt lat="38.225847079663886" lon="16.257099276157152"><ele>8.0</ele><time>2026-03-22T08:36:20Z</time></trkpt><trkpt lat="38.22597504945677" lon="16.2572155006512"><ele>7.666666666666666</ele><time>2026-03-22T08:36:21Z</time></trkpt><trkpt lat="38.22611169171367" lon="16.257355371147955"><ele>7.333333333333334</ele><time>2026-03-22T08:36:22Z</time></trkpt><trkpt lat="38.226251278236894" lon="16.25749121059339"><ele>7.0</ele><time>2026-03-22T08:36:23Z</time></trkpt><trkpt lat="38.226388897949086" lon="16.257627669743567"><ele>7.0</ele><time>2026-03-22T08:36:24Z</time></trkpt><trkpt lat="38.22651033935553" lon="16.257776683699102"><ele>7.0</ele><time>2026-03-22T08:36:25Z</time></trkpt><trkpt lat="38.226642486567144" lon="16.257910055056524"><ele>7.0</ele><time>2026-03-22T08:36:26Z</time></trkpt><trkpt lat="38.226782338314315" lon="16.258051202321255"><ele>7.0</ele><time>2026-03-22T08:36:27Z</time></trkpt><trkpt lat="38.22691718538508" lon="16.258187299143977"><ele>7.0</ele><time>2026-03-22T08:36:28Z</time></trkpt><trkpt lat="38.22705450142895" lon="16.258280218908663"><ele>7.0</ele><time>2026-03-22T08:36:29Z</time></trkpt><trkpt lat="38.22716321050233" lon="16.258451319877423"><ele>7.0</ele><time>2026-03-22T08:36:30Z</time></trkpt><trkpt lat="38.227299815985496" lon="16.258585278164603"><ele>7.0</ele><time>2026-03-22T08:36:31Z</time></trkpt><trkpt lat="38.227452825210825" lon="16.25871242097071"><ele>7.0</ele><time>2026-03-22T08:36:32Z</time></trkpt><trkpt lat="38.227581622490014" lon="16.258846564027824"><ele>6.333333333333334</ele><time>2026-03-22T08:36:33Z</time></trkpt><trkpt lat="38.22771876464295" lon="16.258977843985498"><ele>5.666666666666667</ele><time>2026-03-22T08:36:34Z</time></trkpt><trkpt lat="38.22785623592004" lon="16.259104745573598"><ele>5.0</ele><time>2026-03-22T08:36:35Z</time></trkpt><trkpt lat="38.22799129457654" lon="16.259244616471182"><ele>5.0</ele><time>2026-03-22T08:36:36Z</time></trkpt><trkpt lat="38.22811361798541" lon="16.259377382985033"><ele>5.0</ele><time>2026-03-22T08:36:37Z</time></trkpt><trkpt lat="38.2282468410239" lon="16.25951775050181"><ele>5.0</ele><time>2026-03-22T08:36:38Z</time></trkpt><trkpt lat="38.22838843033446" lon="16.259654487773602"><ele>5.666666666666667</ele><time>2026-03-22T08:36:39Z</time></trkpt><trkpt lat="38.228540420383766" lon="16.25979751536514"><ele>6.333333333333334</ele><time>2026-03-22T08:36:40Z</time></trkpt><trkpt lat="38.228682311725734" lon="16.25993236490891"><ele>7.0</ele><time>2026-03-22T08:36:41Z</time></trkpt><trkpt lat="38.228822322506126" lon="16.260064786053977"><ele>7.0</ele><time>2026-03-22T08:36:42Z</time></trkpt><trkpt lat="38.22895522094526" lon="16.260208519786474"><ele>7.0</ele><time>2026-03-22T08:36:43Z</time></trkpt><trkpt lat="38.2290884995275" lon="16.260342399537155"><ele>7.0</ele><time>2026-03-22T08:36:44Z</time></trkpt><trkpt lat="38.229224824909146" lon="16.260475386938094"><ele>6.666666666666667</ele><time>2026-03-22T08:36:45Z</time></trkpt><trkpt lat="38.22936073925432" lon="16.260604662801686"><ele>6.333333333333334</ele><time>2026-03-22T08:36:46Z</time></trkpt><trkpt lat="38.229482200683975" lon="16.26071917445161"><ele>6.0</ele><time>2026-03-22T08:36:47Z</time></trkpt><trkpt lat="38.22962573043874" lon="16.260821180305665"><ele>6.0</ele><time>2026-03-22T08:36:48Z</time></trkpt><trkpt lat="38.229778672478005" lon="16.260846554378638"><ele>6.0</ele><time>2026-03-22T08:36:49Z</time></trkpt><trkpt lat="38.2299070934852" lon="16.260891157542073"><ele>6.0</ele><time>2026-03-22T08:36:50Z</time></trkpt><trkpt lat="38.23004976325175" lon="16.260938251553117"><ele>6.0</ele><time>2026-03-22T08:36:51Z</time></trkpt><trkpt lat="38.23019056546167" lon="16.26097677362277"><ele>6.333333333333334</ele><time>2026-03-22T08:36:52Z</time></trkpt><trkpt lat="38.230374518387315" lon="16.261001475736624"><ele>6.666666666666667</ele><time>2026-03-22T08:36:53Z</time></trkpt><trkpt lat="38.230528096915954" lon="16.26105926562696"><ele>7.0</ele><time>2026-03-22T08:36:54Z</time></trkpt><trkpt lat="38.230663777053906" lon="16.261162580567404"><ele>7.5</ele><time>2026-03-22T08:36:55Z</time></trkpt><trkpt lat="38.23079768213228" lon="16.26120590225869"><ele>8.0</ele><time>2026-03-22T08:36:56Z</time></trkpt><trkpt lat="38.23093558011272" lon="16.26125582760551"><ele>8.5</ele><time>2026-03-22T08:36:57Z</time></trkpt><trkpt lat="38.23106847921818" lon="16.261312090441084"><ele>9.0</ele><time>2026-03-22T08:36:58Z</time></trkpt><trkpt lat="38.2311920482979" lon="16.261384662590515"><ele>9.0</ele><time>2026-03-22T08:36:59Z</time></trkpt><trkpt lat="38.23130678772298" lon="16.261461477676686"><ele>9.0</ele><time>2026-03-22T08:37:00Z</time></trkpt><trkpt lat="38.2314117837377" lon="16.261541114098495"><ele>9.0</ele><time>2026-03-22T08:37:01Z</time></trkpt><trkpt lat="38.231512579497775" lon="16.261623676151338"><ele>9.0</ele><time>2026-03-22T08:37:02Z</time></trkpt><trkpt lat="38.23161719516714" lon="16.261717408368092"><ele>9.25</ele><time>2026-03-22T08:37:03Z</time></trkpt><trkpt lat="38.231723373921355" lon="16.2618196805281"><ele>9.5</ele><time>2026-03-22T08:37:04Z</time></trkpt><trkpt lat="38.231833688108836" lon="16.26192997128262"><ele>9.75</ele><time>2026-03-22T08:37:05Z</time></trkpt><trkpt lat="38.23194877331861" lon="16.262045032076003"><ele>10.0</ele><time>2026-03-22T08:37:06Z</time></trkpt><trkpt lat="38.232065583385925" lon="16.262161817307845"><ele>9.666666666666668</ele><time>2026-03-22T08:37:07Z</time></trkpt><trkpt lat="38.23218550200071" lon="16.262281710626922"><ele>9.333333333333334</ele><time>2026-03-22T08:37:08Z</time></trkpt><trkpt lat="38.23230907105149" lon="16.26240406605561"><ele>9.0</ele><time>2026-03-22T08:37:09Z</time></trkpt><trkpt lat="38.2324280117463" lon="16.262520665630586"><ele>9.0</ele><time>2026-03-22T08:37:10Z</time></trkpt><trkpt lat="38.23253619969092" lon="16.26262590541976"><ele>9.0</ele><time>2026-03-22T08:37:11Z</time></trkpt><trkpt lat="38.232639767071625" lon="16.26272633720466"><ele>9.0</ele><time>2026-03-22T08:37:12Z</time></trkpt><trkpt lat="38.23273586086726" lon="16.26282045190681"><ele>9.0</ele><time>2026-03-22T08:37:13Z</time></trkpt><trkpt lat="38.23283504389503" lon="16.26291906202345"><ele>9.0</ele><time>2026-03-22T08:37:14Z</time></trkpt><trkpt lat="38.23293891835695" lon="16.263022336531506"><ele>9.0</ele><time>2026-03-22T08:37:15Z</time></trkpt><trkpt lat="38.2330402121769" lon="16.263123045300937"><ele>9.0</ele><time>2026-03-22T08:37:16Z</time></trkpt><trkpt lat="38.23313276396951" lon="16.263215062615647"><ele>9.0</ele><time>2026-03-22T08:37:17Z</time></trkpt><trkpt lat="38.233216435502875" lon="16.26329825081171"><ele>9.4</ele><time>2026-03-22T08:37:18Z</time></trkpt><trkpt lat="38.233291672323475" lon="16.26337377064535"><ele>9.8</ele><time>2026-03-22T08:37:19Z</time></trkpt><trkpt lat="38.233361905093155" lon="16.263444274407455"><ele>10.200000000000001</ele><time>2026-03-22T08:37:20Z</time></trkpt><trkpt lat="38.23342309740774" lon="16.263505702716962"><ele>10.600000000000001</ele><time>2026-03-22T08:37:21Z</time></trkpt><trkpt lat="38.23351305056682" lon="16.263596000754465"><ele>11.0</ele><time>2026-03-22T08:37:23Z</time></trkpt><trkpt lat="38.23357286037299" lon="16.263658309277073"><ele>11.0</ele><time>2026-03-22T08:37:26Z</time></trkpt><trkpt lat="38.233660903044765" lon="16.263748757085455"><ele>11.0</ele><time>2026-03-22T08:37:52Z</time></trkpt><trkpt lat="38.23371693670947" lon="16.263806320255124"><ele>11.0</ele><time>2026-03-22T08:37:53Z</time></trkpt><trkpt lat="38.2337793727267" lon="16.263870175930666"><ele>11.0</ele><time>2026-03-22T08:37:54Z</time></trkpt><trkpt lat="38.23385582978814" lon="16.263948447996057"><ele>11.0</ele><time>2026-03-22T08:37:55Z</time></trkpt><trkpt lat="38.23394664742449" lon="16.264041420787645"><ele>11.4</ele><time>2026-03-22T08:37:56Z</time></trkpt><trkpt lat="38.23404220689205" lon="16.264134903640592"><ele>11.8</ele><time>2026-03-22T08:37:57Z</time></trkpt><trkpt lat="38.23413771509571" lon="16.264204500113937"><ele>12.200000000000001</ele><time>2026-03-22T08:37:58Z</time></trkpt><trkpt lat="38.23421637938127" lon="16.264296705529087"><ele>12.600000000000001</ele><time>2026-03-22T08:37:59Z</time></trkpt><trkpt lat="38.234277265698985" lon="16.26437924401958"><ele>13.0</ele><time>2026-03-22T08:38:00Z</time></trkpt><trkpt lat="38.23434595407534" lon="16.264444121208147"><ele>13.0</ele><time>2026-03-22T08:38:01Z</time></trkpt><trkpt lat="38.23440643167946" lon="16.264531972484352"><ele>13.0</ele><time>2026-03-22T08:38:02Z</time></trkpt><trkpt lat="38.234471503132106" lon="16.264631493286693"><ele>13.0</ele><time>2026-03-22T08:38:03Z</time></trkpt><trkpt lat="38.23456190091186" lon="16.264725756699885"><ele>13.0</ele><time>2026-03-22T08:38:04Z</time></trkpt><trkpt lat="38.234660634842975" lon="16.264813573637248"><ele>13.0</ele><time>2026-03-22T08:38:05Z</time></trkpt><trkpt lat="38.234770077364864" lon="16.264896657688027"><ele>12.25</ele><time>2026-03-22T08:38:06Z</time></trkpt><trkpt lat="38.23487241043868" lon="16.265002148505985"><ele>11.5</ele><time>2026-03-22T08:38:07Z</time></trkpt><trkpt lat="38.234971067736915" lon="16.26508704949418"><ele>10.75</ele><time>2026-03-22T08:38:08Z</time></trkpt><trkpt lat="38.23507596853724" lon="16.26516771747836"><ele>10.0</ele><time>2026-03-22T08:38:09Z</time></trkpt><trkpt lat="38.23515829555956" lon="16.265243835441023"><ele>10.0</ele><time>2026-03-22T08:38:10Z</time></trkpt><trkpt lat="38.23523307304652" lon="16.26529426086027"><ele>10.0</ele><time>2026-03-22T08:38:11Z</time></trkpt><trkpt lat="38.23529307341145" lon="16.26534017188801"><ele>10.0</ele><time>2026-03-22T08:38:12Z</time></trkpt><trkpt lat="38.23538121147284" lon="16.26545279843717"><ele>10.0</ele><time>2026-03-22T08:38:14Z</time></trkpt><trkpt lat="38.23545679029277" lon="16.265528335580196"><ele>10.0</ele><time>2026-03-22T08:38:16Z</time></trkpt><trkpt lat="38.235541290825935" lon="16.265612789737514"><ele>10.0</ele><time>2026-03-22T08:38:18Z</time></trkpt><trkpt lat="38.23561965629" lon="16.26569094046999"><ele>10.0</ele><time>2026-03-22T08:38:35Z</time></trkpt><trkpt lat="38.23571171705689" lon="16.26578279694316"><ele>10.0</ele><time>2026-03-22T08:38:48Z</time></trkpt><trkpt lat="38.235766714362846" lon="16.265838191770886"><ele>10.0</ele><time>2026-03-22T08:38:49Z</time></trkpt><trkpt lat="38.23583433663281" lon="16.26590616934769"><ele>10.0</ele><time>2026-03-22T08:38:50Z</time></trkpt><trkpt lat="38.23591702593873" lon="16.265989293067513"><ele>10.25</ele><time>2026-03-22T08:38:51Z</time></trkpt><trkpt lat="38.23601175633303" lon="16.266070295795405"><ele>10.5</ele><time>2026-03-22T08:38:52Z</time></trkpt><trkpt lat="38.236079548322806" lon="16.266203915742278"><ele>10.75</ele><time>2026-03-22T08:38:53Z</time></trkpt><trkpt lat="38.23619560220905" lon="16.26629108053479"><ele>11.0</ele><time>2026-03-22T08:38:54Z</time></trkpt><trkpt lat="38.23629639173304" lon="16.266403337780716"><ele>11.0</ele><time>2026-03-22T08:38:55Z</time></trkpt><trkpt lat="38.23640197743057" lon="16.266516946239467"><ele>11.0</ele><time>2026-03-22T08:38:56Z</time></trkpt><trkpt lat="38.236509071432565" lon="16.266627281228445"><ele>11.0</ele><time>2026-03-22T08:38:57Z</time></trkpt><trkpt lat="38.236617321301175" lon="16.266751507648"><ele>11.0</ele><time>2026-03-22T08:38:58Z</time></trkpt><trkpt lat="38.23672301000016" lon="16.266877605763927"><ele>11.0</ele><time>2026-03-22T08:38:59Z</time></trkpt><trkpt lat="38.236830614177464" lon="16.26699573894554"><ele>11.0</ele><time>2026-03-22T08:39:00Z</time></trkpt><trkpt lat="38.236967192748175" lon="16.267071420168772"><ele>11.0</ele><time>2026-03-22T08:39:01Z</time></trkpt><trkpt lat="38.23708929228715" lon="16.267146853177497"><ele>11.0</ele><time>2026-03-22T08:39:02Z</time></trkpt><trkpt lat="38.237197893342426" lon="16.26727281237413"><ele>11.0</ele><time>2026-03-22T08:39:03Z</time></trkpt><trkpt lat="38.23730691533266" lon="16.26739158562495"><ele>11.0</ele><time>2026-03-22T08:39:04Z</time></trkpt><trkpt lat="38.23743554885731" lon="16.26750960377466"><ele>11.0</ele><time>2026-03-22T08:39:05Z</time></trkpt><trkpt lat="38.237542075261985" lon="16.267615305361904"><ele>11.0</ele><time>2026-03-22T08:39:06Z</time></trkpt><trkpt lat="38.237656027507285" lon="16.26772925417976"><ele>11.0</ele><time>2026-03-22T08:39:07Z</time></trkpt><trkpt lat="38.237772179843326" lon="16.267845086681888"><ele>11.0</ele><time>2026-03-22T08:39:08Z</time></trkpt><trkpt lat="38.237885638664544" lon="16.267958233088443"><ele>11.0</ele><time>2026-03-22T08:39:09Z</time></trkpt><trkpt lat="38.23800184606232" lon="16.26807412048266"><ele>11.0</ele><time>2026-03-22T08:39:10Z</time></trkpt><trkpt lat="38.238119593646076" lon="16.268191543813952"><ele>10.75</ele><time>2026-03-22T08:39:11Z</time></trkpt><trkpt lat="38.23823213231694" lon="16.268302936201774"><ele>10.5</ele><time>2026-03-22T08:39:12Z</time></trkpt><trkpt lat="38.23834251660484" lon="16.268387649800374"><ele>10.25</ele><time>2026-03-22T08:39:13Z</time></trkpt><trkpt lat="38.23843716499982" lon="16.26852112551541"><ele>10.0</ele><time>2026-03-22T08:39:14Z</time></trkpt><trkpt lat="38.23855339577763" lon="16.268649259293856"><ele>10.0</ele><time>2026-03-22T08:39:15Z</time></trkpt><trkpt lat="38.23867132705009" lon="16.26876507334156"><ele>10.0</ele><time>2026-03-22T08:39:16Z</time></trkpt><trkpt lat="38.238776777650195" lon="16.26888342550548"><ele>10.0</ele><time>2026-03-22T08:39:17Z</time></trkpt><trkpt lat="38.238897526050685" lon="16.268984315810265"><ele>10.0</ele><time>2026-03-22T08:39:18Z</time></trkpt><trkpt lat="38.23901846269074" lon="16.26910444987179"><ele>9.333333333333334</ele><time>2026-03-22T08:39:19Z</time></trkpt><trkpt lat="38.23913364926211" lon="16.26923662637352"><ele>8.666666666666666</ele><time>2026-03-22T08:39:20Z</time></trkpt><trkpt lat="38.23926962657142" lon="16.269349667208775"><ele>8.0</ele><time>2026-03-22T08:39:21Z</time></trkpt><trkpt lat="38.23940248433536" lon="16.269464883634207"><ele>8.0</ele><time>2026-03-22T08:39:22Z</time></trkpt><trkpt lat="38.239533841913214" lon="16.2695776262566"><ele>8.0</ele><time>2026-03-22T08:39:23Z</time></trkpt><trkpt lat="38.239649477600906" lon="16.26970068295567"><ele>8.0</ele><time>2026-03-22T08:39:24Z</time></trkpt><trkpt lat="38.239759750607995" lon="16.269841541675497"><ele>9.333333333333332</ele><time>2026-03-22T08:39:25Z</time></trkpt><trkpt lat="38.23988220654339" lon="16.269963870773935"><ele>10.666666666666666</ele><time>2026-03-22T08:39:26Z</time></trkpt><trkpt lat="38.2400065296269" lon="16.27008790998695"><ele>12.0</ele><time>2026-03-22T08:39:27Z</time></trkpt><trkpt lat="38.24012857880402" lon="16.270209680969785"><ele>12.0</ele><time>2026-03-22T08:39:28Z</time></trkpt><trkpt lat="38.2402611459263" lon="16.270329112938242"><ele>12.0</ele><time>2026-03-22T08:39:29Z</time></trkpt><trkpt lat="38.24037445792007" lon="16.270452792504777"><ele>12.0</ele><time>2026-03-22T08:39:30Z</time></trkpt><trkpt lat="38.24048228289707" lon="16.27059461207139"><ele>11.666666666666666</ele><time>2026-03-22T08:39:31Z</time></trkpt><trkpt lat="38.24060377984206" lon="16.270704017984894"><ele>11.333333333333332</ele><time>2026-03-22T08:39:32Z</time></trkpt><trkpt lat="38.24073956567638" lon="16.270808131891787"><ele>11.0</ele><time>2026-03-22T08:39:33Z</time></trkpt><trkpt lat="38.24085112813541" lon="16.270949467134024"><ele>11.0</ele><time>2026-03-22T08:39:34Z</time></trkpt><trkpt lat="38.24098637345203" lon="16.271052879143944"><ele>11.0</ele><time>2026-03-22T08:39:35Z</time></trkpt><trkpt lat="38.241117321708195" lon="16.27118925789612"><ele>11.0</ele><time>2026-03-22T08:39:36Z</time></trkpt><trkpt lat="38.24124780637478" lon="16.271317149808016"><ele>10.333333333333332</ele><time>2026-03-22T08:39:37Z</time></trkpt><trkpt lat="38.24137699495381" lon="16.271443872886234"><ele>9.666666666666666</ele><time>2026-03-22T08:39:38Z</time></trkpt><trkpt lat="38.24151285242471" lon="16.27157713754593"><ele>9.0</ele><time>2026-03-22T08:39:39Z</time></trkpt><trkpt lat="38.24160593320397" lon="16.271697176733323"><ele>9.0</ele><time>2026-03-22T08:39:40Z</time></trkpt><trkpt lat="38.241750552826836" lon="16.271820955827497"><ele>9.0</ele><time>2026-03-22T08:39:41Z</time></trkpt><trkpt lat="38.24188887969448" lon="16.271920741204443"><ele>9.0</ele><time>2026-03-22T08:39:42Z</time></trkpt><trkpt lat="38.241999516025835" lon="16.2720439941539"><ele>9.0</ele><time>2026-03-22T08:39:43Z</time></trkpt><trkpt lat="38.24212196023076" lon="16.272187764663713"><ele>9.0</ele><time>2026-03-22T08:39:44Z</time></trkpt><trkpt lat="38.242243059407514" lon="16.27231429009011"><ele>9.0</ele><time>2026-03-22T08:39:45Z</time></trkpt><trkpt lat="38.24237827893427" lon="16.27244447781929"><ele>9.0</ele><time>2026-03-22T08:39:46Z</time></trkpt><trkpt lat="38.242512086116946" lon="16.27257970445136"><ele>9.0</ele><time>2026-03-22T08:39:47Z</time></trkpt><trkpt lat="38.24263686725394" lon="16.272716459683387"><ele>9.0</ele><time>2026-03-22T08:39:48Z</time></trkpt><trkpt lat="38.242760852411116" lon="16.272848293892476"><ele>9.0</ele><time>2026-03-22T08:39:49Z</time></trkpt><trkpt lat="38.242880103567465" lon="16.27297754162238"><ele>9.0</ele><time>2026-03-22T08:39:50Z</time></trkpt><trkpt lat="38.24300376182601" lon="16.27311003780452"><ele>9.0</ele><time>2026-03-22T08:39:51Z</time></trkpt><trkpt lat="38.24313685951613" lon="16.273230923407482"><ele>8.333333333333334</ele><time>2026-03-22T08:39:52Z</time></trkpt><trkpt lat="38.2432826776507" lon="16.273343577921437"><ele>7.666666666666667</ele><time>2026-03-22T08:39:53Z</time></trkpt><trkpt lat="38.24341117562779" lon="16.27347763095757"><ele>7.0</ele><time>2026-03-22T08:39:54Z</time></trkpt><trkpt lat="38.243547443106" lon="16.27360756295845"><ele>7.0</ele><time>2026-03-22T08:39:55Z</time></trkpt><trkpt lat="38.243700989810485" lon="16.273723355138248"><ele>7.0</ele><time>2026-03-22T08:39:56Z</time></trkpt><trkpt lat="38.24384458770708" lon="16.273854410029216"><ele>7.0</ele><time>2026-03-22T08:39:57Z</time></trkpt><trkpt lat="38.2439905561318" lon="16.273979364990055"><ele>7.666666666666667</ele><time>2026-03-22T08:39:58Z</time></trkpt><trkpt lat="38.24413355290834" lon="16.274102712075805"><ele>8.333333333333334</ele><time>2026-03-22T08:39:59Z</time></trkpt><trkpt lat="38.24427412265443" lon="16.27422279356861"><ele>9.0</ele><time>2026-03-22T08:40:00Z</time></trkpt><trkpt lat="38.24440533594975" lon="16.274314964606866"><ele>9.0</ele><time>2026-03-22T08:40:01Z</time></trkpt><trkpt lat="38.2445114384767" lon="16.274403903670823"><ele>9.0</ele><time>2026-03-22T08:40:02Z</time></trkpt><trkpt lat="38.24462695926027" lon="16.27448459056623"><ele>9.0</ele><time>2026-03-22T08:40:03Z</time></trkpt><trkpt lat="38.24474162339663" lon="16.274578548205014"><ele>9.0</ele><time>2026-03-22T08:40:04Z</time></trkpt><trkpt lat="38.24485910901939" lon="16.27467959458795"><ele>9.0</ele><time>2026-03-22T08:40:05Z</time></trkpt><trkpt lat="38.24498150305024" lon="16.274790387246973"><ele>9.0</ele><time>2026-03-22T08:40:06Z</time></trkpt><trkpt lat="38.245101914982" lon="16.274922615594782"><ele>9.0</ele><time>2026-03-22T08:40:07Z</time></trkpt><trkpt lat="38.24523674644289" lon="16.27506940875193"><ele>9.0</ele><time>2026-03-22T08:40:08Z</time></trkpt><trkpt lat="38.24537509528177" lon="16.275210773319852"><ele>9.0</ele><time>2026-03-22T08:40:09Z</time></trkpt><trkpt lat="38.24551677839388" lon="16.27534927163035"><ele>9.0</ele><time>2026-03-22T08:40:10Z</time></trkpt><trkpt lat="38.24565952003219" lon="16.275487445587814"><ele>9.0</ele><time>2026-03-22T08:40:11Z</time></trkpt><trkpt lat="38.245806351308794" lon="16.275641269320058"><ele>9.0</ele><time>2026-03-22T08:40:12Z</time></trkpt><trkpt lat="38.245953637114575" lon="16.275801970193502"><ele>9.0</ele><time>2026-03-22T08:40:13Z</time></trkpt><trkpt lat="38.24609423301618" lon="16.27596480898355"><ele>9.0</ele><time>2026-03-22T08:40:14Z</time></trkpt><trkpt lat="38.246232925583215" lon="16.276126561215165"><ele>9.0</ele><time>2026-03-22T08:40:15Z</time></trkpt><trkpt lat="38.24637283610463" lon="16.2762784128103"><ele>9.0</ele><time>2026-03-22T08:40:16Z</time></trkpt><trkpt lat="38.246497860747276" lon="16.276449436466198"><ele>8.333333333333334</ele><time>2026-03-22T08:40:17Z</time></trkpt><trkpt lat="38.24663027211225" lon="16.276601094631584"><ele>7.666666666666667</ele><time>2026-03-22T08:40:18Z</time></trkpt><trkpt lat="38.24676102778573" lon="16.276754146484258"><ele>7.0</ele><time>2026-03-22T08:40:19Z</time></trkpt><trkpt lat="38.246896055814446" lon="16.27691406348005"><ele>7.0</ele><time>2026-03-22T08:40:20Z</time></trkpt><trkpt lat="38.2470290084248" lon="16.277069409265"><ele>7.0</ele><time>2026-03-22T08:40:21Z</time></trkpt><trkpt lat="38.24716860703461" lon="16.277213960160005"><ele>7.0</ele><time>2026-03-22T08:40:22Z</time></trkpt><trkpt lat="38.24732247295318" lon="16.277378129182782"><ele>5.666666666666667</ele><time>2026-03-22T08:40:23Z</time></trkpt><trkpt lat="38.247450313816834" lon="16.277550351515718"><ele>4.333333333333334</ele><time>2026-03-22T08:40:24Z</time></trkpt><trkpt lat="38.24760161842598" lon="16.277714899462648"><ele>3.0</ele><time>2026-03-22T08:40:25Z</time></trkpt><trkpt lat="38.247754293614086" lon="16.27786985815149"><ele>3.0</ele><time>2026-03-22T08:40:26Z</time></trkpt><trkpt lat="38.247917163370204" lon="16.27800749428526"><ele>3.0</ele><time>2026-03-22T08:40:27Z</time></trkpt><trkpt lat="38.2480748231326" lon="16.27816593343408"><ele>3.0</ele><time>2026-03-22T08:40:28Z</time></trkpt><trkpt lat="38.2482525652181" lon="16.2782936549235"><ele>4.0</ele><time>2026-03-22T08:40:29Z</time></trkpt><trkpt lat="38.248429954272964" lon="16.278434060902857"><ele>5.0</ele><time>2026-03-22T08:40:30Z</time></trkpt><trkpt lat="38.248606393573766" lon="16.27858716015101"><ele>6.0</ele><time>2026-03-22T08:40:31Z</time></trkpt><trkpt lat="38.24878443699161" lon="16.27871181203618"><ele>6.0</ele><time>2026-03-22T08:40:32Z</time></trkpt><trkpt lat="38.24896890331207" lon="16.2788396533388"><ele>6.0</ele><time>2026-03-22T08:40:33Z</time></trkpt><trkpt lat="38.2491388725911" lon="16.278952663763985"><ele>6.0</ele><time>2026-03-22T08:40:34Z</time></trkpt><trkpt lat="38.24930576268444" lon="16.2790636266834"><ele>6.0</ele><time>2026-03-22T08:40:35Z</time></trkpt><trkpt lat="38.24946662090228" lon="16.279151768154534"><ele>6.0</ele><time>2026-03-22T08:40:36Z</time></trkpt><trkpt lat="38.2496196576484" lon="16.279256413283953"><ele>6.0</ele><time>2026-03-22T08:40:37Z</time></trkpt><trkpt lat="38.24978840245319" lon="16.279361591661157"><ele>5.666666666666667</ele><time>2026-03-22T08:40:38Z</time></trkpt><trkpt lat="38.24994889838851" lon="16.279483269591374"><ele>5.333333333333334</ele><time>2026-03-22T08:40:39Z</time></trkpt><trkpt lat="38.250117282486116" lon="16.27959618743217"><ele>5.0</ele><time>2026-03-22T08:40:40Z</time></trkpt><trkpt lat="38.250279021012545" lon="16.279717427355692"><ele>5.0</ele><time>2026-03-22T08:40:41Z</time></trkpt><trkpt lat="38.25045619423993" lon="16.27983337384946"><ele>5.0</ele><time>2026-03-22T08:40:42Z</time></trkpt><trkpt lat="38.250625278596864" lon="16.27994924423758"><ele>5.0</ele><time>2026-03-22T08:40:43Z</time></trkpt><trkpt lat="38.250804876875186" lon="16.28006617186982"><ele>4.666666666666667</ele><time>2026-03-22T08:40:44Z</time></trkpt><trkpt lat="38.25098759744219" lon="16.280179116096445"><ele>4.333333333333333</ele><time>2026-03-22T08:40:45Z</time></trkpt><trkpt lat="38.251156016579344" lon="16.280316713237244"><ele>4.0</ele><time>2026-03-22T08:40:46Z</time></trkpt><trkpt lat="38.25134087951955" lon="16.2804183801552"><ele>3.6666666666666665</ele><time>2026-03-22T08:40:47Z</time></trkpt><trkpt lat="38.251509485759094" lon="16.28055481578757"><ele>3.333333333333333</ele><time>2026-03-22T08:40:48Z</time></trkpt><trkpt lat="38.25169466604821" lon="16.28065796472237"><ele>3.0</ele><time>2026-03-22T08:40:49Z</time></trkpt><trkpt lat="38.251870933175056" lon="16.28078784280434"><ele>2.6666666666666665</ele><time>2026-03-22T08:40:50Z</time></trkpt><trkpt lat="38.25205202609573" lon="16.280914438442334"><ele>2.333333333333333</ele><time>2026-03-22T08:40:51Z</time></trkpt><trkpt lat="38.25223675960845" lon="16.281041455583456"><ele>2.0</ele><time>2026-03-22T08:40:52Z</time></trkpt><trkpt lat="38.252424905729654" lon="16.281172600669677"><ele>2.0</ele><time>2026-03-22T08:40:53Z</time></trkpt><trkpt lat="38.25261537941746" lon="16.281301514395423"><ele>2.0</ele><time>2026-03-22T08:40:54Z</time></trkpt><trkpt lat="38.25280026216389" lon="16.2814366323197"><ele>2.0</ele><time>2026-03-22T08:40:55Z</time></trkpt><trkpt lat="38.252979792224814" lon="16.281579570018835"><ele>2.6666666666666665</ele><time>2026-03-22T08:40:56Z</time></trkpt><trkpt lat="38.25317009429098" lon="16.28169971542017"><ele>3.333333333333333</ele><time>2026-03-22T08:40:57Z</time></trkpt><trkpt lat="38.253370141296976" lon="16.281820550072112"><ele>4.0</ele><time>2026-03-22T08:40:58Z</time></trkpt><trkpt lat="38.25358074009616" lon="16.28195285725891"><ele>4.0</ele><time>2026-03-22T08:40:59Z</time></trkpt><trkpt lat="38.25375861254647" lon="16.282061129897798"><ele>4.0</ele><time>2026-03-22T08:41:00Z</time></trkpt><trkpt lat="38.25395216536524" lon="16.282192342812703"><ele>4.0</ele><time>2026-03-22T08:41:01Z</time></trkpt><trkpt lat="38.25414543457461" lon="16.282313063905185"><ele>4.0</ele><time>2026-03-22T08:41:02Z</time></trkpt><trkpt lat="38.25433045006654" lon="16.282456373951838"><ele>4.0</ele><time>2026-03-22T08:41:03Z</time></trkpt><trkpt lat="38.2545215149755" lon="16.282580911999258"><ele>4.0</ele><time>2026-03-22T08:41:04Z</time></trkpt><trkpt lat="38.25471568024936" lon="16.282710331413572"><ele>4.0</ele><time>2026-03-22T08:41:05Z</time></trkpt><trkpt lat="38.25490095242974" lon="16.282839619284434"><ele>4.0</ele><time>2026-03-22T08:41:06Z</time></trkpt><trkpt lat="38.25509600649864" lon="16.28296261148588"><ele>4.0</ele><time>2026-03-22T08:41:07Z</time></trkpt><trkpt lat="38.25528739852944" lon="16.283111982517443"><ele>4.0</ele><time>2026-03-22T08:41:08Z</time></trkpt><trkpt lat="38.255482445886656" lon="16.283222374079784"><ele>4.0</ele><time>2026-03-22T08:41:09Z</time></trkpt><trkpt lat="38.25566088876956" lon="16.283350976545083"><ele>4.0</ele><time>2026-03-22T08:41:10Z</time></trkpt><trkpt lat="38.25585708048897" lon="16.283479940359932"><ele>4.333333333333333</ele><time>2026-03-22T08:41:11Z</time></trkpt><trkpt lat="38.25604289510087" lon="16.283616366023548"><ele>4.666666666666667</ele><time>2026-03-22T08:41:12Z</time></trkpt><trkpt lat="38.256220442485095" lon="16.28373805851815"><ele>5.0</ele><time>2026-03-22T08:41:13Z</time></trkpt><trkpt lat="38.25641020137714" lon="16.283865430315394"><ele>5.666666666666667</ele><time>2026-03-22T08:41:14Z</time></trkpt><trkpt lat="38.256594387420996" lon="16.283997321081323"><ele>6.333333333333334</ele><time>2026-03-22T08:41:15Z</time></trkpt><trkpt lat="38.25677074791908" lon="16.284139101025985"><ele>7.0</ele><time>2026-03-22T08:41:16Z</time></trkpt><trkpt lat="38.25694135842572" lon="16.284266293825816"><ele>7.0</ele><time>2026-03-22T08:41:17Z</time></trkpt><trkpt lat="38.25710559581057" lon="16.28440681900118"><ele>7.0</ele><time>2026-03-22T08:41:18Z</time></trkpt><trkpt lat="38.257277195090815" lon="16.28456612396474"><ele>7.0</ele><time>2026-03-22T08:41:19Z</time></trkpt><trkpt lat="38.25744077388023" lon="16.284725607059464"><ele>6.0</ele><time>2026-03-22T08:41:20Z</time></trkpt><trkpt lat="38.25760049678705" lon="16.284878350392713"><ele>5.0</ele><time>2026-03-22T08:41:21Z</time></trkpt><trkpt lat="38.257751465451435" lon="16.2850468375342"><ele>4.0</ele><time>2026-03-22T08:41:22Z</time></trkpt><trkpt lat="38.25790456024192" lon="16.285208777797774"><ele>4.0</ele><time>2026-03-22T08:41:23Z</time></trkpt><trkpt lat="38.2580565771785" lon="16.28535671044046"><ele>4.0</ele><time>2026-03-22T08:41:24Z</time></trkpt><trkpt lat="38.25820632867675" lon="16.285515616619428"><ele>4.0</ele><time>2026-03-22T08:41:25Z</time></trkpt><trkpt lat="38.258352313888395" lon="16.285674743870533"><ele>4.666666666666666</ele><time>2026-03-22T08:41:26Z</time></trkpt><trkpt lat="38.258504201561465" lon="16.285832457414173"><ele>5.333333333333333</ele><time>2026-03-22T08:41:27Z</time></trkpt><trkpt lat="38.25865242517258" lon="16.285991936952165"><ele>6.0</ele><time>2026-03-22T08:41:28Z</time></trkpt><trkpt lat="38.25879824862647" lon="16.28616119294841"><ele>6.333333333333334</ele><time>2026-03-22T08:41:29Z</time></trkpt><trkpt lat="38.25895114545442" lon="16.28633097208918"><ele>6.666666666666667</ele><time>2026-03-22T08:41:30Z</time></trkpt><trkpt lat="38.25909419680478" lon="16.286483910768922"><ele>7.0</ele><time>2026-03-22T08:41:31Z</time></trkpt><trkpt lat="38.25922870491463" lon="16.286626270363058"><ele>6.333333333333334</ele><time>2026-03-22T08:41:32Z</time></trkpt><trkpt lat="38.25935580126591" lon="16.286751056658844"><ele>5.666666666666667</ele><time>2026-03-22T08:41:33Z</time></trkpt><trkpt lat="38.2594882643688" lon="16.28686908630779"><ele>5.0</ele><time>2026-03-22T08:41:34Z</time></trkpt><trkpt lat="38.25961549934024" lon="16.287006490950116"><ele>5.0</ele><time>2026-03-22T08:41:35Z</time></trkpt><trkpt lat="38.259755939669574" lon="16.28714916613298"><ele>5.0</ele><time>2026-03-22T08:41:36Z</time></trkpt><trkpt lat="38.259902139760925" lon="16.287310141455343"><ele>5.0</ele><time>2026-03-22T08:41:37Z</time></trkpt><trkpt lat="38.26003639507553" lon="16.287466635019328"><ele>5.0</ele><time>2026-03-22T08:41:38Z</time></trkpt><trkpt lat="38.26022488586697" lon="16.287601212598464"><ele>5.0</ele><time>2026-03-22T08:41:39Z</time></trkpt><trkpt lat="38.26037711578764" lon="16.287749320104144"><ele>5.0</ele><time>2026-03-22T08:41:40Z</time></trkpt><trkpt lat="38.260535758053884" lon="16.287915659239584"><ele>5.0</ele><time>2026-03-22T08:41:41Z</time></trkpt><trkpt lat="38.26068512444619" lon="16.288063958965896"><ele>5.0</ele><time>2026-03-22T08:41:42Z</time></trkpt><trkpt lat="38.26082996137135" lon="16.288228355604836"><ele>5.0</ele><time>2026-03-22T08:41:43Z</time></trkpt><trkpt lat="38.260974644652286" lon="16.288379342985536"><ele>5.0</ele><time>2026-03-22T08:41:44Z</time></trkpt><trkpt lat="38.261116222425834" lon="16.288538698736453"><ele>5.0</ele><time>2026-03-22T08:41:45Z</time></trkpt><trkpt lat="38.261254448565765" lon="16.288692992325966"><ele>5.0</ele><time>2026-03-22T08:41:46Z</time></trkpt><trkpt lat="38.26138807792155" lon="16.288862391440507"><ele>6.0</ele><time>2026-03-22T08:41:47Z</time></trkpt><trkpt lat="38.26151802964136" lon="16.289018885957763"><ele>7.0</ele><time>2026-03-22T08:41:48Z</time></trkpt><trkpt lat="38.26165081552774" lon="16.2891761201729"><ele>8.0</ele><time>2026-03-22T08:41:49Z</time></trkpt><trkpt lat="38.261806854251596" lon="16.2892860426716"><ele>8.0</ele><time>2026-03-22T08:41:50Z</time></trkpt><trkpt lat="38.26194815274005" lon="16.289449233448057"><ele>8.0</ele><time>2026-03-22T08:41:51Z</time></trkpt><trkpt lat="38.262068747766456" lon="16.2896208940091"><ele>8.0</ele><time>2026-03-22T08:41:52Z</time></trkpt><trkpt lat="38.26217353055419" lon="16.289772428727787"><ele>7.333333333333333</ele><time>2026-03-22T08:41:53Z</time></trkpt><trkpt lat="38.26226351582949" lon="16.28994034326512"><ele>6.666666666666666</ele><time>2026-03-22T08:41:54Z</time></trkpt><trkpt lat="38.26236604367458" lon="16.290116664327627"><ele>6.0</ele><time>2026-03-22T08:41:55Z</time></trkpt><trkpt lat="38.262462946566586" lon="16.29028861197614"><ele>6.75</ele><time>2026-03-22T08:41:56Z</time></trkpt><trkpt lat="38.26254830577578" lon="16.29045847526772"><ele>7.5</ele><time>2026-03-22T08:41:57Z</time></trkpt><trkpt lat="38.26263471578276" lon="16.29060341409635"><ele>8.25</ele><time>2026-03-22T08:41:58Z</time></trkpt><trkpt lat="38.26271318861793" lon="16.29073796890599"><ele>9.0</ele><time>2026-03-22T08:41:59Z</time></trkpt><trkpt lat="38.262793709064816" lon="16.290847258740946"><ele>9.0</ele><time>2026-03-22T08:42:00Z</time></trkpt><trkpt lat="38.26289260722167" lon="16.290972319172955"><ele>9.0</ele><time>2026-03-22T08:42:01Z</time></trkpt><trkpt lat="38.26297104138398" lon="16.291094133710416"><ele>9.0</ele><time>2026-03-22T08:42:02Z</time></trkpt><trkpt lat="38.263043724298555" lon="16.291184406548034"><ele>9.0</ele><time>2026-03-22T08:42:03Z</time></trkpt><trkpt lat="38.26312388727789" lon="16.29126341941414"><ele>9.0</ele><time>2026-03-22T08:42:04Z</time></trkpt><trkpt lat="38.263192551203225" lon="16.291331749645828"><ele>9.0</ele><time>2026-03-22T08:42:05Z</time></trkpt><trkpt lat="38.26324186283497" lon="16.291426836318564"><ele>9.0</ele><time>2026-03-22T08:42:06Z</time></trkpt><trkpt lat="38.26329226592843" lon="16.291505458916152"><ele>9.0</ele><time>2026-03-22T08:42:07Z</time></trkpt><trkpt lat="38.26331279272774" lon="16.291609669591555"><ele>9.0</ele><time>2026-03-22T08:42:08Z</time></trkpt><trkpt lat="38.2633882608961" lon="16.291728696727674"><ele>9.0</ele><time>2026-03-22T08:42:10Z</time></trkpt><trkpt lat="38.263464921283514" lon="16.29180562859233"><ele>9.0</ele><time>2026-03-22T08:42:12Z</time></trkpt><trkpt lat="38.26352281073686" lon="16.291858051963846"><ele>9.0</ele><time>2026-03-22T08:42:14Z</time></trkpt><trkpt lat="38.26357673174255" lon="16.291939995682775"><ele>9.0</ele><time>2026-03-22T08:42:16Z</time></trkpt><trkpt lat="38.26363755071873" lon="16.292032424067926"><ele>9.0</ele><time>2026-03-22T08:42:18Z</time></trkpt><trkpt lat="38.26370955528725" lon="16.29214096930463"><ele>9.0</ele><time>2026-03-22T08:42:20Z</time></trkpt><trkpt lat="38.263773527127995" lon="16.29223760208409"><ele>9.0</ele><time>2026-03-22T08:42:22Z</time></trkpt><trkpt lat="38.2638502991768" lon="16.2923535701538"><ele>9.0</ele><time>2026-03-22T08:42:24Z</time></trkpt><trkpt lat="38.263892205435575" lon="16.29241687176469"><ele>9.0</ele><time>2026-03-22T08:42:25Z</time></trkpt><trkpt lat="38.2639769740892" lon="16.292516098798764"><ele>9.0</ele><time>2026-03-22T08:42:27Z</time></trkpt><trkpt lat="38.26402394695563" lon="16.292649288495273"><ele>8.833333333333334</ele><time>2026-03-22T08:42:29Z</time></trkpt><trkpt lat="38.26405853969243" lon="16.292718839785593"><ele>8.666666666666666</ele><time>2026-03-22T08:42:30Z</time></trkpt><trkpt lat="38.264099658844344" lon="16.292807140107858"><ele>8.5</ele><time>2026-03-22T08:42:31Z</time></trkpt><trkpt lat="38.26414957970384" lon="16.292895827866765"><ele>8.333333333333332</ele><time>2026-03-22T08:42:32Z</time></trkpt><trkpt lat="38.26418274732126" lon="16.292979431373066"><ele>8.166666666666666</ele><time>2026-03-22T08:42:33Z</time></trkpt><trkpt lat="38.264231867790784" lon="16.29304662923166"><ele>8.0</ele><time>2026-03-22T08:42:34Z</time></trkpt><trkpt lat="38.26429069700129" lon="16.29313046670013"><ele>7.999999999999999</ele><time>2026-03-22T08:42:35Z</time></trkpt><trkpt lat="38.264347950548604" lon="16.293171264607608"><ele>8.0</ele><time>2026-03-22T08:42:36Z</time></trkpt><trkpt lat="38.26441221660257" lon="16.293231047582918"><ele>8.0</ele><time>2026-03-22T08:42:37Z</time></trkpt><trkpt lat="38.264476612248416" lon="16.293304907535724"><ele>8.0</ele><time>2026-03-22T08:42:38Z</time></trkpt><trkpt lat="38.264539640183294" lon="16.293383699690942"><ele>7.999999999999999</ele><time>2026-03-22T08:42:39Z</time></trkpt><trkpt lat="38.264605788919646" lon="16.293479486346563"><ele>8.0</ele><time>2026-03-22T08:42:40Z</time></trkpt><trkpt lat="38.26467328464796" lon="16.293575630244302"><ele>8.0</ele><time>2026-03-22T08:42:41Z</time></trkpt><trkpt lat="38.26474411172585" lon="16.29368292674214"><ele>8.0</ele><time>2026-03-22T08:42:42Z</time></trkpt><trkpt lat="38.26482955870795" lon="16.293787039892926"><ele>8.0</ele><time>2026-03-22T08:42:43Z</time></trkpt><trkpt lat="38.26491322128254" lon="16.293888946679335"><ele>8.0</ele><time>2026-03-22T08:42:44Z</time></trkpt><trkpt lat="38.26500543749962" lon="16.293994483240475"><ele>8.25</ele><time>2026-03-22T08:42:45Z</time></trkpt><trkpt lat="38.26511159208526" lon="16.29412701851745"><ele>8.5</ele><time>2026-03-22T08:42:46Z</time></trkpt><trkpt lat="38.26520002384818" lon="16.294222236744393"><ele>8.75</ele><time>2026-03-22T08:42:47Z</time></trkpt><trkpt lat="38.26531081640368" lon="16.29436569159282"><ele>9.0</ele><time>2026-03-22T08:42:48Z</time></trkpt><trkpt lat="38.26541541359224" lon="16.294488178535072"><ele>9.0</ele><time>2026-03-22T08:42:49Z</time></trkpt><trkpt lat="38.265533032034966" lon="16.29461033161796"><ele>9.0</ele><time>2026-03-22T08:42:50Z</time></trkpt><trkpt lat="38.26565320592485" lon="16.294728986591558"><ele>9.0</ele><time>2026-03-22T08:42:51Z</time></trkpt><trkpt lat="38.26576412045303" lon="16.29484201699528"><ele>9.0</ele><time>2026-03-22T08:42:52Z</time></trkpt><trkpt lat="38.26586809857712" lon="16.294954510010285"><ele>9.25</ele><time>2026-03-22T08:42:53Z</time></trkpt><trkpt lat="38.26597133931564" lon="16.295056438175404"><ele>9.5</ele><time>2026-03-22T08:42:54Z</time></trkpt><trkpt lat="38.266075211556185" lon="16.29515903610077"><ele>9.75</ele><time>2026-03-22T08:42:55Z</time></trkpt><trkpt lat="38.26618658587604" lon="16.295265542856352"><ele>10.0</ele><time>2026-03-22T08:42:56Z</time></trkpt><trkpt lat="38.26628757704972" lon="16.295377533767024"><ele>10.0</ele><time>2026-03-22T08:42:57Z</time></trkpt><trkpt lat="38.2663868382764" lon="16.295487052674023"><ele>10.0</ele><time>2026-03-22T08:42:58Z</time></trkpt><trkpt lat="38.266477711703544" lon="16.295602753126303"><ele>10.0</ele><time>2026-03-22T08:42:59Z</time></trkpt><trkpt lat="38.26655114560912" lon="16.295695881301928"><ele>10.0</ele><time>2026-03-22T08:43:00Z</time></trkpt><trkpt lat="38.2666351490614" lon="16.29580138569786"><ele>10.2</ele><time>2026-03-22T08:43:01Z</time></trkpt><trkpt lat="38.26671449337332" lon="16.295892824978925"><ele>10.4</ele><time>2026-03-22T08:43:02Z</time></trkpt><trkpt lat="38.26679061211718" lon="16.295952284507468"><ele>10.600000000000001</ele><time>2026-03-22T08:43:03Z</time></trkpt><trkpt lat="38.26684840236594" lon="16.296045529138755"><ele>10.8</ele><time>2026-03-22T08:43:04Z</time></trkpt><trkpt lat="38.266906833056694" lon="16.296130285252882"><ele>11.0</ele><time>2026-03-22T08:43:05Z</time></trkpt><trkpt lat="38.266964776237" lon="16.296217123282055"><ele>11.0</ele><time>2026-03-22T08:43:06Z</time></trkpt><trkpt lat="38.267029559496294" lon="16.296282599763256"><ele>11.0</ele><time>2026-03-22T08:43:07Z</time></trkpt><trkpt lat="38.26708074563103" lon="16.296334985694795"><ele>11.0</ele><time>2026-03-22T08:43:08Z</time></trkpt><trkpt lat="38.26717720250137" lon="16.296419329467682"><ele>11.0</ele><time>2026-03-22T08:43:10Z</time></trkpt><trkpt lat="38.26728713544075" lon="16.296479048188985"><ele>11.0</ele><time>2026-03-22T08:43:12Z</time></trkpt><trkpt lat="38.2673455899123" lon="16.29653487784529"><ele>11.4</ele><time>2026-03-22T08:43:13Z</time></trkpt><trkpt lat="38.26741989993755" lon="16.296600645440282"><ele>11.8</ele><time>2026-03-22T08:43:14Z</time></trkpt><trkpt lat="38.26751635908369" lon="16.296676648809708"><ele>12.200000000000001</ele><time>2026-03-22T08:43:15Z</time></trkpt><trkpt lat="38.26758945068733" lon="16.296780953587938"><ele>12.600000000000001</ele><time>2026-03-22T08:43:16Z</time></trkpt><trkpt lat="38.26767782375289" lon="16.296878000267732"><ele>13.0</ele><time>2026-03-22T08:43:17Z</time></trkpt><trkpt lat="38.26775869822754" lon="16.29696693341301"><ele>13.0</ele><time>2026-03-22T08:43:18Z</time></trkpt><trkpt lat="38.267839371962914" lon="16.29705539665621"><ele>13.0</ele><time>2026-03-22T08:43:19Z</time></trkpt><trkpt lat="38.26791337606918" lon="16.297135794549146"><ele>13.0</ele><time>2026-03-22T08:43:20Z</time></trkpt><trkpt lat="38.2679847381803" lon="16.297214187331498"><ele>13.0</ele><time>2026-03-22T08:43:21Z</time></trkpt><trkpt lat="38.26804818948331" lon="16.297283821276263"><ele>13.0</ele><time>2026-03-22T08:43:22Z</time></trkpt><trkpt lat="38.26811318175521" lon="16.29735514882904"><ele>12.666666666666666</ele><time>2026-03-22T08:43:23Z</time></trkpt><trkpt lat="38.268172669815925" lon="16.297421153643675"><ele>12.333333333333332</ele><time>2026-03-22T08:43:25Z</time></trkpt><trkpt lat="38.268223671367984" lon="16.297477365633668"><ele>12.0</ele><time>2026-03-22T08:43:35Z</time></trkpt><trkpt lat="38.26827366098269" lon="16.297531757543396"><ele>11.666666666666666</ele><time>2026-03-22T08:43:36Z</time></trkpt><trkpt lat="38.268336577165506" lon="16.29760021620062"><ele>11.333333333333332</ele><time>2026-03-22T08:43:37Z</time></trkpt><trkpt lat="38.268407020865425" lon="16.297676858469753"><ele>11.0</ele><time>2026-03-22T08:43:38Z</time></trkpt><trkpt lat="38.26847540136122" lon="16.29775174841467"><ele>11.0</ele><time>2026-03-22T08:43:39Z</time></trkpt><trkpt lat="38.26853364231524" lon="16.29781551857826"><ele>11.0</ele><time>2026-03-22T08:43:40Z</time></trkpt><trkpt lat="38.26858513721339" lon="16.297871903432828"><ele>11.0</ele><time>2026-03-22T08:43:41Z</time></trkpt><trkpt lat="38.26864736954145" lon="16.297940767200437"><ele>11.0</ele><time>2026-03-22T08:43:42Z</time></trkpt><trkpt lat="38.26872537361743" lon="16.298027332986656"><ele>11.0</ele><time>2026-03-22T08:43:43Z</time></trkpt><trkpt lat="38.268825701578116" lon="16.298139140718078"><ele>11.0</ele><time>2026-03-22T08:43:44Z</time></trkpt><trkpt lat="38.2689293965482" lon="16.298226481129234"><ele>11.0</ele><time>2026-03-22T08:43:45Z</time></trkpt><trkpt lat="38.26900002302451" lon="16.29831988018991"><ele>11.0</ele><time>2026-03-22T08:43:46Z</time></trkpt><trkpt lat="38.26912125221463" lon="16.298395678269817"><ele>11.0</ele><time>2026-03-22T08:43:47Z</time></trkpt><trkpt lat="38.26923373174964" lon="16.29846573512002"><ele>10.5</ele><time>2026-03-22T08:43:48Z</time></trkpt><trkpt lat="38.269362566030246" lon="16.298522221464463"><ele>10.0</ele><time>2026-03-22T08:43:49Z</time></trkpt><trkpt lat="38.269459051658494" lon="16.29861656179037"><ele>9.5</ele><time>2026-03-22T08:43:50Z</time></trkpt><trkpt lat="38.269564656308994" lon="16.298736513937637"><ele>9.0</ele><time>2026-03-22T08:43:51Z</time></trkpt><trkpt lat="38.26963197890967" lon="16.298880078896353"><ele>9.0</ele><time>2026-03-22T08:43:52Z</time></trkpt><trkpt lat="38.26974626211415" lon="16.299032515414584"><ele>9.0</ele><time>2026-03-22T08:43:53Z</time></trkpt><trkpt lat="38.26983967858785" lon="16.299174055687544"><ele>9.0</ele><time>2026-03-22T08:43:54Z</time></trkpt><trkpt lat="38.26995360684161" lon="16.299322255994486"><ele>9.333333333333334</ele><time>2026-03-22T08:43:55Z</time></trkpt><trkpt lat="38.270084939330125" lon="16.29946544619859"><ele>9.666666666666668</ele><time>2026-03-22T08:43:56Z</time></trkpt><trkpt lat="38.270207807952374" lon="16.299618064067353"><ele>10.0</ele><time>2026-03-22T08:43:57Z</time></trkpt><trkpt lat="38.27032262362632" lon="16.299771787745485"><ele>10.0</ele><time>2026-03-22T08:43:58Z</time></trkpt><trkpt lat="38.270438883751105" lon="16.2999189532851"><ele>10.0</ele><time>2026-03-22T08:43:59Z</time></trkpt><trkpt lat="38.2705613672933" lon="16.30006478933107"><ele>10.0</ele><time>2026-03-22T08:44:00Z</time></trkpt><trkpt lat="38.27067228943892" lon="16.30021171522221"><ele>10.333333333333334</ele><time>2026-03-22T08:44:01Z</time></trkpt><trkpt lat="38.27078348292998" lon="16.300369222747413"><ele>10.666666666666666</ele><time>2026-03-22T08:44:02Z</time></trkpt><trkpt lat="38.27089654666968" lon="16.30051804595053"><ele>11.0</ele><time>2026-03-22T08:44:03Z</time></trkpt><trkpt lat="38.27100943881926" lon="16.300664239990198"><ele>11.0</ele><time>2026-03-22T08:44:04Z</time></trkpt><trkpt lat="38.271092410450734" lon="16.30083241715121"><ele>11.0</ele><time>2026-03-22T08:44:05Z</time></trkpt><trkpt lat="38.27120042370889" lon="16.300955612157345"><ele>11.0</ele><time>2026-03-22T08:44:06Z</time></trkpt><trkpt lat="38.271322503592835" lon="16.301077830611323"><ele>11.0</ele><time>2026-03-22T08:44:07Z</time></trkpt><trkpt lat="38.27142732404894" lon="16.301221759945868"><ele>11.0</ele><time>2026-03-22T08:44:08Z</time></trkpt><trkpt lat="38.271529057574654" lon="16.301360351525894"><ele>11.0</ele><time>2026-03-22T08:44:09Z</time></trkpt><trkpt lat="38.271630867159246" lon="16.301500336447173"><ele>10.0</ele><time>2026-03-22T08:44:10Z</time></trkpt><trkpt lat="38.271731605646664" lon="16.30164423124944"><ele>9.0</ele><time>2026-03-22T08:44:11Z</time></trkpt><trkpt lat="38.27184147090852" lon="16.301785059482707"><ele>8.0</ele><time>2026-03-22T08:44:12Z</time></trkpt><trkpt lat="38.271947063327104" lon="16.30193836531025"><ele>8.0</ele><time>2026-03-22T08:44:13Z</time></trkpt><trkpt lat="38.27205152255775" lon="16.302092717273236"><ele>8.0</ele><time>2026-03-22T08:44:14Z</time></trkpt><trkpt lat="38.272155970181984" lon="16.302243110757612"><ele>8.0</ele><time>2026-03-22T08:44:15Z</time></trkpt><trkpt lat="38.272256609928526" lon="16.302390992465494"><ele>8.666666666666666</ele><time>2026-03-22T08:44:16Z</time></trkpt><trkpt lat="38.272363048434904" lon="16.302540410397786"><ele>9.333333333333334</ele><time>2026-03-22T08:44:17Z</time></trkpt><trkpt lat="38.27247201875358" lon="16.302682591629925"><ele>10.0</ele><time>2026-03-22T08:44:18Z</time></trkpt><trkpt lat="38.272572189749745" lon="16.302813293193196"><ele>10.0</ele><time>2026-03-22T08:44:19Z</time></trkpt><trkpt lat="38.27267689918626" lon="16.302945946896806"><ele>10.0</ele><time>2026-03-22T08:44:20Z</time></trkpt><trkpt lat="38.27278909992755" lon="16.30304313212476"><ele>10.0</ele><time>2026-03-22T08:44:21Z</time></trkpt><trkpt lat="38.27289983397171" lon="16.30313694239744"><ele>10.0</ele><time>2026-03-22T08:44:22Z</time></trkpt><trkpt lat="38.2729851084235" lon="16.3032452896894"><ele>9.75</ele><time>2026-03-22T08:44:23Z</time></trkpt><trkpt lat="38.27306824482477" lon="16.303364925794035"><ele>9.5</ele><time>2026-03-22T08:44:24Z</time></trkpt><trkpt lat="38.27313837357344" lon="16.303495000157444"><ele>9.25</ele><time>2026-03-22T08:44:25Z</time></trkpt><trkpt lat="38.27319892736935" lon="16.3036247909277"><ele>9.0</ele><time>2026-03-22T08:44:26Z</time></trkpt><trkpt lat="38.273284026178885" lon="16.30371478248846"><ele>9.0</ele><time>2026-03-22T08:44:27Z</time></trkpt><trkpt lat="38.273371918809865" lon="16.303829851462694"><ele>9.0</ele><time>2026-03-22T08:44:28Z</time></trkpt><trkpt lat="38.27347085674565" lon="16.303962234426134"><ele>9.0</ele><time>2026-03-22T08:44:29Z</time></trkpt><trkpt lat="38.27357770703435" lon="16.304106498738165"><ele>9.0</ele><time>2026-03-22T08:44:30Z</time></trkpt><trkpt lat="38.273682150392155" lon="16.304247513790596"><ele>8.75</ele><time>2026-03-22T08:44:31Z</time></trkpt><trkpt lat="38.2737840225008" lon="16.304385560109154"><ele>8.5</ele><time>2026-03-22T08:44:32Z</time></trkpt><trkpt lat="38.27386915225938" lon="16.304502091177582"><ele>8.25</ele><time>2026-03-22T08:44:33Z</time></trkpt><trkpt lat="38.27394994607484" lon="16.30461134915146"><ele>8.0</ele><time>2026-03-22T08:44:34Z</time></trkpt><trkpt lat="38.27403728307425" lon="16.304727822917094"><ele>7.75</ele><time>2026-03-22T08:44:35Z</time></trkpt><trkpt lat="38.27411990229182" lon="16.30483800501962"><ele>7.5</ele><time>2026-03-22T08:44:36Z</time></trkpt><trkpt lat="38.27420918763954" lon="16.304957077217328"><ele>7.25</ele><time>2026-03-22T08:44:37Z</time></trkpt><trkpt lat="38.274285388049755" lon="16.30510708944506"><ele>7.0</ele><time>2026-03-22T08:44:38Z</time></trkpt><trkpt lat="38.274393880810536" lon="16.305231480983302"><ele>7.0</ele><time>2026-03-22T08:44:39Z</time></trkpt><trkpt lat="38.27450992709171" lon="16.305348949341106"><ele>7.0</ele><time>2026-03-22T08:44:40Z</time></trkpt><trkpt lat="38.274629632982005" lon="16.305459070868977"><ele>7.0</ele><time>2026-03-22T08:44:41Z</time></trkpt><trkpt lat="38.274747405903156" lon="16.30557346657128"><ele>7.0</ele><time>2026-03-22T08:44:42Z</time></trkpt><trkpt lat="38.27489521846553" lon="16.305678080453895"><ele>6.666666666666667</ele><time>2026-03-22T08:44:43Z</time></trkpt><trkpt lat="38.275050693199475" lon="16.305795072860676"><ele>6.333333333333334</ele><time>2026-03-22T08:44:44Z</time></trkpt><trkpt lat="38.27520611709355" lon="16.30593583476055"><ele>6.0</ele><time>2026-03-22T08:44:45Z</time></trkpt><trkpt lat="38.2753634995547" lon="16.30606876324047"><ele>6.0</ele><time>2026-03-22T08:44:46Z</time></trkpt><trkpt lat="38.27548764092161" lon="16.306212184839946"><ele>6.0</ele><time>2026-03-22T08:44:47Z</time></trkpt><trkpt lat="38.275578157182075" lon="16.30639256779468"><ele>6.0</ele><time>2026-03-22T08:44:48Z</time></trkpt><trkpt lat="38.27570803559952" lon="16.30652642547236"><ele>6.666666666666666</ele><time>2026-03-22T08:44:49Z</time></trkpt><trkpt lat="38.275835713378264" lon="16.30665652879769"><ele>7.333333333333333</ele><time>2026-03-22T08:44:50Z</time></trkpt><trkpt lat="38.275957879481766" lon="16.306776590491655"><ele>8.0</ele><time>2026-03-22T08:44:51Z</time></trkpt><trkpt lat="38.27606749347171" lon="16.306894303443357"><ele>8.0</ele><time>2026-03-22T08:44:52Z</time></trkpt><trkpt lat="38.27617567222329" lon="16.307004263254193"><ele>8.0</ele><time>2026-03-22T08:44:53Z</time></trkpt><trkpt lat="38.27627709275351" lon="16.307104784991836"><ele>8.0</ele><time>2026-03-22T08:44:54Z</time></trkpt><trkpt lat="38.276371225743695" lon="16.307197064711357"><ele>8.0</ele><time>2026-03-22T08:44:55Z</time></trkpt><trkpt lat="38.276465183375166" lon="16.307295733506972"><ele>7.25</ele><time>2026-03-22T08:44:56Z</time></trkpt><trkpt lat="38.27656502582891" lon="16.307396580171282"><ele>6.5</ele><time>2026-03-22T08:44:57Z</time></trkpt><trkpt lat="38.27667694631645" lon="16.307478343519715"><ele>5.75</ele><time>2026-03-22T08:44:58Z</time></trkpt><trkpt lat="38.27677317383079" lon="16.30758257795978"><ele>5.0</ele><time>2026-03-22T08:44:59Z</time></trkpt><trkpt lat="38.27687236379843" lon="16.307673026419018"><ele>5.0</ele><time>2026-03-22T08:45:00Z</time></trkpt><trkpt lat="38.2769852079229" lon="16.30777591601415"><ele>5.0</ele><time>2026-03-22T08:45:01Z</time></trkpt><trkpt lat="38.277093869686055" lon="16.307874967423523"><ele>5.0</ele><time>2026-03-22T08:45:02Z</time></trkpt><trkpt lat="38.27721510494111" lon="16.30796831661001"><ele>5.0</ele><time>2026-03-22T08:45:03Z</time></trkpt><trkpt lat="38.27730398952038" lon="16.30809378614911"><ele>5.4</ele><time>2026-03-22T08:45:04Z</time></trkpt><trkpt lat="38.27739964522743" lon="16.3082216324349"><ele>5.8</ele><time>2026-03-22T08:45:05Z</time></trkpt><trkpt lat="38.27750246639233" lon="16.308314248077625"><ele>6.199999999999999</ele><time>2026-03-22T08:45:06Z</time></trkpt><trkpt lat="38.27758129170793" lon="16.308400474091503"><ele>6.6</ele><time>2026-03-22T08:45:07Z</time></trkpt><trkpt lat="38.27764845950891" lon="16.308438448662564"><ele>7.0</ele><time>2026-03-22T08:45:08Z</time></trkpt><trkpt lat="38.277706158079134" lon="16.308504543405522"><ele>7.0</ele><time>2026-03-22T08:45:09Z</time></trkpt><trkpt lat="38.277782748682164" lon="16.30851001195809"><ele>6.999999999999999</ele><time>2026-03-22T08:45:10Z</time></trkpt><trkpt lat="38.27788779222839" lon="16.30850641376978"><ele>6.999999999999999</ele><time>2026-03-22T08:45:11Z</time></trkpt><trkpt lat="38.277981102441395" lon="16.308536692675975"><ele>7.0</ele><time>2026-03-22T08:45:12Z</time></trkpt><trkpt lat="38.278083926668465" lon="16.308579316467064"><ele>7.0</ele><time>2026-03-22T08:45:13Z</time></trkpt><trkpt lat="38.278193447604465" lon="16.308628585133295"><ele>7.0</ele><time>2026-03-22T08:45:14Z</time></trkpt><trkpt lat="38.278299220896194" lon="16.308703158438714"><ele>7.0</ele><time>2026-03-22T08:45:15Z</time></trkpt><trkpt lat="38.27841293549034" lon="16.308767812809542"><ele>7.0</ele><time>2026-03-22T08:45:16Z</time></trkpt><trkpt lat="38.27852974187934" lon="16.308834617236684"><ele>7.0</ele><time>2026-03-22T08:45:17Z</time></trkpt><trkpt lat="38.278638586688494" lon="16.308900498240746"><ele>7.0</ele><time>2026-03-22T08:45:18Z</time></trkpt><trkpt lat="38.278748748223286" lon="16.30897054993048"><ele>7.0</ele><time>2026-03-22T08:45:19Z</time></trkpt><trkpt lat="38.27887359974005" lon="16.309058905517233"><ele>7.0</ele><time>2026-03-22T08:45:20Z</time></trkpt><trkpt lat="38.278982874719425" lon="16.309138905905282"><ele>7.0</ele><time>2026-03-22T08:45:21Z</time></trkpt><trkpt lat="38.279082528778126" lon="16.309219196098482"><ele>7.0</ele><time>2026-03-22T08:45:22Z</time></trkpt><trkpt lat="38.279204262605916" lon="16.309315843286917"><ele>6.999999999999999</ele><time>2026-03-22T08:45:23Z</time></trkpt><trkpt lat="38.2792943848154" lon="16.309387392988082"><ele>6.999999999999999</ele><time>2026-03-22T08:45:24Z</time></trkpt><trkpt lat="38.27937986983507" lon="16.30945489224392"><ele>7.0</ele><time>2026-03-22T08:45:25Z</time></trkpt><trkpt lat="38.27944662029711" lon="16.309507640903064"><ele>7.0</ele><time>2026-03-22T08:45:26Z</time></trkpt><trkpt lat="38.27953207047545" lon="16.309575166251108"><ele>7.000000000000001</ele><time>2026-03-22T08:45:27Z</time></trkpt><trkpt lat="38.27958907146844" lon="16.309618769442963"><ele>7.0</ele><time>2026-03-22T08:45:28Z</time></trkpt><trkpt lat="38.27967002829682" lon="16.309682873105032"><ele>7.0</ele><time>2026-03-22T08:45:29Z</time></trkpt><trkpt lat="38.27974742693923" lon="16.30974344602563"><ele>7.0</ele><time>2026-03-22T08:45:30Z</time></trkpt><trkpt lat="38.2798173685441" lon="16.309798074450043"><ele>7.000000000000001</ele><time>2026-03-22T08:45:32Z</time></trkpt><trkpt lat="38.27989970134628" lon="16.30986230054539"><ele>7.0</ele><time>2026-03-22T08:45:34Z</time></trkpt><trkpt lat="38.279974972223364" lon="16.309921016850033"><ele>7.333333333333334</ele><time>2026-03-22T08:45:36Z</time></trkpt><trkpt lat="38.280067470548566" lon="16.309872887864007"><ele>7.666666666666667</ele><time>2026-03-22T08:45:38Z</time></trkpt><trkpt lat="38.28004015361377" lon="16.30997222584721"><ele>8.0</ele><time>2026-03-22T08:45:40Z</time></trkpt><trkpt lat="38.28009222444826" lon="16.310060843228044"><ele>8.333333333333334</ele><time>2026-03-22T08:45:44Z</time></trkpt><trkpt lat="38.28012820881724" lon="16.31014598255043"><ele>8.666666666666666</ele><time>2026-03-22T08:45:47Z</time></trkpt><trkpt lat="38.28018200140789" lon="16.310194467563527"><ele>9.0</ele><time>2026-03-22T08:45:49Z</time></trkpt><trkpt lat="38.28025026283238" lon="16.310252666542212"><ele>9.0</ele><time>2026-03-22T08:45:51Z</time></trkpt><trkpt lat="38.280339775986654" lon="16.310278752564173"><ele>9.0</ele><time>2026-03-22T08:45:54Z</time></trkpt><trkpt lat="38.28042730160541" lon="16.31034078245663"><ele>9.0</ele><time>2026-03-22T08:45:56Z</time></trkpt><trkpt lat="38.28048690531736" lon="16.310408117871532"><ele>9.0</ele><time>2026-03-22T08:45:57Z</time></trkpt><trkpt lat="38.28057108269526" lon="16.310468867063676"><ele>9.0</ele><time>2026-03-22T08:45:58Z</time></trkpt><trkpt lat="38.28065540350084" lon="16.310537235224817"><ele>8.5</ele><time>2026-03-22T08:45:59Z</time></trkpt><trkpt lat="38.28074826915814" lon="16.310602570786955"><ele>8.0</ele><time>2026-03-22T08:46:00Z</time></trkpt><trkpt lat="38.2808601060105" lon="16.310677877753648"><ele>7.5</ele><time>2026-03-22T08:46:01Z</time></trkpt><trkpt lat="38.28097228906045" lon="16.310765567300916"><ele>7.0</ele><time>2026-03-22T08:46:02Z</time></trkpt><trkpt lat="38.28109662952033" lon="16.310856518662504"><ele>7.0</ele><time>2026-03-22T08:46:03Z</time></trkpt><trkpt lat="38.281209946953226" lon="16.31094521261153"><ele>7.0</ele><time>2026-03-22T08:46:04Z</time></trkpt><trkpt lat="38.28134419304173" lon="16.311049198685776"><ele>7.0</ele><time>2026-03-22T08:46:05Z</time></trkpt><trkpt lat="38.281484667537384" lon="16.31112929417353"><ele>7.0</ele><time>2026-03-22T08:46:06Z</time></trkpt><trkpt lat="38.28161615552366" lon="16.311232503019077"><ele>7.0</ele><time>2026-03-22T08:46:07Z</time></trkpt><trkpt lat="38.28175667519107" lon="16.311341574814396"><ele>7.0</ele><time>2026-03-22T08:46:08Z</time></trkpt><trkpt lat="38.28190248311431" lon="16.311443954337822"><ele>7.0</ele><time>2026-03-22T08:46:09Z</time></trkpt><trkpt lat="38.282043575340005" lon="16.311554648441497"><ele>7.0</ele><time>2026-03-22T08:46:10Z</time></trkpt><trkpt lat="38.2821903915554" lon="16.311662620566853"><ele>7.0</ele><time>2026-03-22T08:46:11Z</time></trkpt><trkpt lat="38.28233969225288" lon="16.311764923333605"><ele>7.0</ele><time>2026-03-22T08:46:12Z</time></trkpt><trkpt lat="38.28249273535143" lon="16.311863323883546"><ele>6.666666666666667</ele><time>2026-03-22T08:46:13Z</time></trkpt><trkpt lat="38.28264754560553" lon="16.311962434418067"><ele>6.333333333333334</ele><time>2026-03-22T08:46:14Z</time></trkpt><trkpt lat="38.282800295830796" lon="16.3120634366541"><ele>6.0</ele><time>2026-03-22T08:46:15Z</time></trkpt><trkpt lat="38.28294506369065" lon="16.312168962812205"><ele>6.0</ele><time>2026-03-22T08:46:16Z</time></trkpt><trkpt lat="38.283101695386634" lon="16.31227110755502"><ele>6.0</ele><time>2026-03-22T08:46:17Z</time></trkpt><trkpt lat="38.283244915695235" lon="16.3123983195482"><ele>6.0</ele><time>2026-03-22T08:46:18Z</time></trkpt><trkpt lat="38.283384935867694" lon="16.31250012081953"><ele>6.0</ele><time>2026-03-22T08:46:19Z</time></trkpt><trkpt lat="38.28352811710027" lon="16.31260294716834"><ele>6.0</ele><time>2026-03-22T08:46:20Z</time></trkpt><trkpt lat="38.28368178912046" lon="16.31271373496199"><ele>6.0</ele><time>2026-03-22T08:46:21Z</time></trkpt><trkpt lat="38.28383360654266" lon="16.312821314191464"><ele>6.0</ele><time>2026-03-22T08:46:22Z</time></trkpt><trkpt lat="38.28399064058453" lon="16.312932391288925"><ele>6.0</ele><time>2026-03-22T08:46:23Z</time></trkpt><trkpt lat="38.2841285041949" lon="16.31305835072378"><ele>6.0</ele><time>2026-03-22T08:46:24Z</time></trkpt><trkpt lat="38.284277502308775" lon="16.31317092039738"><ele>5.666666666666667</ele><time>2026-03-22T08:46:25Z</time></trkpt><trkpt lat="38.28443202787825" lon="16.313289785228623"><ele>5.333333333333334</ele><time>2026-03-22T08:46:26Z</time></trkpt><trkpt lat="38.284587191060375" lon="16.313399125962825"><ele>5.0</ele><time>2026-03-22T08:46:27Z</time></trkpt><trkpt lat="38.28474343353834" lon="16.31350735168322"><ele>6.333333333333334</ele><time>2026-03-22T08:46:28Z</time></trkpt><trkpt lat="38.28489660999056" lon="16.313622728881978"><ele>7.666666666666667</ele><time>2026-03-22T08:46:29Z</time></trkpt><trkpt lat="38.28504154131641" lon="16.313741974279438"><ele>9.0</ele><time>2026-03-22T08:46:30Z</time></trkpt><trkpt lat="38.28518974183202" lon="16.313846861880755"><ele>8.0</ele><time>2026-03-22T08:46:31Z</time></trkpt><trkpt lat="38.28533746050311" lon="16.31396043022525"><ele>7.0</ele><time>2026-03-22T08:46:32Z</time></trkpt><trkpt lat="38.285491074821095" lon="16.314068708610662"><ele>6.0</ele><time>2026-03-22T08:46:33Z</time></trkpt><trkpt lat="38.28563572982707" lon="16.3141982027757"><ele>5.666666666666667</ele><time>2026-03-22T08:46:34Z</time></trkpt><trkpt lat="38.28578566328476" lon="16.314325078085"><ele>5.333333333333334</ele><time>2026-03-22T08:46:35Z</time></trkpt><trkpt lat="38.28594996153577" lon="16.314440955535208"><ele>5.0</ele><time>2026-03-22T08:46:36Z</time></trkpt><trkpt lat="38.28611211158974" lon="16.314565882446942"><ele>5.0</ele><time>2026-03-22T08:46:37Z</time></trkpt><trkpt lat="38.286275601210555" lon="16.314690074743293"><ele>5.0</ele><time>2026-03-22T08:46:38Z</time></trkpt><trkpt lat="38.28644313360784" lon="16.31481796121927"><ele>5.0</ele><time>2026-03-22T08:46:39Z</time></trkpt><trkpt lat="38.286609384414945" lon="16.314953045877946"><ele>6.0</ele><time>2026-03-22T08:46:40Z</time></trkpt><trkpt lat="38.286758431101354" lon="16.31507620668872"><ele>7.0</ele><time>2026-03-22T08:46:41Z</time></trkpt><trkpt lat="38.2869140357774" lon="16.315206067988264"><ele>8.0</ele><time>2026-03-22T08:46:42Z</time></trkpt><trkpt lat="38.28706048236166" lon="16.315325787067852"><ele>8.0</ele><time>2026-03-22T08:46:43Z</time></trkpt><trkpt lat="38.28720255391607" lon="16.31544359563036"><ele>8.0</ele><time>2026-03-22T08:46:44Z</time></trkpt><trkpt lat="38.28734884760521" lon="16.315556400412227"><ele>8.0</ele><time>2026-03-22T08:46:45Z</time></trkpt><trkpt lat="38.287480595231656" lon="16.31565500468298"><ele>7.75</ele><time>2026-03-22T08:46:46Z</time></trkpt><trkpt lat="38.287589719748546" lon="16.315734863518326"><ele>7.5</ele><time>2026-03-22T08:46:47Z</time></trkpt><trkpt lat="38.287695481450235" lon="16.3158122613108"><ele>7.25</ele><time>2026-03-22T08:46:48Z</time></trkpt><trkpt lat="38.28779047985049" lon="16.315882456842164"><ele>7.0</ele><time>2026-03-22T08:46:49Z</time></trkpt><trkpt lat="38.28787786389613" lon="16.315947902318747"><ele>7.0</ele><time>2026-03-22T08:46:50Z</time></trkpt><trkpt lat="38.28797141432626" lon="16.316017965983566"><ele>7.0</ele><time>2026-03-22T08:46:51Z</time></trkpt><trkpt lat="38.28807001245145" lon="16.31609181008846"><ele>7.0</ele><time>2026-03-22T08:46:52Z</time></trkpt><trkpt lat="38.28818545662628" lon="16.316178271907795"><ele>7.0</ele><time>2026-03-22T08:46:53Z</time></trkpt><trkpt lat="38.28830916019022" lon="16.31627135345786"><ele>7.75</ele><time>2026-03-22T08:46:54Z</time></trkpt><trkpt lat="38.28842802276488" lon="16.316365025451766"><ele>8.5</ele><time>2026-03-22T08:46:55Z</time></trkpt><trkpt lat="38.28854972954291" lon="16.31646386614048"><ele>9.25</ele><time>2026-03-22T08:46:56Z</time></trkpt><trkpt lat="38.288672649709525" lon="16.316566857905404"><ele>10.0</ele><time>2026-03-22T08:46:57Z</time></trkpt><trkpt lat="38.288867714037885" lon="16.316516119524884"><ele>9.5</ele><time>2026-03-22T08:46:58Z</time></trkpt><trkpt lat="38.28898436071216" lon="16.316625361134474"><ele>9.0</ele><time>2026-03-22T08:46:59Z</time></trkpt><trkpt lat="38.28906689875377" lon="16.31675536569137"><ele>8.5</ele><time>2026-03-22T08:47:00Z</time></trkpt><trkpt lat="38.28916648726956" lon="16.316875211564465"><ele>8.0</ele><time>2026-03-22T08:47:01Z</time></trkpt><trkpt lat="38.28927668052818" lon="16.31698932895307"><ele>8.0</ele><time>2026-03-22T08:47:02Z</time></trkpt><trkpt lat="38.28935552709958" lon="16.317166816827243"><ele>8.0</ele><time>2026-03-22T08:47:03Z</time></trkpt><trkpt lat="38.28948048019306" lon="16.31728002010635"><ele>8.0</ele><time>2026-03-22T08:47:04Z</time></trkpt><trkpt lat="38.289604375420026" lon="16.317392265094348"><ele>8.333333333333332</ele><time>2026-03-22T08:47:05Z</time></trkpt><trkpt lat="38.289742481219704" lon="16.317517384358933"><ele>8.666666666666666</ele><time>2026-03-22T08:47:06Z</time></trkpt><trkpt lat="38.289876087219206" lon="16.317638226498566"><ele>9.0</ele><time>2026-03-22T08:47:07Z</time></trkpt><trkpt lat="38.2900228016922" lon="16.317769924904198"><ele>9.0</ele><time>2026-03-22T08:47:08Z</time></trkpt><trkpt lat="38.29017394571465" lon="16.317893881325528"><ele>9.0</ele><time>2026-03-22T08:47:09Z</time></trkpt><trkpt lat="38.29031304093426" lon="16.318041100099535"><ele>9.0</ele><time>2026-03-22T08:47:10Z</time></trkpt><trkpt lat="38.29045292903259" lon="16.31819013063606"><ele>8.333333333333334</ele><time>2026-03-22T08:47:11Z</time></trkpt><trkpt lat="38.29059369917714" lon="16.318340011433914"><ele>7.666666666666667</ele><time>2026-03-22T08:47:12Z</time></trkpt><trkpt lat="38.29075008056412" lon="16.318486659319237"><ele>7.0</ele><time>2026-03-22T08:47:13Z</time></trkpt><trkpt lat="38.29088425246953" lon="16.31863747128808"><ele>7.0</ele><time>2026-03-22T08:47:14Z</time></trkpt><trkpt lat="38.29102172972978" lon="16.318771226261635"><ele>7.0</ele><time>2026-03-22T08:47:15Z</time></trkpt><trkpt lat="38.291153202394725" lon="16.318890349402825"><ele>7.0</ele><time>2026-03-22T08:47:16Z</time></trkpt><trkpt lat="38.29127017281458" lon="16.31901307458935"><ele>6.5</ele><time>2026-03-22T08:47:17Z</time></trkpt><trkpt lat="38.29138511599181" lon="16.31911740502823"><ele>6.0</ele><time>2026-03-22T08:47:18Z</time></trkpt><trkpt lat="38.291484013223005" lon="16.319195984455217"><ele>5.5</ele><time>2026-03-22T08:47:19Z</time></trkpt><trkpt lat="38.29158912937932" lon="16.31929042453962"><ele>5.0</ele><time>2026-03-22T08:47:20Z</time></trkpt><trkpt lat="38.29166676962298" lon="16.31935604678319"><ele>5.666666666666667</ele><time>2026-03-22T08:47:21Z</time></trkpt><trkpt lat="38.291745471743745" lon="16.319424846749506"><ele>6.333333333333334</ele><time>2026-03-22T08:47:22Z</time></trkpt><trkpt lat="38.29181499819647" lon="16.31947710487529"><ele>7.0</ele><time>2026-03-22T08:47:23Z</time></trkpt><trkpt lat="38.29186524013943" lon="16.319543319482122"><ele>7.666666666666667</ele><time>2026-03-22T08:47:25Z</time></trkpt><trkpt lat="38.291813520105435" lon="16.319626637549334"><ele>8.333333333333334</ele><time>2026-03-22T08:47:26Z</time></trkpt><trkpt lat="38.29174368237104" lon="16.319684146693913"><ele>9.0</ele><time>2026-03-22T08:47:27Z</time></trkpt><trkpt lat="38.29167802581516" lon="16.319752810164882"><ele>9.333333333333334</ele><time>2026-03-22T08:47:28Z</time></trkpt><trkpt lat="38.2916126691183" lon="16.319821160126455"><ele>9.666666666666666</ele><time>2026-03-22T08:47:29Z</time></trkpt><trkpt lat="38.29155808942419" lon="16.319878239524282"><ele>10.0</ele><time>2026-03-22T08:47:30Z</time></trkpt><trkpt lat="38.29150122795158" lon="16.31993770643394"><ele>10.333333333333332</ele><time>2026-03-22T08:47:32Z</time></trkpt><trkpt lat="38.29158560898002" lon="16.32000642574756"><ele>10.666666666666666</ele><time>2026-03-22T08:47:35Z</time></trkpt><trkpt lat="38.29163862296548" lon="16.320088829273708"><ele>11.0</ele><time>2026-03-22T08:47:36Z</time></trkpt><trkpt lat="38.29171129697596" lon="16.32017606329931"><ele>11.0</ele><time>2026-03-22T08:47:37Z</time></trkpt><trkpt lat="38.2917800962053" lon="16.32025390025359"><ele>11.0</ele><time>2026-03-22T08:47:38Z</time></trkpt><trkpt lat="38.29186160881464" lon="16.320346120560952"><ele>11.0</ele><time>2026-03-22T08:47:39Z</time></trkpt><trkpt lat="38.29194325546487" lon="16.320437881178943"><ele>11.0</ele><time>2026-03-22T08:47:40Z</time></trkpt><trkpt lat="38.29203227582955" lon="16.320537754151353"><ele>11.0</ele><time>2026-03-22T08:47:41Z</time></trkpt><trkpt lat="38.292127979964235" lon="16.320645125646614"><ele>11.25</ele><time>2026-03-22T08:47:42Z</time></trkpt><trkpt lat="38.29222657013314" lon="16.320755735299443"><ele>11.5</ele><time>2026-03-22T08:47:43Z</time></trkpt><trkpt lat="38.292317628804525" lon="16.320884586049846"><ele>11.75</ele><time>2026-03-22T08:47:44Z</time></trkpt><trkpt lat="38.29243340588263" lon="16.320993093793806"><ele>12.0</ele><time>2026-03-22T08:47:45Z</time></trkpt><trkpt lat="38.29254367045337" lon="16.321104598657683"><ele>12.0</ele><time>2026-03-22T08:47:46Z</time></trkpt><trkpt lat="38.29265926683608" lon="16.321228448966117"><ele>12.0</ele><time>2026-03-22T08:47:47Z</time></trkpt><trkpt lat="38.292774234922824" lon="16.321349783159295"><ele>12.0</ele><time>2026-03-22T08:47:48Z</time></trkpt><trkpt lat="38.29288976340577" lon="16.321453337633287"><ele>12.0</ele><time>2026-03-22T08:47:49Z</time></trkpt><trkpt lat="38.29300557541572" lon="16.321548470334097"><ele>11.25</ele><time>2026-03-22T08:47:50Z</time></trkpt><trkpt lat="38.293105585734295" lon="16.321635658845562"><ele>10.5</ele><time>2026-03-22T08:47:51Z</time></trkpt><trkpt lat="38.293189773471056" lon="16.321721222019214"><ele>9.75</ele><time>2026-03-22T08:47:52Z</time></trkpt><trkpt lat="38.29324286625008" lon="16.321891875675945"><ele>9.0</ele><time>2026-03-22T08:47:53Z</time></trkpt><trkpt lat="38.29331045447431" lon="16.321965663530456"><ele>9.0</ele><time>2026-03-22T08:47:54Z</time></trkpt><trkpt lat="38.29337130957781" lon="16.32202254572509"><ele>9.0</ele><time>2026-03-22T08:47:55Z</time></trkpt><trkpt lat="38.2934345718133" lon="16.322063432951076"><ele>9.0</ele><time>2026-03-22T08:47:57Z</time></trkpt><trkpt lat="38.29353162991947" lon="16.321904891537923"><ele>9.0</ele><time>2026-03-22T08:47:58Z</time></trkpt><trkpt lat="38.293587221746094" lon="16.32182471750222"><ele>9.0</ele><time>2026-03-22T08:47:59Z</time></trkpt><trkpt lat="38.29365731526003" lon="16.321748367648592"><ele>9.0</ele><time>2026-03-22T08:48:00Z</time></trkpt><trkpt lat="38.29374808037343" lon="16.321657742674496"><ele>9.0</ele><time>2026-03-22T08:48:01Z</time></trkpt><trkpt lat="38.293845010640354" lon="16.321563267163032"><ele>9.0</ele><time>2026-03-22T08:48:02Z</time></trkpt><trkpt lat="38.29392306026572" lon="16.32147532863489"><ele>9.0</ele><time>2026-03-22T08:48:03Z</time></trkpt><trkpt lat="38.2939857289699" lon="16.321409958749545"><ele>9.0</ele><time>2026-03-22T08:48:04Z</time></trkpt><trkpt lat="38.294061183895685" lon="16.321382843318542"><ele>9.0</ele><time>2026-03-22T08:48:05Z</time></trkpt><trkpt lat="38.29414467333627" lon="16.321299342535333"><ele>9.0</ele><time>2026-03-22T08:48:07Z</time></trkpt><trkpt lat="38.2942012204028" lon="16.32119904414278"><ele>9.0</ele><time>2026-03-22T08:48:09Z</time></trkpt><trkpt lat="38.294183423944254" lon="16.3211043713277"><ele>9.0</ele><time>2026-03-22T08:48:10Z</time></trkpt><trkpt lat="38.29406201791966" lon="16.320961185817424"><ele>9.0</ele><time>2026-03-22T08:48:12Z</time></trkpt><trkpt lat="38.293981696369656" lon="16.320885753994787"><ele>9.25</ele><time>2026-03-22T08:48:13Z</time></trkpt><trkpt lat="38.29388471960272" lon="16.32080068253749"><ele>9.5</ele><time>2026-03-22T08:48:14Z</time></trkpt><trkpt lat="38.29378849713338" lon="16.32070651889386"><ele>9.75</ele><time>2026-03-22T08:48:15Z</time></trkpt><trkpt lat="38.2936915026177" lon="16.32065130536765"><ele>10.0</ele><time>2026-03-22T08:48:16Z</time></trkpt><trkpt lat="38.29360241428721" lon="16.320564567412706"><ele>10.0</ele><time>2026-03-22T08:48:17Z</time></trkpt><trkpt lat="38.293525877797244" lon="16.320459668305197"><ele>10.0</ele><time>2026-03-22T08:48:18Z</time></trkpt><trkpt lat="38.29346513123189" lon="16.32035552049084"><ele>10.0</ele><time>2026-03-22T08:48:19Z</time></trkpt><trkpt lat="38.2934023837134" lon="16.32028208136556"><ele>10.0</ele><time>2026-03-22T08:48:20Z</time></trkpt><trkpt lat="38.29336984188126" lon="16.320160780060284"><ele>10.0</ele><time>2026-03-22T08:48:22Z</time></trkpt><trkpt lat="38.29342867116581" lon="16.320040146753662"><ele>10.0</ele><time>2026-03-22T08:48:23Z</time></trkpt><trkpt lat="38.29349563616818" lon="16.319937083172558"><ele>10.0</ele><time>2026-03-22T08:48:25Z</time></trkpt><trkpt lat="38.29361969254691" lon="16.319889850463994"><ele>10.0</ele><time>2026-03-22T08:48:27Z</time></trkpt><trkpt lat="38.29367854306885" lon="16.319858195017062"><ele>10.0</ele><time>2026-03-22T08:48:28Z</time></trkpt><trkpt lat="38.29374794702996" lon="16.31981853082386"><ele>10.0</ele><time>2026-03-22T08:48:29Z</time></trkpt><trkpt lat="38.29387653558286" lon="16.319745149420736"><ele>10.2</ele><time>2026-03-22T08:48:31Z</time></trkpt><trkpt lat="38.29399451321852" lon="16.31967863097023"><ele>10.4</ele><time>2026-03-22T08:48:33Z</time></trkpt><trkpt lat="38.294054051199495" lon="16.319629597427063"><ele>10.600000000000001</ele><time>2026-03-22T08:48:34Z</time></trkpt><trkpt lat="38.2941534574694" lon="16.319589014485395"><ele>10.8</ele><time>2026-03-22T08:48:35Z</time></trkpt><trkpt lat="38.29426002605104" lon="16.319529510977347"><ele>11.0</ele><time>2026-03-22T08:48:36Z</time></trkpt><trkpt lat="38.29441037198359" lon="16.319427054007367"><ele>11.0</ele><time>2026-03-22T08:48:37Z</time></trkpt><trkpt lat="38.29455511981577" lon="16.319367555864204"><ele>11.0</ele><time>2026-03-22T08:48:38Z</time></trkpt><trkpt lat="38.29468067927392" lon="16.31929630848308"><ele>11.0</ele><time>2026-03-22T08:48:39Z</time></trkpt><trkpt lat="38.294822655111346" lon="16.319194077328458"><ele>11.0</ele><time>2026-03-22T08:48:40Z</time></trkpt><trkpt lat="38.29497467614311" lon="16.319110238266315"><ele>11.0</ele><time>2026-03-22T08:48:41Z</time></trkpt><trkpt lat="38.295110357262246" lon="16.319022440597596"><ele>11.0</ele><time>2026-03-22T08:48:42Z</time></trkpt><trkpt lat="38.29526351821899" lon="16.318945960989993"><ele>11.0</ele><time>2026-03-22T08:48:43Z</time></trkpt><trkpt lat="38.29540966667106" lon="16.318865283863094"><ele>11.0</ele><time>2026-03-22T08:48:44Z</time></trkpt><trkpt lat="38.295579071525324" lon="16.318773498060132"><ele>11.0</ele><time>2026-03-22T08:48:45Z</time></trkpt><trkpt lat="38.29572409129284" lon="16.318694773630966"><ele>11.0</ele><time>2026-03-22T08:48:46Z</time></trkpt><trkpt lat="38.29587786013328" lon="16.318607217715183"><ele>11.0</ele><time>2026-03-22T08:48:47Z</time></trkpt><trkpt lat="38.296039820367696" lon="16.318529658720983"><ele>11.0</ele><time>2026-03-22T08:48:48Z</time></trkpt><trkpt lat="38.296177112731876" lon="16.318432315800887"><ele>11.0</ele><time>2026-03-22T08:48:49Z</time></trkpt><trkpt lat="38.2963305126033" lon="16.318350676180028"><ele>11.0</ele><time>2026-03-22T08:48:50Z</time></trkpt><trkpt lat="38.29648602681029" lon="16.31827563684555"><ele>11.0</ele><time>2026-03-22T08:48:51Z</time></trkpt><trkpt lat="38.296630995120246" lon="16.318189877270736"><ele>11.333333333333332</ele><time>2026-03-22T08:48:52Z</time></trkpt><trkpt lat="38.29677952483547" lon="16.318108811312175"><ele>11.666666666666666</ele><time>2026-03-22T08:48:53Z</time></trkpt><trkpt lat="38.29693428083961" lon="16.31802037699416"><ele>12.0</ele><time>2026-03-22T08:48:54Z</time></trkpt><trkpt lat="38.297089144617416" lon="16.317934940136837"><ele>12.0</ele><time>2026-03-22T08:48:55Z</time></trkpt><trkpt lat="38.297229232070805" lon="16.317861055285302"><ele>12.0</ele><time>2026-03-22T08:48:56Z</time></trkpt><trkpt lat="38.29736657103224" lon="16.317785378453138"><ele>12.0</ele><time>2026-03-22T08:48:57Z</time></trkpt><trkpt lat="38.29747425584102" lon="16.317701986565815"><ele>12.0</ele><time>2026-03-22T08:48:58Z</time></trkpt><trkpt lat="38.29758621097564" lon="16.317602788997032"><ele>12.666666666666668</ele><time>2026-03-22T08:48:59Z</time></trkpt><trkpt lat="38.29768658864746" lon="16.317464860959355"><ele>13.333333333333334</ele><time>2026-03-22T08:49:00Z</time></trkpt><trkpt lat="38.297791341912834" lon="16.317299523521022"><ele>14.0</ele><time>2026-03-22T08:49:01Z</time></trkpt><trkpt lat="38.29789490553558" lon="16.317132008553326"><ele>14.333333333333334</ele><time>2026-03-22T08:49:02Z</time></trkpt><trkpt lat="38.29799784563221" lon="16.31695037455701"><ele>14.666666666666668</ele><time>2026-03-22T08:49:03Z</time></trkpt><trkpt lat="38.29807648999829" lon="16.3167589036516"><ele>15.0</ele><time>2026-03-22T08:49:04Z</time></trkpt><trkpt lat="38.29817122736332" lon="16.316568300839485"><ele>15.333333333333332</ele><time>2026-03-22T08:49:05Z</time></trkpt><trkpt lat="38.29827822485591" lon="16.31638196722557"><ele>15.666666666666666</ele><time>2026-03-22T08:49:06Z</time></trkpt><trkpt lat="38.29837559365788" lon="16.316184501400866"><ele>16.0</ele><time>2026-03-22T08:49:07Z</time></trkpt><trkpt lat="38.29846378795813" lon="16.31599829658189"><ele>16.0</ele><time>2026-03-22T08:49:08Z</time></trkpt><trkpt lat="38.29857940004657" lon="16.315803219464794"><ele>16.0</ele><time>2026-03-22T08:49:09Z</time></trkpt><trkpt lat="38.29867785988162" lon="16.315600834131406"><ele>16.0</ele><time>2026-03-22T08:49:10Z</time></trkpt><trkpt lat="38.29879104569112" lon="16.315401979206015"><ele>16.0</ele><time>2026-03-22T08:49:11Z</time></trkpt><trkpt lat="38.298896264293056" lon="16.315196446661147"><ele>16.0</ele><time>2026-03-22T08:49:12Z</time></trkpt><trkpt lat="38.298995153388375" lon="16.314998122737073"><ele>16.0</ele><time>2026-03-22T08:49:13Z</time></trkpt><trkpt lat="38.299099511495136" lon="16.31479676313588"><ele>17.333333333333332</ele><time>2026-03-22T08:49:14Z</time></trkpt><trkpt lat="38.29920250250548" lon="16.314604435350425"><ele>18.666666666666668</ele><time>2026-03-22T08:49:15Z</time></trkpt><trkpt lat="38.2993081409971" lon="16.31440022857708"><ele>20.0</ele><time>2026-03-22T08:49:16Z</time></trkpt><trkpt lat="38.29941153325046" lon="16.314209129002656"><ele>20.0</ele><time>2026-03-22T08:49:17Z</time></trkpt><trkpt lat="38.29950758301946" lon="16.314015453922973"><ele>20.0</ele><time>2026-03-22T08:49:18Z</time></trkpt><trkpt lat="38.29960581171362" lon="16.313825520014422"><ele>20.0</ele><time>2026-03-22T08:49:19Z</time></trkpt><trkpt lat="38.29970253774926" lon="16.313641874336295"><ele>20.0</ele><time>2026-03-22T08:49:20Z</time></trkpt><trkpt lat="38.29980632560247" lon="16.313445553897324"><ele>20.0</ele><time>2026-03-22T08:49:21Z</time></trkpt><trkpt lat="38.299910646826106" lon="16.31326044754181"><ele>20.0</ele><time>2026-03-22T08:49:22Z</time></trkpt><trkpt lat="38.30001896794042" lon="16.313071818840637"><ele>21.0</ele><time>2026-03-22T08:49:23Z</time></trkpt><trkpt lat="38.30010847780027" lon="16.312876399575366"><ele>22.0</ele><time>2026-03-22T08:49:24Z</time></trkpt><trkpt lat="38.300202316973305" lon="16.31267651012244"><ele>23.0</ele><time>2026-03-22T08:49:25Z</time></trkpt><trkpt lat="38.300301511225115" lon="16.312475515339806"><ele>23.0</ele><time>2026-03-22T08:49:26Z</time></trkpt><trkpt lat="38.30040667402965" lon="16.312275688936595"><ele>23.0</ele><time>2026-03-22T08:49:27Z</time></trkpt><trkpt lat="38.30051195671461" lon="16.31206790684605"><ele>23.0</ele><time>2026-03-22T08:49:28Z</time></trkpt><trkpt lat="38.300618976714695" lon="16.311869256508817"><ele>22.666666666666668</ele><time>2026-03-22T08:49:29Z</time></trkpt><trkpt lat="38.300735565831424" lon="16.311663443021658"><ele>22.333333333333332</ele><time>2026-03-22T08:49:30Z</time></trkpt><trkpt lat="38.30084067472238" lon="16.31146977301858"><ele>22.0</ele><time>2026-03-22T08:49:31Z</time></trkpt><trkpt lat="38.300930932943636" lon="16.311267207700546"><ele>22.0</ele><time>2026-03-22T08:49:32Z</time></trkpt><trkpt lat="38.30103693570209" lon="16.31107967791157"><ele>22.0</ele><time>2026-03-22T08:49:33Z</time></trkpt><trkpt lat="38.30115500189615" lon="16.31088966548294"><ele>22.0</ele><time>2026-03-22T08:49:34Z</time></trkpt><trkpt lat="38.30125791191616" lon="16.310690458266492"><ele>22.333333333333332</ele><time>2026-03-22T08:49:35Z</time></trkpt><trkpt lat="38.30137622266981" lon="16.31050130232069"><ele>22.666666666666668</ele><time>2026-03-22T08:49:36Z</time></trkpt><trkpt lat="38.301460240516604" lon="16.310287629403867"><ele>23.0</ele><time>2026-03-22T08:49:37Z</time></trkpt><trkpt lat="38.301556700940814" lon="16.310100187214456"><ele>23.0</ele><time>2026-03-22T08:49:38Z</time></trkpt><trkpt lat="38.30165194671899" lon="16.309909400848888"><ele>23.0</ele><time>2026-03-22T08:49:39Z</time></trkpt><trkpt lat="38.3017562253021" lon="16.30970716198771"><ele>23.0</ele><time>2026-03-22T08:49:40Z</time></trkpt><trkpt lat="38.30186154525837" lon="16.309499742628894"><ele>24.0</ele><time>2026-03-22T08:49:41Z</time></trkpt><trkpt lat="38.30197311427906" lon="16.309296655344934"><ele>25.0</ele><time>2026-03-22T08:49:42Z</time></trkpt><trkpt lat="38.30206881739542" lon="16.309089221613757"><ele>26.0</ele><time>2026-03-22T08:49:43Z</time></trkpt><trkpt lat="38.30217262800843" lon="16.30888581148573"><ele>26.333333333333332</ele><time>2026-03-22T08:49:44Z</time></trkpt><trkpt lat="38.30228215972022" lon="16.308684612243297"><ele>26.666666666666664</ele><time>2026-03-22T08:49:45Z</time></trkpt><trkpt lat="38.302387616571565" lon="16.308490987987394"><ele>27.0</ele><time>2026-03-22T08:49:46Z</time></trkpt><trkpt lat="38.30248607990327" lon="16.308295969846878"><ele>27.0</ele><time>2026-03-22T08:49:47Z</time></trkpt><trkpt lat="38.30257893795891" lon="16.308102766680342"><ele>27.0</ele><time>2026-03-22T08:49:48Z</time></trkpt><trkpt lat="38.30267244842053" lon="16.307914486716854"><ele>27.0</ele><time>2026-03-22T08:49:49Z</time></trkpt><trkpt lat="38.30276071984345" lon="16.307744033076474"><ele>28.0</ele><time>2026-03-22T08:49:50Z</time></trkpt><trkpt lat="38.302849178374885" lon="16.307573337652038"><ele>29.0</ele><time>2026-03-22T08:49:51Z</time></trkpt><trkpt lat="38.30293937564961" lon="16.30741421556121"><ele>30.0</ele><time>2026-03-22T08:49:52Z</time></trkpt><trkpt lat="38.30302244246544" lon="16.30724162425094"><ele>30.25</ele><time>2026-03-22T08:49:53Z</time></trkpt><trkpt lat="38.30307353116544" lon="16.30708866069578"><ele>30.5</ele><time>2026-03-22T08:49:54Z</time></trkpt><trkpt lat="38.30309382137994" lon="16.306910111405813"><ele>30.75</ele><time>2026-03-22T08:49:55Z</time></trkpt><trkpt lat="38.30313065753862" lon="16.30675074542466"><ele>31.0</ele><time>2026-03-22T08:49:56Z</time></trkpt><trkpt lat="38.30317649451766" lon="16.30660448798212"><ele>31.0</ele><time>2026-03-22T08:49:57Z</time></trkpt><trkpt lat="38.3032207872965" lon="16.306453625112365"><ele>31.0</ele><time>2026-03-22T08:49:58Z</time></trkpt><trkpt lat="38.30326503072871" lon="16.306289607173092"><ele>31.0</ele><time>2026-03-22T08:49:59Z</time></trkpt><trkpt lat="38.30332874520922" lon="16.30611972050646"><ele>31.0</ele><time>2026-03-22T08:50:00Z</time></trkpt><trkpt lat="38.30340886991204" lon="16.3059499752271"><ele>34.0</ele><time>2026-03-22T08:50:01Z</time></trkpt><trkpt lat="38.30348637820167" lon="16.305773554730578"><ele>37.0</ele><time>2026-03-22T08:50:02Z</time></trkpt><trkpt lat="38.303556793700196" lon="16.305601576178084"><ele>40.0</ele><time>2026-03-22T08:50:03Z</time></trkpt><trkpt lat="38.30362843866961" lon="16.305423115980926"><ele>41.333333333333336</ele><time>2026-03-22T08:50:04Z</time></trkpt><trkpt lat="38.30369606914789" lon="16.305235715922517"><ele>42.666666666666664</ele><time>2026-03-22T08:50:05Z</time></trkpt><trkpt lat="38.30377521380256" lon="16.30505189698289"><ele>44.0</ele><time>2026-03-22T08:50:06Z</time></trkpt><trkpt lat="38.30384193138332" lon="16.304864559083263"><ele>43.33333333333333</ele><time>2026-03-22T08:50:07Z</time></trkpt><trkpt lat="38.30391020278374" lon="16.304690121962373"><ele>42.666666666666664</ele><time>2026-03-22T08:50:08Z</time></trkpt><trkpt lat="38.3039658174095" lon="16.30450992116166"><ele>42.0</ele><time>2026-03-22T08:50:09Z</time></trkpt><trkpt lat="38.304034000099" lon="16.304333058983378"><ele>42.0</ele><time>2026-03-22T08:50:10Z</time></trkpt><trkpt lat="38.30412816301572" lon="16.30417283155588"><ele>42.0</ele><time>2026-03-22T08:50:11Z</time></trkpt><trkpt lat="38.304195575799355" lon="16.30402328994248"><ele>42.0</ele><time>2026-03-22T08:50:12Z</time></trkpt><trkpt lat="38.304266707325446" lon="16.303870716673785"><ele>42.0</ele><time>2026-03-22T08:50:13Z</time></trkpt><trkpt lat="38.30437735505086" lon="16.30376774739317"><ele>43.333333333333336</ele><time>2026-03-22T08:50:14Z</time></trkpt><trkpt lat="38.304495642519065" lon="16.303637123288496"><ele>44.66666666666667</ele><time>2026-03-22T08:50:15Z</time></trkpt><trkpt lat="38.30461512800953" lon="16.303502122695285"><ele>46.0</ele><time>2026-03-22T08:50:16Z</time></trkpt><trkpt lat="38.304725734221066" lon="16.303375364198732"><ele>46.66666666666667</ele><time>2026-03-22T08:50:17Z</time></trkpt><trkpt lat="38.30484308771381" lon="16.30323507921091"><ele>47.333333333333336</ele><time>2026-03-22T08:50:18Z</time></trkpt><trkpt lat="38.304925867617726" lon="16.30307627373889"><ele>48.0</ele><time>2026-03-22T08:50:19Z</time></trkpt><trkpt lat="38.305020798716235" lon="16.302919894358254"><ele>48.0</ele><time>2026-03-22T08:50:20Z</time></trkpt><trkpt lat="38.305088106521254" lon="16.302750502015307"><ele>48.0</ele><time>2026-03-22T08:50:21Z</time></trkpt><trkpt lat="38.305156222807334" lon="16.30258073704998"><ele>48.0</ele><time>2026-03-22T08:50:22Z</time></trkpt><trkpt lat="38.30521604588382" lon="16.30243668790477"><ele>48.0</ele><time>2026-03-22T08:50:23Z</time></trkpt><trkpt lat="38.305276331505375" lon="16.302310692318706"><ele>48.4</ele><time>2026-03-22T08:50:24Z</time></trkpt><trkpt lat="38.30533188914151" lon="16.302182919143593"><ele>48.8</ele><time>2026-03-22T08:50:25Z</time></trkpt><trkpt lat="38.30541448357258" lon="16.302112224955863"><ele>49.2</ele><time>2026-03-22T08:50:26Z</time></trkpt><trkpt lat="38.30549165327092" lon="16.302047663385522"><ele>49.6</ele><time>2026-03-22T08:50:27Z</time></trkpt><trkpt lat="38.30561184344397" lon="16.30197411440907"><ele>50.0</ele><time>2026-03-22T08:50:28Z</time></trkpt><trkpt lat="38.30572258828032" lon="16.30188068227652"><ele>50.0</ele><time>2026-03-22T08:50:29Z</time></trkpt><trkpt lat="38.305844522048304" lon="16.301780065216374"><ele>50.0</ele><time>2026-03-22T08:50:30Z</time></trkpt><trkpt lat="38.30595945483361" lon="16.301662388809074"><ele>50.0</ele><time>2026-03-22T08:50:31Z</time></trkpt><trkpt lat="38.30608863395157" lon="16.301551992464013"><ele>50.0</ele><time>2026-03-22T08:50:32Z</time></trkpt><trkpt lat="38.30623280327036" lon="16.30143454009776"><ele>51.0</ele><time>2026-03-22T08:50:33Z</time></trkpt><trkpt lat="38.30635235470778" lon="16.301291829026887"><ele>52.0</ele><time>2026-03-22T08:50:34Z</time></trkpt><trkpt lat="38.30644365310288" lon="16.301157204841516"><ele>53.0</ele><time>2026-03-22T08:50:35Z</time></trkpt><trkpt lat="38.30656669000287" lon="16.30099162644576"><ele>53.0</ele><time>2026-03-22T08:50:36Z</time></trkpt><trkpt lat="38.30668513196159" lon="16.300815162089062"><ele>53.0</ele><time>2026-03-22T08:50:37Z</time></trkpt><trkpt lat="38.30680097676382" lon="16.300628017669524"><ele>53.0</ele><time>2026-03-22T08:50:38Z</time></trkpt><trkpt lat="38.30691624963974" lon="16.30043804112421"><ele>54.66666666666667</ele><time>2026-03-22T08:50:39Z</time></trkpt><trkpt lat="38.3070350617884" lon="16.300244395712678"><ele>56.33333333333333</ele><time>2026-03-22T08:50:40Z</time></trkpt><trkpt lat="38.30715805819074" lon="16.300048250801474"><ele>58.0</ele><time>2026-03-22T08:50:41Z</time></trkpt><trkpt lat="38.3072793692817" lon="16.29985767951677"><ele>60.666666666666664</ele><time>2026-03-22T08:50:42Z</time></trkpt><trkpt lat="38.307391321277706" lon="16.29966902912728"><ele>63.33333333333333</ele><time>2026-03-22T08:50:43Z</time></trkpt><trkpt lat="38.30750749604519" lon="16.299486463549446"><ele>66.0</ele><time>2026-03-22T08:50:44Z</time></trkpt><trkpt lat="38.307637086231125" lon="16.299310890215448"><ele>66.0</ele><time>2026-03-22T08:50:45Z</time></trkpt><trkpt lat="38.30775671410425" lon="16.299136466074245"><ele>66.0</ele><time>2026-03-22T08:50:46Z</time></trkpt><trkpt lat="38.30788336046011" lon="16.298960549658823"><ele>66.0</ele><time>2026-03-22T08:50:47Z</time></trkpt><trkpt lat="38.30800838269456" lon="16.29879237415617"><ele>64.66666666666667</ele><time>2026-03-22T08:50:48Z</time></trkpt><trkpt lat="38.308140380032654" lon="16.298618240711583"><ele>63.333333333333336</ele><time>2026-03-22T08:50:49Z</time></trkpt><trkpt lat="38.308267125296524" lon="16.29843984317442"><ele>62.0</ele><time>2026-03-22T08:50:50Z</time></trkpt><trkpt lat="38.308401190587475" lon="16.298267215958155"><ele>65.66666666666667</ele><time>2026-03-22T08:50:51Z</time></trkpt><trkpt lat="38.30854600406938" lon="16.298080852449345"><ele>69.33333333333333</ele><time>2026-03-22T08:50:52Z</time></trkpt><trkpt lat="38.30866347127271" lon="16.297919665550832"><ele>73.0</ele><time>2026-03-22T08:50:53Z</time></trkpt><trkpt lat="38.3087523663937" lon="16.297753911939434"><ele>73.0</ele><time>2026-03-22T08:50:54Z</time></trkpt><trkpt lat="38.30890388574295" lon="16.29757281910587"><ele>73.0</ele><time>2026-03-22T08:50:55Z</time></trkpt><trkpt lat="38.30905271656778" lon="16.29739776117001"><ele>73.0</ele><time>2026-03-22T08:50:56Z</time></trkpt><trkpt lat="38.30919566363175" lon="16.29721570696071"><ele>73.66666666666666</ele><time>2026-03-22T08:50:57Z</time></trkpt><trkpt lat="38.309343162419" lon="16.297003509965112"><ele>74.33333333333333</ele><time>2026-03-22T08:50:58Z</time></trkpt><trkpt lat="38.30946692746954" lon="16.29685262786419"><ele>75.0</ele><time>2026-03-22T08:50:59Z</time></trkpt><trkpt lat="38.309586868832326" lon="16.296670450097043"><ele>75.0</ele><time>2026-03-22T08:51:00Z</time></trkpt><trkpt lat="38.30972709814325" lon="16.296497040459734"><ele>75.0</ele><time>2026-03-22T08:51:01Z</time></trkpt><trkpt lat="38.30983471077584" lon="16.29632631795285"><ele>75.0</ele><time>2026-03-22T08:51:02Z</time></trkpt><trkpt lat="38.30996025702759" lon="16.296154231747213"><ele>76.33333333333333</ele><time>2026-03-22T08:51:03Z</time></trkpt><trkpt lat="38.31008766556281" lon="16.29598814079128"><ele>77.66666666666666</ele><time>2026-03-22T08:51:04Z</time></trkpt><trkpt lat="38.31019380130898" lon="16.295815567361952"><ele>79.0</ele><time>2026-03-22T08:51:05Z</time></trkpt><trkpt lat="38.310283779249545" lon="16.2956464762199"><ele>80.5</ele><time>2026-03-22T08:51:06Z</time></trkpt><trkpt lat="38.31037078108704" lon="16.29548144522954"><ele>82.0</ele><time>2026-03-22T08:51:07Z</time></trkpt><trkpt lat="38.31042894299855" lon="16.295345261171047"><ele>83.5</ele><time>2026-03-22T08:51:08Z</time></trkpt><trkpt lat="38.310503619707795" lon="16.295245315786328"><ele>85.0</ele><time>2026-03-22T08:51:09Z</time></trkpt><trkpt lat="38.31058947914653" lon="16.295167037204216"><ele>85.0</ele><time>2026-03-22T08:51:10Z</time></trkpt><trkpt lat="38.31069647959208" lon="16.29511442963098"><ele>85.0</ele><time>2026-03-22T08:51:11Z</time></trkpt><trkpt lat="38.31082233544207" lon="16.29506951427361"><ele>85.0</ele><time>2026-03-22T08:51:12Z</time></trkpt><trkpt lat="38.31095073893273" lon="16.295016393110323"><ele>85.0</ele><time>2026-03-22T08:51:13Z</time></trkpt><trkpt lat="38.31108404589391" lon="16.29496187311559"><ele>85.0</ele><time>2026-03-22T08:51:14Z</time></trkpt><trkpt lat="38.311214903591136" lon="16.29490582667867"><ele>85.0</ele><time>2026-03-22T08:51:15Z</time></trkpt><trkpt lat="38.311351336811164" lon="16.294855967023974"><ele>85.0</ele><time>2026-03-22T08:51:16Z</time></trkpt><trkpt lat="38.31146914120129" lon="16.294824359902037"><ele>85.0</ele><time>2026-03-22T08:51:17Z</time></trkpt><trkpt lat="38.31157986854185" lon="16.294791511382773"><ele>86.2</ele><time>2026-03-22T08:51:18Z</time></trkpt><trkpt lat="38.31168554489112" lon="16.29477246119212"><ele>87.4</ele><time>2026-03-22T08:51:19Z</time></trkpt><trkpt lat="38.31179057704608" lon="16.2947763651952"><ele>88.6</ele><time>2026-03-22T08:51:20Z</time></trkpt><trkpt lat="38.31190484516857" lon="16.294801275753432"><ele>89.8</ele><time>2026-03-22T08:51:21Z</time></trkpt><trkpt lat="38.31200987586727" lon="16.294828110109908"><ele>91.0</ele><time>2026-03-22T08:51:22Z</time></trkpt><trkpt lat="38.31212202979239" lon="16.294853205837743"><ele>91.0</ele><time>2026-03-22T08:51:23Z</time></trkpt><trkpt lat="38.312219441911225" lon="16.29485414681857"><ele>91.0</ele><time>2026-03-22T08:51:24Z</time></trkpt><trkpt lat="38.31233873749433" lon="16.294824986907383"><ele>91.0</ele><time>2026-03-22T08:51:25Z</time></trkpt><trkpt lat="38.31243336444757" lon="16.29476909781903"><ele>91.0</ele><time>2026-03-22T08:51:26Z</time></trkpt><trkpt lat="38.31251750257162" lon="16.29472701236757"><ele>91.0</ele><time>2026-03-22T08:51:27Z</time></trkpt><trkpt lat="38.31260774817909" lon="16.294665601480737"><ele>90.25</ele><time>2026-03-22T08:51:28Z</time></trkpt><trkpt lat="38.312663290579835" lon="16.294554218150918"><ele>89.5</ele><time>2026-03-22T08:51:29Z</time></trkpt><trkpt lat="38.31273693374035" lon="16.294428185650272"><ele>88.75</ele><time>2026-03-22T08:51:30Z</time></trkpt><trkpt lat="38.31282182678397" lon="16.29430417387563"><ele>88.0</ele><time>2026-03-22T08:51:31Z</time></trkpt><trkpt lat="38.31291048391991" lon="16.294161066576855"><ele>88.0</ele><time>2026-03-22T08:51:32Z</time></trkpt><trkpt lat="38.312990751332556" lon="16.2940301860437"><ele>88.0</ele><time>2026-03-22T08:51:33Z</time></trkpt><trkpt lat="38.313083655151075" lon="16.293927943755165"><ele>88.0</ele><time>2026-03-22T08:51:34Z</time></trkpt><trkpt lat="38.31316103798979" lon="16.293816878598026"><ele>88.0</ele><time>2026-03-22T08:51:35Z</time></trkpt><trkpt lat="38.3132221282934" lon="16.293695080312407"><ele>86.80000000000001</ele><time>2026-03-22T08:51:36Z</time></trkpt><trkpt lat="38.313279400672506" lon="16.29356126668006"><ele>85.6</ele><time>2026-03-22T08:51:37Z</time></trkpt><trkpt lat="38.31335167505474" lon="16.293458320053684"><ele>84.4</ele><time>2026-03-22T08:51:38Z</time></trkpt><trkpt lat="38.313411161362545" lon="16.293370901778072"><ele>83.19999999999999</ele><time>2026-03-22T08:51:39Z</time></trkpt><trkpt lat="38.31348282199997" lon="16.29329091161931"><ele>82.0</ele><time>2026-03-22T08:51:40Z</time></trkpt><trkpt lat="38.31355429461598" lon="16.29323068258092"><ele>82.0</ele><time>2026-03-22T08:51:41Z</time></trkpt><trkpt lat="38.313663238581604" lon="16.29320948199437"><ele>82.0</ele><time>2026-03-22T08:51:42Z</time></trkpt><trkpt lat="38.313755112914635" lon="16.29319859407653"><ele>82.0</ele><time>2026-03-22T08:51:43Z</time></trkpt><trkpt lat="38.31385743545323" lon="16.293189685084318"><ele>82.0</ele><time>2026-03-22T08:51:44Z</time></trkpt><trkpt lat="38.31397275654044" lon="16.29317753726879"><ele>82.0</ele><time>2026-03-22T08:51:45Z</time></trkpt><trkpt lat="38.31406789966434" lon="16.29317137129224"><ele>78.66666666666666</ele><time>2026-03-22T08:51:46Z</time></trkpt><trkpt lat="38.31415072583818" lon="16.293165035334006"><ele>75.33333333333333</ele><time>2026-03-22T08:51:47Z</time></trkpt><trkpt lat="38.31440973541417" lon="16.2931452218876"><ele>72.0</ele><time>2026-03-22T08:51:48Z</time></trkpt><trkpt lat="38.31452054859585" lon="16.293136823512675"><ele>72.0</ele><time>2026-03-22T08:51:49Z</time></trkpt><trkpt lat="38.314618825661086" lon="16.293130181829746"><ele>72.0</ele><time>2026-03-22T08:51:50Z</time></trkpt><trkpt lat="38.314736294018196" lon="16.29312224319324"><ele>72.0</ele><time>2026-03-22T08:51:51Z</time></trkpt><trkpt lat="38.31484710482897" lon="16.2931126962111"><ele>72.0</ele><time>2026-03-22T08:51:52Z</time></trkpt><trkpt lat="38.31496647674148" lon="16.293097831782315"><ele>72.0</ele><time>2026-03-22T08:51:53Z</time></trkpt><trkpt lat="38.31508976363964" lon="16.293071531130572"><ele>70.5</ele><time>2026-03-22T08:51:54Z</time></trkpt><trkpt lat="38.3152182639234" lon="16.293056129566843"><ele>69.0</ele><time>2026-03-22T08:51:55Z</time></trkpt><trkpt lat="38.31535408719108" lon="16.29300926805831"><ele>67.5</ele><time>2026-03-22T08:51:56Z</time></trkpt><trkpt lat="38.315476358179424" lon="16.29293288839393"><ele>66.0</ele><time>2026-03-22T08:51:57Z</time></trkpt><trkpt lat="38.3156014387164" lon="16.29284371562792"><ele>65.33333333333333</ele><time>2026-03-22T08:51:58Z</time></trkpt><trkpt lat="38.315722730816745" lon="16.29270194144931"><ele>64.66666666666666</ele><time>2026-03-22T08:51:59Z</time></trkpt><trkpt lat="38.31584976172599" lon="16.292547592178906"><ele>64.0</ele><time>2026-03-22T08:52:00Z</time></trkpt><trkpt lat="38.31598239497282" lon="16.29239564518424"><ele>65.66666666666666</ele><time>2026-03-22T08:52:01Z</time></trkpt><trkpt lat="38.316109994094155" lon="16.292241759510972"><ele>67.33333333333333</ele><time>2026-03-22T08:52:02Z</time></trkpt><trkpt lat="38.31624325509547" lon="16.292098326919827"><ele>69.0</ele><time>2026-03-22T08:52:03Z</time></trkpt><trkpt lat="38.316365311367996" lon="16.291950282220252"><ele>68.66666666666667</ele><time>2026-03-22T08:52:04Z</time></trkpt><trkpt lat="38.31650362249212" lon="16.291813408348574"><ele>68.33333333333334</ele><time>2026-03-22T08:52:05Z</time></trkpt><trkpt lat="38.31663931522975" lon="16.291680163513806"><ele>68.0</ele><time>2026-03-22T08:52:06Z</time></trkpt><trkpt lat="38.316757714195624" lon="16.291546168601013"><ele>68.66666666666667</ele><time>2026-03-22T08:52:07Z</time></trkpt><trkpt lat="38.3168877282764" lon="16.291415888811798"><ele>69.33333333333333</ele><time>2026-03-22T08:52:08Z</time></trkpt><trkpt lat="38.31701264901974" lon="16.291272532443763"><ele>70.0</ele><time>2026-03-22T08:52:09Z</time></trkpt><trkpt lat="38.31714014554256" lon="16.291136049938643"><ele>70.33333333333333</ele><time>2026-03-22T08:52:10Z</time></trkpt><trkpt lat="38.31726246441137" lon="16.29097200741616"><ele>70.66666666666667</ele><time>2026-03-22T08:52:11Z</time></trkpt><trkpt lat="38.31737760341357" lon="16.29081402574021"><ele>71.0</ele><time>2026-03-22T08:52:12Z</time></trkpt><trkpt lat="38.31750536192638" lon="16.290641074881385"><ele>71.0</ele><time>2026-03-22T08:52:13Z</time></trkpt><trkpt lat="38.31763969814327" lon="16.29050233708978"><ele>71.0</ele><time>2026-03-22T08:52:14Z</time></trkpt><trkpt lat="38.317721755509325" lon="16.29032480878194"><ele>71.0</ele><time>2026-03-22T08:52:15Z</time></trkpt><trkpt lat="38.31781041545697" lon="16.290162843585875"><ele>71.0</ele><time>2026-03-22T08:52:16Z</time></trkpt><trkpt lat="38.31790648659671" lon="16.290014087979923"><ele>71.0</ele><time>2026-03-22T08:52:17Z</time></trkpt><trkpt lat="38.31800151034662" lon="16.28986186749428"><ele>71.0</ele><time>2026-03-22T08:52:18Z</time></trkpt><trkpt lat="38.31809917121389" lon="16.28971871180981"><ele>72.0</ele><time>2026-03-22T08:52:19Z</time></trkpt><trkpt lat="38.31818800020817" lon="16.289593998548398"><ele>73.0</ele><time>2026-03-22T08:52:20Z</time></trkpt><trkpt lat="38.31827151450914" lon="16.28948623148693"><ele>74.0</ele><time>2026-03-22T08:52:21Z</time></trkpt><trkpt lat="38.3183410054985" lon="16.289394900668427"><ele>75.0</ele><time>2026-03-22T08:52:22Z</time></trkpt><trkpt lat="38.31842110923627" lon="16.28932420572136"><ele>76.0</ele><time>2026-03-22T08:52:23Z</time></trkpt><trkpt lat="38.31851285403923" lon="16.289287011291073"><ele>76.0</ele><time>2026-03-22T08:52:24Z</time></trkpt><trkpt lat="38.318611438407416" lon="16.289278862777877"><ele>76.0</ele><time>2026-03-22T08:52:25Z</time></trkpt><trkpt lat="38.31872165402653" lon="16.289287967926406"><ele>76.0</ele><time>2026-03-22T08:52:26Z</time></trkpt><trkpt lat="38.318834695018744" lon="16.28931052040869"><ele>76.0</ele><time>2026-03-22T08:52:27Z</time></trkpt><trkpt lat="38.31896096429433" lon="16.28933854039462"><ele>75.75</ele><time>2026-03-22T08:52:28Z</time></trkpt><trkpt lat="38.31910034039311" lon="16.289373798092498"><ele>75.5</ele><time>2026-03-22T08:52:29Z</time></trkpt><trkpt lat="38.31923882503267" lon="16.28941518320624"><ele>75.25</ele><time>2026-03-22T08:52:30Z</time></trkpt><trkpt lat="38.31937633157483" lon="16.28947420703852"><ele>75.0</ele><time>2026-03-22T08:52:31Z</time></trkpt><trkpt lat="38.31949508188209" lon="16.289512299954016"><ele>75.0</ele><time>2026-03-22T08:52:32Z</time></trkpt><trkpt lat="38.31960799363696" lon="16.28954793593576"><ele>75.0</ele><time>2026-03-22T08:52:33Z</time></trkpt><trkpt lat="38.3197150526319" lon="16.289609465700114"><ele>75.0</ele><time>2026-03-22T08:52:34Z</time></trkpt><trkpt lat="38.31981860063806" lon="16.28966922921523"><ele>75.0</ele><time>2026-03-22T08:52:35Z</time></trkpt><trkpt lat="38.31990587245179" lon="16.289715347407153"><ele>75.0</ele><time>2026-03-22T08:52:36Z</time></trkpt><trkpt lat="38.32000075646811" lon="16.28983195567776"><ele>75.0</ele><time>2026-03-22T08:52:37Z</time></trkpt><trkpt lat="38.32010701188153" lon="16.289939725880615"><ele>75.0</ele><time>2026-03-22T08:52:38Z</time></trkpt><trkpt lat="38.32022140592576" lon="16.29005771665255"><ele>75.0</ele><time>2026-03-22T08:52:39Z</time></trkpt><trkpt lat="38.320327728476535" lon="16.290151394106356"><ele>75.0</ele><time>2026-03-22T08:52:40Z</time></trkpt><trkpt lat="38.320418690063875" lon="16.290239966240442"><ele>75.0</ele><time>2026-03-22T08:52:41Z</time></trkpt><trkpt lat="38.32050534471891" lon="16.290336416339972"><ele>75.0</ele><time>2026-03-22T08:52:42Z</time></trkpt><trkpt lat="38.320610223800685" lon="16.29044378277464"><ele>75.0</ele><time>2026-03-22T08:52:43Z</time></trkpt><trkpt lat="38.320711761722876" lon="16.29055352104172"><ele>75.0</ele><time>2026-03-22T08:52:44Z</time></trkpt><trkpt lat="38.32081004034311" lon="16.290644792823812"><ele>75.4</ele><time>2026-03-22T08:52:45Z</time></trkpt><trkpt lat="38.320909131157435" lon="16.290739930478903"><ele>75.8</ele><time>2026-03-22T08:52:46Z</time></trkpt><trkpt lat="38.320994070264305" lon="16.29083067151133"><ele>76.2</ele><time>2026-03-22T08:52:47Z</time></trkpt><trkpt lat="38.32107582535896" lon="16.290911172939655"><ele>76.6</ele><time>2026-03-22T08:52:48Z</time></trkpt><trkpt lat="38.321156084912765" lon="16.290964635115863"><ele>77.0</ele><time>2026-03-22T08:52:49Z</time></trkpt><trkpt lat="38.32123742883522" lon="16.291045184838826"><ele>77.0</ele><time>2026-03-22T08:52:50Z</time></trkpt><trkpt lat="38.32131438376958" lon="16.291142137044872"><ele>77.0</ele><time>2026-03-22T08:52:51Z</time></trkpt><trkpt lat="38.32138074709439" lon="16.291260276884678"><ele>77.0</ele><time>2026-03-22T08:52:52Z</time></trkpt><trkpt lat="38.32143656737657" lon="16.29141041666054"><ele>77.0</ele><time>2026-03-22T08:52:53Z</time></trkpt><trkpt lat="38.321492439035005" lon="16.29157373853857"><ele>74.0</ele><time>2026-03-22T08:52:54Z</time></trkpt><trkpt lat="38.321518949828146" lon="16.2917798635199"><ele>71.0</ele><time>2026-03-22T08:52:55Z</time></trkpt><trkpt lat="38.32158117394324" lon="16.291976802870202"><ele>68.0</ele><time>2026-03-22T08:52:56Z</time></trkpt><trkpt lat="38.32166597941137" lon="16.292196037684622"><ele>66.66666666666667</ele><time>2026-03-22T08:52:57Z</time></trkpt><trkpt lat="38.32173007066749" lon="16.29242685601629"><ele>65.33333333333333</ele><time>2026-03-22T08:52:58Z</time></trkpt><trkpt lat="38.32180720357209" lon="16.292675514799566"><ele>64.0</ele><time>2026-03-22T08:52:59Z</time></trkpt><trkpt lat="38.32189140984373" lon="16.292921058830295"><ele>64.33333333333333</ele><time>2026-03-22T08:53:00Z</time></trkpt><trkpt lat="38.32196210667181" lon="16.29317024114765"><ele>64.66666666666667</ele><time>2026-03-22T08:53:01Z</time></trkpt><trkpt lat="38.32203466355877" lon="16.29339629758536"><ele>65.0</ele><time>2026-03-22T08:53:02Z</time></trkpt><trkpt lat="38.32209189129167" lon="16.293599118957395"><ele>65.0</ele><time>2026-03-22T08:53:03Z</time></trkpt><trkpt lat="38.32215619464818" lon="16.293790931303935"><ele>65.0</ele><time>2026-03-22T08:53:04Z</time></trkpt><trkpt lat="38.32221784474836" lon="16.2939851281729"><ele>65.0</ele><time>2026-03-22T08:53:05Z</time></trkpt><trkpt lat="38.32227846224089" lon="16.294190782848556"><ele>65.33333333333334</ele><time>2026-03-22T08:53:06Z</time></trkpt><trkpt lat="38.32234597779378" lon="16.294411029554734"><ele>65.66666666666667</ele><time>2026-03-22T08:53:07Z</time></trkpt><trkpt lat="38.322423789645796" lon="16.294600129979266"><ele>66.0</ele><time>2026-03-22T08:53:08Z</time></trkpt><trkpt lat="38.3224899144356" lon="16.29480231129305"><ele>65.33333333333333</ele><time>2026-03-22T08:53:09Z</time></trkpt><trkpt lat="38.32255360161547" lon="16.295013696477405"><ele>64.66666666666666</ele><time>2026-03-22T08:53:10Z</time></trkpt><trkpt lat="38.32261700919081" lon="16.29521739089448"><ele>64.0</ele><time>2026-03-22T08:53:11Z</time></trkpt><trkpt lat="38.32268131080314" lon="16.295404979881923"><ele>64.0</ele><time>2026-03-22T08:53:12Z</time></trkpt><trkpt lat="38.32272788269728" lon="16.295606719688642"><ele>64.0</ele><time>2026-03-22T08:53:13Z</time></trkpt><trkpt lat="38.322785257533056" lon="16.29577335425089"><ele>64.0</ele><time>2026-03-22T08:53:14Z</time></trkpt><trkpt lat="38.32285932871321" lon="16.29591131231171"><ele>64.0</ele><time>2026-03-22T08:53:15Z</time></trkpt><trkpt lat="38.322916618279436" lon="16.296043903940355"><ele>64.0</ele><time>2026-03-22T08:53:16Z</time></trkpt><trkpt lat="38.322989160865" lon="16.296165992842475"><ele>64.0</ele><time>2026-03-22T08:53:17Z</time></trkpt><trkpt lat="38.32307824488164" lon="16.29627763389207"><ele>64.0</ele><time>2026-03-22T08:53:18Z</time></trkpt><trkpt lat="38.32313522975395" lon="16.296361439460227"><ele>64.0</ele><time>2026-03-22T08:53:19Z</time></trkpt><trkpt lat="38.323230571128555" lon="16.296455917027313"><ele>64.66666666666666</ele><time>2026-03-22T08:53:20Z</time></trkpt><trkpt lat="38.32345135664509" lon="16.29646419111439"><ele>65.33333333333333</ele><time>2026-03-22T08:53:21Z</time></trkpt><trkpt lat="38.32358333289971" lon="16.296513882956162"><ele>66.0</ele><time>2026-03-22T08:53:22Z</time></trkpt><trkpt lat="38.32371282272493" lon="16.296565703112265"><ele>66.0</ele><time>2026-03-22T08:53:23Z</time></trkpt><trkpt lat="38.3238114559685" lon="16.29667304223676"><ele>66.0</ele><time>2026-03-22T08:53:24Z</time></trkpt><trkpt lat="38.32391938760496" lon="16.296768244570206"><ele>66.0</ele><time>2026-03-22T08:53:25Z</time></trkpt><trkpt lat="38.32401226177219" lon="16.29685855127606"><ele>66.0</ele><time>2026-03-22T08:53:26Z</time></trkpt><trkpt lat="38.32410270844598" lon="16.29695256525306"><ele>66.5</ele><time>2026-03-22T08:53:27Z</time></trkpt><trkpt lat="38.32421568938323" lon="16.297073250653213"><ele>67.0</ele><time>2026-03-22T08:53:28Z</time></trkpt><trkpt lat="38.32433165530307" lon="16.297200365617694"><ele>67.5</ele><time>2026-03-22T08:53:29Z</time></trkpt><trkpt lat="38.32444080457129" lon="16.29732081114627"><ele>68.0</ele><time>2026-03-22T08:53:30Z</time></trkpt><trkpt lat="38.324541778103594" lon="16.29744003936832"><ele>69.25</ele><time>2026-03-22T08:53:31Z</time></trkpt><trkpt lat="38.324644704005514" lon="16.297554217190044"><ele>70.5</ele><time>2026-03-22T08:53:32Z</time></trkpt><trkpt lat="38.32477076669309" lon="16.297678188403804"><ele>71.75</ele><time>2026-03-22T08:53:33Z</time></trkpt><trkpt lat="38.32488549296464" lon="16.29780532209365"><ele>73.0</ele><time>2026-03-22T08:53:34Z</time></trkpt><trkpt lat="38.32501059409113" lon="16.297919660828793"><ele>73.25</ele><time>2026-03-22T08:53:35Z</time></trkpt><trkpt lat="38.325130683778696" lon="16.29803181170516"><ele>73.5</ele><time>2026-03-22T08:53:36Z</time></trkpt><trkpt lat="38.32525176644838" lon="16.29815457009999"><ele>73.75</ele><time>2026-03-22T08:53:37Z</time></trkpt><trkpt lat="38.32535126522227" lon="16.29827876063396"><ele>74.0</ele><time>2026-03-22T08:53:38Z</time></trkpt><trkpt lat="38.32548211585496" lon="16.298386918483757"><ele>74.8</ele><time>2026-03-22T08:53:39Z</time></trkpt><trkpt lat="38.32557123534308" lon="16.29849568048567"><ele>75.60000000000001</ele><time>2026-03-22T08:53:40Z</time></trkpt><trkpt lat="38.32565712786025" lon="16.298585243122837"><ele>76.4</ele><time>2026-03-22T08:53:41Z</time></trkpt><trkpt lat="38.325739004413634" lon="16.29867061725049"><ele>77.2</ele><time>2026-03-22T08:53:42Z</time></trkpt><trkpt lat="38.325817743295794" lon="16.298752719675324"><ele>78.0</ele><time>2026-03-22T08:53:43Z</time></trkpt><trkpt lat="38.325895197246766" lon="16.29883348301041"><ele>78.0</ele><time>2026-03-22T08:53:44Z</time></trkpt><trkpt lat="38.325959986684374" lon="16.298896596992396"><ele>78.0</ele><time>2026-03-22T08:53:45Z</time></trkpt><trkpt lat="38.32604231487731" lon="16.298977773234814"><ele>78.0</ele><time>2026-03-22T08:53:46Z</time></trkpt><trkpt lat="38.32613324691124" lon="16.29906012880293"><ele>78.0</ele><time>2026-03-22T08:53:47Z</time></trkpt><trkpt lat="38.32621108057875" lon="16.299123278148432"><ele>78.0</ele><time>2026-03-22T08:53:48Z</time></trkpt><trkpt lat="38.32630240058714" lon="16.299173875121372"><ele>79.0</ele><time>2026-03-22T08:53:49Z</time></trkpt><trkpt lat="38.32642575293584" lon="16.299259638339578"><ele>80.0</ele><time>2026-03-22T08:53:50Z</time></trkpt><trkpt lat="38.3265428717488" lon="16.299322113237153"><ele>81.0</ele><time>2026-03-22T08:53:51Z</time></trkpt><trkpt lat="38.32666070955389" lon="16.299402052288666"><ele>82.0</ele><time>2026-03-22T08:53:52Z</time></trkpt><trkpt lat="38.326801075412995" lon="16.299505692718466"><ele>82.0</ele><time>2026-03-22T08:53:53Z</time></trkpt><trkpt lat="38.32694428617854" lon="16.299603888785203"><ele>82.0</ele><time>2026-03-22T08:53:54Z</time></trkpt><trkpt lat="38.32709353385052" lon="16.299675736363476"><ele>82.0</ele><time>2026-03-22T08:53:55Z</time></trkpt><trkpt lat="38.327218410320384" lon="16.299739354595545"><ele>83.0</ele><time>2026-03-22T08:53:56Z</time></trkpt><trkpt lat="38.327351419210416" lon="16.2998182319353"><ele>84.0</ele><time>2026-03-22T08:53:57Z</time></trkpt><trkpt lat="38.32748691138776" lon="16.299877676284787"><ele>85.0</ele><time>2026-03-22T08:53:58Z</time></trkpt><trkpt lat="38.32757840339097" lon="16.299905899425244"><ele>86.0</ele><time>2026-03-22T08:53:59Z</time></trkpt><trkpt lat="38.327688349895574" lon="16.29998110809988"><ele>86.0</ele><time>2026-03-22T08:54:00Z</time></trkpt><trkpt lat="38.327799829132445" lon="16.300021979808182"><ele>86.0</ele><time>2026-03-22T08:54:01Z</time></trkpt><trkpt lat="38.327898379864905" lon="16.300045219053867"><ele>86.0</ele><time>2026-03-22T08:54:02Z</time></trkpt><trkpt lat="38.32801483160072" lon="16.30007146192218"><ele>86.0</ele><time>2026-03-22T08:54:03Z</time></trkpt><trkpt lat="38.32810639224335" lon="16.300105962550372"><ele>86.0</ele><time>2026-03-22T08:54:04Z</time></trkpt><trkpt lat="38.32820440581451" lon="16.300168155015097"><ele>86.66666666666667</ele><time>2026-03-22T08:54:05Z</time></trkpt><trkpt lat="38.328365456221384" lon="16.300238522081234"><ele>87.33333333333333</ele><time>2026-03-22T08:54:06Z</time></trkpt><trkpt lat="38.32850850824927" lon="16.300299027432352"><ele>88.0</ele><time>2026-03-22T08:54:07Z</time></trkpt><trkpt lat="38.328684602391796" lon="16.300370982871655"><ele>88.0</ele><time>2026-03-22T08:54:08Z</time></trkpt><trkpt lat="38.32884893079561" lon="16.300436264035394"><ele>88.0</ele><time>2026-03-22T08:54:09Z</time></trkpt><trkpt lat="38.32900071688454" lon="16.30048710275919"><ele>88.0</ele><time>2026-03-22T08:54:10Z</time></trkpt><trkpt lat="38.32914336583733" lon="16.300552930254646"><ele>89.33333333333333</ele><time>2026-03-22T08:54:11Z</time></trkpt><trkpt lat="38.329281685132266" lon="16.300607166837054"><ele>90.66666666666667</ele><time>2026-03-22T08:54:12Z</time></trkpt><trkpt lat="38.32943987354262" lon="16.300669768815975"><ele>92.0</ele><time>2026-03-22T08:54:13Z</time></trkpt><trkpt lat="38.329577500768714" lon="16.30072502268572"><ele>93.0</ele><time>2026-03-22T08:54:14Z</time></trkpt><trkpt lat="38.32974526601941" lon="16.300792376293444"><ele>94.0</ele><time>2026-03-22T08:54:15Z</time></trkpt><trkpt lat="38.32988980556501" lon="16.30085193285595"><ele>95.0</ele><time>2026-03-22T08:54:16Z</time></trkpt><trkpt lat="38.33004680013688" lon="16.300912393429073"><ele>95.0</ele><time>2026-03-22T08:54:17Z</time></trkpt><trkpt lat="38.33020076752532" lon="16.300971051591947"><ele>95.0</ele><time>2026-03-22T08:54:18Z</time></trkpt><trkpt lat="38.330353601698604" lon="16.30103992101733"><ele>95.0</ele><time>2026-03-22T08:54:19Z</time></trkpt><trkpt lat="38.33049057444093" lon="16.301092810561073"><ele>96.0</ele><time>2026-03-22T08:54:20Z</time></trkpt><trkpt lat="38.33063932726514" lon="16.30114484400126"><ele>97.0</ele><time>2026-03-22T08:54:21Z</time></trkpt><trkpt lat="38.33077918629443" lon="16.30119688765045"><ele>98.0</ele><time>2026-03-22T08:54:22Z</time></trkpt><trkpt lat="38.330903917255874" lon="16.301238302693548"><ele>99.0</ele><time>2026-03-22T08:54:23Z</time></trkpt><trkpt lat="38.33100938441087" lon="16.301284785153808"><ele>99.0</ele><time>2026-03-22T08:54:24Z</time></trkpt><trkpt lat="38.33112395473386" lon="16.30130804650928"><ele>99.0</ele><time>2026-03-22T08:54:25Z</time></trkpt><trkpt lat="38.33119000222604" lon="16.30134302074127"><ele>99.0</ele><time>2026-03-22T08:54:26Z</time></trkpt><trkpt lat="38.33126271723302" lon="16.301368505115985"><ele>99.0</ele><time>2026-03-22T08:54:27Z</time></trkpt><trkpt lat="38.3313688848385" lon="16.301465534228118"><ele>99.0</ele><time>2026-03-22T08:54:29Z</time></trkpt><trkpt lat="38.33142588137404" lon="16.301505117476623"><ele>99.33333333333333</ele><time>2026-03-22T08:54:30Z</time></trkpt><trkpt lat="38.33151256695458" lon="16.301586545159143"><ele>99.66666666666666</ele><time>2026-03-22T08:54:32Z</time></trkpt><trkpt lat="38.331561318949646" lon="16.301640706584504"><ele>100.0</ele><time>2026-03-22T08:54:33Z</time></trkpt><trkpt lat="38.33160912096314" lon="16.301701042581662"><ele>100.33333333333333</ele><time>2026-03-22T08:54:34Z</time></trkpt><trkpt lat="38.33168463530407" lon="16.301833645518194"><ele>100.66666666666666</ele><time>2026-03-22T08:54:36Z</time></trkpt><trkpt lat="38.33172457777743" lon="16.30191418389013"><ele>101.0</ele><time>2026-03-22T08:54:37Z</time></trkpt><trkpt lat="38.33175357104197" lon="16.30199250631802"><ele>100.99999999999999</ele><time>2026-03-22T08:54:38Z</time></trkpt><trkpt lat="38.331780481121605" lon="16.30207143780537"><ele>101.0</ele><time>2026-03-22T08:54:39Z</time></trkpt><trkpt lat="38.331812054776655" lon="16.30215510582692"><ele>101.0</ele><time>2026-03-22T08:54:40Z</time></trkpt><trkpt lat="38.33182134381201" lon="16.30223755307554"><ele>101.0</ele><time>2026-03-22T08:54:41Z</time></trkpt><trkpt lat="38.3318399800238" lon="16.30237770955997"><ele>100.99999999999999</ele><time>2026-03-22T08:54:43Z</time></trkpt><trkpt lat="38.3319655897853" lon="16.30241879517674"><ele>101.0</ele><time>2026-03-22T08:54:46Z</time></trkpt><trkpt lat="38.332068247871845" lon="16.30238501450906"><ele>100.99999999999999</ele><time>2026-03-22T08:54:48Z</time></trkpt><trkpt lat="38.33213777760942" lon="16.30238890761359"><ele>101.0</ele><time>2026-03-22T08:54:49Z</time></trkpt><trkpt lat="38.332219229519964" lon="16.302395807277172"><ele>101.0</ele><time>2026-03-22T08:54:50Z</time></trkpt><trkpt lat="38.33230417636873" lon="16.30240230402905"><ele>101.0</ele><time>2026-03-22T08:54:51Z</time></trkpt><trkpt lat="38.332378989186516" lon="16.302405518037908"><ele>100.99999999999999</ele><time>2026-03-22T08:54:52Z</time></trkpt><trkpt lat="38.33247300116723" lon="16.30240079652556"><ele>101.0</ele><time>2026-03-22T08:54:54Z</time></trkpt><trkpt lat="38.33253739446231" lon="16.30240591732416"><ele>102.0</ele><time>2026-03-22T08:54:56Z</time></trkpt><trkpt lat="38.33265705861395" lon="16.302372351642433"><ele>103.0</ele><time>2026-03-22T08:55:05Z</time></trkpt><trkpt lat="38.33274625084712" lon="16.30237943450811"><ele>104.0</ele><time>2026-03-22T08:55:06Z</time></trkpt><trkpt lat="38.33287994373458" lon="16.30237759229513"><ele>105.0</ele><time>2026-03-22T08:55:07Z</time></trkpt><trkpt lat="38.332996255675155" lon="16.30238993072733"><ele>105.5</ele><time>2026-03-22T08:55:08Z</time></trkpt><trkpt lat="38.333113470200026" lon="16.302382955154435"><ele>106.0</ele><time>2026-03-22T08:55:09Z</time></trkpt><trkpt lat="38.33324803906555" lon="16.302376190225946"><ele>106.5</ele><time>2026-03-22T08:55:10Z</time></trkpt><trkpt lat="38.33337012967013" lon="16.302374129313215"><ele>107.0</ele><time>2026-03-22T08:55:11Z</time></trkpt><trkpt lat="38.33348391292323" lon="16.302349648183927"><ele>107.0</ele><time>2026-03-22T08:55:12Z</time></trkpt><trkpt lat="38.33358535876074" lon="16.30235355063371"><ele>106.99999999999999</ele><time>2026-03-22T08:55:13Z</time></trkpt><trkpt lat="38.33367985511563" lon="16.302362292305506"><ele>106.99999999999999</ele><time>2026-03-22T08:55:14Z</time></trkpt><trkpt lat="38.333775583937474" lon="16.30236088223274"><ele>107.0</ele><time>2026-03-22T08:55:15Z</time></trkpt><trkpt lat="38.33385460964076" lon="16.302338837385463"><ele>107.0</ele><time>2026-03-22T08:55:16Z</time></trkpt><trkpt lat="38.333975939872936" lon="16.302335785190063"><ele>107.6</ele><time>2026-03-22T08:55:18Z</time></trkpt><trkpt lat="38.3340659097908" lon="16.302334009463237"><ele>108.19999999999999</ele><time>2026-03-22T08:55:20Z</time></trkpt><trkpt lat="38.334214662718495" lon="16.302333007987894"><ele>108.8</ele><time>2026-03-22T08:55:22Z</time></trkpt><trkpt lat="38.33428535600318" lon="16.30235428564058"><ele>109.4</ele><time>2026-03-22T08:55:23Z</time></trkpt><trkpt lat="38.33437692691391" lon="16.302356704124982"><ele>110.0</ele><time>2026-03-22T08:55:25Z</time></trkpt><trkpt lat="38.33444384551962" lon="16.30236227526815"><ele>110.6</ele><time>2026-03-22T08:55:27Z</time></trkpt><trkpt lat="38.33445645416286" lon="16.302111282865262"><ele>111.2</ele><time>2026-03-22T08:55:30Z</time></trkpt><trkpt lat="38.33443684126304" lon="16.30202715762611"><ele>111.80000000000001</ele><time>2026-03-22T08:55:31Z</time></trkpt><trkpt lat="38.33438345068249" lon="16.301954220730654"><ele>112.4</ele><time>2026-03-22T08:55:32Z</time></trkpt><trkpt lat="38.33433487044805" lon="16.301866109140978"><ele>113.0</ele><time>2026-03-22T08:55:33Z</time></trkpt><trkpt lat="38.33428800202171" lon="16.301775078963047"><ele>112.99999999999999</ele><time>2026-03-22T08:55:34Z</time></trkpt><trkpt lat="38.33425769175343" lon="16.30166891208646"><ele>113.0</ele><time>2026-03-22T08:55:35Z</time></trkpt><trkpt lat="38.3342354143364" lon="16.30156820318396"><ele>113.0</ele><time>2026-03-22T08:55:36Z</time></trkpt><trkpt lat="38.33422347187343" lon="16.301479355445228"><ele>113.0</ele><time>2026-03-22T08:55:37Z</time></trkpt><trkpt lat="38.3342090375666" lon="16.30136490876665"><ele>112.99999999999999</ele><time>2026-03-22T08:55:38Z</time></trkpt><trkpt lat="38.334219712460744" lon="16.30128183732197"><ele>113.0</ele><time>2026-03-22T08:55:39Z</time></trkpt><trkpt lat="38.33425962982829" lon="16.301205647376683"><ele>113.80000000000001</ele><time>2026-03-22T08:55:40Z</time></trkpt><trkpt lat="38.334318583804226" lon="16.301085568556616"><ele>114.60000000000001</ele><time>2026-03-22T08:55:41Z</time></trkpt><trkpt lat="38.334361905188274" lon="16.300947012835778"><ele>115.39999999999999</ele><time>2026-03-22T08:55:42Z</time></trkpt><trkpt lat="38.334365365942965" lon="16.300837038986668"><ele>116.19999999999999</ele><time>2026-03-22T08:55:43Z</time></trkpt><trkpt lat="38.334310383994406" lon="16.300743004142518"><ele>117.0</ele><time>2026-03-22T08:55:44Z</time></trkpt><trkpt lat="38.33426386443062" lon="16.30062420303352"><ele>118.5</ele><time>2026-03-22T08:55:45Z</time></trkpt><trkpt lat="38.33421428693228" lon="16.300512094808933"><ele>120.0</ele><time>2026-03-22T08:55:46Z</time></trkpt><trkpt lat="38.33414997872832" lon="16.300428974445914"><ele>121.5</ele><time>2026-03-22T08:55:47Z</time></trkpt><trkpt lat="38.33409832340309" lon="16.300348081294015"><ele>123.0</ele><time>2026-03-22T08:55:48Z</time></trkpt><trkpt lat="38.33403091458576" lon="16.30029877393896"><ele>124.5</ele><time>2026-03-22T08:55:49Z</time></trkpt><trkpt lat="38.33394120158019" lon="16.30028559017425"><ele>126.0</ele><time>2026-03-22T08:55:50Z</time></trkpt><trkpt lat="38.33382758910597" lon="16.300290985277357"><ele>126.0</ele><time>2026-03-22T08:55:51Z</time></trkpt><trkpt lat="38.33375609382467" lon="16.300283541658114"><ele>126.0</ele><time>2026-03-22T08:55:52Z</time></trkpt><trkpt lat="38.33366448813346" lon="16.30023439616066"><ele>126.0</ele><time>2026-03-22T08:55:54Z</time></trkpt><trkpt lat="38.333690921286696" lon="16.300093360403753"><ele>126.0</ele><time>2026-03-22T08:55:56Z</time></trkpt><trkpt lat="38.33375894917533" lon="16.30009583436319"><ele>126.0</ele><time>2026-03-22T08:55:57Z</time></trkpt><trkpt lat="38.3338286921207" lon="16.300117639718557"><ele>126.0</ele><time>2026-03-22T08:55:58Z</time></trkpt><trkpt lat="38.33391656405113" lon="16.30013966042801"><ele>126.0</ele><time>2026-03-22T08:55:59Z</time></trkpt><trkpt lat="38.334026550897455" lon="16.300142929969976"><ele>126.0</ele><time>2026-03-22T08:56:00Z</time></trkpt><trkpt lat="38.334144025417224" lon="16.30014849532452"><ele>126.0</ele><time>2026-03-22T08:56:01Z</time></trkpt><trkpt lat="38.33427898751901" lon="16.300139152908073"><ele>126.0</ele><time>2026-03-22T08:56:02Z</time></trkpt><trkpt lat="38.33441768633998" lon="16.300117473417835"><ele>126.0</ele><time>2026-03-22T08:56:03Z</time></trkpt><trkpt lat="38.33454807505047" lon="16.300115013294544"><ele>126.0</ele><time>2026-03-22T08:56:04Z</time></trkpt><trkpt lat="38.33466468643822" lon="16.300125835721737"><ele>126.0</ele><time>2026-03-22T08:56:05Z</time></trkpt><trkpt lat="38.334768179524765" lon="16.30013054824908"><ele>126.0</ele><time>2026-03-22T08:56:06Z</time></trkpt><trkpt lat="38.33484452343718" lon="16.30016657108365"><ele>126.0</ele><time>2026-03-22T08:56:07Z</time></trkpt><trkpt lat="38.33490921604278" lon="16.300206056940144"><ele>126.66666666666667</ele><time>2026-03-22T08:56:08Z</time></trkpt><trkpt lat="38.334952699058086" lon="16.30026527647502"><ele>127.33333333333334</ele><time>2026-03-22T08:56:09Z</time></trkpt><trkpt lat="38.33494961281837" lon="16.30039941980526"><ele>128.0</ele><time>2026-03-22T08:56:11Z</time></trkpt><trkpt lat="38.33495741938506" lon="16.300486580576454"><ele>128.66666666666669</ele><time>2026-03-22T08:56:12Z</time></trkpt><trkpt lat="38.33498955969424" lon="16.300562094678657"><ele>129.33333333333334</ele><time>2026-03-22T08:56:13Z</time></trkpt><trkpt lat="38.335108640101566" lon="16.300588402791714"><ele>130.0</ele><time>2026-03-22T08:56:14Z</time></trkpt><trkpt lat="38.33516538077172" lon="16.300532164253926"><ele>130.2</ele><time>2026-03-22T08:56:15Z</time></trkpt><trkpt lat="38.33515471178452" lon="16.300441630574767"><ele>130.4</ele><time>2026-03-22T08:56:16Z</time></trkpt><trkpt lat="38.3351594872916" lon="16.30034914538813"><ele>130.6</ele><time>2026-03-22T08:56:17Z</time></trkpt><trkpt lat="38.33516372208063" lon="16.300218396167587"><ele>130.8</ele><time>2026-03-22T08:56:18Z</time></trkpt><trkpt lat="38.33517854736187" lon="16.300060727692234"><ele>131.0</ele><time>2026-03-22T08:56:19Z</time></trkpt><trkpt lat="38.33520033105743" lon="16.29990701942457"><ele>131.0</ele><time>2026-03-22T08:56:20Z</time></trkpt><trkpt lat="38.335213156683984" lon="16.29980453185064"><ele>131.0</ele><time>2026-03-22T08:56:21Z</time></trkpt><trkpt lat="38.335202655632074" lon="16.29971161247944"><ele>131.0</ele><time>2026-03-22T08:56:22Z</time></trkpt><trkpt lat="38.335183494053844" lon="16.2996243223272"><ele>131.0</ele><time>2026-03-22T08:56:23Z</time></trkpt><trkpt lat="38.335093198185085" lon="16.29952837223942"><ele>131.0</ele><time>2026-03-22T08:56:25Z</time></trkpt><trkpt lat="38.334981556496174" lon="16.299517328701537"><ele>132.8</ele><time>2026-03-22T08:56:26Z</time></trkpt><trkpt lat="38.334900308315675" lon="16.299548853617598"><ele>134.6</ele><time>2026-03-22T08:56:27Z</time></trkpt><trkpt lat="38.334801546786" lon="16.299561207910845"><ele>136.4</ele><time>2026-03-22T08:56:28Z</time></trkpt><trkpt lat="38.33469505909679" lon="16.2995900165027"><ele>138.2</ele><time>2026-03-22T08:56:29Z</time></trkpt><trkpt lat="38.33458429613509" lon="16.299623565208037"><ele>140.0</ele><time>2026-03-22T08:56:30Z</time></trkpt><trkpt lat="38.33447559498842" lon="16.299654499884507"><ele>141.8</ele><time>2026-03-22T08:56:31Z</time></trkpt><trkpt lat="38.334384644255564" lon="16.299690547945396"><ele>143.6</ele><time>2026-03-22T08:56:32Z</time></trkpt><trkpt lat="38.33428563895266" lon="16.29967129596906"><ele>145.4</ele><time>2026-03-22T08:56:33Z</time></trkpt><trkpt lat="38.33420071223333" lon="16.29961129030652"><ele>147.2</ele><time>2026-03-22T08:56:34Z</time></trkpt><trkpt lat="38.334106721110516" lon="16.29951878756159"><ele>149.0</ele><time>2026-03-22T08:56:35Z</time></trkpt><trkpt lat="38.33398222530907" lon="16.29942907275531"><ele>148.75</ele><time>2026-03-22T08:56:36Z</time></trkpt><trkpt lat="38.33383656477057" lon="16.299350727644647"><ele>148.5</ele><time>2026-03-22T08:56:37Z</time></trkpt><trkpt lat="38.333731285621106" lon="16.299299673585036"><ele>148.25</ele><time>2026-03-22T08:56:38Z</time></trkpt><trkpt lat="38.333626041378984" lon="16.299261228804674"><ele>148.0</ele><time>2026-03-22T08:56:39Z</time></trkpt><trkpt lat="38.33354885175348" lon="16.29923553758108"><ele>148.0</ele><time>2026-03-22T08:56:40Z</time></trkpt><trkpt lat="38.33347223476226" lon="16.299187599778996"><ele>148.0</ele><time>2026-03-22T08:56:42Z</time></trkpt><trkpt lat="38.333545764832046" lon="16.299093336000006"><ele>148.0</ele><time>2026-03-22T08:56:44Z</time></trkpt><trkpt lat="38.33361999381305" lon="16.299104435168154"><ele>148.0</ele><time>2026-03-22T08:56:45Z</time></trkpt><trkpt lat="38.33369909221649" lon="16.299138794644684"><ele>148.0</ele><time>2026-03-22T08:56:46Z</time></trkpt><trkpt lat="38.33377942136201" lon="16.299182040935428"><ele>148.0</ele><time>2026-03-22T08:56:47Z</time></trkpt><trkpt lat="38.33388035365144" lon="16.299223924755"><ele>148.20000000000002</ele><time>2026-03-22T08:56:48Z</time></trkpt><trkpt lat="38.33399192175408" lon="16.299255523100122"><ele>148.4</ele><time>2026-03-22T08:56:49Z</time></trkpt><trkpt lat="38.33409931120685" lon="16.299250215737423"><ele>148.60000000000002</ele><time>2026-03-22T08:56:50Z</time></trkpt><trkpt lat="38.334205221370084" lon="16.299211187487714"><ele>148.8</ele><time>2026-03-22T08:56:51Z</time></trkpt><trkpt lat="38.33430286878869" lon="16.299146011228043"><ele>149.0</ele><time>2026-03-22T08:56:52Z</time></trkpt><trkpt lat="38.33439964444023" lon="16.29905077676391"><ele>149.0</ele><time>2026-03-22T08:56:53Z</time></trkpt><trkpt lat="38.334506278695116" lon="16.29894115116639"><ele>149.0</ele><time>2026-03-22T08:56:54Z</time></trkpt><trkpt lat="38.33462056952309" lon="16.29883314803944"><ele>149.0</ele><time>2026-03-22T08:56:55Z</time></trkpt><trkpt lat="38.33474636847948" lon="16.298734448480616"><ele>149.0</ele><time>2026-03-22T08:56:56Z</time></trkpt><trkpt lat="38.334853509656135" lon="16.298638176668806"><ele>149.75</ele><time>2026-03-22T08:56:57Z</time></trkpt><trkpt lat="38.33493694931778" lon="16.2985234074173"><ele>150.5</ele><time>2026-03-22T08:56:58Z</time></trkpt><trkpt lat="38.33500301247143" lon="16.29837773501331"><ele>151.25</ele><time>2026-03-22T08:56:59Z</time></trkpt><trkpt lat="38.33506423455725" lon="16.298212131963904"><ele>152.0</ele><time>2026-03-22T08:57:00Z</time></trkpt><trkpt lat="38.33511685032792" lon="16.298054235672055"><ele>154.6</ele><time>2026-03-22T08:57:01Z</time></trkpt><trkpt lat="38.33514861955695" lon="16.297902588183575"><ele>157.2</ele><time>2026-03-22T08:57:02Z</time></trkpt><trkpt lat="38.33516664309735" lon="16.297757543087453"><ele>159.8</ele><time>2026-03-22T08:57:03Z</time></trkpt><trkpt lat="38.33515165080851" lon="16.2976263013959"><ele>162.4</ele><time>2026-03-22T08:57:04Z</time></trkpt><trkpt lat="38.335161688521076" lon="16.29751117764729"><ele>165.0</ele><time>2026-03-22T08:57:05Z</time></trkpt><trkpt lat="38.33520535981805" lon="16.297435352062852"><ele>165.0</ele><time>2026-03-22T08:57:06Z</time></trkpt><trkpt lat="38.33533546450477" lon="16.29737156330961"><ele>165.0</ele><time>2026-03-22T08:57:08Z</time></trkpt><trkpt lat="38.33540343112462" lon="16.297408313600965"><ele>165.0</ele><time>2026-03-22T08:57:09Z</time></trkpt><trkpt lat="38.33550404046836" lon="16.297447688197266"><ele>165.0</ele><time>2026-03-22T08:57:10Z</time></trkpt><trkpt lat="38.33560371146536" lon="16.297492274143682"><ele>165.0</ele><time>2026-03-22T08:57:11Z</time></trkpt><trkpt lat="38.33571487029462" lon="16.297539677521197"><ele>165.0</ele><time>2026-03-22T08:57:12Z</time></trkpt><trkpt lat="38.335814320745214" lon="16.29761071281993"><ele>165.0</ele><time>2026-03-22T08:57:13Z</time></trkpt><trkpt lat="38.33591029708543" lon="16.29769489724781"><ele>165.0</ele><time>2026-03-22T08:57:14Z</time></trkpt><trkpt lat="38.33598578969102" lon="16.297804812397487"><ele>165.0</ele><time>2026-03-22T08:57:15Z</time></trkpt><trkpt lat="38.336103663596894" lon="16.2978968638866"><ele>165.0</ele><time>2026-03-22T08:57:16Z</time></trkpt><trkpt lat="38.33623622541209" lon="16.29793966870062"><ele>165.0</ele><time>2026-03-22T08:57:17Z</time></trkpt><trkpt lat="38.33635905299314" lon="16.297980848728002"><ele>165.0</ele><time>2026-03-22T08:57:18Z</time></trkpt><trkpt lat="38.33648020696491" lon="16.29797661608812"><ele>165.0</ele><time>2026-03-22T08:57:19Z</time></trkpt><trkpt lat="38.33659999706766" lon="16.29794138214746"><ele>167.75</ele><time>2026-03-22T08:57:20Z</time></trkpt><trkpt lat="38.336724220469186" lon="16.297879390894405"><ele>170.5</ele><time>2026-03-22T08:57:21Z</time></trkpt><trkpt lat="38.33683028630552" lon="16.297814333649843"><ele>173.25</ele><time>2026-03-22T08:57:22Z</time></trkpt><trkpt lat="38.33692932234993" lon="16.29772194132758"><ele>176.0</ele><time>2026-03-22T08:57:23Z</time></trkpt><trkpt lat="38.33701663745057" lon="16.297593369451697"><ele>176.0</ele><time>2026-03-22T08:57:24Z</time></trkpt><trkpt lat="38.337080966333495" lon="16.29743741418413"><ele>176.0</ele><time>2026-03-22T08:57:25Z</time></trkpt><trkpt lat="38.33712187182428" lon="16.297266196760525"><ele>176.0</ele><time>2026-03-22T08:57:26Z</time></trkpt><trkpt lat="38.33716257972953" lon="16.29711465623499"><ele>176.0</ele><time>2026-03-22T08:57:27Z</time></trkpt><trkpt lat="38.33720445590388" lon="16.29698296725438"><ele>179.0</ele><time>2026-03-22T08:57:28Z</time></trkpt><trkpt lat="38.33726278391396" lon="16.29688374069534"><ele>182.0</ele><time>2026-03-22T08:57:29Z</time></trkpt><trkpt lat="38.33733471014208" lon="16.29682430381897"><ele>185.0</ele><time>2026-03-22T08:57:30Z</time></trkpt><trkpt lat="38.33743301106353" lon="16.296812852000922"><ele>188.0</ele><time>2026-03-22T08:57:31Z</time></trkpt><trkpt lat="38.33753153678543" lon="16.29682511351252"><ele>191.0</ele><time>2026-03-22T08:57:32Z</time></trkpt><trkpt lat="38.33766137912893" lon="16.296845227569303"><ele>191.0</ele><time>2026-03-22T08:57:33Z</time></trkpt><trkpt lat="38.337794140617824" lon="16.296866681382514"><ele>191.0</ele><time>2026-03-22T08:57:34Z</time></trkpt><trkpt lat="38.33792580587467" lon="16.296880822942374"><ele>191.0</ele><time>2026-03-22T08:57:35Z</time></trkpt><trkpt lat="38.3380936306928" lon="16.296889386792284"><ele>191.0</ele><time>2026-03-22T08:57:36Z</time></trkpt><trkpt lat="38.338246035995" lon="16.296888295479686"><ele>191.33333333333331</ele><time>2026-03-22T08:57:37Z</time></trkpt><trkpt lat="38.3384074610129" lon="16.296863726605228"><ele>191.66666666666666</ele><time>2026-03-22T08:57:38Z</time></trkpt><trkpt lat="38.33857288853817" lon="16.296860990454586"><ele>192.0</ele><time>2026-03-22T08:57:39Z</time></trkpt><trkpt lat="38.338737442722" lon="16.29687201568458"><ele>192.0</ele><time>2026-03-22T08:57:40Z</time></trkpt><trkpt lat="38.338880244428005" lon="16.296881675374745"><ele>192.0</ele><time>2026-03-22T08:57:41Z</time></trkpt><trkpt lat="38.33900699150769" lon="16.296875081969503"><ele>192.0</ele><time>2026-03-22T08:57:42Z</time></trkpt><trkpt lat="38.33912128490877" lon="16.296870103250548"><ele>192.0</ele><time>2026-03-22T08:57:43Z</time></trkpt><trkpt lat="38.33922677382224" lon="16.296869013324855"><ele>192.0</ele><time>2026-03-22T08:57:44Z</time></trkpt><trkpt lat="38.33932850120073" lon="16.29683319431413"><ele>192.0</ele><time>2026-03-22T08:57:45Z</time></trkpt><trkpt lat="38.339457109453946" lon="16.29681954398868"><ele>192.0</ele><time>2026-03-22T08:57:46Z</time></trkpt><trkpt lat="38.33955828434947" lon="16.296707222968653"><ele>192.0</ele><time>2026-03-22T08:57:47Z</time></trkpt><trkpt lat="38.33961176390981" lon="16.29653321592293"><ele>195.33333333333331</ele><time>2026-03-22T08:57:48Z</time></trkpt><trkpt lat="38.33971344070414" lon="16.296400562392133"><ele>198.66666666666666</ele><time>2026-03-22T08:57:49Z</time></trkpt><trkpt lat="38.33982783045619" lon="16.296265863367204"><ele>202.0</ele><time>2026-03-22T08:57:50Z</time></trkpt><trkpt lat="38.33993457591967" lon="16.296123596645934"><ele>202.0</ele><time>2026-03-22T08:57:51Z</time></trkpt><trkpt lat="38.340039367875576" lon="16.29596679825932"><ele>202.0</ele><time>2026-03-22T08:57:52Z</time></trkpt><trkpt lat="38.34014623547296" lon="16.29580208561959"><ele>202.0</ele><time>2026-03-22T08:57:53Z</time></trkpt><trkpt lat="38.34024544299732" lon="16.295637531823136"><ele>211.25</ele><time>2026-03-22T08:57:54Z</time></trkpt><trkpt lat="38.34032148274339" lon="16.295486965757387"><ele>220.5</ele><time>2026-03-22T08:57:55Z</time></trkpt><trkpt lat="38.34037880978394" lon="16.295346334733342"><ele>229.75</ele><time>2026-03-22T08:57:56Z</time></trkpt><trkpt lat="38.340434424893054" lon="16.29522259815533"><ele>239.0</ele><time>2026-03-22T08:57:57Z</time></trkpt><trkpt lat="38.34050675136683" lon="16.295126175033666"><ele>233.5</ele><time>2026-03-22T08:57:58Z</time></trkpt><trkpt lat="38.34060055070854" lon="16.29507054726746"><ele>228.0</ele><time>2026-03-22T08:57:59Z</time></trkpt><trkpt lat="38.34071809936277" lon="16.295043898463746"><ele>222.5</ele><time>2026-03-22T08:58:00Z</time></trkpt><trkpt lat="38.34084882108626" lon="16.295029675222093"><ele>217.0</ele><time>2026-03-22T08:58:01Z</time></trkpt><trkpt lat="38.34098669160923" lon="16.29502387173296"><ele>217.0</ele><time>2026-03-22T08:58:02Z</time></trkpt><trkpt lat="38.34111705926057" lon="16.295035519849097"><ele>217.0</ele><time>2026-03-22T08:58:03Z</time></trkpt><trkpt lat="38.34123803784355" lon="16.295066288220138"><ele>217.0</ele><time>2026-03-22T08:58:04Z</time></trkpt><trkpt lat="38.34134561332541" lon="16.295092602758565"><ele>217.0</ele><time>2026-03-22T08:58:05Z</time></trkpt><trkpt lat="38.34143588388723" lon="16.29509913738048"><ele>217.66666666666666</ele><time>2026-03-22T08:58:06Z</time></trkpt><trkpt lat="38.34152527012869" lon="16.295074324727704"><ele>218.33333333333331</ele><time>2026-03-22T08:58:07Z</time></trkpt><trkpt lat="38.34158933775853" lon="16.29502466176794"><ele>219.0</ele><time>2026-03-22T08:58:08Z</time></trkpt><trkpt lat="38.341622476741684" lon="16.29492279605273"><ele>219.66666666666669</ele><time>2026-03-22T08:58:09Z</time></trkpt><trkpt lat="38.34164254274209" lon="16.294812859155456"><ele>220.33333333333334</ele><time>2026-03-22T08:58:10Z</time></trkpt><trkpt lat="38.341661481797175" lon="16.29468251188217"><ele>221.0</ele><time>2026-03-22T08:58:11Z</time></trkpt><trkpt lat="38.34170552314601" lon="16.294564983927597"><ele>221.0</ele><time>2026-03-22T08:58:12Z</time></trkpt><trkpt lat="38.34178238529685" lon="16.294506690814202"><ele>221.00000000000003</ele><time>2026-03-22T08:58:13Z</time></trkpt><trkpt lat="38.341828337410604" lon="16.294432348274604"><ele>221.00000000000003</ele><time>2026-03-22T08:58:14Z</time></trkpt><trkpt lat="38.34183900369782" lon="16.294281717486356"><ele>221.0</ele><time>2026-03-22T08:58:16Z</time></trkpt><trkpt lat="38.3417955272514" lon="16.29421891528941"><ele>221.0</ele><time>2026-03-22T08:58:17Z</time></trkpt><trkpt lat="38.341657663768466" lon="16.294186712266285"><ele>221.00000000000003</ele><time>2026-03-22T08:58:19Z</time></trkpt><trkpt lat="38.34159238002424" lon="16.294267284961126"><ele>221.0</ele><time>2026-03-22T08:58:20Z</time></trkpt><trkpt lat="38.34158571960581" lon="16.294375905537148"><ele>221.0</ele><time>2026-03-22T08:58:21Z</time></trkpt><trkpt lat="38.341539026095376" lon="16.294480853624837"><ele>221.0</ele><time>2026-03-22T08:58:22Z</time></trkpt><trkpt lat="38.341505208893444" lon="16.294583564272607"><ele>221.00000000000003</ele><time>2026-03-22T08:58:23Z</time></trkpt><trkpt lat="38.34146554661543" lon="16.29467930227059"><ele>221.0</ele><time>2026-03-22T08:58:24Z</time></trkpt><trkpt lat="38.341416042543" lon="16.29474881398617"><ele>221.00000000000003</ele><time>2026-03-22T08:58:25Z</time></trkpt><trkpt lat="38.341364418504604" lon="16.294801483893064"><ele>221.0</ele><time>2026-03-22T08:58:26Z</time></trkpt><trkpt lat="38.34127063110021" lon="16.29481328572103"><ele>221.0</ele><time>2026-03-22T08:58:28Z</time></trkpt><trkpt lat="38.34125924411325" lon="16.294721821117513"><ele>221.0</ele><time>2026-03-22T08:58:30Z</time></trkpt><trkpt lat="38.34128948825102" lon="16.294626498817394"><ele>221.00000000000003</ele><time>2026-03-22T08:58:31Z</time></trkpt><trkpt lat="38.341366081874945" lon="16.294561834910027"><ele>221.0</ele><time>2026-03-22T08:58:32Z</time></trkpt><trkpt lat="38.341424370140395" lon="16.2944427383057"><ele>221.0</ele><time>2026-03-22T08:58:33Z</time></trkpt><trkpt lat="38.34147725584584" lon="16.29428799938035"><ele>221.0</ele><time>2026-03-22T08:58:34Z</time></trkpt><trkpt lat="38.34156384512671" lon="16.294128556586813"><ele>221.0</ele><time>2026-03-22T08:58:35Z</time></trkpt><trkpt lat="38.34166711561934" lon="16.2939679634646"><ele>221.0</ele><time>2026-03-22T08:58:36Z</time></trkpt><trkpt lat="38.34176210775058" lon="16.29381230887217"><ele>229.0</ele><time>2026-03-22T08:58:37Z</time></trkpt><trkpt lat="38.34184725401946" lon="16.29369374624747"><ele>237.0</ele><time>2026-03-22T08:58:38Z</time></trkpt><trkpt lat="38.341945147679354" lon="16.29361426345219"><ele>245.0</ele><time>2026-03-22T08:58:39Z</time></trkpt><trkpt lat="38.34205925809634" lon="16.293563122859357"><ele>253.0</ele><time>2026-03-22T08:58:40Z</time></trkpt><trkpt lat="38.34218975930735" lon="16.293534706310417"><ele>247.5</ele><time>2026-03-22T08:58:41Z</time></trkpt><trkpt lat="38.342308136162885" lon="16.29348769673776"><ele>242.0</ele><time>2026-03-22T08:58:42Z</time></trkpt><trkpt lat="38.34241576755947" lon="16.293406140273277"><ele>236.5</ele><time>2026-03-22T08:58:43Z</time></trkpt><trkpt lat="38.3424978726875" lon="16.293296645637565"><ele>231.0</ele><time>2026-03-22T08:58:44Z</time></trkpt><trkpt lat="38.34254261238176" lon="16.293137339800165"><ele>242.25</ele><time>2026-03-22T08:58:45Z</time></trkpt><trkpt lat="38.34263773683397" lon="16.293016924251074"><ele>253.5</ele><time>2026-03-22T08:58:46Z</time></trkpt><trkpt lat="38.3427647940241" lon="16.292976825567187"><ele>264.75</ele><time>2026-03-22T08:58:47Z</time></trkpt><trkpt lat="38.34288264085365" lon="16.29296577875338"><ele>276.0</ele><time>2026-03-22T08:58:48Z</time></trkpt><trkpt lat="38.34300903066534" lon="16.292951473772717"><ele>271.0</ele><time>2026-03-22T08:58:49Z</time></trkpt><trkpt lat="38.3431408913181" lon="16.292935275653274"><ele>266.0</ele><time>2026-03-22T08:58:50Z</time></trkpt><trkpt lat="38.343276637107934" lon="16.2928845654767"><ele>261.0</ele><time>2026-03-22T08:58:51Z</time></trkpt><trkpt lat="38.34341696968596" lon="16.29279942421534"><ele>256.0</ele><time>2026-03-22T08:58:52Z</time></trkpt><trkpt lat="38.3435688431264" lon="16.29268268100882"><ele>256.0</ele><time>2026-03-22T08:58:53Z</time></trkpt><trkpt lat="38.34373156948186" lon="16.29255266160133"><ele>256.0</ele><time>2026-03-22T08:58:54Z</time></trkpt><trkpt lat="38.343912790992796" lon="16.29244286112323"><ele>256.0</ele><time>2026-03-22T08:58:55Z</time></trkpt><trkpt lat="38.344102447034565" lon="16.292346464735385"><ele>262.3333333333333</ele><time>2026-03-22T08:58:56Z</time></trkpt><trkpt lat="38.34426938237754" lon="16.29222956724646"><ele>268.6666666666667</ele><time>2026-03-22T08:58:57Z</time></trkpt><trkpt lat="38.34443621417639" lon="16.292166683038833"><ele>275.0</ele><time>2026-03-22T08:58:58Z</time></trkpt><trkpt lat="38.34461346029467" lon="16.29207453106196"><ele>269.6666666666667</ele><time>2026-03-22T08:58:59Z</time></trkpt><trkpt lat="38.34479579489007" lon="16.2919719783578"><ele>264.3333333333333</ele><time>2026-03-22T08:59:00Z</time></trkpt><trkpt lat="38.344977431967635" lon="16.291849196725785"><ele>259.0</ele><time>2026-03-22T08:59:01Z</time></trkpt><trkpt lat="38.34515831600567" lon="16.2917231517471"><ele>259.0</ele><time>2026-03-22T08:59:02Z</time></trkpt><trkpt lat="38.34533997820954" lon="16.29159281233368"><ele>259.0</ele><time>2026-03-22T08:59:03Z</time></trkpt><trkpt lat="38.34553226666175" lon="16.291456459655773"><ele>259.0</ele><time>2026-03-22T08:59:04Z</time></trkpt><trkpt lat="38.34573163548498" lon="16.29132385482185"><ele>263.5</ele><time>2026-03-22T08:59:05Z</time></trkpt><trkpt lat="38.34593815136536" lon="16.29118157128309"><ele>268.0</ele><time>2026-03-22T08:59:06Z</time></trkpt><trkpt lat="38.34614577311292" lon="16.291024761248995"><ele>268.0</ele><time>2026-03-22T08:59:07Z</time></trkpt><trkpt lat="38.34635898616066" lon="16.290856069516675"><ele>268.0</ele><time>2026-03-22T08:59:08Z</time></trkpt><trkpt lat="38.34658923184384" lon="16.29066200269821"><ele>268.0</ele><time>2026-03-22T08:59:09Z</time></trkpt><trkpt lat="38.34682309604611" lon="16.290449957987637"><ele>268.0</ele><time>2026-03-22T08:59:10Z</time></trkpt><trkpt lat="38.34705917507702" lon="16.290237220695683"><ele>277.0</ele><time>2026-03-22T08:59:11Z</time></trkpt><trkpt lat="38.34725793938948" lon="16.290065155382084"><ele>286.0</ele><time>2026-03-22T08:59:12Z</time></trkpt><trkpt lat="38.34744118117301" lon="16.28990984938794"><ele>286.0</ele><time>2026-03-22T08:59:13Z</time></trkpt><trkpt lat="38.34760855029531" lon="16.289768717319184"><ele>286.0</ele><time>2026-03-22T08:59:14Z</time></trkpt><trkpt lat="38.34776041838188" lon="16.289642778364495"><ele>286.0</ele><time>2026-03-22T08:59:15Z</time></trkpt><trkpt lat="38.34788973499985" lon="16.289528613973644"><ele>285.75</ele><time>2026-03-22T08:59:16Z</time></trkpt><trkpt lat="38.34801782844195" lon="16.289401586035737"><ele>285.5</ele><time>2026-03-22T08:59:17Z</time></trkpt><trkpt lat="38.348132804845726" lon="16.289319923258773"><ele>285.25</ele><time>2026-03-22T08:59:18Z</time></trkpt><trkpt lat="38.34823737077859" lon="16.28925452762936"><ele>285.0</ele><time>2026-03-22T08:59:19Z</time></trkpt><trkpt lat="38.34830382552309" lon="16.289228872118183"><ele>285.0</ele><time>2026-03-22T08:59:20Z</time></trkpt><trkpt lat="38.34841230185524" lon="16.289187252133665"><ele>285.0</ele><time>2026-03-22T08:59:22Z</time></trkpt><trkpt lat="38.34852038310241" lon="16.28916953511309"><ele>285.0</ele><time>2026-03-22T08:59:24Z</time></trkpt><trkpt lat="38.3486232085171" lon="16.2891698578137"><ele>285.0</ele><time>2026-03-22T08:59:25Z</time></trkpt><trkpt lat="38.34873967571104" lon="16.289119609587612"><ele>285.0</ele><time>2026-03-22T08:59:26Z</time></trkpt><trkpt lat="38.34883513820734" lon="16.289055113296143"><ele>287.75</ele><time>2026-03-22T08:59:27Z</time></trkpt><trkpt lat="38.34894052142264" lon="16.28891821837508"><ele>290.5</ele><time>2026-03-22T08:59:28Z</time></trkpt><trkpt lat="38.3489941271765" lon="16.28880439109909"><ele>293.25</ele><time>2026-03-22T08:59:29Z</time></trkpt><trkpt lat="38.34911660462817" lon="16.28873414707584"><ele>296.0</ele><time>2026-03-22T08:59:30Z</time></trkpt><trkpt lat="38.34921054505645" lon="16.288678922466648"><ele>296.0</ele><time>2026-03-22T08:59:31Z</time></trkpt><trkpt lat="38.3493306220189" lon="16.288626443965885"><ele>296.0</ele><time>2026-03-22T08:59:32Z</time></trkpt><trkpt lat="38.34945387751463" lon="16.28861712961965"><ele>296.0</ele><time>2026-03-22T08:59:33Z</time></trkpt><trkpt lat="38.34957992008731" lon="16.288595542048586"><ele>296.0</ele><time>2026-03-22T08:59:34Z</time></trkpt><trkpt lat="38.349701410642574" lon="16.28860638211398"><ele>296.5</ele><time>2026-03-22T08:59:35Z</time></trkpt><trkpt lat="38.3498305995956" lon="16.288644212132034"><ele>297.0</ele><time>2026-03-22T08:59:36Z</time></trkpt><trkpt lat="38.34997136252989" lon="16.28867287608877"><ele>297.5</ele><time>2026-03-22T08:59:37Z</time></trkpt><trkpt lat="38.350099255079385" lon="16.28862139561963"><ele>298.0</ele><time>2026-03-22T08:59:38Z</time></trkpt><trkpt lat="38.35023664251085" lon="16.28856580265174"><ele>298.0</ele><time>2026-03-22T08:59:39Z</time></trkpt><trkpt lat="38.35037969285271" lon="16.288486580492386"><ele>298.0</ele><time>2026-03-22T08:59:40Z</time></trkpt><trkpt lat="38.350526766909844" lon="16.288436047429222"><ele>298.0</ele><time>2026-03-22T08:59:41Z</time></trkpt><trkpt lat="38.35065684419304" lon="16.288394802045637"><ele>298.0</ele><time>2026-03-22T08:59:42Z</time></trkpt><trkpt lat="38.35074914376387" lon="16.28835084644835"><ele>298.8</ele><time>2026-03-22T08:59:43Z</time></trkpt><trkpt lat="38.350833274905575" lon="16.28830685031567"><ele>299.6</ele><time>2026-03-22T08:59:44Z</time></trkpt><trkpt lat="38.35089751439664" lon="16.28827911540125"><ele>300.4</ele><time>2026-03-22T08:59:45Z</time></trkpt><trkpt lat="38.35097270913541" lon="16.28826298221791"><ele>301.2</ele><time>2026-03-22T08:59:46Z</time></trkpt><trkpt lat="38.351118387597836" lon="16.288294614228004"><ele>302.0</ele><time>2026-03-22T08:59:48Z</time></trkpt><trkpt lat="38.35120833118563" lon="16.288336835635157"><ele>302.0</ele><time>2026-03-22T08:59:49Z</time></trkpt><trkpt lat="38.35129688461898" lon="16.288397265720096"><ele>302.0</ele><time>2026-03-22T08:59:50Z</time></trkpt><trkpt lat="38.35139137732701" lon="16.288479956977053"><ele>302.0</ele><time>2026-03-22T08:59:51Z</time></trkpt><trkpt lat="38.35149273136636" lon="16.288582133141002"><ele>302.0</ele><time>2026-03-22T08:59:52Z</time></trkpt><trkpt lat="38.35158981482393" lon="16.288696699110584"><ele>303.1666666666667</ele><time>2026-03-22T08:59:53Z</time></trkpt><trkpt lat="38.351669004301506" lon="16.28877876165544"><ele>304.33333333333337</ele><time>2026-03-22T08:59:54Z</time></trkpt><trkpt lat="38.351735280912195" lon="16.28884134021021"><ele>305.5</ele><time>2026-03-22T08:59:55Z</time></trkpt><trkpt lat="38.35178960113865" lon="16.288887022601102"><ele>306.6666666666667</ele><time>2026-03-22T08:59:56Z</time></trkpt><trkpt lat="38.35184688699922" lon="16.28892607783215"><ele>307.8333333333333</ele><time>2026-03-22T08:59:57Z</time></trkpt><trkpt lat="38.35192227089614" lon="16.28895700394874"><ele>309.0</ele><time>2026-03-22T08:59:58Z</time></trkpt><trkpt lat="38.352013153123075" lon="16.288981496541588"><ele>310.59999999999997</ele><time>2026-03-22T08:59:59Z</time></trkpt><trkpt lat="38.35209384356254" lon="16.28900067590154"><ele>312.2</ele><time>2026-03-22T09:00:00Z</time></trkpt><trkpt lat="38.35222846158887" lon="16.289032205958424"><ele>313.79999999999995</ele><time>2026-03-22T09:00:02Z</time></trkpt><trkpt lat="38.352323353435864" lon="16.289058772339278"><ele>315.4</ele><time>2026-03-22T09:00:03Z</time></trkpt><trkpt lat="38.35242614675187" lon="16.289084082998297"><ele>317.0</ele><time>2026-03-22T09:00:04Z</time></trkpt><trkpt lat="38.35253363550326" lon="16.289097942140426"><ele>317.6</ele><time>2026-03-22T09:00:05Z</time></trkpt><trkpt lat="38.35263871928467" lon="16.289120259188014"><ele>318.2</ele><time>2026-03-22T09:00:06Z</time></trkpt><trkpt lat="38.35274004716248" lon="16.289167355516625"><ele>318.8</ele><time>2026-03-22T09:00:07Z</time></trkpt><trkpt lat="38.35283647661425" lon="16.289244636272375"><ele>319.4</ele><time>2026-03-22T09:00:08Z</time></trkpt><trkpt lat="38.35291100451742" lon="16.289361999036498"><ele>320.0</ele><time>2026-03-22T09:00:09Z</time></trkpt><trkpt lat="38.35300647821351" lon="16.28947856089578"><ele>320.5</ele><time>2026-03-22T09:00:10Z</time></trkpt><trkpt lat="38.353111096047286" lon="16.289603853684664"><ele>321.0</ele><time>2026-03-22T09:00:11Z</time></trkpt><trkpt lat="38.353227652973615" lon="16.28971696936321"><ele>321.5</ele><time>2026-03-22T09:00:12Z</time></trkpt><trkpt lat="38.35333741849802" lon="16.289857127359763"><ele>322.0</ele><time>2026-03-22T09:00:13Z</time></trkpt><trkpt lat="38.35343856669391" lon="16.289982294777108"><ele>322.40000000000003</ele><time>2026-03-22T09:00:14Z</time></trkpt><trkpt lat="38.35352451659014" lon="16.290076644103213"><ele>322.8</ele><time>2026-03-22T09:00:15Z</time></trkpt><trkpt lat="38.35358398915968" lon="16.290171767507342"><ele>323.2</ele><time>2026-03-22T09:00:16Z</time></trkpt><trkpt lat="38.353683290591135" lon="16.290186438875708"><ele>323.6</ele><time>2026-03-22T09:00:17Z</time></trkpt><trkpt lat="38.353768237968204" lon="16.290227746140303"><ele>324.0</ele><time>2026-03-22T09:00:18Z</time></trkpt><trkpt lat="38.35385929042315" lon="16.290278410591753"><ele>323.79999999999995</ele><time>2026-03-22T09:00:19Z</time></trkpt><trkpt lat="38.353956745220586" lon="16.290315696787307"><ele>323.59999999999997</ele><time>2026-03-22T09:00:20Z</time></trkpt><trkpt lat="38.35404583571644" lon="16.29035549333768"><ele>323.4</ele><time>2026-03-22T09:00:21Z</time></trkpt><trkpt lat="38.354132818250854" lon="16.29039906537274"><ele>323.2</ele><time>2026-03-22T09:00:22Z</time></trkpt><trkpt lat="38.354211791885845" lon="16.29044619607097"><ele>323.0</ele><time>2026-03-22T09:00:23Z</time></trkpt><trkpt lat="38.3542945390623" lon="16.29049664229147"><ele>323.0</ele><time>2026-03-22T09:00:24Z</time></trkpt><trkpt lat="38.35437786393062" lon="16.290506825128904"><ele>323.0</ele><time>2026-03-22T09:00:25Z</time></trkpt><trkpt lat="38.35446524550667" lon="16.290531104953597"><ele>323.0</ele><time>2026-03-22T09:00:26Z</time></trkpt><trkpt lat="38.35455454619777" lon="16.29057054882845"><ele>323.0</ele><time>2026-03-22T09:00:27Z</time></trkpt><trkpt lat="38.35465217554001" lon="16.290618876627363"><ele>323.0</ele><time>2026-03-22T09:00:28Z</time></trkpt><trkpt lat="38.354734760909345" lon="16.290660847444027"><ele>323.4</ele><time>2026-03-22T09:00:29Z</time></trkpt><trkpt lat="38.354839988152094" lon="16.290714325231644"><ele>323.79999999999995</ele><time>2026-03-22T09:00:30Z</time></trkpt><trkpt lat="38.35495196545232" lon="16.290775833248368"><ele>324.2</ele><time>2026-03-22T09:00:31Z</time></trkpt><trkpt lat="38.35504705369731" lon="16.29085496981673"><ele>324.6</ele><time>2026-03-22T09:00:32Z</time></trkpt><trkpt lat="38.35511619869256" lon="16.290941233318634"><ele>325.0</ele><time>2026-03-22T09:00:33Z</time></trkpt><trkpt lat="38.35519734984303" lon="16.29100952487807"><ele>325.0</ele><time>2026-03-22T09:00:34Z</time></trkpt><trkpt lat="38.355290466866585" lon="16.2910811644758"><ele>325.0</ele><time>2026-03-22T09:00:35Z</time></trkpt><trkpt lat="38.35537414551997" lon="16.291190890609872"><ele>325.0</ele><time>2026-03-22T09:00:36Z</time></trkpt><trkpt lat="38.35546017155899" lon="16.2912808678242"><ele>325.0</ele><time>2026-03-22T09:00:37Z</time></trkpt><trkpt lat="38.35554149571973" lon="16.291370711034496"><ele>325.0</ele><time>2026-03-22T09:00:38Z</time></trkpt><trkpt lat="38.35562978659421" lon="16.291443079461782"><ele>326.8</ele><time>2026-03-22T09:00:39Z</time></trkpt><trkpt lat="38.355729387550305" lon="16.291507904211834"><ele>328.6</ele><time>2026-03-22T09:00:40Z</time></trkpt><trkpt lat="38.355825180194046" lon="16.291570921363515"><ele>330.4</ele><time>2026-03-22T09:00:41Z</time></trkpt><trkpt lat="38.355893313034386" lon="16.291638460060348"><ele>332.2</ele><time>2026-03-22T09:00:42Z</time></trkpt><trkpt lat="38.35595545951875" lon="16.291663044239897"><ele>334.0</ele><time>2026-03-22T09:00:43Z</time></trkpt><trkpt lat="38.35603312612372" lon="16.29174542078459"><ele>334.0</ele><time>2026-03-22T09:00:45Z</time></trkpt><trkpt lat="38.35610054505387" lon="16.291802856534645"><ele>334.0</ele><time>2026-03-22T09:00:46Z</time></trkpt><trkpt lat="38.356182875316335" lon="16.291870509013645"><ele>334.0</ele><time>2026-03-22T09:00:47Z</time></trkpt><trkpt lat="38.35627696899009" lon="16.2919481564599"><ele>334.0</ele><time>2026-03-22T09:00:48Z</time></trkpt><trkpt lat="38.356366004075305" lon="16.292051187969438"><ele>334.0</ele><time>2026-03-22T09:00:49Z</time></trkpt><trkpt lat="38.3564620502599" lon="16.292155836826662"><ele>337.0</ele><time>2026-03-22T09:00:50Z</time></trkpt><trkpt lat="38.35661224863392" lon="16.29227280286548"><ele>340.0</ele><time>2026-03-22T09:00:51Z</time></trkpt><trkpt lat="38.35674005872277" lon="16.292378021200076"><ele>343.0</ele><time>2026-03-22T09:00:52Z</time></trkpt><trkpt lat="38.35691582095305" lon="16.29245905034057"><ele>343.0</ele><time>2026-03-22T09:00:53Z</time></trkpt><trkpt lat="38.35707855285922" lon="16.292497832666278"><ele>343.0</ele><time>2026-03-22T09:00:54Z</time></trkpt><trkpt lat="38.35724073308368" lon="16.292551356519926"><ele>343.0</ele><time>2026-03-22T09:00:55Z</time></trkpt><trkpt lat="38.3574013085902" lon="16.29261360963171"><ele>345.3333333333333</ele><time>2026-03-22T09:00:56Z</time></trkpt><trkpt lat="38.35754537072377" lon="16.292665223911534"><ele>347.6666666666667</ele><time>2026-03-22T09:00:57Z</time></trkpt><trkpt lat="38.35770542454875" lon="16.292733453934787"><ele>350.0</ele><time>2026-03-22T09:00:58Z</time></trkpt><trkpt lat="38.35782875275975" lon="16.292809233498733"><ele>350.0</ele><time>2026-03-22T09:00:59Z</time></trkpt><trkpt lat="38.35794630914987" lon="16.292906581311644"><ele>350.0</ele><time>2026-03-22T09:01:00Z</time></trkpt><trkpt lat="38.3580302650797" lon="16.292977338643848"><ele>350.0</ele><time>2026-03-22T09:01:01Z</time></trkpt><trkpt lat="38.3581442217459" lon="16.29307262844493"><ele>350.0</ele><time>2026-03-22T09:01:02Z</time></trkpt><trkpt lat="38.35827087365936" lon="16.293177442165824"><ele>353.0</ele><time>2026-03-22T09:01:03Z</time></trkpt><trkpt lat="38.35841176972905" lon="16.293292487500132"><ele>356.0</ele><time>2026-03-22T09:01:04Z</time></trkpt><trkpt lat="38.35852756406106" lon="16.293381498719814"><ele>359.0</ele><time>2026-03-22T09:01:05Z</time></trkpt><trkpt lat="38.358669546402965" lon="16.293459303343678"><ele>359.0</ele><time>2026-03-22T09:01:06Z</time></trkpt><trkpt lat="38.358790313331816" lon="16.29356300892371"><ele>359.0</ele><time>2026-03-22T09:01:07Z</time></trkpt><trkpt lat="38.35889875008285" lon="16.293665234628826"><ele>359.0</ele><time>2026-03-22T09:01:08Z</time></trkpt><trkpt lat="38.359001228904596" lon="16.29378387495356"><ele>359.0</ele><time>2026-03-22T09:01:09Z</time></trkpt><trkpt lat="38.35910714270395" lon="16.29391691816918"><ele>359.25</ele><time>2026-03-22T09:01:10Z</time></trkpt><trkpt lat="38.35918640999815" lon="16.294077719741633"><ele>359.5</ele><time>2026-03-22T09:01:11Z</time></trkpt><trkpt lat="38.35926767846755" lon="16.29422838512938"><ele>359.75</ele><time>2026-03-22T09:01:12Z</time></trkpt><trkpt lat="38.35934585570358" lon="16.294377192247175"><ele>360.0</ele><time>2026-03-22T09:01:13Z</time></trkpt><trkpt lat="38.35941323183013" lon="16.294506159219054"><ele>360.0</ele><time>2026-03-22T09:01:14Z</time></trkpt><trkpt lat="38.359471380836496" lon="16.294619533981304"><ele>360.0</ele><time>2026-03-22T09:01:15Z</time></trkpt><trkpt lat="38.35953765080097" lon="16.29471260894876"><ele>360.0</ele><time>2026-03-22T09:01:16Z</time></trkpt><trkpt lat="38.35964117507985" lon="16.294770642819902"><ele>360.0</ele><time>2026-03-22T09:01:17Z</time></trkpt><trkpt lat="38.35975305132389" lon="16.294796685581"><ele>360.0</ele><time>2026-03-22T09:01:18Z</time></trkpt><trkpt lat="38.3598726010198" lon="16.294848398261138"><ele>363.25</ele><time>2026-03-22T09:01:19Z</time></trkpt><trkpt lat="38.35999817574983" lon="16.29489668659183"><ele>366.5</ele><time>2026-03-22T09:01:20Z</time></trkpt><trkpt lat="38.36013033881062" lon="16.29494732345936"><ele>369.75</ele><time>2026-03-22T09:01:21Z</time></trkpt><trkpt lat="38.36026941147705" lon="16.295002289490586"><ele>373.0</ele><time>2026-03-22T09:01:22Z</time></trkpt><trkpt lat="38.36041634093327" lon="16.295060141641933"><ele>371.66666666666663</ele><time>2026-03-22T09:01:23Z</time></trkpt><trkpt lat="38.360563921795084" lon="16.295121106246068"><ele>370.3333333333333</ele><time>2026-03-22T09:01:24Z</time></trkpt><trkpt lat="38.360719717729424" lon="16.29517950808431"><ele>369.0</ele><time>2026-03-22T09:01:25Z</time></trkpt><trkpt lat="38.36087941278392" lon="16.295231861304252"><ele>369.0</ele><time>2026-03-22T09:01:26Z</time></trkpt><trkpt lat="38.36103295056026" lon="16.295297721695718"><ele>369.0</ele><time>2026-03-22T09:01:27Z</time></trkpt><trkpt lat="38.36117968809377" lon="16.295343364038857"><ele>369.0</ele><time>2026-03-22T09:01:28Z</time></trkpt><trkpt lat="38.36129045314497" lon="16.295385181362583"><ele>369.0</ele><time>2026-03-22T09:01:29Z</time></trkpt><trkpt lat="38.36145443293036" lon="16.295458040326707"><ele>367.0</ele><time>2026-03-22T09:01:30Z</time></trkpt><trkpt lat="38.361609086460014" lon="16.295534764022253"><ele>365.0</ele><time>2026-03-22T09:01:31Z</time></trkpt><trkpt lat="38.361760007678264" lon="16.295613351003897"><ele>363.0</ele><time>2026-03-22T09:01:32Z</time></trkpt><trkpt lat="38.361908470743316" lon="16.295696885546857"><ele>374.0</ele><time>2026-03-22T09:01:33Z</time></trkpt><trkpt lat="38.36205442888279" lon="16.29577974747117"><ele>385.0</ele><time>2026-03-22T09:01:34Z</time></trkpt><trkpt lat="38.36220411701405" lon="16.295847875563535"><ele>396.0</ele><time>2026-03-22T09:01:35Z</time></trkpt><trkpt lat="38.36234767910955" lon="16.295912455458705"><ele>396.25</ele><time>2026-03-22T09:01:36Z</time></trkpt><trkpt lat="38.36250310308464" lon="16.29595391720359"><ele>396.5</ele><time>2026-03-22T09:01:37Z</time></trkpt><trkpt lat="38.36264693262927" lon="16.29598149578361"><ele>396.75</ele><time>2026-03-22T09:01:38Z</time></trkpt><trkpt lat="38.3627648945121" lon="16.296000886259062"><ele>397.0</ele><time>2026-03-22T09:01:39Z</time></trkpt><trkpt lat="38.362872859088434" lon="16.29601569353296"><ele>397.0</ele><time>2026-03-22T09:01:40Z</time></trkpt><trkpt lat="38.36298812939539" lon="16.29600766392151"><ele>397.0</ele><time>2026-03-22T09:01:41Z</time></trkpt><trkpt lat="38.36310394844957" lon="16.295965206165594"><ele>397.0</ele><time>2026-03-22T09:01:42Z</time></trkpt><trkpt lat="38.36322370348967" lon="16.29592159271948"><ele>397.0</ele><time>2026-03-22T09:01:43Z</time></trkpt><trkpt lat="38.36334622260007" lon="16.295904194433017"><ele>398.0</ele><time>2026-03-22T09:01:44Z</time></trkpt><trkpt lat="38.36345761432764" lon="16.295933047088063"><ele>399.0</ele><time>2026-03-22T09:01:45Z</time></trkpt><trkpt lat="38.36354166026978" lon="16.29595833933867"><ele>400.0</ele><time>2026-03-22T09:01:46Z</time></trkpt><trkpt lat="38.36361505657683" lon="16.29599887277855"><ele>401.0</ele><time>2026-03-22T09:01:47Z</time></trkpt><trkpt lat="38.36369365064423" lon="16.29606397454912"><ele>402.0</ele><time>2026-03-22T09:01:48Z</time></trkpt><trkpt lat="38.363799243756056" lon="16.296118402887885"><ele>401.25</ele><time>2026-03-22T09:01:49Z</time></trkpt><trkpt lat="38.36391648655042" lon="16.296177525320715"><ele>400.5</ele><time>2026-03-22T09:01:50Z</time></trkpt><trkpt lat="38.36404884566406" lon="16.29620396959328"><ele>399.75</ele><time>2026-03-22T09:01:51Z</time></trkpt><trkpt lat="38.364192886125586" lon="16.296212340970037"><ele>399.0</ele><time>2026-03-22T09:01:52Z</time></trkpt><trkpt lat="38.36433070572225" lon="16.296281869662792"><ele>399.0</ele><time>2026-03-22T09:01:53Z</time></trkpt><trkpt lat="38.36446823889697" lon="16.296286492192273"><ele>399.0</ele><time>2026-03-22T09:01:54Z</time></trkpt><trkpt lat="38.36460676550045" lon="16.296287321312327"><ele>399.0</ele><time>2026-03-22T09:01:55Z</time></trkpt><trkpt lat="38.364746822563866" lon="16.296266339035423"><ele>399.0</ele><time>2026-03-22T09:01:56Z</time></trkpt><trkpt lat="38.36489428112156" lon="16.296258566827365"><ele>401.25</ele><time>2026-03-22T09:01:57Z</time></trkpt><trkpt lat="38.365011393052846" lon="16.296277554975802"><ele>403.5</ele><time>2026-03-22T09:01:58Z</time></trkpt><trkpt lat="38.36509810787998" lon="16.296386931134595"><ele>405.75</ele><time>2026-03-22T09:01:59Z</time></trkpt><trkpt lat="38.365226356710885" lon="16.296401718678638"><ele>408.0</ele><time>2026-03-22T09:02:01Z</time></trkpt><trkpt lat="38.36533550583929" lon="16.29640183577261"><ele>408.0</ele><time>2026-03-22T09:02:02Z</time></trkpt><trkpt lat="38.365466545341036" lon="16.29640088053958"><ele>408.0</ele><time>2026-03-22T09:02:03Z</time></trkpt><trkpt lat="38.36560869539138" lon="16.296374922397796"><ele>408.0</ele><time>2026-03-22T09:02:04Z</time></trkpt><trkpt lat="38.36572565417704" lon="16.29640220225393"><ele>408.0</ele><time>2026-03-22T09:02:05Z</time></trkpt><trkpt lat="38.36580789161073" lon="16.296388601800828"><ele>410.6666666666667</ele><time>2026-03-22T09:02:06Z</time></trkpt><trkpt lat="38.365884757567784" lon="16.296348658918323"><ele>413.33333333333337</ele><time>2026-03-22T09:02:07Z</time></trkpt><trkpt lat="38.365958267101654" lon="16.296311021280015"><ele>416.0</ele><time>2026-03-22T09:02:08Z</time></trkpt><trkpt lat="38.366005312464125" lon="16.296243358323427"><ele>418.6666666666667</ele><time>2026-03-22T09:02:09Z</time></trkpt><trkpt lat="38.366038932236464" lon="16.296152277727703"><ele>421.33333333333337</ele><time>2026-03-22T09:02:10Z</time></trkpt><trkpt lat="38.36605279979859" lon="16.296044031129007"><ele>424.0</ele><time>2026-03-22T09:02:11Z</time></trkpt><trkpt lat="38.36609766454956" lon="16.29595620656894"><ele>424.0</ele><time>2026-03-22T09:02:12Z</time></trkpt><trkpt lat="38.36621296770192" lon="16.295912442342374"><ele>424.0</ele><time>2026-03-22T09:02:14Z</time></trkpt><trkpt lat="38.36627756616146" lon="16.295965782724775"><ele>424.0</ele><time>2026-03-22T09:02:15Z</time></trkpt><trkpt lat="38.366360403002005" lon="16.296026192783653"><ele>424.0</ele><time>2026-03-22T09:02:16Z</time></trkpt><trkpt lat="38.36646994804358" lon="16.296092430681686"><ele>424.0</ele><time>2026-03-22T09:02:17Z</time></trkpt><trkpt lat="38.36659201042457" lon="16.296146103114275"><ele>425.25</ele><time>2026-03-22T09:02:18Z</time></trkpt><trkpt lat="38.366719906773426" lon="16.296230562735555"><ele>426.5</ele><time>2026-03-22T09:02:19Z</time></trkpt><trkpt lat="38.366840346996185" lon="16.296302441706008"><ele>427.75</ele><time>2026-03-22T09:02:20Z</time></trkpt><trkpt lat="38.366963270785945" lon="16.2963648187902"><ele>429.0</ele><time>2026-03-22T09:02:21Z</time></trkpt><trkpt lat="38.36708724729834" lon="16.296426519560285"><ele>433.75</ele><time>2026-03-22T09:02:22Z</time></trkpt><trkpt lat="38.36722025844063" lon="16.29649271668177"><ele>438.5</ele><time>2026-03-22T09:02:23Z</time></trkpt><trkpt lat="38.36735932666344" lon="16.296547420816182"><ele>443.25</ele><time>2026-03-22T09:02:24Z</time></trkpt><trkpt lat="38.367498693815016" lon="16.29661778242902"><ele>448.0</ele><time>2026-03-22T09:02:25Z</time></trkpt><trkpt lat="38.36763087476814" lon="16.2966843784597"><ele>448.0</ele><time>2026-03-22T09:02:26Z</time></trkpt><trkpt lat="38.36775177633913" lon="16.29674574318061"><ele>448.0</ele><time>2026-03-22T09:02:27Z</time></trkpt><trkpt lat="38.367882441452856" lon="16.29678405999063"><ele>448.0</ele><time>2026-03-22T09:02:28Z</time></trkpt><trkpt lat="38.36799562458263" lon="16.296815382263123"><ele>448.0</ele><time>2026-03-22T09:02:29Z</time></trkpt><trkpt lat="38.36812108889098" lon="16.296863350278205"><ele>447.75</ele><time>2026-03-22T09:02:30Z</time></trkpt><trkpt lat="38.368260665197475" lon="16.296889634471274"><ele>447.5</ele><time>2026-03-22T09:02:31Z</time></trkpt><trkpt lat="38.36840715007248" lon="16.29690596271652"><ele>447.25</ele><time>2026-03-22T09:02:32Z</time></trkpt><trkpt lat="38.36856052428236" lon="16.296925470934987"><ele>447.0</ele><time>2026-03-22T09:02:33Z</time></trkpt><trkpt lat="38.36870949923875" lon="16.296946950383678"><ele>448.75</ele><time>2026-03-22T09:02:34Z</time></trkpt><trkpt lat="38.368874977154846" lon="16.29695751802113"><ele>450.5</ele><time>2026-03-22T09:02:35Z</time></trkpt><trkpt lat="38.3690217052875" lon="16.296969133351897"><ele>452.25</ele><time>2026-03-22T09:02:36Z</time></trkpt><trkpt lat="38.36915636230385" lon="16.296982896013706"><ele>454.0</ele><time>2026-03-22T09:02:37Z</time></trkpt><trkpt lat="38.369290062597436" lon="16.297001454673403"><ele>454.0</ele><time>2026-03-22T09:02:38Z</time></trkpt><trkpt lat="38.36942629863328" lon="16.29702833156551"><ele>454.0</ele><time>2026-03-22T09:02:39Z</time></trkpt><trkpt lat="38.36952198900918" lon="16.29704930245595"><ele>454.0</ele><time>2026-03-22T09:02:40Z</time></trkpt><trkpt lat="38.36961223534695" lon="16.29707342482114"><ele>454.0</ele><time>2026-03-22T09:02:41Z</time></trkpt><trkpt lat="38.36970907778962" lon="16.297084097467433"><ele>454.0</ele><time>2026-03-22T09:02:42Z</time></trkpt><trkpt lat="38.36981326492648" lon="16.29710614721225"><ele>455.79999999999995</ele><time>2026-03-22T09:02:43Z</time></trkpt><trkpt lat="38.369933806279924" lon="16.297124211806178"><ele>457.59999999999997</ele><time>2026-03-22T09:02:44Z</time></trkpt><trkpt lat="38.37005084800769" lon="16.29712233184152"><ele>459.4</ele><time>2026-03-22T09:02:45Z</time></trkpt><trkpt lat="38.370152332107885" lon="16.29711961823463"><ele>461.2</ele><time>2026-03-22T09:02:46Z</time></trkpt><trkpt lat="38.37024671513349" lon="16.297133189634312"><ele>463.0</ele><time>2026-03-22T09:02:47Z</time></trkpt><trkpt lat="38.37034484118881" lon="16.29716033258156"><ele>463.0</ele><time>2026-03-22T09:02:48Z</time></trkpt><trkpt lat="38.3704466207333" lon="16.297209797500255"><ele>462.99999999999994</ele><time>2026-03-22T09:02:49Z</time></trkpt><trkpt lat="38.3705421443084" lon="16.29727881294713"><ele>462.99999999999994</ele><time>2026-03-22T09:02:50Z</time></trkpt><trkpt lat="38.370629429587986" lon="16.297368334248418"><ele>463.0</ele><time>2026-03-22T09:02:51Z</time></trkpt><trkpt lat="38.3707083175189" lon="16.297476089565333"><ele>463.0</ele><time>2026-03-22T09:02:52Z</time></trkpt><trkpt lat="38.3707645423567" lon="16.297612589640508"><ele>464.5</ele><time>2026-03-22T09:02:53Z</time></trkpt><trkpt lat="38.3708217721922" lon="16.297748266231448"><ele>466.0</ele><time>2026-03-22T09:02:54Z</time></trkpt><trkpt lat="38.37087409100652" lon="16.29788775046792"><ele>467.5</ele><time>2026-03-22T09:02:55Z</time></trkpt><trkpt lat="38.37092276459193" lon="16.298025346525502"><ele>469.0</ele><time>2026-03-22T09:02:56Z</time></trkpt><trkpt lat="38.37096254063755" lon="16.298166600446965"><ele>469.0</ele><time>2026-03-22T09:02:57Z</time></trkpt><trkpt lat="38.37100922937299" lon="16.298315715276164"><ele>469.0</ele><time>2026-03-22T09:02:58Z</time></trkpt><trkpt lat="38.371037959236574" lon="16.298470653138338"><ele>469.0</ele><time>2026-03-22T09:02:59Z</time></trkpt><trkpt lat="38.37108230587904" lon="16.29862176942095"><ele>469.0</ele><time>2026-03-22T09:03:00Z</time></trkpt><trkpt lat="38.37113996522571" lon="16.298773415829512"><ele>469.0</ele><time>2026-03-22T09:03:01Z</time></trkpt><trkpt lat="38.3711936154321" lon="16.29891263322528"><ele>469.0</ele><time>2026-03-22T09:03:02Z</time></trkpt><trkpt lat="38.37124187196015" lon="16.299029989998427"><ele>469.0</ele><time>2026-03-22T09:03:03Z</time></trkpt><trkpt lat="38.371298218292594" lon="16.299127216968397"><ele>469.0</ele><time>2026-03-22T09:03:04Z</time></trkpt><trkpt lat="38.37135546786919" lon="16.299210449975472"><ele>469.0</ele><time>2026-03-22T09:03:05Z</time></trkpt><trkpt lat="38.371412865484444" lon="16.29925593660695"><ele>471.33333333333337</ele><time>2026-03-22T09:03:06Z</time></trkpt><trkpt lat="38.371476895817295" lon="16.29927532812708"><ele>473.6666666666667</ele><time>2026-03-22T09:03:07Z</time></trkpt><trkpt lat="38.37154208691664" lon="16.29927101146186"><ele>476.0</ele><time>2026-03-22T09:03:08Z</time></trkpt><trkpt lat="38.3716124089308" lon="16.29924454781632"><ele>478.33333333333337</ele><time>2026-03-22T09:03:09Z</time></trkpt><trkpt lat="38.37170454835303" lon="16.299203735559107"><ele>480.6666666666667</ele><time>2026-03-22T09:03:10Z</time></trkpt><trkpt lat="38.3718052227836" lon="16.299133949348164"><ele>483.0</ele><time>2026-03-22T09:03:11Z</time></trkpt><trkpt lat="38.37189921703488" lon="16.29902927024527"><ele>483.0</ele><time>2026-03-22T09:03:12Z</time></trkpt><trkpt lat="38.37198916784096" lon="16.29893325693507"><ele>483.0</ele><time>2026-03-22T09:03:13Z</time></trkpt><trkpt lat="38.37209034793442" lon="16.298849443184803"><ele>483.0</ele><time>2026-03-22T09:03:14Z</time></trkpt><trkpt lat="38.3721831630138" lon="16.2987366496003"><ele>483.0</ele><time>2026-03-22T09:03:15Z</time></trkpt><trkpt lat="38.37226975958973" lon="16.29866598379523"><ele>490.66666666666663</ele><time>2026-03-22T09:03:16Z</time></trkpt><trkpt lat="38.37239988789311" lon="16.298574887071958"><ele>498.3333333333333</ele><time>2026-03-22T09:03:17Z</time></trkpt><trkpt lat="38.37254009761815" lon="16.298468241472214"><ele>506.0</ele><time>2026-03-22T09:03:18Z</time></trkpt><trkpt lat="38.37266239723183" lon="16.29837068406712"><ele>506.0</ele><time>2026-03-22T09:03:19Z</time></trkpt><trkpt lat="38.37275529898687" lon="16.298281795121504"><ele>506.0</ele><time>2026-03-22T09:03:20Z</time></trkpt><trkpt lat="38.37285394071021" lon="16.298210209822088"><ele>506.0</ele><time>2026-03-22T09:03:21Z</time></trkpt><trkpt lat="38.37297095799323" lon="16.29814580477526"><ele>506.0</ele><time>2026-03-22T09:03:22Z</time></trkpt><trkpt lat="38.373092613644786" lon="16.298120944886335"><ele>505.5</ele><time>2026-03-22T09:03:23Z</time></trkpt><trkpt lat="38.37320702423935" lon="16.29810187349838"><ele>505.0</ele><time>2026-03-22T09:03:24Z</time></trkpt><trkpt lat="38.37331532647242" lon="16.298052451806825"><ele>504.5</ele><time>2026-03-22T09:03:25Z</time></trkpt><trkpt lat="38.37342141370243" lon="16.297985005453402"><ele>504.0</ele><time>2026-03-22T09:03:26Z</time></trkpt><trkpt lat="38.37353065412087" lon="16.297915673303375"><ele>504.0</ele><time>2026-03-22T09:03:27Z</time></trkpt><trkpt lat="38.373637780570924" lon="16.29785077901556"><ele>504.0</ele><time>2026-03-22T09:03:28Z</time></trkpt><trkpt lat="38.37374903663345" lon="16.297807926830213"><ele>504.0</ele><time>2026-03-22T09:03:29Z</time></trkpt><trkpt lat="38.37385001967573" lon="16.29774471408412"><ele>504.0</ele><time>2026-03-22T09:03:30Z</time></trkpt><trkpt lat="38.373953382756675" lon="16.29770154656911"><ele>504.79999999999995</ele><time>2026-03-22T09:03:31Z</time></trkpt><trkpt lat="38.374051186800514" lon="16.297664260416674"><ele>505.59999999999997</ele><time>2026-03-22T09:03:32Z</time></trkpt><trkpt lat="38.37415215486328" lon="16.297643807063494"><ele>506.4</ele><time>2026-03-22T09:03:33Z</time></trkpt><trkpt lat="38.37425648785543" lon="16.29763970553429"><ele>507.2</ele><time>2026-03-22T09:03:34Z</time></trkpt><trkpt lat="38.37436203575979" lon="16.2976404706665"><ele>508.0</ele><time>2026-03-22T09:03:35Z</time></trkpt><trkpt lat="38.37444758871987" lon="16.29763767211512"><ele>508.00000000000006</ele><time>2026-03-22T09:03:36Z</time></trkpt><trkpt lat="38.374537144710146" lon="16.297649605604786"><ele>508.0</ele><time>2026-03-22T09:03:37Z</time></trkpt><trkpt lat="38.374608973150416" lon="16.297660920895314"><ele>508.0</ele><time>2026-03-22T09:03:38Z</time></trkpt><trkpt lat="38.374668486919866" lon="16.297725830522474"><ele>508.0</ele><time>2026-03-22T09:03:39Z</time></trkpt><trkpt lat="38.37472300080703" lon="16.297791694378216"><ele>508.00000000000006</ele><time>2026-03-22T09:03:40Z</time></trkpt><trkpt lat="38.374767265620235" lon="16.29786368989558"><ele>508.0</ele><time>2026-03-22T09:03:41Z</time></trkpt><trkpt lat="38.374802543570375" lon="16.297944230633632"><ele>512.6</ele><time>2026-03-22T09:03:42Z</time></trkpt><trkpt lat="38.374826603777684" lon="16.298038774066875"><ele>517.1999999999999</ele><time>2026-03-22T09:03:43Z</time></trkpt><trkpt lat="38.374843446989885" lon="16.29815931228668"><ele>521.8</ele><time>2026-03-22T09:03:44Z</time></trkpt><trkpt lat="38.37484299994962" lon="16.298295772061905"><ele>526.4</ele><time>2026-03-22T09:03:45Z</time></trkpt><trkpt lat="38.3748332370792" lon="16.298429223913047"><ele>531.0</ele><time>2026-03-22T09:03:46Z</time></trkpt><trkpt lat="38.37482431970345" lon="16.298558906377295"><ele>531.0</ele><time>2026-03-22T09:03:47Z</time></trkpt><trkpt lat="38.37482578787442" lon="16.298681110710298"><ele>531.0</ele><time>2026-03-22T09:03:48Z</time></trkpt><trkpt lat="38.37484839014241" lon="16.29880971291703"><ele>531.0</ele><time>2026-03-22T09:03:49Z</time></trkpt><trkpt lat="38.37488786911761" lon="16.298915020484714"><ele>531.0</ele><time>2026-03-22T09:03:50Z</time></trkpt><trkpt lat="38.374946317555654" lon="16.298995836124895"><ele>531.0</ele><time>2026-03-22T09:03:51Z</time></trkpt><trkpt lat="38.37502377567808" lon="16.299058116097402"><ele>526.0</ele><time>2026-03-22T09:03:52Z</time></trkpt><trkpt lat="38.37514192431641" lon="16.299056045686275"><ele>521.0</ele><time>2026-03-22T09:03:53Z</time></trkpt><trkpt lat="38.37524116640023" lon="16.299023888299242"><ele>516.0</ele><time>2026-03-22T09:03:54Z</time></trkpt><trkpt lat="38.375345557205314" lon="16.29899079247941"><ele>511.0</ele><time>2026-03-22T09:03:55Z</time></trkpt><trkpt lat="38.37543497500649" lon="16.298984027068034"><ele>506.0</ele><time>2026-03-22T09:03:56Z</time></trkpt><trkpt lat="38.37551002422072" lon="16.298957616184396"><ele>506.99999999999994</ele><time>2026-03-22T09:03:57Z</time></trkpt><trkpt lat="38.37558520488881" lon="16.29892650366558"><ele>508.0</ele><time>2026-03-22T09:03:58Z</time></trkpt><trkpt lat="38.37564858964964" lon="16.298894208199815"><ele>509.0</ele><time>2026-03-22T09:03:59Z</time></trkpt><trkpt lat="38.37573508060943" lon="16.29883623537286"><ele>510.0</ele><time>2026-03-22T09:04:01Z</time></trkpt><trkpt lat="38.375807985941165" lon="16.29879495840841"><ele>510.99999999999994</ele><time>2026-03-22T09:04:03Z</time></trkpt><trkpt lat="38.375879857971064" lon="16.298696852437224"><ele>512.0</ele><time>2026-03-22T09:04:06Z</time></trkpt><trkpt lat="38.37594026660632" lon="16.298631962703556"><ele>517.6666666666666</ele><time>2026-03-22T09:04:07Z</time></trkpt><trkpt lat="38.37601680490061" lon="16.298580800049276"><ele>523.3333333333333</ele><time>2026-03-22T09:04:08Z</time></trkpt><trkpt lat="38.376078956394274" lon="16.298547294493545"><ele>529.0</ele><time>2026-03-22T09:04:09Z</time></trkpt><trkpt lat="38.376148886239754" lon="16.29853571532945"><ele>534.6666666666666</ele><time>2026-03-22T09:04:10Z</time></trkpt><trkpt lat="38.37623520586246" lon="16.29852378785116"><ele>540.3333333333334</ele><time>2026-03-22T09:04:11Z</time></trkpt><trkpt lat="38.37634114677768" lon="16.298503844091353"><ele>546.0</ele><time>2026-03-22T09:04:12Z</time></trkpt><trkpt lat="38.37646217266619" lon="16.29846546330584"><ele>546.0</ele><time>2026-03-22T09:04:13Z</time></trkpt><trkpt lat="38.376606157639436" lon="16.29842415146247"><ele>546.0</ele><time>2026-03-22T09:04:14Z</time></trkpt><trkpt lat="38.37675413038438" lon="16.298388500038243"><ele>546.0</ele><time>2026-03-22T09:04:15Z</time></trkpt><trkpt lat="38.376860668142015" lon="16.298374407008165"><ele>546.0</ele><time>2026-03-22T09:04:16Z</time></trkpt><trkpt lat="38.37695734085343" lon="16.298356684907464"><ele>546.0</ele><time>2026-03-22T09:04:17Z</time></trkpt><trkpt lat="38.37705231112421" lon="16.298319452294358"><ele>546.0</ele><time>2026-03-22T09:04:18Z</time></trkpt><trkpt lat="38.377118056867744" lon="16.29832005511887"><ele>546.0</ele><time>2026-03-22T09:04:19Z</time></trkpt><trkpt lat="38.37718487587897" lon="16.29833239081121"><ele>546.0</ele><time>2026-03-22T09:04:20Z</time></trkpt><trkpt lat="38.37724338147523" lon="16.298370881860922"><ele>546.0</ele><time>2026-03-22T09:04:21Z</time></trkpt><trkpt lat="38.37729600611129" lon="16.298421418321272"><ele>546.0</ele><time>2026-03-22T09:04:22Z</time></trkpt><trkpt lat="38.377310065216015" lon="16.298511059353352"><ele>546.0</ele><time>2026-03-22T09:04:23Z</time></trkpt><trkpt lat="38.37732805968568" lon="16.298606352850438"><ele>546.4</ele><time>2026-03-22T09:04:24Z</time></trkpt><trkpt lat="38.37736607872071" lon="16.298713883367366"><ele>546.8</ele><time>2026-03-22T09:04:25Z</time></trkpt><trkpt lat="38.37744590546262" lon="16.298787002676697"><ele>547.1999999999999</ele><time>2026-03-22T09:04:26Z</time></trkpt><trkpt lat="38.37753632307359" lon="16.298863092711958"><ele>547.6</ele><time>2026-03-22T09:04:27Z</time></trkpt><trkpt lat="38.3776403340482" lon="16.29894759556473"><ele>548.0</ele><time>2026-03-22T09:04:28Z</time></trkpt><trkpt lat="38.377771346861834" lon="16.299053601152064"><ele>548.0</ele><time>2026-03-22T09:04:29Z</time></trkpt><trkpt lat="38.37791087220785" lon="16.299161820482215"><ele>548.0</ele><time>2026-03-22T09:04:30Z</time></trkpt><trkpt lat="38.37803064978292" lon="16.29923675583721"><ele>548.0</ele><time>2026-03-22T09:04:31Z</time></trkpt><trkpt lat="38.3781084098744" lon="16.299326425649905"><ele>548.0</ele><time>2026-03-22T09:04:32Z</time></trkpt><trkpt lat="38.37815989267956" lon="16.299398445766062"><ele>551.4</ele><time>2026-03-22T09:04:33Z</time></trkpt><trkpt lat="38.37819427853935" lon="16.299470089890107"><ele>554.8</ele><time>2026-03-22T09:04:34Z</time></trkpt><trkpt lat="38.37823901593777" lon="16.299577151671393"><ele>558.2</ele><time>2026-03-22T09:04:35Z</time></trkpt><trkpt lat="38.37828711443806" lon="16.299694501396782"><ele>561.6</ele><time>2026-03-22T09:04:36Z</time></trkpt><trkpt lat="38.37834220349301" lon="16.29981255598933"><ele>565.0</ele><time>2026-03-22T09:04:37Z</time></trkpt><trkpt lat="38.37839533763557" lon="16.29990395338991"><ele>565.0</ele><time>2026-03-22T09:04:38Z</time></trkpt><trkpt lat="38.37843565630263" lon="16.300001988571953"><ele>565.0</ele><time>2026-03-22T09:04:39Z</time></trkpt><trkpt lat="38.37848558054509" lon="16.300090484708907"><ele>565.0</ele><time>2026-03-22T09:04:40Z</time></trkpt><trkpt lat="38.378552724876165" lon="16.300185631513056"><ele>565.0</ele><time>2026-03-22T09:04:41Z</time></trkpt><trkpt lat="38.37865979193542" lon="16.300288654072272"><ele>565.0</ele><time>2026-03-22T09:04:42Z</time></trkpt><trkpt lat="38.378793786139255" lon="16.30040324600452"><ele>569.8</ele><time>2026-03-22T09:04:43Z</time></trkpt><trkpt lat="38.37889784998085" lon="16.300487997841458"><ele>574.6</ele><time>2026-03-22T09:04:44Z</time></trkpt><trkpt lat="38.37897627936378" lon="16.3005211516338"><ele>579.4</ele><time>2026-03-22T09:04:45Z</time></trkpt><trkpt lat="38.379069788789685" lon="16.30054365713604"><ele>584.2</ele><time>2026-03-22T09:04:46Z</time></trkpt><trkpt lat="38.37915649018878" lon="16.300513363826003"><ele>589.0</ele><time>2026-03-22T09:04:47Z</time></trkpt><trkpt lat="38.37923271984301" lon="16.300463216330204"><ele>589.0</ele><time>2026-03-22T09:04:48Z</time></trkpt><trkpt lat="38.37929751072717" lon="16.30040917973609"><ele>589.0</ele><time>2026-03-22T09:04:49Z</time></trkpt><trkpt lat="38.37937269209694" lon="16.30031335342069"><ele>589.0</ele><time>2026-03-22T09:04:50Z</time></trkpt><trkpt lat="38.379431762287545" lon="16.300255638176367"><ele>589.0</ele><time>2026-03-22T09:04:51Z</time></trkpt><trkpt lat="38.37943417744579" lon="16.300152438645355"><ele>589.0</ele><time>2026-03-22T09:04:54Z</time></trkpt><trkpt lat="38.379297882543504" lon="16.30015936893654"><ele>589.0</ele><time>2026-03-22T09:04:56Z</time></trkpt><trkpt lat="38.379229989934665" lon="16.300186845486092"><ele>589.0</ele><time>2026-03-22T09:04:57Z</time></trkpt><trkpt lat="38.37916625789662" lon="16.30020058637521"><ele>589.0</ele><time>2026-03-22T09:04:58Z</time></trkpt><trkpt lat="38.379102332686976" lon="16.30019687093828"><ele>589.0</ele><time>2026-03-22T09:04:59Z</time></trkpt><trkpt lat="38.37904515350938" lon="16.300158643087293"><ele>589.0</ele><time>2026-03-22T09:05:00Z</time></trkpt><trkpt lat="38.37901432198125" lon="16.30008245392783"><ele>589.0</ele><time>2026-03-22T09:05:01Z</time></trkpt><trkpt lat="38.37900433044648" lon="16.299984429818554"><ele>589.0</ele><time>2026-03-22T09:05:02Z</time></trkpt><trkpt lat="38.379017032340364" lon="16.299899492878232"><ele>589.0</ele><time>2026-03-22T09:05:03Z</time></trkpt><trkpt lat="38.37911214384667" lon="16.29981826671579"><ele>589.0</ele><time>2026-03-22T09:05:05Z</time></trkpt><trkpt lat="38.379193162279826" lon="16.299822429907337"><ele>589.0</ele><time>2026-03-22T09:05:06Z</time></trkpt><trkpt lat="38.37929066988666" lon="16.299834021464157"><ele>589.0</ele><time>2026-03-22T09:05:07Z</time></trkpt><trkpt lat="38.37938159356351" lon="16.299818535306386"><ele>589.0</ele><time>2026-03-22T09:05:08Z</time></trkpt><trkpt lat="38.37944695836768" lon="16.29980171022775"><ele>592.4</ele><time>2026-03-22T09:05:09Z</time></trkpt><trkpt lat="38.379489649520636" lon="16.299719864065754"><ele>595.8</ele><time>2026-03-22T09:05:48Z</time></trkpt><trkpt lat="38.379618174928865" lon="16.299604472509085"><ele>599.2</ele><time>2026-03-22T09:08:18Z</time></trkpt><trkpt lat="38.3796748968114" lon="16.299517942050343"><ele>602.6</ele><time>2026-03-22T09:08:19Z</time></trkpt><trkpt lat="38.37972611896041" lon="16.299431376601394"><ele>606.0</ele><time>2026-03-22T09:08:20Z</time></trkpt><trkpt lat="38.3797681392117" lon="16.29934659894663"><ele>606.0</ele><time>2026-03-22T09:08:21Z</time></trkpt><trkpt lat="38.37981774042938" lon="16.299274011359348"><ele>606.0</ele><time>2026-03-22T09:08:22Z</time></trkpt><trkpt lat="38.37986604547639" lon="16.299192399177812"><ele>606.0</ele><time>2026-03-22T09:08:23Z</time></trkpt><trkpt lat="38.3799329302488" lon="16.299148740149842"><ele>606.0</ele><time>2026-03-22T09:08:24Z</time></trkpt><trkpt lat="38.38001319482365" lon="16.29914944926934"><ele>606.0</ele><time>2026-03-22T09:08:25Z</time></trkpt><trkpt lat="38.380090497428746" lon="16.29914620815473"><ele>606.0</ele><time>2026-03-22T09:08:26Z</time></trkpt><trkpt lat="38.38017339235244" lon="16.29915305784789"><ele>606.0</ele><time>2026-03-22T09:08:27Z</time></trkpt><trkpt lat="38.38026088021049" lon="16.29916960787327"><ele>606.0</ele><time>2026-03-22T09:08:28Z</time></trkpt><trkpt lat="38.38035084986061" lon="16.29919766276856"><ele>606.0</ele><time>2026-03-22T09:08:29Z</time></trkpt><trkpt lat="38.38043903320195" lon="16.29922041093043"><ele>606.0</ele><time>2026-03-22T09:08:30Z</time></trkpt><trkpt lat="38.380520981245034" lon="16.299242025499467"><ele>606.0</ele><time>2026-03-22T09:08:31Z</time></trkpt><trkpt lat="38.38058108339717" lon="16.299298222159518"><ele>606.0</ele><time>2026-03-22T09:08:32Z</time></trkpt><trkpt lat="38.38063891060526" lon="16.29934422354962"><ele>608.6</ele><time>2026-03-22T09:08:33Z</time></trkpt><trkpt lat="38.38073549787094" lon="16.299427528521072"><ele>611.2</ele><time>2026-03-22T09:08:35Z</time></trkpt><trkpt lat="38.38082935092942" lon="16.29944708724196"><ele>613.8</ele><time>2026-03-22T09:08:37Z</time></trkpt><trkpt lat="38.38086966916965" lon="16.299352014982002"><ele>616.4</ele><time>2026-03-22T09:08:39Z</time></trkpt><trkpt lat="38.38080402565915" lon="16.299224518115366"><ele>619.0</ele><time>2026-03-22T09:08:41Z</time></trkpt><trkpt lat="38.3807544667185" lon="16.29916369077621"><ele>619.0</ele><time>2026-03-22T09:08:42Z</time></trkpt><trkpt lat="38.38070923264946" lon="16.299094471590347"><ele>619.0</ele><time>2026-03-22T09:08:43Z</time></trkpt><trkpt lat="38.38064876213313" lon="16.29899387704142"><ele>619.0</ele><time>2026-03-22T09:08:45Z</time></trkpt><trkpt lat="38.38067644282836" lon="16.298884876605047"><ele>619.0</ele><time>2026-03-22T09:08:47Z</time></trkpt><trkpt lat="38.38072538567447" lon="16.298822956501173"><ele>619.0</ele><time>2026-03-22T09:08:48Z</time></trkpt><trkpt lat="38.380787573633185" lon="16.298768819773038"><ele>619.0</ele><time>2026-03-22T09:08:49Z</time></trkpt><trkpt lat="38.38085368660821" lon="16.29871328334851"><ele>620.5</ele><time>2026-03-22T09:08:50Z</time></trkpt><trkpt lat="38.3809215951121" lon="16.298664160824185"><ele>622.0</ele><time>2026-03-22T09:08:51Z</time></trkpt><trkpt lat="38.38098711878907" lon="16.29862847697747"><ele>623.5</ele><time>2026-03-22T09:08:52Z</time></trkpt><trkpt lat="38.38105794196142" lon="16.29861244431097"><ele>625.0</ele><time>2026-03-22T09:08:53Z</time></trkpt><trkpt lat="38.3811307066912" lon="16.298596242982644"><ele>626.5</ele><time>2026-03-22T09:08:54Z</time></trkpt><trkpt lat="38.38119821897353" lon="16.298598344792868"><ele>628.0</ele><time>2026-03-22T09:08:55Z</time></trkpt><trkpt lat="38.38129818999846" lon="16.298686636624375"><ele>628.0</ele><time>2026-03-22T09:08:57Z</time></trkpt><trkpt lat="38.38133032860579" lon="16.298856044950675"><ele>628.0</ele><time>2026-03-22T09:08:59Z</time></trkpt><trkpt lat="38.38136068986551" lon="16.298954368072323"><ele>628.0</ele><time>2026-03-22T09:09:00Z</time></trkpt><trkpt lat="38.381400554930444" lon="16.29905124262906"><ele>628.0</ele><time>2026-03-22T09:09:01Z</time></trkpt><trkpt lat="38.38143818640876" lon="16.299155993556255"><ele>628.0</ele><time>2026-03-22T09:09:02Z</time></trkpt><trkpt lat="38.381495401208014" lon="16.29925042253373"><ele>631.6666666666667</ele><time>2026-03-22T09:09:03Z</time></trkpt><trkpt lat="38.381563438404406" lon="16.299342551605704"><ele>635.3333333333334</ele><time>2026-03-22T09:09:04Z</time></trkpt><trkpt lat="38.38163023520961" lon="16.29941994167672"><ele>639.0</ele><time>2026-03-22T09:09:05Z</time></trkpt><trkpt lat="38.381688992782166" lon="16.299489069003396"><ele>642.6666666666666</ele><time>2026-03-22T09:09:06Z</time></trkpt><trkpt lat="38.38174951640724" lon="16.299513850022016"><ele>646.3333333333333</ele><time>2026-03-22T09:09:07Z</time></trkpt><trkpt lat="38.38181353731192" lon="16.299533528036406"><ele>650.0</ele><time>2026-03-22T09:09:08Z</time></trkpt><trkpt lat="38.38188023036035" lon="16.299534822959302"><ele>650.0</ele><time>2026-03-22T09:09:09Z</time></trkpt><trkpt lat="38.381955617621834" lon="16.29954299066234"><ele>650.0</ele><time>2026-03-22T09:09:10Z</time></trkpt><trkpt lat="38.382026525059075" lon="16.299498417723058"><ele>650.0</ele><time>2026-03-22T09:09:11Z</time></trkpt><trkpt lat="38.38210098551522" lon="16.29944233781633"><ele>650.0</ele><time>2026-03-22T09:09:12Z</time></trkpt><trkpt lat="38.382165545907206" lon="16.299363240878627"><ele>650.0</ele><time>2026-03-22T09:09:13Z</time></trkpt><trkpt lat="38.3822422998598" lon="16.29930324517279"><ele>650.0</ele><time>2026-03-22T09:09:14Z</time></trkpt><trkpt lat="38.382318804954096" lon="16.299260273203394"><ele>652.4</ele><time>2026-03-22T09:09:15Z</time></trkpt><trkpt lat="38.38240398415806" lon="16.299222365886727"><ele>654.8</ele><time>2026-03-22T09:09:16Z</time></trkpt><trkpt lat="38.38249263612018" lon="16.299188665963666"><ele>657.2</ele><time>2026-03-22T09:09:17Z</time></trkpt><trkpt lat="38.38259044886195" lon="16.29915439478511"><ele>659.6</ele><time>2026-03-22T09:09:18Z</time></trkpt><trkpt lat="38.38269597734886" lon="16.299117420187965"><ele>662.0</ele><time>2026-03-22T09:09:19Z</time></trkpt><trkpt lat="38.38279915614114" lon="16.299086448962186"><ele>662.0</ele><time>2026-03-22T09:09:20Z</time></trkpt><trkpt lat="38.382892768034274" lon="16.299058046687854"><ele>662.0</ele><time>2026-03-22T09:09:21Z</time></trkpt><trkpt lat="38.38297270962811" lon="16.29901625534468"><ele>662.0</ele><time>2026-03-22T09:09:22Z</time></trkpt><trkpt lat="38.38304482368133" lon="16.298959159873267"><ele>662.0</ele><time>2026-03-22T09:09:23Z</time></trkpt><trkpt lat="38.383133434406275" lon="16.298903871532065"><ele>662.0</ele><time>2026-03-22T09:09:24Z</time></trkpt><trkpt lat="38.383203647515415" lon="16.298801875922962"><ele>668.3333333333333</ele><time>2026-03-22T09:09:25Z</time></trkpt><trkpt lat="38.38327174086492" lon="16.29872607322646"><ele>674.6666666666666</ele><time>2026-03-22T09:09:26Z</time></trkpt><trkpt lat="38.383342692496235" lon="16.298642357734995"><ele>681.0</ele><time>2026-03-22T09:09:27Z</time></trkpt><trkpt lat="38.38342029555068" lon="16.298587666897927"><ele>687.3333333333334</ele><time>2026-03-22T09:09:28Z</time></trkpt><trkpt lat="38.3835038881506" lon="16.29855141406066"><ele>693.6666666666667</ele><time>2026-03-22T09:09:29Z</time></trkpt><trkpt lat="38.383580024988674" lon="16.298523852753835"><ele>700.0</ele><time>2026-03-22T09:09:30Z</time></trkpt><trkpt lat="38.38365750630274" lon="16.298510606240082"><ele>700.0</ele><time>2026-03-22T09:09:31Z</time></trkpt><trkpt lat="38.38372859867854" lon="16.29850557991028"><ele>700.0</ele><time>2026-03-22T09:09:32Z</time></trkpt><trkpt lat="38.383834338613234" lon="16.29853217382645"><ele>700.0</ele><time>2026-03-22T09:09:34Z</time></trkpt><trkpt lat="38.38388028678576" lon="16.298594997194037"><ele>700.0</ele><time>2026-03-22T09:09:36Z</time></trkpt><trkpt lat="38.383876188993874" lon="16.298735213589747"><ele>700.0</ele><time>2026-03-22T09:09:38Z</time></trkpt><trkpt lat="38.38388500685439" lon="16.298821106210603"><ele>700.0</ele><time>2026-03-22T09:09:39Z</time></trkpt><trkpt lat="38.383911192177635" lon="16.298897820401105"><ele>699.0</ele><time>2026-03-22T09:09:40Z</time></trkpt><trkpt lat="38.383912916443975" lon="16.298983373139475"><ele>698.0</ele><time>2026-03-22T09:09:41Z</time></trkpt><trkpt lat="38.38394015838775" lon="16.299058626945914"><ele>697.0</ele><time>2026-03-22T09:09:42Z</time></trkpt><trkpt lat="38.38398115321829" lon="16.299136382495956"><ele>696.0</ele><time>2026-03-22T09:09:43Z</time></trkpt><trkpt lat="38.38410646653644" lon="16.29921898554182"><ele>695.0</ele><time>2026-03-22T09:09:45Z</time></trkpt><trkpt lat="38.384188313601115" lon="16.299275680389897"><ele>694.0</ele><time>2026-03-22T09:09:46Z</time></trkpt><trkpt lat="38.38426482697366" lon="16.299334136199136"><ele>694.0</ele><time>2026-03-22T09:09:47Z</time></trkpt><trkpt lat="38.38432599484149" lon="16.299374251287645"><ele>694.0</ele><time>2026-03-22T09:09:48Z</time></trkpt><trkpt lat="38.3844076815793" lon="16.29940790190022"><ele>694.0</ele><time>2026-03-22T09:09:50Z</time></trkpt><trkpt lat="38.38446282993245" lon="16.299338583662518"><ele>694.0</ele><time>2026-03-22T09:09:53Z</time></trkpt><trkpt lat="38.38442425451233" lon="16.29919192349743"><ele>694.0</ele><time>2026-03-22T09:09:55Z</time></trkpt><trkpt lat="38.38433113041983" lon="16.299135495232715"><ele>694.0</ele><time>2026-03-22T09:09:56Z</time></trkpt><trkpt lat="38.38424649845442" lon="16.29908874311028"><ele>694.0</ele><time>2026-03-22T09:09:57Z</time></trkpt><trkpt lat="38.38416660133044" lon="16.29902058738875"><ele>694.0</ele><time>2026-03-22T09:09:58Z</time></trkpt><trkpt lat="38.38412154138672" lon="16.298955740766534"><ele>694.0</ele><time>2026-03-22T09:09:59Z</time></trkpt><trkpt lat="38.38408350322666" lon="16.298876542005562"><ele>694.0</ele><time>2026-03-22T09:10:00Z</time></trkpt><trkpt lat="38.384062685423714" lon="16.298793785251384"><ele>694.0</ele><time>2026-03-22T09:10:01Z</time></trkpt><trkpt lat="38.38404890313346" lon="16.298691575375898"><ele>697.6666666666667</ele><time>2026-03-22T09:10:02Z</time></trkpt><trkpt lat="38.38407190316687" lon="16.298604854660937"><ele>701.3333333333334</ele><time>2026-03-22T09:10:03Z</time></trkpt><trkpt lat="38.38408435837619" lon="16.29849623481735"><ele>705.0</ele><time>2026-03-22T09:10:04Z</time></trkpt><trkpt lat="38.38406411064092" lon="16.298404277716486"><ele>708.6666666666666</ele><time>2026-03-22T09:10:05Z</time></trkpt><trkpt lat="38.3840424151292" lon="16.29828810250989"><ele>712.3333333333333</ele><time>2026-03-22T09:10:07Z</time></trkpt><trkpt lat="38.38397536391217" lon="16.298266839767486"><ele>716.0</ele><time>2026-03-22T09:10:08Z</time></trkpt><trkpt lat="38.38389352664987" lon="16.298231761145725"><ele>713.3333333333333</ele><time>2026-03-22T09:10:10Z</time></trkpt><trkpt lat="38.38382684751031" lon="16.298199305879276"><ele>710.6666666666666</ele><time>2026-03-22T09:10:11Z</time></trkpt><trkpt lat="38.383745887665576" lon="16.298191957016638"><ele>708.0</ele><time>2026-03-22T09:10:12Z</time></trkpt><trkpt lat="38.38366288011281" lon="16.29818950978557"><ele>705.3333333333334</ele><time>2026-03-22T09:10:13Z</time></trkpt><trkpt lat="38.38359802590115" lon="16.298163380193653"><ele>702.6666666666667</ele><time>2026-03-22T09:10:14Z</time></trkpt><trkpt lat="38.38353539709783" lon="16.298149664255803"><ele>700.0</ele><time>2026-03-22T09:10:15Z</time></trkpt><trkpt lat="38.38344634741539" lon="16.29810678765562"><ele>699.5</ele><time>2026-03-22T09:10:17Z</time></trkpt><trkpt lat="38.38343399931464" lon="16.29802703806752"><ele>699.0</ele><time>2026-03-22T09:10:19Z</time></trkpt><trkpt lat="38.383497054880856" lon="16.297963063507407"><ele>698.5</ele><time>2026-03-22T09:10:21Z</time></trkpt><trkpt lat="38.383559115042544" lon="16.2980015063221"><ele>698.0</ele><time>2026-03-22T09:10:22Z</time></trkpt><trkpt lat="38.38362218821628" lon="16.297998184784724"><ele>697.5</ele><time>2026-03-22T09:10:23Z</time></trkpt><trkpt lat="38.38370000905965" lon="16.29801520018654"><ele>697.0</ele><time>2026-03-22T09:10:24Z</time></trkpt><trkpt lat="38.383797985029005" lon="16.29802173095389"><ele>700.1666666666667</ele><time>2026-03-22T09:10:25Z</time></trkpt><trkpt lat="38.38390495945965" lon="16.298033677550816"><ele>703.3333333333334</ele><time>2026-03-22T09:10:26Z</time></trkpt><trkpt lat="38.38401671911034" lon="16.29807283202015"><ele>706.5</ele><time>2026-03-22T09:10:27Z</time></trkpt><trkpt lat="38.38409827194062" lon="16.29809853071208"><ele>709.6666666666666</ele><time>2026-03-22T09:10:28Z</time></trkpt><trkpt lat="38.38416091044621" lon="16.298137928679886"><ele>712.8333333333333</ele><time>2026-03-22T09:10:29Z</time></trkpt><trkpt lat="38.384215115588155" lon="16.298192382825146"><ele>716.0</ele><time>2026-03-22T09:10:30Z</time></trkpt><trkpt lat="38.38426766343043" lon="16.298345566589948"><ele>716.0</ele><time>2026-03-22T09:10:32Z</time></trkpt><trkpt lat="38.384299081967676" lon="16.298444702383645"><ele>716.0</ele><time>2026-03-22T09:10:33Z</time></trkpt><trkpt lat="38.384375501731185" lon="16.29858047312001"><ele>716.0</ele><time>2026-03-22T09:10:34Z</time></trkpt><trkpt lat="38.38444186181939" lon="16.298656008846038"><ele>716.0</ele><time>2026-03-22T09:10:35Z</time></trkpt><trkpt lat="38.384537313319974" lon="16.298733055578165"><ele>716.0</ele><time>2026-03-22T09:10:36Z</time></trkpt><trkpt lat="38.38463088170677" lon="16.29877069949834"><ele>724.25</ele><time>2026-03-22T09:10:37Z</time></trkpt><trkpt lat="38.38473508117436" lon="16.29879222524855"><ele>732.5</ele><time>2026-03-22T09:10:38Z</time></trkpt><trkpt lat="38.38485084838232" lon="16.298803283136966"><ele>740.75</ele><time>2026-03-22T09:10:39Z</time></trkpt><trkpt lat="38.38497377885431" lon="16.298813458659872"><ele>749.0</ele><time>2026-03-22T09:10:40Z</time></trkpt><trkpt lat="38.38510708010154" lon="16.298791984774073"><ele>749.0</ele><time>2026-03-22T09:10:41Z</time></trkpt><trkpt lat="38.38522193528613" lon="16.2987933434803"><ele>749.0</ele><time>2026-03-22T09:10:42Z</time></trkpt><trkpt lat="38.385341940155286" lon="16.298776110042528"><ele>749.0</ele><time>2026-03-22T09:10:43Z</time></trkpt><trkpt lat="38.385461932958336" lon="16.298741764368362"><ele>749.0</ele><time>2026-03-22T09:10:44Z</time></trkpt><trkpt lat="38.38557033387606" lon="16.298688389454906"><ele>752.0</ele><time>2026-03-22T09:10:45Z</time></trkpt><trkpt lat="38.385672203554144" lon="16.298642014033867"><ele>755.0</ele><time>2026-03-22T09:10:46Z</time></trkpt><trkpt lat="38.38577380312003" lon="16.298618629181362"><ele>758.0</ele><time>2026-03-22T09:10:47Z</time></trkpt><trkpt lat="38.38586927549328" lon="16.298680309233774"><ele>761.0</ele><time>2026-03-22T09:10:48Z</time></trkpt><trkpt lat="38.38598150667059" lon="16.29872096088493"><ele>764.0</ele><time>2026-03-22T09:10:49Z</time></trkpt><trkpt lat="38.38609516588679" lon="16.298768582945495"><ele>764.0</ele><time>2026-03-22T09:10:50Z</time></trkpt><trkpt lat="38.38621306212878" lon="16.29881647615431"><ele>764.0</ele><time>2026-03-22T09:10:51Z</time></trkpt><trkpt lat="38.38633659185823" lon="16.29886329548674"><ele>764.0</ele><time>2026-03-22T09:10:52Z</time></trkpt><trkpt lat="38.38646393231211" lon="16.298897661418327"><ele>764.0</ele><time>2026-03-22T09:10:53Z</time></trkpt><trkpt lat="38.38657496344821" lon="16.298921639567375"><ele>761.6</ele><time>2026-03-22T09:10:54Z</time></trkpt><trkpt lat="38.38667387118065" lon="16.29894791983468"><ele>759.2</ele><time>2026-03-22T09:10:55Z</time></trkpt><trkpt lat="38.38676561351762" lon="16.298981387406982"><ele>756.8000000000001</ele><time>2026-03-22T09:10:56Z</time></trkpt><trkpt lat="38.38684863716406" lon="16.299016603178966"><ele>754.4000000000001</ele><time>2026-03-22T09:10:57Z</time></trkpt><trkpt lat="38.38690794089221" lon="16.29907052942992"><ele>752.0</ele><time>2026-03-22T09:10:58Z</time></trkpt><trkpt lat="38.38698759297727" lon="16.299172137142058"><ele>752.0</ele><time>2026-03-22T09:11:00Z</time></trkpt><trkpt lat="38.38703582524838" lon="16.299254329474937"><ele>752.0</ele><time>2026-03-22T09:11:01Z</time></trkpt><trkpt lat="38.38707756320622" lon="16.299345959507214"><ele>752.0</ele><time>2026-03-22T09:11:02Z</time></trkpt><trkpt lat="38.3871198076188" lon="16.29945193726471"><ele>752.0</ele><time>2026-03-22T09:11:03Z</time></trkpt><trkpt lat="38.38714234721916" lon="16.29954839853429"><ele>752.0</ele><time>2026-03-22T09:11:04Z</time></trkpt><trkpt lat="38.387153837004576" lon="16.299644854606687"><ele>752.0</ele><time>2026-03-22T09:11:05Z</time></trkpt><trkpt lat="38.387152516215785" lon="16.299736106165195"><ele>749.4000000000001</ele><time>2026-03-22T09:11:06Z</time></trkpt><trkpt lat="38.38712777271693" lon="16.299845450524003"><ele>746.8000000000001</ele><time>2026-03-22T09:11:07Z</time></trkpt><trkpt lat="38.387095305355174" lon="16.29994477709885"><ele>744.2</ele><time>2026-03-22T09:11:08Z</time></trkpt><trkpt lat="38.38706865960334" lon="16.300029504039735"><ele>741.6</ele><time>2026-03-22T09:11:09Z</time></trkpt><trkpt lat="38.38708766627175" lon="16.300167456374282"><ele>739.0</ele><time>2026-03-22T09:11:11Z</time></trkpt><trkpt lat="38.38718082141799" lon="16.300200177637553"><ele>746.4000000000001</ele><time>2026-03-22T09:11:12Z</time></trkpt><trkpt lat="38.38727342053084" lon="16.30009941379043"><ele>753.8</ele><time>2026-03-22T09:11:14Z</time></trkpt><trkpt lat="38.38731063380598" lon="16.300019147674927"><ele>761.2</ele><time>2026-03-22T09:11:15Z</time></trkpt><trkpt lat="38.38734026965652" lon="16.29992574088301"><ele>768.5999999999999</ele><time>2026-03-22T09:11:16Z</time></trkpt><trkpt lat="38.387366680302726" lon="16.29980966401487"><ele>776.0</ele><time>2026-03-22T09:11:17Z</time></trkpt><trkpt lat="38.3873866445935" lon="16.299693570941255"><ele>777.8</ele><time>2026-03-22T09:11:18Z</time></trkpt><trkpt lat="38.387413044307245" lon="16.29958312747826"><ele>779.5999999999999</ele><time>2026-03-22T09:11:19Z</time></trkpt><trkpt lat="38.3873901522845" lon="16.299454954138003"><ele>781.4</ele><time>2026-03-22T09:11:20Z</time></trkpt><trkpt lat="38.387358413753866" lon="16.29934463982435"><ele>783.2</ele><time>2026-03-22T09:11:21Z</time></trkpt><trkpt lat="38.38735320417025" lon="16.299212730843973"><ele>785.0</ele><time>2026-03-22T09:11:22Z</time></trkpt><trkpt lat="38.387308903695484" lon="16.299064098189945"><ele>785.0</ele><time>2026-03-22T09:11:23Z</time></trkpt><trkpt lat="38.38723334955991" lon="16.29891413678256"><ele>785.0</ele><time>2026-03-22T09:11:24Z</time></trkpt><trkpt lat="38.38716395296815" lon="16.298796754139044"><ele>785.0</ele><time>2026-03-22T09:11:25Z</time></trkpt><trkpt lat="38.38710116910772" lon="16.298676200207236"><ele>785.0</ele><time>2026-03-22T09:11:26Z</time></trkpt><trkpt lat="38.387031470995076" lon="16.2985772514679"><ele>785.0</ele><time>2026-03-22T09:11:27Z</time></trkpt><trkpt lat="38.3869599570995" lon="16.29846527794469"><ele>785.0</ele><time>2026-03-22T09:11:28Z</time></trkpt><trkpt lat="38.38686562685109" lon="16.298380824895897"><ele>785.0</ele><time>2026-03-22T09:11:29Z</time></trkpt><trkpt lat="38.38677351484336" lon="16.298321459404097"><ele>785.0</ele><time>2026-03-22T09:11:30Z</time></trkpt><trkpt lat="38.38668683235241" lon="16.298273117558242"><ele>785.0</ele><time>2026-03-22T09:11:31Z</time></trkpt><trkpt lat="38.38660350284322" lon="16.29823636749088"><ele>785.0</ele><time>2026-03-22T09:11:32Z</time></trkpt><trkpt lat="38.3865198490486" lon="16.29821105588241"><ele>785.0</ele><time>2026-03-22T09:11:33Z</time></trkpt><trkpt lat="38.38644115800348" lon="16.298186452760703"><ele>785.0</ele><time>2026-03-22T09:11:34Z</time></trkpt><trkpt lat="38.38635796843474" lon="16.2981434591259"><ele>785.0</ele><time>2026-03-22T09:11:35Z</time></trkpt><trkpt lat="38.3862834305602" lon="16.2980659363213"><ele>785.0</ele><time>2026-03-22T09:11:36Z</time></trkpt><trkpt lat="38.38620386882675" lon="16.297979674851526"><ele>785.4</ele><time>2026-03-22T09:11:37Z</time></trkpt><trkpt lat="38.38612702444707" lon="16.297901554800546"><ele>785.8</ele><time>2026-03-22T09:11:38Z</time></trkpt><trkpt lat="38.38604307943419" lon="16.297842381174508"><ele>786.2</ele><time>2026-03-22T09:11:39Z</time></trkpt><trkpt lat="38.38596552530028" lon="16.297761032889618"><ele>786.6</ele><time>2026-03-22T09:11:40Z</time></trkpt><trkpt lat="38.38585929917575" lon="16.297718895134725"><ele>787.0</ele><time>2026-03-22T09:11:41Z</time></trkpt><trkpt lat="38.385753815686044" lon="16.29770590803995"><ele>787.0</ele><time>2026-03-22T09:11:42Z</time></trkpt><trkpt lat="38.38566732157623" lon="16.297706602018675"><ele>787.0</ele><time>2026-03-22T09:11:43Z</time></trkpt><trkpt lat="38.385603547923154" lon="16.297701901872458"><ele>787.0</ele><time>2026-03-22T09:11:44Z</time></trkpt><trkpt lat="38.38550609863481" lon="16.297689361077712"><ele>787.0</ele><time>2026-03-22T09:11:46Z</time></trkpt><trkpt lat="38.385470654396826" lon="16.297553383962853"><ele>787.0</ele><time>2026-03-22T09:11:48Z</time></trkpt><trkpt lat="38.385524147635174" lon="16.29743023117545"><ele>787.0</ele><time>2026-03-22T09:11:50Z</time></trkpt><trkpt lat="38.38561337574617" lon="16.29745054064302"><ele>787.0</ele><time>2026-03-22T09:11:51Z</time></trkpt><trkpt lat="38.38569144867275" lon="16.297472355870692"><ele>787.0</ele><time>2026-03-22T09:11:52Z</time></trkpt><trkpt lat="38.3857954719907" lon="16.297507049393893"><ele>787.0</ele><time>2026-03-22T09:11:53Z</time></trkpt><trkpt lat="38.385921825634824" lon="16.297533277239282"><ele>787.0</ele><time>2026-03-22T09:11:54Z</time></trkpt><trkpt lat="38.38605469723782" lon="16.297539426207887"><ele>787.0</ele><time>2026-03-22T09:11:55Z</time></trkpt><trkpt lat="38.386181907842634" lon="16.297534807645498"><ele>787.0</ele><time>2026-03-22T09:11:56Z</time></trkpt><trkpt lat="38.38629296770629" lon="16.297531452058163"><ele>787.0</ele><time>2026-03-22T09:11:57Z</time></trkpt><trkpt lat="38.386386710818904" lon="16.29754807325067"><ele>787.0</ele><time>2026-03-22T09:11:58Z</time></trkpt><trkpt lat="38.386467917974244" lon="16.297590804056256"><ele>787.0</ele><time>2026-03-22T09:11:59Z</time></trkpt><trkpt lat="38.38654265920316" lon="16.297659422360976"><ele>791.0</ele><time>2026-03-22T09:12:00Z</time></trkpt><trkpt lat="38.38661893830432" lon="16.297716054654128"><ele>795.0</ele><time>2026-03-22T09:12:01Z</time></trkpt><trkpt lat="38.38669973787271" lon="16.29774940590351"><ele>799.0</ele><time>2026-03-22T09:12:02Z</time></trkpt><trkpt lat="38.3867930981174" lon="16.297764069415603"><ele>803.0</ele><time>2026-03-22T09:12:03Z</time></trkpt><trkpt lat="38.38690009814575" lon="16.297764994277337"><ele>807.0</ele><time>2026-03-22T09:12:04Z</time></trkpt><trkpt lat="38.3870100332791" lon="16.297743053124492"><ele>807.0</ele><time>2026-03-22T09:12:05Z</time></trkpt><trkpt lat="38.38712863239183" lon="16.297737642346885"><ele>807.0</ele><time>2026-03-22T09:12:06Z</time></trkpt><trkpt lat="38.38724729213713" lon="16.297764057349315"><ele>807.0</ele><time>2026-03-22T09:12:07Z</time></trkpt><trkpt lat="38.38736015049192" lon="16.297767445472985"><ele>807.0</ele><time>2026-03-22T09:12:08Z</time></trkpt><trkpt lat="38.387455456827574" lon="16.297783130691723"><ele>807.0</ele><time>2026-03-22T09:12:09Z</time></trkpt><trkpt lat="38.38754205197734" lon="16.297817162678722"><ele>807.0</ele><time>2026-03-22T09:12:10Z</time></trkpt><trkpt lat="38.38762697502279" lon="16.297865896012247"><ele>807.0</ele><time>2026-03-22T09:12:11Z</time></trkpt><trkpt lat="38.3876993360212" lon="16.297932342819518"><ele>807.0</ele><time>2026-03-22T09:12:12Z</time></trkpt><trkpt lat="38.3877634922807" lon="16.298007654870133"><ele>807.0</ele><time>2026-03-22T09:12:13Z</time></trkpt><trkpt lat="38.38783421664161" lon="16.298091403804758"><ele>807.0</ele><time>2026-03-22T09:12:14Z</time></trkpt><trkpt lat="38.38789838793837" lon="16.298180767788633"><ele>807.0</ele><time>2026-03-22T09:12:15Z</time></trkpt><trkpt lat="38.38795913002212" lon="16.298288103760992"><ele>807.0</ele><time>2026-03-22T09:12:16Z</time></trkpt><trkpt lat="38.38800576625758" lon="16.29841685675401"><ele>807.0</ele><time>2026-03-22T09:12:17Z</time></trkpt><trkpt lat="38.38806056432325" lon="16.298511010971726"><ele>807.0</ele><time>2026-03-22T09:12:18Z</time></trkpt><trkpt lat="38.38812781648415" lon="16.29859581648174"><ele>807.0</ele><time>2026-03-22T09:12:19Z</time></trkpt><trkpt lat="38.38819141898003" lon="16.29868524390428"><ele>812.1666666666666</ele><time>2026-03-22T09:12:20Z</time></trkpt><trkpt lat="38.38825014279335" lon="16.298765674671145"><ele>817.3333333333333</ele><time>2026-03-22T09:12:21Z</time></trkpt><trkpt lat="38.388314507630454" lon="16.2988366853723"><ele>822.5</ele><time>2026-03-22T09:12:22Z</time></trkpt><trkpt lat="38.388403489602275" lon="16.298869345448125"><ele>827.6666666666666</ele><time>2026-03-22T09:12:23Z</time></trkpt><trkpt lat="38.38848327782768" lon="16.298893635243555"><ele>832.8333333333333</ele><time>2026-03-22T09:12:24Z</time></trkpt><trkpt lat="38.3885753179868" lon="16.298910238813917"><ele>838.0</ele><time>2026-03-22T09:12:25Z</time></trkpt><trkpt lat="38.38867435174549" lon="16.298912926755296"><ele>837.9999999999999</ele><time>2026-03-22T09:12:26Z</time></trkpt><trkpt lat="38.38877213617194" lon="16.298915466271247"><ele>838.0</ele><time>2026-03-22T09:12:27Z</time></trkpt><trkpt lat="38.38886463805794" lon="16.298904523858695"><ele>838.0</ele><time>2026-03-22T09:12:28Z</time></trkpt><trkpt lat="38.38894524172789" lon="16.298886479465306"><ele>838.0</ele><time>2026-03-22T09:12:29Z</time></trkpt><trkpt lat="38.38900449424394" lon="16.298855196720655"><ele>837.9999999999999</ele><time>2026-03-22T09:12:30Z</time></trkpt><trkpt lat="38.38906196499659" lon="16.298794626958127"><ele>838.0</ele><time>2026-03-22T09:12:31Z</time></trkpt><trkpt lat="38.38912188159341" lon="16.298692863125375"><ele>840.4</ele><time>2026-03-22T09:12:32Z</time></trkpt><trkpt lat="38.389196699316" lon="16.29860111762838"><ele>842.8</ele><time>2026-03-22T09:12:33Z</time></trkpt><trkpt lat="38.38924272713481" lon="16.29852943159753"><ele>845.2</ele><time>2026-03-22T09:12:34Z</time></trkpt><trkpt lat="38.38930190981033" lon="16.29843070613321"><ele>847.6</ele><time>2026-03-22T09:12:35Z</time></trkpt><trkpt lat="38.389378724954135" lon="16.298330391607333"><ele>850.0</ele><time>2026-03-22T09:12:36Z</time></trkpt><trkpt lat="38.38948889749752" lon="16.298256196322534"><ele>850.0</ele><time>2026-03-22T09:12:37Z</time></trkpt><trkpt lat="38.389569449244476" lon="16.29821706076301"><ele>850.0</ele><time>2026-03-22T09:12:38Z</time></trkpt><trkpt lat="38.38967449047286" lon="16.298221640595848"><ele>850.0</ele><time>2026-03-22T09:12:39Z</time></trkpt><trkpt lat="38.389779096755376" lon="16.298203968669554"><ele>850.0</ele><time>2026-03-22T09:12:40Z</time></trkpt><trkpt lat="38.38987897868673" lon="16.298206879504942"><ele>850.0</ele><time>2026-03-22T09:12:41Z</time></trkpt><trkpt lat="38.38998517133922" lon="16.298206822274537"><ele>848.75</ele><time>2026-03-22T09:12:42Z</time></trkpt><trkpt lat="38.390110059576365" lon="16.298198183557982"><ele>847.5</ele><time>2026-03-22T09:12:43Z</time></trkpt><trkpt lat="38.39023437108672" lon="16.29818747023216"><ele>846.25</ele><time>2026-03-22T09:12:44Z</time></trkpt><trkpt lat="38.39035043971854" lon="16.298176749665664"><ele>845.0</ele><time>2026-03-22T09:12:45Z</time></trkpt><trkpt lat="38.390464210959614" lon="16.298167568965386"><ele>846.6</ele><time>2026-03-22T09:12:46Z</time></trkpt><trkpt lat="38.39056302959244" lon="16.298173148530374"><ele>848.2</ele><time>2026-03-22T09:12:47Z</time></trkpt><trkpt lat="38.3906665413139" lon="16.298198739690065"><ele>849.8</ele><time>2026-03-22T09:12:48Z</time></trkpt><trkpt lat="38.390763370197156" lon="16.298232103488633"><ele>851.4</ele><time>2026-03-22T09:12:49Z</time></trkpt><trkpt lat="38.39085763100531" lon="16.29827134965282"><ele>853.0</ele><time>2026-03-22T09:12:50Z</time></trkpt><trkpt lat="38.39094406326069" lon="16.29830951621531"><ele>853.0</ele><time>2026-03-22T09:12:51Z</time></trkpt><trkpt lat="38.39102913461291" lon="16.298352497208146"><ele>853.0</ele><time>2026-03-22T09:12:52Z</time></trkpt><trkpt lat="38.3911145339956" lon="16.298401520379752"><ele>853.0</ele><time>2026-03-22T09:12:53Z</time></trkpt><trkpt lat="38.39119501378684" lon="16.298459264120485"><ele>853.0</ele><time>2026-03-22T09:12:54Z</time></trkpt><trkpt lat="38.39126210916412" lon="16.298532339373878"><ele>853.0</ele><time>2026-03-22T09:12:55Z</time></trkpt><trkpt lat="38.39132147049433" lon="16.298616368937793"><ele>853.9999999999999</ele><time>2026-03-22T09:12:56Z</time></trkpt><trkpt lat="38.391361764555086" lon="16.29869973373008"><ele>855.0</ele><time>2026-03-22T09:12:57Z</time></trkpt><trkpt lat="38.39139099530266" lon="16.29879425190294"><ele>856.0</ele><time>2026-03-22T09:12:58Z</time></trkpt><trkpt lat="38.391422582639954" lon="16.29890368511698"><ele>857.0</ele><time>2026-03-22T09:12:59Z</time></trkpt><trkpt lat="38.391459472894425" lon="16.299004109830307"><ele>857.9999999999999</ele><time>2026-03-22T09:13:00Z</time></trkpt><trkpt lat="38.3915034340962" lon="16.29907892148064"><ele>859.0</ele><time>2026-03-22T09:13:01Z</time></trkpt><trkpt lat="38.39154797910676" lon="16.299138297266676"><ele>860.4999999999999</ele><time>2026-03-22T09:13:02Z</time></trkpt><trkpt lat="38.39160360659719" lon="16.299197878571594"><ele>862.0</ele><time>2026-03-22T09:13:03Z</time></trkpt><trkpt lat="38.391674926813316" lon="16.299253108493527"><ele>863.5</ele><time>2026-03-22T09:13:04Z</time></trkpt><trkpt lat="38.39173151176262" lon="16.299335156212923"><ele>865.0</ele><time>2026-03-22T09:13:05Z</time></trkpt><trkpt lat="38.3917967082342" lon="16.299403156081663"><ele>866.4999999999999</ele><time>2026-03-22T09:13:06Z</time></trkpt><trkpt lat="38.39186035137945" lon="16.29946495181859"><ele>868.0</ele><time>2026-03-22T09:13:07Z</time></trkpt><trkpt lat="38.39192055660498" lon="16.299526712086692"><ele>868.0</ele><time>2026-03-22T09:13:08Z</time></trkpt><trkpt lat="38.39196452211885" lon="16.299591106284"><ele>868.0</ele><time>2026-03-22T09:13:09Z</time></trkpt><trkpt lat="38.392020727198606" lon="16.299707974119656"><ele>868.0</ele><time>2026-03-22T09:13:11Z</time></trkpt><trkpt lat="38.39206133489799" lon="16.299820980677048"><ele>868.0</ele><time>2026-03-22T09:13:13Z</time></trkpt><trkpt lat="38.39209742056807" lon="16.299939033610517"><ele>868.0</ele><time>2026-03-22T09:13:14Z</time></trkpt><trkpt lat="38.39213377203419" lon="16.30004843959961"><ele>869.4999999999999</ele><time>2026-03-22T09:13:15Z</time></trkpt><trkpt lat="38.392172743991246" lon="16.300164482031697"><ele>871.0</ele><time>2026-03-22T09:13:16Z</time></trkpt><trkpt lat="38.392211864433435" lon="16.300273782664412"><ele>872.5</ele><time>2026-03-22T09:13:17Z</time></trkpt><trkpt lat="38.392262644227856" lon="16.300366460930732"><ele>874.0</ele><time>2026-03-22T09:13:18Z</time></trkpt><trkpt lat="38.39228934959405" lon="16.300461532438668"><ele>875.4999999999999</ele><time>2026-03-22T09:13:19Z</time></trkpt><trkpt lat="38.392304940948634" lon="16.300547464559834"><ele>877.0</ele><time>2026-03-22T09:13:20Z</time></trkpt><trkpt lat="38.392302873061126" lon="16.300628739024233"><ele>876.9999999999999</ele><time>2026-03-22T09:13:21Z</time></trkpt><trkpt lat="38.392318508451105" lon="16.30070932006754"><ele>877.0</ele><time>2026-03-22T09:13:22Z</time></trkpt><trkpt lat="38.39236170554646" lon="16.300791444031347"><ele>877.0</ele><time>2026-03-22T09:13:24Z</time></trkpt><trkpt lat="38.3924519613741" lon="16.300789960887577"><ele>877.0</ele><time>2026-03-22T09:13:27Z</time></trkpt><trkpt lat="38.39250745895809" lon="16.300644379784902"><ele>876.9999999999999</ele><time>2026-03-22T09:13:29Z</time></trkpt><trkpt lat="38.392510611710456" lon="16.30055012498693"><ele>877.0</ele><time>2026-03-22T09:13:30Z</time></trkpt><trkpt lat="38.39259702960004" lon="16.30043736580538"><ele>876.9999999999999</ele><time>2026-03-22T09:13:32Z</time></trkpt><trkpt lat="38.39266881884578" lon="16.30040241030937"><ele>877.0</ele><time>2026-03-22T09:13:33Z</time></trkpt><trkpt lat="38.39274456574881" lon="16.30034782664063"><ele>877.0</ele><time>2026-03-22T09:13:34Z</time></trkpt><trkpt lat="38.39282780425727" lon="16.300300414259485"><ele>877.0</ele><time>2026-03-22T09:13:35Z</time></trkpt><trkpt lat="38.392906284728035" lon="16.30028237637466"><ele>876.9999999999999</ele><time>2026-03-22T09:13:36Z</time></trkpt><trkpt lat="38.39297886632053" lon="16.300268653230457"><ele>877.0</ele><time>2026-03-22T09:13:37Z</time></trkpt><trkpt lat="38.39306583040761" lon="16.300248655050897"><ele>878.8</ele><time>2026-03-22T09:13:38Z</time></trkpt><trkpt lat="38.39315615589727" lon="16.300236795273904"><ele>880.6</ele><time>2026-03-22T09:13:39Z</time></trkpt><trkpt lat="38.39325466661223" lon="16.300232114323382"><ele>882.3999999999999</ele><time>2026-03-22T09:13:40Z</time></trkpt><trkpt lat="38.39336207456296" lon="16.300234746412468"><ele>884.1999999999999</ele><time>2026-03-22T09:13:41Z</time></trkpt><trkpt lat="38.39348176701148" lon="16.300249845176026"><ele>886.0</ele><time>2026-03-22T09:13:42Z</time></trkpt><trkpt lat="38.39359644028941" lon="16.300261460702842"><ele>886.0</ele><time>2026-03-22T09:13:43Z</time></trkpt><trkpt lat="38.393717344715824" lon="16.300268766360347"><ele>885.9999999999999</ele><time>2026-03-22T09:13:44Z</time></trkpt><trkpt lat="38.39381019039213" lon="16.300293471378588"><ele>885.9999999999999</ele><time>2026-03-22T09:13:45Z</time></trkpt><trkpt lat="38.39391102595595" lon="16.300324487764133"><ele>886.0</ele><time>2026-03-22T09:13:46Z</time></trkpt><trkpt lat="38.39401032451249" lon="16.300344012131195"><ele>886.0</ele><time>2026-03-22T09:13:47Z</time></trkpt><trkpt lat="38.394096273707724" lon="16.300370634869772"><ele>887.0</ele><time>2026-03-22T09:13:48Z</time></trkpt><trkpt lat="38.394170898675476" lon="16.300382561575393"><ele>887.9999999999999</ele><time>2026-03-22T09:13:49Z</time></trkpt><trkpt lat="38.394264243258554" lon="16.300350992475227"><ele>888.9999999999999</ele><time>2026-03-22T09:13:51Z</time></trkpt><trkpt lat="38.39434659481261" lon="16.300332360645694"><ele>890.0</ele><time>2026-03-22T09:13:53Z</time></trkpt><trkpt lat="38.394449631158544" lon="16.300295002418316"><ele>891.0</ele><time>2026-03-22T09:13:55Z</time></trkpt><trkpt lat="38.39456492348703" lon="16.300233724582508"><ele>893.8</ele><time>2026-03-22T09:13:57Z</time></trkpt><trkpt lat="38.39467394621436" lon="16.300213286856636"><ele>896.5999999999999</ele><time>2026-03-22T09:13:59Z</time></trkpt><trkpt lat="38.39476453492158" lon="16.300238328165108"><ele>899.4</ele><time>2026-03-22T09:14:01Z</time></trkpt><trkpt lat="38.39478269358203" lon="16.30033501582128"><ele>902.2</ele><time>2026-03-22T09:14:03Z</time></trkpt><trkpt lat="38.39482938868722" lon="16.300457599476445"><ele>905.0</ele><time>2026-03-22T09:14:05Z</time></trkpt><trkpt lat="38.39486556153147" lon="16.300523922824052"><ele>906.1666666666667</ele><time>2026-03-22T09:14:06Z</time></trkpt><trkpt lat="38.394927396226414" lon="16.300672835999396"><ele>907.3333333333334</ele><time>2026-03-22T09:14:08Z</time></trkpt><trkpt lat="38.39495769721917" lon="16.30075305406291"><ele>908.5</ele><time>2026-03-22T09:14:09Z</time></trkpt><trkpt lat="38.39499903393094" lon="16.300827669915464"><ele>909.6666666666667</ele><time>2026-03-22T09:14:10Z</time></trkpt><trkpt lat="38.39506021344821" lon="16.30087687389762"><ele>910.8333333333334</ele><time>2026-03-22T09:14:11Z</time></trkpt><trkpt lat="38.39512151511724" lon="16.300938091391846"><ele>912.0</ele><time>2026-03-22T09:14:12Z</time></trkpt><trkpt lat="38.395165898118556" lon="16.30100074485984"><ele>912.0</ele><time>2026-03-22T09:14:13Z</time></trkpt><trkpt lat="38.39521780073276" lon="16.301069791338374"><ele>912.0</ele><time>2026-03-22T09:14:14Z</time></trkpt><trkpt lat="38.395251013918724" lon="16.30116513303321"><ele>912.0</ele><time>2026-03-22T09:14:15Z</time></trkpt><trkpt lat="38.39528785190586" lon="16.301245102532466"><ele>912.0</ele><time>2026-03-22T09:14:16Z</time></trkpt><trkpt lat="38.39531959325118" lon="16.301322633753042"><ele>912.0</ele><time>2026-03-22T09:14:17Z</time></trkpt><trkpt lat="38.39535452846187" lon="16.301406775762512"><ele>912.0</ele><time>2026-03-22T09:14:18Z</time></trkpt><trkpt lat="38.39537655151704" lon="16.301500797159015"><ele>910.6</ele><time>2026-03-22T09:14:19Z</time></trkpt><trkpt lat="38.39542326860144" lon="16.30161478859536"><ele>909.2</ele><time>2026-03-22T09:14:20Z</time></trkpt><trkpt lat="38.39548252542763" lon="16.301664722537748"><ele>907.8</ele><time>2026-03-22T09:14:23Z</time></trkpt><trkpt lat="38.39556971483394" lon="16.301615164191958"><ele>906.4</ele><time>2026-03-22T09:14:25Z</time></trkpt><trkpt lat="38.39555069419232" lon="16.30149673439705"><ele>905.0</ele><time>2026-03-22T09:14:27Z</time></trkpt><trkpt lat="38.39552263852569" lon="16.301360649671626"><ele>906.1666666666667</ele><time>2026-03-22T09:14:29Z</time></trkpt><trkpt lat="38.39550112961623" lon="16.30122802474035"><ele>907.3333333333334</ele><time>2026-03-22T09:14:31Z</time></trkpt><trkpt lat="38.3955188591089" lon="16.301149639395916"><ele>908.5</ele><time>2026-03-22T09:14:32Z</time></trkpt><trkpt lat="38.39555408032678" lon="16.301059787756163"><ele>909.6666666666667</ele><time>2026-03-22T09:14:33Z</time></trkpt><trkpt lat="38.395599890183696" lon="16.300964379327354"><ele>910.8333333333334</ele><time>2026-03-22T09:14:34Z</time></trkpt><trkpt lat="38.39565272563502" lon="16.30088022132599"><ele>912.0</ele><time>2026-03-22T09:14:35Z</time></trkpt><trkpt lat="38.39569183811893" lon="16.300811445640473"><ele>913.2</ele><time>2026-03-22T09:14:36Z</time></trkpt><trkpt lat="38.395717114566146" lon="16.300661728310086"><ele>914.4000000000001</ele><time>2026-03-22T09:14:38Z</time></trkpt><trkpt lat="38.39572423757328" lon="16.3005668089985"><ele>915.5999999999999</ele><time>2026-03-22T09:14:39Z</time></trkpt><trkpt lat="38.39575340843698" lon="16.30046490703035"><ele>916.8</ele><time>2026-03-22T09:14:40Z</time></trkpt><trkpt lat="38.395800108417774" lon="16.30039704759915"><ele>918.0</ele><time>2026-03-22T09:14:44Z</time></trkpt><trkpt lat="38.39581874091566" lon="16.300530900641697"><ele>920.4285714285714</ele><time>2026-03-22T09:14:48Z</time></trkpt><trkpt lat="38.395823391506575" lon="16.300619869119497"><ele>922.8571428571429</ele><time>2026-03-22T09:14:49Z</time></trkpt><trkpt lat="38.39582824138556" lon="16.30071224635853"><ele>925.2857142857143</ele><time>2026-03-22T09:14:50Z</time></trkpt><trkpt lat="38.395832655631025" lon="16.300796325862358"><ele>927.7142857142858</ele><time>2026-03-22T09:14:51Z</time></trkpt><trkpt lat="38.395838119200405" lon="16.3009003921262"><ele>930.1428571428571</ele><time>2026-03-22T09:14:52Z</time></trkpt><trkpt lat="38.39584140931458" lon="16.300990651585856"><ele>932.5714285714287</ele><time>2026-03-22T09:14:53Z</time></trkpt><trkpt lat="38.3958430363936" lon="16.301084991456374"><ele>935.0000000000001</ele><time>2026-03-22T09:14:54Z</time></trkpt><trkpt lat="38.39584275690242" lon="16.301181815821085"><ele>935.0000000000001</ele><time>2026-03-22T09:14:55Z</time></trkpt><trkpt lat="38.39583846293089" lon="16.301265723151808"><ele>935.0</ele><time>2026-03-22T09:14:56Z</time></trkpt><trkpt lat="38.395835294862934" lon="16.301396683452626"><ele>935.0</ele><time>2026-03-22T09:14:58Z</time></trkpt><trkpt lat="38.39591529793767" lon="16.3015205033615"><ele>935.0</ele><time>2026-03-22T09:15:00Z</time></trkpt><trkpt lat="38.395978733759705" lon="16.301527759405595"><ele>935.0000000000001</ele><time>2026-03-22T09:15:01Z</time></trkpt><trkpt lat="38.39603916945022" lon="16.301555374120813"><ele>935.0</ele><time>2026-03-22T09:15:02Z</time></trkpt><trkpt lat="38.39610565702284" lon="16.301543590098987"><ele>933.8333333333334</ele><time>2026-03-22T09:15:03Z</time></trkpt><trkpt lat="38.396182608408495" lon="16.301536461504877"><ele>932.6666666666667</ele><time>2026-03-22T09:15:04Z</time></trkpt><trkpt lat="38.396254931121454" lon="16.301548387059448"><ele>931.5</ele><time>2026-03-22T09:15:05Z</time></trkpt><trkpt lat="38.396317153373495" lon="16.301567036100852"><ele>930.3333333333333</ele><time>2026-03-22T09:15:06Z</time></trkpt><trkpt lat="38.39638857257574" lon="16.301572067961043"><ele>929.1666666666666</ele><time>2026-03-22T09:15:07Z</time></trkpt><trkpt lat="38.39650740372868" lon="16.301539477662075"><ele>928.0</ele><time>2026-03-22T09:15:09Z</time></trkpt><trkpt lat="38.396568529925965" lon="16.301519410278093"><ele>930.3333333333333</ele><time>2026-03-22T09:15:10Z</time></trkpt><trkpt lat="38.3966443598929" lon="16.301498551589855"><ele>932.6666666666666</ele><time>2026-03-22T09:15:11Z</time></trkpt><trkpt lat="38.39671044409359" lon="16.30147865328577"><ele>935.0</ele><time>2026-03-22T09:15:12Z</time></trkpt><trkpt lat="38.39677341698685" lon="16.301436812004575"><ele>937.3333333333333</ele><time>2026-03-22T09:15:13Z</time></trkpt><trkpt lat="38.39684358319818" lon="16.301392401245476"><ele>939.6666666666666</ele><time>2026-03-22T09:15:14Z</time></trkpt><trkpt lat="38.39693774031502" lon="16.30131788921793"><ele>942.0</ele><time>2026-03-22T09:15:16Z</time></trkpt><trkpt lat="38.39703848402722" lon="16.301203799314568"><ele>944.1666666666666</ele><time>2026-03-22T09:15:18Z</time></trkpt><trkpt lat="38.39712700533512" lon="16.30113911680636"><ele>946.3333333333333</ele><time>2026-03-22T09:15:19Z</time></trkpt><trkpt lat="38.39719614016281" lon="16.301079908173058"><ele>948.5</ele><time>2026-03-22T09:15:20Z</time></trkpt><trkpt lat="38.39725565378086" lon="16.301018039877547"><ele>950.6666666666666</ele><time>2026-03-22T09:15:21Z</time></trkpt><trkpt lat="38.397311825647066" lon="16.300944074456787"><ele>952.8333333333333</ele><time>2026-03-22T09:15:22Z</time></trkpt><trkpt lat="38.39738274807143" lon="16.300910648689364"><ele>955.0</ele><time>2026-03-22T09:15:23Z</time></trkpt><trkpt lat="38.397449079437024" lon="16.300842269903793"><ele>956.4999999999999</ele><time>2026-03-22T09:15:24Z</time></trkpt><trkpt lat="38.39751112439441" lon="16.30079192368747"><ele>958.0</ele><time>2026-03-22T09:15:25Z</time></trkpt><trkpt lat="38.39759788160663" lon="16.300700289512555"><ele>959.5</ele><time>2026-03-22T09:15:27Z</time></trkpt><trkpt lat="38.397659308925114" lon="16.300655586850386"><ele>961.0</ele><time>2026-03-22T09:15:28Z</time></trkpt><trkpt lat="38.39773778446612" lon="16.30062194256833"><ele>962.4999999999999</ele><time>2026-03-22T09:15:29Z</time></trkpt><trkpt lat="38.397831428906684" lon="16.3005969528689"><ele>964.0</ele><time>2026-03-22T09:15:30Z</time></trkpt><trkpt lat="38.39792475584918" lon="16.300578099353494"><ele>962.2</ele><time>2026-03-22T09:15:31Z</time></trkpt><trkpt lat="38.398027723598126" lon="16.300548674576074"><ele>960.4000000000001</ele><time>2026-03-22T09:15:32Z</time></trkpt><trkpt lat="38.3981259698805" lon="16.30051960625525"><ele>958.6</ele><time>2026-03-22T09:15:33Z</time></trkpt><trkpt lat="38.39821827182098" lon="16.30049848775626"><ele>956.8</ele><time>2026-03-22T09:15:34Z</time></trkpt><trkpt lat="38.398297176070415" lon="16.300486154460145"><ele>955.0</ele><time>2026-03-22T09:15:35Z</time></trkpt><trkpt lat="38.39836917126659" lon="16.30045977505432"><ele>954.9999999999999</ele><time>2026-03-22T09:15:36Z</time></trkpt><trkpt lat="38.398458449186776" lon="16.300420966965227"><ele>955.0</ele><time>2026-03-22T09:15:37Z</time></trkpt><trkpt lat="38.39853332030495" lon="16.300362792797515"><ele>955.0</ele><time>2026-03-22T09:15:38Z</time></trkpt><trkpt lat="38.39859604224859" lon="16.300315459693827"><ele>955.0</ele><time>2026-03-22T09:15:39Z</time></trkpt><trkpt lat="38.39866830407221" lon="16.300275122872385"><ele>954.9999999999999</ele><time>2026-03-22T09:15:40Z</time></trkpt><trkpt lat="38.39873351395888" lon="16.300222293786902"><ele>955.0</ele><time>2026-03-22T09:15:41Z</time></trkpt><trkpt lat="38.398789610363366" lon="16.300162802662296"><ele>958.6</ele><time>2026-03-22T09:15:42Z</time></trkpt><trkpt lat="38.39885887039537" lon="16.300117875790985"><ele>962.2</ele><time>2026-03-22T09:15:43Z</time></trkpt><trkpt lat="38.39897960218827" lon="16.30010707940063"><ele>965.8</ele><time>2026-03-22T09:15:45Z</time></trkpt><trkpt lat="38.39910155444604" lon="16.30011915353484"><ele>969.4</ele><time>2026-03-22T09:15:47Z</time></trkpt><trkpt lat="38.399179634861184" lon="16.300131632428563"><ele>973.0</ele><time>2026-03-22T09:15:48Z</time></trkpt><trkpt lat="38.399267491946766" lon="16.300126964022116"><ele>972.9999999999999</ele><time>2026-03-22T09:15:49Z</time></trkpt><trkpt lat="38.39933459028276" lon="16.300147917673154"><ele>973.0</ele><time>2026-03-22T09:15:50Z</time></trkpt><trkpt lat="38.39940673975358" lon="16.300152602219327"><ele>973.0</ele><time>2026-03-22T09:15:51Z</time></trkpt><trkpt lat="38.39948078311046" lon="16.30014082598856"><ele>973.0</ele><time>2026-03-22T09:15:52Z</time></trkpt><trkpt lat="38.39956155454822" lon="16.300118023698833"><ele>972.9999999999999</ele><time>2026-03-22T09:15:53Z</time></trkpt><trkpt lat="38.399632388201965" lon="16.300093041038863"><ele>973.0</ele><time>2026-03-22T09:15:54Z</time></trkpt><trkpt lat="38.39974944695941" lon="16.300058891831945"><ele>974.9999999999999</ele><time>2026-03-22T09:15:56Z</time></trkpt><trkpt lat="38.39981388913537" lon="16.30005496733591"><ele>977.0</ele><time>2026-03-22T09:15:57Z</time></trkpt><trkpt lat="38.3998806671026" lon="16.300054830069357"><ele>979.0</ele><time>2026-03-22T09:15:58Z</time></trkpt><trkpt lat="38.399993829392216" lon="16.300083744630108"><ele>981.0</ele><time>2026-03-22T09:16:00Z</time></trkpt><trkpt lat="38.40006917028173" lon="16.30008842653298"><ele>982.9999999999999</ele><time>2026-03-22T09:16:02Z</time></trkpt><trkpt lat="38.40014289390742" lon="16.30017412016487"><ele>985.0</ele><time>2026-03-22T09:16:04Z</time></trkpt><trkpt lat="38.400188989878245" lon="16.300238621216664"><ele>984.9999999999999</ele><time>2026-03-22T09:16:05Z</time></trkpt><trkpt lat="38.4002374340895" lon="16.30030959642392"><ele>985.0</ele><time>2026-03-22T09:16:06Z</time></trkpt><trkpt lat="38.40028389867521" lon="16.30039087611047"><ele>985.0</ele><time>2026-03-22T09:16:07Z</time></trkpt><trkpt lat="38.400317745626545" lon="16.30048561359097"><ele>985.0</ele><time>2026-03-22T09:16:08Z</time></trkpt><trkpt lat="38.40034637686601" lon="16.300592165914598"><ele>984.9999999999999</ele><time>2026-03-22T09:16:09Z</time></trkpt><trkpt lat="38.40038878361275" lon="16.300679743686697"><ele>985.0</ele><time>2026-03-22T09:16:10Z</time></trkpt><trkpt lat="38.40046703845204" lon="16.300772574436895"><ele>985.8333333333333</ele><time>2026-03-22T09:16:12Z</time></trkpt><trkpt lat="38.400555587537426" lon="16.300846014195375"><ele>986.6666666666666</ele><time>2026-03-22T09:16:14Z</time></trkpt><trkpt lat="38.4005771629943" lon="16.300933815160374"><ele>987.5</ele><time>2026-03-22T09:16:15Z</time></trkpt><trkpt lat="38.400581978665954" lon="16.301016026392432"><ele>988.3333333333333</ele><time>2026-03-22T09:16:16Z</time></trkpt><trkpt lat="38.4006048087091" lon="16.301111768386686"><ele>989.1666666666666</ele><time>2026-03-22T09:16:17Z</time></trkpt><trkpt lat="38.40062002766306" lon="16.30122642284945"><ele>990.0</ele><time>2026-03-22T09:16:18Z</time></trkpt><trkpt lat="38.40061792745653" lon="16.3013466363264"><ele>992.0</ele><time>2026-03-22T09:16:19Z</time></trkpt><trkpt lat="38.40062048593284" lon="16.301454722803577"><ele>994.0</ele><time>2026-03-22T09:16:20Z</time></trkpt><trkpt lat="38.400629323771234" lon="16.30155006672046"><ele>996.0</ele><time>2026-03-22T09:16:21Z</time></trkpt><trkpt lat="38.400645295247685" lon="16.301635227511078"><ele>998.0</ele><time>2026-03-22T09:16:22Z</time></trkpt><trkpt lat="38.4006752292558" lon="16.301721624771535"><ele>1000.0</ele><time>2026-03-22T09:16:23Z</time></trkpt><trkpt lat="38.400708214775186" lon="16.301823659337305"><ele>1002.0</ele><time>2026-03-22T09:16:24Z</time></trkpt><trkpt lat="38.400755777754135" lon="16.301915867468402"><ele>1002.0</ele><time>2026-03-22T09:16:25Z</time></trkpt><trkpt lat="38.40076502355591" lon="16.302003003528775"><ele>1002.0</ele><time>2026-03-22T09:16:26Z</time></trkpt><trkpt lat="38.40083159262602" lon="16.30208351520594"><ele>1002.0</ele><time>2026-03-22T09:16:29Z</time></trkpt><trkpt lat="38.40092898992717" lon="16.302157941803948"><ele>1002.0</ele><time>2026-03-22T09:16:31Z</time></trkpt><trkpt lat="38.40104391881377" lon="16.30223447366245"><ele>1002.0</ele><time>2026-03-22T09:16:33Z</time></trkpt><trkpt lat="38.401121189416195" lon="16.302247536721126"><ele>1001.8333333333334</ele><time>2026-03-22T09:16:34Z</time></trkpt><trkpt lat="38.401188423075304" lon="16.302251472685086"><ele>1001.6666666666667</ele><time>2026-03-22T09:16:35Z</time></trkpt><trkpt lat="38.40125227060747" lon="16.302259517561914"><ele>1001.5</ele><time>2026-03-22T09:16:36Z</time></trkpt><trkpt lat="38.401344810880886" lon="16.302224325910874"><ele>1001.3333333333334</ele><time>2026-03-22T09:16:38Z</time></trkpt><trkpt lat="38.40144677915816" lon="16.30211457981102"><ele>1001.1666666666667</ele><time>2026-03-22T09:16:40Z</time></trkpt><trkpt lat="38.40150650722702" lon="16.302066562466525"><ele>1001.0</ele><time>2026-03-22T09:16:41Z</time></trkpt><trkpt lat="38.40158103454364" lon="16.301999831356213"><ele>1001.0</ele><time>2026-03-22T09:16:42Z</time></trkpt><trkpt lat="38.401700740806355" lon="16.301941211358013"><ele>1000.9999999999999</ele><time>2026-03-22T09:16:44Z</time></trkpt><trkpt lat="38.4018108896069" lon="16.30192532638837"><ele>1000.9999999999999</ele><time>2026-03-22T09:16:46Z</time></trkpt><trkpt lat="38.4019132040074" lon="16.30193476572227"><ele>1001.0</ele><time>2026-03-22T09:16:48Z</time></trkpt><trkpt lat="38.40200255676849" lon="16.30196988172159"><ele>1001.0</ele><time>2026-03-22T09:17:16Z</time></trkpt><trkpt lat="38.40209101316326" lon="16.302030214310065"><ele>1003.6666666666667</ele><time>2026-03-22T09:17:18Z</time></trkpt><trkpt lat="38.402174010645844" lon="16.302078034474295"><ele>1006.3333333333334</ele><time>2026-03-22T09:17:20Z</time></trkpt><trkpt lat="38.40224662935683" lon="16.302152193182415"><ele>1009.0</ele><time>2026-03-22T09:17:23Z</time></trkpt><trkpt lat="38.40232986164026" lon="16.30222106560227"><ele>1011.6666666666667</ele><time>2026-03-22T09:17:25Z</time></trkpt><trkpt lat="38.402397953569164" lon="16.302273226359926"><ele>1014.3333333333334</ele><time>2026-03-22T09:17:26Z</time></trkpt><trkpt lat="38.40243313053563" lon="16.30235000477998"><ele>1017.0</ele><time>2026-03-22T09:17:27Z</time></trkpt><trkpt lat="38.40252076670097" lon="16.30234749501903"><ele>1017.8333333333334</ele><time>2026-03-22T09:17:29Z</time></trkpt><trkpt lat="38.40261214905247" lon="16.302382683048194"><ele>1018.6666666666667</ele><time>2026-03-22T09:17:32Z</time></trkpt><trkpt lat="38.40264398169661" lon="16.302453350784507"><ele>1019.5</ele><time>2026-03-22T09:17:39Z</time></trkpt><trkpt lat="38.402703947707266" lon="16.30242879850224"><ele>1020.3333333333334</ele><time>2026-03-22T09:17:46Z</time></trkpt><trkpt lat="38.402774233762344" lon="16.30243824695173"><ele>1021.1666666666667</ele><time>2026-03-22T09:17:48Z</time></trkpt><trkpt lat="38.40287338610694" lon="16.30242301984785"><ele>1022.0</ele><time>2026-03-22T09:17:50Z</time></trkpt><trkpt lat="38.40298279499276" lon="16.302418150761348"><ele>1022.8</ele><time>2026-03-22T09:17:52Z</time></trkpt><trkpt lat="38.4030847780243" lon="16.302429943123634"><ele>1023.6</ele><time>2026-03-22T09:17:54Z</time></trkpt><trkpt lat="38.403166162390974" lon="16.30244156800608"><ele>1024.3999999999999</ele><time>2026-03-22T09:17:56Z</time></trkpt><trkpt lat="38.4032673482978" lon="16.30241744324142"><ele>1025.2</ele><time>2026-03-22T09:17:58Z</time></trkpt><trkpt lat="38.40339495191649" lon="16.302397666106454"><ele>1026.0</ele><time>2026-03-22T09:18:00Z</time></trkpt><trkpt lat="38.40344847798826" lon="16.302296197930605"><ele>1026.0</ele><time>2026-03-22T09:18:01Z</time></trkpt><trkpt lat="38.40354649685736" lon="16.302291437577864"><ele>1026.0</ele><time>2026-03-22T09:18:03Z</time></trkpt><trkpt lat="38.403612385819166" lon="16.302281460656427"><ele>1026.0</ele><time>2026-03-22T09:18:06Z</time></trkpt><trkpt lat="38.40354723792585" lon="16.302312117094285"><ele>1026.0</ele><time>2026-03-22T09:18:16Z</time></trkpt><trkpt lat="38.40347094392667" lon="16.302340502518884"><ele>1026.0</ele><time>2026-03-22T09:18:19Z</time></trkpt><trkpt lat="38.40340315077533" lon="16.302361473491136"><ele>1026.0</ele><time>2026-03-22T09:18:22Z</time></trkpt><trkpt lat="38.40332470463123" lon="16.30238324644357"><ele>1026.0</ele><time>2026-03-22T09:18:26Z</time></trkpt><trkpt lat="38.40327125375989" lon="16.30284003330643"><ele>1026.0</ele><time>2026-03-22T09:20:04Z</time></trkpt><trkpt lat="38.40329344388962" lon="16.302751204022837"><ele>1026.0</ele><time>2026-03-22T09:20:12Z</time></trkpt><trkpt lat="38.40337269520034" lon="16.30265582538396"><ele>1026.0</ele><time>2026-03-22T09:20:55Z</time></trkpt><trkpt lat="38.40337567966774" lon="16.302793203355673"><ele>1026.0</ele><time>2026-03-22T09:21:35.999Z</time></trkpt><trkpt lat="38.40334420188992" lon="16.30264703930584"><ele>1026.0</ele><time>2026-03-22T09:23:00Z</time></trkpt><trkpt lat="38.40334939183721" lon="16.302732085809282"><ele>1026.0</ele><time>2026-03-22T09:23:38Z</time></trkpt><trkpt lat="38.40342976355601" lon="16.302694820548933"><ele>1026.0</ele><time>2026-03-22T09:23:44Z</time></trkpt><trkpt lat="38.40350654477132" lon="16.302637311028253"><ele>1026.0</ele><time>2026-03-22T09:23:46Z</time></trkpt><trkpt lat="38.40359152734176" lon="16.302565465394704"><ele>1026.0</ele><time>2026-03-22T09:23:48Z</time></trkpt><trkpt lat="38.40367957360034" lon="16.302495157002994"><ele>1026.0</ele><time>2026-03-22T09:23:50Z</time></trkpt><trkpt lat="38.40371379868947" lon="16.302417365309605"><ele>1026.0</ele><time>2026-03-22T09:23:52Z</time></trkpt><trkpt lat="38.40370882251355" lon="16.30228903311826"><ele>1026.0</ele><time>2026-03-22T09:23:54Z</time></trkpt><trkpt lat="38.40374527733092" lon="16.30216237011936"><ele>1025.5</ele><time>2026-03-22T09:23:56Z</time></trkpt><trkpt lat="38.40378174069105" lon="16.30201606564936"><ele>1025.0</ele><time>2026-03-22T09:23:58Z</time></trkpt><trkpt lat="38.40386077391243" lon="16.301901568334376"><ele>1024.5</ele><time>2026-03-22T09:24:00Z</time></trkpt><trkpt lat="38.403911622498796" lon="16.301841815754187"><ele>1024.0</ele><time>2026-03-22T09:24:01Z</time></trkpt><trkpt lat="38.40396102389491" lon="16.30178647528455"><ele>1023.5</ele><time>2026-03-22T09:24:02Z</time></trkpt><trkpt lat="38.40401197515803" lon="16.30173507357213"><ele>1023.0</ele><time>2026-03-22T09:24:03Z</time></trkpt><trkpt lat="38.40408780700792" lon="16.301642564072036"><ele>1024.4</ele><time>2026-03-22T09:24:05Z</time></trkpt><trkpt lat="38.404174002875486" lon="16.301552235076574"><ele>1025.8</ele><time>2026-03-22T09:24:07Z</time></trkpt><trkpt lat="38.40425555860952" lon="16.30147160779086"><ele>1027.2</ele><time>2026-03-22T09:24:09Z</time></trkpt><trkpt lat="38.40435251176744" lon="16.301396082519016"><ele>1028.6</ele><time>2026-03-22T09:24:11Z</time></trkpt><trkpt lat="38.40440912436107" lon="16.301341693917102"><ele>1030.0</ele><time>2026-03-22T09:24:12Z</time></trkpt><trkpt lat="38.40446871901963" lon="16.30126914879179"><ele>1030.0</ele><time>2026-03-22T09:24:13Z</time></trkpt><trkpt lat="38.40453830692084" lon="16.301201887534503"><ele>1030.0</ele><time>2026-03-22T09:24:14Z</time></trkpt><trkpt lat="38.40459746551723" lon="16.30114966739177"><ele>1030.0</ele><time>2026-03-22T09:24:15Z</time></trkpt><trkpt lat="38.404691319621" lon="16.301062989279878"><ele>1030.0</ele><time>2026-03-22T09:24:17Z</time></trkpt><trkpt lat="38.40481745037633" lon="16.300977650350138"><ele>1030.0</ele><time>2026-03-22T09:24:19Z</time></trkpt><trkpt lat="38.40491621226765" lon="16.30097853323593"><ele>1030.3333333333333</ele><time>2026-03-22T09:24:20Z</time></trkpt><trkpt lat="38.40500244374717" lon="16.30096086784238"><ele>1030.6666666666665</ele><time>2026-03-22T09:24:21Z</time></trkpt><trkpt lat="38.40509358173563" lon="16.30093437553983"><ele>1031.0</ele><time>2026-03-22T09:24:22Z</time></trkpt><trkpt lat="38.405172805778854" lon="16.30092741657668"><ele>1031.3333333333333</ele><time>2026-03-22T09:24:23Z</time></trkpt><trkpt lat="38.40525191506507" lon="16.300937056459038"><ele>1031.6666666666667</ele><time>2026-03-22T09:24:24Z</time></trkpt><trkpt lat="38.40531750984545" lon="16.300931094998965"><ele>1032.0</ele><time>2026-03-22T09:24:25Z</time></trkpt><trkpt lat="38.40537984703484" lon="16.30091015517035"><ele>1032.0</ele><time>2026-03-22T09:24:26Z</time></trkpt><trkpt lat="38.40547982807878" lon="16.300906312501112"><ele>1032.0</ele><time>2026-03-22T09:24:27Z</time></trkpt><trkpt lat="38.40557327789414" lon="16.300892540082188"><ele>1032.0</ele><time>2026-03-22T09:24:28Z</time></trkpt><trkpt lat="38.40567617827282" lon="16.30088359066459"><ele>1032.0</ele><time>2026-03-22T09:24:29Z</time></trkpt><trkpt lat="38.40578255689009" lon="16.300869400644228"><ele>1032.0</ele><time>2026-03-22T09:24:30Z</time></trkpt><trkpt lat="38.40589763214922" lon="16.30084844446407"><ele>1032.8</ele><time>2026-03-22T09:24:31Z</time></trkpt><trkpt lat="38.40598794712865" lon="16.300834027864415"><ele>1033.6</ele><time>2026-03-22T09:24:32Z</time></trkpt><trkpt lat="38.40608378129709" lon="16.300852376124535"><ele>1034.3999999999999</ele><time>2026-03-22T09:24:33Z</time></trkpt><trkpt lat="38.4061703506588" lon="16.3008546273365"><ele>1035.2</ele><time>2026-03-22T09:24:34Z</time></trkpt><trkpt lat="38.4062346540853" lon="16.30086106704077"><ele>1036.0</ele><time>2026-03-22T09:24:35Z</time></trkpt><trkpt lat="38.40635545499712" lon="16.300891934858985"><ele>1037.1666666666665</ele><time>2026-03-22T09:24:37Z</time></trkpt><trkpt lat="38.40642384616452" lon="16.30092101282325"><ele>1038.3333333333333</ele><time>2026-03-22T09:24:38Z</time></trkpt><trkpt lat="38.406484232507786" lon="16.30095188033383"><ele>1039.5</ele><time>2026-03-22T09:24:43Z</time></trkpt><trkpt lat="38.40656357251589" lon="16.30097631485781"><ele>1040.6666666666667</ele><time>2026-03-22T09:24:45Z</time></trkpt><trkpt lat="38.40665391092224" lon="16.301042585088513"><ele>1041.8333333333335</ele><time>2026-03-22T09:24:47Z</time></trkpt><trkpt lat="38.40674878126088" lon="16.301117544448175"><ele>1043.0</ele><time>2026-03-22T09:24:49Z</time></trkpt><trkpt lat="38.40686399400049" lon="16.30119394743533"><ele>1043.0</ele><time>2026-03-22T09:24:51Z</time></trkpt><trkpt lat="38.40692798087489" lon="16.30121769225565"><ele>1043.0</ele><time>2026-03-22T09:24:52Z</time></trkpt><trkpt lat="38.40699428106382" lon="16.301270024686843"><ele>1043.0</ele><time>2026-03-22T09:24:53Z</time></trkpt><trkpt lat="38.40707427674314" lon="16.301321177854152"><ele>1043.0</ele><time>2026-03-22T09:24:54Z</time></trkpt><trkpt lat="38.40713493681928" lon="16.301357380597562"><ele>1043.0</ele><time>2026-03-22T09:24:55Z</time></trkpt><trkpt lat="38.40723803210327" lon="16.301389153515334"><ele>1043.0</ele><time>2026-03-22T09:24:57Z</time></trkpt><trkpt lat="38.40726069036312" lon="16.301311401647368"><ele>1044.8</ele><time>2026-03-22T09:24:59Z</time></trkpt><trkpt lat="38.40723094721634" lon="16.301235114833222"><ele>1046.6</ele><time>2026-03-22T09:25:01.001Z</time></trkpt><trkpt lat="38.407213501660976" lon="16.301086219121625"><ele>1048.4</ele><time>2026-03-22T09:25:03.001Z</time></trkpt><trkpt lat="38.407188973939945" lon="16.300985329924504"><ele>1050.2</ele><time>2026-03-22T09:25:04.001Z</time></trkpt><trkpt lat="38.4071693741348" lon="16.300875711772218"><ele>1052.0</ele><time>2026-03-22T09:25:05.001Z</time></trkpt><trkpt lat="38.40718541818512" lon="16.300700722707198"><ele>1052.0</ele><time>2026-03-22T09:25:07.001Z</time></trkpt><trkpt lat="38.40721806385991" lon="16.30060411740653"><ele>1052.0</ele><time>2026-03-22T09:25:08.001Z</time></trkpt><trkpt lat="38.40725898996689" lon="16.30048080931865"><ele>1052.0</ele><time>2026-03-22T09:25:10.001Z</time></trkpt><trkpt lat="38.407269580248126" lon="16.300315200899494"><ele>1052.0</ele><time>2026-03-22T09:25:12.001Z</time></trkpt><trkpt lat="38.407190014281234" lon="16.300206044061817"><ele>1052.0</ele><time>2026-03-22T09:25:14.001Z</time></trkpt><trkpt lat="38.40712174577224" lon="16.300144720362717"><ele>1051.6666666666667</ele><time>2026-03-22T09:25:15.001Z</time></trkpt><trkpt lat="38.407062781895085" lon="16.30009396134844"><ele>1051.3333333333335</ele><time>2026-03-22T09:25:16.001Z</time></trkpt><trkpt lat="38.40699967250022" lon="16.30003963351307"><ele>1051.0</ele><time>2026-03-22T09:25:17.001Z</time></trkpt><trkpt lat="38.406941091527024" lon="16.299983057508715"><ele>1050.6666666666667</ele><time>2026-03-22T09:25:18.001Z</time></trkpt><trkpt lat="38.406892234418805" lon="16.299917240620882"><ele>1050.3333333333333</ele><time>2026-03-22T09:25:19.001Z</time></trkpt><trkpt lat="38.4068266383541" lon="16.29978487042437"><ele>1050.0</ele><time>2026-03-22T09:25:21.001Z</time></trkpt><trkpt lat="38.40685268303785" lon="16.299688818984773"><ele>1049.8</ele><time>2026-03-22T09:25:22.001Z</time></trkpt><trkpt lat="38.406870942894" lon="16.299585939142034"><ele>1049.6</ele><time>2026-03-22T09:25:23.001Z</time></trkpt><trkpt lat="38.406937509222935" lon="16.299459856525598"><ele>1049.4</ele><time>2026-03-22T09:25:24.001Z</time></trkpt><trkpt lat="38.40699731986932" lon="16.299331024876135"><ele>1049.2</ele><time>2026-03-22T09:25:25.001Z</time></trkpt><trkpt lat="38.40704068165282" lon="16.29920477082153"><ele>1049.0</ele><time>2026-03-22T09:25:26.001Z</time></trkpt><trkpt lat="38.407096795965174" lon="16.299079587489505"><ele>1049.0</ele><time>2026-03-22T09:25:27.001Z</time></trkpt><trkpt lat="38.40715502334415" lon="16.29896236549667"><ele>1049.0</ele><time>2026-03-22T09:25:28.001Z</time></trkpt><trkpt lat="38.40720572876772" lon="16.298871835386688"><ele>1049.0</ele><time>2026-03-22T09:25:29.001Z</time></trkpt><trkpt lat="38.40727280801484" lon="16.298782397364768"><ele>1049.0</ele><time>2026-03-22T09:25:31.001Z</time></trkpt><trkpt lat="38.40733867747623" lon="16.298716173662037"><ele>1049.0</ele><time>2026-03-22T09:25:33.001Z</time></trkpt><trkpt lat="38.40740071005896" lon="16.29865909591403"><ele>1050.0</ele><time>2026-03-22T09:25:36Z</time></trkpt><trkpt lat="38.40746068985612" lon="16.298603906983743"><ele>1051.0</ele><time>2026-03-22T09:25:40Z</time></trkpt><trkpt lat="38.40752629666535" lon="16.298543540503164"><ele>1052.0</ele><time>2026-03-22T09:25:41Z</time></trkpt><trkpt lat="38.40770264932118" lon="16.29878527066343"><ele>1053.0</ele><time>2026-03-22T09:25:42Z</time></trkpt><trkpt lat="38.40781726017755" lon="16.298828855618574"><ele>1053.0</ele><time>2026-03-22T09:25:44Z</time></trkpt><trkpt lat="38.407948958642436" lon="16.298790765599758"><ele>1053.0</ele><time>2026-03-22T09:25:46Z</time></trkpt><trkpt lat="38.40805274066396" lon="16.298743290820347"><ele>1053.0</ele><time>2026-03-22T09:25:48Z</time></trkpt><trkpt lat="38.40818689808486" lon="16.298696011636224"><ele>1053.0</ele><time>2026-03-22T09:25:50Z</time></trkpt><trkpt lat="38.40825219029004" lon="16.298701220637053"><ele>1054.8</ele><time>2026-03-22T09:25:51Z</time></trkpt><trkpt lat="38.40832178341358" lon="16.298629245621385"><ele>1056.6</ele><time>2026-03-22T09:25:52Z</time></trkpt><trkpt lat="38.408406612363535" lon="16.298564189043365"><ele>1058.4</ele><time>2026-03-22T09:25:53Z</time></trkpt><trkpt lat="38.40848721201005" lon="16.298495810531094"><ele>1060.2</ele><time>2026-03-22T09:25:54Z</time></trkpt><trkpt lat="38.40857789765305" lon="16.29842945461278"><ele>1062.0</ele><time>2026-03-22T09:25:55Z</time></trkpt><trkpt lat="38.40867383163765" lon="16.298367620959596"><ele>1062.0</ele><time>2026-03-22T09:25:56Z</time></trkpt><trkpt lat="38.40876245901514" lon="16.298306804040017"><ele>1062.0</ele><time>2026-03-22T09:25:57Z</time></trkpt><trkpt lat="38.408869715793315" lon="16.298260794553144"><ele>1062.0</ele><time>2026-03-22T09:25:58Z</time></trkpt><trkpt lat="38.408990195070274" lon="16.298233636721257"><ele>1062.0</ele><time>2026-03-22T09:25:59.001Z</time></trkpt><trkpt lat="38.40911460733074" lon="16.29820729018544"><ele>1065.0</ele><time>2026-03-22T09:26:00.001Z</time></trkpt><trkpt lat="38.40923076083246" lon="16.298162824162"><ele>1068.0</ele><time>2026-03-22T09:26:01.001Z</time></trkpt><trkpt lat="38.409343611911844" lon="16.298152612098423"><ele>1071.0</ele><time>2026-03-22T09:26:02.001Z</time></trkpt><trkpt lat="38.40946503583708" lon="16.298119820215675"><ele>1074.0</ele><time>2026-03-22T09:26:04.001Z</time></trkpt><trkpt lat="38.40956377972235" lon="16.298110108903263"><ele>1073.6666666666667</ele><time>2026-03-22T09:26:06.001Z</time></trkpt><trkpt lat="38.409651997948565" lon="16.2980453709837"><ele>1073.3333333333333</ele><time>2026-03-22T09:26:08.001Z</time></trkpt><trkpt lat="38.40969573957332" lon="16.2979401714166"><ele>1073.0</ele><time>2026-03-22T09:26:10.001Z</time></trkpt><trkpt lat="38.4097581999071" lon="16.297910310501184"><ele>1072.6666666666665</ele><time>2026-03-22T09:26:13.001Z</time></trkpt><trkpt lat="38.40982430495248" lon="16.29787294058932"><ele>1072.3333333333333</ele><time>2026-03-22T09:26:16.001Z</time></trkpt><trkpt lat="38.40990528065974" lon="16.297816440307038"><ele>1072.0</ele><time>2026-03-22T09:26:19.001Z</time></trkpt><trkpt lat="38.40998060705154" lon="16.297695616885125"><ele>1072.0</ele><time>2026-03-22T09:26:21.001Z</time></trkpt><trkpt lat="38.410016342382434" lon="16.297614432347135"><ele>1072.0</ele><time>2026-03-22T09:26:22.001Z</time></trkpt><trkpt lat="38.410045142425155" lon="16.297537491175998"><ele>1072.0</ele><time>2026-03-22T09:26:23.001Z</time></trkpt><trkpt lat="38.41007304676143" lon="16.297465447205862"><ele>1072.0</ele><time>2026-03-22T09:26:24.001Z</time></trkpt><trkpt lat="38.41014908013296" lon="16.297353367460552"><ele>1072.0</ele><time>2026-03-22T09:26:26.001Z</time></trkpt><trkpt lat="38.41021923251645" lon="16.297289562283375"><ele>1072.0</ele><time>2026-03-22T09:26:28.001Z</time></trkpt><trkpt lat="38.41027527614646" lon="16.297221458986762"><ele>1071.3333333333333</ele><time>2026-03-22T09:26:30.001Z</time></trkpt><trkpt lat="38.41037690602392" lon="16.297152061988065"><ele>1070.6666666666665</ele><time>2026-03-22T09:26:32.001Z</time></trkpt><trkpt lat="38.41044007674597" lon="16.297123661687777"><ele>1070.0</ele><time>2026-03-22T09:26:33.001Z</time></trkpt><trkpt lat="38.41052501557569" lon="16.297084577178005"><ele>1069.3333333333333</ele><time>2026-03-22T09:26:34.001Z</time></trkpt><trkpt lat="38.410603775320375" lon="16.297073966584023"><ele>1068.6666666666667</ele><time>2026-03-22T09:26:35.001Z</time></trkpt><trkpt lat="38.41067000565201" lon="16.297066067938452"><ele>1068.0</ele><time>2026-03-22T09:26:36.001Z</time></trkpt><trkpt lat="38.41074287429118" lon="16.297078567921364"><ele>1068.0</ele><time>2026-03-22T09:26:37.001Z</time></trkpt><trkpt lat="38.41082640126127" lon="16.29719518410414"><ele>1068.0</ele><time>2026-03-22T09:26:38.001Z</time></trkpt><trkpt lat="38.410916076810395" lon="16.297173979024155"><ele>1068.0</ele><time>2026-03-22T09:26:39.001Z</time></trkpt><trkpt lat="38.410987784605595" lon="16.297167992303045"><ele>1068.0</ele><time>2026-03-22T09:26:40.001Z</time></trkpt><trkpt lat="38.411038243389214" lon="16.297217770707825"><ele>1068.0</ele><time>2026-03-22T09:26:41.001Z</time></trkpt><trkpt lat="38.411105693868116" lon="16.29724755244784"><ele>1068.0</ele><time>2026-03-22T09:26:42.001Z</time></trkpt><trkpt lat="38.41118129986052" lon="16.29724816964496"><ele>1069.6666666666667</ele><time>2026-03-22T09:26:43.001Z</time></trkpt><trkpt lat="38.41125380650584" lon="16.29725980074219"><ele>1071.3333333333333</ele><time>2026-03-22T09:26:44.001Z</time></trkpt><trkpt lat="38.41132551579507" lon="16.297287152593988"><ele>1073.0</ele><time>2026-03-22T09:26:45.001Z</time></trkpt><trkpt lat="38.41140418245411" lon="16.297312347037867"><ele>1074.6666666666665</ele><time>2026-03-22T09:26:46.001Z</time></trkpt><trkpt lat="38.41148193631189" lon="16.297334036922"><ele>1076.3333333333333</ele><time>2026-03-22T09:26:47.001Z</time></trkpt><trkpt lat="38.41154853808399" lon="16.29737933532171"><ele>1078.0</ele><time>2026-03-22T09:26:48.001Z</time></trkpt><trkpt lat="38.41163011741533" lon="16.297389273881148"><ele>1078.1666666666665</ele><time>2026-03-22T09:26:49.001Z</time></trkpt><trkpt lat="38.411699034284645" lon="16.297410309394966"><ele>1078.3333333333333</ele><time>2026-03-22T09:26:50.001Z</time></trkpt><trkpt lat="38.41178191521264" lon="16.29741535903841"><ele>1078.5</ele><time>2026-03-22T09:26:51.001Z</time></trkpt><trkpt lat="38.411859541365885" lon="16.29743267024564"><ele>1078.6666666666667</ele><time>2026-03-22T09:26:52.001Z</time></trkpt><trkpt lat="38.41192325678246" lon="16.29743329648296"><ele>1078.8333333333335</ele><time>2026-03-22T09:26:53.001Z</time></trkpt><trkpt lat="38.412018590996304" lon="16.29743807673758"><ele>1079.0</ele><time>2026-03-22T09:26:55.001Z</time></trkpt><trkpt lat="38.41211085179361" lon="16.297447161853277"><ele>1079.0</ele><time>2026-03-22T09:26:57.001Z</time></trkpt><trkpt lat="38.41215342048396" lon="16.29737524133297"><ele>1079.0</ele><time>2026-03-22T09:26:58.001Z</time></trkpt><trkpt lat="38.41209691301349" lon="16.297289783678792"><ele>1079.0</ele><time>2026-03-22T09:27:00.001Z</time></trkpt><trkpt lat="38.41201924096133" lon="16.297182280467627"><ele>1079.0</ele><time>2026-03-22T09:27:02.001Z</time></trkpt><trkpt lat="38.41193247338854" lon="16.297072546332448"><ele>1079.0</ele><time>2026-03-22T09:27:04.001Z</time></trkpt><trkpt lat="38.411840643745144" lon="16.29694376346317"><ele>1078.8333333333335</ele><time>2026-03-22T09:27:06.001Z</time></trkpt><trkpt lat="38.411783328098345" lon="16.296877163350292"><ele>1078.6666666666667</ele><time>2026-03-22T09:27:07.001Z</time></trkpt><trkpt lat="38.41170536359388" lon="16.296819839633766"><ele>1078.5</ele><time>2026-03-22T09:27:08.001Z</time></trkpt><trkpt lat="38.41164898308624" lon="16.29675474201916"><ele>1078.3333333333333</ele><time>2026-03-22T09:27:09.001Z</time></trkpt><trkpt lat="38.41160710436124" lon="16.29669363939675"><ele>1078.1666666666665</ele><time>2026-03-22T09:27:10.001Z</time></trkpt><trkpt lat="38.41156527475021" lon="16.29662254459906"><ele>1078.0</ele><time>2026-03-22T09:27:11.001Z</time></trkpt><trkpt lat="38.411523830846306" lon="16.296532699739526"><ele>1078.0</ele><time>2026-03-22T09:27:12.001Z</time></trkpt><trkpt lat="38.4114882265526" lon="16.29646637284189"><ele>1078.0</ele><time>2026-03-22T09:27:13.001Z</time></trkpt><trkpt lat="38.41145414341151" lon="16.29637853549393"><ele>1078.0</ele><time>2026-03-22T09:27:14.001Z</time></trkpt><trkpt lat="38.41139466016026" lon="16.29627428404551"><ele>1078.0</ele><time>2026-03-22T09:27:15.001Z</time></trkpt><trkpt lat="38.411347383646536" lon="16.296193371241714"><ele>1078.0</ele><time>2026-03-22T09:27:16.001Z</time></trkpt><trkpt lat="38.41131315222071" lon="16.296119185083878"><ele>1078.0</ele><time>2026-03-22T09:27:17.001Z</time></trkpt><trkpt lat="38.41125846483856" lon="16.29604369175036"><ele>1075.0</ele><time>2026-03-22T09:27:18.001Z</time></trkpt><trkpt lat="38.4112458624376" lon="16.29595750669046"><ele>1072.0</ele><time>2026-03-22T09:27:20.001Z</time></trkpt><trkpt lat="38.41117360372747" lon="16.29582804579636"><ele>1069.0</ele><time>2026-03-22T09:27:22.001Z</time></trkpt><trkpt lat="38.41117655814562" lon="16.295696385391263"><ele>1066.0</ele><time>2026-03-22T09:27:24.001Z</time></trkpt><trkpt lat="38.41121642850371" lon="16.29559489190332"><ele>1063.0</ele><time>2026-03-22T09:27:26.001Z</time></trkpt><trkpt lat="38.41127995716032" lon="16.29547159894672"><ele>1065.1666666666665</ele><time>2026-03-22T09:27:28.001Z</time></trkpt><trkpt lat="38.41133695468368" lon="16.295412999852328"><ele>1067.3333333333333</ele><time>2026-03-22T09:27:29.001Z</time></trkpt><trkpt lat="38.41138648790184" lon="16.295333324022522"><ele>1069.5</ele><time>2026-03-22T09:27:30.001Z</time></trkpt><trkpt lat="38.41144597246289" lon="16.29525117159632"><ele>1071.6666666666667</ele><time>2026-03-22T09:27:31.001Z</time></trkpt><trkpt lat="38.41149737442475" lon="16.295169723743975"><ele>1073.8333333333335</ele><time>2026-03-22T09:27:32.001Z</time></trkpt><trkpt lat="38.411565849682916" lon="16.295106495718933"><ele>1076.0</ele><time>2026-03-22T09:27:33.001Z</time></trkpt><trkpt lat="38.41162433925752" lon="16.29504281245414"><ele>1076.0</ele><time>2026-03-22T09:27:34.001Z</time></trkpt><trkpt lat="38.411680097076726" lon="16.294970645719328"><ele>1076.0</ele><time>2026-03-22T09:27:35.001Z</time></trkpt><trkpt lat="38.41172629005627" lon="16.294912529188558"><ele>1076.0</ele><time>2026-03-22T09:27:36.001Z</time></trkpt><trkpt lat="38.41183463957415" lon="16.294867202087723"><ele>1076.0</ele><time>2026-03-22T09:27:38.001Z</time></trkpt><trkpt lat="38.41191743326477" lon="16.29489108885382"><ele>1076.0</ele><time>2026-03-22T09:27:39.001Z</time></trkpt><trkpt lat="38.4119786881547" lon="16.29497634823148"><ele>1076.0</ele><time>2026-03-22T09:27:41.001Z</time></trkpt><trkpt lat="38.412000211092376" lon="16.295089897847568"><ele>1076.0</ele><time>2026-03-22T09:27:43.001Z</time></trkpt><trkpt lat="38.411991052268625" lon="16.29526578159824"><ele>1076.0</ele><time>2026-03-22T09:27:45.001Z</time></trkpt><trkpt lat="38.4119686272057" lon="16.295377529056996"><ele>1076.0</ele><time>2026-03-22T09:27:46.001Z</time></trkpt><trkpt lat="38.411986045303" lon="16.29548894771242"><ele>1076.0</ele><time>2026-03-22T09:27:47.001Z</time></trkpt><trkpt lat="38.41197380245015" lon="16.29557400603191"><ele>1076.0</ele><time>2026-03-22T09:27:48.001Z</time></trkpt><trkpt lat="38.41199106663741" lon="16.2957138731471"><ele>1076.6</ele><time>2026-03-22T09:27:50.001Z</time></trkpt><trkpt lat="38.4120657333735" lon="16.295814699745478"><ele>1077.1999999999998</ele><time>2026-03-22T09:27:52.001Z</time></trkpt><trkpt lat="38.41214534429053" lon="16.29586973159481"><ele>1077.8000000000002</ele><time>2026-03-22T09:27:54.001Z</time></trkpt><trkpt lat="38.41224380473674" lon="16.295872467740363"><ele>1078.4</ele><time>2026-03-22T09:27:56.001Z</time></trkpt><trkpt lat="38.41234599097312" lon="16.295801144322112"><ele>1079.0</ele><time>2026-03-22T09:27:58.001Z</time></trkpt><trkpt lat="38.41240160144868" lon="16.295753692608844"><ele>1078.6666666666667</ele><time>2026-03-22T09:27:59Z</time></trkpt><trkpt lat="38.4124580776115" lon="16.295701444532888"><ele>1078.3333333333335</ele><time>2026-03-22T09:28:00Z</time></trkpt><trkpt lat="38.41252586035206" lon="16.29566577520101"><ele>1078.0</ele><time>2026-03-22T09:28:01Z</time></trkpt><trkpt lat="38.41260317948882" lon="16.295606584149716"><ele>1077.6666666666667</ele><time>2026-03-22T09:28:02.001Z</time></trkpt><trkpt lat="38.41268399975326" lon="16.29554874895879"><ele>1077.3333333333333</ele><time>2026-03-22T09:28:03Z</time></trkpt><trkpt lat="38.41276551874028" lon="16.29548652162384"><ele>1077.0</ele><time>2026-03-22T09:28:04.001Z</time></trkpt><trkpt lat="38.41284171268989" lon="16.295436345772483"><ele>1077.0</ele><time>2026-03-22T09:28:05.001Z</time></trkpt><trkpt lat="38.412966616859485" lon="16.295369494247986"><ele>1077.0</ele><time>2026-03-22T09:28:07.001Z</time></trkpt><trkpt lat="38.41305953482863" lon="16.2953604948805"><ele>1077.0</ele><time>2026-03-22T09:28:08.001Z</time></trkpt><trkpt lat="38.41314310246023" lon="16.295364460999405"><ele>1077.0</ele><time>2026-03-22T09:28:09.001Z</time></trkpt><trkpt lat="38.41322092467151" lon="16.29536983360302"><ele>1077.0</ele><time>2026-03-22T09:28:10.001Z</time></trkpt><trkpt lat="38.41329977774184" lon="16.295377766757934"><ele>1078.2</ele><time>2026-03-22T09:28:11.001Z</time></trkpt><trkpt lat="38.41340167005073" lon="16.295409055997006"><ele>1079.4</ele><time>2026-03-22T09:28:12.001Z</time></trkpt><trkpt lat="38.413485706862716" lon="16.295444709049352"><ele>1080.6</ele><time>2026-03-22T09:28:13.001Z</time></trkpt><trkpt lat="38.413586274999105" lon="16.2954475557069"><ele>1081.8</ele><time>2026-03-22T09:28:14.001Z</time></trkpt><trkpt lat="38.41368018912855" lon="16.295441213769635"><ele>1083.0</ele><time>2026-03-22T09:28:15.001Z</time></trkpt><trkpt lat="38.41378103485793" lon="16.295441690149374"><ele>1083.6666666666667</ele><time>2026-03-22T09:28:16.001Z</time></trkpt><trkpt lat="38.41388083760603" lon="16.295446243292506"><ele>1084.3333333333333</ele><time>2026-03-22T09:28:17.001Z</time></trkpt><trkpt lat="38.413951421552625" lon="16.295446537006267"><ele>1085.0</ele><time>2026-03-22T09:28:18.001Z</time></trkpt><trkpt lat="38.41404471723021" lon="16.29545570980075"><ele>1085.6666666666665</ele><time>2026-03-22T09:28:20.001Z</time></trkpt><trkpt lat="38.41410604830729" lon="16.295492842053406"><ele>1086.3333333333333</ele><time>2026-03-22T09:28:23.001Z</time></trkpt><trkpt lat="38.41408968839037" lon="16.295576852122252"><ele>1087.0</ele><time>2026-03-22T09:28:25.001Z</time></trkpt><trkpt lat="38.41401412772468" lon="16.295609219029135"><ele>1088.6</ele><time>2026-03-22T09:28:27.001Z</time></trkpt><trkpt lat="38.41390438199097" lon="16.295706298843694"><ele>1090.2</ele><time>2026-03-22T09:28:29.001Z</time></trkpt><trkpt lat="38.41384844647267" lon="16.295786979340235"><ele>1091.8</ele><time>2026-03-22T09:28:31.001Z</time></trkpt><trkpt lat="38.413794987975464" lon="16.295841103155603"><ele>1093.4</ele><time>2026-03-22T09:28:32.001Z</time></trkpt><trkpt lat="38.4137794762688" lon="16.295952919495978"><ele>1095.0</ele><time>2026-03-22T09:28:34.001Z</time></trkpt><trkpt lat="38.413782029679076" lon="16.296061865356634"><ele>1095.6666666666667</ele><time>2026-03-22T09:28:36.001Z</time></trkpt><trkpt lat="38.4137739077245" lon="16.29618365121519"><ele>1096.3333333333333</ele><time>2026-03-22T09:28:38.001Z</time></trkpt><trkpt lat="38.4137788020239" lon="16.296306860123927"><ele>1097.0</ele><time>2026-03-22T09:28:41.001Z</time></trkpt><trkpt lat="38.413817683947464" lon="16.29639730177849"><ele>1097.6666666666665</ele><time>2026-03-22T09:28:42.001Z</time></trkpt><trkpt lat="38.413864101792235" lon="16.296486826353277"><ele>1098.3333333333333</ele><time>2026-03-22T09:28:43.001Z</time></trkpt><trkpt lat="38.41391284645641" lon="16.29656031642969"><ele>1099.0</ele><time>2026-03-22T09:28:44.001Z</time></trkpt><trkpt lat="38.41396901063815" lon="16.296600416630948"><ele>1100.0</ele><time>2026-03-22T09:28:45.001Z</time></trkpt><trkpt lat="38.41404504522003" lon="16.296692629570195"><ele>1101.0</ele><time>2026-03-22T09:28:46.001Z</time></trkpt><trkpt lat="38.41409854296873" lon="16.296758602243074"><ele>1102.0</ele><time>2026-03-22T09:28:47.001Z</time></trkpt><trkpt lat="38.41418143903058" lon="16.296891281248918"><ele>1103.0</ele><time>2026-03-22T09:28:49.001Z</time></trkpt><trkpt lat="38.41418693291894" lon="16.2969752920618"><ele>1104.0</ele><time>2026-03-22T09:28:50.001Z</time></trkpt><trkpt lat="38.4142452589865" lon="16.297064918858602"><ele>1104.0</ele><time>2026-03-22T09:28:51.001Z</time></trkpt><trkpt lat="38.414289494433355" lon="16.297126071063136"><ele>1104.0</ele><time>2026-03-22T09:28:52.001Z</time></trkpt><trkpt lat="38.414325621079044" lon="16.297204990731846"><ele>1104.0</ele><time>2026-03-22T09:28:53.001Z</time></trkpt><trkpt lat="38.414432791816914" lon="16.29726600982095"><ele>1104.0</ele><time>2026-03-22T09:28:55.001Z</time></trkpt><trkpt lat="38.41451530538835" lon="16.297265484535448"><ele>1104.0</ele><time>2026-03-22T09:28:58.001Z</time></trkpt><trkpt lat="38.41458150913887" lon="16.297157116233084"><ele>1104.0</ele><time>2026-03-22T09:29:00.001Z</time></trkpt><trkpt lat="38.41463001572696" lon="16.297052934753413"><ele>1104.2</ele><time>2026-03-22T09:29:02.001Z</time></trkpt><trkpt lat="38.41469543967458" lon="16.296958742539505"><ele>1104.4</ele><time>2026-03-22T09:29:04.001Z</time></trkpt><trkpt lat="38.41473281918346" lon="16.296865673835544"><ele>1104.6</ele><time>2026-03-22T09:29:05.001Z</time></trkpt><trkpt lat="38.41478220078807" lon="16.296785371370028"><ele>1104.8</ele><time>2026-03-22T09:29:06.001Z</time></trkpt><trkpt lat="38.41485502870648" lon="16.296680579901036"><ele>1105.0</ele><time>2026-03-22T09:29:08.001Z</time></trkpt><trkpt lat="38.41493571753084" lon="16.29660103786639"><ele>1105.0</ele><time>2026-03-22T09:29:10.001Z</time></trkpt><trkpt lat="38.41504082949865" lon="16.29662639292648"><ele>1105.0</ele><time>2026-03-22T09:29:12.001Z</time></trkpt><trkpt lat="38.41510684084248" lon="16.296669411092463"><ele>1105.0</ele><time>2026-03-22T09:29:14.001Z</time></trkpt><trkpt lat="38.41519687872563" lon="16.29671516489567"><ele>1105.0</ele><time>2026-03-22T09:29:16.001Z</time></trkpt><trkpt lat="38.415249818467906" lon="16.29676670197513"><ele>1105.0</ele><time>2026-03-22T09:29:17.001Z</time></trkpt><trkpt lat="38.41530751278011" lon="16.29682183792555"><ele>1105.0</ele><time>2026-03-22T09:29:18.001Z</time></trkpt><trkpt lat="38.41541076241842" lon="16.29692114666091"><ele>1104.8</ele><time>2026-03-22T09:29:20.001Z</time></trkpt><trkpt lat="38.41552430551358" lon="16.296999836959774"><ele>1104.6</ele><time>2026-03-22T09:29:22.001Z</time></trkpt><trkpt lat="38.415662061527804" lon="16.297041076774537"><ele>1104.4</ele><time>2026-03-22T09:29:24.001Z</time></trkpt><trkpt lat="38.415730962330244" lon="16.29707000042243"><ele>1104.2</ele><time>2026-03-22T09:29:25.001Z</time></trkpt><trkpt lat="38.4158139478331" lon="16.297095101863963"><ele>1104.0</ele><time>2026-03-22T09:29:26.001Z</time></trkpt><trkpt lat="38.415895589182114" lon="16.29710329540701"><ele>1104.0</ele><time>2026-03-22T09:29:27.001Z</time></trkpt><trkpt lat="38.415991506386504" lon="16.29710457240886"><ele>1104.0</ele><time>2026-03-22T09:29:28.001Z</time></trkpt><trkpt lat="38.416068691458015" lon="16.297109220087723"><ele>1104.0</ele><time>2026-03-22T09:29:29.001Z</time></trkpt><trkpt lat="38.41613294552041" lon="16.29711513902673"><ele>1104.0</ele><time>2026-03-22T09:29:30.001Z</time></trkpt><trkpt lat="38.41622615820497" lon="16.29714811023732"><ele>1104.0</ele><time>2026-03-22T09:29:32.001Z</time></trkpt><trkpt lat="38.41631538954727" lon="16.297165287049854"><ele>1104.0</ele><time>2026-03-22T09:29:34.001Z</time></trkpt><trkpt lat="38.41638520411548" lon="16.297114390211945"><ele>1105.6000000000001</ele><time>2026-03-22T09:29:36.001Z</time></trkpt><trkpt lat="38.41640894776545" lon="16.29695906439957"><ele>1107.2</ele><time>2026-03-22T09:29:38.001Z</time></trkpt><trkpt lat="38.41642067149775" lon="16.296869484162148"><ele>1108.8000000000002</ele><time>2026-03-22T09:29:39.001Z</time></trkpt><trkpt lat="38.416381620850345" lon="16.29677912006957"><ele>1110.4</ele><time>2026-03-22T09:29:41.001Z</time></trkpt><trkpt lat="38.41638227952781" lon="16.296661442159586"><ele>1112.0</ele><time>2026-03-22T09:29:44.001Z</time></trkpt><trkpt lat="38.41649506283532" lon="16.296665082743544"><ele>1112.0</ele><time>2026-03-22T09:29:46Z</time></trkpt><trkpt lat="38.416605940910905" lon="16.296666587607163"><ele>1112.0</ele><time>2026-03-22T09:29:55Z</time></trkpt><trkpt lat="38.416742524566644" lon="16.296703955087615"><ele>1112.0</ele><time>2026-03-22T09:30:44Z</time></trkpt><trkpt lat="38.41682105059145" lon="16.29668896477574"><ele>1112.0</ele><time>2026-03-22T09:30:45Z</time></trkpt><trkpt lat="38.41688823045917" lon="16.296634789248547"><ele>1112.0</ele><time>2026-03-22T09:30:46Z</time></trkpt><trkpt lat="38.417002572988245" lon="16.2966409482375"><ele>1112.0</ele><time>2026-03-22T09:30:48Z</time></trkpt><trkpt lat="38.417083428797774" lon="16.29664748046561"><ele>1112.0</ele><time>2026-03-22T09:30:49Z</time></trkpt><trkpt lat="38.4171706132907" lon="16.29665841018558"><ele>1112.0</ele><time>2026-03-22T09:30:50Z</time></trkpt><trkpt lat="38.417271414014486" lon="16.29667584205514"><ele>1112.0</ele><time>2026-03-22T09:30:53Z</time></trkpt><trkpt lat="38.41735835767433" lon="16.296695448277568"><ele>1112.0</ele><time>2026-03-22T09:30:56Z</time></trkpt><trkpt lat="38.417445721291536" lon="16.29674277131336"><ele>1112.8333333333335</ele><time>2026-03-22T09:30:58Z</time></trkpt><trkpt lat="38.417542309638606" lon="16.296792966916748"><ele>1113.6666666666667</ele><time>2026-03-22T09:31:00Z</time></trkpt><trkpt lat="38.41756235756112" lon="16.29692578128925"><ele>1114.5</ele><time>2026-03-22T09:31:02Z</time></trkpt><trkpt lat="38.41762918228939" lon="16.296930225632014"><ele>1115.3333333333333</ele><time>2026-03-22T09:31:06Z</time></trkpt><trkpt lat="38.417688331188494" lon="16.296967160791443"><ele>1116.1666666666665</ele><time>2026-03-22T09:31:09Z</time></trkpt><trkpt lat="38.41776623123529" lon="16.296958587304342"><ele>1117.0</ele><time>2026-03-22T09:31:13Z</time></trkpt><trkpt lat="38.41782828470836" lon="16.29693977930381"><ele>1117.0</ele><time>2026-03-22T09:31:15Z</time></trkpt><trkpt lat="38.417905359600574" lon="16.29697345569948"><ele>1117.0</ele><time>2026-03-22T09:31:18.001Z</time></trkpt><trkpt lat="38.417954990336824" lon="16.29703354598187"><ele>1117.0</ele><time>2026-03-22T09:31:19.001Z</time></trkpt><trkpt lat="38.418032727496794" lon="16.297144855857876"><ele>1117.0</ele><time>2026-03-22T09:31:21.001Z</time></trkpt><trkpt lat="38.41806561108824" lon="16.297302878355968"><ele>1117.0</ele><time>2026-03-22T09:31:23.001Z</time></trkpt><trkpt lat="38.41808802139714" lon="16.29744701574629"><ele>1119.3333333333333</ele><time>2026-03-22T09:31:25.001Z</time></trkpt><trkpt lat="38.418099011775574" lon="16.29755036084662"><ele>1121.6666666666665</ele><time>2026-03-22T09:31:26.001Z</time></trkpt><trkpt lat="38.4180933786959" lon="16.297658409662567"><ele>1124.0</ele><time>2026-03-22T09:31:27.001Z</time></trkpt><trkpt lat="38.41810780327277" lon="16.297751947185578"><ele>1126.3333333333333</ele><time>2026-03-22T09:31:28.001Z</time></trkpt><trkpt lat="38.41809370747178" lon="16.2978651267498"><ele>1128.6666666666667</ele><time>2026-03-22T09:31:30.001Z</time></trkpt><trkpt lat="38.41807219718407" lon="16.297992180081238"><ele>1131.0</ele><time>2026-03-22T09:31:32Z</time></trkpt><trkpt lat="38.41811133993092" lon="16.29807833527694"><ele>1131.0</ele><time>2026-03-22T09:31:34Z</time></trkpt><trkpt lat="38.41818532991973" lon="16.29808956404307"><ele>1131.0</ele><time>2026-03-22T09:31:36Z</time></trkpt><trkpt lat="38.418279782810224" lon="16.298094581478228"><ele>1131.0</ele><time>2026-03-22T09:31:38Z</time></trkpt><trkpt lat="38.418340173904596" lon="16.298018162892053"><ele>1131.0</ele><time>2026-03-22T09:31:39Z</time></trkpt><trkpt lat="38.4183987174757" lon="16.29791847567091"><ele>1131.0</ele><time>2026-03-22T09:31:40Z</time></trkpt><trkpt lat="38.41844170037885" lon="16.29785550540825"><ele>1131.0</ele><time>2026-03-22T09:31:41Z</time></trkpt><trkpt lat="38.41852917569009" lon="16.29776450325718"><ele>1131.0</ele><time>2026-03-22T09:31:43Z</time></trkpt><trkpt lat="38.41860204182907" lon="16.29765049818726"><ele>1131.0</ele><time>2026-03-22T09:31:45Z</time></trkpt><trkpt lat="38.41868920784784" lon="16.297563926151636"><ele>1131.0</ele><time>2026-03-22T09:31:47Z</time></trkpt><trkpt lat="38.41875919141725" lon="16.297485606874325"><ele>1131.0</ele><time>2026-03-22T09:31:49Z</time></trkpt><trkpt lat="38.41883802660451" lon="16.29752752594928"><ele>1131.0</ele><time>2026-03-22T09:31:52Z</time></trkpt><trkpt lat="38.41891138566521" lon="16.297578445671398"><ele>1132.2</ele><time>2026-03-22T09:31:54Z</time></trkpt><trkpt lat="38.41894924950521" lon="16.29765960794553"><ele>1133.3999999999999</ele><time>2026-03-22T09:31:55Z</time></trkpt><trkpt lat="38.41900314213198" lon="16.29781368710946"><ele>1134.6</ele><time>2026-03-22T09:31:57Z</time></trkpt><trkpt lat="38.41901084261426" lon="16.297894825119855"><ele>1135.8</ele><time>2026-03-22T09:31:58Z</time></trkpt><trkpt lat="38.419016252294355" lon="16.298019264779633"><ele>1137.0</ele><time>2026-03-22T09:32:00Z</time></trkpt><trkpt lat="38.419040161549425" lon="16.29816089223222"><ele>1138.4</ele><time>2026-03-22T09:32:02Z</time></trkpt><trkpt lat="38.4190861712964" lon="16.298295721506637"><ele>1139.8000000000002</ele><time>2026-03-22T09:32:04Z</time></trkpt><trkpt lat="38.41911946081747" lon="16.298431030332754"><ele>1141.2</ele><time>2026-03-22T09:32:06Z</time></trkpt><trkpt lat="38.419125976742805" lon="16.29856575580249"><ele>1142.6000000000001</ele><time>2026-03-22T09:32:08Z</time></trkpt><trkpt lat="38.41911782427239" lon="16.298681058079072"><ele>1144.0</ele><time>2026-03-22T09:32:10Z</time></trkpt><trkpt lat="38.41907491324289" lon="16.29875158312039"><ele>1144.0</ele><time>2026-03-22T09:32:13Z</time></trkpt><trkpt lat="38.4190445697182" lon="16.298892766218906"><ele>1144.0</ele><time>2026-03-22T09:32:17Z</time></trkpt><trkpt lat="38.41899053207768" lon="16.29896304706033"><ele>1144.0</ele><time>2026-03-22T09:32:20Z</time></trkpt><trkpt lat="38.41894381016762" lon="16.29908052428865"><ele>1144.0</ele><time>2026-03-22T09:32:23Z</time></trkpt><trkpt lat="38.41889812660799" lon="16.299155016695558"><ele>1144.0</ele><time>2026-03-22T09:32:26Z</time></trkpt><trkpt lat="38.41885665398877" lon="16.299219837190588"><ele>1144.0</ele><time>2026-03-22T09:32:28Z</time></trkpt><trkpt lat="38.418818868721985" lon="16.299332675936668"><ele>1146.2</ele><time>2026-03-22T09:32:30Z</time></trkpt><trkpt lat="38.418798538330364" lon="16.2994376592404"><ele>1148.4</ele><time>2026-03-22T09:32:33Z</time></trkpt><trkpt lat="38.41880402720499" lon="16.299537886095177"><ele>1150.6</ele><time>2026-03-22T09:32:36Z</time></trkpt><trkpt lat="38.41878613489094" lon="16.29963197895066"><ele>1152.8</ele><time>2026-03-22T09:32:38Z</time></trkpt><trkpt lat="38.41866234445338" lon="16.299773290230622"><ele>1155.0</ele><time>2026-03-22T09:32:40Z</time></trkpt><trkpt lat="38.41861176840243" lon="16.299821270739436"><ele>1155.0</ele><time>2026-03-22T09:32:43Z</time></trkpt><trkpt lat="38.41865805187084" lon="16.299876786838777"><ele>1155.0</ele><time>2026-03-22T09:32:45Z</time></trkpt><trkpt lat="38.41873908387846" lon="16.299962801887002"><ele>1155.0</ele><time>2026-03-22T09:32:48Z</time></trkpt><trkpt lat="38.41879538591862" lon="16.30004229176713"><ele>1155.0</ele><time>2026-03-22T09:32:50Z</time></trkpt><trkpt lat="38.41888304989881" lon="16.300034589424953"><ele>1155.0</ele><time>2026-03-22T09:32:52Z</time></trkpt><trkpt lat="38.41894100165699" lon="16.300073149366238"><ele>1155.0</ele><time>2026-03-22T09:32:53Z</time></trkpt><trkpt lat="38.41902741775502" lon="16.300157342516446"><ele>1152.8333333333333</ele><time>2026-03-22T09:32:55Z</time></trkpt><trkpt lat="38.419040466432655" lon="16.300272480367255"><ele>1150.6666666666667</ele><time>2026-03-22T09:33:00Z</time></trkpt><trkpt lat="38.419022895896724" lon="16.30037656924944"><ele>1148.5</ele><time>2026-03-22T09:33:03Z</time></trkpt><trkpt lat="38.418994615795" lon="16.300485336846407"><ele>1146.3333333333335</ele><time>2026-03-22T09:33:05Z</time></trkpt><trkpt lat="38.41895608936851" lon="16.300555821420552"><ele>1144.1666666666667</ele><time>2026-03-22T09:33:07Z</time></trkpt><trkpt lat="38.41893486281192" lon="16.30063733968401"><ele>1142.0</ele><time>2026-03-22T09:33:10Z</time></trkpt><trkpt lat="38.41890839466485" lon="16.300761518197938"><ele>1141.2857142857142</ele><time>2026-03-22T09:33:13Z</time></trkpt><trkpt lat="38.41885814905089" lon="16.300847136992626"><ele>1140.5714285714284</ele><time>2026-03-22T09:33:15Z</time></trkpt><trkpt lat="38.418806510479776" lon="16.300894386260737"><ele>1139.8571428571427</ele><time>2026-03-22T09:33:16Z</time></trkpt><trkpt lat="38.418754115031454" lon="16.300946098931853"><ele>1139.142857142857</ele><time>2026-03-22T09:33:18Z</time></trkpt><trkpt lat="38.418693481801014" lon="16.300978675602636"><ele>1138.4285714285713</ele><time>2026-03-22T09:33:20Z</time></trkpt><trkpt lat="38.418630535847065" lon="16.301025031660608"><ele>1137.7142857142856</ele><time>2026-03-22T09:33:22Z</time></trkpt><trkpt lat="38.418565502107704" lon="16.301080392701724"><ele>1137.0</ele><time>2026-03-22T09:33:24Z</time></trkpt><trkpt lat="38.418516314067226" lon="16.30113706939226"><ele>1140.3333333333333</ele><time>2026-03-22T09:33:25Z</time></trkpt><trkpt lat="38.41848215139511" lon="16.301228253611395"><ele>1143.6666666666667</ele><time>2026-03-22T09:33:27Z</time></trkpt><trkpt lat="38.41845186371839" lon="16.301325206401735"><ele>1147.0</ele><time>2026-03-22T09:33:29Z</time></trkpt><trkpt lat="38.41846670711134" lon="16.30140474306376"><ele>1150.3333333333335</ele><time>2026-03-22T09:33:30Z</time></trkpt><trkpt lat="38.41845689790587" lon="16.301498790683524"><ele>1153.6666666666667</ele><time>2026-03-22T09:33:33Z</time></trkpt><trkpt lat="38.418543015107375" lon="16.301573266739034"><ele>1157.0</ele><time>2026-03-22T09:33:37Z</time></trkpt><trkpt lat="38.41863923155771" lon="16.301661210235412"><ele>1157.4</ele><time>2026-03-22T09:33:39Z</time></trkpt><trkpt lat="38.41872366166173" lon="16.30175063212287"><ele>1157.8000000000002</ele><time>2026-03-22T09:33:41Z</time></trkpt><trkpt lat="38.418786912331335" lon="16.301840006069714"><ele>1158.2</ele><time>2026-03-22T09:33:43Z</time></trkpt><trkpt lat="38.41882128055322" lon="16.30194719170419"><ele>1158.6000000000001</ele><time>2026-03-22T09:33:46Z</time></trkpt><trkpt lat="38.41877877205823" lon="16.302054904931264"><ele>1159.0</ele><time>2026-03-22T09:33:48Z</time></trkpt><trkpt lat="38.41875365430571" lon="16.302147634205415"><ele>1159.0</ele><time>2026-03-22T09:33:51Z</time></trkpt><trkpt lat="38.418769288092314" lon="16.302244649556947"><ele>1159.0</ele><time>2026-03-22T09:33:54Z</time></trkpt><trkpt lat="38.418832870381536" lon="16.302270148536902"><ele>1159.0</ele><time>2026-03-22T09:33:57Z</time></trkpt><trkpt lat="38.41891297098979" lon="16.30225304331747"><ele>1159.0</ele><time>2026-03-22T09:33:59Z</time></trkpt><trkpt lat="38.41901068900923" lon="16.30220964861492"><ele>1159.0</ele><time>2026-03-22T09:34:01Z</time></trkpt><trkpt lat="38.419127042177" lon="16.3021837401769"><ele>1159.0</ele><time>2026-03-22T09:34:03Z</time></trkpt><trkpt lat="38.41921388178429" lon="16.30215433230927"><ele>1157.6666666666665</ele><time>2026-03-22T09:34:05Z</time></trkpt><trkpt lat="38.41927810828585" lon="16.302119976436234"><ele>1156.3333333333333</ele><time>2026-03-22T09:34:07Z</time></trkpt><trkpt lat="38.41934972082447" lon="16.302047313141767"><ele>1155.0</ele><time>2026-03-22T09:34:10Z</time></trkpt><trkpt lat="38.419416832928086" lon="16.302098922055546"><ele>1153.6666666666667</ele><time>2026-03-22T09:34:14Z</time></trkpt><trkpt lat="38.41945830389052" lon="16.302183521841602"><ele>1152.3333333333335</ele><time>2026-03-22T09:34:18Z</time></trkpt><trkpt lat="38.41948364551772" lon="16.30231331442655"><ele>1151.0</ele><time>2026-03-22T09:34:21Z</time></trkpt><trkpt lat="38.41949508500104" lon="16.302425845528443"><ele>1151.0</ele><time>2026-03-22T09:34:23Z</time></trkpt><trkpt lat="38.41948517318853" lon="16.302566956000444"><ele>1151.0</ele><time>2026-03-22T09:34:25Z</time></trkpt><trkpt lat="38.41947839830947" lon="16.302660022328823"><ele>1151.0</ele><time>2026-03-22T09:34:27Z</time></trkpt><trkpt lat="38.41946694512302" lon="16.302751173429062"><ele>1151.0</ele><time>2026-03-22T09:34:29Z</time></trkpt><trkpt lat="38.419534496945595" lon="16.302808554531"><ele>1151.0</ele><time>2026-03-22T09:34:32Z</time></trkpt><trkpt lat="38.41963110727652" lon="16.30276389213353"><ele>1151.0</ele><time>2026-03-22T09:34:34Z</time></trkpt><trkpt lat="38.41972102874799" lon="16.302659761924634"><ele>1149.3999999999999</ele><time>2026-03-22T09:34:36Z</time></trkpt><trkpt lat="38.41976844143981" lon="16.302598135140045"><ele>1147.8</ele><time>2026-03-22T09:34:37Z</time></trkpt><trkpt lat="38.41984566947613" lon="16.302501730946354"><ele>1146.1999999999998</ele><time>2026-03-22T09:34:39Z</time></trkpt><trkpt lat="38.41989676078159" lon="16.302402227041743"><ele>1144.6</ele><time>2026-03-22T09:34:41Z</time></trkpt><trkpt lat="38.41997510316825" lon="16.30236520468254"><ele>1143.0</ele><time>2026-03-22T09:34:43Z</time></trkpt><trkpt lat="38.42007562060106" lon="16.302357565583023"><ele>1143.0</ele><time>2026-03-22T09:34:45Z</time></trkpt><trkpt lat="38.42016975046326" lon="16.302407274795765"><ele>1143.0</ele><time>2026-03-22T09:34:47Z</time></trkpt><trkpt lat="38.420260273630085" lon="16.30244329085294"><ele>1143.0</ele><time>2026-03-22T09:34:49Z</time></trkpt><trkpt lat="38.4203246006621" lon="16.302431618950997"><ele>1143.0</ele><time>2026-03-22T09:34:51Z</time></trkpt><trkpt lat="38.42038569518984" lon="16.302400847159344"><ele>1143.0</ele><time>2026-03-22T09:34:53Z</time></trkpt><trkpt lat="38.420450817888494" lon="16.302361160283244"><ele>1143.0</ele><time>2026-03-22T09:34:55Z</time></trkpt><trkpt lat="38.42053011274471" lon="16.30232112571751"><ele>1141.0</ele><time>2026-03-22T09:34:57Z</time></trkpt><trkpt lat="38.42062605162461" lon="16.302361046479206"><ele>1139.0</ele><time>2026-03-22T09:35:00Z</time></trkpt><trkpt lat="38.42065401020214" lon="16.302439108969672"><ele>1137.0</ele><time>2026-03-22T09:35:03Z</time></trkpt><trkpt lat="38.42061429729013" lon="16.302568815162743"><ele>1135.0</ele><time>2026-03-22T09:35:08Z</time></trkpt><trkpt lat="38.420574532915445" lon="16.302696862700603"><ele>1133.0</ele><time>2026-03-22T09:35:10Z</time></trkpt><trkpt lat="38.420553448786755" lon="16.302834572048464"><ele>1133.0</ele><time>2026-03-22T09:35:12Z</time></trkpt><trkpt lat="38.420544453369466" lon="16.302937819975654"><ele>1133.0</ele><time>2026-03-22T09:35:14Z</time></trkpt><trkpt lat="38.4205818915126" lon="16.303021246907818"><ele>1133.0</ele><time>2026-03-22T09:35:16Z</time></trkpt><trkpt lat="38.42057422750056" lon="16.303123400266756"><ele>1133.0</ele><time>2026-03-22T09:35:19Z</time></trkpt><trkpt lat="38.420600976892274" lon="16.303206096007894"><ele>1133.0</ele><time>2026-03-22T09:35:21Z</time></trkpt><trkpt lat="38.42064702081897" lon="16.303321826968947"><ele>1133.0</ele><time>2026-03-22T09:35:23Z</time></trkpt><trkpt lat="38.42065734370712" lon="16.303417320768226"><ele>1133.6666666666667</ele><time>2026-03-22T09:35:25Z</time></trkpt><trkpt lat="38.42067278322071" lon="16.30350809023787"><ele>1134.3333333333335</ele><time>2026-03-22T09:35:28Z</time></trkpt><trkpt lat="38.42069813470969" lon="16.30359984236655"><ele>1135.0</ele><time>2026-03-22T09:35:31Z</time></trkpt><trkpt lat="38.42069843451449" lon="16.30370128747833"><ele>1135.6666666666667</ele><time>2026-03-22T09:35:33Z</time></trkpt><trkpt lat="38.42067876081344" lon="16.30380957422038"><ele>1136.3333333333333</ele><time>2026-03-22T09:35:37Z</time></trkpt><trkpt lat="38.42070420469663" lon="16.303906473807654"><ele>1137.0</ele><time>2026-03-22T09:35:39Z</time></trkpt><trkpt lat="38.42065325896035" lon="16.303963014313165"><ele>1137.0</ele><time>2026-03-22T09:36:38Z</time></trkpt><trkpt lat="38.42067825951692" lon="16.303869885015384"><ele>1137.0</ele><time>2026-03-22T09:37:09Z</time></trkpt><trkpt lat="38.42069835200098" lon="16.30378945705752"><ele>1137.0</ele><time>2026-03-22T09:37:17Z</time></trkpt><trkpt lat="38.420674456349964" lon="16.303880907354888"><ele>1137.0</ele><time>2026-03-22T09:37:27Z</time></trkpt><trkpt lat="38.42064995723087" lon="16.304018533382923"><ele>1137.0</ele><time>2026-03-22T09:39:03Z</time></trkpt><trkpt lat="38.42066528647216" lon="16.304131932486115"><ele>1137.0</ele><time>2026-03-22T09:39:05Z</time></trkpt><trkpt lat="38.420697870447206" lon="16.30420375780747"><ele>1138.5</ele><time>2026-03-22T09:39:07Z</time></trkpt><trkpt lat="38.420756600186735" lon="16.30431591870174"><ele>1140.0</ele><time>2026-03-22T09:39:10Z</time></trkpt><trkpt lat="38.420832711992816" lon="16.304402092052594"><ele>1141.5</ele><time>2026-03-22T09:39:12Z</time></trkpt><trkpt lat="38.42089343039161" lon="16.304480863223848"><ele>1143.0</ele><time>2026-03-22T09:39:14Z</time></trkpt><trkpt lat="38.42093089999572" lon="16.30454683538987"><ele>1144.5</ele><time>2026-03-22T09:39:15Z</time></trkpt><trkpt lat="38.42093664077286" lon="16.304638327609688"><ele>1146.0</ele><time>2026-03-22T09:39:17Z</time></trkpt><trkpt lat="38.42091151014031" lon="16.304723708403266"><ele>1146.3333333333333</ele><time>2026-03-22T09:39:20Z</time></trkpt><trkpt lat="38.42089678622391" lon="16.304815697092618"><ele>1146.6666666666667</ele><time>2026-03-22T09:39:23Z</time></trkpt><trkpt lat="38.42086947133758" lon="16.304929534470453"><ele>1147.0</ele><time>2026-03-22T09:39:26Z</time></trkpt><trkpt lat="38.42083479015053" lon="16.305020767741578"><ele>1147.3333333333335</ele><time>2026-03-22T09:39:29Z</time></trkpt><trkpt lat="38.42081499442342" lon="16.305101655641735"><ele>1147.6666666666667</ele><time>2026-03-22T09:39:31Z</time></trkpt><trkpt lat="38.420864797727155" lon="16.305187770057547"><ele>1148.0</ele><time>2026-03-22T09:39:36Z</time></trkpt><trkpt lat="38.42092994460834" lon="16.305190352657938"><ele>1148.0</ele><time>2026-03-22T09:39:39Z</time></trkpt><trkpt lat="38.421017948273736" lon="16.305149319880506"><ele>1148.0</ele><time>2026-03-22T09:39:43Z</time></trkpt><trkpt lat="38.42109003188734" lon="16.305102613835068"><ele>1148.0</ele><time>2026-03-22T09:39:45Z</time></trkpt><trkpt lat="38.42116659018177" lon="16.305074405561353"><ele>1148.0</ele><time>2026-03-22T09:39:47Z</time></trkpt><trkpt lat="38.42122870980356" lon="16.305052461591494"><ele>1148.0</ele><time>2026-03-22T09:39:49Z</time></trkpt><trkpt lat="38.42130832944778" lon="16.30502438220122"><ele>1148.0</ele><time>2026-03-22T09:39:52Z</time></trkpt><trkpt lat="38.42136669739188" lon="16.30498806696225"><ele>1146.2857142857142</ele><time>2026-03-22T09:39:56Z</time></trkpt><trkpt lat="38.42143639915951" lon="16.30498280970437"><ele>1144.5714285714284</ele><time>2026-03-22T09:40:00Z</time></trkpt><trkpt lat="38.421507943251584" lon="16.304979525436455"><ele>1142.857142857143</ele><time>2026-03-22T09:40:03Z</time></trkpt><trkpt lat="38.42158364449173" lon="16.304983268148824"><ele>1141.142857142857</ele><time>2026-03-22T09:40:06Z</time></trkpt><trkpt lat="38.42165652270458" lon="16.304950431940032"><ele>1139.4285714285713</ele><time>2026-03-22T09:40:11Z</time></trkpt><trkpt lat="38.421699647381836" lon="16.304862072397096"><ele>1137.7142857142858</ele><time>2026-03-22T09:40:13Z</time></trkpt><trkpt lat="38.421724076175" lon="16.304785300309824"><ele>1136.0</ele><time>2026-03-22T09:40:15Z</time></trkpt><trkpt lat="38.42179385170526" lon="16.304657249592182"><ele>1136.0</ele><time>2026-03-22T09:40:17Z</time></trkpt><trkpt lat="38.421841778445405" lon="16.304528944893878"><ele>1136.0</ele><time>2026-03-22T09:40:19Z</time></trkpt><trkpt lat="38.42186825037138" lon="16.304451035532324"><ele>1136.0</ele><time>2026-03-22T09:40:21Z</time></trkpt><trkpt lat="38.42188220857683" lon="16.30433595124463"><ele>1136.0</ele><time>2026-03-22T09:40:24Z</time></trkpt><trkpt lat="38.42192904985051" lon="16.304272902265996"><ele>1136.0</ele><time>2026-03-22T09:40:26Z</time></trkpt><trkpt lat="38.42198074674644" lon="16.30432734907495"><ele>1136.0</ele><time>2026-03-22T09:40:31Z</time></trkpt><trkpt lat="38.421967711632995" lon="16.304436930265958"><ele>1136.0</ele><time>2026-03-22T09:40:35Z</time></trkpt><trkpt lat="38.421948237276084" lon="16.30454639202489"><ele>1136.0</ele><time>2026-03-22T09:40:37Z</time></trkpt><trkpt lat="38.4219194887577" lon="16.304669530215893"><ele>1136.0</ele><time>2026-03-22T09:40:39Z</time></trkpt><trkpt lat="38.42188543351552" lon="16.304791435747163"><ele>1136.0</ele><time>2026-03-22T09:40:41Z</time></trkpt><trkpt lat="38.42190778265024" lon="16.30495778148039"><ele>1136.0</ele><time>2026-03-22T09:40:43Z</time></trkpt><trkpt lat="38.42194736046838" lon="16.305089175669995"><ele>1136.0</ele><time>2026-03-22T09:40:45Z</time></trkpt><trkpt lat="38.42200609070463" lon="16.30519853803014"><ele>1136.0</ele><time>2026-03-22T09:40:47Z</time></trkpt><trkpt lat="38.42205919298123" lon="16.30531432766844"><ele>1136.0</ele><time>2026-03-22T09:40:49Z</time></trkpt><trkpt lat="38.42212831109355" lon="16.30542290686465"><ele>1136.0</ele><time>2026-03-22T09:40:51Z</time></trkpt><trkpt lat="38.42220068592628" lon="16.30549932655201"><ele>1136.0</ele><time>2026-03-22T09:40:53Z</time></trkpt><trkpt lat="38.42228540571512" lon="16.3055796824005"><ele>1135.0</ele><time>2026-03-22T09:40:55Z</time></trkpt><trkpt lat="38.42237443519571" lon="16.305617379242513"><ele>1134.0</ele><time>2026-03-22T09:40:58Z</time></trkpt><trkpt lat="38.4224570146269" lon="16.305679672957176"><ele>1133.0</ele><time>2026-03-22T09:41:00Z</time></trkpt><trkpt lat="38.42257761658629" lon="16.30572969478663"><ele>1132.0</ele><time>2026-03-22T09:41:02Z</time></trkpt><trkpt lat="38.422695542729514" lon="16.305745072837293"><ele>1131.0</ele><time>2026-03-22T09:41:04Z</time></trkpt><trkpt lat="38.42282112364821" lon="16.305743422643538"><ele>1131.0</ele><time>2026-03-22T09:41:06Z</time></trkpt><trkpt lat="38.42288428844903" lon="16.305752330364793"><ele>1131.0</ele><time>2026-03-22T09:41:08Z</time></trkpt><trkpt lat="38.42294588556209" lon="16.30571115347805"><ele>1131.0</ele><time>2026-03-22T09:41:10Z</time></trkpt><trkpt lat="38.42303672888656" lon="16.305659086457013"><ele>1131.0</ele><time>2026-03-22T09:41:14Z</time></trkpt><trkpt lat="38.42310169108878" lon="16.305648133287995"><ele>1131.0</ele><time>2026-03-22T09:41:16Z</time></trkpt><trkpt lat="38.423116290290324" lon="16.305535296054064"><ele>1131.0</ele><time>2026-03-22T09:41:18Z</time></trkpt><trkpt lat="38.423175079039154" lon="16.305466631193617"><ele>1129.6666666666667</ele><time>2026-03-22T09:41:21Z</time></trkpt><trkpt lat="38.42324437161207" lon="16.305441333297956"><ele>1128.3333333333333</ele><time>2026-03-22T09:41:23Z</time></trkpt><trkpt lat="38.42334109211236" lon="16.305398282565797"><ele>1127.0</ele><time>2026-03-22T09:41:25Z</time></trkpt><trkpt lat="38.42341009664076" lon="16.305397853139002"><ele>1125.6666666666665</ele><time>2026-03-22T09:41:27Z</time></trkpt><trkpt lat="38.42348221232834" lon="16.30529023919184"><ele>1124.3333333333333</ele><time>2026-03-22T09:41:29Z</time></trkpt><trkpt lat="38.42355293359877" lon="16.30522634130258"><ele>1123.0</ele><time>2026-03-22T09:41:32Z</time></trkpt><trkpt lat="38.423594455662105" lon="16.305130373316132"><ele>1123.0</ele><time>2026-03-22T09:41:34Z</time></trkpt><trkpt lat="38.423627675849914" lon="16.305050165734976"><ele>1123.0</ele><time>2026-03-22T09:41:35Z</time></trkpt><trkpt lat="38.42369098201899" lon="16.304978250549475"><ele>1123.0</ele><time>2026-03-22T09:41:36Z</time></trkpt><trkpt lat="38.42377420784237" lon="16.30485332328023"><ele>1123.0</ele><time>2026-03-22T09:41:38Z</time></trkpt><trkpt lat="38.42382642043669" lon="16.304800122010395"><ele>1123.0</ele><time>2026-03-22T09:41:39Z</time></trkpt><trkpt lat="38.423882576782965" lon="16.304747512672325"><ele>1123.0</ele><time>2026-03-22T09:41:40Z</time></trkpt><trkpt lat="38.423997221416364" lon="16.30466547785669"><ele>1122.0</ele><time>2026-03-22T09:41:42Z</time></trkpt><trkpt lat="38.424053305680545" lon="16.304613998428596"><ele>1121.0</ele><time>2026-03-22T09:41:43Z</time></trkpt><trkpt lat="38.42413964223283" lon="16.304547779159233"><ele>1120.0</ele><time>2026-03-22T09:41:45Z</time></trkpt><trkpt lat="38.42422648172838" lon="16.304499685154283"><ele>1119.0</ele><time>2026-03-22T09:41:47Z</time></trkpt><trkpt lat="38.42426910599881" lon="16.30443684970324"><ele>1118.0</ele><time>2026-03-22T09:41:49Z</time></trkpt><trkpt lat="38.42433399312864" lon="16.304395017240605"><ele>1117.0</ele><time>2026-03-22T09:41:51Z</time></trkpt><trkpt lat="38.42444528095375" lon="16.304386272406795"><ele>1117.0</ele><time>2026-03-22T09:41:53Z</time></trkpt><trkpt lat="38.42455982832678" lon="16.30443246515478"><ele>1117.0</ele><time>2026-03-22T09:41:55Z</time></trkpt><trkpt lat="38.42463479521626" lon="16.30444833154035"><ele>1117.0</ele><time>2026-03-22T09:41:56Z</time></trkpt><trkpt lat="38.42473714171182" lon="16.304332657944517"><ele>1117.0</ele><time>2026-03-22T09:41:58Z</time></trkpt><trkpt lat="38.42477799657223" lon="16.304253815011272"><ele>1117.0</ele><time>2026-03-22T09:41:59Z</time></trkpt><trkpt lat="38.42481934284628" lon="16.30417867721036"><ele>1116.5</ele><time>2026-03-22T09:42:00Z</time></trkpt><trkpt lat="38.4248677192677" lon="16.304102604136077"><ele>1116.0</ele><time>2026-03-22T09:42:01Z</time></trkpt><trkpt lat="38.42492802639532" lon="16.30404477809903"><ele>1115.5</ele><time>2026-03-22T09:42:02Z</time></trkpt><trkpt lat="38.425044471172136" lon="16.303934969727848"><ele>1115.0</ele><time>2026-03-22T09:42:04Z</time></trkpt><trkpt lat="38.42510100042379" lon="16.303880473010953"><ele>1114.5</ele><time>2026-03-22T09:42:05Z</time></trkpt><trkpt lat="38.42516685264709" lon="16.30383357613884"><ele>1114.0</ele><time>2026-03-22T09:42:06Z</time></trkpt><trkpt lat="38.42523526918726" lon="16.303811860523176"><ele>1113.0</ele><time>2026-03-22T09:42:07Z</time></trkpt><trkpt lat="38.425305309353746" lon="16.3037606534063"><ele>1112.0</ele><time>2026-03-22T09:42:08Z</time></trkpt><trkpt lat="38.42538609506715" lon="16.30370631656011"><ele>1111.0</ele><time>2026-03-22T09:42:09Z</time></trkpt><trkpt lat="38.425453348500085" lon="16.303674519653473"><ele>1110.0</ele><time>2026-03-22T09:42:10Z</time></trkpt><trkpt lat="38.425525634759694" lon="16.303622005894802"><ele>1109.0</ele><time>2026-03-22T09:42:11Z</time></trkpt><trkpt lat="38.42559137946234" lon="16.303577876870186"><ele>1108.0</ele><time>2026-03-22T09:42:12Z</time></trkpt><trkpt lat="38.4256657387854" lon="16.303549127489493"><ele>1108.0</ele><time>2026-03-22T09:42:13Z</time></trkpt><trkpt lat="38.42574304732339" lon="16.303494190169403"><ele>1108.0</ele><time>2026-03-22T09:42:14Z</time></trkpt><trkpt lat="38.4258154036753" lon="16.303438259401933"><ele>1108.0</ele><time>2026-03-22T09:42:15Z</time></trkpt><trkpt lat="38.42589808846178" lon="16.303394951412074"><ele>1108.0</ele><time>2026-03-22T09:42:16Z</time></trkpt><trkpt lat="38.42595833732407" lon="16.303318180361053"><ele>1108.0</ele><time>2026-03-22T09:42:17Z</time></trkpt><trkpt lat="38.42602551596277" lon="16.303260093229138"><ele>1108.0</ele><time>2026-03-22T09:42:18Z</time></trkpt><trkpt lat="38.42608058956346" lon="16.30321500274746"><ele>1108.0</ele><time>2026-03-22T09:42:19Z</time></trkpt><trkpt lat="38.426149039398936" lon="16.30316935532818"><ele>1108.0</ele><time>2026-03-22T09:42:20Z</time></trkpt><trkpt lat="38.42620503058375" lon="16.3031218531261"><ele>1108.0</ele><time>2026-03-22T09:42:21Z</time></trkpt><trkpt lat="38.426326229623214" lon="16.303109055066795"><ele>1108.0</ele><time>2026-03-22T09:42:22Z</time></trkpt><trkpt lat="38.42638980336201" lon="16.303151182614425"><ele>1108.0</ele><time>2026-03-22T09:42:23Z</time></trkpt><trkpt lat="38.42645060532326" lon="16.303064218137234"><ele>1108.0</ele><time>2026-03-22T09:42:25Z</time></trkpt><trkpt lat="38.42650259968918" lon="16.303004166215658"><ele>1106.1666666666665</ele><time>2026-03-22T09:42:26Z</time></trkpt><trkpt lat="38.426553801695235" lon="16.30293977620232"><ele>1104.3333333333333</ele><time>2026-03-22T09:42:27Z</time></trkpt><trkpt lat="38.42659069838679" lon="16.302872532530607"><ele>1102.5</ele><time>2026-03-22T09:42:28Z</time></trkpt><trkpt lat="38.426646067054044" lon="16.30277006713795"><ele>1100.6666666666667</ele><time>2026-03-22T09:42:30Z</time></trkpt><trkpt lat="38.42670291346134" lon="16.30270761114725"><ele>1098.8333333333335</ele><time>2026-03-22T09:42:31Z</time></trkpt><trkpt lat="38.42676856126586" lon="16.30268003669837"><ele>1097.0</ele><time>2026-03-22T09:42:32Z</time></trkpt><trkpt lat="38.42686629886068" lon="16.302621660071157"><ele>1097.0</ele><time>2026-03-22T09:42:34Z</time></trkpt><trkpt lat="38.426952518092634" lon="16.302583546641486"><ele>1097.0</ele><time>2026-03-22T09:42:36Z</time></trkpt><trkpt lat="38.4270472638087" lon="16.302624632568882"><ele>1097.0</ele><time>2026-03-22T09:42:38Z</time></trkpt><trkpt lat="38.42711976382019" lon="16.302759648388996"><ele>1097.0</ele><time>2026-03-22T09:42:40Z</time></trkpt><trkpt lat="38.427234223306755" lon="16.302883407038596"><ele>1096.4</ele><time>2026-03-22T09:42:42Z</time></trkpt><trkpt lat="38.42728030663478" lon="16.302942258825514"><ele>1095.8000000000002</ele><time>2026-03-22T09:42:43Z</time></trkpt><trkpt lat="38.427268386182874" lon="16.303079828879984"><ele>1095.2</ele><time>2026-03-22T09:42:45Z</time></trkpt><trkpt lat="38.42725872484774" lon="16.30319896301623"><ele>1094.6000000000001</ele><time>2026-03-22T09:42:47Z</time></trkpt><trkpt lat="38.427319017795654" lon="16.303295880307"><ele>1094.0</ele><time>2026-03-22T09:42:49Z</time></trkpt><trkpt lat="38.42739099473517" lon="16.303356895936954"><ele>1095.6666666666667</ele><time>2026-03-22T09:42:51Z</time></trkpt><trkpt lat="38.42747394838514" lon="16.303369552620296"><ele>1097.3333333333335</ele><time>2026-03-22T09:42:52Z</time></trkpt><trkpt lat="38.427551921343465" lon="16.303376748275124"><ele>1099.0</ele><time>2026-03-22T09:42:53Z</time></trkpt><trkpt lat="38.42762117761111" lon="16.30339931959056"><ele>1100.6666666666667</ele><time>2026-03-22T09:42:54Z</time></trkpt><trkpt lat="38.42770329985218" lon="16.30344744045752"><ele>1102.3333333333333</ele><time>2026-03-22T09:42:56Z</time></trkpt><trkpt lat="38.427724178728496" lon="16.303545621958165"><ele>1104.0</ele><time>2026-03-22T09:43:14Z</time></trkpt><trkpt lat="38.42775386300972" lon="16.303626161815114"><ele>1104.0</ele><time>2026-03-22T09:44:02Z</time></trkpt><trkpt lat="38.42782706588088" lon="16.3036459925503"><ele>1104.0</ele><time>2026-03-22T09:44:07Z</time></trkpt><trkpt lat="38.427902666718666" lon="16.303619992087274"><ele>1104.0</ele><time>2026-03-22T09:44:10Z</time></trkpt><trkpt lat="38.42793564769697" lon="16.30352951486927"><ele>1104.0</ele><time>2026-03-22T09:44:13Z</time></trkpt><trkpt lat="38.42797272496457" lon="16.30342851841219"><ele>1104.0</ele><time>2026-03-22T09:44:15Z</time></trkpt><trkpt lat="38.427901232332204" lon="16.303322743734995"><ele>1104.0</ele><time>2026-03-22T09:44:17Z</time></trkpt><trkpt lat="38.4277774077052" lon="16.303328741547723"><ele>1104.0</ele><time>2026-03-22T09:44:18Z</time></trkpt><trkpt lat="38.42774087958397" lon="16.30312742401518"><ele>1104.0</ele><time>2026-03-22T09:44:20Z</time></trkpt><trkpt lat="38.427719784729746" lon="16.30304648598497"><ele>1104.0</ele><time>2026-03-22T09:44:21Z</time></trkpt><trkpt lat="38.427671745237895" lon="16.302921212022433"><ele>1104.0</ele><time>2026-03-22T09:44:23Z</time></trkpt><trkpt lat="38.42765646481839" lon="16.302835280918774"><ele>1104.0</ele><time>2026-03-22T09:44:25Z</time></trkpt><trkpt lat="38.42761909435758" lon="16.302716656141012"><ele>1102.0</ele><time>2026-03-22T09:44:27Z</time></trkpt><trkpt lat="38.427608395804384" lon="16.302626656262355"><ele>1100.0</ele><time>2026-03-22T09:44:29Z</time></trkpt><trkpt lat="38.427650779714355" lon="16.302534998651986"><ele>1098.0</ele><time>2026-03-22T09:44:31Z</time></trkpt><trkpt lat="38.42769846216197" lon="16.302451729396413"><ele>1096.0</ele><time>2026-03-22T09:44:32Z</time></trkpt><trkpt lat="38.427837357403156" lon="16.30232415179754"><ele>1094.0</ele><time>2026-03-22T09:44:33Z</time></trkpt><trkpt lat="38.4278849155275" lon="16.30223693165383"><ele>1094.4</ele><time>2026-03-22T09:44:34Z</time></trkpt><trkpt lat="38.42789897145519" lon="16.302151069351396"><ele>1094.8000000000002</ele><time>2026-03-22T09:44:35Z</time></trkpt><trkpt lat="38.4279566512139" lon="16.302049305570197"><ele>1095.1999999999998</ele><time>2026-03-22T09:44:37Z</time></trkpt><trkpt lat="38.42805248660995" lon="16.30194103901053"><ele>1095.6</ele><time>2026-03-22T09:44:39Z</time></trkpt><trkpt lat="38.42810562626997" lon="16.30189120958571"><ele>1096.0</ele><time>2026-03-22T09:44:40Z</time></trkpt><trkpt lat="38.42820691043353" lon="16.30182353306407"><ele>1096.0</ele><time>2026-03-22T09:44:42Z</time></trkpt><trkpt lat="38.42830075290116" lon="16.301755991139373"><ele>1096.0</ele><time>2026-03-22T09:44:44Z</time></trkpt><trkpt lat="38.42841105283341" lon="16.30170878621812"><ele>1096.0</ele><time>2026-03-22T09:44:46Z</time></trkpt><trkpt lat="38.42848280259845" lon="16.301709551301496"><ele>1096.0</ele><time>2026-03-22T09:44:47Z</time></trkpt><trkpt lat="38.428597305489774" lon="16.301722681690002"><ele>1096.0</ele><time>2026-03-22T09:44:49Z</time></trkpt><trkpt lat="38.42871519687361" lon="16.301778442316078"><ele>1098.3999999999999</ele><time>2026-03-22T09:44:51Z</time></trkpt><trkpt lat="38.42884636117783" lon="16.30178616108259"><ele>1100.8</ele><time>2026-03-22T09:44:53Z</time></trkpt><trkpt lat="38.428933065169176" lon="16.301798927461057"><ele>1103.1999999999998</ele><time>2026-03-22T09:44:54Z</time></trkpt><trkpt lat="38.4290216664964" lon="16.301805343731118"><ele>1105.6</ele><time>2026-03-22T09:44:55Z</time></trkpt><trkpt lat="38.42909301899449" lon="16.301787474073173"><ele>1108.0</ele><time>2026-03-22T09:44:56Z</time></trkpt><trkpt lat="38.429170047021714" lon="16.30178797721147"><ele>1108.0</ele><time>2026-03-22T09:44:57Z</time></trkpt><trkpt lat="38.429241828419144" lon="16.30177493580562"><ele>1108.0</ele><time>2026-03-22T09:44:58Z</time></trkpt><trkpt lat="38.42932307575828" lon="16.30175030285649"><ele>1108.0</ele><time>2026-03-22T09:44:59Z</time></trkpt><trkpt lat="38.42945050113002" lon="16.301717996768915"><ele>1108.0</ele><time>2026-03-22T09:45:01Z</time></trkpt><trkpt lat="38.42952553784298" lon="16.301714858474877"><ele>1108.0</ele><time>2026-03-22T09:45:02Z</time></trkpt><trkpt lat="38.429590358240624" lon="16.30170908397648"><ele>1108.0</ele><time>2026-03-22T09:45:03Z</time></trkpt><trkpt lat="38.42967618146022" lon="16.30169559347495"><ele>1110.2</ele><time>2026-03-22T09:45:05Z</time></trkpt><trkpt lat="38.42974373318372" lon="16.301704381305605"><ele>1112.4</ele><time>2026-03-22T09:45:06Z</time></trkpt><trkpt lat="38.429829005230076" lon="16.30174120984402"><ele>1114.6000000000001</ele><time>2026-03-22T09:45:08Z</time></trkpt><trkpt lat="38.42989451842913" lon="16.301823003590673"><ele>1116.8</ele><time>2026-03-22T09:45:10Z</time></trkpt><trkpt lat="38.42995310355839" lon="16.301917760493364"><ele>1119.0</ele><time>2026-03-22T09:45:12Z</time></trkpt><trkpt lat="38.43000693801842" lon="16.301788072433105"><ele>1119.0</ele><time>2026-03-22T09:45:14Z</time></trkpt><trkpt lat="38.43004012766744" lon="16.301682249264097"><ele>1119.0</ele><time>2026-03-22T09:45:16Z</time></trkpt><trkpt lat="38.430035477910344" lon="16.301523558296036"><ele>1119.0</ele><time>2026-03-22T09:45:18Z</time></trkpt><trkpt lat="38.43003576074865" lon="16.301418417060447"><ele>1119.0</ele><time>2026-03-22T09:45:19Z</time></trkpt><trkpt lat="38.43000683485968" lon="16.301337901646374"><ele>1119.0</ele><time>2026-03-22T09:45:20Z</time></trkpt><trkpt lat="38.429998601652315" lon="16.30124946637236"><ele>1119.0</ele><time>2026-03-22T09:45:21Z</time></trkpt><trkpt lat="38.42999281287853" lon="16.301153131063394"><ele>1116.6000000000001</ele><time>2026-03-22T09:45:22Z</time></trkpt><trkpt lat="38.43000476861778" lon="16.30103730024776"><ele>1114.2</ele><time>2026-03-22T09:45:24Z</time></trkpt><trkpt lat="38.43007533635921" lon="16.30089757534836"><ele>1111.8000000000002</ele><time>2026-03-22T09:45:26Z</time></trkpt><trkpt lat="38.430125869881536" lon="16.300830524063926"><ele>1109.4</ele><time>2026-03-22T09:45:28Z</time></trkpt><trkpt lat="38.43021744074903" lon="16.30078050988851"><ele>1107.0</ele><time>2026-03-22T09:45:30Z</time></trkpt><trkpt lat="38.43030334366486" lon="16.30069156195405"><ele>1107.0</ele><time>2026-03-22T09:45:32Z</time></trkpt><trkpt lat="38.43037129164003" lon="16.300681596069484"><ele>1107.0</ele><time>2026-03-22T09:45:34Z</time></trkpt><trkpt lat="38.430454319830964" lon="16.30067058198522"><ele>1107.0</ele><time>2026-03-22T09:45:36Z</time></trkpt><trkpt lat="38.430578463588006" lon="16.30071893476033"><ele>1107.0</ele><time>2026-03-22T09:45:38Z</time></trkpt><trkpt lat="38.430646069488795" lon="16.30073588449269"><ele>1107.0</ele><time>2026-03-22T09:45:39Z</time></trkpt><trkpt lat="38.43075594853588" lon="16.300780150526737"><ele>1108.142857142857</ele><time>2026-03-22T09:45:41Z</time></trkpt><trkpt lat="38.43081510244436" lon="16.300821410140326"><ele>1109.2857142857142</ele><time>2026-03-22T09:45:43Z</time></trkpt><trkpt lat="38.43089315244859" lon="16.3007640019936"><ele>1110.4285714285713</ele><time>2026-03-22T09:45:46Z</time></trkpt><trkpt lat="38.43093503609713" lon="16.300700818588545"><ele>1111.5714285714284</ele><time>2026-03-22T09:45:47Z</time></trkpt><trkpt lat="38.43098806154227" lon="16.300649227756892"><ele>1112.7142857142856</ele><time>2026-03-22T09:45:48Z</time></trkpt><trkpt lat="38.43105074638154" lon="16.30059893970894"><ele>1113.857142857143</ele><time>2026-03-22T09:45:49Z</time></trkpt><trkpt lat="38.43111679412721" lon="16.300540998834027"><ele>1115.0</ele><time>2026-03-22T09:45:50Z</time></trkpt><trkpt lat="38.43121005718444" lon="16.300497368838975"><ele>1115.0</ele><time>2026-03-22T09:45:51Z</time></trkpt><trkpt lat="38.431289782533625" lon="16.300471549463882"><ele>1115.0</ele><time>2026-03-22T09:45:52Z</time></trkpt><trkpt lat="38.43137562099945" lon="16.30045056452154"><ele>1115.0</ele><time>2026-03-22T09:45:53Z</time></trkpt><trkpt lat="38.431459133277386" lon="16.300432242419785"><ele>1115.0</ele><time>2026-03-22T09:45:54Z</time></trkpt><trkpt lat="38.43154911181134" lon="16.300412501668006"><ele>1115.0</ele><time>2026-03-22T09:45:55Z</time></trkpt><trkpt lat="38.43164684235456" lon="16.300397611837422"><ele>1115.0</ele><time>2026-03-22T09:45:56Z</time></trkpt><trkpt lat="38.43175717075355" lon="16.300394427475904"><ele>1117.2</ele><time>2026-03-22T09:45:57Z</time></trkpt><trkpt lat="38.431846343496815" lon="16.300371934374407"><ele>1119.4</ele><time>2026-03-22T09:45:58Z</time></trkpt><trkpt lat="38.43192795423113" lon="16.300322373161297"><ele>1121.6</ele><time>2026-03-22T09:45:59Z</time></trkpt><trkpt lat="38.43200142202097" lon="16.300262026437615"><ele>1123.8</ele><time>2026-03-22T09:46:00Z</time></trkpt><trkpt lat="38.43208483259333" lon="16.300202903537965"><ele>1126.0</ele><time>2026-03-22T09:46:01Z</time></trkpt><trkpt lat="38.432147364924056" lon="16.300125203960594"><ele>1126.0</ele><time>2026-03-22T09:46:02Z</time></trkpt><trkpt lat="38.43221548051799" lon="16.300015559026157"><ele>1126.0</ele><time>2026-03-22T09:46:03Z</time></trkpt><trkpt lat="38.432274904053806" lon="16.299914436644457"><ele>1126.0</ele><time>2026-03-22T09:46:04Z</time></trkpt><trkpt lat="38.432325871469885" lon="16.29980212576783"><ele>1126.0</ele><time>2026-03-22T09:46:05Z</time></trkpt><trkpt lat="38.43241811053691" lon="16.299703458817536"><ele>1126.0</ele><time>2026-03-22T09:46:06Z</time></trkpt><trkpt lat="38.43249107077281" lon="16.29961082239855"><ele>1126.2</ele><time>2026-03-22T09:46:07Z</time></trkpt><trkpt lat="38.432576882455436" lon="16.29951755364916"><ele>1126.3999999999999</ele><time>2026-03-22T09:46:08Z</time></trkpt><trkpt lat="38.432634795388886" lon="16.299442074430527"><ele>1126.6</ele><time>2026-03-22T09:46:09Z</time></trkpt><trkpt lat="38.43271911622056" lon="16.299401255216534"><ele>1126.8</ele><time>2026-03-22T09:46:10Z</time></trkpt><trkpt lat="38.43280285563668" lon="16.299323207124928"><ele>1127.0</ele><time>2026-03-22T09:46:11Z</time></trkpt><trkpt lat="38.43291126472555" lon="16.29923467007345"><ele>1126.2</ele><time>2026-03-22T09:46:12Z</time></trkpt><trkpt lat="38.433002147045336" lon="16.299173327672243"><ele>1125.4</ele><time>2026-03-22T09:46:13Z</time></trkpt><trkpt lat="38.43309497283603" lon="16.299086809633895"><ele>1124.6</ele><time>2026-03-22T09:46:14Z</time></trkpt><trkpt lat="38.433194849818896" lon="16.299011184300003"><ele>1123.8</ele><time>2026-03-22T09:46:15Z</time></trkpt><trkpt lat="38.43328130404146" lon="16.298933014993004"><ele>1123.0</ele><time>2026-03-22T09:46:16Z</time></trkpt><trkpt lat="38.433371253801276" lon="16.298862610905196"><ele>1120.75</ele><time>2026-03-22T09:46:17Z</time></trkpt><trkpt lat="38.433444626682885" lon="16.298824708621712"><ele>1118.5</ele><time>2026-03-22T09:46:18Z</time></trkpt><trkpt lat="38.43353947392972" lon="16.29872167615633"><ele>1116.25</ele><time>2026-03-22T09:46:19Z</time></trkpt><trkpt lat="38.43364202294867" lon="16.298628992963184"><ele>1114.0</ele><time>2026-03-22T09:46:20Z</time></trkpt><trkpt lat="38.43375799300751" lon="16.298553905001487"><ele>1115.4</ele><time>2026-03-22T09:46:21Z</time></trkpt><trkpt lat="38.43385207909414" lon="16.2984788338551"><ele>1116.8000000000002</ele><time>2026-03-22T09:46:22Z</time></trkpt><trkpt lat="38.433946465147685" lon="16.2983979852917"><ele>1118.1999999999998</ele><time>2026-03-22T09:46:23Z</time></trkpt><trkpt lat="38.434032948517014" lon="16.29831919482104"><ele>1119.6</ele><time>2026-03-22T09:46:24Z</time></trkpt><trkpt lat="38.43411116239419" lon="16.29824449083327"><ele>1121.0</ele><time>2026-03-22T09:46:25Z</time></trkpt><trkpt lat="38.434185506170365" lon="16.298159434846884"><ele>1119.8</ele><time>2026-03-22T09:46:26Z</time></trkpt><trkpt lat="38.4342517891594" lon="16.298048865595394"><ele>1118.6</ele><time>2026-03-22T09:46:27Z</time></trkpt><trkpt lat="38.43430925914035" lon="16.29793190217288"><ele>1117.4</ele><time>2026-03-22T09:46:28Z</time></trkpt><trkpt lat="38.43434745649892" lon="16.297807737560145"><ele>1116.2</ele><time>2026-03-22T09:46:29Z</time></trkpt><trkpt lat="38.43436791819061" lon="16.29766982164185"><ele>1115.0</ele><time>2026-03-22T09:46:30Z</time></trkpt><trkpt lat="38.434407550278515" lon="16.29750711269187"><ele>1115.0</ele><time>2026-03-22T09:46:31Z</time></trkpt><trkpt lat="38.43444932134182" lon="16.297365055488218"><ele>1115.0</ele><time>2026-03-22T09:46:32Z</time></trkpt><trkpt lat="38.434477478494316" lon="16.297215131445597"><ele>1115.0</ele><time>2026-03-22T09:46:33Z</time></trkpt><trkpt lat="38.43449628210735" lon="16.297029855381442"><ele>1115.0</ele><time>2026-03-22T09:46:34Z</time></trkpt><trkpt lat="38.43452872643117" lon="16.296907773957535"><ele>1114.4</ele><time>2026-03-22T09:46:35Z</time></trkpt><trkpt lat="38.434568011910685" lon="16.296773660494917"><ele>1113.8</ele><time>2026-03-22T09:46:36Z</time></trkpt><trkpt lat="38.43460980529343" lon="16.29667118923884"><ele>1113.2</ele><time>2026-03-22T09:46:37Z</time></trkpt><trkpt lat="38.43465780011791" lon="16.296558721817878"><ele>1112.6</ele><time>2026-03-22T09:46:38Z</time></trkpt><trkpt lat="38.43472846253161" lon="16.29645557362165"><ele>1112.0</ele><time>2026-03-22T09:46:39Z</time></trkpt><trkpt lat="38.434820766136816" lon="16.296386662130416"><ele>1114.25</ele><time>2026-03-22T09:46:40Z</time></trkpt><trkpt lat="38.43492293613098" lon="16.296326114737138"><ele>1116.5</ele><time>2026-03-22T09:46:41Z</time></trkpt><trkpt lat="38.43502991441412" lon="16.29626709824062"><ele>1118.75</ele><time>2026-03-22T09:46:42Z</time></trkpt><trkpt lat="38.435144376406676" lon="16.296209059041693"><ele>1121.0</ele><time>2026-03-22T09:46:43Z</time></trkpt><trkpt lat="38.43524958899367" lon="16.29614743874244"><ele>1121.0</ele><time>2026-03-22T09:46:44Z</time></trkpt><trkpt lat="38.43534912993202" lon="16.29606821766305"><ele>1121.0</ele><time>2026-03-22T09:46:45Z</time></trkpt><trkpt lat="38.43545417100936" lon="16.295996446020354"><ele>1121.0</ele><time>2026-03-22T09:46:46Z</time></trkpt><trkpt lat="38.43556241050793" lon="16.295925733360026"><ele>1121.0</ele><time>2026-03-22T09:46:47Z</time></trkpt><trkpt lat="38.43568302101329" lon="16.29585260580526"><ele>1121.0</ele><time>2026-03-22T09:46:48Z</time></trkpt><trkpt lat="38.43580829191421" lon="16.2957649931834"><ele>1121.0</ele><time>2026-03-22T09:46:49Z</time></trkpt><trkpt lat="38.435930074595724" lon="16.29565904639081"><ele>1121.0</ele><time>2026-03-22T09:46:50Z</time></trkpt><trkpt lat="38.43605277241044" lon="16.295568877978333"><ele>1121.0</ele><time>2026-03-22T09:46:51Z</time></trkpt><trkpt lat="38.43616743919795" lon="16.295462048025467"><ele>1121.0</ele><time>2026-03-22T09:46:52Z</time></trkpt><trkpt lat="38.436282295913564" lon="16.295385685588958"><ele>1121.0</ele><time>2026-03-22T09:46:53Z</time></trkpt><trkpt lat="38.436388900299896" lon="16.29530314250104"><ele>1121.0</ele><time>2026-03-22T09:46:54Z</time></trkpt><trkpt lat="38.43648309035122" lon="16.2952245137536"><ele>1121.0</ele><time>2026-03-22T09:46:55Z</time></trkpt><trkpt lat="38.43657679596265" lon="16.295164611084285"><ele>1122.6</ele><time>2026-03-22T09:46:56Z</time></trkpt><trkpt lat="38.43667370908352" lon="16.295109884248383"><ele>1124.1999999999998</ele><time>2026-03-22T09:46:57Z</time></trkpt><trkpt lat="38.43676883135851" lon="16.295061910273674"><ele>1125.8000000000002</ele><time>2026-03-22T09:46:58Z</time></trkpt><trkpt lat="38.436862046012145" lon="16.295027470364097"><ele>1127.4</ele><time>2026-03-22T09:46:59Z</time></trkpt><trkpt lat="38.436969086732915" lon="16.294997867176512"><ele>1129.0</ele><time>2026-03-22T09:47:00Z</time></trkpt><trkpt lat="38.43707410503244" lon="16.294998323136344"><ele>1130.6000000000001</ele><time>2026-03-22T09:47:01Z</time></trkpt><trkpt lat="38.43717428307413" lon="16.29498375213522"><ele>1132.2</ele><time>2026-03-22T09:47:02Z</time></trkpt><trkpt lat="38.43727305861502" lon="16.294970012679507"><ele>1133.8000000000002</ele><time>2026-03-22T09:47:03Z</time></trkpt><trkpt lat="38.43738843585252" lon="16.294933630239562"><ele>1135.4</ele><time>2026-03-22T09:47:04Z</time></trkpt><trkpt lat="38.43749763015421" lon="16.294963484002466"><ele>1137.0</ele><time>2026-03-22T09:47:05Z</time></trkpt><trkpt lat="38.4376306408397" lon="16.294941585219274"><ele>1137.0</ele><time>2026-03-22T09:47:06Z</time></trkpt><trkpt lat="38.437720356526626" lon="16.294929105968603"><ele>1137.0</ele><time>2026-03-22T09:47:07Z</time></trkpt><trkpt lat="38.43781055634322" lon="16.294913122185665"><ele>1137.0</ele><time>2026-03-22T09:47:08Z</time></trkpt><trkpt lat="38.43790564102583" lon="16.294889921583042"><ele>1137.0</ele><time>2026-03-22T09:47:09Z</time></trkpt><trkpt lat="38.43799454101076" lon="16.29485146489613"><ele>1137.0</ele><time>2026-03-22T09:47:10Z</time></trkpt><trkpt lat="38.438070577318136" lon="16.294798743481913"><ele>1137.0</ele><time>2026-03-22T09:47:11Z</time></trkpt><trkpt lat="38.4381447976478" lon="16.294721195911645"><ele>1137.0</ele><time>2026-03-22T09:47:12Z</time></trkpt><trkpt lat="38.43821276713489" lon="16.294628095718977"><ele>1137.0</ele><time>2026-03-22T09:47:13Z</time></trkpt><trkpt lat="38.43827557357358" lon="16.29452964743014"><ele>1137.0</ele><time>2026-03-22T09:47:14Z</time></trkpt><trkpt lat="38.43834831928174" lon="16.29440681286885"><ele>1137.0</ele><time>2026-03-22T09:47:15Z</time></trkpt><trkpt lat="38.43842906160958" lon="16.294260962468247"><ele>1137.0</ele><time>2026-03-22T09:47:16Z</time></trkpt><trkpt lat="38.43849179178801" lon="16.294129238552962"><ele>1137.0</ele><time>2026-03-22T09:47:17Z</time></trkpt><trkpt lat="38.438534432909286" lon="16.294004233531215"><ele>1137.0</ele><time>2026-03-22T09:47:18Z</time></trkpt><trkpt lat="38.43856770966208" lon="16.29387189886666"><ele>1137.0</ele><time>2026-03-22T09:47:19Z</time></trkpt><trkpt lat="38.438584143831434" lon="16.29373330676681"><ele>1137.0</ele><time>2026-03-22T09:47:20Z</time></trkpt><trkpt lat="38.43858926481892" lon="16.293573481142516"><ele>1138.5</ele><time>2026-03-22T09:47:21Z</time></trkpt><trkpt lat="38.438588251328994" lon="16.29340443687558"><ele>1140.0</ele><time>2026-03-22T09:47:22Z</time></trkpt><trkpt lat="38.438587754648225" lon="16.293233509131085"><ele>1141.5</ele><time>2026-03-22T09:47:23Z</time></trkpt><trkpt lat="38.43858694234319" lon="16.2930527796698"><ele>1143.0</ele><time>2026-03-22T09:47:24Z</time></trkpt><trkpt lat="38.43857688541105" lon="16.292890306647276"><ele>1144.3333333333333</ele><time>2026-03-22T09:47:25Z</time></trkpt><trkpt lat="38.43856673815549" lon="16.292694719313303"><ele>1145.6666666666665</ele><time>2026-03-22T09:47:26Z</time></trkpt><trkpt lat="38.43855921112325" lon="16.292495244199348"><ele>1147.0</ele><time>2026-03-22T09:47:27Z</time></trkpt><trkpt lat="38.43854878760158" lon="16.292293550837883"><ele>1147.75</ele><time>2026-03-22T09:47:28Z</time></trkpt><trkpt lat="38.43854080509835" lon="16.292095018509304"><ele>1148.5</ele><time>2026-03-22T09:47:29Z</time></trkpt><trkpt lat="38.438540079390755" lon="16.29190537171316"><ele>1149.25</ele><time>2026-03-22T09:47:30Z</time></trkpt><trkpt lat="38.43853115377807" lon="16.291726468033648"><ele>1150.0</ele><time>2026-03-22T09:47:31Z</time></trkpt><trkpt lat="38.43852827245562" lon="16.291563727388862"><ele>1150.5</ele><time>2026-03-22T09:47:32Z</time></trkpt><trkpt lat="38.43851752360559" lon="16.29141076848568"><ele>1151.0</ele><time>2026-03-22T09:47:33Z</time></trkpt><trkpt lat="38.43853104885529" lon="16.291280502828233"><ele>1151.5</ele><time>2026-03-22T09:47:34Z</time></trkpt><trkpt lat="38.4385598230541" lon="16.29118531283059"><ele>1152.0</ele><time>2026-03-22T09:47:35Z</time></trkpt><trkpt lat="38.43860077653955" lon="16.290977956718503"><ele>1152.0</ele><time>2026-03-22T09:47:37Z</time></trkpt><trkpt lat="38.43864746587377" lon="16.290888327750938"><ele>1152.0</ele><time>2026-03-22T09:47:38Z</time></trkpt><trkpt lat="38.43869778939429" lon="16.290775199522532"><ele>1152.0</ele><time>2026-03-22T09:47:39Z</time></trkpt><trkpt lat="38.4387441625757" lon="16.290667290052294"><ele>1152.0</ele><time>2026-03-22T09:47:40Z</time></trkpt><trkpt lat="38.438760517208415" lon="16.290534898254403"><ele>1152.0</ele><time>2026-03-22T09:47:41Z</time></trkpt><trkpt lat="38.43877658755029" lon="16.290409262955137"><ele>1153.2</ele><time>2026-03-22T09:47:42Z</time></trkpt><trkpt lat="38.43880519301216" lon="16.290287728173833"><ele>1154.4</ele><time>2026-03-22T09:47:43Z</time></trkpt><trkpt lat="38.43883865671135" lon="16.29015048002633"><ele>1155.6</ele><time>2026-03-22T09:47:44Z</time></trkpt><trkpt lat="38.43886647362096" lon="16.29003694010105"><ele>1156.8</ele><time>2026-03-22T09:47:45Z</time></trkpt><trkpt lat="38.438907268584416" lon="16.289913282070145"><ele>1158.0</ele><time>2026-03-22T09:47:46Z</time></trkpt><trkpt lat="38.4389730279365" lon="16.289825922999473"><ele>1158.2</ele><time>2026-03-22T09:47:47Z</time></trkpt><trkpt lat="38.43904838062144" lon="16.289729894266955"><ele>1158.4</ele><time>2026-03-22T09:47:48Z</time></trkpt><trkpt lat="38.439131094639464" lon="16.289647173897606"><ele>1158.6000000000001</ele><time>2026-03-22T09:47:49Z</time></trkpt><trkpt lat="38.43920859159622" lon="16.289564315669722"><ele>1158.8</ele><time>2026-03-22T09:47:50Z</time></trkpt><trkpt lat="38.43929519171977" lon="16.28946543435497"><ele>1159.0</ele><time>2026-03-22T09:47:51Z</time></trkpt><trkpt lat="38.43936487548583" lon="16.28937881387855"><ele>1159.0</ele><time>2026-03-22T09:47:52Z</time></trkpt><trkpt lat="38.43943237792878" lon="16.289280157994718"><ele>1159.0</ele><time>2026-03-22T09:47:53Z</time></trkpt><trkpt lat="38.43948564691943" lon="16.2891762265669"><ele>1159.0</ele><time>2026-03-22T09:47:54Z</time></trkpt><trkpt lat="38.43953129486876" lon="16.289074984242365"><ele>1159.0</ele><time>2026-03-22T09:47:55Z</time></trkpt><trkpt lat="38.4395694461861" lon="16.28897188168027"><ele>1159.0</ele><time>2026-03-22T09:47:56Z</time></trkpt><trkpt lat="38.43960157380995" lon="16.28886000390733"><ele>1158.6000000000001</ele><time>2026-03-22T09:47:57Z</time></trkpt><trkpt lat="38.43962367594046" lon="16.288745966339345"><ele>1158.2</ele><time>2026-03-22T09:47:58Z</time></trkpt><trkpt lat="38.43963480427821" lon="16.28863251983755"><ele>1157.8000000000002</ele><time>2026-03-22T09:47:59Z</time></trkpt><trkpt lat="38.43962988551678" lon="16.28847283539088"><ele>1157.4</ele><time>2026-03-22T09:48:00Z</time></trkpt><trkpt lat="38.43961032763643" lon="16.2883261473529"><ele>1157.0</ele><time>2026-03-22T09:48:01Z</time></trkpt><trkpt lat="38.4395844363825" lon="16.288170717521048"><ele>1155.5</ele><time>2026-03-22T09:48:02Z</time></trkpt><trkpt lat="38.43955968753106" lon="16.288030743369667"><ele>1154.0</ele><time>2026-03-22T09:48:03Z</time></trkpt><trkpt lat="38.43954978959195" lon="16.28788194564286"><ele>1152.5</ele><time>2026-03-22T09:48:04Z</time></trkpt><trkpt lat="38.439488661008184" lon="16.2877000982143"><ele>1151.0</ele><time>2026-03-22T09:48:05Z</time></trkpt><trkpt lat="38.43945547905185" lon="16.287551977752965"><ele>1151.0</ele><time>2026-03-22T09:48:06Z</time></trkpt><trkpt lat="38.439432921749535" lon="16.28740030894618"><ele>1151.0</ele><time>2026-03-22T09:48:07Z</time></trkpt><trkpt lat="38.439397488744355" lon="16.28726299527463"><ele>1151.0</ele><time>2026-03-22T09:48:08Z</time></trkpt><trkpt lat="38.43934187655728" lon="16.287157983587136"><ele>1151.0</ele><time>2026-03-22T09:48:09Z</time></trkpt><trkpt lat="38.43928479998288" lon="16.287034809903258"><ele>1151.0</ele><time>2026-03-22T09:48:10Z</time></trkpt><trkpt lat="38.43925432278843" lon="16.28692836024547"><ele>1150.6</ele><time>2026-03-22T09:48:11Z</time></trkpt><trkpt lat="38.439253292341434" lon="16.286814116033018"><ele>1150.1999999999998</ele><time>2026-03-22T09:48:12Z</time></trkpt><trkpt lat="38.43925538832213" lon="16.286705477421172"><ele>1149.8000000000002</ele><time>2026-03-22T09:48:13Z</time></trkpt><trkpt lat="38.43928988600923" lon="16.286596692789526"><ele>1149.4</ele><time>2026-03-22T09:48:14Z</time></trkpt><trkpt lat="38.43936812486608" lon="16.286506590524276"><ele>1149.0</ele><time>2026-03-22T09:48:15Z</time></trkpt><trkpt lat="38.439438900897954" lon="16.286407244564103"><ele>1151.0</ele><time>2026-03-22T09:48:16Z</time></trkpt><trkpt lat="38.43952641270055" lon="16.286328390002673"><ele>1153.0</ele><time>2026-03-22T09:48:17Z</time></trkpt><trkpt lat="38.43959785210526" lon="16.28623259903177"><ele>1155.0</ele><time>2026-03-22T09:48:18Z</time></trkpt><trkpt lat="38.43964793443889" lon="16.28615338798284"><ele>1157.0</ele><time>2026-03-22T09:48:19Z</time></trkpt><trkpt lat="38.43970749098919" lon="16.286077926239113"><ele>1159.0</ele><time>2026-03-22T09:48:20Z</time></trkpt><trkpt lat="38.4397164617261" lon="16.285943300819554"><ele>1159.0</ele><time>2026-03-22T09:48:21Z</time></trkpt><trkpt lat="38.439723473160356" lon="16.285804554561178"><ele>1159.0</ele><time>2026-03-22T09:48:22Z</time></trkpt><trkpt lat="38.439747754622196" lon="16.28563059900804"><ele>1159.0</ele><time>2026-03-22T09:48:23Z</time></trkpt><trkpt lat="38.439783357539646" lon="16.28547212704341"><ele>1159.0</ele><time>2026-03-22T09:48:24Z</time></trkpt><trkpt lat="38.439836918692414" lon="16.28530248962327"><ele>1157.0</ele><time>2026-03-22T09:48:25Z</time></trkpt><trkpt lat="38.439914474827134" lon="16.285175000751675"><ele>1155.0</ele><time>2026-03-22T09:48:26Z</time></trkpt><trkpt lat="38.4399744314594" lon="16.285040837616087"><ele>1153.0</ele><time>2026-03-22T09:48:27Z</time></trkpt><trkpt lat="38.44006654572026" lon="16.284963017029575"><ele>1151.0</ele><time>2026-03-22T09:48:28Z</time></trkpt><trkpt lat="38.44012454648253" lon="16.284869351529995"><ele>1151.0</ele><time>2026-03-22T09:48:29Z</time></trkpt><trkpt lat="38.44015659254509" lon="16.284792208348584"><ele>1151.0</ele><time>2026-03-22T09:48:30Z</time></trkpt><trkpt lat="38.440184775986765" lon="16.28469307585224"><ele>1151.0</ele><time>2026-03-22T09:48:31Z</time></trkpt><trkpt lat="38.44019837617783" lon="16.284556950783745"><ele>1151.0</ele><time>2026-03-22T09:48:32Z</time></trkpt><trkpt lat="38.44020327807005" lon="16.284417359499006"><ele>1151.0</ele><time>2026-03-22T09:48:33Z</time></trkpt><trkpt lat="38.44020136685469" lon="16.284278615993657"><ele>1150.25</ele><time>2026-03-22T09:48:34Z</time></trkpt><trkpt lat="38.44018145226172" lon="16.284145380896046"><ele>1149.5</ele><time>2026-03-22T09:48:35Z</time></trkpt><trkpt lat="38.440138788362226" lon="16.28397188129826"><ele>1148.75</ele><time>2026-03-22T09:48:36Z</time></trkpt><trkpt lat="38.44007880095803" lon="16.283794982775472"><ele>1148.0</ele><time>2026-03-22T09:48:37Z</time></trkpt><trkpt lat="38.44001397091511" lon="16.283588509681618"><ele>1147.6666666666667</ele><time>2026-03-22T09:48:38Z</time></trkpt><trkpt lat="38.439963154736795" lon="16.28334494225478"><ele>1147.3333333333333</ele><time>2026-03-22T09:48:39Z</time></trkpt><trkpt lat="38.439919538374674" lon="16.283113949708582"><ele>1147.0</ele><time>2026-03-22T09:48:40Z</time></trkpt><trkpt lat="38.43984269009661" lon="16.282918251033344"><ele>1147.0</ele><time>2026-03-22T09:48:41Z</time></trkpt><trkpt lat="38.43975105762016" lon="16.282754983321333"><ele>1147.0</ele><time>2026-03-22T09:48:42Z</time></trkpt><trkpt lat="38.439676764110175" lon="16.282563773734523"><ele>1147.0</ele><time>2026-03-22T09:48:43Z</time></trkpt><trkpt lat="38.43960939589947" lon="16.282370913603682"><ele>1149.8</ele><time>2026-03-22T09:48:44Z</time></trkpt><trkpt lat="38.439548129867816" lon="16.282230139358195"><ele>1152.6</ele><time>2026-03-22T09:48:45Z</time></trkpt><trkpt lat="38.43949644973527" lon="16.282103725699045"><ele>1155.3999999999999</ele><time>2026-03-22T09:48:46Z</time></trkpt><trkpt lat="38.43947747002521" lon="16.281993205909775"><ele>1158.2</ele><time>2026-03-22T09:48:47Z</time></trkpt><trkpt lat="38.43945424982858" lon="16.281880127507456"><ele>1161.0</ele><time>2026-03-22T09:48:48Z</time></trkpt><trkpt lat="38.439464706544" lon="16.281761755410784"><ele>1161.0</ele><time>2026-03-22T09:48:49Z</time></trkpt><trkpt lat="38.439512860661054" lon="16.28166290606307"><ele>1161.0</ele><time>2026-03-22T09:48:50Z</time></trkpt><trkpt lat="38.439529833219375" lon="16.281540572720314"><ele>1161.0</ele><time>2026-03-22T09:48:51Z</time></trkpt><trkpt lat="38.4396167222982" lon="16.28144523381046"><ele>1161.0</ele><time>2026-03-22T09:48:52Z</time></trkpt><trkpt lat="38.439664169856094" lon="16.28132767087025"><ele>1161.0</ele><time>2026-03-22T09:48:53Z</time></trkpt><trkpt lat="38.43970540108195" lon="16.281193729980657"><ele>1161.5</ele><time>2026-03-22T09:48:54Z</time></trkpt><trkpt lat="38.43979042738567" lon="16.281032054969348"><ele>1162.0</ele><time>2026-03-22T09:48:55Z</time></trkpt><trkpt lat="38.439822257335855" lon="16.280847602491566"><ele>1162.5</ele><time>2026-03-22T09:48:56Z</time></trkpt><trkpt lat="38.43985549074528" lon="16.280711401070626"><ele>1163.0</ele><time>2026-03-22T09:48:57Z</time></trkpt><trkpt lat="38.43992253658312" lon="16.280573702204656"><ele>1163.0</ele><time>2026-03-22T09:48:58Z</time></trkpt><trkpt lat="38.439968436024884" lon="16.28043951843062"><ele>1163.0</ele><time>2026-03-22T09:48:59Z</time></trkpt><trkpt lat="38.44002349458842" lon="16.280315715011245"><ele>1163.0</ele><time>2026-03-22T09:49:00Z</time></trkpt><trkpt lat="38.44003436713552" lon="16.280201914233334"><ele>1163.0</ele><time>2026-03-22T09:49:01Z</time></trkpt><trkpt lat="38.44004707437385" lon="16.28009506509306"><ele>1163.0</ele><time>2026-03-22T09:49:02Z</time></trkpt><trkpt lat="38.44001583685978" lon="16.279961288858615"><ele>1163.0</ele><time>2026-03-22T09:49:03Z</time></trkpt><trkpt lat="38.43997125147822" lon="16.279862766793173"><ele>1163.0</ele><time>2026-03-22T09:49:04Z</time></trkpt><trkpt lat="38.43991595589011" lon="16.279777981788616"><ele>1163.0</ele><time>2026-03-22T09:49:05Z</time></trkpt><trkpt lat="38.43986551031926" lon="16.279686877224645"><ele>1163.0</ele><time>2026-03-22T09:49:06Z</time></trkpt><trkpt lat="38.43980928389884" lon="16.27959483219567"><ele>1163.0</ele><time>2026-03-22T09:49:07Z</time></trkpt><trkpt lat="38.43977342955603" lon="16.27945636157433"><ele>1162.25</ele><time>2026-03-22T09:49:08Z</time></trkpt><trkpt lat="38.439772706808235" lon="16.279299009782775"><ele>1161.5</ele><time>2026-03-22T09:49:09Z</time></trkpt><trkpt lat="38.43979009877572" lon="16.27913029410528"><ele>1160.75</ele><time>2026-03-22T09:49:10Z</time></trkpt><trkpt lat="38.439816356839366" lon="16.278987259047064"><ele>1160.0</ele><time>2026-03-22T09:49:11Z</time></trkpt><trkpt lat="38.43987326686105" lon="16.278837603997776"><ele>1162.25</ele><time>2026-03-22T09:49:12Z</time></trkpt><trkpt lat="38.43993598237489" lon="16.2787203507624"><ele>1164.5</ele><time>2026-03-22T09:49:13Z</time></trkpt><trkpt lat="38.439991566484956" lon="16.27860384019248"><ele>1166.75</ele><time>2026-03-22T09:49:14Z</time></trkpt><trkpt lat="38.440081166565996" lon="16.27850083671772"><ele>1169.0</ele><time>2026-03-22T09:49:15Z</time></trkpt><trkpt lat="38.44019735747211" lon="16.278454631477945"><ele>1169.0</ele><time>2026-03-22T09:49:16Z</time></trkpt><trkpt lat="38.440327884299435" lon="16.278482847280024"><ele>1169.0</ele><time>2026-03-22T09:49:17Z</time></trkpt><trkpt lat="38.4404464648192" lon="16.27850678273349"><ele>1169.0</ele><time>2026-03-22T09:49:18Z</time></trkpt><trkpt lat="38.440555824432295" lon="16.27852825172088"><ele>1169.0</ele><time>2026-03-22T09:49:19Z</time></trkpt><trkpt lat="38.44069064675253" lon="16.278546993148947"><ele>1165.5</ele><time>2026-03-22T09:49:20Z</time></trkpt><trkpt lat="38.44081258462761" lon="16.2785599011365"><ele>1162.0</ele><time>2026-03-22T09:49:21Z</time></trkpt><trkpt lat="38.44092724249679" lon="16.278561572503996"><ele>1158.5</ele><time>2026-03-22T09:49:22Z</time></trkpt><trkpt lat="38.44105776557882" lon="16.27850803683541"><ele>1155.0</ele><time>2026-03-22T09:49:24Z</time></trkpt><trkpt lat="38.44109742986716" lon="16.27842603201623"><ele>1155.0</ele><time>2026-03-22T09:49:25Z</time></trkpt><trkpt lat="38.441207566983046" lon="16.27831396424384"><ele>1155.0</ele><time>2026-03-22T09:49:26Z</time></trkpt><trkpt lat="38.44130492365902" lon="16.27824511813189"><ele>1155.0</ele><time>2026-03-22T09:49:27Z</time></trkpt><trkpt lat="38.44137954338345" lon="16.278181876369448"><ele>1155.0</ele><time>2026-03-22T09:49:28Z</time></trkpt><trkpt lat="38.44146719152074" lon="16.278106956569"><ele>1155.0</ele><time>2026-03-22T09:49:29Z</time></trkpt><trkpt lat="38.4415630047662" lon="16.278035122408145"><ele>1153.0</ele><time>2026-03-22T09:49:30Z</time></trkpt><trkpt lat="38.44163652891668" lon="16.27794865696151"><ele>1151.0</ele><time>2026-03-22T09:49:31Z</time></trkpt><trkpt lat="38.44168193438874" lon="16.277837656825643"><ele>1149.0</ele><time>2026-03-22T09:49:32Z</time></trkpt><trkpt lat="38.44172964825882" lon="16.27772684825831"><ele>1147.0</ele><time>2026-03-22T09:49:33Z</time></trkpt><trkpt lat="38.44173793350847" lon="16.277590997622642"><ele>1145.0</ele><time>2026-03-22T09:49:34Z</time></trkpt><trkpt lat="38.441731369589526" lon="16.277437587565885"><ele>1145.0</ele><time>2026-03-22T09:49:35Z</time></trkpt><trkpt lat="38.441718784251655" lon="16.27727513694326"><ele>1145.0</ele><time>2026-03-22T09:49:36Z</time></trkpt><trkpt lat="38.441673449845794" lon="16.277125215447725"><ele>1145.0</ele><time>2026-03-22T09:49:37Z</time></trkpt><trkpt lat="38.4416146836903" lon="16.27698755413314"><ele>1145.0</ele><time>2026-03-22T09:49:38Z</time></trkpt><trkpt lat="38.44154579126414" lon="16.276871491237497"><ele>1143.8</ele><time>2026-03-22T09:49:39Z</time></trkpt><trkpt lat="38.44145797766264" lon="16.276779912995547"><ele>1142.6</ele><time>2026-03-22T09:49:40Z</time></trkpt><trkpt lat="38.44137347095114" lon="16.27670510501059"><ele>1141.4</ele><time>2026-03-22T09:49:41Z</time></trkpt><trkpt lat="38.441285975985615" lon="16.276649466539897"><ele>1140.2</ele><time>2026-03-22T09:49:42Z</time></trkpt><trkpt lat="38.441183599792126" lon="16.276634530532135"><ele>1139.0</ele><time>2026-03-22T09:49:43Z</time></trkpt><trkpt lat="38.44108687843895" lon="16.276641994085345"><ele>1141.4</ele><time>2026-03-22T09:49:44Z</time></trkpt><trkpt lat="38.44100710140432" lon="16.276651172075045"><ele>1143.8000000000002</ele><time>2026-03-22T09:49:45Z</time></trkpt><trkpt lat="38.44091622897539" lon="16.276651261263456"><ele>1146.1999999999998</ele><time>2026-03-22T09:49:47Z</time></trkpt><trkpt lat="38.44090028335713" lon="16.2765220087176"><ele>1148.6</ele><time>2026-03-22T09:49:49Z</time></trkpt><trkpt lat="38.440971212652286" lon="16.276452575920572"><ele>1151.0</ele><time>2026-03-22T09:49:50Z</time></trkpt><trkpt lat="38.44103901244143" lon="16.276379484307995"><ele>1151.0</ele><time>2026-03-22T09:49:51Z</time></trkpt><trkpt lat="38.441117933767316" lon="16.27628225794133"><ele>1151.0</ele><time>2026-03-22T09:49:52Z</time></trkpt><trkpt lat="38.441187824513385" lon="16.276165373484364"><ele>1151.0</ele><time>2026-03-22T09:49:53Z</time></trkpt><trkpt lat="38.441248039249864" lon="16.276045254605584"><ele>1151.0</ele><time>2026-03-22T09:49:54Z</time></trkpt><trkpt lat="38.441315254451396" lon="16.27593878581994"><ele>1151.0</ele><time>2026-03-22T09:49:55Z</time></trkpt><trkpt lat="38.44139937103197" lon="16.27585379020592"><ele>1147.2</ele><time>2026-03-22T09:49:56Z</time></trkpt><trkpt lat="38.441459628406115" lon="16.275748539016035"><ele>1143.3999999999999</ele><time>2026-03-22T09:49:57Z</time></trkpt><trkpt lat="38.44151958878167" lon="16.27564758215118"><ele>1139.6</ele><time>2026-03-22T09:49:58Z</time></trkpt><trkpt lat="38.44157691586073" lon="16.275551917162737"><ele>1135.8</ele><time>2026-03-22T09:49:59Z</time></trkpt><trkpt lat="38.441635099501646" lon="16.275460272027953"><ele>1132.0</ele><time>2026-03-22T09:50:00Z</time></trkpt><trkpt lat="38.441675018898096" lon="16.275342634290663"><ele>1131.6</ele><time>2026-03-22T09:50:01Z</time></trkpt><trkpt lat="38.441704675062674" lon="16.275202965472797"><ele>1131.2</ele><time>2026-03-22T09:50:02Z</time></trkpt><trkpt lat="38.44174516256956" lon="16.275068595916718"><ele>1130.8</ele><time>2026-03-22T09:50:03Z</time></trkpt><trkpt lat="38.441748781088094" lon="16.27493021457098"><ele>1130.4</ele><time>2026-03-22T09:50:04Z</time></trkpt><trkpt lat="38.44176260566081" lon="16.274814229494798"><ele>1130.0</ele><time>2026-03-22T09:50:05Z</time></trkpt><trkpt lat="38.44178435316343" lon="16.274709819879423"><ele>1128.2</ele><time>2026-03-22T09:50:06Z</time></trkpt><trkpt lat="38.441839855439504" lon="16.274629544159062"><ele>1126.4</ele><time>2026-03-22T09:50:07Z</time></trkpt><trkpt lat="38.44193116089498" lon="16.274557781732337"><ele>1124.6</ele><time>2026-03-22T09:50:08Z</time></trkpt><trkpt lat="38.44203078244579" lon="16.27448239291813"><ele>1122.8</ele><time>2026-03-22T09:50:09Z</time></trkpt><trkpt lat="38.442126022442984" lon="16.27439339481599"><ele>1121.0</ele><time>2026-03-22T09:50:10Z</time></trkpt><trkpt lat="38.44222912659212" lon="16.274291865496952"><ele>1119.25</ele><time>2026-03-22T09:50:11Z</time></trkpt><trkpt lat="38.44231856131196" lon="16.274159110335077"><ele>1117.5</ele><time>2026-03-22T09:50:12Z</time></trkpt><trkpt lat="38.44241137316898" lon="16.274028439256725"><ele>1115.75</ele><time>2026-03-22T09:50:13Z</time></trkpt><trkpt lat="38.442479478094064" lon="16.273905552184555"><ele>1114.0</ele><time>2026-03-22T09:50:14Z</time></trkpt><trkpt lat="38.44255537347171" lon="16.273795996978897"><ele>1113.4</ele><time>2026-03-22T09:50:15Z</time></trkpt><trkpt lat="38.44263076731875" lon="16.27370711518118"><ele>1112.8000000000002</ele><time>2026-03-22T09:50:16Z</time></trkpt><trkpt lat="38.44268631325364" lon="16.273591371898263"><ele>1112.1999999999998</ele><time>2026-03-22T09:50:17Z</time></trkpt><trkpt lat="38.44274072477467" lon="16.273484286611705"><ele>1111.6</ele><time>2026-03-22T09:50:18Z</time></trkpt><trkpt lat="38.44281867177892" lon="16.273398202006465"><ele>1111.0</ele><time>2026-03-22T09:50:19Z</time></trkpt><trkpt lat="38.44286909302854" lon="16.27330104398296"><ele>1111.0</ele><time>2026-03-22T09:50:20Z</time></trkpt><trkpt lat="38.44293781114655" lon="16.273226711282323"><ele>1111.0</ele><time>2026-03-22T09:50:21Z</time></trkpt><trkpt lat="38.442997467661556" lon="16.273146114399903"><ele>1111.0</ele><time>2026-03-22T09:50:22Z</time></trkpt><trkpt lat="38.44305420850883" lon="16.273051831233815"><ele>1111.0</ele><time>2026-03-22T09:50:23Z</time></trkpt><trkpt lat="38.443081771038734" lon="16.272964384515294"><ele>1111.0</ele><time>2026-03-22T09:50:24Z</time></trkpt><trkpt lat="38.4430868793795" lon="16.272858217720856"><ele>1111.0</ele><time>2026-03-22T09:50:25Z</time></trkpt><trkpt lat="38.443051629347636" lon="16.27278106541013"><ele>1109.5</ele><time>2026-03-22T09:50:26Z</time></trkpt><trkpt lat="38.443010333260865" lon="16.272625996166326"><ele>1108.0</ele><time>2026-03-22T09:50:28Z</time></trkpt><trkpt lat="38.443240792638115" lon="16.27260323732453"><ele>1106.5</ele><time>2026-03-22T09:50:29Z</time></trkpt><trkpt lat="38.44330434007899" lon="16.272565285909746"><ele>1105.0</ele><time>2026-03-22T09:50:30Z</time></trkpt><trkpt lat="38.44341517321763" lon="16.272527866134794"><ele>1105.0</ele><time>2026-03-22T09:50:31Z</time></trkpt><trkpt lat="38.443504671490274" lon="16.272478942663323"><ele>1105.0</ele><time>2026-03-22T09:50:32Z</time></trkpt><trkpt lat="38.44360497849014" lon="16.272423242880862"><ele>1105.0</ele><time>2026-03-22T09:50:33Z</time></trkpt><trkpt lat="38.44370794979056" lon="16.27236606411044"><ele>1105.0</ele><time>2026-03-22T09:50:34Z</time></trkpt><trkpt lat="38.44380026710161" lon="16.272291416103997"><ele>1105.0</ele><time>2026-03-22T09:50:35Z</time></trkpt><trkpt lat="38.4438869580352" lon="16.272237159638298"><ele>1105.6</ele><time>2026-03-22T09:50:36Z</time></trkpt><trkpt lat="38.44395431991814" lon="16.27216456851138"><ele>1106.2</ele><time>2026-03-22T09:50:37Z</time></trkpt><trkpt lat="38.44402484300083" lon="16.272085761355356"><ele>1106.8</ele><time>2026-03-22T09:50:38Z</time></trkpt><trkpt lat="38.44407396364146" lon="16.27196087421935"><ele>1107.4</ele><time>2026-03-22T09:50:39Z</time></trkpt><trkpt lat="38.44410564468982" lon="16.27181262570309"><ele>1108.0</ele><time>2026-03-22T09:50:40Z</time></trkpt><trkpt lat="38.44414016606194" lon="16.27168230911993"><ele>1108.0</ele><time>2026-03-22T09:50:41Z</time></trkpt><trkpt lat="38.4441782435466" lon="16.271537325577995"><ele>1108.0</ele><time>2026-03-22T09:50:42Z</time></trkpt><trkpt lat="38.44420534122069" lon="16.271386356052503"><ele>1108.0</ele><time>2026-03-22T09:50:43Z</time></trkpt><trkpt lat="38.444227108880604" lon="16.271242127093064"><ele>1108.0</ele><time>2026-03-22T09:50:44Z</time></trkpt><trkpt lat="38.444237094728145" lon="16.2711111682284"><ele>1108.6</ele><time>2026-03-22T09:50:45Z</time></trkpt><trkpt lat="38.44423986403404" lon="16.270978982775326"><ele>1109.1999999999998</ele><time>2026-03-22T09:50:46Z</time></trkpt><trkpt lat="38.44424548969373" lon="16.27085183438969"><ele>1109.8</ele><time>2026-03-22T09:50:47Z</time></trkpt><trkpt lat="38.44426560351554" lon="16.27073513776473"><ele>1110.3999999999999</ele><time>2026-03-22T09:50:48Z</time></trkpt><trkpt lat="38.44426770837069" lon="16.27062161634564"><ele>1111.0</ele><time>2026-03-22T09:50:49Z</time></trkpt><trkpt lat="38.44429352801473" lon="16.27053260860499"><ele>1110.7142857142858</ele><time>2026-03-22T09:50:50Z</time></trkpt><trkpt lat="38.444319772836266" lon="16.27045905781957"><ele>1110.4285714285716</ele><time>2026-03-22T09:50:51Z</time></trkpt><trkpt lat="38.44434429665702" lon="16.27037677204728"><ele>1110.142857142857</ele><time>2026-03-22T09:50:52Z</time></trkpt><trkpt lat="38.444408693684174" lon="16.27034429630693"><ele>1109.857142857143</ele><time>2026-03-22T09:50:53Z</time></trkpt><trkpt lat="38.44446967905128" lon="16.270315028069405"><ele>1109.5714285714284</ele><time>2026-03-22T09:50:54Z</time></trkpt><trkpt lat="38.444561797998816" lon="16.27030924927168"><ele>1109.2857142857142</ele><time>2026-03-22T09:50:55Z</time></trkpt><trkpt lat="38.44464842167549" lon="16.270317897744217"><ele>1109.0</ele><time>2026-03-22T09:50:56Z</time></trkpt><trkpt lat="38.44473244260385" lon="16.270333151542626"><ele>1109.0</ele><time>2026-03-22T09:50:57Z</time></trkpt><trkpt lat="38.444816180833605" lon="16.270357481930095"><ele>1109.0</ele><time>2026-03-22T09:50:58Z</time></trkpt><trkpt lat="38.44489717717848" lon="16.270401358572922"><ele>1109.0</ele><time>2026-03-22T09:50:59Z</time></trkpt><trkpt lat="38.44496367592288" lon="16.27046687550387"><ele>1109.0</ele><time>2026-03-22T09:51:00Z</time></trkpt><trkpt lat="38.44503651593779" lon="16.2705402744318"><ele>1109.0</ele><time>2026-03-22T09:51:01Z</time></trkpt><trkpt lat="38.445091265770564" lon="16.27061650078549"><ele>1109.0</ele><time>2026-03-22T09:51:02Z</time></trkpt><trkpt lat="38.445150992076755" lon="16.27067995107828"><ele>1107.8333333333335</ele><time>2026-03-22T09:51:03Z</time></trkpt><trkpt lat="38.44521510958114" lon="16.270745085168237"><ele>1106.6666666666667</ele><time>2026-03-22T09:51:04Z</time></trkpt><trkpt lat="38.44528800712298" lon="16.27079808156958"><ele>1105.5</ele><time>2026-03-22T09:51:05Z</time></trkpt><trkpt lat="38.44537359292837" lon="16.270845201990813"><ele>1104.3333333333333</ele><time>2026-03-22T09:51:06Z</time></trkpt><trkpt lat="38.44545224615552" lon="16.270896613011104"><ele>1103.1666666666665</ele><time>2026-03-22T09:51:07Z</time></trkpt><trkpt lat="38.44554155797962" lon="16.270929207910516"><ele>1102.0</ele><time>2026-03-22T09:51:08Z</time></trkpt><trkpt lat="38.445638225244664" lon="16.270933852950105"><ele>1101.4</ele><time>2026-03-22T09:51:09Z</time></trkpt><trkpt lat="38.44573844040072" lon="16.270912868354728"><ele>1100.8000000000002</ele><time>2026-03-22T09:51:10Z</time></trkpt><trkpt lat="38.44583754349655" lon="16.270876955764777"><ele>1100.2</ele><time>2026-03-22T09:51:11Z</time></trkpt><trkpt lat="38.445929436283684" lon="16.270820781848453"><ele>1099.6000000000001</ele><time>2026-03-22T09:51:12Z</time></trkpt><trkpt lat="38.44599065561109" lon="16.27075662925895"><ele>1099.0</ele><time>2026-03-22T09:51:13Z</time></trkpt><trkpt lat="38.44609351458555" lon="16.27060105732946"><ele>1101.0</ele><time>2026-03-22T09:51:15Z</time></trkpt><trkpt lat="38.44618113696998" lon="16.27050415314858"><ele>1103.0</ele><time>2026-03-22T09:51:16Z</time></trkpt><trkpt lat="38.44628987831802" lon="16.270422717046696"><ele>1105.0</ele><time>2026-03-22T09:51:17Z</time></trkpt><trkpt lat="38.44638362660642" lon="16.270365903310253"><ele>1107.0</ele><time>2026-03-22T09:51:18Z</time></trkpt><trkpt lat="38.44648459149166" lon="16.27030471657036"><ele>1103.6</ele><time>2026-03-22T09:51:19Z</time></trkpt><trkpt lat="38.446543159798345" lon="16.27021674364892"><ele>1100.2</ele><time>2026-03-22T09:51:21Z</time></trkpt><trkpt lat="38.44659848349094" lon="16.27010726072003"><ele>1096.8</ele><time>2026-03-22T09:51:22Z</time></trkpt><trkpt lat="38.446602405115534" lon="16.269980736613558"><ele>1093.4</ele><time>2026-03-22T09:51:23Z</time></trkpt><trkpt lat="38.446598941772045" lon="16.26987834256474"><ele>1090.0</ele><time>2026-03-22T09:51:24Z</time></trkpt><trkpt lat="38.44654672881706" lon="16.269770995525313"><ele>1090.0</ele><time>2026-03-22T09:51:25Z</time></trkpt><trkpt lat="38.44649523901107" lon="16.2696763839012"><ele>1090.0</ele><time>2026-03-22T09:51:26Z</time></trkpt><trkpt lat="38.44644281681485" lon="16.269577834305867"><ele>1090.0</ele><time>2026-03-22T09:51:27Z</time></trkpt><trkpt lat="38.44641473075703" lon="16.269462127581505"><ele>1090.0</ele><time>2026-03-22T09:51:28Z</time></trkpt><trkpt lat="38.44641768366984" lon="16.269322108924005"><ele>1090.0</ele><time>2026-03-22T09:51:29Z</time></trkpt><trkpt lat="38.44642442246674" lon="16.269203706328938"><ele>1090.0</ele><time>2026-03-22T09:51:30Z</time></trkpt><trkpt lat="38.44641682979609" lon="16.269104009264954"><ele>1090.0</ele><time>2026-03-22T09:51:31Z</time></trkpt><trkpt lat="38.44643047844034" lon="16.268970824593037"><ele>1090.0</ele><time>2026-03-22T09:51:32Z</time></trkpt><trkpt lat="38.446461236095715" lon="16.26889294663959"><ele>1090.0</ele><time>2026-03-22T09:51:33Z</time></trkpt><trkpt lat="38.446515507365646" lon="16.26879475277949"><ele>1090.0</ele><time>2026-03-22T09:51:34Z</time></trkpt><trkpt lat="38.44661516702136" lon="16.268748248260238"><ele>1091.6</ele><time>2026-03-22T09:51:35Z</time></trkpt><trkpt lat="38.44671573961302" lon="16.268743870491374"><ele>1093.2</ele><time>2026-03-22T09:51:36Z</time></trkpt><trkpt lat="38.44681539676795" lon="16.26873526263414"><ele>1094.8</ele><time>2026-03-22T09:51:37Z</time></trkpt><trkpt lat="38.446927494551886" lon="16.268743248069626"><ele>1096.4</ele><time>2026-03-22T09:51:38Z</time></trkpt><trkpt lat="38.44701930861309" lon="16.268761505619896"><ele>1098.0</ele><time>2026-03-22T09:51:39Z</time></trkpt><trkpt lat="38.44710245804211" lon="16.268820278207425"><ele>1096.8333333333333</ele><time>2026-03-22T09:51:40Z</time></trkpt><trkpt lat="38.447182794852544" lon="16.268867600789235"><ele>1095.6666666666667</ele><time>2026-03-22T09:51:41Z</time></trkpt><trkpt lat="38.44725008294528" lon="16.268894204989305"><ele>1094.5</ele><time>2026-03-22T09:51:42Z</time></trkpt><trkpt lat="38.44734028295077" lon="16.268887432418044"><ele>1093.3333333333335</ele><time>2026-03-22T09:51:43Z</time></trkpt><trkpt lat="38.44744253240064" lon="16.268928033525377"><ele>1092.1666666666667</ele><time>2026-03-22T09:51:45Z</time></trkpt><trkpt lat="38.44750467794634" lon="16.268879562504473"><ele>1091.0</ele><time>2026-03-22T09:51:46Z</time></trkpt><trkpt lat="38.447555070706464" lon="16.26878389552631"><ele>1091.0</ele><time>2026-03-22T09:51:47Z</time></trkpt><trkpt lat="38.44760851677576" lon="16.268673720885616"><ele>1091.0</ele><time>2026-03-22T09:51:48Z</time></trkpt><trkpt lat="38.44763359708127" lon="16.26854224139126"><ele>1091.0</ele><time>2026-03-22T09:51:49Z</time></trkpt><trkpt lat="38.44767677452845" lon="16.268429261137562"><ele>1091.0</ele><time>2026-03-22T09:51:50Z</time></trkpt><trkpt lat="38.44769245462996" lon="16.26832506467735"><ele>1091.0</ele><time>2026-03-22T09:51:51Z</time></trkpt><trkpt lat="38.44773125128262" lon="16.268177598477784"><ele>1091.0</ele><time>2026-03-22T09:51:53Z</time></trkpt><trkpt lat="38.447790502618915" lon="16.268128085541033"><ele>1091.0</ele><time>2026-03-22T09:51:54Z</time></trkpt><trkpt lat="38.44792966455194" lon="16.268138256110984"><ele>1091.0</ele><time>2026-03-22T09:51:56Z</time></trkpt><trkpt lat="38.44800428935773" lon="16.26820863939287"><ele>1091.0</ele><time>2026-03-22T09:51:57Z</time></trkpt><trkpt lat="38.44802043971525" lon="16.268342227821037"><ele>1091.0</ele><time>2026-03-22T09:51:58Z</time></trkpt><trkpt lat="38.44805545866605" lon="16.26843179871907"><ele>1091.0</ele><time>2026-03-22T09:51:59Z</time></trkpt><trkpt lat="38.44799910348456" lon="16.268514838260593"><ele>1091.0</ele><time>2026-03-22T09:52:00Z</time></trkpt><trkpt lat="38.447975399652854" lon="16.268633039952274"><ele>1091.0</ele><time>2026-03-22T09:52:01Z</time></trkpt><trkpt lat="38.44795435451266" lon="16.268778935921233"><ele>1091.0</ele><time>2026-03-22T09:52:02Z</time></trkpt><trkpt lat="38.44793428914541" lon="16.268919215103736"><ele>1091.0</ele><time>2026-03-22T09:52:03Z</time></trkpt><trkpt lat="38.447936375077354" lon="16.26906662195085"><ele>1088.75</ele><time>2026-03-22T09:52:04Z</time></trkpt><trkpt lat="38.44795509266683" lon="16.26927577719023"><ele>1086.5</ele><time>2026-03-22T09:52:05Z</time></trkpt><trkpt lat="38.447967656141316" lon="16.269450489252065"><ele>1084.25</ele><time>2026-03-22T09:52:06Z</time></trkpt><trkpt lat="38.44797058920772" lon="16.26962994180538"><ele>1082.0</ele><time>2026-03-22T09:52:07Z</time></trkpt><trkpt lat="38.44805409135067" lon="16.269732585354625"><ele>1078.6</ele><time>2026-03-22T09:52:08Z</time></trkpt><trkpt lat="38.44812616684636" lon="16.269882216257813"><ele>1075.2</ele><time>2026-03-22T09:52:09Z</time></trkpt><trkpt lat="38.44820198870384" lon="16.269993165900672"><ele>1071.8</ele><time>2026-03-22T09:52:10Z</time></trkpt><trkpt lat="38.44826479034292" lon="16.27009648025956"><ele>1068.4</ele><time>2026-03-22T09:52:11Z</time></trkpt><trkpt lat="38.44831063433187" lon="16.27018570921134"><ele>1065.0</ele><time>2026-03-22T09:52:12Z</time></trkpt><trkpt lat="38.448391973966686" lon="16.27021832516109"><ele>1065.0</ele><time>2026-03-22T09:52:13Z</time></trkpt><trkpt lat="38.44846939209123" lon="16.270228589495595"><ele>1065.0</ele><time>2026-03-22T09:52:14Z</time></trkpt><trkpt lat="38.44858163473099" lon="16.270073501906943"><ele>1065.0</ele><time>2026-03-22T09:52:15Z</time></trkpt><trkpt lat="38.448640071830255" lon="16.26997496416386"><ele>1065.0</ele><time>2026-03-22T09:52:16Z</time></trkpt><trkpt lat="38.44867999624904" lon="16.269863686881507"><ele>1065.0</ele><time>2026-03-22T09:52:17Z</time></trkpt><trkpt lat="38.44868783140125" lon="16.269728557865083"><ele>1067.5</ele><time>2026-03-22T09:52:18Z</time></trkpt><trkpt lat="38.4486885689833" lon="16.269591153007898"><ele>1070.0</ele><time>2026-03-22T09:52:19Z</time></trkpt><trkpt lat="38.44868856120861" lon="16.26944350629346"><ele>1072.5</ele><time>2026-03-22T09:52:20Z</time></trkpt><trkpt lat="38.44870509431176" lon="16.269291657879855"><ele>1075.0</ele><time>2026-03-22T09:52:21Z</time></trkpt><trkpt lat="38.448720490752386" lon="16.269133592502943"><ele>1075.0</ele><time>2026-03-22T09:52:22Z</time></trkpt><trkpt lat="38.4487489413258" lon="16.26900650336884"><ele>1075.0</ele><time>2026-03-22T09:52:23Z</time></trkpt><trkpt lat="38.44877454406415" lon="16.268919693220646"><ele>1075.0</ele><time>2026-03-22T09:52:24Z</time></trkpt><trkpt lat="38.44880842444081" lon="16.268841576133227"><ele>1075.0</ele><time>2026-03-22T09:52:25Z</time></trkpt><trkpt lat="38.44888549225221" lon="16.268726573892664"><ele>1075.0</ele><time>2026-03-22T09:52:27Z</time></trkpt><trkpt lat="38.44894870547643" lon="16.268740694168823"><ele>1075.0</ele><time>2026-03-22T09:52:28Z</time></trkpt><trkpt lat="38.44911887693428" lon="16.268793689096483"><ele>1073.25</ele><time>2026-03-22T09:52:29Z</time></trkpt><trkpt lat="38.44922598338117" lon="16.268832141982838"><ele>1071.5</ele><time>2026-03-22T09:52:30Z</time></trkpt><trkpt lat="38.44938552165933" lon="16.268890940920855"><ele>1069.75</ele><time>2026-03-22T09:52:31Z</time></trkpt><trkpt lat="38.44954059870192" lon="16.26894852044428"><ele>1068.0</ele><time>2026-03-22T09:52:32Z</time></trkpt><trkpt lat="38.44967247538395" lon="16.268997485818755"><ele>1065.6</ele><time>2026-03-22T09:52:33Z</time></trkpt><trkpt lat="38.449780754456256" lon="16.269040447702924"><ele>1063.1999999999998</ele><time>2026-03-22T09:52:34Z</time></trkpt><trkpt lat="38.44989048044473" lon="16.269086901694532"><ele>1060.8</ele><time>2026-03-22T09:52:35Z</time></trkpt><trkpt lat="38.449996514413876" lon="16.269120060830584"><ele>1058.3999999999999</ele><time>2026-03-22T09:52:36Z</time></trkpt><trkpt lat="38.45009391262647" lon="16.269133534058355"><ele>1056.0</ele><time>2026-03-22T09:52:37Z</time></trkpt><trkpt lat="38.450180707951304" lon="16.26911374591139"><ele>1056.0</ele><time>2026-03-22T09:52:38Z</time></trkpt><trkpt lat="38.45026114741658" lon="16.269079705579426"><ele>1056.0</ele><time>2026-03-22T09:52:39Z</time></trkpt><trkpt lat="38.45034737215663" lon="16.269017438214686"><ele>1056.0</ele><time>2026-03-22T09:52:40Z</time></trkpt><trkpt lat="38.45044553108902" lon="16.268869312391132"><ele>1056.0</ele><time>2026-03-22T09:52:41Z</time></trkpt><trkpt lat="38.45049414579926" lon="16.268738407102422"><ele>1056.0</ele><time>2026-03-22T09:52:42Z</time></trkpt><trkpt lat="38.45050916036161" lon="16.268614384990244"><ele>1055.5</ele><time>2026-03-22T09:52:43Z</time></trkpt><trkpt lat="38.450541019714606" lon="16.268461220038454"><ele>1055.0</ele><time>2026-03-22T09:52:44Z</time></trkpt><trkpt lat="38.45058029747371" lon="16.268264711674988"><ele>1054.5</ele><time>2026-03-22T09:52:45Z</time></trkpt><trkpt lat="38.45060563920663" lon="16.26811938982693"><ele>1054.0</ele><time>2026-03-22T09:52:46Z</time></trkpt><trkpt lat="38.45059602480469" lon="16.267954048989232"><ele>1054.0</ele><time>2026-03-22T09:52:47Z</time></trkpt><trkpt lat="38.4505784176126" lon="16.267815576810325"><ele>1054.0</ele><time>2026-03-22T09:52:48Z</time></trkpt><trkpt lat="38.45055476405337" lon="16.267673050092554"><ele>1054.0</ele><time>2026-03-22T09:52:49Z</time></trkpt><trkpt lat="38.45051481988208" lon="16.26756589463063"><ele>1054.0</ele><time>2026-03-22T09:52:50Z</time></trkpt><trkpt lat="38.4504912320726" lon="16.267465550301377"><ele>1054.0</ele><time>2026-03-22T09:52:51Z</time></trkpt><trkpt lat="38.45047675848696" lon="16.267377213496456"><ele>1054.0</ele><time>2026-03-22T09:52:52Z</time></trkpt><trkpt lat="38.45052223840575" lon="16.267280175771795"><ele>1054.0</ele><time>2026-03-22T09:52:53Z</time></trkpt><trkpt lat="38.45058353322995" lon="16.267199168187815"><ele>1054.0</ele><time>2026-03-22T09:52:54Z</time></trkpt><trkpt lat="38.4506741302365" lon="16.26715868098843"><ele>1054.0</ele><time>2026-03-22T09:52:55Z</time></trkpt><trkpt lat="38.45076423013503" lon="16.26711668005331"><ele>1054.0</ele><time>2026-03-22T09:52:56Z</time></trkpt><trkpt lat="38.450867844145556" lon="16.267116459938887"><ele>1054.0</ele><time>2026-03-22T09:52:57Z</time></trkpt><trkpt lat="38.45097220019169" lon="16.26712625806325"><ele>1054.0</ele><time>2026-03-22T09:52:58Z</time></trkpt><trkpt lat="38.45107038830786" lon="16.267178159088083"><ele>1054.0</ele><time>2026-03-22T09:52:59Z</time></trkpt><trkpt lat="38.45117181387917" lon="16.26723407306302"><ele>1054.0</ele><time>2026-03-22T09:53:00Z</time></trkpt><trkpt lat="38.451285858165946" lon="16.267293180911558"><ele>1054.0</ele><time>2026-03-22T09:53:01Z</time></trkpt><trkpt lat="38.45137574925054" lon="16.267345530864098"><ele>1053.6000000000001</ele><time>2026-03-22T09:53:02Z</time></trkpt><trkpt lat="38.451454004960155" lon="16.267408486344554"><ele>1053.2</ele><time>2026-03-22T09:53:03Z</time></trkpt><trkpt lat="38.45151331036957" lon="16.267473313381206"><ele>1052.8000000000002</ele><time>2026-03-22T09:53:04Z</time></trkpt><trkpt lat="38.45156124278515" lon="16.267557035979355"><ele>1052.4</ele><time>2026-03-22T09:53:05Z</time></trkpt><trkpt lat="38.45160150826968" lon="16.267753582252077"><ele>1052.0</ele><time>2026-03-22T09:53:07Z</time></trkpt><trkpt lat="38.45161744682189" lon="16.26790217789597"><ele>1052.0</ele><time>2026-03-22T09:53:08Z</time></trkpt><trkpt lat="38.45162994478349" lon="16.268035957622917"><ele>1052.0</ele><time>2026-03-22T09:53:09Z</time></trkpt><trkpt lat="38.45164632099914" lon="16.26814077247157"><ele>1052.0</ele><time>2026-03-22T09:53:10Z</time></trkpt><trkpt lat="38.45167057340002" lon="16.268253990699094"><ele>1052.0</ele><time>2026-03-22T09:53:11Z</time></trkpt><trkpt lat="38.45170485318321" lon="16.268357121272082"><ele>1052.0</ele><time>2026-03-22T09:53:12Z</time></trkpt><trkpt lat="38.45177445654128" lon="16.268431309261313"><ele>1052.0</ele><time>2026-03-22T09:53:13Z</time></trkpt><trkpt lat="38.45184224536495" lon="16.268495517116328"><ele>1052.0</ele><time>2026-03-22T09:53:14Z</time></trkpt><trkpt lat="38.451917305843196" lon="16.26857535999855"><ele>1052.0</ele><time>2026-03-22T09:53:15Z</time></trkpt><trkpt lat="38.45200078866306" lon="16.268652580680225"><ele>1052.0</ele><time>2026-03-22T09:53:16Z</time></trkpt><trkpt lat="38.45210722691196" lon="16.26869234841576"><ele>1052.0</ele><time>2026-03-22T09:53:17Z</time></trkpt><trkpt lat="38.45219398292542" lon="16.26879237751697"><ele>1051.25</ele><time>2026-03-22T09:53:18Z</time></trkpt><trkpt lat="38.45228894792087" lon="16.268871559874192"><ele>1050.5</ele><time>2026-03-22T09:53:19Z</time></trkpt><trkpt lat="38.45239428253172" lon="16.26895097896163"><ele>1049.75</ele><time>2026-03-22T09:53:20Z</time></trkpt><trkpt lat="38.45252380307435" lon="16.26902821588205"><ele>1049.0</ele><time>2026-03-22T09:53:21Z</time></trkpt><trkpt lat="38.452708137681064" lon="16.26910366020603"><ele>1049.0</ele><time>2026-03-22T09:53:22Z</time></trkpt><trkpt lat="38.45282816224515" lon="16.269190368397112"><ele>1049.0</ele><time>2026-03-22T09:53:23Z</time></trkpt><trkpt lat="38.45295203221059" lon="16.269277398698364"><ele>1049.0</ele><time>2026-03-22T09:53:24Z</time></trkpt><trkpt lat="38.45307783631952" lon="16.269358062371445"><ele>1049.0</ele><time>2026-03-22T09:53:25Z</time></trkpt><trkpt lat="38.45322140876291" lon="16.269428826895847"><ele>1047.75</ele><time>2026-03-22T09:53:26Z</time></trkpt><trkpt lat="38.45332611546823" lon="16.26950540768362"><ele>1046.5</ele><time>2026-03-22T09:53:27Z</time></trkpt><trkpt lat="38.45343075193363" lon="16.269559561536816"><ele>1045.25</ele><time>2026-03-22T09:53:28Z</time></trkpt><trkpt lat="38.45354435468383" lon="16.269611317285815"><ele>1044.0</ele><time>2026-03-22T09:53:29Z</time></trkpt><trkpt lat="38.453672479214454" lon="16.269637898265998"><ele>1044.25</ele><time>2026-03-22T09:53:30Z</time></trkpt><trkpt lat="38.45380809205394" lon="16.269655569864007"><ele>1044.5</ele><time>2026-03-22T09:53:31Z</time></trkpt><trkpt lat="38.45395113903451" lon="16.269659160634685"><ele>1044.75</ele><time>2026-03-22T09:53:32Z</time></trkpt><trkpt lat="38.45409516966761" lon="16.26965233373139"><ele>1045.0</ele><time>2026-03-22T09:53:33Z</time></trkpt><trkpt lat="38.45424428255241" lon="16.269662180422387"><ele>1045.0</ele><time>2026-03-22T09:53:34Z</time></trkpt><trkpt lat="38.45437974659368" lon="16.269661235710863"><ele>1045.0</ele><time>2026-03-22T09:53:35Z</time></trkpt><trkpt lat="38.454507959440605" lon="16.26966778415544"><ele>1045.0</ele><time>2026-03-22T09:53:36Z</time></trkpt><trkpt lat="38.45463260807668" lon="16.26966778646533"><ele>1045.0</ele><time>2026-03-22T09:53:37Z</time></trkpt><trkpt lat="38.45476112691379" lon="16.269676266496802"><ele>1045.75</ele><time>2026-03-22T09:53:38Z</time></trkpt><trkpt lat="38.454882750054956" lon="16.26965071196878"><ele>1046.5</ele><time>2026-03-22T09:53:39Z</time></trkpt><trkpt lat="38.455008499238915" lon="16.269623624330922"><ele>1047.25</ele><time>2026-03-22T09:53:40Z</time></trkpt><trkpt lat="38.455124950236545" lon="16.269564849969"><ele>1048.0</ele><time>2026-03-22T09:53:41Z</time></trkpt><trkpt lat="38.455251729427786" lon="16.269497362940744"><ele>1048.0</ele><time>2026-03-22T09:53:42Z</time></trkpt><trkpt lat="38.45536357611684" lon="16.26943327666447"><ele>1048.0</ele><time>2026-03-22T09:53:43Z</time></trkpt><trkpt lat="38.45546513126778" lon="16.2693786012534"><ele>1048.0</ele><time>2026-03-22T09:53:44Z</time></trkpt><trkpt lat="38.45556830729029" lon="16.269328971399077"><ele>1048.0</ele><time>2026-03-22T09:53:45Z</time></trkpt><trkpt lat="38.45563558440561" lon="16.269303647511325"><ele>1048.0</ele><time>2026-03-22T09:53:46Z</time></trkpt><trkpt lat="38.45569210835618" lon="16.269263803542653"><ele>1047.2</ele><time>2026-03-22T09:53:47Z</time></trkpt><trkpt lat="38.45575493441528" lon="16.269179715150454"><ele>1046.4</ele><time>2026-03-22T09:53:49Z</time></trkpt><trkpt lat="38.455821207748954" lon="16.26917766097648"><ele>1045.6000000000001</ele><time>2026-03-22T09:53:51Z</time></trkpt><trkpt lat="38.455998266867496" lon="16.269201461960506"><ele>1044.8</ele><time>2026-03-22T09:53:55Z</time></trkpt><trkpt lat="38.456061206983435" lon="16.269224750323048"><ele>1044.0</ele><time>2026-03-22T09:53:56Z</time></trkpt><trkpt lat="38.45614517181249" lon="16.26925602031146"><ele>1044.0</ele><time>2026-03-22T09:53:57Z</time></trkpt><trkpt lat="38.45621889057864" lon="16.269297116997237"><ele>1044.0</ele><time>2026-03-22T09:53:58Z</time></trkpt><trkpt lat="38.456300640050415" lon="16.269340071599483"><ele>1044.0</ele><time>2026-03-22T09:54:00Z</time></trkpt><trkpt lat="38.4566138173076" lon="16.26878866167437"><ele>1044.6666666666667</ele><time>2026-03-22T09:54:02Z</time></trkpt><trkpt lat="38.456690385755365" lon="16.26880102743863"><ele>1045.3333333333333</ele><time>2026-03-22T09:54:03Z</time></trkpt><trkpt lat="38.45675460550252" lon="16.268795793759494"><ele>1046.0</ele><time>2026-03-22T09:54:04Z</time></trkpt><trkpt lat="38.45687016666274" lon="16.268722200499177"><ele>1046.6666666666665</ele><time>2026-03-22T09:54:06Z</time></trkpt><trkpt lat="38.456928645479024" lon="16.268684172208292"><ele>1047.3333333333333</ele><time>2026-03-22T09:54:07Z</time></trkpt><trkpt lat="38.45700723487275" lon="16.268615160161648"><ele>1048.0</ele><time>2026-03-22T09:54:08Z</time></trkpt><trkpt lat="38.45706555869612" lon="16.268552209895"><ele>1048.6</ele><time>2026-03-22T09:54:09Z</time></trkpt><trkpt lat="38.45713497084886" lon="16.26846936545746"><ele>1049.1999999999998</ele><time>2026-03-22T09:54:10Z</time></trkpt><trkpt lat="38.457192814692675" lon="16.26838752056386"><ele>1049.8</ele><time>2026-03-22T09:54:11Z</time></trkpt><trkpt lat="38.457300429052545" lon="16.268302850697054"><ele>1050.3999999999999</ele><time>2026-03-22T09:54:13Z</time></trkpt><trkpt lat="38.457403264119215" lon="16.26827266864661"><ele>1051.0</ele><time>2026-03-22T09:54:15Z</time></trkpt><trkpt lat="38.4575011973368" lon="16.268276216727983"><ele>1051.0</ele><time>2026-03-22T09:54:17Z</time></trkpt><trkpt lat="38.457629934876515" lon="16.268297668428527"><ele>1051.0</ele><time>2026-03-22T09:54:19Z</time></trkpt><trkpt lat="38.4577364032675" lon="16.268345113969236"><ele>1051.0</ele><time>2026-03-22T09:54:21Z</time></trkpt><trkpt lat="38.45779933758818" lon="16.268369324145098"><ele>1051.0</ele><time>2026-03-22T09:54:22Z</time></trkpt><trkpt lat="38.45786159463142" lon="16.268401097973562"><ele>1051.0</ele><time>2026-03-22T09:54:23Z</time></trkpt><trkpt lat="38.45792507447613" lon="16.26841839849887"><ele>1051.0</ele><time>2026-03-22T09:54:24Z</time></trkpt><trkpt lat="38.457989814618486" lon="16.26843535251302"><ele>1050.5</ele><time>2026-03-22T09:54:25Z</time></trkpt><trkpt lat="38.458053602398934" lon="16.268449231183343"><ele>1050.0</ele><time>2026-03-22T09:54:26Z</time></trkpt><trkpt lat="38.45812397040695" lon="16.2684738699433"><ele>1049.5</ele><time>2026-03-22T09:54:27Z</time></trkpt><trkpt lat="38.45820659177273" lon="16.26850502938048"><ele>1049.0</ele><time>2026-03-22T09:54:28Z</time></trkpt><trkpt lat="38.45829705714822" lon="16.268493342795576"><ele>1048.5</ele><time>2026-03-22T09:54:29Z</time></trkpt><trkpt lat="38.45839134963796" lon="16.268513243426355"><ele>1048.0</ele><time>2026-03-22T09:54:30Z</time></trkpt><trkpt lat="38.45849197196181" lon="16.268511092019526"><ele>1048.0</ele><time>2026-03-22T09:54:31Z</time></trkpt><trkpt lat="38.458617490470424" lon="16.26853286050415"><ele>1048.0</ele><time>2026-03-22T09:54:32Z</time></trkpt><trkpt lat="38.45873406212478" lon="16.268517020118754"><ele>1048.0</ele><time>2026-03-22T09:54:33Z</time></trkpt><trkpt lat="38.458847742514564" lon="16.26851989449114"><ele>1048.0</ele><time>2026-03-22T09:54:34Z</time></trkpt><trkpt lat="38.45896981710455" lon="16.268515525374788"><ele>1048.4</ele><time>2026-03-22T09:54:35Z</time></trkpt><trkpt lat="38.459081672007294" lon="16.268488290738944"><ele>1048.8</ele><time>2026-03-22T09:54:36Z</time></trkpt><trkpt lat="38.45918498128851" lon="16.268457932782564"><ele>1049.2</ele><time>2026-03-22T09:54:37Z</time></trkpt><trkpt lat="38.45928960045654" lon="16.268416309802102"><ele>1049.6</ele><time>2026-03-22T09:54:38Z</time></trkpt><trkpt lat="38.45938258504516" lon="16.268368149917727"><ele>1050.0</ele><time>2026-03-22T09:54:39Z</time></trkpt><trkpt lat="38.4594764950601" lon="16.268287488796293"><ele>1050.0</ele><time>2026-03-22T09:54:40Z</time></trkpt><trkpt lat="38.45958404172756" lon="16.26819816561985"><ele>1050.0</ele><time>2026-03-22T09:54:41Z</time></trkpt><trkpt lat="38.459684590049484" lon="16.268122524305237"><ele>1050.0</ele><time>2026-03-22T09:54:42Z</time></trkpt><trkpt lat="38.45977953231939" lon="16.26803419204645"><ele>1050.0</ele><time>2026-03-22T09:54:43Z</time></trkpt><trkpt lat="38.459881732883126" lon="16.26799141184159"><ele>1049.0</ele><time>2026-03-22T09:54:44Z</time></trkpt><trkpt lat="38.45998666050079" lon="16.2679613331891"><ele>1048.0</ele><time>2026-03-22T09:54:45Z</time></trkpt><trkpt lat="38.460147616975874" lon="16.267946571724345"><ele>1047.0</ele><time>2026-03-22T09:54:47Z</time></trkpt><trkpt lat="38.4602328638474" lon="16.267915167235408"><ele>1046.0</ele><time>2026-03-22T09:54:48Z</time></trkpt><trkpt lat="38.46032952953894" lon="16.2678818417435"><ele>1046.0</ele><time>2026-03-22T09:54:49Z</time></trkpt><trkpt lat="38.46041941215921" lon="16.267889695434587"><ele>1046.0</ele><time>2026-03-22T09:54:50Z</time></trkpt><trkpt lat="38.460490671009325" lon="16.26794794440929"><ele>1046.0</ele><time>2026-03-22T09:54:51Z</time></trkpt><trkpt lat="38.46056614810528" lon="16.267926246376984"><ele>1046.0</ele><time>2026-03-22T09:54:52Z</time></trkpt><trkpt lat="38.46064805996221" lon="16.2678929321713"><ele>1046.0</ele><time>2026-03-22T09:54:53Z</time></trkpt><trkpt lat="38.46072887484077" lon="16.26785513079484"><ele>1046.0</ele><time>2026-03-22T09:54:54Z</time></trkpt><trkpt lat="38.460810771360116" lon="16.267797160278374"><ele>1047.3999999999999</ele><time>2026-03-22T09:54:55Z</time></trkpt><trkpt lat="38.4608769295992" lon="16.267736020150995"><ele>1048.8</ele><time>2026-03-22T09:54:56Z</time></trkpt><trkpt lat="38.460952327232214" lon="16.267676478903088"><ele>1050.1999999999998</ele><time>2026-03-22T09:54:57Z</time></trkpt><trkpt lat="38.46101211020489" lon="16.267554323912247"><ele>1051.6</ele><time>2026-03-22T09:54:58Z</time></trkpt><trkpt lat="38.46107727573778" lon="16.267442661162104"><ele>1053.0</ele><time>2026-03-22T09:54:59Z</time></trkpt><trkpt lat="38.46117923091" lon="16.267330038367938"><ele>1052.8</ele><time>2026-03-22T09:55:00Z</time></trkpt><trkpt lat="38.46125378766358" lon="16.267247740850646"><ele>1052.6</ele><time>2026-03-22T09:55:01Z</time></trkpt><trkpt lat="38.46131347140972" lon="16.267154361887716"><ele>1052.4</ele><time>2026-03-22T09:55:02Z</time></trkpt><trkpt lat="38.46141253840992" lon="16.26705325895006"><ele>1052.2</ele><time>2026-03-22T09:55:04Z</time></trkpt><trkpt lat="38.46149172808695" lon="16.266999156125696"><ele>1052.0</ele><time>2026-03-22T09:55:05Z</time></trkpt><trkpt lat="38.4615848126539" lon="16.266940282949356"><ele>1052.0</ele><time>2026-03-22T09:55:06Z</time></trkpt><trkpt lat="38.46168891231033" lon="16.266896695872124"><ele>1052.0</ele><time>2026-03-22T09:55:07Z</time></trkpt><trkpt lat="38.46176430400128" lon="16.26684882323329"><ele>1052.0</ele><time>2026-03-22T09:55:08Z</time></trkpt><trkpt lat="38.46183756009406" lon="16.266811958403707"><ele>1052.0</ele><time>2026-03-22T09:55:09Z</time></trkpt><trkpt lat="38.46190303997266" lon="16.266793464278095"><ele>1052.0</ele><time>2026-03-22T09:55:10Z</time></trkpt><trkpt lat="38.46196508100752" lon="16.266779676749604"><ele>1052.0</ele><time>2026-03-22T09:55:11Z</time></trkpt><trkpt lat="38.462086774670105" lon="16.26676542656381"><ele>1052.6666666666667</ele><time>2026-03-22T09:55:13Z</time></trkpt><trkpt lat="38.46215688109092" lon="16.266792328191467"><ele>1053.3333333333335</ele><time>2026-03-22T09:55:14Z</time></trkpt><trkpt lat="38.462254377537086" lon="16.266811899403912"><ele>1054.0</ele><time>2026-03-22T09:55:15Z</time></trkpt><trkpt lat="38.46235968323257" lon="16.26686192091271"><ele>1054.6666666666667</ele><time>2026-03-22T09:55:16Z</time></trkpt><trkpt lat="38.462436362243274" lon="16.266896947240696"><ele>1055.3333333333333</ele><time>2026-03-22T09:55:17Z</time></trkpt><trkpt lat="38.46251873382825" lon="16.26691559226977"><ele>1056.0</ele><time>2026-03-22T09:55:18Z</time></trkpt><trkpt lat="38.46258650444834" lon="16.26693154210504"><ele>1056.0</ele><time>2026-03-22T09:55:19Z</time></trkpt><trkpt lat="38.46266281372458" lon="16.266913257268595"><ele>1056.0</ele><time>2026-03-22T09:55:20Z</time></trkpt><trkpt lat="38.46273916990769" lon="16.26686028352259"><ele>1056.0</ele><time>2026-03-22T09:55:21Z</time></trkpt><trkpt lat="38.462825697628695" lon="16.266825502575223"><ele>1056.0</ele><time>2026-03-22T09:55:22Z</time></trkpt><trkpt lat="38.46291410762457" lon="16.266789174411294"><ele>1056.0</ele><time>2026-03-22T09:55:23Z</time></trkpt><trkpt lat="38.4630085989464" lon="16.266766380623366"><ele>1056.0</ele><time>2026-03-22T09:55:24Z</time></trkpt><trkpt lat="38.46310783755133" lon="16.266745557940055"><ele>1056.2</ele><time>2026-03-22T09:55:25Z</time></trkpt><trkpt lat="38.46320652772423" lon="16.2667165581014"><ele>1056.3999999999999</ele><time>2026-03-22T09:55:26Z</time></trkpt><trkpt lat="38.46330944239421" lon="16.266695026766673"><ele>1056.6</ele><time>2026-03-22T09:55:27Z</time></trkpt><trkpt lat="38.463400089533906" lon="16.266700709644724"><ele>1056.8</ele><time>2026-03-22T09:55:28Z</time></trkpt><trkpt lat="38.463495839790085" lon="16.266663409614903"><ele>1057.0</ele><time>2026-03-22T09:55:29Z</time></trkpt><trkpt lat="38.463607978680585" lon="16.266634243335364"><ele>1057.0</ele><time>2026-03-22T09:55:30Z</time></trkpt><trkpt lat="38.463714511724525" lon="16.266619316775653"><ele>1057.0</ele><time>2026-03-22T09:55:31Z</time></trkpt><trkpt lat="38.46382616401321" lon="16.266585475579323"><ele>1057.0</ele><time>2026-03-22T09:55:32Z</time></trkpt><trkpt lat="38.46391841619906" lon="16.266558567058016"><ele>1057.0</ele><time>2026-03-22T09:55:33Z</time></trkpt><trkpt lat="38.464015677897315" lon="16.26653621585802"><ele>1057.0</ele><time>2026-03-22T09:55:34Z</time></trkpt><trkpt lat="38.46409717585966" lon="16.2665099326924"><ele>1057.8</ele><time>2026-03-22T09:55:35Z</time></trkpt><trkpt lat="38.464165669240096" lon="16.26647286950812"><ele>1058.6</ele><time>2026-03-22T09:55:36Z</time></trkpt><trkpt lat="38.46423667117165" lon="16.26642091723578"><ele>1059.3999999999999</ele><time>2026-03-22T09:55:37Z</time></trkpt><trkpt lat="38.46431359530297" lon="16.266353791929618"><ele>1060.2</ele><time>2026-03-22T09:55:38Z</time></trkpt><trkpt lat="38.46442425531512" lon="16.266296093378518"><ele>1061.0</ele><time>2026-03-22T09:55:39Z</time></trkpt><trkpt lat="38.4645092093623" lon="16.266230826103172"><ele>1061.2</ele><time>2026-03-22T09:55:40Z</time></trkpt><trkpt lat="38.464603806410125" lon="16.26616337694253"><ele>1061.3999999999999</ele><time>2026-03-22T09:55:41Z</time></trkpt><trkpt lat="38.46468984535765" lon="16.266083433708207"><ele>1061.6</ele><time>2026-03-22T09:55:42Z</time></trkpt><trkpt lat="38.464778775434894" lon="16.26601202809586"><ele>1061.8</ele><time>2026-03-22T09:55:43Z</time></trkpt><trkpt lat="38.464861671731164" lon="16.265946622004297"><ele>1062.0</ele><time>2026-03-22T09:55:44Z</time></trkpt><trkpt lat="38.464940547554015" lon="16.26588685375611"><ele>1062.0</ele><time>2026-03-22T09:55:45Z</time></trkpt><trkpt lat="38.465018813101494" lon="16.26582080332313"><ele>1062.0</ele><time>2026-03-22T09:55:46Z</time></trkpt><trkpt lat="38.46509497130125" lon="16.265747418307814"><ele>1062.0</ele><time>2026-03-22T09:55:47Z</time></trkpt><trkpt lat="38.46517829241193" lon="16.265669577699374"><ele>1062.0</ele><time>2026-03-22T09:55:48Z</time></trkpt><trkpt lat="38.4652582313509" lon="16.26558524435066"><ele>1062.0</ele><time>2026-03-22T09:55:49Z</time></trkpt><trkpt lat="38.465331113376216" lon="16.265507239214205"><ele>1061.0</ele><time>2026-03-22T09:55:50Z</time></trkpt><trkpt lat="38.46541696478545" lon="16.265444468021798"><ele>1060.0</ele><time>2026-03-22T09:55:51Z</time></trkpt><trkpt lat="38.465500497448296" lon="16.265365075204986"><ele>1059.0</ele><time>2026-03-22T09:55:52Z</time></trkpt><trkpt lat="38.46558340355609" lon="16.265298619676404"><ele>1058.0</ele><time>2026-03-22T09:55:53Z</time></trkpt><trkpt lat="38.465662506138784" lon="16.26524747359766"><ele>1057.0</ele><time>2026-03-22T09:55:54Z</time></trkpt><trkpt lat="38.465742040391355" lon="16.265226907349067"><ele>1059.3333333333333</ele><time>2026-03-22T09:55:55Z</time></trkpt><trkpt lat="38.46582558411545" lon="16.26518994306643"><ele>1061.6666666666665</ele><time>2026-03-22T09:55:56Z</time></trkpt><trkpt lat="38.46591147966583" lon="16.265181686430267"><ele>1064.0</ele><time>2026-03-22T09:55:57Z</time></trkpt><trkpt lat="38.46599809286882" lon="16.2651771078542"><ele>1066.3333333333333</ele><time>2026-03-22T09:55:58Z</time></trkpt><trkpt lat="38.46608709465938" lon="16.265170581113868"><ele>1068.6666666666667</ele><time>2026-03-22T09:55:59Z</time></trkpt><trkpt lat="38.4661798508935" lon="16.265145927630435"><ele>1071.0</ele><time>2026-03-22T09:56:00Z</time></trkpt><trkpt lat="38.46629393525627" lon="16.265112782783497"><ele>1071.6666666666667</ele><time>2026-03-22T09:56:01Z</time></trkpt><trkpt lat="38.46637416765285" lon="16.265101888688047"><ele>1072.3333333333333</ele><time>2026-03-22T09:56:02Z</time></trkpt><trkpt lat="38.466457423282776" lon="16.265063593392842"><ele>1073.0</ele><time>2026-03-22T09:56:03Z</time></trkpt><trkpt lat="38.4665476069108" lon="16.265028685499473"><ele>1073.6666666666665</ele><time>2026-03-22T09:56:04Z</time></trkpt><trkpt lat="38.46662299838445" lon="16.264980188605918"><ele>1074.3333333333333</ele><time>2026-03-22T09:56:05Z</time></trkpt><trkpt lat="38.46670429971403" lon="16.26495338816902"><ele>1075.0</ele><time>2026-03-22T09:56:06Z</time></trkpt><trkpt lat="38.46679624416891" lon="16.2649303230085"><ele>1075.0</ele><time>2026-03-22T09:56:07Z</time></trkpt><trkpt lat="38.466867530563775" lon="16.264887878615497"><ele>1075.0</ele><time>2026-03-22T09:56:08Z</time></trkpt><trkpt lat="38.466935768075686" lon="16.264845185123697"><ele>1075.0</ele><time>2026-03-22T09:56:09Z</time></trkpt><trkpt lat="38.467026841865966" lon="16.264814958807435"><ele>1075.0</ele><time>2026-03-22T09:56:10Z</time></trkpt><trkpt lat="38.467103655018974" lon="16.26477100521048"><ele>1075.0</ele><time>2026-03-22T09:56:11Z</time></trkpt><trkpt lat="38.467207114870874" lon="16.26474534700507"><ele>1075.0</ele><time>2026-03-22T09:56:12Z</time></trkpt><trkpt lat="38.46727566063654" lon="16.26469159859721"><ele>1074.8</ele><time>2026-03-22T09:56:13Z</time></trkpt><trkpt lat="38.467394212030015" lon="16.26464149145458"><ele>1074.6</ele><time>2026-03-22T09:56:14Z</time></trkpt><trkpt lat="38.46748949822921" lon="16.264583431122666"><ele>1074.4</ele><time>2026-03-22T09:56:15Z</time></trkpt><trkpt lat="38.46758354805438" lon="16.264532263387405"><ele>1074.2</ele><time>2026-03-22T09:56:17Z</time></trkpt><trkpt lat="38.46764303603566" lon="16.264495700384614"><ele>1074.0</ele><time>2026-03-22T09:56:18Z</time></trkpt><trkpt lat="38.46771448472993" lon="16.264446694163297"><ele>1074.0</ele><time>2026-03-22T09:56:19Z</time></trkpt><trkpt lat="38.4677890793633" lon="16.26440883159094"><ele>1074.0</ele><time>2026-03-22T09:56:20Z</time></trkpt><trkpt lat="38.467903083142474" lon="16.264328124183425"><ele>1074.0</ele><time>2026-03-22T09:56:22Z</time></trkpt><trkpt lat="38.467964461089494" lon="16.26430915812181"><ele>1074.0</ele><time>2026-03-22T09:56:23Z</time></trkpt><trkpt lat="38.468037926921696" lon="16.264286329371487"><ele>1074.0</ele><time>2026-03-22T09:56:24Z</time></trkpt><trkpt lat="38.46812299587268" lon="16.264232718095844"><ele>1074.0</ele><time>2026-03-22T09:56:25Z</time></trkpt><trkpt lat="38.46818602320483" lon="16.264216754519367"><ele>1075.2</ele><time>2026-03-22T09:56:26Z</time></trkpt><trkpt lat="38.468300592344136" lon="16.264206937665975"><ele>1076.4</ele><time>2026-03-22T09:56:30Z</time></trkpt><trkpt lat="38.4684187690287" lon="16.264161049150676"><ele>1077.6</ele><time>2026-03-22T09:56:32Z</time></trkpt><trkpt lat="38.468497192239596" lon="16.264122593603123"><ele>1078.8</ele><time>2026-03-22T09:56:33Z</time></trkpt><trkpt lat="38.46857044167192" lon="16.26406906370194"><ele>1080.0</ele><time>2026-03-22T09:56:34Z</time></trkpt><trkpt lat="38.46862466373817" lon="16.26401627698435"><ele>1080.0</ele><time>2026-03-22T09:56:35Z</time></trkpt><trkpt lat="38.46872850916036" lon="16.263961882974403"><ele>1080.0</ele><time>2026-03-22T09:56:37Z</time></trkpt><trkpt lat="38.468794704932456" lon="16.263915244567567"><ele>1080.0</ele><time>2026-03-22T09:56:39Z</time></trkpt><trkpt lat="38.468856272176005" lon="16.26386866965954"><ele>1080.0</ele><time>2026-03-22T09:56:40Z</time></trkpt><trkpt lat="38.46892259612794" lon="16.263819318587156"><ele>1080.0</ele><time>2026-03-22T09:56:41Z</time></trkpt><trkpt lat="38.46902600597044" lon="16.263746370221334"><ele>1080.7142857142858</ele><time>2026-03-22T09:56:43Z</time></trkpt><trkpt lat="38.469088583329764" lon="16.263699639970714"><ele>1081.4285714285713</ele><time>2026-03-22T09:56:44Z</time></trkpt><trkpt lat="38.469154576280076" lon="16.263658112695687"><ele>1082.142857142857</ele><time>2026-03-22T09:56:45Z</time></trkpt><trkpt lat="38.46921321684531" lon="16.263604148012632"><ele>1082.857142857143</ele><time>2026-03-22T09:56:46Z</time></trkpt><trkpt lat="38.469284587578215" lon="16.263563845287806"><ele>1083.5714285714284</ele><time>2026-03-22T09:56:47Z</time></trkpt><trkpt lat="38.46934561857343" lon="16.263520739906838"><ele>1084.2857142857142</ele><time>2026-03-22T09:56:48Z</time></trkpt><trkpt lat="38.46941817883143" lon="16.263477279853692"><ele>1085.0</ele><time>2026-03-22T09:56:49Z</time></trkpt><trkpt lat="38.46949879012972" lon="16.26345681438873"><ele>1085.0</ele><time>2026-03-22T09:56:50Z</time></trkpt><trkpt lat="38.46958037193138" lon="16.263386726687504"><ele>1085.0</ele><time>2026-03-22T09:56:51Z</time></trkpt><trkpt lat="38.46965103895036" lon="16.263315428379926"><ele>1085.0</ele><time>2026-03-22T09:56:52Z</time></trkpt><trkpt lat="38.46970584781375" lon="16.263263284331774"><ele>1085.0</ele><time>2026-03-22T09:56:53Z</time></trkpt><trkpt lat="38.4697785833895" lon="16.26319737040226"><ele>1085.0</ele><time>2026-03-22T09:56:54Z</time></trkpt><trkpt lat="38.46984368234354" lon="16.263147345803425"><ele>1085.0</ele><time>2026-03-22T09:56:55Z</time></trkpt><trkpt lat="38.46990584280896" lon="16.26309945392131"><ele>1085.2</ele><time>2026-03-22T09:56:56Z</time></trkpt><trkpt lat="38.469971480229056" lon="16.263033974587128"><ele>1085.4</ele><time>2026-03-22T09:56:57Z</time></trkpt><trkpt lat="38.47004278172203" lon="16.262975067200397"><ele>1085.6</ele><time>2026-03-22T09:56:58Z</time></trkpt><trkpt lat="38.47011181317595" lon="16.26291805075955"><ele>1085.8</ele><time>2026-03-22T09:56:59Z</time></trkpt><trkpt lat="38.47020761103315" lon="16.262840410629185"><ele>1086.0</ele><time>2026-03-22T09:57:00Z</time></trkpt><trkpt lat="38.47028431311974" lon="16.262787876189705"><ele>1086.0</ele><time>2026-03-22T09:57:01Z</time></trkpt><trkpt lat="38.47035280626916" lon="16.26272519694125"><ele>1086.0</ele><time>2026-03-22T09:57:02Z</time></trkpt><trkpt lat="38.470421369033296" lon="16.262666869353932"><ele>1086.0</ele><time>2026-03-22T09:57:03Z</time></trkpt><trkpt lat="38.470482700156445" lon="16.262612552513026"><ele>1086.0</ele><time>2026-03-22T09:57:04Z</time></trkpt><trkpt lat="38.47056576267757" lon="16.262546499820356"><ele>1086.0</ele><time>2026-03-22T09:57:05Z</time></trkpt><trkpt lat="38.47062420277402" lon="16.262490063263332"><ele>1086.0</ele><time>2026-03-22T09:57:06Z</time></trkpt><trkpt lat="38.47069382294053" lon="16.262408063519672"><ele>1087.6</ele><time>2026-03-22T09:57:07Z</time></trkpt><trkpt lat="38.47074633202907" lon="16.262322301996534"><ele>1089.1999999999998</ele><time>2026-03-22T09:57:08Z</time></trkpt><trkpt lat="38.47079854839459" lon="16.262236256030448"><ele>1090.8000000000002</ele><time>2026-03-22T09:57:09Z</time></trkpt><trkpt lat="38.47085072555803" lon="16.262131336083705"><ele>1092.4</ele><time>2026-03-22T09:57:10Z</time></trkpt><trkpt lat="38.47091484992626" lon="16.262033358025846"><ele>1094.0</ele><time>2026-03-22T09:57:11Z</time></trkpt><trkpt lat="38.470981960855404" lon="16.26193802339364"><ele>1094.2</ele><time>2026-03-22T09:57:12Z</time></trkpt><trkpt lat="38.47104926468282" lon="16.261843812114748"><ele>1094.4</ele><time>2026-03-22T09:57:13Z</time></trkpt><trkpt lat="38.47111088407633" lon="16.26172898011437"><ele>1094.6</ele><time>2026-03-22T09:57:14Z</time></trkpt><trkpt lat="38.47115492756736" lon="16.2616214049558"><ele>1094.8</ele><time>2026-03-22T09:57:15Z</time></trkpt><trkpt lat="38.471237129138466" lon="16.261498736019025"><ele>1095.0</ele><time>2026-03-22T09:57:16Z</time></trkpt><trkpt lat="38.47130472753325" lon="16.261388573159362"><ele>1096.2</ele><time>2026-03-22T09:57:17Z</time></trkpt><trkpt lat="38.471383256478845" lon="16.26129209929044"><ele>1097.4</ele><time>2026-03-22T09:57:18Z</time></trkpt><trkpt lat="38.47145409227276" lon="16.261175219517817"><ele>1098.6</ele><time>2026-03-22T09:57:19Z</time></trkpt><trkpt lat="38.47152733253506" lon="16.261090223972854"><ele>1099.8</ele><time>2026-03-22T09:57:20Z</time></trkpt><trkpt lat="38.47157373568472" lon="16.261022443857215"><ele>1101.0</ele><time>2026-03-22T09:57:21Z</time></trkpt><trkpt lat="38.47165785483" lon="16.260935386736726"><ele>1101.0</ele><time>2026-03-22T09:57:22Z</time></trkpt><trkpt lat="38.471736002679464" lon="16.260873410873938"><ele>1101.0</ele><time>2026-03-22T09:57:23Z</time></trkpt><trkpt lat="38.47187303785981" lon="16.260821684859117"><ele>1101.0</ele><time>2026-03-22T09:57:24Z</time></trkpt><trkpt lat="38.47197147317475" lon="16.260764637207462"><ele>1101.0</ele><time>2026-03-22T09:57:25Z</time></trkpt><trkpt lat="38.47206514103618" lon="16.26070448057006"><ele>1101.0</ele><time>2026-03-22T09:57:26Z</time></trkpt><trkpt lat="38.472150778045965" lon="16.260658113305084"><ele>1100.8</ele><time>2026-03-22T09:57:27Z</time></trkpt><trkpt lat="38.472262911060675" lon="16.26062410932121"><ele>1100.6</ele><time>2026-03-22T09:57:28Z</time></trkpt><trkpt lat="38.47233793173522" lon="16.26057590706347"><ele>1100.4</ele><time>2026-03-22T09:57:30Z</time></trkpt><trkpt lat="38.472401359761356" lon="16.260612319416264"><ele>1100.2</ele><time>2026-03-22T09:57:31Z</time></trkpt><trkpt lat="38.47250253429875" lon="16.260573422482313"><ele>1100.0</ele><time>2026-03-22T09:57:33Z</time></trkpt><trkpt lat="38.47257049523836" lon="16.260528011036243"><ele>1100.0</ele><time>2026-03-22T09:57:34Z</time></trkpt><trkpt lat="38.472635007603465" lon="16.260484628902315"><ele>1100.0</ele><time>2026-03-22T09:57:36Z</time></trkpt><trkpt lat="38.472696869555826" lon="16.26046529114148"><ele>1100.0</ele><time>2026-03-22T09:57:38Z</time></trkpt><trkpt lat="38.47277398213365" lon="16.260456071974346"><ele>1100.0</ele><time>2026-03-22T09:57:40Z</time></trkpt><trkpt lat="38.47284156898602" lon="16.260387935317457"><ele>1100.0</ele><time>2026-03-22T09:57:42Z</time></trkpt><trkpt lat="38.47291400491522" lon="16.260347137556845"><ele>1100.0</ele><time>2026-03-22T09:57:45Z</time></trkpt><trkpt lat="38.47295784918576" lon="16.260288819875054"><ele>1100.0</ele><time>2026-03-22T09:57:48Z</time></trkpt><trkpt lat="38.473058492493735" lon="16.260282319314207"><ele>1101.6666666666667</ele><time>2026-03-22T09:57:50Z</time></trkpt><trkpt lat="38.47316352457427" lon="16.26022637910601"><ele>1103.3333333333335</ele><time>2026-03-22T09:57:52Z</time></trkpt><trkpt lat="38.47325053887584" lon="16.260212224899437"><ele>1105.0</ele><time>2026-03-22T09:57:54Z</time></trkpt><trkpt lat="38.47331955642782" lon="16.26016725960435"><ele>1106.6666666666667</ele><time>2026-03-22T09:57:56Z</time></trkpt><trkpt lat="38.47338522000045" lon="16.260144772083713"><ele>1108.3333333333333</ele><time>2026-03-22T09:58:08Z</time></trkpt><trkpt lat="38.4734399645204" lon="16.260059808669"><ele>1110.0</ele><time>2026-03-22T09:58:11Z</time></trkpt><trkpt lat="38.47353578802096" lon="16.260017298939125"><ele>1110.0</ele><time>2026-03-22T09:58:13Z</time></trkpt><trkpt lat="38.47363076809288" lon="16.259967807248966"><ele>1110.0</ele><time>2026-03-22T09:58:14Z</time></trkpt><trkpt lat="38.47373603399366" lon="16.25989575021765"><ele>1110.0</ele><time>2026-03-22T09:58:15Z</time></trkpt><trkpt lat="38.47380587638719" lon="16.259856052781256"><ele>1110.0</ele><time>2026-03-22T09:58:16Z</time></trkpt><trkpt lat="38.47387811198615" lon="16.25981993404509"><ele>1110.0</ele><time>2026-03-22T09:58:17Z</time></trkpt><trkpt lat="38.473990767348866" lon="16.259785939163503"><ele>1108.8</ele><time>2026-03-22T09:58:19Z</time></trkpt><trkpt lat="38.47406577936682" lon="16.259763349968214"><ele>1107.6</ele><time>2026-03-22T09:58:20Z</time></trkpt><trkpt lat="38.47418423274884" lon="16.259737296266294"><ele>1106.4</ele><time>2026-03-22T09:58:21Z</time></trkpt><trkpt lat="38.474286688843016" lon="16.25970780205137"><ele>1105.2</ele><time>2026-03-22T09:58:22Z</time></trkpt><trkpt lat="38.474375770824665" lon="16.2596762575102"><ele>1104.0</ele><time>2026-03-22T09:58:23Z</time></trkpt><trkpt lat="38.47445436700988" lon="16.259647819928848"><ele>1104.0</ele><time>2026-03-22T09:58:24Z</time></trkpt><trkpt lat="38.47452907073136" lon="16.259634870915097"><ele>1104.0</ele><time>2026-03-22T09:58:25Z</time></trkpt><trkpt lat="38.474617721579406" lon="16.25957986293834"><ele>1104.0</ele><time>2026-03-22T09:58:27Z</time></trkpt><trkpt lat="38.47473880573611" lon="16.25961052317846"><ele>1104.0</ele><time>2026-03-22T09:58:29Z</time></trkpt><trkpt lat="38.474824546951986" lon="16.25959108334296"><ele>1104.0</ele><time>2026-03-22T09:58:30Z</time></trkpt><trkpt lat="38.4749016390826" lon="16.25958645428719"><ele>1105.5</ele><time>2026-03-22T09:58:31Z</time></trkpt><trkpt lat="38.475004902861315" lon="16.259526457782986"><ele>1107.0</ele><time>2026-03-22T09:58:32Z</time></trkpt><trkpt lat="38.47508862538196" lon="16.259463889988563"><ele>1108.5</ele><time>2026-03-22T09:58:33Z</time></trkpt><trkpt lat="38.47519371700335" lon="16.259427830838845"><ele>1110.0</ele><time>2026-03-22T09:58:34Z</time></trkpt><trkpt lat="38.47538662177213" lon="16.259333735808188"><ele>1110.75</ele><time>2026-03-22T09:58:35Z</time></trkpt><trkpt lat="38.47553662546913" lon="16.25930058320898"><ele>1111.5</ele><time>2026-03-22T09:58:36Z</time></trkpt><trkpt lat="38.47565439476871" lon="16.259265342645183"><ele>1112.25</ele><time>2026-03-22T09:58:37Z</time></trkpt><trkpt lat="38.47575240781532" lon="16.25922502881866"><ele>1113.0</ele><time>2026-03-22T09:58:38Z</time></trkpt><trkpt lat="38.47584502928873" lon="16.25919742137769"><ele>1113.0</ele><time>2026-03-22T09:58:39Z</time></trkpt><trkpt lat="38.47593102541356" lon="16.259216482910194"><ele>1113.0</ele><time>2026-03-22T09:58:40Z</time></trkpt><trkpt lat="38.476002666932025" lon="16.259176085023185"><ele>1113.0</ele><time>2026-03-22T09:58:41Z</time></trkpt><trkpt lat="38.47611079746574" lon="16.259132232592798"><ele>1113.0</ele><time>2026-03-22T09:58:42Z</time></trkpt><trkpt lat="38.47621390896101" lon="16.259089423739034"><ele>1113.0</ele><time>2026-03-22T09:58:43Z</time></trkpt><trkpt lat="38.476283127753916" lon="16.259041571718686"><ele>1113.6</ele><time>2026-03-22T09:58:44Z</time></trkpt><trkpt lat="38.47636674746906" lon="16.258994733172557"><ele>1114.1999999999998</ele><time>2026-03-22T09:58:45Z</time></trkpt><trkpt lat="38.476462397352854" lon="16.25894276228281"><ele>1114.8</ele><time>2026-03-22T09:58:46Z</time></trkpt><trkpt lat="38.476565834861184" lon="16.258902298238816"><ele>1115.3999999999999</ele><time>2026-03-22T09:58:47Z</time></trkpt><trkpt lat="38.47667868413205" lon="16.258875181516125"><ele>1116.0</ele><time>2026-03-22T09:58:48Z</time></trkpt><trkpt lat="38.47680723851992" lon="16.25883787374789"><ele>1115.3999999999999</ele><time>2026-03-22T09:58:49Z</time></trkpt><trkpt lat="38.476912461360534" lon="16.258795920499036"><ele>1114.8</ele><time>2026-03-22T09:58:50Z</time></trkpt><trkpt lat="38.477005262750126" lon="16.258779482708558"><ele>1114.1999999999998</ele><time>2026-03-22T09:58:51Z</time></trkpt><trkpt lat="38.4771213184773" lon="16.258719468682294"><ele>1113.6</ele><time>2026-03-22T09:58:52Z</time></trkpt><trkpt lat="38.477226087297" lon="16.258680138954894"><ele>1113.0</ele><time>2026-03-22T09:58:53Z</time></trkpt><trkpt lat="38.47730856614017" lon="16.258655658709493"><ele>1113.0</ele><time>2026-03-22T09:58:54Z</time></trkpt><trkpt lat="38.477433051904846" lon="16.258593963515008"><ele>1113.0</ele><time>2026-03-22T09:58:56Z</time></trkpt><trkpt lat="38.47752473793831" lon="16.258556783280316"><ele>1113.0</ele><time>2026-03-22T09:58:57Z</time></trkpt><trkpt lat="38.4775954480344" lon="16.258546625393283"><ele>1113.0</ele><time>2026-03-22T09:58:58Z</time></trkpt><trkpt lat="38.47766728147597" lon="16.25852534420865"><ele>1113.0</ele><time>2026-03-22T09:58:59Z</time></trkpt><trkpt lat="38.477734976956484" lon="16.258509427403496"><ele>1113.0</ele><time>2026-03-22T09:59:00Z</time></trkpt><trkpt lat="38.477808006351076" lon="16.258493220198996"><ele>1113.0</ele><time>2026-03-22T09:59:01Z</time></trkpt><trkpt lat="38.47787738958577" lon="16.258451636764143"><ele>1113.0</ele><time>2026-03-22T09:59:02Z</time></trkpt><trkpt lat="38.47795148357973" lon="16.258402222745374"><ele>1113.0</ele><time>2026-03-22T09:59:03Z</time></trkpt><trkpt lat="38.478022964882605" lon="16.258347924709717"><ele>1113.0</ele><time>2026-03-22T09:59:04Z</time></trkpt><trkpt lat="38.4780981698072" lon="16.258294772567247"><ele>1113.0</ele><time>2026-03-22T09:59:05Z</time></trkpt><trkpt lat="38.4781657817359" lon="16.25824400253486"><ele>1113.0</ele><time>2026-03-22T09:59:06Z</time></trkpt><trkpt lat="38.47822887972504" lon="16.258184445732105"><ele>1113.8333333333333</ele><time>2026-03-22T09:59:07Z</time></trkpt><trkpt lat="38.47828100091221" lon="16.258138338682986"><ele>1114.6666666666667</ele><time>2026-03-22T09:59:08Z</time></trkpt><trkpt lat="38.478341037387516" lon="16.25806884350782"><ele>1115.5</ele><time>2026-03-22T09:59:09Z</time></trkpt><trkpt lat="38.47840509546527" lon="16.2580027879172"><ele>1116.3333333333335</ele><time>2026-03-22T09:59:10Z</time></trkpt><trkpt lat="38.47848416455677" lon="16.25793819440603"><ele>1117.1666666666667</ele><time>2026-03-22T09:59:11Z</time></trkpt><trkpt lat="38.47855557528105" lon="16.257879198331445"><ele>1118.0</ele><time>2026-03-22T09:59:12Z</time></trkpt><trkpt lat="38.478622572681495" lon="16.25781758583444"><ele>1118.1666666666667</ele><time>2026-03-22T09:59:13Z</time></trkpt><trkpt lat="38.47868213517978" lon="16.257764991849154"><ele>1118.3333333333335</ele><time>2026-03-22T09:59:14Z</time></trkpt><trkpt lat="38.47879075839485" lon="16.25766273925019"><ele>1118.5</ele><time>2026-03-22T09:59:16Z</time></trkpt><trkpt lat="38.47885824096489" lon="16.257604765731088"><ele>1118.6666666666667</ele><time>2026-03-22T09:59:17Z</time></trkpt><trkpt lat="38.478916048798304" lon="16.257549744522933"><ele>1118.8333333333333</ele><time>2026-03-22T09:59:18Z</time></trkpt><trkpt lat="38.47896973767495" lon="16.25749456062367"><ele>1119.0</ele><time>2026-03-22T09:59:19Z</time></trkpt><trkpt lat="38.479011055272665" lon="16.257426408147353"><ele>1119.4</ele><time>2026-03-22T09:59:20Z</time></trkpt><trkpt lat="38.47905572061198" lon="16.257366137552104"><ele>1119.8000000000002</ele><time>2026-03-22T09:59:21Z</time></trkpt><trkpt lat="38.479119575917565" lon="16.257231777568933"><ele>1120.1999999999998</ele><time>2026-03-22T09:59:22Z</time></trkpt><trkpt lat="38.47918325717926" lon="16.257144636439325"><ele>1120.6</ele><time>2026-03-22T09:59:23Z</time></trkpt><trkpt lat="38.4792468689593" lon="16.25706219051336"><ele>1121.0</ele><time>2026-03-22T09:59:24Z</time></trkpt><trkpt lat="38.47932965934304" lon="16.256990041095115"><ele>1121.0</ele><time>2026-03-22T09:59:25Z</time></trkpt><trkpt lat="38.47940271962226" lon="16.256905905145597"><ele>1121.0</ele><time>2026-03-22T09:59:26Z</time></trkpt><trkpt lat="38.47948099313397" lon="16.256848194004295"><ele>1121.0</ele><time>2026-03-22T09:59:27Z</time></trkpt><trkpt lat="38.479534220967025" lon="16.25675467506167"><ele>1121.0</ele><time>2026-03-22T09:59:28Z</time></trkpt><trkpt lat="38.47961700998884" lon="16.256701340642117"><ele>1121.0</ele><time>2026-03-22T09:59:29Z</time></trkpt><trkpt lat="38.47966669415141" lon="16.256611879319504"><ele>1121.2</ele><time>2026-03-22T09:59:30Z</time></trkpt><trkpt lat="38.479748803537305" lon="16.256533719832817"><ele>1121.3999999999999</ele><time>2026-03-22T09:59:31Z</time></trkpt><trkpt lat="38.47982069394166" lon="16.256449271224945"><ele>1121.6</ele><time>2026-03-22T09:59:32Z</time></trkpt><trkpt lat="38.47992239645021" lon="16.256335972466395"><ele>1121.8</ele><time>2026-03-22T09:59:33Z</time></trkpt><trkpt lat="38.479990298420354" lon="16.256232884024858"><ele>1122.0</ele><time>2026-03-22T09:59:34Z</time></trkpt><trkpt lat="38.48005460696039" lon="16.256145592221646"><ele>1122.0</ele><time>2026-03-22T09:59:35Z</time></trkpt><trkpt lat="38.4801179676014" lon="16.25607109600367"><ele>1122.0</ele><time>2026-03-22T09:59:36Z</time></trkpt><trkpt lat="38.48017303620895" lon="16.256003058448425"><ele>1122.0</ele><time>2026-03-22T09:59:37Z</time></trkpt><trkpt lat="38.48027180941367" lon="16.25591333590588"><ele>1122.0</ele><time>2026-03-22T09:59:39Z</time></trkpt><trkpt lat="38.48032343496377" lon="16.255855744759508"><ele>1122.0</ele><time>2026-03-22T09:59:40Z</time></trkpt><trkpt lat="38.48040797673864" lon="16.25576100347121"><ele>1123.5</ele><time>2026-03-22T09:59:42Z</time></trkpt><trkpt lat="38.48048591031692" lon="16.255725710894616"><ele>1125.0</ele><time>2026-03-22T09:59:44Z</time></trkpt><trkpt lat="38.48058842854048" lon="16.255717455614473"><ele>1126.5</ele><time>2026-03-22T09:59:46Z</time></trkpt><trkpt lat="38.480651358992034" lon="16.255703715525176"><ele>1128.0</ele><time>2026-03-22T09:59:47Z</time></trkpt><trkpt lat="38.48072541567874" lon="16.25568205139138"><ele>1129.5</ele><time>2026-03-22T09:59:48Z</time></trkpt><trkpt lat="38.48083699101945" lon="16.255663907059382"><ele>1131.0</ele><time>2026-03-22T09:59:50Z</time></trkpt><trkpt lat="38.480922778744414" lon="16.25568940489234"><ele>1131.0</ele><time>2026-03-22T09:59:51Z</time></trkpt><trkpt lat="38.48097367108327" lon="16.25561541632677"><ele>1131.0</ele><time>2026-03-22T10:00:52Z</time></trkpt><trkpt lat="38.48109285866223" lon="16.25568589475382"><ele>1131.0</ele><time>2026-03-22T10:00:54Z</time></trkpt><trkpt lat="38.48121720337231" lon="16.25569754322861"><ele>1131.0</ele><time>2026-03-22T10:00:56Z</time></trkpt><trkpt lat="38.48131658982561" lon="16.255687097113892"><ele>1131.0</ele><time>2026-03-22T10:00:58Z</time></trkpt><trkpt lat="38.48141372870186" lon="16.25567973892723"><ele>1131.8</ele><time>2026-03-22T10:01:00Z</time></trkpt><trkpt lat="38.48149821778154" lon="16.255716562014864"><ele>1132.6</ele><time>2026-03-22T10:01:02Z</time></trkpt><trkpt lat="38.48160839718482" lon="16.255753944191355"><ele>1133.4</ele><time>2026-03-22T10:01:04Z</time></trkpt><trkpt lat="38.48170089532784" lon="16.25574981223627"><ele>1134.2</ele><time>2026-03-22T10:01:06Z</time></trkpt><trkpt lat="38.48177224317671" lon="16.25573952786687"><ele>1135.0</ele><time>2026-03-22T10:01:07Z</time></trkpt><trkpt lat="38.481884808844214" lon="16.255744614331576"><ele>1135.0</ele><time>2026-03-22T10:01:09Z</time></trkpt><trkpt lat="38.48199836778875" lon="16.255709931956666"><ele>1135.0</ele><time>2026-03-22T10:01:11Z</time></trkpt><trkpt lat="38.48206260904949" lon="16.255660091451183"><ele>1135.0</ele><time>2026-03-22T10:01:12Z</time></trkpt><trkpt lat="38.482160045053185" lon="16.255523429708816"><ele>1135.0</ele><time>2026-03-22T10:01:14Z</time></trkpt><trkpt lat="38.48221334442138" lon="16.25545297221325"><ele>1135.0</ele><time>2026-03-22T10:01:15Z</time></trkpt><trkpt lat="38.48226024369794" lon="16.25537826668425"><ele>1136.6666666666665</ele><time>2026-03-22T10:01:16Z</time></trkpt><trkpt lat="38.4822954324116" lon="16.255305598747597"><ele>1138.3333333333333</ele><time>2026-03-22T10:01:17Z</time></trkpt><trkpt lat="38.48233824988632" lon="16.25524061555233"><ele>1140.0</ele><time>2026-03-22T10:01:18Z</time></trkpt><trkpt lat="38.482376483297145" lon="16.255172437192076"><ele>1141.6666666666667</ele><time>2026-03-22T10:01:19Z</time></trkpt><trkpt lat="38.482495729526434" lon="16.255071161927617"><ele>1143.3333333333335</ele><time>2026-03-22T10:01:21Z</time></trkpt><trkpt lat="38.48254780680251" lon="16.255015050045472"><ele>1145.0</ele><time>2026-03-22T10:01:22Z</time></trkpt><trkpt lat="38.48264896778054" lon="16.254964989170638"><ele>1145.0</ele><time>2026-03-22T10:01:24Z</time></trkpt><trkpt lat="38.48263675471362" lon="16.254869677255275"><ele>1145.0</ele><time>2026-03-22T10:01:27Z</time></trkpt><trkpt lat="38.482682091831926" lon="16.25476971088674"><ele>1145.0</ele><time>2026-03-22T10:01:29Z</time></trkpt><trkpt lat="38.48269249693471" lon="16.25460960155089"><ele>1145.0</ele><time>2026-03-22T10:01:31Z</time></trkpt><trkpt lat="38.48269026870055" lon="16.254524701673223"><ele>1145.0</ele><time>2026-03-22T10:01:32Z</time></trkpt><trkpt lat="38.48268838233227" lon="16.25444282751818"><ele>1145.0</ele><time>2026-03-22T10:01:33Z</time></trkpt><trkpt lat="38.48267413425712" lon="16.254363334102816"><ele>1145.2</ele><time>2026-03-22T10:01:34Z</time></trkpt><trkpt lat="38.48272334814498" lon="16.25427199587"><ele>1145.4</ele><time>2026-03-22T10:01:36Z</time></trkpt><trkpt lat="38.482816968617314" lon="16.25433918667108"><ele>1145.6</ele><time>2026-03-22T10:01:38Z</time></trkpt><trkpt lat="38.482877247432874" lon="16.254379507339834"><ele>1145.8</ele><time>2026-03-22T10:01:39Z</time></trkpt><trkpt lat="38.48294103693127" lon="16.25453162247611"><ele>1146.0</ele><time>2026-03-22T10:01:41Z</time></trkpt><trkpt lat="38.48300085625619" lon="16.254642014093733"><ele>1149.0</ele><time>2026-03-22T10:01:43Z</time></trkpt><trkpt lat="38.483097794684994" lon="16.254685664880284"><ele>1152.0</ele><time>2026-03-22T10:01:45Z</time></trkpt><trkpt lat="38.48317226211752" lon="16.25467976643359"><ele>1155.0</ele><time>2026-03-22T10:01:46Z</time></trkpt><trkpt lat="38.483244912958156" lon="16.254696780151285"><ele>1158.0</ele><time>2026-03-22T10:01:47Z</time></trkpt><trkpt lat="38.48334374236612" lon="16.254692108138762"><ele>1161.0</ele><time>2026-03-22T10:01:49Z</time></trkpt><trkpt lat="38.48343556464397" lon="16.25464509130718"><ele>1164.0</ele><time>2026-03-22T10:01:51Z</time></trkpt><trkpt lat="38.483518637584964" lon="16.25461199830776"><ele>1164.0</ele><time>2026-03-22T10:01:53Z</time></trkpt><trkpt lat="38.48360083313886" lon="16.25457983651027"><ele>1164.0</ele><time>2026-03-22T10:01:55Z</time></trkpt><trkpt lat="38.48367617911996" lon="16.25448479502292"><ele>1164.0</ele><time>2026-03-22T10:01:57Z</time></trkpt><trkpt lat="38.483731838917464" lon="16.25441923743178"><ele>1164.0</ele><time>2026-03-22T10:01:58Z</time></trkpt><trkpt lat="38.483783194292414" lon="16.254352258755492"><ele>1164.0</ele><time>2026-03-22T10:01:59Z</time></trkpt><trkpt lat="38.483829972358514" lon="16.25428903832873"><ele>1164.0</ele><time>2026-03-22T10:02:00Z</time></trkpt><trkpt lat="38.483921776065756" lon="16.254192881894575"><ele>1165.0</ele><time>2026-03-22T10:02:02Z</time></trkpt><trkpt lat="38.483964747580835" lon="16.254128583470273"><ele>1166.0</ele><time>2026-03-22T10:02:03Z</time></trkpt><trkpt lat="38.48401074376497" lon="16.254040350846793"><ele>1167.0</ele><time>2026-03-22T10:02:04Z</time></trkpt><trkpt lat="38.48404998371095" lon="16.25397039996997"><ele>1168.0</ele><time>2026-03-22T10:02:05Z</time></trkpt><trkpt lat="38.48411959152158" lon="16.25387994826426"><ele>1169.0</ele><time>2026-03-22T10:02:07Z</time></trkpt><trkpt lat="38.48418578561963" lon="16.253827824741986"><ele>1170.0</ele><time>2026-03-22T10:02:08Z</time></trkpt><trkpt lat="38.48424088181185" lon="16.253777706410123"><ele>1170.0</ele><time>2026-03-22T10:02:09Z</time></trkpt><trkpt lat="38.48431091936789" lon="16.253733562394935"><ele>1170.0</ele><time>2026-03-22T10:02:10Z</time></trkpt><trkpt lat="38.48439772739459" lon="16.253680704096364"><ele>1170.0</ele><time>2026-03-22T10:02:11Z</time></trkpt><trkpt lat="38.4845064315563" lon="16.25365190009332"><ele>1170.0</ele><time>2026-03-22T10:02:12Z</time></trkpt><trkpt lat="38.48459529083571" lon="16.253559448477947"><ele>1170.0</ele><time>2026-03-22T10:02:13Z</time></trkpt><trkpt lat="38.48467434629434" lon="16.25348453376613"><ele>1174.6</ele><time>2026-03-22T10:02:14Z</time></trkpt><trkpt lat="38.484698268212355" lon="16.25337514305412"><ele>1179.2</ele><time>2026-03-22T10:02:15Z</time></trkpt><trkpt lat="38.484766253656396" lon="16.25333720851948"><ele>1183.8</ele><time>2026-03-22T10:02:16Z</time></trkpt><trkpt lat="38.48477598403968" lon="16.25323417976709"><ele>1188.4</ele><time>2026-03-22T10:02:17Z</time></trkpt><trkpt lat="38.48477731335152" lon="16.2530595140947"><ele>1193.0</ele><time>2026-03-22T10:02:19Z</time></trkpt><trkpt lat="38.484724453488475" lon="16.252987860569327"><ele>1193.5</ele><time>2026-03-22T10:02:20Z</time></trkpt><trkpt lat="38.48470256366933" lon="16.252847524850335"><ele>1194.0</ele><time>2026-03-22T10:02:21Z</time></trkpt><trkpt lat="38.48465934152004" lon="16.252772332812395"><ele>1194.5</ele><time>2026-03-22T10:02:22Z</time></trkpt><trkpt lat="38.484637163713174" lon="16.25268906810921"><ele>1195.0</ele><time>2026-03-22T10:02:23Z</time></trkpt><trkpt lat="38.48463574193435" lon="16.25256736042631"><ele>1195.5</ele><time>2026-03-22T10:02:25Z</time></trkpt><trkpt lat="38.48462670656519" lon="16.252486315484393"><ele>1196.0</ele><time>2026-03-22T10:02:26Z</time></trkpt><trkpt lat="38.48466459406051" lon="16.252243681496395"><ele>1196.0</ele><time>2026-03-22T10:02:28Z</time></trkpt><trkpt lat="38.48466391069012" lon="16.25213731238932"><ele>1196.0</ele><time>2026-03-22T10:02:30Z</time></trkpt><trkpt lat="38.48467894972561" lon="16.252052175361605"><ele>1196.0</ele><time>2026-03-22T10:02:31Z</time></trkpt><trkpt lat="38.48467646791827" lon="16.2519539950806"><ele>1196.0</ele><time>2026-03-22T10:02:32Z</time></trkpt><trkpt lat="38.48470391496668" lon="16.251823188126266"><ele>1196.0</ele><time>2026-03-22T10:02:34Z</time></trkpt><trkpt lat="38.48477534359776" lon="16.25171697180312"><ele>1196.0</ele><time>2026-03-22T10:02:36Z</time></trkpt><trkpt lat="38.48483056359355" lon="16.251659456119867"><ele>1196.0</ele><time>2026-03-22T10:02:38Z</time></trkpt><trkpt lat="38.484900147218006" lon="16.251675359181462"><ele>1196.0</ele><time>2026-03-22T10:02:39Z</time></trkpt><trkpt lat="38.48496011081797" lon="16.251710776874244"><ele>1196.0</ele><time>2026-03-22T10:02:40Z</time></trkpt><trkpt lat="38.48506150863244" lon="16.25173192392715"><ele>1196.0</ele><time>2026-03-22T10:02:42Z</time></trkpt><trkpt lat="38.48517739105374" lon="16.25172950929235"><ele>1196.0</ele><time>2026-03-22T10:02:44Z</time></trkpt><trkpt lat="38.48525448569634" lon="16.251720148629456"><ele>1196.0</ele><time>2026-03-22T10:02:45Z</time></trkpt><trkpt lat="38.48532138385753" lon="16.251696276752607"><ele>1196.0</ele><time>2026-03-22T10:02:46Z</time></trkpt><trkpt lat="38.485376906548396" lon="16.251621446975438"><ele>1196.0</ele><time>2026-03-22T10:02:47Z</time></trkpt><trkpt lat="38.48543455747527" lon="16.251548913203017"><ele>1196.0</ele><time>2026-03-22T10:02:48Z</time></trkpt><trkpt lat="38.48550886397877" lon="16.251478952084796"><ele>1196.0</ele><time>2026-03-22T10:02:49Z</time></trkpt><trkpt lat="38.48559643800738" lon="16.251424341674213"><ele>1196.0</ele><time>2026-03-22T10:02:50Z</time></trkpt><trkpt lat="38.48565272441262" lon="16.25138188736423"><ele>1196.0</ele><time>2026-03-22T10:02:51Z</time></trkpt><trkpt lat="38.485769097948875" lon="16.251397871351937"><ele>1197.1666666666667</ele><time>2026-03-22T10:02:53Z</time></trkpt><trkpt lat="38.485867759649686" lon="16.251270762967998"><ele>1198.3333333333335</ele><time>2026-03-22T10:02:55Z</time></trkpt><trkpt lat="38.48588887432776" lon="16.251186296266194"><ele>1199.5</ele><time>2026-03-22T10:02:56Z</time></trkpt><trkpt lat="38.485877722032974" lon="16.251104386083732"><ele>1200.6666666666667</ele><time>2026-03-22T10:02:57Z</time></trkpt><trkpt lat="38.48590885500368" lon="16.251010534289698"><ele>1201.8333333333333</ele><time>2026-03-22T10:02:58Z</time></trkpt><trkpt lat="38.48595609088205" lon="16.250955539293546"><ele>1203.0</ele><time>2026-03-22T10:02:59Z</time></trkpt><trkpt lat="38.48601201485885" lon="16.250869342052795"><ele>1203.0</ele><time>2026-03-22T10:03:00Z</time></trkpt><trkpt lat="38.48607696697028" lon="16.250798831564826"><ele>1203.0</ele><time>2026-03-22T10:03:01Z</time></trkpt><trkpt lat="38.486152514706696" lon="16.25072182482021"><ele>1203.0</ele><time>2026-03-22T10:03:02Z</time></trkpt><trkpt lat="38.48621903907964" lon="16.250644472507044"><ele>1203.0</ele><time>2026-03-22T10:03:03Z</time></trkpt><trkpt lat="38.486290729778105" lon="16.250573595498373"><ele>1203.0</ele><time>2026-03-22T10:03:04Z</time></trkpt><trkpt lat="38.48633427641654" lon="16.250502300290325"><ele>1203.0</ele><time>2026-03-22T10:03:05Z</time></trkpt><trkpt lat="38.486381368768605" lon="16.25044270544752"><ele>1203.7142857142858</ele><time>2026-03-22T10:03:06Z</time></trkpt><trkpt lat="38.48643007053656" lon="16.250387727535337"><ele>1204.4285714285716</ele><time>2026-03-22T10:03:07Z</time></trkpt><trkpt lat="38.4864462735786" lon="16.250260003416408"><ele>1205.1428571428573</ele><time>2026-03-22T10:03:09Z</time></trkpt><trkpt lat="38.48643455016145" lon="16.25018092283032"><ele>1205.857142857143</ele><time>2026-03-22T10:03:10Z</time></trkpt><trkpt lat="38.48641004951159" lon="16.250104394376898"><ele>1206.5714285714287</ele><time>2026-03-22T10:03:11Z</time></trkpt><trkpt lat="38.48637066971688" lon="16.250036730622288"><ele>1207.2857142857144</ele><time>2026-03-22T10:03:12Z</time></trkpt><trkpt lat="38.48630954169991" lon="16.24995410552537"><ele>1208.0</ele><time>2026-03-22T10:03:13Z</time></trkpt><trkpt lat="38.48624115673141" lon="16.249873551196018"><ele>1208.0</ele><time>2026-03-22T10:03:14Z</time></trkpt><trkpt lat="38.486184048392104" lon="16.24983663961765"><ele>1208.0</ele><time>2026-03-22T10:03:15Z</time></trkpt><trkpt lat="38.48612222967497" lon="16.249734846792396"><ele>1208.0</ele><time>2026-03-22T10:03:17Z</time></trkpt><trkpt lat="38.4861042659729" lon="16.249573130560176"><ele>1208.0</ele><time>2026-03-22T10:03:19Z</time></trkpt><trkpt lat="38.4860761291513" lon="16.249485992044754"><ele>1208.0</ele><time>2026-03-22T10:03:20Z</time></trkpt><trkpt lat="38.48606969174916" lon="16.24936257533882"><ele>1210.0</ele><time>2026-03-22T10:03:21Z</time></trkpt><trkpt lat="38.4860530521577" lon="16.249260428492136"><ele>1212.0</ele><time>2026-03-22T10:03:22Z</time></trkpt><trkpt lat="38.48602794993286" lon="16.249174056819093"><ele>1214.0</ele><time>2026-03-22T10:03:23Z</time></trkpt><trkpt lat="38.48600170316895" lon="16.24903281235723"><ele>1216.0</ele><time>2026-03-22T10:03:25Z</time></trkpt><trkpt lat="38.48593583855572" lon="16.24896228259135"><ele>1218.0</ele><time>2026-03-22T10:03:27Z</time></trkpt><trkpt lat="38.48593433469837" lon="16.248842153292696"><ele>1220.0</ele><time>2026-03-22T10:03:29Z</time></trkpt><trkpt lat="38.48597886385792" lon="16.248742237531467"><ele>1220.0</ele><time>2026-03-22T10:03:31Z</time></trkpt><trkpt lat="38.48607589287353" lon="16.248699175003956"><ele>1220.0</ele><time>2026-03-22T10:03:32Z</time></trkpt><trkpt lat="38.486146810589865" lon="16.248649584965797"><ele>1220.0</ele><time>2026-03-22T10:03:34Z</time></trkpt><trkpt lat="38.48623688970859" lon="16.248654852829375"><ele>1220.0</ele><time>2026-03-22T10:03:36Z</time></trkpt><trkpt lat="38.48631412091059" lon="16.24866560360201"><ele>1220.0</ele><time>2026-03-22T10:03:37Z</time></trkpt><trkpt lat="38.48638412401947" lon="16.24866106889063"><ele>1220.0</ele><time>2026-03-22T10:03:39Z</time></trkpt><trkpt lat="38.48649649344205" lon="16.248707340549725"><ele>1223.0</ele><time>2026-03-22T10:03:41Z</time></trkpt><trkpt lat="38.48660061715362" lon="16.2487435905786"><ele>1226.0</ele><time>2026-03-22T10:03:43Z</time></trkpt><trkpt lat="38.486733332260044" lon="16.24873201651723"><ele>1229.0</ele><time>2026-03-22T10:03:45Z</time></trkpt><trkpt lat="38.486810602421194" lon="16.248711082408793"><ele>1232.0</ele><time>2026-03-22T10:03:46Z</time></trkpt><trkpt lat="38.48689607865788" lon="16.248690988994326"><ele>1235.0</ele><time>2026-03-22T10:03:47Z</time></trkpt><trkpt lat="38.486981151204944" lon="16.248666387955634"><ele>1235.0</ele><time>2026-03-22T10:03:48Z</time></trkpt><trkpt lat="38.487090520013695" lon="16.248604813511044"><ele>1235.0</ele><time>2026-03-22T10:03:50Z</time></trkpt><trkpt lat="38.48717848081822" lon="16.24852155175444"><ele>1235.0</ele><time>2026-03-22T10:03:52Z</time></trkpt><trkpt lat="38.48725752318548" lon="16.248445516454197"><ele>1235.0</ele><time>2026-03-22T10:03:54Z</time></trkpt><trkpt lat="38.487271945599296" lon="16.24832400753969"><ele>1235.0</ele><time>2026-03-22T10:03:57Z</time></trkpt><trkpt lat="38.48731613838108" lon="16.24824837594987"><ele>1238.6</ele><time>2026-03-22T10:03:59Z</time></trkpt><trkpt lat="38.48737259616209" lon="16.24812001312399"><ele>1242.2</ele><time>2026-03-22T10:04:01Z</time></trkpt><trkpt lat="38.48737873372866" lon="16.248005510709987"><ele>1245.8</ele><time>2026-03-22T10:04:03Z</time></trkpt><trkpt lat="38.48743216855766" lon="16.247951120729528"><ele>1249.4</ele><time>2026-03-22T10:04:05Z</time></trkpt><trkpt lat="38.487515731430214" lon="16.247908335719725"><ele>1253.0</ele><time>2026-03-22T10:04:06Z</time></trkpt><trkpt lat="38.48752246396709" lon="16.247766757649494"><ele>1253.0</ele><time>2026-03-22T10:04:08Z</time></trkpt><trkpt lat="38.487554675558684" lon="16.247674598046427"><ele>1253.0</ele><time>2026-03-22T10:04:10Z</time></trkpt><trkpt lat="38.48756532217271" lon="16.24759450755047"><ele>1253.0</ele><time>2026-03-22T10:04:12Z</time></trkpt><trkpt lat="38.4875895863627" lon="16.247473505704747"><ele>1253.0</ele><time>2026-03-22T10:04:14Z</time></trkpt><trkpt lat="38.487587079019725" lon="16.24736095718551"><ele>1253.0</ele><time>2026-03-22T10:04:16Z</time></trkpt><trkpt lat="38.48760041179437" lon="16.247238428098875"><ele>1253.0</ele><time>2026-03-22T10:04:18Z</time></trkpt><trkpt lat="38.48757504125402" lon="16.247091203327514"><ele>1255.2</ele><time>2026-03-22T10:04:20Z</time></trkpt><trkpt lat="38.48756576280595" lon="16.246997526928563"><ele>1257.4</ele><time>2026-03-22T10:04:22Z</time></trkpt><trkpt lat="38.48751682524084" lon="16.246909605504847"><ele>1259.6000000000001</ele><time>2026-03-22T10:04:24Z</time></trkpt><trkpt lat="38.487477416316054" lon="16.24679808384573"><ele>1261.8</ele><time>2026-03-22T10:04:26Z</time></trkpt><trkpt lat="38.487443778793036" lon="16.24670905746533"><ele>1264.0</ele><time>2026-03-22T10:04:28Z</time></trkpt><trkpt lat="38.487470725376774" lon="16.2465311464256"><ele>1265.0</ele><time>2026-03-22T10:04:30Z</time></trkpt><trkpt lat="38.48748415639939" lon="16.246407600285952"><ele>1266.0</ele><time>2026-03-22T10:04:32Z</time></trkpt><trkpt lat="38.487533157076946" lon="16.246324051385244"><ele>1267.0</ele><time>2026-03-22T10:04:34Z</time></trkpt><trkpt lat="38.48764250839168" lon="16.24626451224786"><ele>1268.0</ele><time>2026-03-22T10:04:36Z</time></trkpt><trkpt lat="38.48770270458917" lon="16.246221936334745"><ele>1269.0</ele><time>2026-03-22T10:04:37Z</time></trkpt><trkpt lat="38.48777404721334" lon="16.24618213541161"><ele>1270.0</ele><time>2026-03-22T10:04:38Z</time></trkpt><trkpt lat="38.487857937184486" lon="16.246134338450368"><ele>1270.0</ele><time>2026-03-22T10:04:39Z</time></trkpt><trkpt lat="38.48792476744085" lon="16.24608817349306"><ele>1270.0</ele><time>2026-03-22T10:04:40Z</time></trkpt><trkpt lat="38.487974761453366" lon="16.246011891222444"><ele>1270.0</ele><time>2026-03-22T10:04:41Z</time></trkpt><trkpt lat="38.48806603188959" lon="16.245926707860157"><ele>1270.0</ele><time>2026-03-22T10:04:43Z</time></trkpt><trkpt lat="38.48815998829247" lon="16.245890228662255"><ele>1270.0</ele><time>2026-03-22T10:04:45Z</time></trkpt><trkpt lat="38.48823555821558" lon="16.24586156641122"><ele>1270.0</ele><time>2026-03-22T10:04:47Z</time></trkpt><trkpt lat="38.48834574650088" lon="16.24583909377801"><ele>1270.0</ele><time>2026-03-22T10:04:49Z</time></trkpt><trkpt lat="38.48844311049118" lon="16.245800010789356"><ele>1270.0</ele><time>2026-03-22T10:04:52Z</time></trkpt><trkpt lat="38.48850586937045" lon="16.24583947051664"><ele>1270.0</ele><time>2026-03-22T10:04:54Z</time></trkpt><trkpt lat="38.488579419513364" lon="16.245807448381218"><ele>1270.0</ele><time>2026-03-22T10:04:56Z</time></trkpt><trkpt lat="38.488668366798755" lon="16.24575145006983"><ele>1270.0</ele><time>2026-03-22T10:04:58Z</time></trkpt><trkpt lat="38.48873310357704" lon="16.24574124731977"><ele>1270.0</ele><time>2026-03-22T10:04:59Z</time></trkpt><trkpt lat="38.48885481149949" lon="16.245729589285745"><ele>1271.3333333333333</ele><time>2026-03-22T10:05:01Z</time></trkpt><trkpt lat="38.48893898946308" lon="16.24573331226659"><ele>1272.6666666666665</ele><time>2026-03-22T10:05:04Z</time></trkpt><trkpt lat="38.48900633044684" lon="16.245741125192062"><ele>1274.0</ele><time>2026-03-22T10:05:08Z</time></trkpt><trkpt lat="38.489073127866256" lon="16.245726555398825"><ele>1275.3333333333333</ele><time>2026-03-22T10:08:00Z</time></trkpt><trkpt lat="38.48898043519326" lon="16.245737115165394"><ele>1276.6666666666667</ele><time>2026-03-22T10:08:28Z</time></trkpt><trkpt lat="38.48899999071652" lon="16.245823095533957"><ele>1278.0</ele><time>2026-03-22T10:08:59Z</time></trkpt><trkpt lat="38.488936092323414" lon="16.245790458783123"><ele>1278.0</ele><time>2026-03-22T10:09:13Z</time></trkpt><trkpt lat="38.48890298895355" lon="16.24572157280303"><ele>1278.0</ele><time>2026-03-22T10:09:18.998Z</time></trkpt><trkpt lat="38.489004115319304" lon="16.24569251124721"><ele>1278.0</ele><time>2026-03-22T10:09:38.999Z</time></trkpt><trkpt lat="38.489038229705535" lon="16.245617405488538"><ele>1278.0</ele><time>2026-03-22T10:09:48.999Z</time></trkpt><trkpt lat="38.48899432896654" lon="16.24568550827533"><ele>1278.0</ele><time>2026-03-22T10:10:03.999Z</time></trkpt><trkpt lat="38.489057362463804" lon="16.245715017473383"><ele>1278.0</ele><time>2026-03-22T10:11:00.999Z</time></trkpt><trkpt lat="38.489141438973064" lon="16.24575127566398"><ele>1278.0</ele><time>2026-03-22T10:11:02.999Z</time></trkpt><trkpt lat="38.489246078982966" lon="16.2457357472326"><ele>1278.0</ele><time>2026-03-22T10:11:05.999Z</time></trkpt><trkpt lat="38.489325002740344" lon="16.245753003489533"><ele>1278.0</ele><time>2026-03-22T10:11:07.999Z</time></trkpt><trkpt lat="38.48942470290756" lon="16.245803810493598"><ele>1278.0</ele><time>2026-03-22T10:11:09.999Z</time></trkpt><trkpt lat="38.489504742925675" lon="16.245827119128542"><ele>1278.0</ele><time>2026-03-22T10:11:11.999Z</time></trkpt><trkpt lat="38.489572259548574" lon="16.24587110690752"><ele>1277.1666666666667</ele><time>2026-03-22T10:11:14.999Z</time></trkpt><trkpt lat="38.48962225225046" lon="16.24592615539225"><ele>1276.3333333333333</ele><time>2026-03-22T10:11:19.999Z</time></trkpt><trkpt lat="38.48968688263396" lon="16.245928625346377"><ele>1275.5</ele><time>2026-03-22T10:11:27.998Z</time></trkpt><trkpt lat="38.48974955128643" lon="16.24591812727205"><ele>1274.6666666666665</ele><time>2026-03-22T10:11:30.998Z</time></trkpt><trkpt lat="38.48982862427859" lon="16.24592120104041"><ele>1273.8333333333333</ele><time>2026-03-22T10:11:33.998Z</time></trkpt><trkpt lat="38.489935611790365" lon="16.245963437325614"><ele>1273.0</ele><time>2026-03-22T10:11:36.998Z</time></trkpt><trkpt lat="38.49004033170603" lon="16.24596945751306"><ele>1273.0</ele><time>2026-03-22T10:11:38.998Z</time></trkpt><trkpt lat="38.49010972794612" lon="16.245948477228637"><ele>1273.0</ele><time>2026-03-22T10:11:40.998Z</time></trkpt><trkpt lat="38.49018690335318" lon="16.245903669766335"><ele>1273.0</ele><time>2026-03-22T10:11:42.999Z</time></trkpt><trkpt lat="38.490263253554645" lon="16.245839737321283"><ele>1273.0</ele><time>2026-03-22T10:11:44.999Z</time></trkpt><trkpt lat="38.490335927140706" lon="16.24577180040982"><ele>1273.0</ele><time>2026-03-22T10:11:46.999Z</time></trkpt><trkpt lat="38.49039080947742" lon="16.245717527126285"><ele>1273.0</ele><time>2026-03-22T10:11:48.999Z</time></trkpt><trkpt lat="38.49043938232069" lon="16.24566119613848"><ele>1272.1666666666665</ele><time>2026-03-22T10:11:52.999Z</time></trkpt><trkpt lat="38.49047352678392" lon="16.24558940064294"><ele>1271.3333333333333</ele><time>2026-03-22T10:11:56.999Z</time></trkpt><trkpt lat="38.49049556240577" lon="16.245500477274263"><ele>1270.5</ele><time>2026-03-22T10:11:59.999Z</time></trkpt><trkpt lat="38.4905349651134" lon="16.245420869283926"><ele>1269.6666666666667</ele><time>2026-03-22T10:12:01.999Z</time></trkpt><trkpt lat="38.49055409416976" lon="16.245321007053413"><ele>1268.8333333333335</ele><time>2026-03-22T10:12:03.999Z</time></trkpt><trkpt lat="38.49058249218091" lon="16.245224675169627"><ele>1268.0</ele><time>2026-03-22T10:12:05.999Z</time></trkpt><trkpt lat="38.49060878802303" lon="16.245086286495166"><ele>1268.0</ele><time>2026-03-22T10:12:07.999Z</time></trkpt><trkpt lat="38.49062051770181" lon="16.244986256683767"><ele>1268.0</ele><time>2026-03-22T10:12:08.999Z</time></trkpt><trkpt lat="38.49065345058555" lon="16.244913820719"><ele>1268.0</ele><time>2026-03-22T10:12:09.999Z</time></trkpt><trkpt lat="38.49069443763603" lon="16.24479623458813"><ele>1268.0</ele><time>2026-03-22T10:12:11.999Z</time></trkpt><trkpt lat="38.49071197633829" lon="16.244715442813618"><ele>1268.0</ele><time>2026-03-22T10:12:12.999Z</time></trkpt><trkpt lat="38.49072043253542" lon="16.24459497226027"><ele>1268.0</ele><time>2026-03-22T10:12:14.999Z</time></trkpt><trkpt lat="38.49072813136738" lon="16.24448999073564"><ele>1266.0</ele><time>2026-03-22T10:12:15.999Z</time></trkpt><trkpt lat="38.49074524382802" lon="16.244409272479146"><ele>1264.0</ele><time>2026-03-22T10:12:16.999Z</time></trkpt><trkpt lat="38.49076793191004" lon="16.244290030683533"><ele>1262.0</ele><time>2026-03-22T10:12:18.999Z</time></trkpt><trkpt lat="38.490829284410616" lon="16.24418079698705"><ele>1260.0</ele><time>2026-03-22T10:12:21Z</time></trkpt><trkpt lat="38.49090964734518" lon="16.244026477846685"><ele>1258.0</ele><time>2026-03-22T10:12:23Z</time></trkpt><trkpt lat="38.490976061049004" lon="16.243873340457537"><ele>1258.2</ele><time>2026-03-22T10:12:25Z</time></trkpt><trkpt lat="38.49102652836883" lon="16.243795527679485"><ele>1258.4</ele><time>2026-03-22T10:12:26Z</time></trkpt><trkpt lat="38.491107685467846" lon="16.24368953358375"><ele>1258.6000000000001</ele><time>2026-03-22T10:12:28Z</time></trkpt><trkpt lat="38.49122358465842" lon="16.243631382993513"><ele>1258.8</ele><time>2026-03-22T10:12:30Z</time></trkpt><trkpt lat="38.49128992305655" lon="16.243622445439154"><ele>1259.0</ele><time>2026-03-22T10:12:31Z</time></trkpt><trkpt lat="38.49135357004017" lon="16.24356442559644"><ele>1259.0</ele><time>2026-03-22T10:12:32Z</time></trkpt><trkpt lat="38.491399230906744" lon="16.24350581226213"><ele>1259.0</ele><time>2026-03-22T10:12:33Z</time></trkpt><trkpt lat="38.49143148665057" lon="16.2434317368624"><ele>1259.0</ele><time>2026-03-22T10:12:34Z</time></trkpt><trkpt lat="38.49148366570593" lon="16.24335556042735"><ele>1259.0</ele><time>2026-03-22T10:12:35Z</time></trkpt><trkpt lat="38.49150420254855" lon="16.24323983883035"><ele>1259.0</ele><time>2026-03-22T10:12:36Z</time></trkpt><trkpt lat="38.491542251409975" lon="16.243108074384768"><ele>1259.0</ele><time>2026-03-22T10:12:37Z</time></trkpt><trkpt lat="38.49155984355188" lon="16.24297661880382"><ele>1255.6000000000001</ele><time>2026-03-22T10:12:38Z</time></trkpt><trkpt lat="38.49159527028053" lon="16.242868885362835"><ele>1252.2</ele><time>2026-03-22T10:12:39Z</time></trkpt><trkpt lat="38.49161623936948" lon="16.24277544859959"><ele>1248.8000000000002</ele><time>2026-03-22T10:12:40Z</time></trkpt><trkpt lat="38.4916666966008" lon="16.242685246961624"><ele>1245.4</ele><time>2026-03-22T10:12:42Z</time></trkpt><trkpt lat="38.49174551970512" lon="16.242569167882657"><ele>1242.0</ele><time>2026-03-22T10:12:44Z</time></trkpt><trkpt lat="38.49180767842061" lon="16.242492249944288"><ele>1242.0</ele><time>2026-03-22T10:12:46Z</time></trkpt><trkpt lat="38.49189194910453" lon="16.242464251709404"><ele>1242.0</ele><time>2026-03-22T10:12:48Z</time></trkpt><trkpt lat="38.491955073679065" lon="16.24246505947771"><ele>1242.0</ele><time>2026-03-22T10:12:49Z</time></trkpt><trkpt lat="38.49205340476472" lon="16.24247714333806"><ele>1242.0</ele><time>2026-03-22T10:12:50Z</time></trkpt><trkpt lat="38.49217556476659" lon="16.242486188639823"><ele>1242.0</ele><time>2026-03-22T10:12:52Z</time></trkpt><trkpt lat="38.49224715305458" lon="16.242487289691443"><ele>1242.0</ele><time>2026-03-22T10:12:54Z</time></trkpt><trkpt lat="38.49235610913289" lon="16.24251202003443"><ele>1242.4</ele><time>2026-03-22T10:12:56Z</time></trkpt><trkpt lat="38.49245572239247" lon="16.24254305437282"><ele>1242.8000000000002</ele><time>2026-03-22T10:12:57Z</time></trkpt><trkpt lat="38.492531699034345" lon="16.242534940074012"><ele>1243.2</ele><time>2026-03-22T10:12:58Z</time></trkpt><trkpt lat="38.49263332522561" lon="16.242556696233468"><ele>1243.6000000000001</ele><time>2026-03-22T10:12:59Z</time></trkpt><trkpt lat="38.492729400604716" lon="16.242593916388262"><ele>1244.0</ele><time>2026-03-22T10:13:00Z</time></trkpt><trkpt lat="38.49281350285277" lon="16.24260502700984"><ele>1244.0</ele><time>2026-03-22T10:13:01Z</time></trkpt><trkpt lat="38.492909526596506" lon="16.242628127237726"><ele>1244.0</ele><time>2026-03-22T10:13:02Z</time></trkpt><trkpt lat="38.4930057364118" lon="16.24267905839509"><ele>1244.0</ele><time>2026-03-22T10:13:03Z</time></trkpt><trkpt lat="38.493099360424715" lon="16.242706113653384"><ele>1244.0</ele><time>2026-03-22T10:13:04Z</time></trkpt><trkpt lat="38.49318009739946" lon="16.24273893963851"><ele>1244.0</ele><time>2026-03-22T10:13:05Z</time></trkpt><trkpt lat="38.493264798597764" lon="16.242774918515288"><ele>1242.5</ele><time>2026-03-22T10:13:06Z</time></trkpt><trkpt lat="38.49333483699002" lon="16.242824088771926"><ele>1241.0</ele><time>2026-03-22T10:13:07Z</time></trkpt><trkpt lat="38.49340754117686" lon="16.242850657635262"><ele>1239.5</ele><time>2026-03-22T10:13:08Z</time></trkpt><trkpt lat="38.49348001553536" lon="16.242885141406937"><ele>1238.0</ele><time>2026-03-22T10:13:09Z</time></trkpt><trkpt lat="38.49354912592374" lon="16.2429209837982"><ele>1236.5</ele><time>2026-03-22T10:13:10Z</time></trkpt><trkpt lat="38.49361854465909" lon="16.24296579317754"><ele>1235.0</ele><time>2026-03-22T10:13:11Z</time></trkpt><trkpt lat="38.493704229853755" lon="16.243010215724336"><ele>1233.8</ele><time>2026-03-22T10:13:12Z</time></trkpt><trkpt lat="38.49377485382785" lon="16.24305822743661"><ele>1232.6</ele><time>2026-03-22T10:13:14Z</time></trkpt><trkpt lat="38.49385435735452" lon="16.243086429160577"><ele>1231.4</ele><time>2026-03-22T10:13:16Z</time></trkpt><trkpt lat="38.493954656249194" lon="16.243084969015005"><ele>1230.2</ele><time>2026-03-22T10:13:18Z</time></trkpt><trkpt lat="38.49403520185723" lon="16.24308208445697"><ele>1229.0</ele><time>2026-03-22T10:13:20Z</time></trkpt><trkpt lat="38.494127461974536" lon="16.243155762023896"><ele>1228.8</ele><time>2026-03-22T10:13:22Z</time></trkpt><trkpt lat="38.49425157583348" lon="16.243180692712652"><ele>1228.6000000000001</ele><time>2026-03-22T10:13:24Z</time></trkpt><trkpt lat="38.494392483646656" lon="16.243196441777112"><ele>1228.4</ele><time>2026-03-22T10:13:25Z</time></trkpt><trkpt lat="38.49447652086175" lon="16.24320635068406"><ele>1228.2</ele><time>2026-03-22T10:13:26Z</time></trkpt><trkpt lat="38.4945449008587" lon="16.243192540183003"><ele>1228.0</ele><time>2026-03-22T10:13:27Z</time></trkpt><trkpt lat="38.494628154062866" lon="16.24321457524066"><ele>1227.1666666666665</ele><time>2026-03-22T10:13:28Z</time></trkpt><trkpt lat="38.49470021556201" lon="16.243190149940993"><ele>1226.3333333333333</ele><time>2026-03-22T10:13:29Z</time></trkpt><trkpt lat="38.4947803382399" lon="16.243193014224367"><ele>1225.5</ele><time>2026-03-22T10:13:30Z</time></trkpt><trkpt lat="38.49485080333552" lon="16.243229085105675"><ele>1224.6666666666667</ele><time>2026-03-22T10:13:31Z</time></trkpt><trkpt lat="38.494940725814466" lon="16.2433248670652"><ele>1223.8333333333335</ele><time>2026-03-22T10:13:34Z</time></trkpt><trkpt lat="38.495011691990825" lon="16.243363449795268"><ele>1223.0</ele><time>2026-03-22T10:13:35Z</time></trkpt><trkpt lat="38.49508713204178" lon="16.24339383421015"><ele>1223.0</ele><time>2026-03-22T10:13:36Z</time></trkpt><trkpt lat="38.495169319512094" lon="16.243407750869633"><ele>1223.0</ele><time>2026-03-22T10:13:39Z</time></trkpt><trkpt lat="38.495238598188486" lon="16.24344684118115"><ele>1223.0</ele><time>2026-03-22T10:13:41Z</time></trkpt><trkpt lat="38.49532918616748" lon="16.243420183860596"><ele>1223.0</ele><time>2026-03-22T10:13:50Z</time></trkpt><trkpt lat="38.4953873043129" lon="16.24338331650644"><ele>1223.0</ele><time>2026-03-22T10:13:53Z</time></trkpt><trkpt lat="38.49546973253157" lon="16.243336461336796"><ele>1223.0</ele><time>2026-03-22T10:13:56Z</time></trkpt><trkpt lat="38.495551478181945" lon="16.243232431142786"><ele>1222.1666666666667</ele><time>2026-03-22T10:13:59Z</time></trkpt><trkpt lat="38.49559481135628" lon="16.24316260731245"><ele>1221.3333333333335</ele><time>2026-03-22T10:14:01Z</time></trkpt><trkpt lat="38.495661773994755" lon="16.243153205032865"><ele>1220.5</ele><time>2026-03-22T10:14:04Z</time></trkpt><trkpt lat="38.49572559822406" lon="16.243108170561367"><ele>1219.6666666666667</ele><time>2026-03-22T10:14:07Z</time></trkpt><trkpt lat="38.495829312231635" lon="16.243182693355006"><ele>1218.8333333333333</ele><time>2026-03-22T10:14:09Z</time></trkpt><trkpt lat="38.49588494926084" lon="16.243234792563516"><ele>1218.0</ele><time>2026-03-22T10:14:10Z</time></trkpt><trkpt lat="38.49596081140804" lon="16.243322152549833"><ele>1218.0</ele><time>2026-03-22T10:14:11Z</time></trkpt><trkpt lat="38.496024574333035" lon="16.243369044122893"><ele>1218.0</ele><time>2026-03-22T10:14:12Z</time></trkpt><trkpt lat="38.4961057005272" lon="16.243422486452413"><ele>1218.0</ele><time>2026-03-22T10:14:13Z</time></trkpt><trkpt lat="38.49617858908286" lon="16.243481994324178"><ele>1218.0</ele><time>2026-03-22T10:14:14Z</time></trkpt><trkpt lat="38.49625460675412" lon="16.24354536242276"><ele>1218.0</ele><time>2026-03-22T10:14:15Z</time></trkpt><trkpt lat="38.496345139723914" lon="16.243599057408108"><ele>1218.0</ele><time>2026-03-22T10:14:16Z</time></trkpt><trkpt lat="38.49645865832196" lon="16.243649856858028"><ele>1217.0</ele><time>2026-03-22T10:14:17Z</time></trkpt><trkpt lat="38.49655361684258" lon="16.243719071234302"><ele>1216.0</ele><time>2026-03-22T10:14:18Z</time></trkpt><trkpt lat="38.49665133180616" lon="16.243753097025955"><ele>1215.0</ele><time>2026-03-22T10:14:19Z</time></trkpt><trkpt lat="38.496769104688795" lon="16.243801248495284"><ele>1214.0</ele><time>2026-03-22T10:14:20Z</time></trkpt><trkpt lat="38.49688394040869" lon="16.243830660241493"><ele>1214.0</ele><time>2026-03-22T10:14:21Z</time></trkpt><trkpt lat="38.49700389969937" lon="16.243873218253956"><ele>1214.0</ele><time>2026-03-22T10:14:22Z</time></trkpt><trkpt lat="38.49710467201162" lon="16.243912309823568"><ele>1214.0</ele><time>2026-03-22T10:14:23Z</time></trkpt><trkpt lat="38.49719244621589" lon="16.243941475605016"><ele>1214.0</ele><time>2026-03-22T10:14:24Z</time></trkpt><trkpt lat="38.49726792008846" lon="16.243988066133475"><ele>1214.0</ele><time>2026-03-22T10:14:25Z</time></trkpt><trkpt lat="38.497349715075856" lon="16.244058935072623"><ele>1212.75</ele><time>2026-03-22T10:14:26Z</time></trkpt><trkpt lat="38.497446845265685" lon="16.244118700244904"><ele>1211.5</ele><time>2026-03-22T10:14:27Z</time></trkpt><trkpt lat="38.49751171333946" lon="16.24421439701799"><ele>1210.25</ele><time>2026-03-22T10:14:28Z</time></trkpt><trkpt lat="38.497614306319335" lon="16.244345626987208"><ele>1209.0</ele><time>2026-03-22T10:14:29Z</time></trkpt><trkpt lat="38.49768630905817" lon="16.24444622843029"><ele>1209.0</ele><time>2026-03-22T10:14:30Z</time></trkpt><trkpt lat="38.49777561981152" lon="16.24454719056593"><ele>1209.0</ele><time>2026-03-22T10:14:31Z</time></trkpt><trkpt lat="38.49785268623835" lon="16.24467128238299"><ele>1209.0</ele><time>2026-03-22T10:14:32Z</time></trkpt><trkpt lat="38.4979257273835" lon="16.244782998289757"><ele>1209.0</ele><time>2026-03-22T10:14:33Z</time></trkpt><trkpt lat="38.497995930187564" lon="16.244867579998772"><ele>1207.0</ele><time>2026-03-22T10:14:34Z</time></trkpt><trkpt lat="38.498075966401785" lon="16.244957465085466"><ele>1205.0</ele><time>2026-03-22T10:14:35Z</time></trkpt><trkpt lat="38.49817301524369" lon="16.245048513832597"><ele>1203.0</ele><time>2026-03-22T10:14:36Z</time></trkpt><trkpt lat="38.49829273308932" lon="16.24510555948052"><ele>1201.0</ele><time>2026-03-22T10:14:37Z</time></trkpt><trkpt lat="38.49842095841276" lon="16.245147202296952"><ele>1201.0</ele><time>2026-03-22T10:14:38Z</time></trkpt><trkpt lat="38.49855358003029" lon="16.24518014539556"><ele>1201.0</ele><time>2026-03-22T10:14:39Z</time></trkpt><trkpt lat="38.49868101642577" lon="16.245197314552303"><ele>1201.0</ele><time>2026-03-22T10:14:40Z</time></trkpt><trkpt lat="38.498813309339" lon="16.245195061129586"><ele>1201.0</ele><time>2026-03-22T10:14:41Z</time></trkpt><trkpt lat="38.49892992358857" lon="16.245170424317067"><ele>1200.8</ele><time>2026-03-22T10:14:42Z</time></trkpt><trkpt lat="38.49903691066502" lon="16.245171828516597"><ele>1200.6</ele><time>2026-03-22T10:14:43Z</time></trkpt><trkpt lat="38.49913017119466" lon="16.24515748093527"><ele>1200.4</ele><time>2026-03-22T10:14:44Z</time></trkpt><trkpt lat="38.49924116949136" lon="16.24513457070667"><ele>1200.2</ele><time>2026-03-22T10:14:45Z</time></trkpt><trkpt lat="38.49935352451454" lon="16.245119835823647"><ele>1200.0</ele><time>2026-03-22T10:14:46Z</time></trkpt><trkpt lat="38.499458778518225" lon="16.245100552390756"><ele>1200.0</ele><time>2026-03-22T10:14:47Z</time></trkpt><trkpt lat="38.499567859075334" lon="16.24508691001274"><ele>1200.0</ele><time>2026-03-22T10:14:48Z</time></trkpt><trkpt lat="38.49967136627439" lon="16.245089714385426"><ele>1200.0</ele><time>2026-03-22T10:14:49Z</time></trkpt><trkpt lat="38.49977577668674" lon="16.24509248680985"><ele>1200.0</ele><time>2026-03-22T10:14:50Z</time></trkpt><trkpt lat="38.499834967847875" lon="16.245047808104168"><ele>1200.0</ele><time>2026-03-22T10:14:51Z</time></trkpt><trkpt lat="38.49992381191482" lon="16.245039706892655"><ele>1199.4</ele><time>2026-03-22T10:14:52Z</time></trkpt><trkpt lat="38.50002199378639" lon="16.24506198653294"><ele>1198.8</ele><time>2026-03-22T10:14:53Z</time></trkpt><trkpt lat="38.500126732237746" lon="16.245106359322417"><ele>1198.2</ele><time>2026-03-22T10:14:54Z</time></trkpt><trkpt lat="38.50021840698894" lon="16.245153982207167"><ele>1197.6</ele><time>2026-03-22T10:14:55Z</time></trkpt><trkpt lat="38.50032103503399" lon="16.24521723633367"><ele>1197.0</ele><time>2026-03-22T10:14:56.001Z</time></trkpt><trkpt lat="38.50043881144089" lon="16.245313798216447"><ele>1196.25</ele><time>2026-03-22T10:14:57.001Z</time></trkpt><trkpt lat="38.50053243908111" lon="16.245382908128253"><ele>1195.5</ele><time>2026-03-22T10:14:58.001Z</time></trkpt><trkpt lat="38.500636905115734" lon="16.245484912779148"><ele>1194.75</ele><time>2026-03-22T10:14:59.001Z</time></trkpt><trkpt lat="38.500741777956065" lon="16.245589891633415"><ele>1194.0</ele><time>2026-03-22T10:15:00.001Z</time></trkpt><trkpt lat="38.50084664123011" lon="16.245697322959767"><ele>1194.0</ele><time>2026-03-22T10:15:01.001Z</time></trkpt><trkpt lat="38.500947226522136" lon="16.245801522531245"><ele>1194.0</ele><time>2026-03-22T10:15:02.001Z</time></trkpt><trkpt lat="38.501049554704714" lon="16.245919374129027"><ele>1194.0</ele><time>2026-03-22T10:15:03.001Z</time></trkpt><trkpt lat="38.501121414309246" lon="16.24598355282338"><ele>1194.0</ele><time>2026-03-22T10:15:04.001Z</time></trkpt><trkpt lat="38.50121837848184" lon="16.2460827905247"><ele>1194.25</ele><time>2026-03-22T10:15:05.001Z</time></trkpt><trkpt lat="38.501314642211895" lon="16.246184637089062"><ele>1194.5</ele><time>2026-03-22T10:15:06.001Z</time></trkpt><trkpt lat="38.50140840878791" lon="16.246283935405582"><ele>1194.75</ele><time>2026-03-22T10:15:07.001Z</time></trkpt><trkpt lat="38.501500228742955" lon="16.246381564089095"><ele>1195.0</ele><time>2026-03-22T10:15:08.001Z</time></trkpt><trkpt lat="38.501586173696175" lon="16.24647564154185"><ele>1194.0</ele><time>2026-03-22T10:15:09.001Z</time></trkpt><trkpt lat="38.50166895950164" lon="16.24657195051613"><ele>1193.0</ele><time>2026-03-22T10:15:10.001Z</time></trkpt><trkpt lat="38.501752314011966" lon="16.24667977285299"><ele>1192.0</ele><time>2026-03-22T10:15:11.001Z</time></trkpt><trkpt lat="38.501829159033896" lon="16.24678677608026"><ele>1191.0</ele><time>2026-03-22T10:15:12.001Z</time></trkpt><trkpt lat="38.501903395297646" lon="16.246894472727302"><ele>1191.0</ele><time>2026-03-22T10:15:13.001Z</time></trkpt><trkpt lat="38.50197984034756" lon="16.24700685777387"><ele>1191.0</ele><time>2026-03-22T10:15:14.001Z</time></trkpt><trkpt lat="38.50205353920994" lon="16.247119621105995"><ele>1191.0</ele><time>2026-03-22T10:15:15.001Z</time></trkpt><trkpt lat="38.502128160544395" lon="16.247241757222387"><ele>1191.0</ele><time>2026-03-22T10:15:16.001Z</time></trkpt><trkpt lat="38.5022040913102" lon="16.247376568326096"><ele>1192.0</ele><time>2026-03-22T10:15:17.001Z</time></trkpt><trkpt lat="38.50226534595367" lon="16.247499192284632"><ele>1193.0</ele><time>2026-03-22T10:15:18.001Z</time></trkpt><trkpt lat="38.5023167269771" lon="16.24762073525449"><ele>1194.0</ele><time>2026-03-22T10:15:19.001Z</time></trkpt><trkpt lat="38.50236918440463" lon="16.247751951209956"><ele>1195.0</ele><time>2026-03-22T10:15:20.001Z</time></trkpt><trkpt lat="38.50243128871822" lon="16.247915975394747"><ele>1195.0</ele><time>2026-03-22T10:15:21.001Z</time></trkpt><trkpt lat="38.50248113867607" lon="16.248047816380616"><ele>1195.0</ele><time>2026-03-22T10:15:22.001Z</time></trkpt><trkpt lat="38.50253390677081" lon="16.24818552300446"><ele>1195.0</ele><time>2026-03-22T10:15:23.001Z</time></trkpt><trkpt lat="38.502578372570966" lon="16.248298527024417"><ele>1195.0</ele><time>2026-03-22T10:15:24.001Z</time></trkpt><trkpt lat="38.50263364290432" lon="16.24841237385653"><ele>1195.0</ele><time>2026-03-22T10:15:25.001Z</time></trkpt><trkpt lat="38.50269966105409" lon="16.24850858290818"><ele>1194.2</ele><time>2026-03-22T10:15:26.001Z</time></trkpt><trkpt lat="38.502772335254804" lon="16.248587240256132"><ele>1193.4</ele><time>2026-03-22T10:15:27.001Z</time></trkpt><trkpt lat="38.50287247167807" lon="16.248638287098128"><ele>1192.6</ele><time>2026-03-22T10:15:28.001Z</time></trkpt><trkpt lat="38.502968174420886" lon="16.248655262192386"><ele>1191.8</ele><time>2026-03-22T10:15:29.001Z</time></trkpt><trkpt lat="38.50306620606123" lon="16.24865700087924"><ele>1191.0</ele><time>2026-03-22T10:15:30.001Z</time></trkpt><trkpt lat="38.50319429801633" lon="16.248643825174497"><ele>1190.75</ele><time>2026-03-22T10:15:31.001Z</time></trkpt><trkpt lat="38.50333170778677" lon="16.248604072135723"><ele>1190.5</ele><time>2026-03-22T10:15:32.001Z</time></trkpt><trkpt lat="38.503489479286394" lon="16.2486102447768"><ele>1190.25</ele><time>2026-03-22T10:15:33.001Z</time></trkpt><trkpt lat="38.50357009334604" lon="16.2485695922402"><ele>1190.0</ele><time>2026-03-22T10:15:34.001Z</time></trkpt><trkpt lat="38.50367102885431" lon="16.248526970021175"><ele>1190.0</ele><time>2026-03-22T10:15:35.001Z</time></trkpt><trkpt lat="38.50377165818878" lon="16.24845229810379"><ele>1190.0</ele><time>2026-03-22T10:15:36.001Z</time></trkpt><trkpt lat="38.50386783984713" lon="16.248381409021636"><ele>1190.0</ele><time>2026-03-22T10:15:37.001Z</time></trkpt><trkpt lat="38.503966034117596" lon="16.248316094508407"><ele>1190.0</ele><time>2026-03-22T10:15:38.001Z</time></trkpt><trkpt lat="38.50406029031296" lon="16.248243870049418"><ele>1190.0</ele><time>2026-03-22T10:15:39.001Z</time></trkpt><trkpt lat="38.50416331708834" lon="16.24818019755061"><ele>1190.0</ele><time>2026-03-22T10:15:40.001Z</time></trkpt><trkpt lat="38.50427317707717" lon="16.24810203675723"><ele>1190.0</ele><time>2026-03-22T10:15:41.001Z</time></trkpt><trkpt lat="38.504410466696584" lon="16.248059781374813"><ele>1190.0</ele><time>2026-03-22T10:15:42.001Z</time></trkpt><trkpt lat="38.50453851340871" lon="16.24802690592898"><ele>1190.0</ele><time>2026-03-22T10:15:43.001Z</time></trkpt><trkpt lat="38.50465569240734" lon="16.24802988451744"><ele>1190.1666666666667</ele><time>2026-03-22T10:15:44.001Z</time></trkpt><trkpt lat="38.5047341383488" lon="16.248026563416865"><ele>1190.3333333333335</ele><time>2026-03-22T10:15:45.001Z</time></trkpt><trkpt lat="38.504806231364135" lon="16.248014224999405"><ele>1190.5</ele><time>2026-03-22T10:15:46.001Z</time></trkpt><trkpt lat="38.50490316652447" lon="16.24799869741764"><ele>1190.6666666666667</ele><time>2026-03-22T10:15:47.001Z</time></trkpt><trkpt lat="38.504988029686345" lon="16.248048970263813"><ele>1190.8333333333333</ele><time>2026-03-22T10:15:49.001Z</time></trkpt><trkpt lat="38.505056166639974" lon="16.24808740662434"><ele>1191.0</ele><time>2026-03-22T10:15:50.001Z</time></trkpt><trkpt lat="38.505127754556774" lon="16.248124422720224"><ele>1191.1666666666667</ele><time>2026-03-22T10:15:51.001Z</time></trkpt><trkpt lat="38.50520000676009" lon="16.248160839106642"><ele>1191.3333333333333</ele><time>2026-03-22T10:15:52.001Z</time></trkpt><trkpt lat="38.505260992367454" lon="16.24819486099886"><ele>1191.5</ele><time>2026-03-22T10:15:53.001Z</time></trkpt><trkpt lat="38.50534473436259" lon="16.24823906172923"><ele>1191.6666666666665</ele><time>2026-03-22T10:15:54.001Z</time></trkpt><trkpt lat="38.50543197394809" lon="16.248282717643157"><ele>1191.8333333333333</ele><time>2026-03-22T10:15:55.001Z</time></trkpt><trkpt lat="38.50550092191822" lon="16.248318188506577"><ele>1192.0</ele><time>2026-03-22T10:15:56.001Z</time></trkpt><trkpt lat="38.505580516421055" lon="16.24835922677728"><ele>1192.0</ele><time>2026-03-22T10:15:57.001Z</time></trkpt><trkpt lat="38.50566615852601" lon="16.248403460920592"><ele>1192.0</ele><time>2026-03-22T10:15:58.001Z</time></trkpt><trkpt lat="38.50574687956756" lon="16.248443842238935"><ele>1192.0</ele><time>2026-03-22T10:15:59.001Z</time></trkpt><trkpt lat="38.50589076737416" lon="16.248514475241077"><ele>1192.0</ele><time>2026-03-22T10:16:00.001Z</time></trkpt><trkpt lat="38.50601630346553" lon="16.248570788289072"><ele>1192.0</ele><time>2026-03-22T10:16:01.001Z</time></trkpt><trkpt lat="38.50613224420963" lon="16.248625388938603"><ele>1192.0</ele><time>2026-03-22T10:16:02.001Z</time></trkpt><trkpt lat="38.50624028759159" lon="16.248689768657876"><ele>1192.0</ele><time>2026-03-22T10:16:03.001Z</time></trkpt><trkpt lat="38.50634852702296" lon="16.248745686525666"><ele>1192.0</ele><time>2026-03-22T10:16:04.001Z</time></trkpt><trkpt lat="38.50646023332893" lon="16.248813381467205"><ele>1190.75</ele><time>2026-03-22T10:16:05.001Z</time></trkpt><trkpt lat="38.50656787254659" lon="16.24885570095395"><ele>1189.5</ele><time>2026-03-22T10:16:06.001Z</time></trkpt><trkpt lat="38.506683785472134" lon="16.248917184907064"><ele>1188.25</ele><time>2026-03-22T10:16:07.001Z</time></trkpt><trkpt lat="38.506802594527926" lon="16.248951125964087"><ele>1187.0</ele><time>2026-03-22T10:16:08.001Z</time></trkpt><trkpt lat="38.50691958994604" lon="16.249001793336504"><ele>1186.75</ele><time>2026-03-22T10:16:09.001Z</time></trkpt><trkpt lat="38.50705436976695" lon="16.249060945197886"><ele>1186.5</ele><time>2026-03-22T10:16:10.001Z</time></trkpt><trkpt lat="38.507175240932845" lon="16.24911455976446"><ele>1186.25</ele><time>2026-03-22T10:16:11.001Z</time></trkpt><trkpt lat="38.507275470892395" lon="16.249159018570005"><ele>1186.0</ele><time>2026-03-22T10:16:12.001Z</time></trkpt><trkpt lat="38.507376248922206" lon="16.24920045715619"><ele>1185.8</ele><time>2026-03-22T10:16:13.001Z</time></trkpt><trkpt lat="38.5074818606149" lon="16.249234997050287"><ele>1185.6</ele><time>2026-03-22T10:16:14.001Z</time></trkpt><trkpt lat="38.50758032725145" lon="16.249255854324538"><ele>1185.4</ele><time>2026-03-22T10:16:15.001Z</time></trkpt><trkpt lat="38.50768177338368" lon="16.249251544018122"><ele>1185.2</ele><time>2026-03-22T10:16:16.001Z</time></trkpt><trkpt lat="38.50780042876754" lon="16.249236907977124"><ele>1185.0</ele><time>2026-03-22T10:16:17.001Z</time></trkpt><trkpt lat="38.50791583822136" lon="16.249267206406483"><ele>1183.4</ele><time>2026-03-22T10:16:18.001Z</time></trkpt><trkpt lat="38.50803321587307" lon="16.249270196221527"><ele>1181.8</ele><time>2026-03-22T10:16:19.001Z</time></trkpt><trkpt lat="38.5081186292875" lon="16.249326226337793"><ele>1180.2</ele><time>2026-03-22T10:16:20.001Z</time></trkpt><trkpt lat="38.508188723053095" lon="16.249378049060642"><ele>1178.6</ele><time>2026-03-22T10:16:21.001Z</time></trkpt><trkpt lat="38.50820037884484" lon="16.24952839803037"><ele>1177.0</ele><time>2026-03-22T10:16:23.001Z</time></trkpt><trkpt lat="38.50814368153082" lon="16.249650993585945"><ele>1176.6</ele><time>2026-03-22T10:16:25.001Z</time></trkpt><trkpt lat="38.50807622048332" lon="16.24981534818183"><ele>1176.2</ele><time>2026-03-22T10:16:27.001Z</time></trkpt><trkpt lat="38.50803554358504" lon="16.249908317409695"><ele>1175.8</ele><time>2026-03-22T10:16:28.001Z</time></trkpt><trkpt lat="38.507985366054235" lon="16.249993417029362"><ele>1175.4</ele><time>2026-03-22T10:16:29.001Z</time></trkpt><trkpt lat="38.50793029423629" lon="16.25006518052784"><ele>1175.0</ele><time>2026-03-22T10:16:30.001Z</time></trkpt><trkpt lat="38.50786906053182" lon="16.25013899940082"><ele>1176.0</ele><time>2026-03-22T10:16:31.001Z</time></trkpt><trkpt lat="38.50778985362889" lon="16.25025224185099"><ele>1177.0</ele><time>2026-03-22T10:16:32.001Z</time></trkpt><trkpt lat="38.50769064687935" lon="16.250322877349156"><ele>1178.0</ele><time>2026-03-22T10:16:33.001Z</time></trkpt><trkpt lat="38.507645429780545" lon="16.250395214953596"><ele>1179.0</ele><time>2026-03-22T10:16:34.001Z</time></trkpt><trkpt lat="38.50760970122112" lon="16.25047657199618"><ele>1180.0</ele><time>2026-03-22T10:16:35.001Z</time></trkpt><trkpt lat="38.50757051627447" lon="16.25056178099062"><ele>1179.0</ele><time>2026-03-22T10:16:36.001Z</time></trkpt><trkpt lat="38.50751969853576" lon="16.250816079820527"><ele>1178.0</ele><time>2026-03-22T10:16:37.001Z</time></trkpt><trkpt lat="38.50750874223346" lon="16.25102088182053"><ele>1177.0</ele><time>2026-03-22T10:16:38.001Z</time></trkpt><trkpt lat="38.50750311885403" lon="16.251160458453526"><ele>1177.0</ele><time>2026-03-22T10:16:39.001Z</time></trkpt><trkpt lat="38.50749893042721" lon="16.25130262261437"><ele>1177.0</ele><time>2026-03-22T10:16:40.001Z</time></trkpt><trkpt lat="38.507497210430344" lon="16.251456380404637"><ele>1177.0</ele><time>2026-03-22T10:16:41.001Z</time></trkpt><trkpt lat="38.50750346825682" lon="16.25159525141303"><ele>1177.0</ele><time>2026-03-22T10:16:42.001Z</time></trkpt><trkpt lat="38.507522833703604" lon="16.251743731258987"><ele>1175.3333333333333</ele><time>2026-03-22T10:16:43.001Z</time></trkpt><trkpt lat="38.50757553504583" lon="16.25191841865409"><ele>1173.6666666666667</ele><time>2026-03-22T10:16:44.001Z</time></trkpt><trkpt lat="38.50764665266127" lon="16.25209149982513"><ele>1172.0</ele><time>2026-03-22T10:16:45.001Z</time></trkpt><trkpt lat="38.507723170703684" lon="16.252264076328686"><ele>1172.0</ele><time>2026-03-22T10:16:46.001Z</time></trkpt><trkpt lat="38.50780182275485" lon="16.252432874141302"><ele>1172.0</ele><time>2026-03-22T10:16:47.001Z</time></trkpt><trkpt lat="38.50785954081512" lon="16.252555799978605"><ele>1172.0</ele><time>2026-03-22T10:16:48.001Z</time></trkpt><trkpt lat="38.50791158291305" lon="16.252671585656675"><ele>1172.0</ele><time>2026-03-22T10:16:49.001Z</time></trkpt><trkpt lat="38.50796371822117" lon="16.252801634178567"><ele>1172.8</ele><time>2026-03-22T10:16:50.001Z</time></trkpt><trkpt lat="38.508003566326764" lon="16.252926614415788"><ele>1173.6</ele><time>2026-03-22T10:16:51.001Z</time></trkpt><trkpt lat="38.50803215795047" lon="16.253065086719765"><ele>1174.3999999999999</ele><time>2026-03-22T10:16:52.001Z</time></trkpt><trkpt lat="38.50801874856063" lon="16.253196390364103"><ele>1175.2</ele><time>2026-03-22T10:16:54.001Z</time></trkpt><trkpt lat="38.507999095019" lon="16.253291605456567"><ele>1176.0</ele><time>2026-03-22T10:16:55.001Z</time></trkpt><trkpt lat="38.5079728233433" lon="16.25340095436671"><ele>1176.0</ele><time>2026-03-22T10:16:56.001Z</time></trkpt><trkpt lat="38.50793563167623" lon="16.253558261119696"><ele>1176.0</ele><time>2026-03-22T10:16:57.001Z</time></trkpt><trkpt lat="38.50791170194859" lon="16.25369762934057"><ele>1176.0</ele><time>2026-03-22T10:16:58.001Z</time></trkpt><trkpt lat="38.50785633664485" lon="16.253822454181343"><ele>1176.0</ele><time>2026-03-22T10:16:59.001Z</time></trkpt><trkpt lat="38.50780509042315" lon="16.253963567520636"><ele>1174.5</ele><time>2026-03-22T10:17:00.001Z</time></trkpt><trkpt lat="38.50777684383539" lon="16.254130814242085"><ele>1173.0</ele><time>2026-03-22T10:17:01.001Z</time></trkpt><trkpt lat="38.507762134786375" lon="16.254315204601816"><ele>1171.5</ele><time>2026-03-22T10:17:02.001Z</time></trkpt><trkpt lat="38.50776759449825" lon="16.254504566779175"><ele>1170.0</ele><time>2026-03-22T10:17:03.001Z</time></trkpt><trkpt lat="38.507773052813" lon="16.25466257050134"><ele>1170.25</ele><time>2026-03-22T10:17:04.001Z</time></trkpt><trkpt lat="38.507778903639064" lon="16.25481356082159"><ele>1170.5</ele><time>2026-03-22T10:17:05.001Z</time></trkpt><trkpt lat="38.50778564069207" lon="16.25498051123578"><ele>1170.75</ele><time>2026-03-22T10:17:06.001Z</time></trkpt><trkpt lat="38.507790690143004" lon="16.255143145969665"><ele>1171.0</ele><time>2026-03-22T10:17:07.001Z</time></trkpt><trkpt lat="38.50778012162104" lon="16.255287183312674"><ele>1171.0</ele><time>2026-03-22T10:17:08.001Z</time></trkpt><trkpt lat="38.50774190591394" lon="16.25544795770452"><ele>1171.0</ele><time>2026-03-22T10:17:09.001Z</time></trkpt><trkpt lat="38.50765602101713" lon="16.255593241967343"><ele>1171.0</ele><time>2026-03-22T10:17:10.001Z</time></trkpt><trkpt lat="38.50758881956613" lon="16.255666166837365"><ele>1171.0</ele><time>2026-03-22T10:17:11.001Z</time></trkpt><trkpt lat="38.50748611158223" lon="16.255766048161313"><ele>1171.5</ele><time>2026-03-22T10:17:12.001Z</time></trkpt><trkpt lat="38.507397565468246" lon="16.255850044988158"><ele>1172.0</ele><time>2026-03-22T10:17:13.001Z</time></trkpt><trkpt lat="38.507293808232994" lon="16.255951695249983"><ele>1172.5</ele><time>2026-03-22T10:17:14.001Z</time></trkpt><trkpt lat="38.507186901465104" lon="16.256057098303494"><ele>1173.0</ele><time>2026-03-22T10:17:15.001Z</time></trkpt><trkpt lat="38.50709344546109" lon="16.256149239697173"><ele>1173.25</ele><time>2026-03-22T10:17:16.001Z</time></trkpt><trkpt lat="38.506983080050325" lon="16.25625732721569"><ele>1173.5</ele><time>2026-03-22T10:17:17.001Z</time></trkpt><trkpt lat="38.50688363389639" lon="16.25635182251611"><ele>1173.75</ele><time>2026-03-22T10:17:18.001Z</time></trkpt><trkpt lat="38.50678390726869" lon="16.256446989048232"><ele>1174.0</ele><time>2026-03-22T10:17:19.001Z</time></trkpt><trkpt lat="38.50667862955251" lon="16.25653758001977"><ele>1174.0</ele><time>2026-03-22T10:17:20.001Z</time></trkpt><trkpt lat="38.506609017740864" lon="16.25665462731499"><ele>1174.0</ele><time>2026-03-22T10:17:21.001Z</time></trkpt><trkpt lat="38.506543529904924" lon="16.256788229670274"><ele>1174.0</ele><time>2026-03-22T10:17:22.001Z</time></trkpt><trkpt lat="38.50645592732597" lon="16.256913685912803"><ele>1174.0</ele><time>2026-03-22T10:17:23.001Z</time></trkpt><trkpt lat="38.50640577511208" lon="16.257027217403547"><ele>1174.0</ele><time>2026-03-22T10:17:24.001Z</time></trkpt><trkpt lat="38.50633511017041" lon="16.25717879188773"><ele>1174.0</ele><time>2026-03-22T10:17:25.001Z</time></trkpt><trkpt lat="38.50626875743487" lon="16.257327213846246"><ele>1174.0</ele><time>2026-03-22T10:17:26.001Z</time></trkpt><trkpt lat="38.5062362134323" lon="16.257483945388234"><ele>1174.0</ele><time>2026-03-22T10:17:27.001Z</time></trkpt><trkpt lat="38.50621325506306" lon="16.257656666314727"><ele>1175.5</ele><time>2026-03-22T10:17:28.001Z</time></trkpt><trkpt lat="38.5062018344646" lon="16.25782978372121"><ele>1177.0</ele><time>2026-03-22T10:17:29.001Z</time></trkpt><trkpt lat="38.50621565842498" lon="16.25798561640744"><ele>1178.5</ele><time>2026-03-22T10:17:30.001Z</time></trkpt><trkpt lat="38.50625255490316" lon="16.25815392934496"><ele>1180.0</ele><time>2026-03-22T10:17:31.001Z</time></trkpt><trkpt lat="38.50632067249712" lon="16.258308587309678"><ele>1180.0</ele><time>2026-03-22T10:17:32.001Z</time></trkpt><trkpt lat="38.506389523894775" lon="16.258448906414362"><ele>1180.0</ele><time>2026-03-22T10:17:33.001Z</time></trkpt><trkpt lat="38.50650472118149" lon="16.25857036492441"><ele>1180.0</ele><time>2026-03-22T10:17:34.001Z</time></trkpt><trkpt lat="38.50664126344882" lon="16.25868692692132"><ele>1180.0</ele><time>2026-03-22T10:17:35.001Z</time></trkpt><trkpt lat="38.50675253148408" lon="16.258804988550093"><ele>1180.0</ele><time>2026-03-22T10:17:36.001Z</time></trkpt><trkpt lat="38.50686210564246" lon="16.25890107938797"><ele>1180.0</ele><time>2026-03-22T10:17:37.001Z</time></trkpt><trkpt lat="38.50697622198639" lon="16.259018309668978"><ele>1180.0</ele><time>2026-03-22T10:17:38.001Z</time></trkpt><trkpt lat="38.507087770774596" lon="16.25913053339811"><ele>1180.0</ele><time>2026-03-22T10:17:39.001Z</time></trkpt><trkpt lat="38.50719968024993" lon="16.259235678698513"><ele>1180.25</ele><time>2026-03-22T10:17:40.001Z</time></trkpt><trkpt lat="38.50732034260125" lon="16.259344278872163"><ele>1180.5</ele><time>2026-03-22T10:17:41.001Z</time></trkpt><trkpt lat="38.507433341080976" lon="16.259444489368885"><ele>1180.75</ele><time>2026-03-22T10:17:42.001Z</time></trkpt><trkpt lat="38.507546269733375" lon="16.259550101905106"><ele>1181.0</ele><time>2026-03-22T10:17:43.001Z</time></trkpt><trkpt lat="38.507641183690225" lon="16.25964394457096"><ele>1181.0</ele><time>2026-03-22T10:17:44.001Z</time></trkpt><trkpt lat="38.50772756004954" lon="16.259738213615496"><ele>1181.0</ele><time>2026-03-22T10:17:45.001Z</time></trkpt><trkpt lat="38.5078144802871" lon="16.259833901039034"><ele>1181.0</ele><time>2026-03-22T10:17:46.001Z</time></trkpt><trkpt lat="38.507907547875185" lon="16.25995318130034"><ele>1181.0</ele><time>2026-03-22T10:17:47.001Z</time></trkpt><trkpt lat="38.50801139737931" lon="16.260062639980706"><ele>1181.0</ele><time>2026-03-22T10:17:48.001Z</time></trkpt><trkpt lat="38.50812646338994" lon="16.260179311851374"><ele>1181.0</ele><time>2026-03-22T10:17:49.001Z</time></trkpt><trkpt lat="38.5082348069682" lon="16.26029251889253"><ele>1181.0</ele><time>2026-03-22T10:17:50.001Z</time></trkpt><trkpt lat="38.508341884348845" lon="16.26039094090483"><ele>1181.0</ele><time>2026-03-22T10:17:51.001Z</time></trkpt><trkpt lat="38.50845173722765" lon="16.260483945770158"><ele>1181.0</ele><time>2026-03-22T10:17:52.001Z</time></trkpt><trkpt lat="38.508552705493216" lon="16.260574692135993"><ele>1181.0</ele><time>2026-03-22T10:17:53.001Z</time></trkpt><trkpt lat="38.50865264275191" lon="16.26064990412172"><ele>1181.0</ele><time>2026-03-22T10:17:54.001Z</time></trkpt><trkpt lat="38.50874264917338" lon="16.26073010021572"><ele>1181.0</ele><time>2026-03-22T10:17:55.001Z</time></trkpt><trkpt lat="38.50882386745477" lon="16.26081880658352"><ele>1180.8333333333335</ele><time>2026-03-22T10:17:56.001Z</time></trkpt><trkpt lat="38.50890325916823" lon="16.260901103338583"><ele>1180.6666666666667</ele><time>2026-03-22T10:17:57.001Z</time></trkpt><trkpt lat="38.5089720405138" lon="16.260985045912463"><ele>1180.5</ele><time>2026-03-22T10:17:58.001Z</time></trkpt><trkpt lat="38.50901071980906" lon="16.261088749388666"><ele>1180.3333333333333</ele><time>2026-03-22T10:17:59.001Z</time></trkpt><trkpt lat="38.5090333259135" lon="16.26119303196999"><ele>1180.1666666666665</ele><time>2026-03-22T10:18:00.001Z</time></trkpt><trkpt lat="38.50903644746319" lon="16.261290031658056"><ele>1180.0</ele><time>2026-03-22T10:18:01.001Z</time></trkpt><trkpt lat="38.50905086660757" lon="16.261401450320133"><ele>1179.4</ele><time>2026-03-22T10:18:02.001Z</time></trkpt><trkpt lat="38.50906484466037" lon="16.26151934666913"><ele>1178.8</ele><time>2026-03-22T10:18:03.001Z</time></trkpt><trkpt lat="38.50908017034375" lon="16.2616431684256"><ele>1178.2</ele><time>2026-03-22T10:18:04.001Z</time></trkpt><trkpt lat="38.50909685688235" lon="16.26177396819291"><ele>1177.6</ele><time>2026-03-22T10:18:05.001Z</time></trkpt><trkpt lat="38.50911380951092" lon="16.2619096741815"><ele>1177.0</ele><time>2026-03-22T10:18:06.001Z</time></trkpt><trkpt lat="38.50912529211623" lon="16.26201681287071"><ele>1177.0</ele><time>2026-03-22T10:18:07.001Z</time></trkpt><trkpt lat="38.50913075086948" lon="16.262116992577635"><ele>1177.0</ele><time>2026-03-22T10:18:08.001Z</time></trkpt><trkpt lat="38.509131637306936" lon="16.26221073910218"><ele>1177.0</ele><time>2026-03-22T10:18:09.001Z</time></trkpt><trkpt lat="38.50909852930324" lon="16.26235193594112"><ele>1177.0</ele><time>2026-03-22T10:18:11.001Z</time></trkpt><trkpt lat="38.50902615277814" lon="16.262487931767488"><ele>1177.0</ele><time>2026-03-22T10:18:13.001Z</time></trkpt><trkpt lat="38.5089615615763" lon="16.262537755515122"><ele>1177.0</ele><time>2026-03-22T10:18:14.001Z</time></trkpt><trkpt lat="38.50890041692308" lon="16.262580379780434"><ele>1177.0</ele><time>2026-03-22T10:18:15.001Z</time></trkpt><trkpt lat="38.50883395595328" lon="16.26262012190306"><ele>1177.0</ele><time>2026-03-22T10:18:16.001Z</time></trkpt><trkpt lat="38.508754464255254" lon="16.262647690678826"><ele>1177.0</ele><time>2026-03-22T10:18:17.001Z</time></trkpt><trkpt lat="38.508692993931504" lon="16.26267920268213"><ele>1177.0</ele><time>2026-03-22T10:18:18.001Z</time></trkpt><trkpt lat="38.508625170326404" lon="16.262719042217704"><ele>1177.0</ele><time>2026-03-22T10:18:19.001Z</time></trkpt><trkpt lat="38.508539258021216" lon="16.262779319385626"><ele>1175.2</ele><time>2026-03-22T10:18:20.001Z</time></trkpt><trkpt lat="38.50845682761457" lon="16.262842923832473"><ele>1173.4</ele><time>2026-03-22T10:18:21.001Z</time></trkpt><trkpt lat="38.50837879645045" lon="16.262907235941153"><ele>1171.6</ele><time>2026-03-22T10:18:22.001Z</time></trkpt><trkpt lat="38.50830181400715" lon="16.26297717216425"><ele>1169.8</ele><time>2026-03-22T10:18:23.001Z</time></trkpt><trkpt lat="38.508226980918515" lon="16.263053949682764"><ele>1168.0</ele><time>2026-03-22T10:18:24.001Z</time></trkpt><trkpt lat="38.50815764126209" lon="16.263134087369966"><ele>1168.0</ele><time>2026-03-22T10:18:25.001Z</time></trkpt><trkpt lat="38.50809814180563" lon="16.26321257572504"><ele>1168.0</ele><time>2026-03-22T10:18:26.001Z</time></trkpt><trkpt lat="38.50806050912121" lon="16.26328657609945"><ele>1168.0</ele><time>2026-03-22T10:18:27.001Z</time></trkpt><trkpt lat="38.50804983604838" lon="16.263369597305815"><ele>1168.0</ele><time>2026-03-22T10:18:28.001Z</time></trkpt><trkpt lat="38.50807067893247" lon="16.263471993818403"><ele>1168.0</ele><time>2026-03-22T10:18:29.001Z</time></trkpt><trkpt lat="38.50813502208397" lon="16.26357286239946"><ele>1168.0</ele><time>2026-03-22T10:18:30.001Z</time></trkpt><trkpt lat="38.50820521972695" lon="16.26365476020854"><ele>1168.0</ele><time>2026-03-22T10:18:31.001Z</time></trkpt><trkpt lat="38.508282896300045" lon="16.263723980769665"><ele>1168.0</ele><time>2026-03-22T10:18:32.001Z</time></trkpt><trkpt lat="38.508330007031006" lon="16.26383238740204"><ele>1168.0</ele><time>2026-03-22T10:18:33.001Z</time></trkpt><trkpt lat="38.50840468109249" lon="16.26389990491209"><ele>1168.0</ele><time>2026-03-22T10:18:34.001Z</time></trkpt><trkpt lat="38.50850973277481" lon="16.263979193917283"><ele>1168.0</ele><time>2026-03-22T10:18:35.001Z</time></trkpt><trkpt lat="38.508599470808896" lon="16.264048751886673"><ele>1166.2</ele><time>2026-03-22T10:18:36.001Z</time></trkpt><trkpt lat="38.508686046283024" lon="16.264105985926683"><ele>1164.4</ele><time>2026-03-22T10:18:37.001Z</time></trkpt><trkpt lat="38.50874549645308" lon="16.26420111666626"><ele>1162.6000000000001</ele><time>2026-03-22T10:18:38.001Z</time></trkpt><trkpt lat="38.508793973607176" lon="16.264276517232503"><ele>1160.8</ele><time>2026-03-22T10:18:39.001Z</time></trkpt><trkpt lat="38.50881183959709" lon="16.26436352593197"><ele>1159.0</ele><time>2026-03-22T10:18:40.001Z</time></trkpt><trkpt lat="38.508717840244465" lon="16.264468184360734"><ele>1159.0</ele><time>2026-03-22T10:18:42.001Z</time></trkpt><trkpt lat="38.508649580389495" lon="16.264524241714547"><ele>1159.0</ele><time>2026-03-22T10:18:43.001Z</time></trkpt><trkpt lat="38.50857650877522" lon="16.264579752073256"><ele>1159.0</ele><time>2026-03-22T10:18:44.001Z</time></trkpt><trkpt lat="38.50849147848252" lon="16.26463706834436"><ele>1159.0</ele><time>2026-03-22T10:18:45.001Z</time></trkpt><trkpt lat="38.508406561681184" lon="16.264692891160784"><ele>1159.0</ele><time>2026-03-22T10:18:46.001Z</time></trkpt><trkpt lat="38.50831409840012" lon="16.26475600891052"><ele>1158.25</ele><time>2026-03-22T10:18:47.001Z</time></trkpt><trkpt lat="38.508214522496274" lon="16.264829840411853"><ele>1157.5</ele><time>2026-03-22T10:18:48.001Z</time></trkpt><trkpt lat="38.508129694147605" lon="16.264908373275112"><ele>1156.75</ele><time>2026-03-22T10:18:49.001Z</time></trkpt><trkpt lat="38.50803819608605" lon="16.265022962517847"><ele>1156.0</ele><time>2026-03-22T10:18:50.001Z</time></trkpt><trkpt lat="38.507958032428455" lon="16.265166398239842"><ele>1153.3333333333333</ele><time>2026-03-22T10:18:51.001Z</time></trkpt><trkpt lat="38.507876510066744" lon="16.265349475415455"><ele>1150.6666666666667</ele><time>2026-03-22T10:18:52.001Z</time></trkpt><trkpt lat="38.50779592584934" lon="16.265500716327146"><ele>1148.0</ele><time>2026-03-22T10:18:53.001Z</time></trkpt><trkpt lat="38.507714012779495" lon="16.265650668161207"><ele>1148.0</ele><time>2026-03-22T10:18:54.001Z</time></trkpt><trkpt lat="38.50762355072443" lon="16.2657967183369"><ele>1148.0</ele><time>2026-03-22T10:18:55.001Z</time></trkpt><trkpt lat="38.507526844632466" lon="16.26594675842838"><ele>1148.0</ele><time>2026-03-22T10:18:56.001Z</time></trkpt><trkpt lat="38.5074208680488" lon="16.26609143888643"><ele>1148.0</ele><time>2026-03-22T10:18:57.001Z</time></trkpt><trkpt lat="38.50730012423715" lon="16.266219048655884"><ele>1148.0</ele><time>2026-03-22T10:18:58.001Z</time></trkpt><trkpt lat="38.50719285163654" lon="16.266358199465024"><ele>1148.0</ele><time>2026-03-22T10:18:59.001Z</time></trkpt><trkpt lat="38.50709509333138" lon="16.266483387505513"><ele>1148.0</ele><time>2026-03-22T10:19:00.001Z</time></trkpt><trkpt lat="38.50699927365033" lon="16.26660527992763"><ele>1146.5</ele><time>2026-03-22T10:19:01.001Z</time></trkpt><trkpt lat="38.50690195586578" lon="16.26672192323555"><ele>1145.0</ele><time>2026-03-22T10:19:02.001Z</time></trkpt><trkpt lat="38.50681601730882" lon="16.266813639244276"><ele>1143.5</ele><time>2026-03-22T10:19:03.001Z</time></trkpt><trkpt lat="38.506710521898036" lon="16.26690597942237"><ele>1142.0</ele><time>2026-03-22T10:19:04.001Z</time></trkpt><trkpt lat="38.50659935859683" lon="16.267004976442834"><ele>1142.0</ele><time>2026-03-22T10:19:05.001Z</time></trkpt><trkpt lat="38.50648706543575" lon="16.26710646432919"><ele>1142.0</ele><time>2026-03-22T10:19:06.001Z</time></trkpt><trkpt lat="38.5063755864941" lon="16.2672086582248"><ele>1142.0</ele><time>2026-03-22T10:19:07.001Z</time></trkpt><trkpt lat="38.506251046916255" lon="16.267290613550053"><ele>1142.0</ele><time>2026-03-22T10:19:08.001Z</time></trkpt><trkpt lat="38.506129590776666" lon="16.267390832723624"><ele>1141.75</ele><time>2026-03-22T10:19:09.001Z</time></trkpt><trkpt lat="38.506015081552306" lon="16.267472814739218"><ele>1141.5</ele><time>2026-03-22T10:19:10.001Z</time></trkpt><trkpt lat="38.50590749617445" lon="16.267550866529245"><ele>1141.25</ele><time>2026-03-22T10:19:11.001Z</time></trkpt><trkpt lat="38.50580799585427" lon="16.267634185286607"><ele>1141.0</ele><time>2026-03-22T10:19:12.001Z</time></trkpt><trkpt lat="38.50571713803379" lon="16.267729676135932"><ele>1141.0</ele><time>2026-03-22T10:19:13.001Z</time></trkpt><trkpt lat="38.50564515728664" lon="16.267851850801637"><ele>1141.0</ele><time>2026-03-22T10:19:14.001Z</time></trkpt><trkpt lat="38.5055630375727" lon="16.267982885528625"><ele>1141.0</ele><time>2026-03-22T10:19:15.001Z</time></trkpt><trkpt lat="38.50552114943823" lon="16.268160395451783"><ele>1141.0</ele><time>2026-03-22T10:19:16.001Z</time></trkpt><trkpt lat="38.50546600591117" lon="16.268320493898667"><ele>1140.75</ele><time>2026-03-22T10:19:17.001Z</time></trkpt><trkpt lat="38.50543885950757" lon="16.26847698647683"><ele>1140.5</ele><time>2026-03-22T10:19:18.001Z</time></trkpt><trkpt lat="38.50544354018344" lon="16.26862855838148"><ele>1140.25</ele><time>2026-03-22T10:19:19.001Z</time></trkpt><trkpt lat="38.505473525285154" lon="16.26875808386825"><ele>1140.0</ele><time>2026-03-22T10:19:20.001Z</time></trkpt><trkpt lat="38.50553613246384" lon="16.268896369207777"><ele>1138.5</ele><time>2026-03-22T10:19:21.001Z</time></trkpt><trkpt lat="38.50562764563623" lon="16.269013015490007"><ele>1137.0</ele><time>2026-03-22T10:19:22.001Z</time></trkpt><trkpt lat="38.50572394429315" lon="16.269108580904174"><ele>1135.5</ele><time>2026-03-22T10:19:23.001Z</time></trkpt><trkpt lat="38.50583995069534" lon="16.269191054041016"><ele>1134.0</ele><time>2026-03-22T10:19:24.001Z</time></trkpt><trkpt lat="38.5059307596101" lon="16.269313615875117"><ele>1134.0</ele><time>2026-03-22T10:19:25.001Z</time></trkpt><trkpt lat="38.5060206832704" lon="16.269411273509157"><ele>1134.0</ele><time>2026-03-22T10:19:26.001Z</time></trkpt><trkpt lat="38.50611093725141" lon="16.269519432809417"><ele>1134.0</ele><time>2026-03-22T10:19:27.001Z</time></trkpt><trkpt lat="38.50619803821995" lon="16.269625256682072"><ele>1134.0</ele><time>2026-03-22T10:19:28.001Z</time></trkpt><trkpt lat="38.506282206144746" lon="16.269723378004905"><ele>1133.25</ele><time>2026-03-22T10:19:29.001Z</time></trkpt><trkpt lat="38.506355767995416" lon="16.269851657909218"><ele>1132.5</ele><time>2026-03-22T10:19:30.001Z</time></trkpt><trkpt lat="38.506406223056416" lon="16.269988815188697"><ele>1131.75</ele><time>2026-03-22T10:19:31.001Z</time></trkpt><trkpt lat="38.50643327314033" lon="16.270159688144094"><ele>1131.0</ele><time>2026-03-22T10:19:32.001Z</time></trkpt><trkpt lat="38.506422316579695" lon="16.270301256268908"><ele>1131.0</ele><time>2026-03-22T10:19:33.001Z</time></trkpt><trkpt lat="38.50640445769332" lon="16.270434608254682"><ele>1131.0</ele><time>2026-03-22T10:19:34.001Z</time></trkpt><trkpt lat="38.506381330628905" lon="16.27057509342491"><ele>1131.0</ele><time>2026-03-22T10:19:35.001Z</time></trkpt><trkpt lat="38.50635339362082" lon="16.27072816523351"><ele>1131.0</ele><time>2026-03-22T10:19:36.001Z</time></trkpt><trkpt lat="38.50633433999783" lon="16.27083126029034"><ele>1131.0</ele><time>2026-03-22T10:19:37.001Z</time></trkpt><trkpt lat="38.50629445257317" lon="16.271046038829887"><ele>1130.75</ele><time>2026-03-22T10:19:38.001Z</time></trkpt><trkpt lat="38.50627002671784" lon="16.271176684070888"><ele>1130.5</ele><time>2026-03-22T10:19:39.001Z</time></trkpt><trkpt lat="38.50624088255136" lon="16.271332566579748"><ele>1130.25</ele><time>2026-03-22T10:19:40.001Z</time></trkpt><trkpt lat="38.50621441722496" lon="16.27147412063669"><ele>1130.0</ele><time>2026-03-22T10:19:41.001Z</time></trkpt><trkpt lat="38.50618534162096" lon="16.27163034862311"><ele>1128.25</ele><time>2026-03-22T10:19:42.001Z</time></trkpt><trkpt lat="38.50614993128865" lon="16.27178944168965"><ele>1126.5</ele><time>2026-03-22T10:19:43.001Z</time></trkpt><trkpt lat="38.50613318445004" lon="16.271942859991356"><ele>1124.75</ele><time>2026-03-22T10:19:44.001Z</time></trkpt><trkpt lat="38.50611860026695" lon="16.272086755967422"><ele>1123.0</ele><time>2026-03-22T10:19:45.001Z</time></trkpt><trkpt lat="38.50607420718322" lon="16.272239281189407"><ele>1124.1666666666665</ele><time>2026-03-22T10:19:46.001Z</time></trkpt><trkpt lat="38.506059348597105" lon="16.27237312554626"><ele>1125.3333333333333</ele><time>2026-03-22T10:19:47.001Z</time></trkpt><trkpt lat="38.50603025188017" lon="16.27249858243225"><ele>1126.5</ele><time>2026-03-22T10:19:48.001Z</time></trkpt><trkpt lat="38.50602204749533" lon="16.272620626038883"><ele>1127.6666666666667</ele><time>2026-03-22T10:19:49.001Z</time></trkpt><trkpt lat="38.50601284312268" lon="16.272719318564427"><ele>1128.8333333333335</ele><time>2026-03-22T10:19:50.001Z</time></trkpt><trkpt lat="38.505993642373284" lon="16.27279874610053"><ele>1130.0</ele><time>2026-03-22T10:19:51.001Z</time></trkpt><trkpt lat="38.50595677351504" lon="16.272895005067795"><ele>1130.0</ele><time>2026-03-22T10:19:53.001Z</time></trkpt><trkpt lat="38.50593918019645" lon="16.273010026819605"><ele>1130.0</ele><time>2026-03-22T10:20:35.001Z</time></trkpt><trkpt lat="38.50596356346173" lon="16.273098673333546"><ele>1130.0</ele><time>2026-03-22T10:20:38.001Z</time></trkpt><trkpt lat="38.506071429950445" lon="16.27318782404443"><ele>1130.0</ele><time>2026-03-22T10:20:39.001Z</time></trkpt><trkpt lat="38.5061701218013" lon="16.27327974890922"><ele>1130.0</ele><time>2026-03-22T10:20:40.001Z</time></trkpt><trkpt lat="38.50627039700146" lon="16.273343407217958"><ele>1130.0</ele><time>2026-03-22T10:20:41.001Z</time></trkpt><trkpt lat="38.506359397965134" lon="16.273389196259703"><ele>1130.0</ele><time>2026-03-22T10:20:42.001Z</time></trkpt><trkpt lat="38.50646081374898" lon="16.27342901019571"><ele>1130.0</ele><time>2026-03-22T10:20:43.001Z</time></trkpt><trkpt lat="38.50657743197927" lon="16.273452422504928"><ele>1130.0</ele><time>2026-03-22T10:20:44.001Z</time></trkpt><trkpt lat="38.506720183750964" lon="16.273467442605465"><ele>1130.0</ele><time>2026-03-22T10:20:45.001Z</time></trkpt><trkpt lat="38.50683988669156" lon="16.27353364310253"><ele>1130.0</ele><time>2026-03-22T10:20:46.001Z</time></trkpt><trkpt lat="38.50695640240383" lon="16.273520919598795"><ele>1130.0</ele><time>2026-03-22T10:20:47.001Z</time></trkpt><trkpt lat="38.5070577059438" lon="16.273536079936378"><ele>1130.0</ele><time>2026-03-22T10:20:48.001Z</time></trkpt><trkpt lat="38.50714060245393" lon="16.273559599312232"><ele>1130.0</ele><time>2026-03-22T10:20:49.001Z</time></trkpt><trkpt lat="38.507224503084664" lon="16.273599925784254"><ele>1130.0</ele><time>2026-03-22T10:20:50.001Z</time></trkpt><trkpt lat="38.50730237497979" lon="16.273678166835744"><ele>1130.0</ele><time>2026-03-22T10:20:51.001Z</time></trkpt><trkpt lat="38.507377574796934" lon="16.273789380407706"><ele>1130.0</ele><time>2026-03-22T10:20:52.001Z</time></trkpt><trkpt lat="38.507437636508975" lon="16.27389937845637"><ele>1130.0</ele><time>2026-03-22T10:20:53.001Z</time></trkpt><trkpt lat="38.50749204478409" lon="16.27400880649234"><ele>1130.0</ele><time>2026-03-22T10:20:54.001Z</time></trkpt><trkpt lat="38.50755519210779" lon="16.2740911579455"><ele>1130.0</ele><time>2026-03-22T10:20:55.001Z</time></trkpt><trkpt lat="38.50760328790526" lon="16.27418050410824"><ele>1130.0</ele><time>2026-03-22T10:20:56.001Z</time></trkpt><trkpt lat="38.50765213788464" lon="16.274292759246183"><ele>1130.0</ele><time>2026-03-22T10:20:57.001Z</time></trkpt><trkpt lat="38.50773018672584" lon="16.274401579848128"><ele>1130.0</ele><time>2026-03-22T10:20:58.001Z</time></trkpt><trkpt lat="38.50783068530677" lon="16.274500888087683"><ele>1130.0</ele><time>2026-03-22T10:20:59.001Z</time></trkpt><trkpt lat="38.50796103752126" lon="16.274583756785333"><ele>1128.25</ele><time>2026-03-22T10:21:00.001Z</time></trkpt><trkpt lat="38.50808731299593" lon="16.27465937083542"><ele>1126.5</ele><time>2026-03-22T10:21:01.001Z</time></trkpt><trkpt lat="38.50822874038041" lon="16.274741578414865"><ele>1124.75</ele><time>2026-03-22T10:21:02.001Z</time></trkpt><trkpt lat="38.50837017229427" lon="16.27482165924337"><ele>1123.0</ele><time>2026-03-22T10:21:03.001Z</time></trkpt><trkpt lat="38.50851374639904" lon="16.2748809476171"><ele>1123.0</ele><time>2026-03-22T10:21:04.001Z</time></trkpt><trkpt lat="38.50863868838082" lon="16.274954423892414"><ele>1123.0</ele><time>2026-03-22T10:21:05.001Z</time></trkpt><trkpt lat="38.50872961308477" lon="16.275019936058108"><ele>1123.0</ele><time>2026-03-22T10:21:06.001Z</time></trkpt><trkpt lat="38.50885024963487" lon="16.275084124377074"><ele>1123.0</ele><time>2026-03-22T10:21:07.001Z</time></trkpt><trkpt lat="38.508963339221246" lon="16.275127837536047"><ele>1121.0</ele><time>2026-03-22T10:21:08.001Z</time></trkpt><trkpt lat="38.50905994682953" lon="16.275202345016403"><ele>1119.0</ele><time>2026-03-22T10:21:09.001Z</time></trkpt><trkpt lat="38.509146830600486" lon="16.27530338495592"><ele>1117.0</ele><time>2026-03-22T10:21:10.001Z</time></trkpt><trkpt lat="38.509178314474624" lon="16.27539764373504"><ele>1115.0</ele><time>2026-03-22T10:21:11.001Z</time></trkpt><trkpt lat="38.50918902080347" lon="16.27551065894551"><ele>1113.0</ele><time>2026-03-22T10:21:12.001Z</time></trkpt><trkpt lat="38.50916404897455" lon="16.27563069057592"><ele>1112.5</ele><time>2026-03-22T10:21:13.001Z</time></trkpt><trkpt lat="38.509125901872046" lon="16.27575757819453"><ele>1112.0</ele><time>2026-03-22T10:21:14.001Z</time></trkpt><trkpt lat="38.50908340301398" lon="16.275911951430672"><ele>1111.5</ele><time>2026-03-22T10:21:15.001Z</time></trkpt><trkpt lat="38.50903413261774" lon="16.27609092157168"><ele>1111.0</ele><time>2026-03-22T10:21:16.001Z</time></trkpt><trkpt lat="38.50898609201525" lon="16.276286329296205"><ele>1110.25</ele><time>2026-03-22T10:21:17.001Z</time></trkpt><trkpt lat="38.50894770049599" lon="16.276463133134705"><ele>1109.5</ele><time>2026-03-22T10:21:18.001Z</time></trkpt><trkpt lat="38.50890959453624" lon="16.27665405425249"><ele>1108.75</ele><time>2026-03-22T10:21:19.001Z</time></trkpt><trkpt lat="38.50887904703899" lon="16.27683249738376"><ele>1108.0</ele><time>2026-03-22T10:21:20.001Z</time></trkpt><trkpt lat="38.50884194544622" lon="16.27702283464013"><ele>1108.0</ele><time>2026-03-22T10:21:21.001Z</time></trkpt><trkpt lat="38.50883105962919" lon="16.2771949234039"><ele>1108.0</ele><time>2026-03-22T10:21:22.001Z</time></trkpt><trkpt lat="38.50879869399006" lon="16.277383005962808"><ele>1108.0</ele><time>2026-03-22T10:21:23.001Z</time></trkpt><trkpt lat="38.508780901728926" lon="16.27757359012908"><ele>1108.0</ele><time>2026-03-22T10:21:24.001Z</time></trkpt><trkpt lat="38.5087660497719" lon="16.277764841036976"><ele>1107.0</ele><time>2026-03-22T10:21:25.001Z</time></trkpt><trkpt lat="38.50875588710004" lon="16.277957876333257"><ele>1106.0</ele><time>2026-03-22T10:21:26.001Z</time></trkpt><trkpt lat="38.50874919502623" lon="16.278156885033667"><ele>1105.0</ele><time>2026-03-22T10:21:27.001Z</time></trkpt><trkpt lat="38.50874498978024" lon="16.278333326217165"><ele>1104.0</ele><time>2026-03-22T10:21:28.001Z</time></trkpt><trkpt lat="38.5087409499115" lon="16.278529876874646"><ele>1104.0</ele><time>2026-03-22T10:21:29.001Z</time></trkpt><trkpt lat="38.50874151445499" lon="16.27871410369142"><ele>1104.0</ele><time>2026-03-22T10:21:30.001Z</time></trkpt><trkpt lat="38.508753891241724" lon="16.27889537089542"><ele>1104.0</ele><time>2026-03-22T10:21:31.001Z</time></trkpt><trkpt lat="38.508780279964505" lon="16.279060615244045"><ele>1104.0</ele><time>2026-03-22T10:21:32.001Z</time></trkpt><trkpt lat="38.508826486989406" lon="16.279240360146616"><ele>1100.75</ele><time>2026-03-22T10:21:33.001Z</time></trkpt><trkpt lat="38.50887448673513" lon="16.279399799419984"><ele>1097.5</ele><time>2026-03-22T10:21:34.001Z</time></trkpt><trkpt lat="38.50893035550165" lon="16.279558175693435"><ele>1094.25</ele><time>2026-03-22T10:21:35.001Z</time></trkpt><trkpt lat="38.508994147555846" lon="16.27971892907559"><ele>1091.0</ele><time>2026-03-22T10:21:36.001Z</time></trkpt><trkpt lat="38.509060301525885" lon="16.27987553920994"><ele>1090.25</ele><time>2026-03-22T10:21:37.001Z</time></trkpt><trkpt lat="38.509128365932305" lon="16.280038890769408"><ele>1089.5</ele><time>2026-03-22T10:21:38.001Z</time></trkpt><trkpt lat="38.50920187867396" lon="16.280200157648455"><ele>1088.75</ele><time>2026-03-22T10:21:39.001Z</time></trkpt><trkpt lat="38.509274559393894" lon="16.28035989307953"><ele>1088.0</ele><time>2026-03-22T10:21:40.001Z</time></trkpt><trkpt lat="38.50934403976372" lon="16.280515056279473"><ele>1088.75</ele><time>2026-03-22T10:21:41.001Z</time></trkpt><trkpt lat="38.509416100942055" lon="16.280671163951038"><ele>1089.5</ele><time>2026-03-22T10:21:42.001Z</time></trkpt><trkpt lat="38.50947983983755" lon="16.28082207604946"><ele>1090.25</ele><time>2026-03-22T10:21:43.001Z</time></trkpt><trkpt lat="38.50952663156367" lon="16.280949991911786"><ele>1091.0</ele><time>2026-03-22T10:21:44.001Z</time></trkpt><trkpt lat="38.50955484780797" lon="16.28108294729476"><ele>1090.6</ele><time>2026-03-22T10:21:45.001Z</time></trkpt><trkpt lat="38.50958604140992" lon="16.28119773224571"><ele>1090.1999999999998</ele><time>2026-03-22T10:21:46.001Z</time></trkpt><trkpt lat="38.50961446046451" lon="16.28130644862385"><ele>1089.8000000000002</ele><time>2026-03-22T10:21:47.001Z</time></trkpt><trkpt lat="38.50963138673738" lon="16.281408679233763"><ele>1089.4</ele><time>2026-03-22T10:21:48.001Z</time></trkpt><trkpt lat="38.50963568340287" lon="16.281505178690843"><ele>1089.0</ele><time>2026-03-22T10:21:49.001Z</time></trkpt><trkpt lat="38.50962916792028" lon="16.28168382435557"><ele>1088.4</ele><time>2026-03-22T10:21:51.001Z</time></trkpt><trkpt lat="38.509614238379726" lon="16.281786444317962"><ele>1087.8000000000002</ele><time>2026-03-22T10:21:52.001Z</time></trkpt><trkpt lat="38.50957824477751" lon="16.281897509604057"><ele>1087.1999999999998</ele><time>2026-03-22T10:21:53.001Z</time></trkpt><trkpt lat="38.509528153748306" lon="16.282004125699657"><ele>1086.6</ele><time>2026-03-22T10:21:54.001Z</time></trkpt><trkpt lat="38.50941519919228" lon="16.28206640511847"><ele>1086.0</ele><time>2026-03-22T10:21:55.001Z</time></trkpt><trkpt lat="38.50933324600997" lon="16.282170057201746"><ele>1086.6</ele><time>2026-03-22T10:21:56.001Z</time></trkpt><trkpt lat="38.50924609789345" lon="16.282261565351735"><ele>1087.1999999999998</ele><time>2026-03-22T10:21:57.001Z</time></trkpt><trkpt lat="38.509159307669755" lon="16.282335673668857"><ele>1087.8000000000002</ele><time>2026-03-22T10:21:58.001Z</time></trkpt><trkpt lat="38.50905694499926" lon="16.282419464184173"><ele>1088.4</ele><time>2026-03-22T10:21:59.001Z</time></trkpt><trkpt lat="38.50896051038045" lon="16.28248782740111"><ele>1089.0</ele><time>2026-03-22T10:22:00.001Z</time></trkpt><trkpt lat="38.50883278201281" lon="16.282547462793485"><ele>1088.0</ele><time>2026-03-22T10:22:01.001Z</time></trkpt><trkpt lat="38.50869476022531" lon="16.282594259491052"><ele>1087.0</ele><time>2026-03-22T10:22:02.001Z</time></trkpt><trkpt lat="38.508524770775004" lon="16.2826344181517"><ele>1086.0</ele><time>2026-03-22T10:22:03.001Z</time></trkpt><trkpt lat="38.508362326617046" lon="16.282699610821254"><ele>1086.0</ele><time>2026-03-22T10:22:04.001Z</time></trkpt><trkpt lat="38.50821627707977" lon="16.28278653688822"><ele>1086.0</ele><time>2026-03-22T10:22:05.001Z</time></trkpt><trkpt lat="38.508078640873805" lon="16.282878057520275"><ele>1086.0</ele><time>2026-03-22T10:22:06.001Z</time></trkpt><trkpt lat="38.507943501168626" lon="16.282971969394367"><ele>1083.3333333333333</ele><time>2026-03-22T10:22:07.001Z</time></trkpt><trkpt lat="38.507781269215805" lon="16.283091870164345"><ele>1080.6666666666665</ele><time>2026-03-22T10:22:08.001Z</time></trkpt><trkpt lat="38.507649407900225" lon="16.283193905026955"><ele>1078.0</ele><time>2026-03-22T10:22:09.001Z</time></trkpt><trkpt lat="38.50751417281666" lon="16.283315900677508"><ele>1076.6666666666665</ele><time>2026-03-22T10:22:10.001Z</time></trkpt><trkpt lat="38.50739264737697" lon="16.283455256709697"><ele>1075.3333333333333</ele><time>2026-03-22T10:22:11.001Z</time></trkpt><trkpt lat="38.507286790235604" lon="16.28361228141816"><ele>1074.0</ele><time>2026-03-22T10:22:12.001Z</time></trkpt><trkpt lat="38.507172637925066" lon="16.283735071869128"><ele>1072.0</ele><time>2026-03-22T10:22:13.001Z</time></trkpt><trkpt lat="38.50707245916558" lon="16.28386568324575"><ele>1070.0</ele><time>2026-03-22T10:22:14.001Z</time></trkpt><trkpt lat="38.50696835561199" lon="16.284001411710324"><ele>1068.0</ele><time>2026-03-22T10:22:15Z</time></trkpt><trkpt lat="38.50686530137386" lon="16.284135480636905"><ele>1066.0</ele><time>2026-03-22T10:22:16Z</time></trkpt><trkpt lat="38.506764153542385" lon="16.284266549348906"><ele>1066.0</ele><time>2026-03-22T10:22:17Z</time></trkpt><trkpt lat="38.50666580350209" lon="16.284393992795557"><ele>1066.0</ele><time>2026-03-22T10:22:18Z</time></trkpt><trkpt lat="38.506574191678595" lon="16.284510649890084"><ele>1066.0</ele><time>2026-03-22T10:22:19Z</time></trkpt><trkpt lat="38.506470483189624" lon="16.284639723944164"><ele>1066.0</ele><time>2026-03-22T10:22:20Z</time></trkpt><trkpt lat="38.50634695416213" lon="16.284746693402145"><ele>1063.6666666666665</ele><time>2026-03-22T10:22:21Z</time></trkpt><trkpt lat="38.506215276717455" lon="16.284886156701244"><ele>1061.3333333333333</ele><time>2026-03-22T10:22:22Z</time></trkpt><trkpt lat="38.50609298135172" lon="16.285011278455862"><ele>1059.0</ele><time>2026-03-22T10:22:23Z</time></trkpt><trkpt lat="38.5059596265499" lon="16.285136190265916"><ele>1059.0</ele><time>2026-03-22T10:22:24Z</time></trkpt><trkpt lat="38.50577992146242" lon="16.285284522613157"><ele>1059.0</ele><time>2026-03-22T10:22:25Z</time></trkpt><trkpt lat="38.5056449637843" lon="16.2853897955122"><ele>1059.0</ele><time>2026-03-22T10:22:26Z</time></trkpt><trkpt lat="38.50550658993946" lon="16.28549773281896"><ele>1057.75</ele><time>2026-03-22T10:22:27Z</time></trkpt><trkpt lat="38.50537565268185" lon="16.28559986926055"><ele>1056.5</ele><time>2026-03-22T10:22:28Z</time></trkpt><trkpt lat="38.50526356449197" lon="16.285693595666938"><ele>1055.25</ele><time>2026-03-22T10:22:29Z</time></trkpt><trkpt lat="38.505159305436194" lon="16.285802837153696"><ele>1054.0</ele><time>2026-03-22T10:22:30Z</time></trkpt><trkpt lat="38.505090679428896" lon="16.285882182757003"><ele>1054.0</ele><time>2026-03-22T10:22:31Z</time></trkpt><trkpt lat="38.50498691679995" lon="16.285993353149955"><ele>1054.0</ele><time>2026-03-22T10:22:32Z</time></trkpt><trkpt lat="38.504901326565985" lon="16.286095073566962"><ele>1054.0</ele><time>2026-03-22T10:22:33Z</time></trkpt><trkpt lat="38.504807479998306" lon="16.28626413332718"><ele>1054.0</ele><time>2026-03-22T10:22:34Z</time></trkpt><trkpt lat="38.50472762296431" lon="16.286426065940812"><ele>1054.25</ele><time>2026-03-22T10:22:35Z</time></trkpt><trkpt lat="38.50467950389923" lon="16.286532039692652"><ele>1054.5</ele><time>2026-03-22T10:22:36Z</time></trkpt><trkpt lat="38.50461467825162" lon="16.286681276504385"><ele>1054.75</ele><time>2026-03-22T10:22:37Z</time></trkpt><trkpt lat="38.50458888272841" lon="16.286848341928184"><ele>1055.0</ele><time>2026-03-22T10:22:38Z</time></trkpt><trkpt lat="38.5046093360384" lon="16.286995859614574"><ele>1055.0</ele><time>2026-03-22T10:22:39Z</time></trkpt><trkpt lat="38.50463092055728" lon="16.287157293294925"><ele>1055.0</ele><time>2026-03-22T10:22:40Z</time></trkpt><trkpt lat="38.50465571743577" lon="16.287325934760695"><ele>1055.0</ele><time>2026-03-22T10:22:41Z</time></trkpt><trkpt lat="38.50467836809181" lon="16.287481300462385"><ele>1055.0</ele><time>2026-03-22T10:22:42Z</time></trkpt><trkpt lat="38.50469718175454" lon="16.28763484781656"><ele>1053.4</ele><time>2026-03-22T10:22:43Z</time></trkpt><trkpt lat="38.50470551002822" lon="16.28777529223206"><ele>1051.8</ele><time>2026-03-22T10:22:44Z</time></trkpt><trkpt lat="38.50469756149953" lon="16.28785732696213"><ele>1050.2</ele><time>2026-03-22T10:22:45Z</time></trkpt><trkpt lat="38.5046745339541" lon="16.287967450402903"><ele>1048.6</ele><time>2026-03-22T10:22:46Z</time></trkpt><trkpt lat="38.50463430154255" lon="16.288074245439983"><ele>1047.0</ele><time>2026-03-22T10:22:47Z</time></trkpt><trkpt lat="38.50456736473107" lon="16.28817016177227"><ele>1044.5</ele><time>2026-03-22T10:22:48Z</time></trkpt><trkpt lat="38.504476013708086" lon="16.28827694960494"><ele>1042.0</ele><time>2026-03-22T10:22:49Z</time></trkpt><trkpt lat="38.50437134019975" lon="16.28840623355098"><ele>1039.5</ele><time>2026-03-22T10:22:50Z</time></trkpt><trkpt lat="38.50427483074271" lon="16.288548189468727"><ele>1037.0</ele><time>2026-03-22T10:22:51Z</time></trkpt><trkpt lat="38.50416551923505" lon="16.28870920569547"><ele>1037.0</ele><time>2026-03-22T10:22:52Z</time></trkpt><trkpt lat="38.50409148352679" lon="16.288813567697893"><ele>1037.0</ele><time>2026-03-22T10:22:53Z</time></trkpt><trkpt lat="38.5040137103417" lon="16.28891715200993"><ele>1037.0</ele><time>2026-03-22T10:22:54Z</time></trkpt><trkpt lat="38.50393100368212" lon="16.288990367591186"><ele>1037.0</ele><time>2026-03-22T10:22:55Z</time></trkpt><trkpt lat="38.503837867459424" lon="16.289038676116963"><ele>1037.0</ele><time>2026-03-22T10:22:56Z</time></trkpt><trkpt lat="38.50373660849996" lon="16.289068561336794"><ele>1033.25</ele><time>2026-03-22T10:22:57Z</time></trkpt><trkpt lat="38.503629457468854" lon="16.289095099580855"><ele>1029.5</ele><time>2026-03-22T10:22:58Z</time></trkpt><trkpt lat="38.50353010107884" lon="16.289118781868332"><ele>1025.75</ele><time>2026-03-22T10:22:59Z</time></trkpt><trkpt lat="38.503348928163206" lon="16.289177576930584"><ele>1022.0</ele><time>2026-03-22T10:23:00Z</time></trkpt><trkpt lat="38.50319578889217" lon="16.289297234919864"><ele>1022.0</ele><time>2026-03-22T10:23:01Z</time></trkpt><trkpt lat="38.50310494432811" lon="16.289457689829238"><ele>1022.0</ele><time>2026-03-22T10:23:02Z</time></trkpt><trkpt lat="38.50303635809296" lon="16.28965526674309"><ele>1022.0</ele><time>2026-03-22T10:23:03Z</time></trkpt><trkpt lat="38.502979983824716" lon="16.28982387820605"><ele>1020.0</ele><time>2026-03-22T10:23:04Z</time></trkpt><trkpt lat="38.502915574845645" lon="16.290018947813586"><ele>1018.0</ele><time>2026-03-22T10:23:05Z</time></trkpt><trkpt lat="38.50286208610987" lon="16.290242052223647"><ele>1016.0</ele><time>2026-03-22T10:23:06Z</time></trkpt><trkpt lat="38.502825790351075" lon="16.290467893314535"><ele>1017.0</ele><time>2026-03-22T10:23:07Z</time></trkpt><trkpt lat="38.50279669924128" lon="16.2906765054996"><ele>1018.0</ele><time>2026-03-22T10:23:08Z</time></trkpt><trkpt lat="38.50276667431546" lon="16.290885245812554"><ele>1019.0</ele><time>2026-03-22T10:23:09Z</time></trkpt><trkpt lat="38.50273496258249" lon="16.291105915585117"><ele>1019.0</ele><time>2026-03-22T10:23:10Z</time></trkpt><trkpt lat="38.50270558847601" lon="16.291310318624465"><ele>1019.0</ele><time>2026-03-22T10:23:11Z</time></trkpt><trkpt lat="38.5026791464288" lon="16.2914991915239"><ele>1019.0</ele><time>2026-03-22T10:23:12Z</time></trkpt><trkpt lat="38.502652880183284" lon="16.29169076493197"><ele>1018.25</ele><time>2026-03-22T10:23:13Z</time></trkpt><trkpt lat="38.50262174708028" lon="16.291917834794177"><ele>1017.5</ele><time>2026-03-22T10:23:14Z</time></trkpt><trkpt lat="38.50259393183184" lon="16.292090663155182"><ele>1016.75</ele><time>2026-03-22T10:23:15Z</time></trkpt><trkpt lat="38.50255796741009" lon="16.292243947485023"><ele>1016.0</ele><time>2026-03-22T10:23:16Z</time></trkpt><trkpt lat="38.50250994769344" lon="16.292393020395423"><ele>1013.5</ele><time>2026-03-22T10:23:17Z</time></trkpt><trkpt lat="38.502460889325924" lon="16.292518502136613"><ele>1011.0</ele><time>2026-03-22T10:23:18Z</time></trkpt><trkpt lat="38.50237098355526" lon="16.292684073602477"><ele>1008.5</ele><time>2026-03-22T10:23:19Z</time></trkpt><trkpt lat="38.502267665543066" lon="16.292794793975432"><ele>1006.0</ele><time>2026-03-22T10:23:20Z</time></trkpt><trkpt lat="38.50213764559484" lon="16.292880315267027"><ele>1006.6666666666666</ele><time>2026-03-22T10:23:21Z</time></trkpt><trkpt lat="38.502002787545734" lon="16.292964401600095"><ele>1007.3333333333333</ele><time>2026-03-22T10:23:22Z</time></trkpt><trkpt lat="38.50183152493781" lon="16.293029431166783"><ele>1008.0</ele><time>2026-03-22T10:23:23Z</time></trkpt><trkpt lat="38.501646907297896" lon="16.293067281108733"><ele>1003.3333333333333</ele><time>2026-03-22T10:23:24Z</time></trkpt><trkpt lat="38.50144866007564" lon="16.293107803539254"><ele>998.6666666666666</ele><time>2026-03-22T10:23:25Z</time></trkpt><trkpt lat="38.50128156547244" lon="16.293123621507576"><ele>994.0</ele><time>2026-03-22T10:23:26Z</time></trkpt><trkpt lat="38.501109468844994" lon="16.293132928370575"><ele>992.0</ele><time>2026-03-22T10:23:27Z</time></trkpt><trkpt lat="38.50092664340788" lon="16.29313824744324"><ele>990.0</ele><time>2026-03-22T10:23:28Z</time></trkpt><trkpt lat="38.50079263659814" lon="16.293171875302562"><ele>988.0</ele><time>2026-03-22T10:23:29Z</time></trkpt><trkpt lat="38.500645203776934" lon="16.29319897456075"><ele>988.0</ele><time>2026-03-22T10:23:30Z</time></trkpt><trkpt lat="38.500510166545986" lon="16.293295292609837"><ele>988.0</ele><time>2026-03-22T10:23:31Z</time></trkpt><trkpt lat="38.50038400355813" lon="16.293349994644064"><ele>988.0</ele><time>2026-03-22T10:23:32Z</time></trkpt><trkpt lat="38.50027477198261" lon="16.293390227184968"><ele>988.0</ele><time>2026-03-22T10:23:33Z</time></trkpt><trkpt lat="38.500170717748965" lon="16.293448407805744"><ele>987.5</ele><time>2026-03-22T10:23:34Z</time></trkpt><trkpt lat="38.50006074056093" lon="16.293513098570042"><ele>987.0</ele><time>2026-03-22T10:23:35Z</time></trkpt><trkpt lat="38.49994389105631" lon="16.293584070171775"><ele>986.5</ele><time>2026-03-22T10:23:36Z</time></trkpt><trkpt lat="38.49982843545868" lon="16.293654195075625"><ele>986.0</ele><time>2026-03-22T10:23:37Z</time></trkpt><trkpt lat="38.499714696153696" lon="16.29372335545564"><ele>986.0</ele><time>2026-03-22T10:23:38Z</time></trkpt><trkpt lat="38.49959611012863" lon="16.29379545279092"><ele>986.0</ele><time>2026-03-22T10:23:39Z</time></trkpt><trkpt lat="38.49947238534916" lon="16.293870674340177"><ele>986.0</ele><time>2026-03-22T10:23:40Z</time></trkpt><trkpt lat="38.49934539633995" lon="16.29394827707452"><ele>986.0</ele><time>2026-03-22T10:23:41Z</time></trkpt><trkpt lat="38.49921973840382" lon="16.2940268756189"><ele>984.25</ele><time>2026-03-22T10:23:42Z</time></trkpt><trkpt lat="38.499082175671155" lon="16.294108759303377"><ele>982.5</ele><time>2026-03-22T10:23:43Z</time></trkpt><trkpt lat="38.498955438245005" lon="16.294196552291414"><ele>980.75</ele><time>2026-03-22T10:23:44Z</time></trkpt><trkpt lat="38.498814512326234" lon="16.294247607740946"><ele>979.0</ele><time>2026-03-22T10:23:45Z</time></trkpt><trkpt lat="38.49867240545836" lon="16.294297814575472"><ele>978.0</ele><time>2026-03-22T10:23:46Z</time></trkpt><trkpt lat="38.498533147139135" lon="16.29434130772788"><ele>977.0</ele><time>2026-03-22T10:23:47Z</time></trkpt><trkpt lat="38.49839530651955" lon="16.294373870113677"><ele>976.0</ele><time>2026-03-22T10:23:48Z</time></trkpt><trkpt lat="38.49825555424901" lon="16.2944054244187"><ele>975.0</ele><time>2026-03-22T10:23:49Z</time></trkpt><trkpt lat="38.49811913477254" lon="16.294406251169146"><ele>975.0</ele><time>2026-03-22T10:23:50Z</time></trkpt><trkpt lat="38.497987226285936" lon="16.29441794319531"><ele>975.0</ele><time>2026-03-22T10:23:51Z</time></trkpt><trkpt lat="38.4978453942807" lon="16.294431470188528"><ele>975.0</ele><time>2026-03-22T10:23:52Z</time></trkpt><trkpt lat="38.49771819583722" lon="16.29445261696841"><ele>975.0</ele><time>2026-03-22T10:23:53Z</time></trkpt><trkpt lat="38.49760067611374" lon="16.294461731965974"><ele>974.4</ele><time>2026-03-22T10:23:54Z</time></trkpt><trkpt lat="38.49749032616409" lon="16.29447271714099"><ele>973.8</ele><time>2026-03-22T10:23:55Z</time></trkpt><trkpt lat="38.49738577049635" lon="16.29448712454444"><ele>973.2</ele><time>2026-03-22T10:23:56Z</time></trkpt><trkpt lat="38.497283790453544" lon="16.294500862806544"><ele>972.6</ele><time>2026-03-22T10:23:57Z</time></trkpt><trkpt lat="38.497165564609276" lon="16.29451433071183"><ele>972.0</ele><time>2026-03-22T10:23:58Z</time></trkpt><trkpt lat="38.49704189149885" lon="16.294521392357183"><ele>972.0</ele><time>2026-03-22T10:23:59Z</time></trkpt><trkpt lat="38.49690181121765" lon="16.29452382106741"><ele>972.0</ele><time>2026-03-22T10:24:00Z</time></trkpt><trkpt lat="38.496757933650976" lon="16.29452988959446"><ele>972.0</ele><time>2026-03-22T10:24:01Z</time></trkpt><trkpt lat="38.496612781370345" lon="16.29455082650781"><ele>972.0</ele><time>2026-03-22T10:24:02Z</time></trkpt><trkpt lat="38.49649666717833" lon="16.29458321497397"><ele>972.0</ele><time>2026-03-22T10:24:03Z</time></trkpt><trkpt lat="38.496359701863426" lon="16.294594306277713"><ele>972.0</ele><time>2026-03-22T10:24:04Z</time></trkpt><trkpt lat="38.496220520925434" lon="16.29460598661591"><ele>972.0</ele><time>2026-03-22T10:24:05Z</time></trkpt><trkpt lat="38.496073435881215" lon="16.29462024925753"><ele>972.0</ele><time>2026-03-22T10:24:06Z</time></trkpt><trkpt lat="38.49592181519612" lon="16.294614273841482"><ele>971.3333333333333</ele><time>2026-03-22T10:24:07Z</time></trkpt><trkpt lat="38.495766378944786" lon="16.294630145986957"><ele>970.6666666666666</ele><time>2026-03-22T10:24:08Z</time></trkpt><trkpt lat="38.49562178229667" lon="16.29464514899053"><ele>970.0</ele><time>2026-03-22T10:24:09Z</time></trkpt><trkpt lat="38.495467743239296" lon="16.294681472831076"><ele>969.25</ele><time>2026-03-22T10:24:10Z</time></trkpt><trkpt lat="38.495308996028406" lon="16.29467626357356"><ele>968.5</ele><time>2026-03-22T10:24:11Z</time></trkpt><trkpt lat="38.49516473870844" lon="16.294688632935518"><ele>967.75</ele><time>2026-03-22T10:24:12Z</time></trkpt><trkpt lat="38.49502779862357" lon="16.294690908219376"><ele>967.0</ele><time>2026-03-22T10:24:13Z</time></trkpt><trkpt lat="38.49490794425814" lon="16.294707504278318"><ele>967.0</ele><time>2026-03-22T10:24:14Z</time></trkpt><trkpt lat="38.49478521938835" lon="16.29470878989569"><ele>967.0</ele><time>2026-03-22T10:24:15Z</time></trkpt><trkpt lat="38.49465486304366" lon="16.29471185675953"><ele>967.0</ele><time>2026-03-22T10:24:16Z</time></trkpt><trkpt lat="38.49452546131915" lon="16.294731238489653"><ele>967.0</ele><time>2026-03-22T10:24:17Z</time></trkpt><trkpt lat="38.494375016912365" lon="16.294761200339273"><ele>967.0</ele><time>2026-03-22T10:24:18Z</time></trkpt><trkpt lat="38.494240987187524" lon="16.294790840185502"><ele>967.0</ele><time>2026-03-22T10:24:19Z</time></trkpt><trkpt lat="38.49409611640466" lon="16.29480638563671"><ele>967.0</ele><time>2026-03-22T10:24:20Z</time></trkpt><trkpt lat="38.49392850033333" lon="16.29481842667721"><ele>967.0</ele><time>2026-03-22T10:24:21Z</time></trkpt><trkpt lat="38.49375986819275" lon="16.29483054070828"><ele>967.0</ele><time>2026-03-22T10:24:22Z</time></trkpt><trkpt lat="38.49359625059665" lon="16.294851336535686"><ele>967.0</ele><time>2026-03-22T10:24:23Z</time></trkpt><trkpt lat="38.493440865246505" lon="16.2948583109013"><ele>967.0</ele><time>2026-03-22T10:24:24Z</time></trkpt><trkpt lat="38.493298322209405" lon="16.294869464766567"><ele>967.0</ele><time>2026-03-22T10:24:25Z</time></trkpt><trkpt lat="38.49315952875146" lon="16.294877142444204"><ele>967.0</ele><time>2026-03-22T10:24:26Z</time></trkpt><trkpt lat="38.49303505911194" lon="16.294886178474243"><ele>967.0</ele><time>2026-03-22T10:24:27Z</time></trkpt><trkpt lat="38.49291379944464" lon="16.29488836461633"><ele>967.0</ele><time>2026-03-22T10:24:28Z</time></trkpt><trkpt lat="38.49280882454858" lon="16.294899159263657"><ele>966.8333333333333</ele><time>2026-03-22T10:24:29Z</time></trkpt><trkpt lat="38.49272405982045" lon="16.29491714164951"><ele>966.6666666666666</ele><time>2026-03-22T10:24:30Z</time></trkpt><trkpt lat="38.4926381440474" lon="16.29492488420263"><ele>966.5</ele><time>2026-03-22T10:24:31Z</time></trkpt><trkpt lat="38.492551345494554" lon="16.294932558165634"><ele>966.3333333333333</ele><time>2026-03-22T10:24:32Z</time></trkpt><trkpt lat="38.49247692225379" lon="16.294936151093193"><ele>966.1666666666666</ele><time>2026-03-22T10:24:34Z</time></trkpt><trkpt lat="38.49244600015563" lon="16.29504518797336"><ele>966.0</ele><time>2026-03-22T10:24:37Z</time></trkpt><trkpt lat="38.49244763152564" lon="16.294950275484748"><ele>966.0</ele><time>2026-03-22T10:24:41Z</time></trkpt><trkpt lat="38.49242058496327" lon="16.29510515378786"><ele>966.0</ele><time>2026-03-22T10:25:11Z</time></trkpt><trkpt lat="38.49239008561085" lon="16.295176603721714"><ele>966.0</ele><time>2026-03-22T10:27:31Z</time></trkpt><trkpt lat="38.4923512098706" lon="16.29526526582986"><ele>966.0</ele><time>2026-03-22T10:27:32Z</time></trkpt><trkpt lat="38.49230885686686" lon="16.295361159411648"><ele>966.0</ele><time>2026-03-22T10:27:33Z</time></trkpt><trkpt lat="38.49227435345731" lon="16.295456779133733"><ele>966.0</ele><time>2026-03-22T10:27:34Z</time></trkpt><trkpt lat="38.49222657245309" lon="16.295534980348116"><ele>965.5</ele><time>2026-03-22T10:27:35Z</time></trkpt><trkpt lat="38.492183105079135" lon="16.295600053760108"><ele>965.0</ele><time>2026-03-22T10:27:36Z</time></trkpt><trkpt lat="38.492079007450485" lon="16.29569355675556"><ele>964.5</ele><time>2026-03-22T10:27:38Z</time></trkpt><trkpt lat="38.49200702455232" lon="16.295713037926628"><ele>964.0</ele><time>2026-03-22T10:27:39Z</time></trkpt><trkpt lat="38.49193264918857" lon="16.29575676013676"><ele>963.5</ele><time>2026-03-22T10:27:40Z</time></trkpt><trkpt lat="38.491854929962976" lon="16.29578558772883"><ele>963.0</ele><time>2026-03-22T10:27:41Z</time></trkpt><trkpt lat="38.491779523313824" lon="16.295814283494916"><ele>963.0</ele><time>2026-03-22T10:27:42Z</time></trkpt><trkpt lat="38.49170106165117" lon="16.295846554243923"><ele>963.0</ele><time>2026-03-22T10:27:43Z</time></trkpt><trkpt lat="38.491631579726565" lon="16.295890205396443"><ele>963.0</ele><time>2026-03-22T10:27:44Z</time></trkpt><trkpt lat="38.4915526559113" lon="16.295937347408127"><ele>963.0</ele><time>2026-03-22T10:27:45Z</time></trkpt><trkpt lat="38.49145818707114" lon="16.295966636494104"><ele>963.0</ele><time>2026-03-22T10:27:46Z</time></trkpt><trkpt lat="38.49138017321545" lon="16.296006195921702"><ele>963.0</ele><time>2026-03-22T10:27:47Z</time></trkpt><trkpt lat="38.49127771358912" lon="16.29609141647484"><ele>962.6666666666666</ele><time>2026-03-22T10:27:49Z</time></trkpt><trkpt lat="38.49117775608245" lon="16.296141030888446"><ele>962.3333333333333</ele><time>2026-03-22T10:27:51Z</time></trkpt><trkpt lat="38.49109668294802" lon="16.29618479249778"><ele>962.0</ele><time>2026-03-22T10:27:53Z</time></trkpt><trkpt lat="38.491023997310045" lon="16.296223208206428"><ele>961.6666666666666</ele><time>2026-03-22T10:27:55Z</time></trkpt><trkpt lat="38.49095900243679" lon="16.296257835887243"><ele>961.3333333333333</ele><time>2026-03-22T10:27:57Z</time></trkpt><trkpt lat="38.49087983831017" lon="16.296299572320308"><ele>961.0</ele><time>2026-03-22T10:27:58Z</time></trkpt><trkpt lat="38.49079712465255" lon="16.296343181363028"><ele>961.0</ele><time>2026-03-22T10:28:00Z</time></trkpt><trkpt lat="38.49073087244278" lon="16.296373194272263"><ele>960.9999999999999</ele><time>2026-03-22T10:28:10Z</time></trkpt><trkpt lat="38.490659902773295" lon="16.29641552666913"><ele>960.9999999999999</ele><time>2026-03-22T10:28:23.999Z</time></trkpt><trkpt lat="38.49053767379278" lon="16.29647996747623"><ele>961.0</ele><time>2026-03-22T10:28:25.999Z</time></trkpt><trkpt lat="38.49045622312561" lon="16.296522243438915"><ele>961.0</ele><time>2026-03-22T10:28:27Z</time></trkpt><trkpt lat="38.490380793550564" lon="16.296560997535895"><ele>959.9999999999999</ele><time>2026-03-22T10:28:28Z</time></trkpt><trkpt lat="38.49032173829803" lon="16.29661177832529"><ele>959.0</ele><time>2026-03-22T10:28:29Z</time></trkpt><trkpt lat="38.49019958804761" lon="16.296641481649306"><ele>958.0</ele><time>2026-03-22T10:28:31Z</time></trkpt><trkpt lat="38.49009658499996" lon="16.29665611638096"><ele>957.0</ele><time>2026-03-22T10:28:33Z</time></trkpt><trkpt lat="38.49004120495625" lon="16.29660929347885"><ele>955.9999999999999</ele><time>2026-03-22T10:28:35Z</time></trkpt><trkpt lat="38.49004051901746" lon="16.29651074068986"><ele>955.0</ele><time>2026-03-22T10:28:36Z</time></trkpt><trkpt lat="38.49001375747918" lon="16.296423325486774"><ele>955.1666666666666</ele><time>2026-03-22T10:28:37Z</time></trkpt><trkpt lat="38.48998821216842" lon="16.29633046239673"><ele>955.3333333333333</ele><time>2026-03-22T10:28:38Z</time></trkpt><trkpt lat="38.489934367245645" lon="16.296207133521545"><ele>955.5</ele><time>2026-03-22T10:28:40Z</time></trkpt><trkpt lat="38.48990538270698" lon="16.29612566803328"><ele>955.6666666666667</ele><time>2026-03-22T10:28:44Z</time></trkpt><trkpt lat="38.48982357970883" lon="16.29613325661807"><ele>955.8333333333334</ele><time>2026-03-22T10:28:46Z</time></trkpt><trkpt lat="38.48975036871072" lon="16.29618729610845"><ele>956.0</ele><time>2026-03-22T10:28:47Z</time></trkpt><trkpt lat="38.4896635089529" lon="16.296234015347665"><ele>955.5000000000001</ele><time>2026-03-22T10:28:48Z</time></trkpt><trkpt lat="38.48959146120793" lon="16.296264225364897"><ele>955.0</ele><time>2026-03-22T10:28:49Z</time></trkpt><trkpt lat="38.489528498048855" lon="16.296298069920486"><ele>954.5</ele><time>2026-03-22T10:28:50Z</time></trkpt><trkpt lat="38.48945205017777" lon="16.296290958496197"><ele>954.0</ele><time>2026-03-22T10:28:51Z</time></trkpt><trkpt lat="38.4894267285084" lon="16.29643124908387"><ele>953.5000000000001</ele><time>2026-03-22T10:28:52Z</time></trkpt><trkpt lat="38.48937572763831" lon="16.296516475257132"><ele>953.0</ele><time>2026-03-22T10:28:53Z</time></trkpt><trkpt lat="38.48932764139154" lon="16.29661288221361"><ele>953.0</ele><time>2026-03-22T10:28:54Z</time></trkpt><trkpt lat="38.48927474652572" lon="16.296717430661204"><ele>953.0</ele><time>2026-03-22T10:28:55Z</time></trkpt><trkpt lat="38.489225718350205" lon="16.296842255412567"><ele>953.0</ele><time>2026-03-22T10:28:56Z</time></trkpt><trkpt lat="38.48917772056951" lon="16.29698157230408"><ele>953.0</ele><time>2026-03-22T10:28:57Z</time></trkpt><trkpt lat="38.48912078373808" lon="16.29715137415632"><ele>953.0</ele><time>2026-03-22T10:28:58Z</time></trkpt><trkpt lat="38.489069153863156" lon="16.297305349132067"><ele>953.0</ele><time>2026-03-22T10:28:59Z</time></trkpt><trkpt lat="38.48902441556972" lon="16.297434309006913"><ele>953.0</ele><time>2026-03-22T10:29:00Z</time></trkpt><trkpt lat="38.488979975377845" lon="16.29755291525056"><ele>953.0</ele><time>2026-03-22T10:29:01Z</time></trkpt><trkpt lat="38.48894117437809" lon="16.297645103681646"><ele>953.0</ele><time>2026-03-22T10:29:02Z</time></trkpt><trkpt lat="38.48889261323976" lon="16.29772716142797"><ele>953.0000000000001</ele><time>2026-03-22T10:29:03Z</time></trkpt><trkpt lat="38.48882811374313" lon="16.297810220691122"><ele>953.0</ele><time>2026-03-22T10:29:04Z</time></trkpt><trkpt lat="38.488764317261214" lon="16.297863631722272"><ele>953.0</ele><time>2026-03-22T10:29:05Z</time></trkpt><trkpt lat="38.48869656890822" lon="16.29793068598178"><ele>953.0</ele><time>2026-03-22T10:29:06Z</time></trkpt><trkpt lat="38.48862053405894" lon="16.297993376189847"><ele>953.0000000000001</ele><time>2026-03-22T10:29:07Z</time></trkpt><trkpt lat="38.488553923804034" lon="16.29804593168529"><ele>953.0</ele><time>2026-03-22T10:29:08Z</time></trkpt><trkpt lat="38.48848829586803" lon="16.298097859795277"><ele>955.0000000000001</ele><time>2026-03-22T10:29:09Z</time></trkpt><trkpt lat="38.488417787476436" lon="16.29815364956496"><ele>957.0</ele><time>2026-03-22T10:29:10Z</time></trkpt><trkpt lat="38.48833822311272" lon="16.298216604871197"><ele>959.0</ele><time>2026-03-22T10:29:11Z</time></trkpt><trkpt lat="38.48827415649172" lon="16.29826729758438"><ele>961.0</ele><time>2026-03-22T10:29:12Z</time></trkpt><trkpt lat="38.48822648146556" lon="16.298326898965247"><ele>963.0000000000001</ele><time>2026-03-22T10:29:13Z</time></trkpt><trkpt lat="38.488160721438945" lon="16.298360447118718"><ele>965.0</ele><time>2026-03-22T10:29:14Z</time></trkpt><trkpt lat="38.48809346976033" lon="16.298391025453657"><ele>965.0</ele><time>2026-03-22T10:29:15Z</time></trkpt><trkpt lat="38.488010608031566" lon="16.298481907373468"><ele>965.0</ele><time>2026-03-22T10:29:17Z</time></trkpt><trkpt lat="38.487982083276336" lon="16.298556547581796"><ele>965.0</ele><time>2026-03-22T10:29:18Z</time></trkpt><trkpt lat="38.487928868997926" lon="16.298605185265"><ele>965.0</ele><time>2026-03-22T10:29:19Z</time></trkpt><trkpt lat="38.48787480410405" lon="16.298657369607284"><ele>965.0</ele><time>2026-03-22T10:29:20Z</time></trkpt><trkpt lat="38.48783928073493" lon="16.298729395903212"><ele>965.0</ele><time>2026-03-22T10:29:21Z</time></trkpt><trkpt lat="38.487782224954934" lon="16.29878712885554"><ele>965.0</ele><time>2026-03-22T10:29:22Z</time></trkpt><trkpt lat="38.487715598657005" lon="16.298932689065094"><ele>965.6666666666667</ele><time>2026-03-22T10:29:24Z</time></trkpt><trkpt lat="38.48766904440686" lon="16.298988455855383"><ele>966.3333333333334</ele><time>2026-03-22T10:29:25Z</time></trkpt><trkpt lat="38.487612153793215" lon="16.299027852476637"><ele>967.0</ele><time>2026-03-22T10:29:26Z</time></trkpt><trkpt lat="38.48750923000979" lon="16.299104567606193"><ele>967.6666666666667</ele><time>2026-03-22T10:29:28Z</time></trkpt><trkpt lat="38.48743369564501" lon="16.29916069055136"><ele>968.3333333333334</ele><time>2026-03-22T10:29:29Z</time></trkpt><trkpt lat="38.487368436123774" lon="16.299205332185174"><ele>969.0</ele><time>2026-03-22T10:29:30Z</time></trkpt><trkpt lat="38.48729955316449" lon="16.299251599953422"><ele>969.0</ele><time>2026-03-22T10:29:31Z</time></trkpt><trkpt lat="38.4872283917061" lon="16.299299398163694"><ele>969.0000000000001</ele><time>2026-03-22T10:29:32Z</time></trkpt><trkpt lat="38.48716264414769" lon="16.299419468650868"><ele>969.0000000000001</ele><time>2026-03-22T10:29:33Z</time></trkpt><trkpt lat="38.48708075161726" lon="16.299468260873507"><ele>969.0</ele><time>2026-03-22T10:29:34Z</time></trkpt><trkpt lat="38.48699382250997" lon="16.299496208632963"><ele>969.0</ele><time>2026-03-22T10:29:35Z</time></trkpt><trkpt lat="38.48691226477052" lon="16.29953742796683"><ele>971.0</ele><time>2026-03-22T10:29:36Z</time></trkpt><trkpt lat="38.486768715450005" lon="16.29935473229403"><ele>973.0</ele><time>2026-03-22T10:29:37Z</time></trkpt><trkpt lat="38.486698528565505" lon="16.299385648005345"><ele>975.0</ele><time>2026-03-22T10:29:38Z</time></trkpt><trkpt lat="38.4866303324694" lon="16.299416365532252"><ele>977.0</ele><time>2026-03-22T10:29:39Z</time></trkpt><trkpt lat="38.486534554559036" lon="16.2994701941304"><ele>977.0</ele><time>2026-03-22T10:29:41Z</time></trkpt><trkpt lat="38.48643916591335" lon="16.299488383371582"><ele>977.0</ele><time>2026-03-22T10:29:43Z</time></trkpt><trkpt lat="38.48636144960065" lon="16.299501536733178"><ele>977.0</ele><time>2026-03-22T10:29:47Z</time></trkpt><trkpt lat="38.48629257328794" lon="16.299513193967087"><ele>977.0</ele><time>2026-03-22T10:29:49Z</time></trkpt><trkpt lat="38.48613413283142" lon="16.29957571334439"><ele>977.0</ele><time>2026-03-22T10:29:51Z</time></trkpt><trkpt lat="38.486073206777334" lon="16.299607603833994"><ele>976.3333333333334</ele><time>2026-03-22T10:29:52Z</time></trkpt><trkpt lat="38.485980550239255" lon="16.299658967320198"><ele>975.6666666666667</ele><time>2026-03-22T10:29:54Z</time></trkpt><trkpt lat="38.485862935481535" lon="16.299722557657066"><ele>975.0</ele><time>2026-03-22T10:29:56Z</time></trkpt><trkpt lat="38.48579906322834" lon="16.299755914237625"><ele>974.3333333333333</ele><time>2026-03-22T10:29:57Z</time></trkpt><trkpt lat="38.485727774101775" lon="16.299793192509934"><ele>973.6666666666666</ele><time>2026-03-22T10:29:58Z</time></trkpt><trkpt lat="38.48566478910692" lon="16.299826128412132"><ele>973.0</ele><time>2026-03-22T10:29:59Z</time></trkpt><trkpt lat="38.485550582758385" lon="16.299885848808476"><ele>972.8</ele><time>2026-03-22T10:30:01Z</time></trkpt><trkpt lat="38.485436069563285" lon="16.29994689208045"><ele>972.5999999999999</ele><time>2026-03-22T10:30:03Z</time></trkpt><trkpt lat="38.48532270279847" lon="16.300007585400255"><ele>972.4000000000001</ele><time>2026-03-22T10:30:05Z</time></trkpt><trkpt lat="38.4852561317123" lon="16.300043225654875"><ele>972.2</ele><time>2026-03-22T10:30:06Z</time></trkpt><trkpt lat="38.485187805194485" lon="16.30007980571989"><ele>972.0</ele><time>2026-03-22T10:30:07Z</time></trkpt><trkpt lat="38.48507624863968" lon="16.300136852027844"><ele>970.3333333333333</ele><time>2026-03-22T10:30:09Z</time></trkpt><trkpt lat="38.4849721161905" lon="16.300187754469654"><ele>968.6666666666666</ele><time>2026-03-22T10:30:11Z</time></trkpt><trkpt lat="38.48501755239562" lon="16.300528711987617"><ele>967.0</ele><time>2026-03-22T10:30:12Z</time></trkpt><trkpt lat="38.484853469140184" lon="16.30024866884697"><ele>966.9999999999999</ele><time>2026-03-22T10:30:16Z</time></trkpt><trkpt lat="38.484867575400045" lon="16.30042679348701"><ele>967.0</ele><time>2026-03-22T10:30:20Z</time></trkpt><trkpt lat="38.484823174906474" lon="16.300365347843847"><ele>967.0</ele><time>2026-03-22T10:30:21Z</time></trkpt><trkpt lat="38.48478394739362" lon="16.30029920119189"><ele>967.0</ele><time>2026-03-22T10:30:22Z</time></trkpt><trkpt lat="38.48476539990283" lon="16.30022065987533"><ele>966.9999999999999</ele><time>2026-03-22T10:30:23Z</time></trkpt><trkpt lat="38.48473697994445" lon="16.300148197548143"><ele>967.0</ele><time>2026-03-22T10:30:24Z</time></trkpt><trkpt lat="38.48471955038675" lon="16.300064264990226"><ele>967.0</ele><time>2026-03-22T10:30:25Z</time></trkpt><trkpt lat="38.48469722593195" lon="16.299931579804998"><ele>967.0</ele><time>2026-03-22T10:30:27Z</time></trkpt><trkpt lat="38.484688108569465" lon="16.299796276747383"><ele>967.0</ele><time>2026-03-22T10:30:29Z</time></trkpt><trkpt lat="38.484731820568314" lon="16.299652096472848"><ele>967.0</ele><time>2026-03-22T10:30:31Z</time></trkpt><trkpt lat="38.48476132561243" lon="16.299577898619027"><ele>967.0</ele><time>2026-03-22T10:30:32Z</time></trkpt><trkpt lat="38.48479399874898" lon="16.299503837889198"><ele>966.2857142857143</ele><time>2026-03-22T10:30:33Z</time></trkpt><trkpt lat="38.48483720398684" lon="16.299438959367027"><ele>965.5714285714284</ele><time>2026-03-22T10:30:34Z</time></trkpt><trkpt lat="38.48489337483536" lon="16.29938059724286"><ele>964.8571428571428</ele><time>2026-03-22T10:30:35Z</time></trkpt><trkpt lat="38.484946238608195" lon="16.29932962973728"><ele>964.1428571428571</ele><time>2026-03-22T10:30:36Z</time></trkpt><trkpt lat="38.4850042338349" lon="16.299269688998546"><ele>963.4285714285713</ele><time>2026-03-22T10:30:37Z</time></trkpt><trkpt lat="38.48506481526988" lon="16.299204999895313"><ele>962.7142857142856</ele><time>2026-03-22T10:30:38Z</time></trkpt><trkpt lat="38.485120948967634" lon="16.299140197155964"><ele>961.9999999999999</ele><time>2026-03-22T10:30:39Z</time></trkpt><trkpt lat="38.485176873025104" lon="16.29907603559183"><ele>962.0</ele><time>2026-03-22T10:30:40Z</time></trkpt><trkpt lat="38.485234157840445" lon="16.299008350789972"><ele>962.0</ele><time>2026-03-22T10:30:41Z</time></trkpt><trkpt lat="38.48528030279289" lon="16.298945680579646"><ele>962.0</ele><time>2026-03-22T10:30:42Z</time></trkpt><trkpt lat="38.48534814243342" lon="16.29886721738011"><ele>962.0</ele><time>2026-03-22T10:30:44Z</time></trkpt><trkpt lat="38.485330237833814" lon="16.298953286315967"><ele>962.0</ele><time>2026-03-22T10:30:51Z</time></trkpt><trkpt lat="38.48522304941807" lon="16.299074652630907"><ele>962.0000000000001</ele><time>2026-03-22T10:30:53Z</time></trkpt><trkpt lat="38.485152715736" lon="16.299154289415256"><ele>962.0</ele><time>2026-03-22T10:30:54Z</time></trkpt><trkpt lat="38.485083241381666" lon="16.299234517924603"><ele>962.0</ele><time>2026-03-22T10:30:55Z</time></trkpt><trkpt lat="38.485020651048494" lon="16.299306186723253"><ele>962.0</ele><time>2026-03-22T10:30:56Z</time></trkpt><trkpt lat="38.484963079474824" lon="16.299372108992646"><ele>962.0000000000001</ele><time>2026-03-22T10:30:57Z</time></trkpt><trkpt lat="38.48490214966163" lon="16.299441876594457"><ele>962.0</ele><time>2026-03-22T10:30:58Z</time></trkpt><trkpt lat="38.48484618520942" lon="16.299509735176958"><ele>962.0</ele><time>2026-03-22T10:30:59Z</time></trkpt><trkpt lat="38.48478579671971" lon="16.29958016963018"><ele>962.0</ele><time>2026-03-22T10:31:00Z</time></trkpt><trkpt lat="38.48509837342653" lon="16.29943786918028"><ele>962.0</ele><time>2026-03-22T10:31:01Z</time></trkpt><trkpt lat="38.484487563305734" lon="16.299576235342567"><ele>963.25</ele><time>2026-03-22T10:31:02Z</time></trkpt><trkpt lat="38.48471708615481" lon="16.299799285513615"><ele>964.5</ele><time>2026-03-22T10:31:03Z</time></trkpt><trkpt lat="38.4847028851598" lon="16.299889856587225"><ele>965.75</ele><time>2026-03-22T10:31:05Z</time></trkpt><trkpt lat="38.484638236712385" lon="16.2999361376512"><ele>967.0</ele><time>2026-03-22T10:31:07Z</time></trkpt><trkpt lat="38.48464526483555" lon="16.300020119451517"><ele>967.0</ele><time>2026-03-22T10:31:09Z</time></trkpt><trkpt lat="38.484670500900265" lon="16.300170088297772"><ele>967.0</ele><time>2026-03-22T10:31:14Z</time></trkpt><trkpt lat="38.48462744237603" lon="16.300110913936557"><ele>967.0</ele><time>2026-03-22T10:31:15Z</time></trkpt><trkpt lat="38.48458482577873" lon="16.30025154833628"><ele>967.0</ele><time>2026-03-22T10:31:17Z</time></trkpt><trkpt lat="38.48451524220083" lon="16.300352221607874"><ele>967.0</ele><time>2026-03-22T10:31:19Z</time></trkpt><trkpt lat="38.48444840254795" lon="16.300440200393957"><ele>965.3333333333333</ele><time>2026-03-22T10:31:21Z</time></trkpt><trkpt lat="38.484405312339526" lon="16.30054827429255"><ele>963.6666666666666</ele><time>2026-03-22T10:31:23Z</time></trkpt><trkpt lat="38.48434156689865" lon="16.300631884114893"><ele>962.0</ele><time>2026-03-22T10:31:25Z</time></trkpt><trkpt lat="38.484285579224135" lon="16.30073038065314"><ele>960.3333333333333</ele><time>2026-03-22T10:31:27Z</time></trkpt><trkpt lat="38.484222599764" lon="16.30080510090101"><ele>958.6666666666666</ele><time>2026-03-22T10:31:29Z</time></trkpt><trkpt lat="38.484176168968055" lon="16.300874748686304"><ele>957.0</ele><time>2026-03-22T10:31:31Z</time></trkpt><trkpt lat="38.484108482332466" lon="16.30093042712679"><ele>956.8</ele><time>2026-03-22T10:31:33Z</time></trkpt><trkpt lat="38.48408011302818" lon="16.301009625638716"><ele>956.6</ele><time>2026-03-22T10:31:37Z</time></trkpt><trkpt lat="38.48399525882116" lon="16.30106506607407"><ele>956.3999999999999</ele><time>2026-03-22T10:31:40Z</time></trkpt><trkpt lat="38.483893366579" lon="16.301114744788116"><ele>956.1999999999999</ele><time>2026-03-22T10:31:42Z</time></trkpt><trkpt lat="38.483797074517966" lon="16.30114692168241"><ele>956.0</ele><time>2026-03-22T10:31:44Z</time></trkpt><trkpt lat="38.48370190551091" lon="16.30118837531377"><ele>953.5999999999999</ele><time>2026-03-22T10:31:46Z</time></trkpt><trkpt lat="38.48360416501849" lon="16.30120694531588"><ele>951.1999999999999</ele><time>2026-03-22T10:31:48Z</time></trkpt><trkpt lat="38.48349373510361" lon="16.301205368999277"><ele>948.8000000000001</ele><time>2026-03-22T10:31:50Z</time></trkpt><trkpt lat="38.48342571679455" lon="16.301218276418126"><ele>946.4000000000001</ele><time>2026-03-22T10:31:52Z</time></trkpt><trkpt lat="38.483340738763246" lon="16.30123466458499"><ele>944.0</ele><time>2026-03-22T10:32:00Z</time></trkpt><trkpt lat="38.48321607685891" lon="16.301273511169867"><ele>944.0</ele><time>2026-03-22T10:32:03Z</time></trkpt><trkpt lat="38.483117713141496" lon="16.301327150183944"><ele>944.0000000000001</ele><time>2026-03-22T10:32:05Z</time></trkpt><trkpt lat="38.48301655491763" lon="16.301392581379485"><ele>944.0000000000001</ele><time>2026-03-22T10:32:07Z</time></trkpt><trkpt lat="38.48293380966439" lon="16.301454433825242"><ele>944.0</ele><time>2026-03-22T10:32:08Z</time></trkpt><trkpt lat="38.482874489104496" lon="16.301501899462487"><ele>944.0</ele><time>2026-03-22T10:32:09Z</time></trkpt><trkpt lat="38.48275394957613" lon="16.301583727225673"><ele>945.3333333333334</ele><time>2026-03-22T10:32:11Z</time></trkpt><trkpt lat="38.48270046693895" lon="16.301636822654807"><ele>946.6666666666667</ele><time>2026-03-22T10:32:12Z</time></trkpt><trkpt lat="38.48265674277225" lon="16.301712953242102"><ele>948.0</ele><time>2026-03-22T10:32:13Z</time></trkpt><trkpt lat="38.48257845603031" lon="16.30180092235308"><ele>949.3333333333333</ele><time>2026-03-22T10:32:15Z</time></trkpt><trkpt lat="38.482521596746345" lon="16.30184902607697"><ele>950.6666666666666</ele><time>2026-03-22T10:32:17Z</time></trkpt><trkpt lat="38.48243201553065" lon="16.30187037038555"><ele>952.0</ele><time>2026-03-22T10:32:19Z</time></trkpt><trkpt lat="38.48234334814271" lon="16.301838070701358"><ele>952.0</ele><time>2026-03-22T10:32:51Z</time></trkpt><trkpt lat="38.48220842757149" lon="16.30175429972991"><ele>952.0</ele><time>2026-03-22T10:32:53Z</time></trkpt><trkpt lat="38.48207821311456" lon="16.30179386474638"><ele>952.0</ele><time>2026-03-22T10:32:55Z</time></trkpt><trkpt lat="38.481977799012995" lon="16.301882027970837"><ele>952.0</ele><time>2026-03-22T10:32:58Z</time></trkpt><trkpt lat="38.48192837068891" lon="16.30195601949914"><ele>951.2857142857142</ele><time>2026-03-22T10:33:03Z</time></trkpt><trkpt lat="38.481883150506484" lon="16.302021654623513"><ele>950.5714285714286</ele><time>2026-03-22T10:33:06Z</time></trkpt><trkpt lat="38.481832361301144" lon="16.302081870005804"><ele>949.8571428571429</ele><time>2026-03-22T10:33:11Z</time></trkpt><trkpt lat="38.4817781159211" lon="16.30213003397974"><ele>949.1428571428571</ele><time>2026-03-22T10:33:21Z</time></trkpt><trkpt lat="38.481867445855045" lon="16.302106724263858"><ele>948.4285714285713</ele><time>2026-03-22T10:34:15Z</time></trkpt><trkpt lat="38.48193714022911" lon="16.30207812393933"><ele>947.7142857142857</ele><time>2026-03-22T10:34:33Z</time></trkpt><trkpt lat="38.481867378600256" lon="16.302073160673725"><ele>947.0</ele><time>2026-03-22T10:34:48Z</time></trkpt><trkpt lat="38.48186815161134" lon="16.301906146124285"><ele>947.0</ele><time>2026-03-22T10:36:01Z</time></trkpt><trkpt lat="38.481888742802106" lon="16.302221419232882"><ele>947.0</ele><time>2026-03-22T10:36:24Z</time></trkpt><trkpt lat="38.48181014428115" lon="16.302063793917164"><ele>947.0</ele><time>2026-03-22T10:36:50Z</time></trkpt><trkpt lat="38.483366521238636" lon="16.301669950795763"><ele>947.0</ele><time>2026-03-22T10:40:45.228Z</time></trkpt><trkpt lat="38.48194132022149" lon="16.301990231456973"><ele>947.0</ele><time>2026-03-22T10:40:49.001Z</time></trkpt><trkpt lat="38.481903703279855" lon="16.30206307862568"><ele>946.9999999999999</ele><time>2026-03-22T10:40:58.001Z</time></trkpt><trkpt lat="38.48186689365117" lon="16.302133393295005"><ele>947.0</ele><time>2026-03-22T10:41:12.001Z</time></trkpt><trkpt lat="38.48180377554355" lon="16.30217098515966"><ele>947.0</ele><time>2026-03-22T10:41:21Z</time></trkpt><trkpt lat="38.48172463828623" lon="16.302124194960484"><ele>946.9999999999999</ele><time>2026-03-22T10:41:32Z</time></trkpt><trkpt lat="38.48168110615481" lon="16.302053696166194"><ele>947.0</ele><time>2026-03-22T10:41:43Z</time></trkpt><trkpt lat="38.48161767777191" lon="16.302008490311604"><ele>947.0</ele><time>2026-03-22T10:41:51Z</time></trkpt><trkpt lat="38.48155678029169" lon="16.301972118824068"><ele>947.0</ele><time>2026-03-22T10:41:58Z</time></trkpt><trkpt lat="38.481493424985935" lon="16.301952774576197"><ele>946.9999999999999</ele><time>2026-03-22T10:42:04Z</time></trkpt><trkpt lat="38.481420621672505" lon="16.301935974245257"><ele>947.0</ele><time>2026-03-22T10:42:11Z</time></trkpt><trkpt lat="38.48143627814657" lon="16.30182606255434"><ele>947.0</ele><time>2026-03-22T10:42:31Z</time></trkpt><trkpt lat="38.481472387623576" lon="16.301897301238725"><ele>946.9999999999999</ele><time>2026-03-22T10:43:20Z</time></trkpt><trkpt lat="38.48152036023489" lon="16.301953962558002"><ele>947.0</ele><time>2026-03-22T10:43:28Z</time></trkpt><trkpt lat="38.4815801221463" lon="16.30199136226095"><ele>947.0</ele><time>2026-03-22T10:43:38Z</time></trkpt><trkpt lat="38.48164626731103" lon="16.302024401760036"><ele>947.0000000000001</ele><time>2026-03-22T10:43:47Z</time></trkpt><trkpt lat="38.48171401845214" lon="16.30204621621976"><ele>947.0</ele><time>2026-03-22T10:43:54Z</time></trkpt><trkpt lat="38.48177400616919" lon="16.302081931923503"><ele>947.0</ele><time>2026-03-22T10:44:00Z</time></trkpt><trkpt lat="38.48181111663791" lon="16.302158430345614"><ele>947.0</ele><time>2026-03-22T10:44:05Z</time></trkpt><trkpt lat="38.4817716525838" lon="16.302054798622596"><ele>947.0000000000001</ele><time>2026-03-22T10:51:10.001Z</time></trkpt><trkpt lat="38.48171200787884" lon="16.302023578439112"><ele>947.0</ele><time>2026-03-22T10:51:11.001Z</time></trkpt><trkpt lat="38.48162385523752" lon="16.301946487802752"><ele>947.0000000000001</ele><time>2026-03-22T10:51:13.001Z</time></trkpt><trkpt lat="38.48156281313564" lon="16.301891354792097"><ele>947.0</ele><time>2026-03-22T10:51:15.001Z</time></trkpt><trkpt lat="38.48153986654776" lon="16.30180425879713"><ele>947.0</ele><time>2026-03-22T10:51:17.001Z</time></trkpt><trkpt lat="38.48153963968013" lon="16.30169019614122"><ele>947.0</ele><time>2026-03-22T10:51:19.001Z</time></trkpt><trkpt lat="38.481568523355406" lon="16.301555859888136"><ele>947.0000000000001</ele><time>2026-03-22T10:51:21.001Z</time></trkpt><trkpt lat="38.481595287882925" lon="16.301478541671294"><ele>947.0</ele><time>2026-03-22T10:51:22.001Z</time></trkpt><trkpt lat="38.481629115601336" lon="16.301403072980793"><ele>945.6666666666667</ele><time>2026-03-22T10:51:23.001Z</time></trkpt><trkpt lat="38.481664212928315" lon="16.301334877297382"><ele>944.3333333333334</ele><time>2026-03-22T10:51:24.001Z</time></trkpt><trkpt lat="38.48172873610465" lon="16.30129400578063"><ele>943.0</ele><time>2026-03-22T10:51:25.001Z</time></trkpt><trkpt lat="38.48180661496982" lon="16.301185443643934"><ele>941.6666666666667</ele><time>2026-03-22T10:51:27.001Z</time></trkpt><trkpt lat="38.481902639974976" lon="16.301124242226884"><ele>940.3333333333334</ele><time>2026-03-22T10:51:29.001Z</time></trkpt><trkpt lat="38.481981883766274" lon="16.30109613740548"><ele>939.0</ele><time>2026-03-22T10:51:31.001Z</time></trkpt><trkpt lat="38.48206528828245" lon="16.301036196547273"><ele>940.8333333333334</ele><time>2026-03-22T10:51:35.001Z</time></trkpt><trkpt lat="38.48211506716516" lon="16.300984620888357"><ele>942.6666666666667</ele><time>2026-03-22T10:51:36.001Z</time></trkpt><trkpt lat="38.482177080461554" lon="16.30093256978736"><ele>944.5</ele><time>2026-03-22T10:51:37.001Z</time></trkpt><trkpt lat="38.48224915853603" lon="16.30087387031102"><ele>946.3333333333334</ele><time>2026-03-22T10:51:38.001Z</time></trkpt><trkpt lat="38.482338850384075" lon="16.300787391903356"><ele>948.1666666666667</ele><time>2026-03-22T10:51:40.001Z</time></trkpt><trkpt lat="38.48242230238567" lon="16.300711679992666"><ele>950.0</ele><time>2026-03-22T10:51:42.001Z</time></trkpt><trkpt lat="38.48251531784338" lon="16.300656468149427"><ele>950.0</ele><time>2026-03-22T10:51:44.001Z</time></trkpt><trkpt lat="38.48262364476028" lon="16.300622627903316"><ele>950.0</ele><time>2026-03-22T10:51:46.001Z</time></trkpt><trkpt lat="38.48274245428016" lon="16.30062140736564"><ele>950.0</ele><time>2026-03-22T10:51:48.001Z</time></trkpt><trkpt lat="38.482857141604136" lon="16.30068822228778"><ele>950.0</ele><time>2026-03-22T10:51:50.001Z</time></trkpt><trkpt lat="38.482912912743956" lon="16.300752857814874"><ele>950.0</ele><time>2026-03-22T10:51:51.001Z</time></trkpt><trkpt lat="38.482960969697004" lon="16.30081323607108"><ele>949.0000000000001</ele><time>2026-03-22T10:51:52.001Z</time></trkpt><trkpt lat="38.483025692272456" lon="16.300871553631044"><ele>948.0</ele><time>2026-03-22T10:51:53.001Z</time></trkpt><trkpt lat="38.48310219085546" lon="16.300923384467808"><ele>947.0</ele><time>2026-03-22T10:51:54.001Z</time></trkpt><trkpt lat="38.48318688131639" lon="16.300951951931054"><ele>946.0</ele><time>2026-03-22T10:51:55.001Z</time></trkpt><trkpt lat="38.48326755299306" lon="16.300955661830027"><ele>945.0000000000001</ele><time>2026-03-22T10:51:56.001Z</time></trkpt><trkpt lat="38.48336005612433" lon="16.300930669896125"><ele>944.0</ele><time>2026-03-22T10:51:57.001Z</time></trkpt><trkpt lat="38.483450622529" lon="16.30087664980512"><ele>944.0</ele><time>2026-03-22T10:51:58.001Z</time></trkpt><trkpt lat="38.48353323346343" lon="16.300816559259207"><ele>944.0000000000001</ele><time>2026-03-22T10:51:59.001Z</time></trkpt><trkpt lat="38.48357629999692" lon="16.300705616660515"><ele>944.0000000000001</ele><time>2026-03-22T10:52:00.001Z</time></trkpt><trkpt lat="38.483621718041015" lon="16.300598815662227"><ele>944.0</ele><time>2026-03-22T10:52:01.001Z</time></trkpt><trkpt lat="38.48368045597919" lon="16.300489373428324"><ele>944.0</ele><time>2026-03-22T10:52:02.001Z</time></trkpt><trkpt lat="38.483747641738894" lon="16.30036872238657"><ele>947.25</ele><time>2026-03-22T10:52:03.001Z</time></trkpt><trkpt lat="38.48381550101007" lon="16.3002631571004"><ele>950.5</ele><time>2026-03-22T10:52:04.001Z</time></trkpt><trkpt lat="38.483889366902346" lon="16.300138929642355"><ele>953.75</ele><time>2026-03-22T10:52:05.001Z</time></trkpt><trkpt lat="38.48398866963298" lon="16.30002326523668"><ele>957.0</ele><time>2026-03-22T10:52:06.001Z</time></trkpt><trkpt lat="38.48404359492344" lon="16.299936110339686"><ele>957.0</ele><time>2026-03-22T10:52:07.001Z</time></trkpt><trkpt lat="38.48408979100544" lon="16.29987470874562"><ele>957.0</ele><time>2026-03-22T10:52:08.001Z</time></trkpt><trkpt lat="38.484165510613366" lon="16.299799384812342"><ele>957.0</ele><time>2026-03-22T10:52:10.001Z</time></trkpt><trkpt lat="38.48423220496716" lon="16.299782665909145"><ele>957.0</ele><time>2026-03-22T10:52:12.001Z</time></trkpt><trkpt lat="38.48434172278282" lon="16.299713448030815"><ele>957.0</ele><time>2026-03-22T10:52:14.001Z</time></trkpt><trkpt lat="38.48440427379912" lon="16.29968806550685"><ele>957.0</ele><time>2026-03-22T10:52:15.001Z</time></trkpt><trkpt lat="38.48453599815324" lon="16.299684966273897"><ele>958.0</ele><time>2026-03-22T10:52:17.001Z</time></trkpt><trkpt lat="38.48461023832844" lon="16.299685300469378"><ele>959.0</ele><time>2026-03-22T10:52:19.001Z</time></trkpt><trkpt lat="38.48466707679834" lon="16.299742287315755"><ele>960.0</ele><time>2026-03-22T10:52:23.001Z</time></trkpt><trkpt lat="38.48471862749823" lon="16.29961690887309"><ele>961.0</ele><time>2026-03-22T10:52:24.001Z</time></trkpt><trkpt lat="38.48478489309886" lon="16.299486551378923"><ele>962.0</ele><time>2026-03-22T10:52:26.001Z</time></trkpt><trkpt lat="38.48483135103525" lon="16.29940880934224"><ele>962.0000000000001</ele><time>2026-03-22T10:52:27.001Z</time></trkpt><trkpt lat="38.48489137773484" lon="16.29935636129819"><ele>962.0</ele><time>2026-03-22T10:52:28.001Z</time></trkpt><trkpt lat="38.484947096010536" lon="16.299291374000262"><ele>962.0</ele><time>2026-03-22T10:52:29.001Z</time></trkpt><trkpt lat="38.48500999217021" lon="16.299218014631922"><ele>962.0</ele><time>2026-03-22T10:52:30.001Z</time></trkpt><trkpt lat="38.48507893813406" lon="16.299134931799486"><ele>962.0000000000001</ele><time>2026-03-22T10:52:31.001Z</time></trkpt><trkpt lat="38.48516375614813" lon="16.299068879005578"><ele>962.0</ele><time>2026-03-22T10:52:32.001Z</time></trkpt><trkpt lat="38.48523226734602" lon="16.298995434412298"><ele>962.5</ele><time>2026-03-22T10:52:33.001Z</time></trkpt><trkpt lat="38.48530010112742" lon="16.29890151539723"><ele>963.0</ele><time>2026-03-22T10:52:34.001Z</time></trkpt><trkpt lat="38.48538300663017" lon="16.298818673951757"><ele>963.5</ele><time>2026-03-22T10:52:35.001Z</time></trkpt><trkpt lat="38.485471205872244" lon="16.298726164771196"><ele>964.0</ele><time>2026-03-22T10:52:36.001Z</time></trkpt><trkpt lat="38.485586510694574" lon="16.29863024264957"><ele>964.0</ele><time>2026-03-22T10:52:37.001Z</time></trkpt><trkpt lat="38.4857214386461" lon="16.298519203385087"><ele>964.0</ele><time>2026-03-22T10:52:38.001Z</time></trkpt><trkpt lat="38.48583683760145" lon="16.29836873761337"><ele>964.0</ele><time>2026-03-22T10:52:39.001Z</time></trkpt><trkpt lat="38.48592239562105" lon="16.298236525336367"><ele>964.0</ele><time>2026-03-22T10:52:40.001Z</time></trkpt><trkpt lat="38.485994484776306" lon="16.298113182014344"><ele>964.0</ele><time>2026-03-22T10:52:41.001Z</time></trkpt><trkpt lat="38.486058170642956" lon="16.297998657802797"><ele>964.0</ele><time>2026-03-22T10:52:42.001Z</time></trkpt><trkpt lat="38.48613587100428" lon="16.297860441110686"><ele>964.0</ele><time>2026-03-22T10:52:43.001Z</time></trkpt><trkpt lat="38.486215785453076" lon="16.297718285879064"><ele>963.75</ele><time>2026-03-22T10:52:44.001Z</time></trkpt><trkpt lat="38.486296470764245" lon="16.297574759457525"><ele>963.5</ele><time>2026-03-22T10:52:45.001Z</time></trkpt><trkpt lat="38.48637539416125" lon="16.297434367207398"><ele>963.25</ele><time>2026-03-22T10:52:46.001Z</time></trkpt><trkpt lat="38.486450932295234" lon="16.29729999679096"><ele>963.0</ele><time>2026-03-22T10:52:47.001Z</time></trkpt><trkpt lat="38.48652776918645" lon="16.297183546120444"><ele>960.5</ele><time>2026-03-22T10:52:48.001Z</time></trkpt><trkpt lat="38.486573821475226" lon="16.297050007917132"><ele>958.0</ele><time>2026-03-22T10:52:49.001Z</time></trkpt><trkpt lat="38.486615079664276" lon="16.296911449781973"><ele>955.5</ele><time>2026-03-22T10:52:50.001Z</time></trkpt><trkpt lat="38.486675842205244" lon="16.296770177871192"><ele>953.0</ele><time>2026-03-22T10:52:51.001Z</time></trkpt><trkpt lat="38.4867462378925" lon="16.29665021045428"><ele>953.0</ele><time>2026-03-22T10:52:52.001Z</time></trkpt><trkpt lat="38.486825623587805" lon="16.296548384312455"><ele>953.0</ele><time>2026-03-22T10:52:53.001Z</time></trkpt><trkpt lat="38.48691562114682" lon="16.296500651018384"><ele>953.0</ele><time>2026-03-22T10:52:54.001Z</time></trkpt><trkpt lat="38.486991659656624" lon="16.296486795778925"><ele>953.0</ele><time>2026-03-22T10:52:55.001Z</time></trkpt><trkpt lat="38.48708399158239" lon="16.296475530908136"><ele>953.0</ele><time>2026-03-22T10:52:56.001Z</time></trkpt><trkpt lat="38.487193098842866" lon="16.296465064036756"><ele>953.0</ele><time>2026-03-22T10:52:57.001Z</time></trkpt><trkpt lat="38.48731755548167" lon="16.296463800269898"><ele>953.0</ele><time>2026-03-22T10:52:58.001Z</time></trkpt><trkpt lat="38.48743550547106" lon="16.296477374309163"><ele>953.0</ele><time>2026-03-22T10:52:59.001Z</time></trkpt><trkpt lat="38.48754772014336" lon="16.29648668244089"><ele>953.0</ele><time>2026-03-22T10:53:00.001Z</time></trkpt><trkpt lat="38.487633755187055" lon="16.29650090057772"><ele>953.0</ele><time>2026-03-22T10:53:01.001Z</time></trkpt><trkpt lat="38.487754456020944" lon="16.296629313873353"><ele>953.0000000000001</ele><time>2026-03-22T10:53:03.001Z</time></trkpt><trkpt lat="38.48780898648404" lon="16.296729288030775"><ele>953.0</ele><time>2026-03-22T10:53:04.001Z</time></trkpt><trkpt lat="38.48787022585876" lon="16.296757523962775"><ele>953.0</ele><time>2026-03-22T10:53:05.001Z</time></trkpt><trkpt lat="38.48795229659017" lon="16.29668908998082"><ele>953.0</ele><time>2026-03-22T10:53:07.001Z</time></trkpt><trkpt lat="38.48797169460351" lon="16.296601102095767"><ele>953.0000000000001</ele><time>2026-03-22T10:53:08.001Z</time></trkpt><trkpt lat="38.488004511807276" lon="16.296519786306085"><ele>953.0</ele><time>2026-03-22T10:53:09.001Z</time></trkpt><trkpt lat="38.48807606390505" lon="16.29645825576663"><ele>952.5999999999999</ele><time>2026-03-22T10:53:10.001Z</time></trkpt><trkpt lat="38.48816606750835" lon="16.29642219746621"><ele>952.1999999999999</ele><time>2026-03-22T10:53:11.001Z</time></trkpt><trkpt lat="38.48826870980824" lon="16.29637876251886"><ele>951.8</ele><time>2026-03-22T10:53:12.001Z</time></trkpt><trkpt lat="38.48837355301919" lon="16.29635386492521"><ele>951.4</ele><time>2026-03-22T10:53:13.001Z</time></trkpt><trkpt lat="38.48845965808179" lon="16.296314424192648"><ele>951.0</ele><time>2026-03-22T10:53:14.001Z</time></trkpt><trkpt lat="38.488545614076884" lon="16.29626254865906"><ele>948.8</ele><time>2026-03-22T10:53:15.001Z</time></trkpt><trkpt lat="38.48861720998472" lon="16.296189925006068"><ele>946.5999999999999</ele><time>2026-03-22T10:53:16.001Z</time></trkpt><trkpt lat="38.488654373076606" lon="16.296076374937464"><ele>944.4</ele><time>2026-03-22T10:53:17.001Z</time></trkpt><trkpt lat="38.488668770607205" lon="16.29595983405534"><ele>942.2</ele><time>2026-03-22T10:53:18.001Z</time></trkpt><trkpt lat="38.48863520472634" lon="16.29584308258715"><ele>940.0</ele><time>2026-03-22T10:53:19.001Z</time></trkpt><trkpt lat="38.48855681705117" lon="16.295682905179234"><ele>939.0</ele><time>2026-03-22T10:53:21.001Z</time></trkpt><trkpt lat="38.48849377129739" lon="16.295566457326046"><ele>938.0</ele><time>2026-03-22T10:53:22.001Z</time></trkpt><trkpt lat="38.488434713149076" lon="16.295452523224103"><ele>937.0</ele><time>2026-03-22T10:53:23.001Z</time></trkpt><trkpt lat="38.48838436471896" lon="16.295341192734345"><ele>936.0</ele><time>2026-03-22T10:53:24.001Z</time></trkpt><trkpt lat="38.488347151608416" lon="16.295227649895942"><ele>935.0</ele><time>2026-03-22T10:53:25.001Z</time></trkpt><trkpt lat="38.48835097720284" lon="16.29511527912482"><ele>935.0</ele><time>2026-03-22T10:53:26.001Z</time></trkpt><trkpt lat="38.48839007366295" lon="16.29502463315666"><ele>935.0</ele><time>2026-03-22T10:53:27.001Z</time></trkpt><trkpt lat="38.48846739422592" lon="16.294930039975718"><ele>935.0</ele><time>2026-03-22T10:53:28.001Z</time></trkpt><trkpt lat="38.48856330499399" lon="16.294832203139364"><ele>935.0</ele><time>2026-03-22T10:53:29.001Z</time></trkpt><trkpt lat="38.48865533461893" lon="16.29478640213312"><ele>935.0</ele><time>2026-03-22T10:53:30.001Z</time></trkpt><trkpt lat="38.488765402602446" lon="16.29476560377595"><ele>935.6</ele><time>2026-03-22T10:53:31.001Z</time></trkpt><trkpt lat="38.488886028279765" lon="16.294743936863135"><ele>936.2</ele><time>2026-03-22T10:53:32.001Z</time></trkpt><trkpt lat="38.48898526175824" lon="16.294723662134405"><ele>936.8</ele><time>2026-03-22T10:53:33.001Z</time></trkpt><trkpt lat="38.489073806212566" lon="16.29469657202387"><ele>937.4</ele><time>2026-03-22T10:53:34.001Z</time></trkpt><trkpt lat="38.489140109346195" lon="16.29464220432453"><ele>938.0</ele><time>2026-03-22T10:53:35.001Z</time></trkpt><trkpt lat="38.489184309992424" lon="16.294563095853842"><ele>938.0</ele><time>2026-03-22T10:53:36.001Z</time></trkpt><trkpt lat="38.48920357494306" lon="16.294456932185923"><ele>938.0</ele><time>2026-03-22T10:53:37.001Z</time></trkpt><trkpt lat="38.48920250787208" lon="16.29433389320571"><ele>938.0</ele><time>2026-03-22T10:53:38.001Z</time></trkpt><trkpt lat="38.48917863158621" lon="16.294200824070188"><ele>938.0</ele><time>2026-03-22T10:53:39.001Z</time></trkpt><trkpt lat="38.48915583475113" lon="16.294053354350908"><ele>938.0</ele><time>2026-03-22T10:53:40.001Z</time></trkpt><trkpt lat="38.489093674866176" lon="16.29393450449348"><ele>938.75</ele><time>2026-03-22T10:53:41.001Z</time></trkpt><trkpt lat="38.488999204718134" lon="16.293816054946518"><ele>939.5</ele><time>2026-03-22T10:53:42.001Z</time></trkpt><trkpt lat="38.48888410593744" lon="16.29370235083202"><ele>940.25</ele><time>2026-03-22T10:53:43.001Z</time></trkpt><trkpt lat="38.48875655484046" lon="16.293588526013064"><ele>941.0</ele><time>2026-03-22T10:53:44.001Z</time></trkpt><trkpt lat="38.488611270944475" lon="16.293477009816822"><ele>941.0</ele><time>2026-03-22T10:53:45.001Z</time></trkpt><trkpt lat="38.48848051038171" lon="16.293330039182898"><ele>941.0</ele><time>2026-03-22T10:53:46.001Z</time></trkpt><trkpt lat="38.48833725595225" lon="16.293220454646427"><ele>941.0</ele><time>2026-03-22T10:53:47.001Z</time></trkpt><trkpt lat="38.488215883384896" lon="16.293110776178594"><ele>943.6666666666667</ele><time>2026-03-22T10:53:48.001Z</time></trkpt><trkpt lat="38.48805498305544" lon="16.29300755494916"><ele>946.3333333333333</ele><time>2026-03-22T10:53:49.001Z</time></trkpt><trkpt lat="38.48790519990076" lon="16.292983254211133"><ele>949.0</ele><time>2026-03-22T10:53:50.001Z</time></trkpt><trkpt lat="38.48776978232105" lon="16.29292654905844"><ele>949.0</ele><time>2026-03-22T10:53:51.001Z</time></trkpt><trkpt lat="38.48766389573132" lon="16.292886243443668"><ele>949.0</ele><time>2026-03-22T10:53:52.001Z</time></trkpt><trkpt lat="38.48754073006204" lon="16.292812159183622"><ele>949.0</ele><time>2026-03-22T10:53:53.001Z</time></trkpt><trkpt lat="38.487438230288284" lon="16.292715063631277"><ele>949.0</ele><time>2026-03-22T10:53:54.001Z</time></trkpt><trkpt lat="38.48735043000921" lon="16.29258588839217"><ele>949.0</ele><time>2026-03-22T10:53:55.001Z</time></trkpt><trkpt lat="38.48726238693005" lon="16.2924448604482"><ele>949.0</ele><time>2026-03-22T10:53:56.001Z</time></trkpt><trkpt lat="38.48718136992039" lon="16.29231094159815"><ele>949.0</ele><time>2026-03-22T10:53:57.001Z</time></trkpt><trkpt lat="38.487116559992145" lon="16.29219082087212"><ele>949.0</ele><time>2026-03-22T10:53:58.001Z</time></trkpt><trkpt lat="38.4870656970181" lon="16.292070748244875"><ele>949.5</ele><time>2026-03-22T10:53:59.001Z</time></trkpt><trkpt lat="38.487012423457955" lon="16.291921440651972"><ele>950.0</ele><time>2026-03-22T10:54:00.001Z</time></trkpt><trkpt lat="38.486993220279324" lon="16.291746851924017"><ele>950.5</ele><time>2026-03-22T10:54:01.001Z</time></trkpt><trkpt lat="38.486994740633406" lon="16.29156416811104"><ele>951.0</ele><time>2026-03-22T10:54:02.001Z</time></trkpt><trkpt lat="38.487007596996136" lon="16.291372893291992"><ele>949.6666666666667</ele><time>2026-03-22T10:54:03.001Z</time></trkpt><trkpt lat="38.48703367182562" lon="16.291170279639626"><ele>948.3333333333334</ele><time>2026-03-22T10:54:04.001Z</time></trkpt><trkpt lat="38.487059514434144" lon="16.290953323944027"><ele>947.0</ele><time>2026-03-22T10:54:05.001Z</time></trkpt><trkpt lat="38.48708416796059" lon="16.290719286728972"><ele>950.3333333333334</ele><time>2026-03-22T10:54:06.001Z</time></trkpt><trkpt lat="38.48711313644817" lon="16.29048061549534"><ele>953.6666666666667</ele><time>2026-03-22T10:54:07.001Z</time></trkpt><trkpt lat="38.4871402578871" lon="16.290235937943"><ele>957.0</ele><time>2026-03-22T10:54:08.001Z</time></trkpt><trkpt lat="38.48716583505107" lon="16.290008786752022"><ele>957.0</ele><time>2026-03-22T10:54:09.001Z</time></trkpt><trkpt lat="38.487189475668096" lon="16.289802409437335"><ele>957.0</ele><time>2026-03-22T10:54:10.001Z</time></trkpt><trkpt lat="38.487219314094716" lon="16.28959894227429"><ele>957.0</ele><time>2026-03-22T10:54:11.001Z</time></trkpt><trkpt lat="38.487260868739995" lon="16.289376214104156"><ele>957.0</ele><time>2026-03-22T10:54:12.001Z</time></trkpt><trkpt lat="38.487318635121554" lon="16.28914385351207"><ele>957.0</ele><time>2026-03-22T10:54:13.001Z</time></trkpt><trkpt lat="38.487379220855814" lon="16.288906262217743"><ele>957.0</ele><time>2026-03-22T10:54:14.001Z</time></trkpt><trkpt lat="38.487440826870305" lon="16.28866114193813"><ele>957.3333333333333</ele><time>2026-03-22T10:54:15.001Z</time></trkpt><trkpt lat="38.487500551395314" lon="16.288412920513732"><ele>957.6666666666666</ele><time>2026-03-22T10:54:16.001Z</time></trkpt><trkpt lat="38.48756200802057" lon="16.288171936203806"><ele>958.0</ele><time>2026-03-22T10:54:17.001Z</time></trkpt><trkpt lat="38.48761927655418" lon="16.287935728550835"><ele>957.3333333333333</ele><time>2026-03-22T10:54:18.001Z</time></trkpt><trkpt lat="38.487667669809184" lon="16.28771579926864"><ele>956.6666666666667</ele><time>2026-03-22T10:54:19.001Z</time></trkpt><trkpt lat="38.48770592674908" lon="16.287514659912688"><ele>956.0</ele><time>2026-03-22T10:54:20.001Z</time></trkpt><trkpt lat="38.48774511785687" lon="16.28730209618676"><ele>956.3333333333334</ele><time>2026-03-22T10:54:21.001Z</time></trkpt><trkpt lat="38.487779144782316" lon="16.28708663038308"><ele>956.6666666666667</ele><time>2026-03-22T10:54:22.001Z</time></trkpt><trkpt lat="38.48779050030132" lon="16.286884186041846"><ele>957.0</ele><time>2026-03-22T10:54:23.001Z</time></trkpt><trkpt lat="38.48779002641892" lon="16.286707104140426"><ele>957.0</ele><time>2026-03-22T10:54:24.001Z</time></trkpt><trkpt lat="38.48778592223073" lon="16.286550950712247"><ele>957.0</ele><time>2026-03-22T10:54:25.001Z</time></trkpt><trkpt lat="38.48776450332465" lon="16.28639359585245"><ele>957.0</ele><time>2026-03-22T10:54:26.001Z</time></trkpt><trkpt lat="38.487714219861935" lon="16.286256597364858"><ele>957.0</ele><time>2026-03-22T10:54:27.001Z</time></trkpt><trkpt lat="38.487637820071285" lon="16.2861296027183"><ele>958.0</ele><time>2026-03-22T10:54:28.001Z</time></trkpt><trkpt lat="38.48754058462791" lon="16.286013568757596"><ele>959.0</ele><time>2026-03-22T10:54:29.001Z</time></trkpt><trkpt lat="38.48741240303587" lon="16.285910729860856"><ele>960.0</ele><time>2026-03-22T10:54:30.001Z</time></trkpt><trkpt lat="38.48727439721143" lon="16.28582487279471"><ele>961.0</ele><time>2026-03-22T10:54:31.001Z</time></trkpt><trkpt lat="38.487123891117726" lon="16.285751038068085"><ele>962.6666666666666</ele><time>2026-03-22T10:54:32.001Z</time></trkpt><trkpt lat="38.48696125439526" lon="16.285672429546377"><ele>964.3333333333333</ele><time>2026-03-22T10:54:33.001Z</time></trkpt><trkpt lat="38.486795523117905" lon="16.285607675433695"><ele>966.0</ele><time>2026-03-22T10:54:34.001Z</time></trkpt><trkpt lat="38.48665957062299" lon="16.28553865678144"><ele>966.0</ele><time>2026-03-22T10:54:35.001Z</time></trkpt><trkpt lat="38.48650041065197" lon="16.28547771259819"><ele>966.0</ele><time>2026-03-22T10:54:36.001Z</time></trkpt><trkpt lat="38.486339215956555" lon="16.285421528196363"><ele>966.0</ele><time>2026-03-22T10:54:37.001Z</time></trkpt><trkpt lat="38.48619825083193" lon="16.285365630321763"><ele>965.5</ele><time>2026-03-22T10:54:38.001Z</time></trkpt><trkpt lat="38.48606650044342" lon="16.28532253694611"><ele>965.0</ele><time>2026-03-22T10:54:39.001Z</time></trkpt><trkpt lat="38.48592292493778" lon="16.285276435737085"><ele>964.5</ele><time>2026-03-22T10:54:40.001Z</time></trkpt><trkpt lat="38.485779423443326" lon="16.285301457057006"><ele>964.0</ele><time>2026-03-22T10:54:41.001Z</time></trkpt><trkpt lat="38.48565345842852" lon="16.285322520307002"><ele>964.0</ele><time>2026-03-22T10:54:42.001Z</time></trkpt><trkpt lat="38.48554267247911" lon="16.28537207822406"><ele>964.0</ele><time>2026-03-22T10:54:43.001Z</time></trkpt><trkpt lat="38.4854326554732" lon="16.285409739100658"><ele>964.0</ele><time>2026-03-22T10:54:44.001Z</time></trkpt><trkpt lat="38.48530941220545" lon="16.28541784847002"><ele>964.0</ele><time>2026-03-22T10:54:45.001Z</time></trkpt><trkpt lat="38.48518854241371" lon="16.285391220960125"><ele>964.25</ele><time>2026-03-22T10:54:46.001Z</time></trkpt><trkpt lat="38.48506817944759" lon="16.28532636698572"><ele>964.5</ele><time>2026-03-22T10:54:47.001Z</time></trkpt><trkpt lat="38.48493695360926" lon="16.285257223771875"><ele>964.75</ele><time>2026-03-22T10:54:48.001Z</time></trkpt><trkpt lat="38.48479487188907" lon="16.285175895757288"><ele>965.0</ele><time>2026-03-22T10:54:49.001Z</time></trkpt><trkpt lat="38.4846557998652" lon="16.28507209073429"><ele>966.0</ele><time>2026-03-22T10:54:50.001Z</time></trkpt><trkpt lat="38.484506493732425" lon="16.285000160663365"><ele>967.0</ele><time>2026-03-22T10:54:51.001Z</time></trkpt><trkpt lat="38.484379543292796" lon="16.2848979491718"><ele>968.0</ele><time>2026-03-22T10:54:52.001Z</time></trkpt><trkpt lat="38.484247282467585" lon="16.284817050922076"><ele>966.75</ele><time>2026-03-22T10:54:53.001Z</time></trkpt><trkpt lat="38.48411637718884" lon="16.284740925945272"><ele>965.5</ele><time>2026-03-22T10:54:54.001Z</time></trkpt><trkpt lat="38.48398774109658" lon="16.28466730403252"><ele>964.25</ele><time>2026-03-22T10:54:55.001Z</time></trkpt><trkpt lat="38.48385028037953" lon="16.284618726213054"><ele>963.0</ele><time>2026-03-22T10:54:56.001Z</time></trkpt><trkpt lat="38.48371616299272" lon="16.28455295918314"><ele>962.0</ele><time>2026-03-22T10:54:57.001Z</time></trkpt><trkpt lat="38.483573928477774" lon="16.284523769804043"><ele>961.0</ele><time>2026-03-22T10:54:58.001Z</time></trkpt><trkpt lat="38.48344717236596" lon="16.284513537100477"><ele>960.0</ele><time>2026-03-22T10:54:59.001Z</time></trkpt><trkpt lat="38.483346186681615" lon="16.284502974329442"><ele>959.0</ele><time>2026-03-22T10:55:00.001Z</time></trkpt><trkpt lat="38.48324563504548" lon="16.284474568882942"><ele>959.0</ele><time>2026-03-22T10:55:01.001Z</time></trkpt><trkpt lat="38.48319151007283" lon="16.284430289596305"><ele>959.0000000000001</ele><time>2026-03-22T10:55:02.001Z</time></trkpt><trkpt lat="38.48314730276769" lon="16.284345876486157"><ele>959.0000000000001</ele><time>2026-03-22T10:55:03.001Z</time></trkpt><trkpt lat="38.48310959936246" lon="16.284228112455956"><ele>959.0</ele><time>2026-03-22T10:55:04.001Z</time></trkpt><trkpt lat="38.48306107333067" lon="16.284090180362856"><ele>959.0</ele><time>2026-03-22T10:55:05.001Z</time></trkpt><trkpt lat="38.482990798736" lon="16.283953288525"><ele>958.25</ele><time>2026-03-22T10:55:06.001Z</time></trkpt><trkpt lat="38.48292348268178" lon="16.283808079409752"><ele>957.5</ele><time>2026-03-22T10:55:07.001Z</time></trkpt><trkpt lat="38.482860919661356" lon="16.283636362168153"><ele>956.75</ele><time>2026-03-22T10:55:08.001Z</time></trkpt><trkpt lat="38.48278395292159" lon="16.283472119088195"><ele>956.0</ele><time>2026-03-22T10:55:09.001Z</time></trkpt><trkpt lat="38.48269610636989" lon="16.28331443503648"><ele>956.0</ele><time>2026-03-22T10:55:10.001Z</time></trkpt><trkpt lat="38.48261807723402" lon="16.28316333765303"><ele>956.0</ele><time>2026-03-22T10:55:11.001Z</time></trkpt><trkpt lat="38.48253639056784" lon="16.283024147321754"><ele>956.0</ele><time>2026-03-22T10:55:12.001Z</time></trkpt><trkpt lat="38.482478700636676" lon="16.28288297601751"><ele>956.0</ele><time>2026-03-22T10:55:13.001Z</time></trkpt><trkpt lat="38.48243404454611" lon="16.282745148904446"><ele>957.1999999999999</ele><time>2026-03-22T10:55:14.001Z</time></trkpt><trkpt lat="38.48240723804005" lon="16.28260385138018"><ele>958.3999999999999</ele><time>2026-03-22T10:55:15.001Z</time></trkpt><trkpt lat="38.48238498439967" lon="16.28246867805902"><ele>959.6</ele><time>2026-03-22T10:55:16.001Z</time></trkpt><trkpt lat="38.48234494525199" lon="16.2823478387737"><ele>960.8</ele><time>2026-03-22T10:55:17.001Z</time></trkpt><trkpt lat="38.482269946025106" lon="16.282247063378097"><ele>962.0</ele><time>2026-03-22T10:55:18.001Z</time></trkpt><trkpt lat="38.4821664234224" lon="16.28216896040524"><ele>967.0</ele><time>2026-03-22T10:55:19.001Z</time></trkpt><trkpt lat="38.48203758160769" lon="16.28210237227719"><ele>972.0</ele><time>2026-03-22T10:55:20.001Z</time></trkpt><trkpt lat="38.481902061081755" lon="16.282033289044602"><ele>977.0</ele><time>2026-03-22T10:55:21.001Z</time></trkpt><trkpt lat="38.48173914403698" lon="16.2819830522209"><ele>977.0</ele><time>2026-03-22T10:55:22.001Z</time></trkpt><trkpt lat="38.48157506078692" lon="16.281958068882766"><ele>977.0</ele><time>2026-03-22T10:55:23.001Z</time></trkpt><trkpt lat="38.481400906594864" lon="16.28194990777606"><ele>977.0</ele><time>2026-03-22T10:55:24.001Z</time></trkpt><trkpt lat="38.48123541946279" lon="16.28191787833808"><ele>976.6666666666667</ele><time>2026-03-22T10:55:25.001Z</time></trkpt><trkpt lat="38.48108466336348" lon="16.281902410120903"><ele>976.3333333333333</ele><time>2026-03-22T10:55:26.001Z</time></trkpt><trkpt lat="38.480920569414344" lon="16.28191384889852"><ele>976.0</ele><time>2026-03-22T10:55:27.001Z</time></trkpt><trkpt lat="38.480775513086925" lon="16.281960434583954"><ele>976.0</ele><time>2026-03-22T10:55:28.001Z</time></trkpt><trkpt lat="38.480613169163384" lon="16.282058061141296"><ele>976.0</ele><time>2026-03-22T10:55:29.001Z</time></trkpt><trkpt lat="38.480454260694366" lon="16.28216252254915"><ele>976.0</ele><time>2026-03-22T10:55:30.001Z</time></trkpt><trkpt lat="38.48032516420642" lon="16.282229106083516"><ele>976.0</ele><time>2026-03-22T10:55:31.001Z</time></trkpt><trkpt lat="38.48018875706269" lon="16.282301997056077"><ele>976.0</ele><time>2026-03-22T10:55:32.001Z</time></trkpt><trkpt lat="38.480050457683056" lon="16.28240044403568"><ele>976.0</ele><time>2026-03-22T10:55:33.001Z</time></trkpt><trkpt lat="38.4799295421679" lon="16.282547604512985"><ele>976.0</ele><time>2026-03-22T10:55:34.001Z</time></trkpt><trkpt lat="38.47982595651789" lon="16.282707556704178"><ele>976.0</ele><time>2026-03-22T10:55:35.001Z</time></trkpt><trkpt lat="38.47973947506942" lon="16.2828408935471"><ele>976.0</ele><time>2026-03-22T10:55:36.001Z</time></trkpt><trkpt lat="38.47963366570343" lon="16.282936981712243"><ele>976.0</ele><time>2026-03-22T10:55:37.001Z</time></trkpt><trkpt lat="38.47949389570513" lon="16.28297812137952"><ele>977.5</ele><time>2026-03-22T10:55:38.001Z</time></trkpt><trkpt lat="38.4793655587192" lon="16.283010909512758"><ele>979.0</ele><time>2026-03-22T10:55:39.001Z</time></trkpt><trkpt lat="38.47921945502039" lon="16.283046385079576"><ele>980.5</ele><time>2026-03-22T10:55:40.001Z</time></trkpt><trkpt lat="38.47907679779513" lon="16.283067878797038"><ele>982.0</ele><time>2026-03-22T10:55:41.001Z</time></trkpt><trkpt lat="38.47894755812658" lon="16.283058370124785"><ele>982.0</ele><time>2026-03-22T10:55:43.001Z</time></trkpt><trkpt lat="38.47888751318365" lon="16.283017484992662"><ele>982.0</ele><time>2026-03-22T10:55:44.001Z</time></trkpt><trkpt lat="38.47877963085233" lon="16.28288095112572"><ele>982.0</ele><time>2026-03-22T10:55:45.001Z</time></trkpt><trkpt lat="38.478721683377174" lon="16.28275466542923"><ele>982.0</ele><time>2026-03-22T10:55:46.001Z</time></trkpt><trkpt lat="38.47865388834146" lon="16.28262446297078"><ele>981.6666666666666</ele><time>2026-03-22T10:55:47.001Z</time></trkpt><trkpt lat="38.478562934560316" lon="16.282446990869754"><ele>981.3333333333333</ele><time>2026-03-22T10:55:48.001Z</time></trkpt><trkpt lat="38.47848040815762" lon="16.282287349426927"><ele>981.0</ele><time>2026-03-22T10:55:49.001Z</time></trkpt><trkpt lat="38.4783793885831" lon="16.28209620195996"><ele>981.0</ele><time>2026-03-22T10:55:50.001Z</time></trkpt><trkpt lat="38.47825512398641" lon="16.28188647224638"><ele>981.0</ele><time>2026-03-22T10:55:51.001Z</time></trkpt><trkpt lat="38.47814610065661" lon="16.28166601336405"><ele>981.0</ele><time>2026-03-22T10:55:52Z</time></trkpt><trkpt lat="38.47805300101733" lon="16.28147750791131"><ele>981.5</ele><time>2026-03-22T10:55:53Z</time></trkpt><trkpt lat="38.478002698703044" lon="16.281315952357335"><ele>982.0</ele><time>2026-03-22T10:55:54Z</time></trkpt><trkpt lat="38.477957231058056" lon="16.28113787765084"><ele>982.5</ele><time>2026-03-22T10:55:55Z</time></trkpt><trkpt lat="38.477935010827196" lon="16.280976295264217"><ele>983.0</ele><time>2026-03-22T10:55:56Z</time></trkpt><trkpt lat="38.47793816327227" lon="16.280816586725063"><ele>983.0</ele><time>2026-03-22T10:55:57Z</time></trkpt><trkpt lat="38.47793575044104" lon="16.280614314760335"><ele>983.0</ele><time>2026-03-22T10:55:58Z</time></trkpt><trkpt lat="38.47794924911675" lon="16.280507562147978"><ele>983.0</ele><time>2026-03-22T10:55:59Z</time></trkpt><trkpt lat="38.47792656325144" lon="16.280399680737016"><ele>983.0</ele><time>2026-03-22T10:56:00Z</time></trkpt><trkpt lat="38.477888375855684" lon="16.280283291651596"><ele>983.0</ele><time>2026-03-22T10:56:01Z</time></trkpt><trkpt lat="38.477793684235834" lon="16.2801918323954"><ele>982.2</ele><time>2026-03-22T10:56:02Z</time></trkpt><trkpt lat="38.4776775337637" lon="16.28011719825767"><ele>981.4</ele><time>2026-03-22T10:56:03Z</time></trkpt><trkpt lat="38.477590972381016" lon="16.28004666661434"><ele>980.6000000000001</ele><time>2026-03-22T10:56:04Z</time></trkpt><trkpt lat="38.47751230035813" lon="16.279994262963328"><ele>979.8000000000001</ele><time>2026-03-22T10:56:05Z</time></trkpt><trkpt lat="38.47743337893979" lon="16.279989538375897"><ele>979.0</ele><time>2026-03-22T10:56:06Z</time></trkpt><trkpt lat="38.47733424991918" lon="16.280024773883326"><ele>979.0</ele><time>2026-03-22T10:56:07Z</time></trkpt><trkpt lat="38.477235782974255" lon="16.280121210616066"><ele>979.0</ele><time>2026-03-22T10:56:08Z</time></trkpt><trkpt lat="38.47714715120061" lon="16.280269180984767"><ele>979.0</ele><time>2026-03-22T10:56:09Z</time></trkpt><trkpt lat="38.477054796579175" lon="16.280430279513222"><ele>979.0</ele><time>2026-03-22T10:56:10Z</time></trkpt><trkpt lat="38.47697824893098" lon="16.280628716637338"><ele>983.25</ele><time>2026-03-22T10:56:11Z</time></trkpt><trkpt lat="38.47692467379698" lon="16.280794021361736"><ele>987.5</ele><time>2026-03-22T10:56:12Z</time></trkpt><trkpt lat="38.476862362355035" lon="16.28093699388476"><ele>991.75</ele><time>2026-03-22T10:56:13Z</time></trkpt><trkpt lat="38.476785407293946" lon="16.281077858229285"><ele>996.0</ele><time>2026-03-22T10:56:14Z</time></trkpt><trkpt lat="38.47668059952362" lon="16.281210936338166"><ele>996.0</ele><time>2026-03-22T10:56:15Z</time></trkpt><trkpt lat="38.476566318721645" lon="16.281322650463867"><ele>996.0</ele><time>2026-03-22T10:56:16Z</time></trkpt><trkpt lat="38.4764505874319" lon="16.28141825328948"><ele>996.0</ele><time>2026-03-22T10:56:17Z</time></trkpt><trkpt lat="38.47635857562794" lon="16.28152867425985"><ele>996.0</ele><time>2026-03-22T10:56:18Z</time></trkpt><trkpt lat="38.476293004045694" lon="16.281654643476934"><ele>993.5</ele><time>2026-03-22T10:56:19Z</time></trkpt><trkpt lat="38.47626452884026" lon="16.281813918863104"><ele>991.0</ele><time>2026-03-22T10:56:20Z</time></trkpt><trkpt lat="38.47627889360785" lon="16.28198983864969"><ele>988.5</ele><time>2026-03-22T10:56:21Z</time></trkpt><trkpt lat="38.476286764952285" lon="16.282177927142545"><ele>986.0</ele><time>2026-03-22T10:56:22Z</time></trkpt><trkpt lat="38.476292067275985" lon="16.28237330846399"><ele>984.75</ele><time>2026-03-22T10:56:23Z</time></trkpt><trkpt lat="38.47630816461753" lon="16.282537141623962"><ele>983.5</ele><time>2026-03-22T10:56:24Z</time></trkpt><trkpt lat="38.47630343729829" lon="16.282700023560245"><ele>982.25</ele><time>2026-03-22T10:56:25Z</time></trkpt><trkpt lat="38.47628099183855" lon="16.282871321256845"><ele>981.0</ele><time>2026-03-22T10:56:26Z</time></trkpt><trkpt lat="38.4762470582398" lon="16.283017892197105"><ele>986.3333333333333</ele><time>2026-03-22T10:56:27Z</time></trkpt><trkpt lat="38.47615568106487" lon="16.28317482409149"><ele>991.6666666666666</ele><time>2026-03-22T10:56:28Z</time></trkpt><trkpt lat="38.47603891475267" lon="16.283334202887875"><ele>997.0</ele><time>2026-03-22T10:56:29Z</time></trkpt><trkpt lat="38.47592660007728" lon="16.283480996096"><ele>997.0</ele><time>2026-03-22T10:56:30Z</time></trkpt><trkpt lat="38.475820866573684" lon="16.283618843321204"><ele>997.0</ele><time>2026-03-22T10:56:31Z</time></trkpt><trkpt lat="38.47573451826362" lon="16.283706191381395"><ele>997.0</ele><time>2026-03-22T10:56:32Z</time></trkpt><trkpt lat="38.47563797222503" lon="16.28376281672546"><ele>997.0</ele><time>2026-03-22T10:56:33Z</time></trkpt><trkpt lat="38.47551472316401" lon="16.28380173862483"><ele>997.25</ele><time>2026-03-22T10:56:34Z</time></trkpt><trkpt lat="38.47537492149219" lon="16.283847152958636"><ele>997.5</ele><time>2026-03-22T10:56:35Z</time></trkpt><trkpt lat="38.47525689699397" lon="16.283886112225147"><ele>997.75</ele><time>2026-03-22T10:56:36Z</time></trkpt><trkpt lat="38.475082893221185" lon="16.283928622522104"><ele>998.0</ele><time>2026-03-22T10:56:37Z</time></trkpt><trkpt lat="38.474955113581714" lon="16.28393460132595"><ele>998.75</ele><time>2026-03-22T10:56:38Z</time></trkpt><trkpt lat="38.474832956639126" lon="16.283917848812177"><ele>999.5</ele><time>2026-03-22T10:56:39Z</time></trkpt><trkpt lat="38.474714873311676" lon="16.283870646938993"><ele>1000.25</ele><time>2026-03-22T10:56:40Z</time></trkpt><trkpt lat="38.474585477219264" lon="16.283794431334172"><ele>1001.0</ele><time>2026-03-22T10:56:41Z</time></trkpt><trkpt lat="38.474497346606995" lon="16.283680152226133"><ele>1001.0</ele><time>2026-03-22T10:56:42Z</time></trkpt><trkpt lat="38.474420234553946" lon="16.28355833379654"><ele>1001.0</ele><time>2026-03-22T10:56:43Z</time></trkpt><trkpt lat="38.47434512283053" lon="16.283424484399195"><ele>1001.0</ele><time>2026-03-22T10:56:44Z</time></trkpt><trkpt lat="38.47427640400324" lon="16.283269361866072"><ele>1001.0</ele><time>2026-03-22T10:56:45Z</time></trkpt><trkpt lat="38.474233841747896" lon="16.283119708545414"><ele>1002.3333333333334</ele><time>2026-03-22T10:56:46Z</time></trkpt><trkpt lat="38.474191495996834" lon="16.282919769946137"><ele>1003.6666666666667</ele><time>2026-03-22T10:56:47Z</time></trkpt><trkpt lat="38.47414512282675" lon="16.2826743241775"><ele>1005.0</ele><time>2026-03-22T10:56:48Z</time></trkpt><trkpt lat="38.4741001905239" lon="16.282437532037605"><ele>1005.0</ele><time>2026-03-22T10:56:49Z</time></trkpt><trkpt lat="38.47406610494241" lon="16.282267986729686"><ele>1005.0</ele><time>2026-03-22T10:56:50Z</time></trkpt><trkpt lat="38.47402800037026" lon="16.282128640357833"><ele>1005.0</ele><time>2026-03-22T10:56:51Z</time></trkpt><trkpt lat="38.47398204652264" lon="16.282003871054602"><ele>1005.0</ele><time>2026-03-22T10:56:52Z</time></trkpt><trkpt lat="38.47393753876321" lon="16.28193305122964"><ele>1005.0</ele><time>2026-03-22T10:56:53Z</time></trkpt><trkpt lat="38.4738552361852" lon="16.281782443984667"><ele>1005.0</ele><time>2026-03-22T10:56:55.001Z</time></trkpt><trkpt lat="38.47371793881201" lon="16.281667428089726"><ele>1005.0</ele><time>2026-03-22T10:56:56.001Z</time></trkpt><trkpt lat="38.47359581216051" lon="16.28156937010428"><ele>1005.0</ele><time>2026-03-22T10:56:57.001Z</time></trkpt><trkpt lat="38.47346974901606" lon="16.281490826662047"><ele>1005.0</ele><time>2026-03-22T10:56:58.001Z</time></trkpt><trkpt lat="38.47336430395212" lon="16.2813881372767"><ele>1005.0</ele><time>2026-03-22T10:56:59.001Z</time></trkpt><trkpt lat="38.47326277810541" lon="16.28127958969606"><ele>1005.0</ele><time>2026-03-22T10:57:00.001Z</time></trkpt><trkpt lat="38.47318455059936" lon="16.281183439312493"><ele>1005.0</ele><time>2026-03-22T10:57:01.001Z</time></trkpt><trkpt lat="38.47309174732416" lon="16.281095782155706"><ele>1005.0</ele><time>2026-03-22T10:57:02.001Z</time></trkpt><trkpt lat="38.473005968246824" lon="16.28101442943285"><ele>1006.1666666666666</ele><time>2026-03-22T10:57:03.001Z</time></trkpt><trkpt lat="38.472921588030594" lon="16.280977321829557"><ele>1007.3333333333333</ele><time>2026-03-22T10:57:04.001Z</time></trkpt><trkpt lat="38.472836377635744" lon="16.280958140064826"><ele>1008.5</ele><time>2026-03-22T10:57:05.001Z</time></trkpt><trkpt lat="38.47276340439608" lon="16.280973042954976"><ele>1009.6666666666666</ele><time>2026-03-22T10:57:06.001Z</time></trkpt><trkpt lat="38.47269904910562" lon="16.28101245469597"><ele>1010.8333333333333</ele><time>2026-03-22T10:57:07.001Z</time></trkpt><trkpt lat="38.47263338815723" lon="16.28108827497183"><ele>1012.0</ele><time>2026-03-22T10:57:08.001Z</time></trkpt><trkpt lat="38.472587121265086" lon="16.281213437033806"><ele>1012.0</ele><time>2026-03-22T10:57:09.001Z</time></trkpt><trkpt lat="38.4725753321253" lon="16.28138178499574"><ele>1012.0</ele><time>2026-03-22T10:57:10.001Z</time></trkpt><trkpt lat="38.47255666139579" lon="16.281557165572092"><ele>1012.0</ele><time>2026-03-22T10:57:11.001Z</time></trkpt><trkpt lat="38.47253657351139" lon="16.28176464323927"><ele>1012.0</ele><time>2026-03-22T10:57:12.001Z</time></trkpt><trkpt lat="38.472510110933" lon="16.28198681420613"><ele>1012.3333333333333</ele><time>2026-03-22T10:57:13.001Z</time></trkpt><trkpt lat="38.472508605976415" lon="16.282218012596392"><ele>1012.6666666666667</ele><time>2026-03-22T10:57:14.001Z</time></trkpt><trkpt lat="38.47250260973427" lon="16.28240253911121"><ele>1013.0</ele><time>2026-03-22T10:57:15.001Z</time></trkpt><trkpt lat="38.4724920789415" lon="16.28257392988826"><ele>1011.3333333333334</ele><time>2026-03-22T10:57:16.001Z</time></trkpt><trkpt lat="38.47247557834975" lon="16.28276182663423"><ele>1009.6666666666667</ele><time>2026-03-22T10:57:17.001Z</time></trkpt><trkpt lat="38.472457712942564" lon="16.28298891256828"><ele>1008.0</ele><time>2026-03-22T10:57:18.001Z</time></trkpt><trkpt lat="38.47242064326899" lon="16.28319231502448"><ele>1006.75</ele><time>2026-03-22T10:57:19.001Z</time></trkpt><trkpt lat="38.472362897140854" lon="16.283370393413318"><ele>1005.5</ele><time>2026-03-22T10:57:20.001Z</time></trkpt><trkpt lat="38.47230900360601" lon="16.2835082314881"><ele>1004.25</ele><time>2026-03-22T10:57:21.001Z</time></trkpt><trkpt lat="38.47224620230511" lon="16.283599159929352"><ele>1003.0</ele><time>2026-03-22T10:57:22.001Z</time></trkpt><trkpt lat="38.472154406842975" lon="16.28366961224669"><ele>1008.75</ele><time>2026-03-22T10:57:23.001Z</time></trkpt><trkpt lat="38.47204270530242" lon="16.283727706899015"><ele>1014.5</ele><time>2026-03-22T10:57:24.001Z</time></trkpt><trkpt lat="38.47192150480855" lon="16.283754462776944"><ele>1020.25</ele><time>2026-03-22T10:57:25.001Z</time></trkpt><trkpt lat="38.47180498415179" lon="16.283740797309225"><ele>1026.0</ele><time>2026-03-22T10:57:26.001Z</time></trkpt><trkpt lat="38.47170404463911" lon="16.28369347160755"><ele>1026.0</ele><time>2026-03-22T10:57:27.001Z</time></trkpt><trkpt lat="38.471579238863974" lon="16.2836353234831"><ele>1026.0</ele><time>2026-03-22T10:57:28.001Z</time></trkpt><trkpt lat="38.47147484240712" lon="16.283591993624217"><ele>1026.0</ele><time>2026-03-22T10:57:29.001Z</time></trkpt><trkpt lat="38.47136032140806" lon="16.28357607410355"><ele>1026.0</ele><time>2026-03-22T10:57:30.001Z</time></trkpt><trkpt lat="38.4712542485685" lon="16.28360733844065"><ele>1026.5</ele><time>2026-03-22T10:57:31.001Z</time></trkpt><trkpt lat="38.471157183221784" lon="16.283712367288132"><ele>1027.0</ele><time>2026-03-22T10:57:32.001Z</time></trkpt><trkpt lat="38.47106712087022" lon="16.28384526515904"><ele>1027.5</ele><time>2026-03-22T10:57:33.001Z</time></trkpt><trkpt lat="38.4709846053224" lon="16.2840041945195"><ele>1028.0</ele><time>2026-03-22T10:57:34.001Z</time></trkpt><trkpt lat="38.47091405257093" lon="16.284167467389864"><ele>1028.0</ele><time>2026-03-22T10:57:35.001Z</time></trkpt><trkpt lat="38.47084880538577" lon="16.28430131345868"><ele>1028.0</ele><time>2026-03-22T10:57:36.001Z</time></trkpt><trkpt lat="38.47075009473262" lon="16.284444249647557"><ele>1028.0</ele><time>2026-03-22T10:57:37.001Z</time></trkpt><trkpt lat="38.47064285345811" lon="16.284551874699943"><ele>1028.0</ele><time>2026-03-22T10:57:38.001Z</time></trkpt><trkpt lat="38.47053790189231" lon="16.2846340424267"><ele>1028.0</ele><time>2026-03-22T10:57:39.001Z</time></trkpt><trkpt lat="38.470451964685516" lon="16.2847026433428"><ele>1028.0</ele><time>2026-03-22T10:57:40.001Z</time></trkpt><trkpt lat="38.470348611017805" lon="16.284727787040733"><ele>1028.0</ele><time>2026-03-22T10:57:41.001Z</time></trkpt><trkpt lat="38.47025830593956" lon="16.28476072577823"><ele>1028.0</ele><time>2026-03-22T10:57:42.001Z</time></trkpt><trkpt lat="38.470172329893764" lon="16.284716058922616"><ele>1028.0</ele><time>2026-03-22T10:57:43.001Z</time></trkpt><trkpt lat="38.47010527488605" lon="16.284613740398065"><ele>1026.6</ele><time>2026-03-22T10:57:44.001Z</time></trkpt><trkpt lat="38.47006943627533" lon="16.284492178702443"><ele>1025.1999999999998</ele><time>2026-03-22T10:57:45.001Z</time></trkpt><trkpt lat="38.47006934373394" lon="16.28436942223279"><ele>1023.8</ele><time>2026-03-22T10:57:46.001Z</time></trkpt><trkpt lat="38.4700829290407" lon="16.284226879983045"><ele>1022.4</ele><time>2026-03-22T10:57:47.001Z</time></trkpt><trkpt lat="38.47010724217108" lon="16.28408059500567"><ele>1021.0</ele><time>2026-03-22T10:57:48.001Z</time></trkpt><trkpt lat="38.47013000734056" lon="16.283924967872274"><ele>1023.8333333333333</ele><time>2026-03-22T10:57:49.001Z</time></trkpt><trkpt lat="38.47012419461073" lon="16.28379695493634"><ele>1026.6666666666665</ele><time>2026-03-22T10:57:50.001Z</time></trkpt><trkpt lat="38.470136485476935" lon="16.283684786136792"><ele>1029.5</ele><time>2026-03-22T10:57:51.001Z</time></trkpt><trkpt lat="38.47011992189456" lon="16.283580595619156"><ele>1032.3333333333333</ele><time>2026-03-22T10:57:52.001Z</time></trkpt><trkpt lat="38.470092934898574" lon="16.28347293209551"><ele>1035.1666666666667</ele><time>2026-03-22T10:57:53Z</time></trkpt><trkpt lat="38.47004050081277" lon="16.28338934007687"><ele>1038.0</ele><time>2026-03-22T10:57:54Z</time></trkpt><trkpt lat="38.469913261563974" lon="16.28338123078957"><ele>1038.0</ele><time>2026-03-22T10:57:55Z</time></trkpt><trkpt lat="38.46975429825694" lon="16.28347811086302"><ele>1038.0</ele><time>2026-03-22T10:57:56Z</time></trkpt><trkpt lat="38.46964891369897" lon="16.283574744678095"><ele>1038.0</ele><time>2026-03-22T10:57:57Z</time></trkpt><trkpt lat="38.4695483721652" lon="16.28366459449981"><ele>1038.0</ele><time>2026-03-22T10:57:58Z</time></trkpt><trkpt lat="38.46944976769289" lon="16.283758590205814"><ele>1037.2</ele><time>2026-03-22T10:57:59Z</time></trkpt><trkpt lat="38.469344606030866" lon="16.283816926005656"><ele>1036.4</ele><time>2026-03-22T10:58:00Z</time></trkpt><trkpt lat="38.46927189156085" lon="16.28384193526446"><ele>1035.6000000000001</ele><time>2026-03-22T10:58:01Z</time></trkpt><trkpt lat="38.4691711764461" lon="16.283830878610317"><ele>1034.8</ele><time>2026-03-22T10:58:02Z</time></trkpt><trkpt lat="38.46909173044462" lon="16.283773105438986"><ele>1034.0</ele><time>2026-03-22T10:58:03Z</time></trkpt><trkpt lat="38.469030835685174" lon="16.283597796747696"><ele>1034.0</ele><time>2026-03-22T10:58:05Z</time></trkpt><trkpt lat="38.46897028380554" lon="16.28346145416025"><ele>1034.0</ele><time>2026-03-22T10:58:06Z</time></trkpt><trkpt lat="38.468912578601" lon="16.283279145229177"><ele>1034.0</ele><time>2026-03-22T10:58:07Z</time></trkpt><trkpt lat="38.468870517244916" lon="16.28304935134562"><ele>1035.0</ele><time>2026-03-22T10:58:08Z</time></trkpt><trkpt lat="38.46885104059676" lon="16.282783165083647"><ele>1036.0</ele><time>2026-03-22T10:58:09Z</time></trkpt><trkpt lat="38.46883058524084" lon="16.282538787158174"><ele>1037.0</ele><time>2026-03-22T10:58:10Z</time></trkpt><trkpt lat="38.468804553383094" lon="16.282305984937977"><ele>1036.3333333333335</ele><time>2026-03-22T10:58:11Z</time></trkpt><trkpt lat="38.468784188508984" lon="16.282108795877253"><ele>1035.6666666666667</ele><time>2026-03-22T10:58:12Z</time></trkpt><trkpt lat="38.46877822798107" lon="16.28192317364629"><ele>1035.0</ele><time>2026-03-22T10:58:13Z</time></trkpt><trkpt lat="38.468774006339856" lon="16.281732098087506"><ele>1035.0</ele><time>2026-03-22T10:58:14Z</time></trkpt><trkpt lat="38.46880040332784" lon="16.281545352702416"><ele>1035.0</ele><time>2026-03-22T10:58:15Z</time></trkpt><trkpt lat="38.46883889878466" lon="16.281383249592004"><ele>1035.0</ele><time>2026-03-22T10:58:16Z</time></trkpt><trkpt lat="38.468860468932206" lon="16.281229990847073"><ele>1035.0</ele><time>2026-03-22T10:58:17Z</time></trkpt><trkpt lat="38.46887031637943" lon="16.28107480039869"><ele>1034.25</ele><time>2026-03-22T10:58:18Z</time></trkpt><trkpt lat="38.46885666269477" lon="16.280919319834762"><ele>1033.5</ele><time>2026-03-22T10:58:19Z</time></trkpt><trkpt lat="38.4687989950008" lon="16.28076552874453"><ele>1032.75</ele><time>2026-03-22T10:58:20Z</time></trkpt><trkpt lat="38.46871405018956" lon="16.280635904944184"><ele>1032.0</ele><time>2026-03-22T10:58:21Z</time></trkpt><trkpt lat="38.46862127614791" lon="16.280516548648304"><ele>1028.75</ele><time>2026-03-22T10:58:22Z</time></trkpt><trkpt lat="38.46852261007518" lon="16.280421858106497"><ele>1025.5</ele><time>2026-03-22T10:58:23Z</time></trkpt><trkpt lat="38.46844285696153" lon="16.280307914900913"><ele>1022.25</ele><time>2026-03-22T10:58:24Z</time></trkpt><trkpt lat="38.4683910474387" lon="16.28016937929275"><ele>1019.0</ele><time>2026-03-22T10:58:25Z</time></trkpt><trkpt lat="38.468358274568054" lon="16.28000430728478"><ele>1019.0</ele><time>2026-03-22T10:58:26Z</time></trkpt><trkpt lat="38.46834291270503" lon="16.279814936703787"><ele>1019.0</ele><time>2026-03-22T10:58:27Z</time></trkpt><trkpt lat="38.46832694174315" lon="16.279631099680245"><ele>1019.0</ele><time>2026-03-22T10:58:28Z</time></trkpt><trkpt lat="38.46829368456901" lon="16.279476546811654"><ele>1019.0</ele><time>2026-03-22T10:58:29Z</time></trkpt><trkpt lat="38.4682274319519" lon="16.279339484643707"><ele>1019.75</ele><time>2026-03-22T10:58:30Z</time></trkpt><trkpt lat="38.4681372498324" lon="16.27923715417832"><ele>1020.5</ele><time>2026-03-22T10:58:31Z</time></trkpt><trkpt lat="38.46804703391353" lon="16.27915875514727"><ele>1021.25</ele><time>2026-03-22T10:58:32Z</time></trkpt><trkpt lat="38.46790983700391" lon="16.2791200651066"><ele>1022.0</ele><time>2026-03-22T10:58:33Z</time></trkpt><trkpt lat="38.46777851007754" lon="16.27900786213748"><ele>1022.25</ele><time>2026-03-22T10:58:34Z</time></trkpt><trkpt lat="38.467658503738384" lon="16.278923118029496"><ele>1022.5</ele><time>2026-03-22T10:58:35Z</time></trkpt><trkpt lat="38.4675338795387" lon="16.278840688852988"><ele>1022.75</ele><time>2026-03-22T10:58:36Z</time></trkpt><trkpt lat="38.46741684697843" lon="16.2787298722197"><ele>1023.0</ele><time>2026-03-22T10:58:37Z</time></trkpt><trkpt lat="38.467310701694565" lon="16.278573641932585"><ele>1023.0</ele><time>2026-03-22T10:58:38Z</time></trkpt><trkpt lat="38.467197758158726" lon="16.27840062504038"><ele>1023.0</ele><time>2026-03-22T10:58:39Z</time></trkpt><trkpt lat="38.46707531198208" lon="16.278209972579116"><ele>1023.0</ele><time>2026-03-22T10:58:40Z</time></trkpt><trkpt lat="38.466949451457296" lon="16.27803549140237"><ele>1021.6666666666667</ele><time>2026-03-22T10:58:41Z</time></trkpt><trkpt lat="38.46683224528251" lon="16.277873944014036"><ele>1020.3333333333334</ele><time>2026-03-22T10:58:42Z</time></trkpt><trkpt lat="38.466735931482766" lon="16.277727688484717"><ele>1019.0</ele><time>2026-03-22T10:58:43Z</time></trkpt><trkpt lat="38.46664889219158" lon="16.27758579066149"><ele>1019.0</ele><time>2026-03-22T10:58:44Z</time></trkpt><trkpt lat="38.466584787117334" lon="16.277438729029125"><ele>1019.0</ele><time>2026-03-22T10:58:45Z</time></trkpt><trkpt lat="38.46653952228091" lon="16.277290843774907"><ele>1019.0</ele><time>2026-03-22T10:58:46Z</time></trkpt><trkpt lat="38.46652346401135" lon="16.27710857244989"><ele>1019.0</ele><time>2026-03-22T10:58:47Z</time></trkpt><trkpt lat="38.4665101763038" lon="16.276898350699287"><ele>1019.3333333333334</ele><time>2026-03-22T10:58:48Z</time></trkpt><trkpt lat="38.46650629907192" lon="16.276668514564378"><ele>1019.6666666666667</ele><time>2026-03-22T10:58:49Z</time></trkpt><trkpt lat="38.46651810633027" lon="16.2764488225558"><ele>1020.0</ele><time>2026-03-22T10:58:50Z</time></trkpt><trkpt lat="38.466521229767274" lon="16.276233695410024"><ele>1019.5</ele><time>2026-03-22T10:58:51Z</time></trkpt><trkpt lat="38.466516679672985" lon="16.27603581659371"><ele>1019.0</ele><time>2026-03-22T10:58:52Z</time></trkpt><trkpt lat="38.46651876589236" lon="16.275846357701305"><ele>1018.5</ele><time>2026-03-22T10:58:53Z</time></trkpt><trkpt lat="38.46651524718209" lon="16.275683096097445"><ele>1018.0</ele><time>2026-03-22T10:58:54Z</time></trkpt><trkpt lat="38.46653907873497" lon="16.27550644199776"><ele>1016.5</ele><time>2026-03-22T10:58:55Z</time></trkpt><trkpt lat="38.46655799907601" lon="16.27535388448193"><ele>1015.0</ele><time>2026-03-22T10:58:56Z</time></trkpt><trkpt lat="38.466575282882424" lon="16.275205825115606"><ele>1013.5</ele><time>2026-03-22T10:58:57Z</time></trkpt><trkpt lat="38.46664457511845" lon="16.27505427658817"><ele>1012.0</ele><time>2026-03-22T10:58:58Z</time></trkpt><trkpt lat="38.466702156687575" lon="16.274899008534856"><ele>1010.8</ele><time>2026-03-22T10:58:59Z</time></trkpt><trkpt lat="38.46677826199376" lon="16.27474077220753"><ele>1009.6</ele><time>2026-03-22T10:59:00Z</time></trkpt><trkpt lat="38.46685845204722" lon="16.274594453755324"><ele>1008.3999999999999</ele><time>2026-03-22T10:59:01Z</time></trkpt><trkpt lat="38.466907773513476" lon="16.27449695514587"><ele>1007.1999999999999</ele><time>2026-03-22T10:59:02Z</time></trkpt><trkpt lat="38.466945025228135" lon="16.274421324428502"><ele>1006.0</ele><time>2026-03-22T10:59:03Z</time></trkpt><trkpt lat="38.466975501796504" lon="16.274341285215495"><ele>1006.0</ele><time>2026-03-22T10:59:04Z</time></trkpt><trkpt lat="38.46698787370824" lon="16.27423962202082"><ele>1005.9999999999999</ele><time>2026-03-22T10:59:05Z</time></trkpt><trkpt lat="38.46697568749795" lon="16.274144550804312"><ele>1005.9999999999999</ele><time>2026-03-22T10:59:06Z</time></trkpt><trkpt lat="38.46693462793296" lon="16.274053526032326"><ele>1006.0</ele><time>2026-03-22T10:59:07Z</time></trkpt><trkpt lat="38.46686107757745" lon="16.273961594951547"><ele>1006.0</ele><time>2026-03-22T10:59:08Z</time></trkpt><trkpt lat="38.46678412955205" lon="16.27384612778158"><ele>1007.5</ele><time>2026-03-22T10:59:09Z</time></trkpt><trkpt lat="38.4667094932303" lon="16.273756292419325"><ele>1009.0</ele><time>2026-03-22T10:59:10Z</time></trkpt><trkpt lat="38.466603743067296" lon="16.273722868230067"><ele>1010.5</ele><time>2026-03-22T10:59:11Z</time></trkpt><trkpt lat="38.46651136211723" lon="16.27368004714977"><ele>1012.0</ele><time>2026-03-22T10:59:12Z</time></trkpt><trkpt lat="38.4663562155651" lon="16.273652595874715"><ele>1012.0</ele><time>2026-03-22T10:59:13Z</time></trkpt><trkpt lat="38.46621271533623" lon="16.273653272516846"><ele>1012.0</ele><time>2026-03-22T10:59:14Z</time></trkpt><trkpt lat="38.466072498400315" lon="16.27365699427369"><ele>1012.0</ele><time>2026-03-22T10:59:15Z</time></trkpt><trkpt lat="38.46593257371537" lon="16.273662526861592"><ele>1012.0</ele><time>2026-03-22T10:59:16Z</time></trkpt><trkpt lat="38.46578648748357" lon="16.273668894589388"><ele>1012.0</ele><time>2026-03-22T10:59:17Z</time></trkpt><trkpt lat="38.46566336163608" lon="16.273673050461795"><ele>1012.0</ele><time>2026-03-22T10:59:18Z</time></trkpt><trkpt lat="38.465548921268905" lon="16.27366190387544"><ele>1012.0</ele><time>2026-03-22T10:59:19Z</time></trkpt><trkpt lat="38.46544229316484" lon="16.27364586074"><ele>1012.0</ele><time>2026-03-22T10:59:20Z</time></trkpt><trkpt lat="38.465338982899624" lon="16.27358358399594"><ele>1013.2</ele><time>2026-03-22T10:59:21Z</time></trkpt><trkpt lat="38.4652438168637" lon="16.273512823501804"><ele>1014.4000000000001</ele><time>2026-03-22T10:59:22Z</time></trkpt><trkpt lat="38.465154403730466" lon="16.27345123741652"><ele>1015.5999999999999</ele><time>2026-03-22T10:59:23Z</time></trkpt><trkpt lat="38.46507458342745" lon="16.27339634932044"><ele>1016.8</ele><time>2026-03-22T10:59:24Z</time></trkpt><trkpt lat="38.46499812100653" lon="16.273377411327246"><ele>1018.0</ele><time>2026-03-22T10:59:25Z</time></trkpt><trkpt lat="38.46490219210134" lon="16.273403614224648"><ele>1018.0</ele><time>2026-03-22T10:59:26Z</time></trkpt><trkpt lat="38.46481854597874" lon="16.273448665952635"><ele>1018.0</ele><time>2026-03-22T10:59:27Z</time></trkpt><trkpt lat="38.464748946156995" lon="16.273543207807077"><ele>1018.0</ele><time>2026-03-22T10:59:28Z</time></trkpt><trkpt lat="38.46471480192522" lon="16.27367462514681"><ele>1018.0</ele><time>2026-03-22T10:59:29Z</time></trkpt><trkpt lat="38.464710336779355" lon="16.273809845633753"><ele>1018.0</ele><time>2026-03-22T10:59:30Z</time></trkpt><trkpt lat="38.46475286120394" lon="16.27393749080641"><ele>1018.25</ele><time>2026-03-22T10:59:31Z</time></trkpt><trkpt lat="38.464806016623044" lon="16.274056764511748"><ele>1018.5</ele><time>2026-03-22T10:59:32Z</time></trkpt><trkpt lat="38.464867703018335" lon="16.274222964939984"><ele>1018.75</ele><time>2026-03-22T10:59:33Z</time></trkpt><trkpt lat="38.46494737677495" lon="16.274393741225605"><ele>1019.0</ele><time>2026-03-22T10:59:34Z</time></trkpt><trkpt lat="38.46500055327429" lon="16.274536543768242"><ele>1019.0</ele><time>2026-03-22T10:59:35Z</time></trkpt><trkpt lat="38.465042098953724" lon="16.274695079145378"><ele>1019.0</ele><time>2026-03-22T10:59:36Z</time></trkpt><trkpt lat="38.465064483974594" lon="16.274880402082573"><ele>1019.0</ele><time>2026-03-22T10:59:37Z</time></trkpt><trkpt lat="38.4650617090972" lon="16.27504396215455"><ele>1019.0</ele><time>2026-03-22T10:59:38Z</time></trkpt><trkpt lat="38.465040609573045" lon="16.27519722206168"><ele>1019.75</ele><time>2026-03-22T10:59:39.001Z</time></trkpt><trkpt lat="38.464987691800516" lon="16.275360090809208"><ele>1020.5</ele><time>2026-03-22T10:59:40.001Z</time></trkpt><trkpt lat="38.46490551116568" lon="16.275524153399573"><ele>1021.25</ele><time>2026-03-22T10:59:41.001Z</time></trkpt><trkpt lat="38.4648116290647" lon="16.275658533539776"><ele>1022.0</ele><time>2026-03-22T10:59:42.001Z</time></trkpt><trkpt lat="38.464724791618366" lon="16.275785464014966"><ele>1022.5</ele><time>2026-03-22T10:59:43.001Z</time></trkpt><trkpt lat="38.464622275717154" lon="16.275852225722353"><ele>1023.0</ele><time>2026-03-22T10:59:44.001Z</time></trkpt><trkpt lat="38.46452581355991" lon="16.275922023987047"><ele>1023.5</ele><time>2026-03-22T10:59:45.001Z</time></trkpt><trkpt lat="38.464392638609034" lon="16.275958666433972"><ele>1024.0</ele><time>2026-03-22T10:59:46.001Z</time></trkpt><trkpt lat="38.46424976663413" lon="16.27593755087251"><ele>1024.0</ele><time>2026-03-22T10:59:47.001Z</time></trkpt><trkpt lat="38.46413710231861" lon="16.27592264862777"><ele>1024.0</ele><time>2026-03-22T10:59:48.001Z</time></trkpt><trkpt lat="38.46400246316695" lon="16.275910587898167"><ele>1024.0</ele><time>2026-03-22T10:59:49.001Z</time></trkpt><trkpt lat="38.46387581505595" lon="16.275830715731267"><ele>1024.0</ele><time>2026-03-22T10:59:50.001Z</time></trkpt><trkpt lat="38.46372380990323" lon="16.275732533629064"><ele>1024.6666666666665</ele><time>2026-03-22T10:59:51.001Z</time></trkpt><trkpt lat="38.463564189470176" lon="16.27562278897177"><ele>1025.3333333333333</ele><time>2026-03-22T10:59:52.001Z</time></trkpt><trkpt lat="38.46343743568929" lon="16.275521682173"><ele>1026.0</ele><time>2026-03-22T10:59:53.001Z</time></trkpt><trkpt lat="38.463287964951235" lon="16.275426919651153"><ele>1027.0</ele><time>2026-03-22T10:59:54.001Z</time></trkpt><trkpt lat="38.46312298417274" lon="16.275323207405314"><ele>1028.0</ele><time>2026-03-22T10:59:55Z</time></trkpt><trkpt lat="38.462933910398874" lon="16.275254818034313"><ele>1029.0</ele><time>2026-03-22T10:59:56Z</time></trkpt><trkpt lat="38.462722422914496" lon="16.27518489526089"><ele>1030.3333333333333</ele><time>2026-03-22T10:59:57Z</time></trkpt><trkpt lat="38.46257528701966" lon="16.275131776824846"><ele>1031.6666666666665</ele><time>2026-03-22T10:59:58Z</time></trkpt><trkpt lat="38.46242463276258" lon="16.27506912207031"><ele>1033.0</ele><time>2026-03-22T10:59:59Z</time></trkpt><trkpt lat="38.46229263890258" lon="16.27499408735671"><ele>1033.0</ele><time>2026-03-22T11:00:00Z</time></trkpt><trkpt lat="38.46216032419799" lon="16.27489626352976"><ele>1033.0</ele><time>2026-03-22T11:00:01Z</time></trkpt><trkpt lat="38.46203693008342" lon="16.274801224130073"><ele>1033.0</ele><time>2026-03-22T11:00:02Z</time></trkpt><trkpt lat="38.46191129208178" lon="16.274701395515304"><ele>1033.0</ele><time>2026-03-22T11:00:03Z</time></trkpt><trkpt lat="38.46179834353464" lon="16.274618992834718"><ele>1035.0</ele><time>2026-03-22T11:00:04Z</time></trkpt><trkpt lat="38.46166624948211" lon="16.27453979409107"><ele>1037.0</ele><time>2026-03-22T11:00:05Z</time></trkpt><trkpt lat="38.46151903676809" lon="16.27447793207923"><ele>1039.0</ele><time>2026-03-22T11:00:06Z</time></trkpt><trkpt lat="38.461364769229135" lon="16.274408040495747"><ele>1037.3333333333333</ele><time>2026-03-22T11:00:07Z</time></trkpt><trkpt lat="38.46120281934768" lon="16.274366599551232"><ele>1035.6666666666667</ele><time>2026-03-22T11:00:08Z</time></trkpt><trkpt lat="38.46105321237656" lon="16.274335925958816"><ele>1034.0</ele><time>2026-03-22T11:00:09Z</time></trkpt><trkpt lat="38.46090754381371" lon="16.274312915899156"><ele>1034.0</ele><time>2026-03-22T11:00:10Z</time></trkpt><trkpt lat="38.46077556878849" lon="16.274298653319054"><ele>1034.0</ele><time>2026-03-22T11:00:11Z</time></trkpt><trkpt lat="38.460656383595044" lon="16.274283387388518"><ele>1034.0</ele><time>2026-03-22T11:00:12Z</time></trkpt><trkpt lat="38.46054838149348" lon="16.274276944555584"><ele>1034.0</ele><time>2026-03-22T11:00:13Z</time></trkpt><trkpt lat="38.46047431326474" lon="16.274232386211242"><ele>1034.0</ele><time>2026-03-22T11:00:14Z</time></trkpt><trkpt lat="38.46040880222805" lon="16.274167318553232"><ele>1032.4</ele><time>2026-03-22T11:00:15Z</time></trkpt><trkpt lat="38.4603334186577" lon="16.274062398787137"><ele>1030.8000000000002</ele><time>2026-03-22T11:00:16Z</time></trkpt><trkpt lat="38.46025997769456" lon="16.273962058575624"><ele>1029.1999999999998</ele><time>2026-03-22T11:00:17Z</time></trkpt><trkpt lat="38.46027998555058" lon="16.27383724315701"><ele>1027.6</ele><time>2026-03-22T11:00:18Z</time></trkpt><trkpt lat="38.46027667108284" lon="16.27371199512689"><ele>1026.0</ele><time>2026-03-22T11:00:19Z</time></trkpt><trkpt lat="38.460314366175474" lon="16.273598379364422"><ele>1025.25</ele><time>2026-03-22T11:00:20Z</time></trkpt><trkpt lat="38.460380757802824" lon="16.273440001381413"><ele>1024.5</ele><time>2026-03-22T11:00:21Z</time></trkpt><trkpt lat="38.46047316355857" lon="16.273290432465455"><ele>1023.75</ele><time>2026-03-22T11:00:22Z</time></trkpt><trkpt lat="38.46055764008003" lon="16.27315425051425"><ele>1023.0</ele><time>2026-03-22T11:00:23Z</time></trkpt><trkpt lat="38.460626749887325" lon="16.27303240986382"><ele>1024.4</ele><time>2026-03-22T11:00:24Z</time></trkpt><trkpt lat="38.46067305118913" lon="16.272904928845737"><ele>1025.8</ele><time>2026-03-22T11:00:25Z</time></trkpt><trkpt lat="38.46068937512025" lon="16.272786603568743"><ele>1027.2</ele><time>2026-03-22T11:00:26Z</time></trkpt><trkpt lat="38.46067522386283" lon="16.27264382315724"><ele>1028.6</ele><time>2026-03-22T11:00:27Z</time></trkpt><trkpt lat="38.46063070839892" lon="16.272517004982053"><ele>1030.0</ele><time>2026-03-22T11:00:28Z</time></trkpt><trkpt lat="38.460567534830325" lon="16.27238456406331"><ele>1031.0</ele><time>2026-03-22T11:00:29Z</time></trkpt><trkpt lat="38.46049232750213" lon="16.272242648715018"><ele>1032.0</ele><time>2026-03-22T11:00:30Z</time></trkpt><trkpt lat="38.460403607395016" lon="16.272096861928663"><ele>1033.0</ele><time>2026-03-22T11:00:31Z</time></trkpt><trkpt lat="38.460294855883724" lon="16.27198013006919"><ele>1034.0</ele><time>2026-03-22T11:00:32Z</time></trkpt><trkpt lat="38.460178829719744" lon="16.27184714810862"><ele>1034.0</ele><time>2026-03-22T11:00:33Z</time></trkpt><trkpt lat="38.4600215536182" lon="16.271730500472586"><ele>1034.0</ele><time>2026-03-22T11:00:34Z</time></trkpt><trkpt lat="38.45987522204032" lon="16.27160439067301"><ele>1034.0</ele><time>2026-03-22T11:00:35Z</time></trkpt><trkpt lat="38.459719703021655" lon="16.271454981117603"><ele>1035.3333333333335</ele><time>2026-03-22T11:00:36Z</time></trkpt><trkpt lat="38.459582710062506" lon="16.271329209417228"><ele>1036.6666666666667</ele><time>2026-03-22T11:00:37Z</time></trkpt><trkpt lat="38.45944426244014" lon="16.27121298729507"><ele>1038.0</ele><time>2026-03-22T11:00:38Z</time></trkpt><trkpt lat="38.459295065476454" lon="16.271059422360718"><ele>1038.0</ele><time>2026-03-22T11:00:39Z</time></trkpt><trkpt lat="38.45912666823695" lon="16.270921812345705"><ele>1038.0</ele><time>2026-03-22T11:00:40Z</time></trkpt><trkpt lat="38.45895136934786" lon="16.270803053421243"><ele>1038.0</ele><time>2026-03-22T11:00:41Z</time></trkpt><trkpt lat="38.45877326587067" lon="16.270779697243555"><ele>1036.3333333333333</ele><time>2026-03-22T11:00:42Z</time></trkpt><trkpt lat="38.45858854992181" lon="16.27071048304691"><ele>1034.6666666666665</ele><time>2026-03-22T11:00:43Z</time></trkpt><trkpt lat="38.45837981631998" lon="16.270564446811644"><ele>1033.0</ele><time>2026-03-22T11:00:44Z</time></trkpt><trkpt lat="38.45814928114839" lon="16.270454887728892"><ele>1036.6666666666665</ele><time>2026-03-22T11:00:45Z</time></trkpt><trkpt lat="38.45796268537369" lon="16.27035682602925"><ele>1040.3333333333333</ele><time>2026-03-22T11:00:46Z</time></trkpt><trkpt lat="38.45781191682853" lon="16.270291505234404"><ele>1044.0</ele><time>2026-03-22T11:00:47Z</time></trkpt><trkpt lat="38.45765597966856" lon="16.27022217408006"><ele>1044.3333333333333</ele><time>2026-03-22T11:00:48Z</time></trkpt><trkpt lat="38.45750206571627" lon="16.270151402967187"><ele>1044.6666666666665</ele><time>2026-03-22T11:00:49Z</time></trkpt><trkpt lat="38.45735030708682" lon="16.270077811421686"><ele>1045.0</ele><time>2026-03-22T11:00:50Z</time></trkpt><trkpt lat="38.45720929741679" lon="16.269970765879037"><ele>1044.3333333333333</ele><time>2026-03-22T11:00:51Z</time></trkpt><trkpt lat="38.45706114730925" lon="16.26987082611241"><ele>1043.6666666666667</ele><time>2026-03-22T11:00:52Z</time></trkpt><trkpt lat="38.45688915675518" lon="16.269766962014018"><ele>1043.0</ele><time>2026-03-22T11:00:53Z</time></trkpt><trkpt lat="38.45671216761889" lon="16.269655640279534"><ele>1043.25</ele><time>2026-03-22T11:00:54Z</time></trkpt><trkpt lat="38.456572583519666" lon="16.26955744081795"><ele>1043.5</ele><time>2026-03-22T11:00:55Z</time></trkpt><trkpt lat="38.45644768872233" lon="16.26946486218982"><ele>1043.75</ele><time>2026-03-22T11:00:56Z</time></trkpt><trkpt lat="38.45634209330486" lon="16.26936843366846"><ele>1044.0</ele><time>2026-03-22T11:00:57Z</time></trkpt><trkpt lat="38.45624636732044" lon="16.269273681241312"><ele>1044.0</ele><time>2026-03-22T11:00:58Z</time></trkpt><trkpt lat="38.45612905284754" lon="16.26919587523658"><ele>1044.0</ele><time>2026-03-22T11:00:59Z</time></trkpt><trkpt lat="38.45598451899849" lon="16.26915640786286"><ele>1044.0</ele><time>2026-03-22T11:01:00Z</time></trkpt><trkpt lat="38.455824147183094" lon="16.269150216635172"><ele>1044.0</ele><time>2026-03-22T11:01:01Z</time></trkpt><trkpt lat="38.45566263811237" lon="16.26917953589534"><ele>1044.0</ele><time>2026-03-22T11:01:02Z</time></trkpt><trkpt lat="38.45548346378924" lon="16.26924855304118"><ele>1044.0</ele><time>2026-03-22T11:01:03Z</time></trkpt><trkpt lat="38.455309255435246" lon="16.269321493739884"><ele>1044.0</ele><time>2026-03-22T11:01:04Z</time></trkpt><trkpt lat="38.45515722876211" lon="16.269411851976724"><ele>1044.25</ele><time>2026-03-22T11:01:05Z</time></trkpt><trkpt lat="38.45500622606049" lon="16.269485512601147"><ele>1044.5</ele><time>2026-03-22T11:01:06Z</time></trkpt><trkpt lat="38.454886351947216" lon="16.269551476712817"><ele>1044.75</ele><time>2026-03-22T11:01:07Z</time></trkpt><trkpt lat="38.45473998976202" lon="16.269587456945388"><ele>1045.0</ele><time>2026-03-22T11:01:08Z</time></trkpt><trkpt lat="38.45456097971963" lon="16.269573275914784"><ele>1045.0</ele><time>2026-03-22T11:01:09Z</time></trkpt><trkpt lat="38.454394878181496" lon="16.26958161498617"><ele>1045.0</ele><time>2026-03-22T11:01:10Z</time></trkpt><trkpt lat="38.454221936194024" lon="16.26958592391835"><ele>1045.0</ele><time>2026-03-22T11:01:11Z</time></trkpt><trkpt lat="38.4540512891973" lon="16.269584154807013"><ele>1045.0</ele><time>2026-03-22T11:01:12Z</time></trkpt><trkpt lat="38.45390352721582" lon="16.26959178197393"><ele>1045.0</ele><time>2026-03-22T11:01:13Z</time></trkpt><trkpt lat="38.453761520401386" lon="16.269588850177794"><ele>1045.0</ele><time>2026-03-22T11:01:14Z</time></trkpt><trkpt lat="38.45362933089931" lon="16.269573009482926"><ele>1045.0</ele><time>2026-03-22T11:01:15Z</time></trkpt><trkpt lat="38.453500311758184" lon="16.269536346874183"><ele>1044.6666666666665</ele><time>2026-03-22T11:01:16Z</time></trkpt><trkpt lat="38.4533725296756" lon="16.269478879882353"><ele>1044.3333333333333</ele><time>2026-03-22T11:01:17Z</time></trkpt><trkpt lat="38.45323148883776" lon="16.269402698197894"><ele>1044.0</ele><time>2026-03-22T11:01:18Z</time></trkpt><trkpt lat="38.45307258927524" lon="16.269304139277587"><ele>1045.6666666666667</ele><time>2026-03-22T11:01:19Z</time></trkpt><trkpt lat="38.452903444934805" lon="16.269193425027037"><ele>1047.3333333333335</ele><time>2026-03-22T11:01:20Z</time></trkpt><trkpt lat="38.45273043866647" lon="16.269085624177322"><ele>1049.0</ele><time>2026-03-22T11:01:21Z</time></trkpt><trkpt lat="38.45257337889477" lon="16.26897641608671"><ele>1048.75</ele><time>2026-03-22T11:01:22Z</time></trkpt><trkpt lat="38.45242995650068" lon="16.268878025650903"><ele>1048.5</ele><time>2026-03-22T11:01:23Z</time></trkpt><trkpt lat="38.45229642846313" lon="16.268796538515286"><ele>1048.25</ele><time>2026-03-22T11:01:24Z</time></trkpt><trkpt lat="38.45217620694255" lon="16.26871269255683"><ele>1048.0</ele><time>2026-03-22T11:01:25Z</time></trkpt><trkpt lat="38.452066531217994" lon="16.26864117168216"><ele>1049.0</ele><time>2026-03-22T11:01:26Z</time></trkpt><trkpt lat="38.45196793574275" lon="16.268579126599064"><ele>1050.0</ele><time>2026-03-22T11:01:27Z</time></trkpt><trkpt lat="38.45189534984961" lon="16.268523419123024"><ele>1051.0</ele><time>2026-03-22T11:01:28Z</time></trkpt><trkpt lat="38.45180157386574" lon="16.268430780817706"><ele>1052.0</ele><time>2026-03-22T11:01:30Z</time></trkpt><trkpt lat="38.451727600112804" lon="16.26826152175601"><ele>1052.0</ele><time>2026-03-22T11:01:32Z</time></trkpt><trkpt lat="38.45170163003756" lon="16.26814794307036"><ele>1052.0</ele><time>2026-03-22T11:01:33Z</time></trkpt><trkpt lat="38.45167137418145" lon="16.267995667998903"><ele>1052.0</ele><time>2026-03-22T11:01:34Z</time></trkpt><trkpt lat="38.45164676993989" lon="16.267854887542263"><ele>1052.0</ele><time>2026-03-22T11:01:35Z</time></trkpt><trkpt lat="38.45161791257025" lon="16.26774620918524"><ele>1052.0</ele><time>2026-03-22T11:01:36Z</time></trkpt><trkpt lat="38.451606171433845" lon="16.26762876201852"><ele>1052.0</ele><time>2026-03-22T11:01:37Z</time></trkpt><trkpt lat="38.45156436862248" lon="16.267525493015587"><ele>1052.0</ele><time>2026-03-22T11:01:38Z</time></trkpt><trkpt lat="38.451512115400476" lon="16.267435852139908"><ele>1052.0</ele><time>2026-03-22T11:01:39Z</time></trkpt><trkpt lat="38.45143717847901" lon="16.267366737987167"><ele>1052.0</ele><time>2026-03-22T11:01:40Z</time></trkpt><trkpt lat="38.451359061771754" lon="16.267287424300733"><ele>1052.0</ele><time>2026-03-22T11:01:41Z</time></trkpt><trkpt lat="38.451250369772616" lon="16.267229023401466"><ele>1052.6</ele><time>2026-03-22T11:01:42Z</time></trkpt><trkpt lat="38.45115639204007" lon="16.267180327620828"><ele>1053.2</ele><time>2026-03-22T11:01:43Z</time></trkpt><trkpt lat="38.451074381088375" lon="16.267139449087807"><ele>1053.8</ele><time>2026-03-22T11:01:44Z</time></trkpt><trkpt lat="38.45099419543915" lon="16.267099793466446"><ele>1054.4</ele><time>2026-03-22T11:01:45Z</time></trkpt><trkpt lat="38.450895554708396" lon="16.267064138376714"><ele>1055.0</ele><time>2026-03-22T11:01:46Z</time></trkpt><trkpt lat="38.45078626720425" lon="16.267075593344426"><ele>1055.0</ele><time>2026-03-22T11:01:47Z</time></trkpt><trkpt lat="38.45066550846953" lon="16.267116070576712"><ele>1055.0</ele><time>2026-03-22T11:01:48Z</time></trkpt><trkpt lat="38.450578265560985" lon="16.267167478404605"><ele>1055.0</ele><time>2026-03-22T11:01:49Z</time></trkpt><trkpt lat="38.45050660563119" lon="16.267231736475082"><ele>1055.0</ele><time>2026-03-22T11:01:50Z</time></trkpt><trkpt lat="38.450451117394394" lon="16.2673472701877"><ele>1055.0</ele><time>2026-03-22T11:01:51Z</time></trkpt><trkpt lat="38.45045297822821" lon="16.26747262937923"><ele>1054.8</ele><time>2026-03-22T11:01:52Z</time></trkpt><trkpt lat="38.45049020229614" lon="16.267611372531647"><ele>1054.6</ele><time>2026-03-22T11:01:53Z</time></trkpt><trkpt lat="38.45051132527173" lon="16.26773824083516"><ele>1054.4</ele><time>2026-03-22T11:01:54Z</time></trkpt><trkpt lat="38.450541501717275" lon="16.267862079203407"><ele>1054.2</ele><time>2026-03-22T11:01:55Z</time></trkpt><trkpt lat="38.45052252691279" lon="16.268004747870968"><ele>1054.0</ele><time>2026-03-22T11:01:56Z</time></trkpt><trkpt lat="38.45050620166749" lon="16.26815838658259"><ele>1057.5</ele><time>2026-03-22T11:01:57Z</time></trkpt><trkpt lat="38.45044891010879" lon="16.268341646832056"><ele>1061.0</ele><time>2026-03-22T11:01:58Z</time></trkpt><trkpt lat="38.45041574744763" lon="16.26849383246745"><ele>1064.5</ele><time>2026-03-22T11:01:59Z</time></trkpt><trkpt lat="38.45041260084647" lon="16.268652318586973"><ele>1068.0</ele><time>2026-03-22T11:02:00Z</time></trkpt><trkpt lat="38.450376008656235" lon="16.268810111221775"><ele>1068.0</ele><time>2026-03-22T11:02:01Z</time></trkpt><trkpt lat="38.450303533151086" lon="16.268921513008387"><ele>1068.0</ele><time>2026-03-22T11:02:02Z</time></trkpt><trkpt lat="38.450241426230036" lon="16.269014541771345"><ele>1068.0</ele><time>2026-03-22T11:02:03Z</time></trkpt><trkpt lat="38.45015583950232" lon="16.26906452894714"><ele>1068.0</ele><time>2026-03-22T11:02:04Z</time></trkpt><trkpt lat="38.450057815133825" lon="16.269071277560126"><ele>1068.0</ele><time>2026-03-22T11:02:05Z</time></trkpt><trkpt lat="38.44995628481728" lon="16.269046911738265"><ele>1068.0</ele><time>2026-03-22T11:02:06Z</time></trkpt><trkpt lat="38.44983729594125" lon="16.26900876240428"><ele>1068.0</ele><time>2026-03-22T11:02:07Z</time></trkpt><trkpt lat="38.449677894828234" lon="16.26895552268953"><ele>1068.0</ele><time>2026-03-22T11:02:08Z</time></trkpt><trkpt lat="38.44951563127775" lon="16.26889510108892"><ele>1068.0</ele><time>2026-03-22T11:02:09Z</time></trkpt><trkpt lat="38.44934489410152" lon="16.26883170695837"><ele>1068.0</ele><time>2026-03-22T11:02:10Z</time></trkpt><trkpt lat="38.44921711714089" lon="16.268784924314836"><ele>1068.0</ele><time>2026-03-22T11:02:11Z</time></trkpt><trkpt lat="38.449116328039345" lon="16.26874873944455"><ele>1068.0</ele><time>2026-03-22T11:02:12Z</time></trkpt><trkpt lat="38.449038925501696" lon="16.268725660576084"><ele>1068.0</ele><time>2026-03-22T11:02:13Z</time></trkpt><trkpt lat="38.44895733823401" lon="16.268713509950782"><ele>1068.0</ele><time>2026-03-22T11:02:14Z</time></trkpt><trkpt lat="38.448861478392864" lon="16.268740853860084"><ele>1068.0</ele><time>2026-03-22T11:02:15Z</time></trkpt><trkpt lat="38.44876216600858" lon="16.268851972547232"><ele>1068.0</ele><time>2026-03-22T11:02:16Z</time></trkpt><trkpt lat="38.44871117343988" lon="16.269018995309633"><ele>1069.75</ele><time>2026-03-22T11:02:17Z</time></trkpt><trkpt lat="38.44867871858419" lon="16.269195411007008"><ele>1071.5</ele><time>2026-03-22T11:02:18Z</time></trkpt><trkpt lat="38.44866617980452" lon="16.269366468376887"><ele>1073.25</ele><time>2026-03-22T11:02:19Z</time></trkpt><trkpt lat="38.44865901483095" lon="16.269543801858028"><ele>1075.0</ele><time>2026-03-22T11:02:20Z</time></trkpt><trkpt lat="38.448648534897735" lon="16.269708161535412"><ele>1072.5</ele><time>2026-03-22T11:02:21Z</time></trkpt><trkpt lat="38.448632262333746" lon="16.269866620787678"><ele>1070.0</ele><time>2026-03-22T11:02:22Z</time></trkpt><trkpt lat="38.44860210616722" lon="16.269991262087615"><ele>1067.5</ele><time>2026-03-22T11:02:23Z</time></trkpt><trkpt lat="38.448471993921586" lon="16.270110547493783"><ele>1065.0</ele><time>2026-03-22T11:02:25Z</time></trkpt><trkpt lat="38.448378410201485" lon="16.270116521996638"><ele>1065.0</ele><time>2026-03-22T11:02:26Z</time></trkpt><trkpt lat="38.44829319025877" lon="16.2700615523913"><ele>1065.0</ele><time>2026-03-22T11:02:27Z</time></trkpt><trkpt lat="38.44822105303307" lon="16.269954684830065"><ele>1065.0</ele><time>2026-03-22T11:02:28Z</time></trkpt><trkpt lat="38.448131870291014" lon="16.269827436905373"><ele>1065.0</ele><time>2026-03-22T11:02:29Z</time></trkpt><trkpt lat="38.4480724754183" lon="16.26964759633543"><ele>1067.5</ele><time>2026-03-22T11:02:30Z</time></trkpt><trkpt lat="38.44800754493436" lon="16.26944564999455"><ele>1070.0</ele><time>2026-03-22T11:02:31Z</time></trkpt><trkpt lat="38.447971833885454" lon="16.269269122928733"><ele>1072.5</ele><time>2026-03-22T11:02:32Z</time></trkpt><trkpt lat="38.447957339468125" lon="16.269123378696086"><ele>1075.0</ele><time>2026-03-22T11:02:33Z</time></trkpt><trkpt lat="38.447968800533026" lon="16.26892263551258"><ele>1077.0</ele><time>2026-03-22T11:02:34Z</time></trkpt><trkpt lat="38.44799244565767" lon="16.26870672731467"><ele>1079.0</ele><time>2026-03-22T11:02:35Z</time></trkpt><trkpt lat="38.44802188661635" lon="16.268544018952"><ele>1081.0</ele><time>2026-03-22T11:02:36Z</time></trkpt><trkpt lat="38.44806650475165" lon="16.26841350366803"><ele>1083.0</ele><time>2026-03-22T11:02:37Z</time></trkpt><trkpt lat="38.44808901038628" lon="16.26830547445676"><ele>1083.0</ele><time>2026-03-22T11:02:38Z</time></trkpt><trkpt lat="38.44806568584408" lon="16.26821503399413"><ele>1083.0</ele><time>2026-03-22T11:02:39Z</time></trkpt><trkpt lat="38.44802917187103" lon="16.268114728070646"><ele>1083.0</ele><time>2026-03-22T11:02:40Z</time></trkpt><trkpt lat="38.44796303319767" lon="16.26805402420409"><ele>1083.0</ele><time>2026-03-22T11:02:41Z</time></trkpt><trkpt lat="38.44786326742821" lon="16.268045961359167"><ele>1083.0</ele><time>2026-03-22T11:02:42Z</time></trkpt><trkpt lat="38.44775233657636" lon="16.26807762212021"><ele>1084.6</ele><time>2026-03-22T11:02:43Z</time></trkpt><trkpt lat="38.44769032542477" lon="16.26814509547159"><ele>1086.1999999999998</ele><time>2026-03-22T11:02:44Z</time></trkpt><trkpt lat="38.44762889514156" lon="16.268247037916318"><ele>1087.8</ele><time>2026-03-22T11:02:45Z</time></trkpt><trkpt lat="38.44757430871205" lon="16.268408242846547"><ele>1089.3999999999999</ele><time>2026-03-22T11:02:46Z</time></trkpt><trkpt lat="38.447534117652886" lon="16.268553605665204"><ele>1091.0</ele><time>2026-03-22T11:02:47Z</time></trkpt><trkpt lat="38.44749273717109" lon="16.268687052220333"><ele>1091.0</ele><time>2026-03-22T11:02:48Z</time></trkpt><trkpt lat="38.447450667523334" lon="16.268755652266492"><ele>1091.0</ele><time>2026-03-22T11:02:49Z</time></trkpt><trkpt lat="38.44740161488758" lon="16.268821348637836"><ele>1091.0</ele><time>2026-03-22T11:02:50Z</time></trkpt><trkpt lat="38.44732048040238" lon="16.268847770818788"><ele>1091.0</ele><time>2026-03-22T11:02:51Z</time></trkpt><trkpt lat="38.44721073392336" lon="16.26885532248309"><ele>1091.0</ele><time>2026-03-22T11:02:52Z</time></trkpt><trkpt lat="38.44712793945161" lon="16.268786638388505"><ele>1091.0</ele><time>2026-03-22T11:02:53Z</time></trkpt><trkpt lat="38.447008668126195" lon="16.26866210701864"><ele>1092.75</ele><time>2026-03-22T11:02:54Z</time></trkpt><trkpt lat="38.44689178444292" lon="16.268623433315557"><ele>1094.5</ele><time>2026-03-22T11:02:55Z</time></trkpt><trkpt lat="38.44674607323545" lon="16.268612547604334"><ele>1096.25</ele><time>2026-03-22T11:02:56Z</time></trkpt><trkpt lat="38.446641552668126" lon="16.268620288552956"><ele>1098.0</ele><time>2026-03-22T11:02:57Z</time></trkpt><trkpt lat="38.44655449949351" lon="16.268666394517503"><ele>1098.0</ele><time>2026-03-22T11:02:58Z</time></trkpt><trkpt lat="38.44647723769411" lon="16.268704775682213"><ele>1098.0</ele><time>2026-03-22T11:02:59Z</time></trkpt><trkpt lat="38.44640771556625" lon="16.26875770978446"><ele>1098.0</ele><time>2026-03-22T11:03:00Z</time></trkpt><trkpt lat="38.44635416541386" lon="16.268891511687723"><ele>1098.0</ele><time>2026-03-22T11:03:01Z</time></trkpt><trkpt lat="38.44636530610394" lon="16.269051478863805"><ele>1098.0</ele><time>2026-03-22T11:03:02Z</time></trkpt><trkpt lat="38.44635942397863" lon="16.269211416689703"><ele>1096.0</ele><time>2026-03-22T11:03:03Z</time></trkpt><trkpt lat="38.44635794969465" lon="16.269375023813154"><ele>1094.0</ele><time>2026-03-22T11:03:04Z</time></trkpt><trkpt lat="38.44636177978309" lon="16.269521805105846"><ele>1092.0</ele><time>2026-03-22T11:03:05Z</time></trkpt><trkpt lat="38.446393049602214" lon="16.269675574707986"><ele>1090.0</ele><time>2026-03-22T11:03:06Z</time></trkpt><trkpt lat="38.44649874795839" lon="16.26976927655619"><ele>1089.4</ele><time>2026-03-22T11:03:07Z</time></trkpt><trkpt lat="38.446489534865876" lon="16.269872703147932"><ele>1088.8</ele><time>2026-03-22T11:03:08Z</time></trkpt><trkpt lat="38.44648723561312" lon="16.2699942317632"><ele>1088.2</ele><time>2026-03-22T11:03:09Z</time></trkpt><trkpt lat="38.446493082887336" lon="16.270101554132403"><ele>1087.6</ele><time>2026-03-22T11:03:10Z</time></trkpt><trkpt lat="38.44643165886197" lon="16.27021112152417"><ele>1087.0</ele><time>2026-03-22T11:03:11Z</time></trkpt><trkpt lat="38.44635758495195" lon="16.270271413962764"><ele>1090.0</ele><time>2026-03-22T11:03:12Z</time></trkpt><trkpt lat="38.446220272080225" lon="16.27033782256239"><ele>1093.0</ele><time>2026-03-22T11:03:13Z</time></trkpt><trkpt lat="38.44609614368082" lon="16.270435795504447"><ele>1096.0</ele><time>2026-03-22T11:03:14Z</time></trkpt><trkpt lat="38.445987284495686" lon="16.270577859293955"><ele>1099.0</ele><time>2026-03-22T11:03:15Z</time></trkpt><trkpt lat="38.44590167484085" lon="16.27070211254258"><ele>1099.0</ele><time>2026-03-22T11:03:16Z</time></trkpt><trkpt lat="38.445813677021185" lon="16.270810343289828"><ele>1099.0</ele><time>2026-03-22T11:03:17Z</time></trkpt><trkpt lat="38.44572513854861" lon="16.27086288055193"><ele>1099.0</ele><time>2026-03-22T11:03:18Z</time></trkpt><trkpt lat="38.44563379355437" lon="16.27087688271449"><ele>1099.0</ele><time>2026-03-22T11:03:19Z</time></trkpt><trkpt lat="38.445563937213116" lon="16.27086585418136"><ele>1099.0</ele><time>2026-03-22T11:03:20Z</time></trkpt><trkpt lat="38.44547273018331" lon="16.27085225824753"><ele>1099.75</ele><time>2026-03-22T11:03:21Z</time></trkpt><trkpt lat="38.44538299988936" lon="16.2708146619056"><ele>1100.5</ele><time>2026-03-22T11:03:22Z</time></trkpt><trkpt lat="38.44529126593443" lon="16.270730765999353"><ele>1101.25</ele><time>2026-03-22T11:03:23Z</time></trkpt><trkpt lat="38.445188307044276" lon="16.270628578505864"><ele>1102.0</ele><time>2026-03-22T11:03:24Z</time></trkpt><trkpt lat="38.44507901310203" lon="16.270520952771403"><ele>1103.4</ele><time>2026-03-22T11:03:25Z</time></trkpt><trkpt lat="38.444990186925" lon="16.270408902546652"><ele>1104.8000000000002</ele><time>2026-03-22T11:03:26Z</time></trkpt><trkpt lat="38.444899454268516" lon="16.2703102317993"><ele>1106.2</ele><time>2026-03-22T11:03:27Z</time></trkpt><trkpt lat="38.444811469268586" lon="16.27024225215432"><ele>1107.6000000000001</ele><time>2026-03-22T11:03:28Z</time></trkpt><trkpt lat="38.44472619076014" lon="16.270193608610843"><ele>1109.0</ele><time>2026-03-22T11:03:29Z</time></trkpt><trkpt lat="38.44459715694532" lon="16.27018385088008"><ele>1110.8</ele><time>2026-03-22T11:03:30Z</time></trkpt><trkpt lat="38.44448973443977" lon="16.27019441280384"><ele>1112.6000000000001</ele><time>2026-03-22T11:03:31Z</time></trkpt><trkpt lat="38.44437694611956" lon="16.27019701890391"><ele>1114.4</ele><time>2026-03-22T11:03:32Z</time></trkpt><trkpt lat="38.44429394343472" lon="16.270259191402005"><ele>1116.2</ele><time>2026-03-22T11:03:33Z</time></trkpt><trkpt lat="38.44422319173482" lon="16.270338606303632"><ele>1118.0</ele><time>2026-03-22T11:03:34Z</time></trkpt><trkpt lat="38.44419118035768" lon="16.270502470399784"><ele>1115.6666666666667</ele><time>2026-03-22T11:03:35Z</time></trkpt><trkpt lat="38.444180031207516" lon="16.270671644040135"><ele>1113.3333333333333</ele><time>2026-03-22T11:03:36Z</time></trkpt><trkpt lat="38.444167957483565" lon="16.270883677941068"><ele>1111.0</ele><time>2026-03-22T11:03:37Z</time></trkpt><trkpt lat="38.44415139837551" lon="16.271152995422344"><ele>1111.0</ele><time>2026-03-22T11:03:38Z</time></trkpt><trkpt lat="38.4441295115825" lon="16.271340779595295"><ele>1111.0</ele><time>2026-03-22T11:03:39Z</time></trkpt><trkpt lat="38.444102602369355" lon="16.27151261430572"><ele>1111.0</ele><time>2026-03-22T11:03:40Z</time></trkpt><trkpt lat="38.44408882888625" lon="16.27164778893853"><ele>1111.0</ele><time>2026-03-22T11:03:41Z</time></trkpt><trkpt lat="38.44407219713432" lon="16.271781410895514"><ele>1110.3999999999999</ele><time>2026-03-22T11:03:42Z</time></trkpt><trkpt lat="38.444053514790546" lon="16.27189648622812"><ele>1109.8</ele><time>2026-03-22T11:03:43Z</time></trkpt><trkpt lat="38.44400915578308" lon="16.272024999977255"><ele>1109.1999999999998</ele><time>2026-03-22T11:03:44Z</time></trkpt><trkpt lat="38.44393049647" lon="16.272130754987863"><ele>1108.6</ele><time>2026-03-22T11:03:45Z</time></trkpt><trkpt lat="38.44387173108569" lon="16.272203405285037"><ele>1108.0</ele><time>2026-03-22T11:03:46Z</time></trkpt><trkpt lat="38.44379412248862" lon="16.272280664487273"><ele>1107.25</ele><time>2026-03-22T11:03:47Z</time></trkpt><trkpt lat="38.44370019997859" lon="16.27232935542317"><ele>1106.5</ele><time>2026-03-22T11:03:48Z</time></trkpt><trkpt lat="38.443597051865325" lon="16.27238161809191"><ele>1105.75</ele><time>2026-03-22T11:03:49Z</time></trkpt><trkpt lat="38.443475963856336" lon="16.27244864425846"><ele>1105.0</ele><time>2026-03-22T11:03:50Z</time></trkpt><trkpt lat="38.44334200728628" lon="16.272521546849838"><ele>1105.0</ele><time>2026-03-22T11:03:51Z</time></trkpt><trkpt lat="38.44321830957014" lon="16.272599595144296"><ele>1105.0</ele><time>2026-03-22T11:03:52Z</time></trkpt><trkpt lat="38.443107118409316" lon="16.272661318869105"><ele>1105.0</ele><time>2026-03-22T11:03:53Z</time></trkpt><trkpt lat="38.44296835377457" lon="16.272728679171085"><ele>1105.0</ele><time>2026-03-22T11:03:54Z</time></trkpt><trkpt lat="38.442831435615204" lon="16.2727997951561"><ele>1103.6666666666665</ele><time>2026-03-22T11:03:55Z</time></trkpt><trkpt lat="38.44266392807214" lon="16.272876958118154"><ele>1102.3333333333333</ele><time>2026-03-22T11:03:56Z</time></trkpt><trkpt lat="38.442531397654115" lon="16.272981263137368"><ele>1101.0</ele><time>2026-03-22T11:03:57Z</time></trkpt><trkpt lat="38.44240381898414" lon="16.27304093394492"><ele>1103.25</ele><time>2026-03-22T11:03:58Z</time></trkpt><trkpt lat="38.44228399644423" lon="16.27310826508335"><ele>1105.5</ele><time>2026-03-22T11:03:59.001Z</time></trkpt><trkpt lat="38.44217331722444" lon="16.273193049003865"><ele>1107.75</ele><time>2026-03-22T11:04:00.001Z</time></trkpt><trkpt lat="38.44205202199799" lon="16.27324249767635"><ele>1110.0</ele><time>2026-03-22T11:04:01.001Z</time></trkpt><trkpt lat="38.44194252335262" lon="16.273295563434914"><ele>1110.0</ele><time>2026-03-22T11:04:02.001Z</time></trkpt><trkpt lat="38.441846990270044" lon="16.273359386734395"><ele>1110.0</ele><time>2026-03-22T11:04:03.001Z</time></trkpt><trkpt lat="38.44175465223573" lon="16.273409306854248"><ele>1110.0</ele><time>2026-03-22T11:04:04.001Z</time></trkpt><trkpt lat="38.44167165809795" lon="16.27344534176207"><ele>1110.0</ele><time>2026-03-22T11:04:05.001Z</time></trkpt><trkpt lat="38.441601711685784" lon="16.27346741088009"><ele>1110.0</ele><time>2026-03-22T11:04:06.001Z</time></trkpt><trkpt lat="38.441541208983494" lon="16.27349137667615"><ele>1110.0</ele><time>2026-03-22T11:04:07.001Z</time></trkpt><trkpt lat="38.44142667912788" lon="16.273461391730482"><ele>1110.0</ele><time>2026-03-22T11:04:09Z</time></trkpt><trkpt lat="38.4413658333756" lon="16.273424068889945"><ele>1110.0</ele><time>2026-03-22T11:04:10Z</time></trkpt><trkpt lat="38.4412864776285" lon="16.273354331286537"><ele>1110.0</ele><time>2026-03-22T11:04:11Z</time></trkpt><trkpt lat="38.44122814633955" lon="16.273280918750338"><ele>1110.0</ele><time>2026-03-22T11:04:12Z</time></trkpt><trkpt lat="38.44116978434043" lon="16.273205320808593"><ele>1110.0</ele><time>2026-03-22T11:04:13Z</time></trkpt><trkpt lat="38.441129793376454" lon="16.273124108838307"><ele>1110.0</ele><time>2026-03-22T11:04:14Z</time></trkpt><trkpt lat="38.441094430417074" lon="16.27305152010432"><ele>1110.6</ele><time>2026-03-22T11:04:15Z</time></trkpt><trkpt lat="38.44111115967715" lon="16.27296956285117"><ele>1111.2</ele><time>2026-03-22T11:04:16Z</time></trkpt><trkpt lat="38.44110176050269" lon="16.272867304138142"><ele>1111.8</ele><time>2026-03-22T11:04:17Z</time></trkpt><trkpt lat="38.44112076304794" lon="16.272746168176276"><ele>1112.4</ele><time>2026-03-22T11:04:18Z</time></trkpt><trkpt lat="38.44108007700226" lon="16.27262487122891"><ele>1113.0</ele><time>2026-03-22T11:04:19Z</time></trkpt><trkpt lat="38.44102006050331" lon="16.27250541293052"><ele>1113.0</ele><time>2026-03-22T11:04:20Z</time></trkpt><trkpt lat="38.44095223060106" lon="16.2723733279095"><ele>1113.0</ele><time>2026-03-22T11:04:21Z</time></trkpt><trkpt lat="38.44084517613541" lon="16.272274702200118"><ele>1113.0</ele><time>2026-03-22T11:04:22Z</time></trkpt><trkpt lat="38.44073802162273" lon="16.272219061537786"><ele>1113.0</ele><time>2026-03-22T11:04:23Z</time></trkpt><trkpt lat="38.44063989038628" lon="16.27216590015542"><ele>1112.6</ele><time>2026-03-22T11:04:24Z</time></trkpt><trkpt lat="38.44052750791713" lon="16.272173369949584"><ele>1112.1999999999998</ele><time>2026-03-22T11:04:25Z</time></trkpt><trkpt lat="38.440422403245755" lon="16.272162432062945"><ele>1111.8</ele><time>2026-03-22T11:04:26Z</time></trkpt><trkpt lat="38.440321218731206" lon="16.272189606653182"><ele>1111.3999999999999</ele><time>2026-03-22T11:04:27Z</time></trkpt><trkpt lat="38.44022153593105" lon="16.272266475715575"><ele>1111.0</ele><time>2026-03-22T11:04:28Z</time></trkpt><trkpt lat="38.44011370255933" lon="16.27230112278202"><ele>1111.0</ele><time>2026-03-22T11:04:29Z</time></trkpt><trkpt lat="38.440031352473795" lon="16.27233945867527"><ele>1111.0</ele><time>2026-03-22T11:04:30Z</time></trkpt><trkpt lat="38.439930375078525" lon="16.272339199990693"><ele>1111.0</ele><time>2026-03-22T11:04:31Z</time></trkpt><trkpt lat="38.43982702909825" lon="16.272297451891962"><ele>1111.0</ele><time>2026-03-22T11:04:32Z</time></trkpt><trkpt lat="38.43972327694368" lon="16.272232308250043"><ele>1111.0</ele><time>2026-03-22T11:04:33Z</time></trkpt><trkpt lat="38.43962577353026" lon="16.272187384530366"><ele>1109.0</ele><time>2026-03-22T11:04:34Z</time></trkpt><trkpt lat="38.439528701043095" lon="16.27214754430828"><ele>1107.0</ele><time>2026-03-22T11:04:35Z</time></trkpt><trkpt lat="38.43943678965727" lon="16.27220395302949"><ele>1105.0</ele><time>2026-03-22T11:04:36Z</time></trkpt><trkpt lat="38.43939071858938" lon="16.27229316505491"><ele>1103.0</ele><time>2026-03-22T11:04:37Z</time></trkpt><trkpt lat="38.43934705864701" lon="16.272359898528638"><ele>1101.0</ele><time>2026-03-22T11:04:38Z</time></trkpt><trkpt lat="38.43929134849369" lon="16.272471256776"><ele>1101.0</ele><time>2026-03-22T11:04:39Z</time></trkpt><trkpt lat="38.439227529197815" lon="16.272610933022936"><ele>1101.0</ele><time>2026-03-22T11:04:40Z</time></trkpt><trkpt lat="38.43915753439887" lon="16.27273615776434"><ele>1101.0</ele><time>2026-03-22T11:04:41Z</time></trkpt><trkpt lat="38.43907531213983" lon="16.272843943887025"><ele>1101.0</ele><time>2026-03-22T11:04:42Z</time></trkpt><trkpt lat="38.4389544896071" lon="16.272991086460063"><ele>1102.25</ele><time>2026-03-22T11:04:43Z</time></trkpt><trkpt lat="38.43886953720527" lon="16.273111742079394"><ele>1103.5</ele><time>2026-03-22T11:04:44Z</time></trkpt><trkpt lat="38.43879665514573" lon="16.273245115148256"><ele>1104.75</ele><time>2026-03-22T11:04:45Z</time></trkpt><trkpt lat="38.43874058809985" lon="16.27336227181484"><ele>1106.0</ele><time>2026-03-22T11:04:46Z</time></trkpt><trkpt lat="38.438694382169714" lon="16.27346213196067"><ele>1106.0</ele><time>2026-03-22T11:04:47Z</time></trkpt><trkpt lat="38.43864331600148" lon="16.273524940615342"><ele>1106.0</ele><time>2026-03-22T11:04:48Z</time></trkpt><trkpt lat="38.43859197184591" lon="16.273572940987854"><ele>1106.0</ele><time>2026-03-22T11:04:49Z</time></trkpt><trkpt lat="38.43848790230404" lon="16.27353025692719"><ele>1106.0</ele><time>2026-03-22T11:04:52Z</time></trkpt><trkpt lat="38.43842147536515" lon="16.273469982296977"><ele>1106.0</ele><time>2026-03-22T11:04:53Z</time></trkpt><trkpt lat="38.438368534770085" lon="16.273380585209992"><ele>1106.0</ele><time>2026-03-22T11:04:54Z</time></trkpt><trkpt lat="38.43835781810112" lon="16.273263709739393"><ele>1106.0</ele><time>2026-03-22T11:04:55Z</time></trkpt><trkpt lat="38.43835702200974" lon="16.273149465780726"><ele>1106.0</ele><time>2026-03-22T11:04:56Z</time></trkpt><trkpt lat="38.43838119059685" lon="16.273036007121494"><ele>1106.0</ele><time>2026-03-22T11:04:57Z</time></trkpt><trkpt lat="38.43844991476919" lon="16.27292302469434"><ele>1106.0</ele><time>2026-03-22T11:04:58Z</time></trkpt><trkpt lat="38.43851524278257" lon="16.272790189274193"><ele>1106.0</ele><time>2026-03-22T11:04:59Z</time></trkpt><trkpt lat="38.43856374164048" lon="16.27263904095047"><ele>1107.5</ele><time>2026-03-22T11:05:00Z</time></trkpt><trkpt lat="38.43857708958395" lon="16.27247310410429"><ele>1109.0</ele><time>2026-03-22T11:05:01Z</time></trkpt><trkpt lat="38.43857918549104" lon="16.272274458628704"><ele>1110.5</ele><time>2026-03-22T11:05:02Z</time></trkpt><trkpt lat="38.43857652977942" lon="16.272067684020225"><ele>1112.0</ele><time>2026-03-22T11:05:03Z</time></trkpt><trkpt lat="38.43860226303538" lon="16.271846417427167"><ele>1112.0</ele><time>2026-03-22T11:05:04Z</time></trkpt><trkpt lat="38.438638277438265" lon="16.27165778402047"><ele>1112.0</ele><time>2026-03-22T11:05:05Z</time></trkpt><trkpt lat="38.438669774818244" lon="16.271495035989197"><ele>1112.0</ele><time>2026-03-22T11:05:06Z</time></trkpt><trkpt lat="38.43871184213634" lon="16.271360334012062"><ele>1112.0</ele><time>2026-03-22T11:05:07Z</time></trkpt><trkpt lat="38.43871845206222" lon="16.271225375020837"><ele>1112.0</ele><time>2026-03-22T11:05:08Z</time></trkpt><trkpt lat="38.438742045317824" lon="16.27108076238351"><ele>1112.0</ele><time>2026-03-22T11:05:09Z</time></trkpt><trkpt lat="38.43874014116001" lon="16.27094216400192"><ele>1112.0</ele><time>2026-03-22T11:05:10Z</time></trkpt><trkpt lat="38.43868949052369" lon="16.27080893122181"><ele>1112.0</ele><time>2026-03-22T11:05:11Z</time></trkpt><trkpt lat="38.43862506556484" lon="16.270675925968423"><ele>1106.6666666666667</ele><time>2026-03-22T11:05:12Z</time></trkpt><trkpt lat="38.43855095203182" lon="16.27052293519663"><ele>1101.3333333333333</ele><time>2026-03-22T11:05:13Z</time></trkpt><trkpt lat="38.43848975585106" lon="16.270342845654195"><ele>1096.0</ele><time>2026-03-22T11:05:14Z</time></trkpt><trkpt lat="38.43841988338325" lon="16.27013810289128"><ele>1096.0</ele><time>2026-03-22T11:05:15Z</time></trkpt><trkpt lat="38.43832926665142" lon="16.269979183435712"><ele>1096.0</ele><time>2026-03-22T11:05:16Z</time></trkpt><trkpt lat="38.43824450650952" lon="16.26986096817073"><ele>1096.0</ele><time>2026-03-22T11:05:17Z</time></trkpt><trkpt lat="38.43818860896938" lon="16.26974956723667"><ele>1096.0</ele><time>2026-03-22T11:05:18Z</time></trkpt><trkpt lat="38.43815377399101" lon="16.26962556610661"><ele>1095.5</ele><time>2026-03-22T11:05:19Z</time></trkpt><trkpt lat="38.43813982282893" lon="16.269492167521463"><ele>1095.0</ele><time>2026-03-22T11:05:20Z</time></trkpt><trkpt lat="38.438108609968104" lon="16.26939002030138"><ele>1094.5</ele><time>2026-03-22T11:05:21Z</time></trkpt><trkpt lat="38.438069058888175" lon="16.269316134119016"><ele>1094.0</ele><time>2026-03-22T11:05:22Z</time></trkpt><trkpt lat="38.438005078042515" lon="16.269266089124894"><ele>1093.5</ele><time>2026-03-22T11:05:23Z</time></trkpt><trkpt lat="38.43792650628427" lon="16.269259800833925"><ele>1093.0</ele><time>2026-03-22T11:05:24Z</time></trkpt><trkpt lat="38.437822764198145" lon="16.269319704703317"><ele>1093.0</ele><time>2026-03-22T11:05:25Z</time></trkpt><trkpt lat="38.437763325070776" lon="16.269382340923"><ele>1093.0</ele><time>2026-03-22T11:05:26Z</time></trkpt><trkpt lat="38.437641318810556" lon="16.26942448651513"><ele>1093.0</ele><time>2026-03-22T11:05:27Z</time></trkpt><trkpt lat="38.43745057759565" lon="16.269450736103156"><ele>1093.0</ele><time>2026-03-22T11:05:28Z</time></trkpt><trkpt lat="38.437317391738546" lon="16.26953549749926"><ele>1093.0</ele><time>2026-03-22T11:05:29Z</time></trkpt><trkpt lat="38.437195612574804" lon="16.26961105952375"><ele>1093.0</ele><time>2026-03-22T11:05:30Z</time></trkpt><trkpt lat="38.43707350351295" lon="16.269659465063796"><ele>1093.0</ele><time>2026-03-22T11:05:31Z</time></trkpt><trkpt lat="38.4369727757389" lon="16.269722813583975"><ele>1093.0</ele><time>2026-03-22T11:05:32Z</time></trkpt><trkpt lat="38.436895006363976" lon="16.26979551905818"><ele>1093.75</ele><time>2026-03-22T11:05:33Z</time></trkpt><trkpt lat="38.43682377720877" lon="16.26995146174054"><ele>1094.5</ele><time>2026-03-22T11:05:34Z</time></trkpt><trkpt lat="38.4367851866566" lon="16.27006097787336"><ele>1095.25</ele><time>2026-03-22T11:05:35Z</time></trkpt><trkpt lat="38.43683189657617" lon="16.270219216221303"><ele>1096.0</ele><time>2026-03-22T11:05:36Z</time></trkpt><trkpt lat="38.43678985797075" lon="16.270335525976915"><ele>1096.0</ele><time>2026-03-22T11:05:37Z</time></trkpt><trkpt lat="38.436727858476544" lon="16.270426446247928"><ele>1096.0</ele><time>2026-03-22T11:05:38Z</time></trkpt><trkpt lat="38.43666166939625" lon="16.270473706439425"><ele>1096.0</ele><time>2026-03-22T11:05:40Z</time></trkpt><trkpt lat="38.43657652068669" lon="16.27044915331815"><ele>1096.0</ele><time>2026-03-22T11:05:42Z</time></trkpt><trkpt lat="38.436508317637966" lon="16.270428047442216"><ele>1096.0</ele><time>2026-03-22T11:05:43Z</time></trkpt><trkpt lat="38.43639315245512" lon="16.2703382754214"><ele>1096.0</ele><time>2026-03-22T11:05:45Z</time></trkpt><trkpt lat="38.436303324403994" lon="16.270235961753386"><ele>1096.0</ele><time>2026-03-22T11:05:46Z</time></trkpt><trkpt lat="38.436231534441674" lon="16.2701604458476"><ele>1096.0</ele><time>2026-03-22T11:05:47Z</time></trkpt><trkpt lat="38.43613489720294" lon="16.27012082016538"><ele>1096.0</ele><time>2026-03-22T11:05:48Z</time></trkpt><trkpt lat="38.43600062174086" lon="16.27015035127062"><ele>1096.25</ele><time>2026-03-22T11:05:49Z</time></trkpt><trkpt lat="38.43589724790979" lon="16.27021420903855"><ele>1096.5</ele><time>2026-03-22T11:05:50Z</time></trkpt><trkpt lat="38.43581164266118" lon="16.270267052374745"><ele>1096.75</ele><time>2026-03-22T11:05:51Z</time></trkpt><trkpt lat="38.43573700223284" lon="16.270313266536554"><ele>1097.0</ele><time>2026-03-22T11:05:52Z</time></trkpt><trkpt lat="38.4355746225512" lon="16.270400308639026"><ele>1099.0</ele><time>2026-03-22T11:05:55Z</time></trkpt><trkpt lat="38.43543540230184" lon="16.270304306090214"><ele>1101.0</ele><time>2026-03-22T11:05:56Z</time></trkpt><trkpt lat="38.43534595141874" lon="16.270228190057107"><ele>1103.0</ele><time>2026-03-22T11:05:57Z</time></trkpt><trkpt lat="38.43525545188836" lon="16.270063249744343"><ele>1105.0</ele><time>2026-03-22T11:05:58Z</time></trkpt><trkpt lat="38.435172722228394" lon="16.2699630035184"><ele>1105.0</ele><time>2026-03-22T11:05:59Z</time></trkpt><trkpt lat="38.43508350023689" lon="16.269832222450205"><ele>1105.0</ele><time>2026-03-22T11:06:00Z</time></trkpt><trkpt lat="38.4350272776997" lon="16.269694868428502"><ele>1105.0</ele><time>2026-03-22T11:06:01Z</time></trkpt><trkpt lat="38.43492984058021" lon="16.26959879416312"><ele>1105.0</ele><time>2026-03-22T11:06:02Z</time></trkpt><trkpt lat="38.43480996074027" lon="16.269524280102658"><ele>1103.0</ele><time>2026-03-22T11:06:03Z</time></trkpt><trkpt lat="38.43468537448635" lon="16.26945681053455"><ele>1101.0</ele><time>2026-03-22T11:06:04Z</time></trkpt><trkpt lat="38.43456225496054" lon="16.269381422210408"><ele>1099.0</ele><time>2026-03-22T11:06:05Z</time></trkpt><trkpt lat="38.43446618064424" lon="16.269290808261083"><ele>1097.0</ele><time>2026-03-22T11:06:06Z</time></trkpt><trkpt lat="38.43440623951122" lon="16.269179669335376"><ele>1097.0</ele><time>2026-03-22T11:06:07Z</time></trkpt><trkpt lat="38.43432557287929" lon="16.26909577967466"><ele>1097.0</ele><time>2026-03-22T11:06:08Z</time></trkpt><trkpt lat="38.43423522494991" lon="16.269071205508748"><ele>1097.0</ele><time>2026-03-22T11:06:09Z</time></trkpt><trkpt lat="38.43411538371795" lon="16.269076560064445"><ele>1097.0</ele><time>2026-03-22T11:06:10Z</time></trkpt><trkpt lat="38.43399798945809" lon="16.269086567257762"><ele>1097.0</ele><time>2026-03-22T11:06:11Z</time></trkpt><trkpt lat="38.43390434667863" lon="16.269080530199766"><ele>1097.0</ele><time>2026-03-22T11:06:12Z</time></trkpt><trkpt lat="38.43381834733968" lon="16.269044438245473"><ele>1097.0</ele><time>2026-03-22T11:06:13Z</time></trkpt><trkpt lat="38.43376946892129" lon="16.26896380848592"><ele>1097.0</ele><time>2026-03-22T11:06:14Z</time></trkpt><trkpt lat="38.4337349840061" lon="16.26888375712215"><ele>1097.0</ele><time>2026-03-22T11:06:15Z</time></trkpt><trkpt lat="38.433646323189436" lon="16.26879073002426"><ele>1097.0</ele><time>2026-03-22T11:06:16Z</time></trkpt><trkpt lat="38.43358143938092" lon="16.26877144255733"><ele>1097.0</ele><time>2026-03-22T11:06:17Z</time></trkpt><trkpt lat="38.43348227599889" lon="16.26880560610484"><ele>1097.2</ele><time>2026-03-22T11:06:18Z</time></trkpt><trkpt lat="38.43342815813306" lon="16.268897988356834"><ele>1097.4</ele><time>2026-03-22T11:06:19Z</time></trkpt><trkpt lat="38.43339247387412" lon="16.268972304368766"><ele>1097.6</ele><time>2026-03-22T11:06:20Z</time></trkpt><trkpt lat="38.433332552907366" lon="16.26906528708694"><ele>1097.8</ele><time>2026-03-22T11:06:21Z</time></trkpt><trkpt lat="38.43326347207564" lon="16.269167611604388"><ele>1098.0</ele><time>2026-03-22T11:06:22Z</time></trkpt><trkpt lat="38.43318987902948" lon="16.269251740775474"><ele>1098.0</ele><time>2026-03-22T11:06:23Z</time></trkpt><trkpt lat="38.43310330750656" lon="16.269313661195174"><ele>1098.0</ele><time>2026-03-22T11:06:24Z</time></trkpt><trkpt lat="38.43298328961147" lon="16.269301490294364"><ele>1098.0</ele><time>2026-03-22T11:06:25Z</time></trkpt><trkpt lat="38.43284519059696" lon="16.2692849892341"><ele>1098.0</ele><time>2026-03-22T11:06:26Z</time></trkpt><trkpt lat="38.43268700020895" lon="16.269243075656377"><ele>1097.6666666666667</ele><time>2026-03-22T11:06:27Z</time></trkpt><trkpt lat="38.43250668468058" lon="16.269173634221296"><ele>1097.3333333333335</ele><time>2026-03-22T11:06:28Z</time></trkpt><trkpt lat="38.43233627746643" lon="16.26914905438413"><ele>1097.0</ele><time>2026-03-22T11:06:29Z</time></trkpt><trkpt lat="38.43220260763229" lon="16.269122046755037"><ele>1097.8</ele><time>2026-03-22T11:06:30Z</time></trkpt><trkpt lat="38.43207044432388" lon="16.269089688582714"><ele>1098.6</ele><time>2026-03-22T11:06:31Z</time></trkpt><trkpt lat="38.4319922395629" lon="16.269064100500938"><ele>1099.3999999999999</ele><time>2026-03-22T11:06:32Z</time></trkpt><trkpt lat="38.431887733101014" lon="16.268947133503428"><ele>1100.2</ele><time>2026-03-22T11:06:34Z</time></trkpt><trkpt lat="38.431894595731904" lon="16.268850340239414"><ele>1101.0</ele><time>2026-03-22T11:06:35Z</time></trkpt><trkpt lat="38.431916805905196" lon="16.268770447908807"><ele>1101.0</ele><time>2026-03-22T11:06:36Z</time></trkpt><trkpt lat="38.432018344685844" lon="16.268724408978233"><ele>1101.0</ele><time>2026-03-22T11:06:38Z</time></trkpt><trkpt lat="38.43208773243385" lon="16.26865874017452"><ele>1101.0</ele><time>2026-03-22T11:06:39Z</time></trkpt><trkpt lat="38.43218316854943" lon="16.268533464487884"><ele>1101.0</ele><time>2026-03-22T11:06:40Z</time></trkpt><trkpt lat="38.432244734454514" lon="16.268371844211043"><ele>1097.25</ele><time>2026-03-22T11:06:41Z</time></trkpt><trkpt lat="38.43228056690835" lon="16.268241270913034"><ele>1093.5</ele><time>2026-03-22T11:06:42Z</time></trkpt><trkpt lat="38.43231545869984" lon="16.268090406141614"><ele>1089.75</ele><time>2026-03-22T11:06:43Z</time></trkpt><trkpt lat="38.43232926311233" lon="16.267933498446308"><ele>1086.0</ele><time>2026-03-22T11:06:44Z</time></trkpt><trkpt lat="38.43227582700335" lon="16.26774409461436"><ele>1085.2</ele><time>2026-03-22T11:06:46Z</time></trkpt><trkpt lat="38.432189829428836" lon="16.26764229807804"><ele>1084.3999999999999</ele><time>2026-03-22T11:06:47Z</time></trkpt><trkpt lat="38.43208735025154" lon="16.2675962032038"><ele>1083.6</ele><time>2026-03-22T11:06:48Z</time></trkpt><trkpt lat="38.43199254146319" lon="16.267582323626176"><ele>1082.8</ele><time>2026-03-22T11:06:49Z</time></trkpt><trkpt lat="38.43192118648997" lon="16.26761591495405"><ele>1082.0</ele><time>2026-03-22T11:06:50Z</time></trkpt><trkpt lat="38.43184448710243" lon="16.267730593443193"><ele>1083.8333333333335</ele><time>2026-03-22T11:06:51Z</time></trkpt><trkpt lat="38.43178222611978" lon="16.267780680635372"><ele>1085.6666666666667</ele><time>2026-03-22T11:06:52Z</time></trkpt><trkpt lat="38.43171678270968" lon="16.267830506574995"><ele>1087.5</ele><time>2026-03-22T11:06:53Z</time></trkpt><trkpt lat="38.43163592201463" lon="16.26783890343318"><ele>1089.3333333333333</ele><time>2026-03-22T11:06:55Z</time></trkpt><trkpt lat="38.43156455701867" lon="16.26773940982543"><ele>1091.1666666666665</ele><time>2026-03-22T11:06:57Z</time></trkpt><trkpt lat="38.43152639248213" lon="16.267614113112927"><ele>1093.0</ele><time>2026-03-22T11:06:58Z</time></trkpt><trkpt lat="38.43149264054064" lon="16.26743246010888"><ele>1090.25</ele><time>2026-03-22T11:06:59Z</time></trkpt><trkpt lat="38.431463709087666" lon="16.267260155799406"><ele>1087.5</ele><time>2026-03-22T11:07:00Z</time></trkpt><trkpt lat="38.43145097815257" lon="16.267090157010298"><ele>1084.75</ele><time>2026-03-22T11:07:01Z</time></trkpt><trkpt lat="38.43140060348821" lon="16.266992560695787"><ele>1082.0</ele><time>2026-03-22T11:07:02Z</time></trkpt><trkpt lat="38.43135001146112" lon="16.266885774999093"><ele>1082.0</ele><time>2026-03-22T11:07:03Z</time></trkpt><trkpt lat="38.431304543900104" lon="16.2667758324838"><ele>1082.0</ele><time>2026-03-22T11:07:04Z</time></trkpt><trkpt lat="38.43122934027243" lon="16.266710742873336"><ele>1082.0</ele><time>2026-03-22T11:07:05Z</time></trkpt><trkpt lat="38.431155120129645" lon="16.266679551810608"><ele>1082.0</ele><time>2026-03-22T11:07:06Z</time></trkpt><trkpt lat="38.431071820648825" lon="16.26667648495927"><ele>1082.0</ele><time>2026-03-22T11:07:07Z</time></trkpt><trkpt lat="38.4309636296192" lon="16.266730058664987"><ele>1082.0</ele><time>2026-03-22T11:07:08Z</time></trkpt><trkpt lat="38.430875431409056" lon="16.266821591196184"><ele>1082.0</ele><time>2026-03-22T11:07:09Z</time></trkpt><trkpt lat="38.43079146859531" lon="16.26692939889635"><ele>1082.0</ele><time>2026-03-22T11:07:10Z</time></trkpt><trkpt lat="38.430703616599786" lon="16.26708308017635"><ele>1082.0</ele><time>2026-03-22T11:07:11Z</time></trkpt><trkpt lat="38.430584513756166" lon="16.267235707958687"><ele>1083.4</ele><time>2026-03-22T11:07:12Z</time></trkpt><trkpt lat="38.43048929845068" lon="16.267398620783915"><ele>1084.8000000000002</ele><time>2026-03-22T11:07:13Z</time></trkpt><trkpt lat="38.430434000192335" lon="16.26750697767363"><ele>1086.2</ele><time>2026-03-22T11:07:14Z</time></trkpt><trkpt lat="38.430368400351234" lon="16.2675934005716"><ele>1087.6000000000001</ele><time>2026-03-22T11:07:15Z</time></trkpt><trkpt lat="38.430286007287535" lon="16.26763511850309"><ele>1089.0</ele><time>2026-03-22T11:07:16Z</time></trkpt><trkpt lat="38.43019478107697" lon="16.2676357186393"><ele>1089.0</ele><time>2026-03-22T11:07:17Z</time></trkpt><trkpt lat="38.43012224824492" lon="16.26757723586728"><ele>1089.0</ele><time>2026-03-22T11:07:18Z</time></trkpt><trkpt lat="38.430036735537556" lon="16.267515869430557"><ele>1089.0</ele><time>2026-03-22T11:07:19Z</time></trkpt><trkpt lat="38.42994370576407" lon="16.26745523461841"><ele>1089.0</ele><time>2026-03-22T11:07:20Z</time></trkpt><trkpt lat="38.42983854358875" lon="16.267406861626952"><ele>1089.0</ele><time>2026-03-22T11:07:21Z</time></trkpt><trkpt lat="38.42971966488093" lon="16.267397870837165"><ele>1088.8</ele><time>2026-03-22T11:07:22Z</time></trkpt><trkpt lat="38.429605329509485" lon="16.267429887675352"><ele>1088.6000000000001</ele><time>2026-03-22T11:07:23Z</time></trkpt><trkpt lat="38.429516175312045" lon="16.267505481116903"><ele>1088.4</ele><time>2026-03-22T11:07:24Z</time></trkpt><trkpt lat="38.42943103742603" lon="16.267563112037855"><ele>1088.2</ele><time>2026-03-22T11:07:25Z</time></trkpt><trkpt lat="38.42935229725751" lon="16.267618213483214"><ele>1088.0</ele><time>2026-03-22T11:07:26Z</time></trkpt><trkpt lat="38.42928004388426" lon="16.26768358579468"><ele>1088.0</ele><time>2026-03-22T11:07:27Z</time></trkpt><trkpt lat="38.42921759586989" lon="16.26776210362421"><ele>1088.0</ele><time>2026-03-22T11:07:28Z</time></trkpt><trkpt lat="38.42915060745851" lon="16.267816569125582"><ele>1088.0</ele><time>2026-03-22T11:07:29Z</time></trkpt><trkpt lat="38.42908558490776" lon="16.26786473137741"><ele>1088.0</ele><time>2026-03-22T11:07:30Z</time></trkpt><trkpt lat="38.42901738965805" lon="16.267938581525037"><ele>1088.0</ele><time>2026-03-22T11:07:31Z</time></trkpt><trkpt lat="38.42894993830115" lon="16.268008918348034"><ele>1088.0</ele><time>2026-03-22T11:07:32Z</time></trkpt><trkpt lat="38.42886164802254" lon="16.268042629105025"><ele>1088.75</ele><time>2026-03-22T11:07:33Z</time></trkpt><trkpt lat="38.428728111981364" lon="16.268073168268767"><ele>1089.5</ele><time>2026-03-22T11:07:34Z</time></trkpt><trkpt lat="38.42858508599379" lon="16.268093626163665"><ele>1090.25</ele><time>2026-03-22T11:07:35Z</time></trkpt><trkpt lat="38.42843808208606" lon="16.268125594545047"><ele>1091.0</ele><time>2026-03-22T11:07:36Z</time></trkpt><trkpt lat="38.42829579623332" lon="16.268157874640146"><ele>1089.25</ele><time>2026-03-22T11:07:37Z</time></trkpt><trkpt lat="38.42816118965062" lon="16.268190406634663"><ele>1087.5</ele><time>2026-03-22T11:07:38Z</time></trkpt><trkpt lat="38.42802438307181" lon="16.268221582856437"><ele>1085.75</ele><time>2026-03-22T11:07:39Z</time></trkpt><trkpt lat="38.42792038410223" lon="16.268227517045357"><ele>1084.0</ele><time>2026-03-22T11:07:40Z</time></trkpt><trkpt lat="38.42782290863295" lon="16.268233891432736"><ele>1083.75</ele><time>2026-03-22T11:07:41Z</time></trkpt><trkpt lat="38.427701908264204" lon="16.268247256175176"><ele>1083.5</ele><time>2026-03-22T11:07:42Z</time></trkpt><trkpt lat="38.42757988839648" lon="16.268258062127796"><ele>1083.25</ele><time>2026-03-22T11:07:43Z</time></trkpt><trkpt lat="38.42746178041354" lon="16.2682540270076"><ele>1083.0</ele><time>2026-03-22T11:07:44Z</time></trkpt><trkpt lat="38.42733306598518" lon="16.268240987626815"><ele>1083.0</ele><time>2026-03-22T11:07:45Z</time></trkpt><trkpt lat="38.42720532502203" lon="16.26823294297419"><ele>1083.0</ele><time>2026-03-22T11:07:46Z</time></trkpt><trkpt lat="38.427111711432914" lon="16.268214577520382"><ele>1083.0</ele><time>2026-03-22T11:07:47Z</time></trkpt><trkpt lat="38.42699450437394" lon="16.268226737316677"><ele>1083.0</ele><time>2026-03-22T11:07:48Z</time></trkpt><trkpt lat="38.42686259786234" lon="16.26818282143081"><ele>1083.0</ele><time>2026-03-22T11:07:50Z</time></trkpt><trkpt lat="38.426784485499994" lon="16.268148764503305"><ele>1083.0</ele><time>2026-03-22T11:07:51Z</time></trkpt><trkpt lat="38.42669550923977" lon="16.2680787406851"><ele>1083.0</ele><time>2026-03-22T11:07:52Z</time></trkpt><trkpt lat="38.42661109414898" lon="16.26800726978869"><ele>1083.0</ele><time>2026-03-22T11:07:53Z</time></trkpt><trkpt lat="38.42650851956708" lon="16.267912789826426"><ele>1083.0</ele><time>2026-03-22T11:07:54Z</time></trkpt><trkpt lat="38.426409731056935" lon="16.26781362302739"><ele>1081.25</ele><time>2026-03-22T11:07:55Z</time></trkpt><trkpt lat="38.426309464532174" lon="16.267735742049044"><ele>1079.5</ele><time>2026-03-22T11:07:56Z</time></trkpt><trkpt lat="38.42622908728368" lon="16.267607474862164"><ele>1077.75</ele><time>2026-03-22T11:07:57Z</time></trkpt><trkpt lat="38.42613344628576" lon="16.267508544544334"><ele>1076.0</ele><time>2026-03-22T11:07:58Z</time></trkpt><trkpt lat="38.426050419062264" lon="16.267435236197148"><ele>1076.0</ele><time>2026-03-22T11:07:59Z</time></trkpt><trkpt lat="38.42591186596991" lon="16.26743783255884"><ele>1076.0</ele><time>2026-03-22T11:08:00Z</time></trkpt><trkpt lat="38.42578365560283" lon="16.267428273325667"><ele>1076.0</ele><time>2026-03-22T11:08:01Z</time></trkpt><trkpt lat="38.425674006731356" lon="16.267450127726757"><ele>1076.0</ele><time>2026-03-22T11:08:02Z</time></trkpt><trkpt lat="38.42552908742555" lon="16.267483156722705"><ele>1076.3333333333335</ele><time>2026-03-22T11:08:03Z</time></trkpt><trkpt lat="38.42536688428058" lon="16.2675332548226"><ele>1076.6666666666667</ele><time>2026-03-22T11:08:04Z</time></trkpt><trkpt lat="38.42521954359015" lon="16.26759805830286"><ele>1077.0</ele><time>2026-03-22T11:08:05Z</time></trkpt><trkpt lat="38.425073732061286" lon="16.267680702341544"><ele>1077.0</ele><time>2026-03-22T11:08:06Z</time></trkpt><trkpt lat="38.424909936555075" lon="16.267730002876622"><ele>1077.0</ele><time>2026-03-22T11:08:07Z</time></trkpt><trkpt lat="38.42473155948804" lon="16.26780111077394"><ele>1077.0</ele><time>2026-03-22T11:08:08Z</time></trkpt><trkpt lat="38.424590946838194" lon="16.26787617647967"><ele>1076.25</ele><time>2026-03-22T11:08:09Z</time></trkpt><trkpt lat="38.424454476755436" lon="16.267909257229995"><ele>1075.5</ele><time>2026-03-22T11:08:10Z</time></trkpt><trkpt lat="38.42434006637061" lon="16.26795498380236"><ele>1074.75</ele><time>2026-03-22T11:08:11Z</time></trkpt><trkpt lat="38.42422214055947" lon="16.267998868033462"><ele>1074.0</ele><time>2026-03-22T11:08:12Z</time></trkpt><trkpt lat="38.42410958230291" lon="16.26803927483633"><ele>1074.0</ele><time>2026-03-22T11:08:13Z</time></trkpt><trkpt lat="38.4239793654351" lon="16.268079135956576"><ele>1074.0</ele><time>2026-03-22T11:08:14Z</time></trkpt><trkpt lat="38.423841787699835" lon="16.268110123450583"><ele>1074.0</ele><time>2026-03-22T11:08:15Z</time></trkpt><trkpt lat="38.42372225965655" lon="16.26812698546479"><ele>1074.0</ele><time>2026-03-22T11:08:16Z</time></trkpt><trkpt lat="38.42360755106575" lon="16.268135201161734"><ele>1073.5</ele><time>2026-03-22T11:08:17Z</time></trkpt><trkpt lat="38.42350075800445" lon="16.268134221939313"><ele>1073.0</ele><time>2026-03-22T11:08:18Z</time></trkpt><trkpt lat="38.42339755446478" lon="16.268128694938078"><ele>1072.5</ele><time>2026-03-22T11:08:19Z</time></trkpt><trkpt lat="38.423254645107974" lon="16.26810532322657"><ele>1072.0</ele><time>2026-03-22T11:08:20Z</time></trkpt><trkpt lat="38.42311557941228" lon="16.268078610435975"><ele>1070.0</ele><time>2026-03-22T11:08:21Z</time></trkpt><trkpt lat="38.42298290768418" lon="16.26804975690125"><ele>1068.0</ele><time>2026-03-22T11:08:22Z</time></trkpt><trkpt lat="38.42284512113681" lon="16.268011357881715"><ele>1066.0</ele><time>2026-03-22T11:08:23Z</time></trkpt><trkpt lat="38.4226848473951" lon="16.26798730848254"><ele>1064.0</ele><time>2026-03-22T11:08:24Z</time></trkpt><trkpt lat="38.42254008584033" lon="16.267960461123888"><ele>1063.75</ele><time>2026-03-22T11:08:25Z</time></trkpt><trkpt lat="38.42238965281999" lon="16.26793774094517"><ele>1063.5</ele><time>2026-03-22T11:08:26Z</time></trkpt><trkpt lat="38.4222355564823" lon="16.267882145547027"><ele>1063.25</ele><time>2026-03-22T11:08:27Z</time></trkpt><trkpt lat="38.422121102248106" lon="16.267856147222318"><ele>1063.0</ele><time>2026-03-22T11:08:28Z</time></trkpt><trkpt lat="38.422002358665544" lon="16.267849988341734"><ele>1063.0</ele><time>2026-03-22T11:08:29Z</time></trkpt><trkpt lat="38.42189126286284" lon="16.267822133311988"><ele>1063.0</ele><time>2026-03-22T11:08:30Z</time></trkpt><trkpt lat="38.42182730664786" lon="16.26780263745821"><ele>1063.0</ele><time>2026-03-22T11:08:31Z</time></trkpt><trkpt lat="38.42174600037351" lon="16.26777094262417"><ele>1063.0</ele><time>2026-03-22T11:08:32Z</time></trkpt><trkpt lat="38.42165229334487" lon="16.26774260196645"><ele>1063.0</ele><time>2026-03-22T11:08:37Z</time></trkpt><trkpt lat="38.4215349123689" lon="16.26770089506874"><ele>1063.0</ele><time>2026-03-22T11:08:39Z</time></trkpt><trkpt lat="38.42146165896347" lon="16.267674226948362"><ele>1063.0</ele><time>2026-03-22T11:08:40Z</time></trkpt><trkpt lat="38.42132957207247" lon="16.267660418917878"><ele>1063.0</ele><time>2026-03-22T11:08:41Z</time></trkpt><trkpt lat="38.421105889121755" lon="16.267610471739594"><ele>1063.0</ele><time>2026-03-22T11:08:42Z</time></trkpt><trkpt lat="38.42097454843566" lon="16.26758050659439"><ele>1062.25</ele><time>2026-03-22T11:08:43Z</time></trkpt><trkpt lat="38.42086551022402" lon="16.267565970890193"><ele>1061.5</ele><time>2026-03-22T11:08:44Z</time></trkpt><trkpt lat="38.42074010736199" lon="16.267555898288357"><ele>1060.75</ele><time>2026-03-22T11:08:45Z</time></trkpt><trkpt lat="38.42061983021512" lon="16.26749977684615"><ele>1060.0</ele><time>2026-03-22T11:08:46Z</time></trkpt><trkpt lat="38.42051321028496" lon="16.267444391249825"><ele>1058.5</ele><time>2026-03-22T11:08:47Z</time></trkpt><trkpt lat="38.42042464698023" lon="16.2673812532739"><ele>1057.0</ele><time>2026-03-22T11:08:48Z</time></trkpt><trkpt lat="38.42033400017406" lon="16.267300216338782"><ele>1055.5</ele><time>2026-03-22T11:08:49Z</time></trkpt><trkpt lat="38.42021619614497" lon="16.267144753932833"><ele>1054.0</ele><time>2026-03-22T11:08:50Z</time></trkpt><trkpt lat="38.42017279239344" lon="16.267040954492956"><ele>1052.75</ele><time>2026-03-22T11:08:51Z</time></trkpt><trkpt lat="38.420106881110144" lon="16.26691068394644"><ele>1051.5</ele><time>2026-03-22T11:08:52Z</time></trkpt><trkpt lat="38.42003480831703" lon="16.266772892137748"><ele>1050.25</ele><time>2026-03-22T11:08:53Z</time></trkpt><trkpt lat="38.41997462751256" lon="16.26667707710869"><ele>1049.0</ele><time>2026-03-22T11:08:54Z</time></trkpt><trkpt lat="38.41991251103002" lon="16.26655310846733"><ele>1049.0</ele><time>2026-03-22T11:08:55Z</time></trkpt><trkpt lat="38.419851425700564" lon="16.26644737679398"><ele>1049.0</ele><time>2026-03-22T11:08:56Z</time></trkpt><trkpt lat="38.4197909029971" lon="16.266310159266713"><ele>1049.0</ele><time>2026-03-22T11:08:57Z</time></trkpt><trkpt lat="38.419733462957005" lon="16.266153389017692"><ele>1049.0</ele><time>2026-03-22T11:08:58Z</time></trkpt><trkpt lat="38.419656482801095" lon="16.266023865910054"><ele>1047.75</ele><time>2026-03-22T11:08:59Z</time></trkpt><trkpt lat="38.41959373673318" lon="16.265897712498962"><ele>1046.5</ele><time>2026-03-22T11:09:00Z</time></trkpt><trkpt lat="38.41951243629464" lon="16.265741914407183"><ele>1045.25</ele><time>2026-03-22T11:09:01Z</time></trkpt><trkpt lat="38.41945304215079" lon="16.26563870013065"><ele>1044.0</ele><time>2026-03-22T11:09:02Z</time></trkpt><trkpt lat="38.4193932181617" lon="16.265526991069024"><ele>1042.8</ele><time>2026-03-22T11:09:03Z</time></trkpt><trkpt lat="38.419329152136335" lon="16.2654169894647"><ele>1041.6000000000001</ele><time>2026-03-22T11:09:04Z</time></trkpt><trkpt lat="38.41930261522812" lon="16.265314795894792"><ele>1040.4</ele><time>2026-03-22T11:09:05Z</time></trkpt><trkpt lat="38.419274362844575" lon="16.265207445145315"><ele>1039.2</ele><time>2026-03-22T11:09:06Z</time></trkpt><trkpt lat="38.41926010300293" lon="16.265094959068712"><ele>1038.0</ele><time>2026-03-22T11:09:07Z</time></trkpt><trkpt lat="38.41925706571353" lon="16.264973122274405"><ele>1038.0</ele><time>2026-03-22T11:09:08Z</time></trkpt><trkpt lat="38.419271124042865" lon="16.26482709893521"><ele>1038.0</ele><time>2026-03-22T11:09:09Z</time></trkpt><trkpt lat="38.41928556500628" lon="16.264735765891107"><ele>1038.0</ele><time>2026-03-22T11:09:10Z</time></trkpt><trkpt lat="38.419304345375906" lon="16.26462592429235"><ele>1038.0</ele><time>2026-03-22T11:09:13Z</time></trkpt><trkpt lat="38.41932744991602" lon="16.264475636698407"><ele>1038.0</ele><time>2026-03-22T11:09:15Z</time></trkpt><trkpt lat="38.41931665349293" lon="16.26437533675066"><ele>1034.6666666666667</ele><time>2026-03-22T11:09:17Z</time></trkpt><trkpt lat="38.41930026307191" lon="16.26426008433445"><ele>1031.3333333333335</ele><time>2026-03-22T11:09:20Z</time></trkpt><trkpt lat="38.41926199308702" lon="16.264113264466236"><ele>1028.0</ele><time>2026-03-22T11:09:22Z</time></trkpt><trkpt lat="38.419019100070486" lon="16.26411402125428"><ele>1028.0</ele><time>2026-03-22T11:09:23Z</time></trkpt><trkpt lat="38.41891478856706" lon="16.26410272053063"><ele>1028.0</ele><time>2026-03-22T11:09:24Z</time></trkpt><trkpt lat="38.41881807025771" lon="16.26408010590139"><ele>1028.0</ele><time>2026-03-22T11:09:25Z</time></trkpt><trkpt lat="38.41869924125187" lon="16.26408529962809"><ele>1028.0</ele><time>2026-03-22T11:09:26Z</time></trkpt><trkpt lat="38.41859960162642" lon="16.264073662425776"><ele>1028.0</ele><time>2026-03-22T11:09:27Z</time></trkpt><trkpt lat="38.41850064109325" lon="16.264086223537074"><ele>1027.1666666666667</ele><time>2026-03-22T11:09:28Z</time></trkpt><trkpt lat="38.4184074729075" lon="16.2641021102771"><ele>1026.3333333333335</ele><time>2026-03-22T11:09:29Z</time></trkpt><trkpt lat="38.41832993775349" lon="16.264154495101618"><ele>1025.5</ele><time>2026-03-22T11:09:30Z</time></trkpt><trkpt lat="38.41826234431835" lon="16.264196435507117"><ele>1024.6666666666667</ele><time>2026-03-22T11:09:31Z</time></trkpt><trkpt lat="38.41818679055841" lon="16.264229541083164"><ele>1023.8333333333334</ele><time>2026-03-22T11:09:32Z</time></trkpt><trkpt lat="38.418105043717475" lon="16.264261422285742"><ele>1023.0</ele><time>2026-03-22T11:09:33Z</time></trkpt><trkpt lat="38.41802854535662" lon="16.264262131761118"><ele>1020.8</ele><time>2026-03-22T11:09:34Z</time></trkpt><trkpt lat="38.417940145108226" lon="16.264225245513682"><ele>1018.5999999999999</ele><time>2026-03-22T11:09:35Z</time></trkpt><trkpt lat="38.41785882332231" lon="16.264163291795647"><ele>1016.4000000000001</ele><time>2026-03-22T11:09:36Z</time></trkpt><trkpt lat="38.41781149082325" lon="16.264068209971775"><ele>1014.2</ele><time>2026-03-22T11:09:37Z</time></trkpt><trkpt lat="38.41773153629513" lon="16.26392939379825"><ele>1012.0</ele><time>2026-03-22T11:09:38Z</time></trkpt><trkpt lat="38.41766455332145" lon="16.263775087870165"><ele>1012.0</ele><time>2026-03-22T11:09:39Z</time></trkpt><trkpt lat="38.417583525093356" lon="16.263647293550143"><ele>1012.0</ele><time>2026-03-22T11:09:40Z</time></trkpt><trkpt lat="38.41751667553151" lon="16.263521025915114"><ele>1012.0</ele><time>2026-03-22T11:09:41Z</time></trkpt><trkpt lat="38.417429036291566" lon="16.263407876462736"><ele>1012.0</ele><time>2026-03-22T11:09:42Z</time></trkpt><trkpt lat="38.41734214244842" lon="16.263277788796305"><ele>1012.0</ele><time>2026-03-22T11:09:43Z</time></trkpt><trkpt lat="38.417270950008124" lon="16.263116236208532"><ele>1012.0</ele><time>2026-03-22T11:09:44Z</time></trkpt><trkpt lat="38.41717825465475" lon="16.262977493014237"><ele>1012.0</ele><time>2026-03-22T11:09:45Z</time></trkpt><trkpt lat="38.41711684642978" lon="16.262818874718793"><ele>1012.0</ele><time>2026-03-22T11:09:46Z</time></trkpt><trkpt lat="38.417028265648064" lon="16.262695949142874"><ele>1011.75</ele><time>2026-03-22T11:09:47Z</time></trkpt><trkpt lat="38.41695234908467" lon="16.26256247590339"><ele>1011.5</ele><time>2026-03-22T11:09:48Z</time></trkpt><trkpt lat="38.416873377086866" lon="16.26241958827989"><ele>1011.25</ele><time>2026-03-22T11:09:49Z</time></trkpt><trkpt lat="38.416797050862115" lon="16.26227698984671"><ele>1011.0</ele><time>2026-03-22T11:09:50Z</time></trkpt><trkpt lat="38.41672167703473" lon="16.262136170726098"><ele>1011.5</ele><time>2026-03-22T11:09:51Z</time></trkpt><trkpt lat="38.41664325290013" lon="16.261989652794846"><ele>1012.0</ele><time>2026-03-22T11:09:52Z</time></trkpt><trkpt lat="38.41657342733589" lon="16.261852421674778"><ele>1012.5</ele><time>2026-03-22T11:09:53Z</time></trkpt><trkpt lat="38.41652445238041" lon="16.261717696785198"><ele>1013.0</ele><time>2026-03-22T11:09:54Z</time></trkpt><trkpt lat="38.41646668057583" lon="16.261593904312956"><ele>1013.0</ele><time>2026-03-22T11:09:55Z</time></trkpt><trkpt lat="38.41641914251318" lon="16.261453359807515"><ele>1013.0</ele><time>2026-03-22T11:09:56Z</time></trkpt><trkpt lat="38.41638911266549" lon="16.26130112317889"><ele>1013.0</ele><time>2026-03-22T11:09:57Z</time></trkpt><trkpt lat="38.416384973430446" lon="16.261142787761734"><ele>1013.0</ele><time>2026-03-22T11:09:58Z</time></trkpt><trkpt lat="38.41640513804518" lon="16.26097944169587"><ele>1012.25</ele><time>2026-03-22T11:09:59Z</time></trkpt><trkpt lat="38.416439241686284" lon="16.26080158720863"><ele>1011.5</ele><time>2026-03-22T11:10:00Z</time></trkpt><trkpt lat="38.41648746185834" lon="16.260582142981953"><ele>1010.75</ele><time>2026-03-22T11:10:01Z</time></trkpt><trkpt lat="38.41652038106561" lon="16.26043345229582"><ele>1010.0</ele><time>2026-03-22T11:10:02Z</time></trkpt><trkpt lat="38.41655561634196" lon="16.260279741589216"><ele>1007.25</ele><time>2026-03-22T11:10:03Z</time></trkpt><trkpt lat="38.416575514871475" lon="16.260136517992404"><ele>1004.5</ele><time>2026-03-22T11:10:04Z</time></trkpt><trkpt lat="38.41662988484585" lon="16.260011967419317"><ele>1001.75</ele><time>2026-03-22T11:10:05Z</time></trkpt><trkpt lat="38.41669383737622" lon="16.259898380106712"><ele>999.0</ele><time>2026-03-22T11:10:06Z</time></trkpt><trkpt lat="38.41674447438958" lon="16.259759503705514"><ele>995.25</ele><time>2026-03-22T11:10:07Z</time></trkpt><trkpt lat="38.416793533280476" lon="16.259652556101063"><ele>991.5</ele><time>2026-03-22T11:10:08Z</time></trkpt><trkpt lat="38.41682451547021" lon="16.25956743301965"><ele>987.75</ele><time>2026-03-22T11:10:09Z</time></trkpt><trkpt lat="38.41673709320942" lon="16.259368697989867"><ele>984.0</ele><time>2026-03-22T11:10:12Z</time></trkpt><trkpt lat="38.4166060134588" lon="16.25939010632674"><ele>984.0</ele><time>2026-03-22T11:10:13Z</time></trkpt><trkpt lat="38.41652254021129" lon="16.259436545211198"><ele>984.0000000000001</ele><time>2026-03-22T11:10:14Z</time></trkpt><trkpt lat="38.41643827190044" lon="16.259501902884047"><ele>984.0000000000001</ele><time>2026-03-22T11:10:15Z</time></trkpt><trkpt lat="38.41635234007531" lon="16.259631692261024"><ele>984.0</ele><time>2026-03-22T11:10:16Z</time></trkpt><trkpt lat="38.416291974724984" lon="16.259751699710137"><ele>984.0</ele><time>2026-03-22T11:10:17Z</time></trkpt><trkpt lat="38.416235992603916" lon="16.25985813299863"><ele>985.4000000000001</ele><time>2026-03-22T11:10:18Z</time></trkpt><trkpt lat="38.41615633708619" lon="16.259927669384076"><ele>986.8000000000001</ele><time>2026-03-22T11:10:20Z</time></trkpt><trkpt lat="38.4160925497117" lon="16.259931881690328"><ele>988.1999999999999</ele><time>2026-03-22T11:10:21Z</time></trkpt><trkpt lat="38.41597578627255" lon="16.259903604781844"><ele>989.5999999999999</ele><time>2026-03-22T11:10:22Z</time></trkpt><trkpt lat="38.41590132878177" lon="16.259852329032896"><ele>991.0</ele><time>2026-03-22T11:10:23Z</time></trkpt><trkpt lat="38.415812113299886" lon="16.259811064224063"><ele>985.6666666666666</ele><time>2026-03-22T11:10:24Z</time></trkpt><trkpt lat="38.41572027741746" lon="16.259763208029483"><ele>980.3333333333333</ele><time>2026-03-22T11:10:25Z</time></trkpt><trkpt lat="38.4154841853425" lon="16.25969103644428"><ele>975.0</ele><time>2026-03-22T11:10:26Z</time></trkpt><trkpt lat="38.41529887828415" lon="16.259909295187768"><ele>975.0</ele><time>2026-03-22T11:10:27Z</time></trkpt><trkpt lat="38.41525110285158" lon="16.26008204688066"><ele>975.0</ele><time>2026-03-22T11:10:30Z</time></trkpt><trkpt lat="38.415201788575374" lon="16.26021351246702"><ele>975.0</ele><time>2026-03-22T11:10:31Z</time></trkpt><trkpt lat="38.415173901949096" lon="16.260319652301202"><ele>975.0</ele><time>2026-03-22T11:10:32Z</time></trkpt><trkpt lat="38.41508991667613" lon="16.260444854464478"><ele>975.0</ele><time>2026-03-22T11:10:33Z</time></trkpt><trkpt lat="38.41501859389737" lon="16.26055098696586"><ele>975.0</ele><time>2026-03-22T11:10:34Z</time></trkpt><trkpt lat="38.41497675833896" lon="16.260674307698395"><ele>975.0</ele><time>2026-03-22T11:10:35Z</time></trkpt><trkpt lat="38.41492006706192" lon="16.26078294905478"><ele>975.0</ele><time>2026-03-22T11:10:36Z</time></trkpt><trkpt lat="38.414846312067645" lon="16.26089235603922"><ele>975.0</ele><time>2026-03-22T11:10:37Z</time></trkpt><trkpt lat="38.414747942237454" lon="16.2610122212994"><ele>975.0</ele><time>2026-03-22T11:10:38Z</time></trkpt><trkpt lat="38.4146580780907" lon="16.261089069188007"><ele>975.0</ele><time>2026-03-22T11:10:39Z</time></trkpt><trkpt lat="38.41456456754304" lon="16.2611401938262"><ele>975.0</ele><time>2026-03-22T11:10:40Z</time></trkpt><trkpt lat="38.414458837267915" lon="16.261178380050605"><ele>975.0</ele><time>2026-03-22T11:10:41Z</time></trkpt><trkpt lat="38.414313154411964" lon="16.26121907056373"><ele>975.0</ele><time>2026-03-22T11:10:42Z</time></trkpt><trkpt lat="38.41417509231169" lon="16.26125153238566"><ele>975.0</ele><time>2026-03-22T11:10:43Z</time></trkpt><trkpt lat="38.41407566119521" lon="16.26127256015577"><ele>975.0</ele><time>2026-03-22T11:10:44Z</time></trkpt><trkpt lat="38.413984624112075" lon="16.261288399504995"><ele>975.0</ele><time>2026-03-22T11:10:45Z</time></trkpt><trkpt lat="38.41391740315744" lon="16.261300495085493"><ele>975.0</ele><time>2026-03-22T11:10:46Z</time></trkpt><trkpt lat="38.413844454709654" lon="16.26131324920359"><ele>976.5</ele><time>2026-03-22T11:10:47Z</time></trkpt><trkpt lat="38.41373657220895" lon="16.26133193786443"><ele>978.0</ele><time>2026-03-22T11:10:48Z</time></trkpt><trkpt lat="38.41361140547452" lon="16.261353675534526"><ele>979.5</ele><time>2026-03-22T11:10:50Z</time></trkpt><trkpt lat="38.41347306147883" lon="16.261429074271533"><ele>981.0</ele><time>2026-03-22T11:10:52Z</time></trkpt><trkpt lat="38.413400867487546" lon="16.261509586528973"><ele>981.0</ele><time>2026-03-22T11:10:53Z</time></trkpt><trkpt lat="38.41335167400941" lon="16.26163806997868"><ele>981.0</ele><time>2026-03-22T11:10:54Z</time></trkpt><trkpt lat="38.41333172991178" lon="16.26179494747973"><ele>981.0</ele><time>2026-03-22T11:10:55Z</time></trkpt><trkpt lat="38.4133264077643" lon="16.261966760863714"><ele>981.0</ele><time>2026-03-22T11:10:56Z</time></trkpt><trkpt lat="38.41332269155619" lon="16.262147144248754"><ele>978.1999999999999</ele><time>2026-03-22T11:10:57Z</time></trkpt><trkpt lat="38.413313390283754" lon="16.262324483649884"><ele>975.3999999999999</ele><time>2026-03-22T11:10:58Z</time></trkpt><trkpt lat="38.41330134827708" lon="16.262445872176944"><ele>972.6</ele><time>2026-03-22T11:10:59Z</time></trkpt><trkpt lat="38.413285487839914" lon="16.262569743253934"><ele>969.8</ele><time>2026-03-22T11:11:00Z</time></trkpt><trkpt lat="38.413264814578824" lon="16.26266375494184"><ele>967.0</ele><time>2026-03-22T11:11:01Z</time></trkpt><trkpt lat="38.413183806758205" lon="16.26272818103069"><ele>966.9999999999999</ele><time>2026-03-22T11:11:03Z</time></trkpt><trkpt lat="38.41311476939175" lon="16.262787863935525"><ele>967.0</ele><time>2026-03-22T11:11:04Z</time></trkpt><trkpt lat="38.41303127100934" lon="16.2628334744152"><ele>967.0</ele><time>2026-03-22T11:11:05Z</time></trkpt><trkpt lat="38.41295248099967" lon="16.262845315199208"><ele>967.0</ele><time>2026-03-22T11:11:06Z</time></trkpt><trkpt lat="38.41288560132927" lon="16.262840197989323"><ele>966.9999999999999</ele><time>2026-03-22T11:11:07Z</time></trkpt><trkpt lat="38.412822581350895" lon="16.262815996331394"><ele>967.0</ele><time>2026-03-22T11:11:08Z</time></trkpt><trkpt lat="38.412746578006896" lon="16.262732472682682"><ele>966.3333333333333</ele><time>2026-03-22T11:11:09Z</time></trkpt><trkpt lat="38.41271564885965" lon="16.262628751089625"><ele>965.6666666666666</ele><time>2026-03-22T11:11:10Z</time></trkpt><trkpt lat="38.41271017686639" lon="16.262518642646615"><ele>965.0</ele><time>2026-03-22T11:11:11Z</time></trkpt><trkpt lat="38.41270203919644" lon="16.262426104599747"><ele>964.3333333333333</ele><time>2026-03-22T11:11:12Z</time></trkpt><trkpt lat="38.41267816798251" lon="16.262345256902595"><ele>963.6666666666666</ele><time>2026-03-22T11:11:13Z</time></trkpt><trkpt lat="38.4126359548043" lon="16.2622685467411"><ele>963.0</ele><time>2026-03-22T11:11:14Z</time></trkpt><trkpt lat="38.412568050427154" lon="16.262196625038605"><ele>967.2</ele><time>2026-03-22T11:11:15Z</time></trkpt><trkpt lat="38.41247773173236" lon="16.26215658876332"><ele>971.4</ele><time>2026-03-22T11:11:16Z</time></trkpt><trkpt lat="38.41236201685352" lon="16.262148764248586"><ele>975.6000000000001</ele><time>2026-03-22T11:11:17Z</time></trkpt><trkpt lat="38.41224046144728" lon="16.26217661582365"><ele>979.8000000000001</ele><time>2026-03-22T11:11:18Z</time></trkpt><trkpt lat="38.41215747480972" lon="16.26217462381746"><ele>984.0</ele><time>2026-03-22T11:11:19Z</time></trkpt><trkpt lat="38.412044356227426" lon="16.262133404023338"><ele>984.0</ele><time>2026-03-22T11:11:20Z</time></trkpt><trkpt lat="38.41194548844486" lon="16.262061776473974"><ele>984.0000000000001</ele><time>2026-03-22T11:11:21Z</time></trkpt><trkpt lat="38.411872979917526" lon="16.262007506942442"><ele>984.0000000000001</ele><time>2026-03-22T11:11:22Z</time></trkpt><trkpt lat="38.41178927465162" lon="16.261938909723327"><ele>984.0</ele><time>2026-03-22T11:11:23Z</time></trkpt><trkpt lat="38.41168847601315" lon="16.26190232261525"><ele>984.0</ele><time>2026-03-22T11:11:24Z</time></trkpt><trkpt lat="38.41158269307974" lon="16.261894888293842"><ele>984.0</ele><time>2026-03-22T11:11:25Z</time></trkpt><trkpt lat="38.41146580217235" lon="16.26194529896122"><ele>984.0</ele><time>2026-03-22T11:11:26Z</time></trkpt><trkpt lat="38.41134559059303" lon="16.262046575969993"><ele>984.0</ele><time>2026-03-22T11:11:27Z</time></trkpt><trkpt lat="38.41115350698623" lon="16.262188750457973"><ele>975.0</ele><time>2026-03-22T11:11:28Z</time></trkpt><trkpt lat="38.41100056334859" lon="16.26229693458745"><ele>966.0</ele><time>2026-03-22T11:11:29Z</time></trkpt><trkpt lat="38.41085938576472" lon="16.262380352925803"><ele>957.0</ele><time>2026-03-22T11:11:30Z</time></trkpt><trkpt lat="38.410738890324005" lon="16.26245419071194"><ele>957.0</ele><time>2026-03-22T11:11:31Z</time></trkpt><trkpt lat="38.41063264949679" lon="16.262520053454246"><ele>957.0</ele><time>2026-03-22T11:11:32Z</time></trkpt><trkpt lat="38.41054181225458" lon="16.26256573165707"><ele>957.0</ele><time>2026-03-22T11:11:33Z</time></trkpt><trkpt lat="38.41046772490517" lon="16.26258787628766"><ele>957.0</ele><time>2026-03-22T11:11:34Z</time></trkpt><trkpt lat="38.41039741146846" lon="16.262546124656996"><ele>957.0</ele><time>2026-03-22T11:11:35Z</time></trkpt><trkpt lat="38.41035304824989" lon="16.26245760906177"><ele>957.0</ele><time>2026-03-22T11:11:36Z</time></trkpt><trkpt lat="38.41033195186293" lon="16.26233521672108"><ele>957.0</ele><time>2026-03-22T11:11:37Z</time></trkpt><trkpt lat="38.41027251608874" lon="16.262239659651303"><ele>957.0</ele><time>2026-03-22T11:11:38Z</time></trkpt><trkpt lat="38.41022325220404" lon="16.26214235467432"><ele>957.0</ele><time>2026-03-22T11:11:39Z</time></trkpt><trkpt lat="38.41012255096451" lon="16.26209169344161"><ele>957.0</ele><time>2026-03-22T11:11:40Z</time></trkpt><trkpt lat="38.41000737343999" lon="16.26207908724107"><ele>957.0</ele><time>2026-03-22T11:11:41Z</time></trkpt><trkpt lat="38.40989405814169" lon="16.26202066162214"><ele>957.0</ele><time>2026-03-22T11:11:42Z</time></trkpt><trkpt lat="38.409801023846974" lon="16.261936183195225"><ele>957.0</ele><time>2026-03-22T11:11:43Z</time></trkpt><trkpt lat="38.40970304721218" lon="16.261843929961465"><ele>957.0</ele><time>2026-03-22T11:11:44Z</time></trkpt><trkpt lat="38.409617109331464" lon="16.261766340269773"><ele>950.4000000000001</ele><time>2026-03-22T11:11:45Z</time></trkpt><trkpt lat="38.40956532959314" lon="16.2616738029602"><ele>943.8000000000001</ele><time>2026-03-22T11:11:46Z</time></trkpt><trkpt lat="38.409551742990224" lon="16.26155304952363"><ele>937.2</ele><time>2026-03-22T11:11:47Z</time></trkpt><trkpt lat="38.409542928014915" lon="16.261420788915903"><ele>930.6</ele><time>2026-03-22T11:11:48Z</time></trkpt><trkpt lat="38.40957271499603" lon="16.261289658076027"><ele>924.0</ele><time>2026-03-22T11:11:49Z</time></trkpt><trkpt lat="38.409609235037195" lon="16.2611453598922"><ele>924.0</ele><time>2026-03-22T11:11:50Z</time></trkpt><trkpt lat="38.409658634860676" lon="16.26097838613336"><ele>924.0000000000001</ele><time>2026-03-22T11:11:51Z</time></trkpt><trkpt lat="38.40971401242969" lon="16.260865442810683"><ele>924.0000000000001</ele><time>2026-03-22T11:11:52Z</time></trkpt><trkpt lat="38.40979068667712" lon="16.260776157590033"><ele>924.0</ele><time>2026-03-22T11:11:53Z</time></trkpt><trkpt lat="38.409866620703035" lon="16.26071324209882"><ele>924.0</ele><time>2026-03-22T11:11:54Z</time></trkpt><trkpt lat="38.409930748239105" lon="16.26063304023706"><ele>926.6</ele><time>2026-03-22T11:11:56Z</time></trkpt><trkpt lat="38.409917559969834" lon="16.260510096590785"><ele>929.2</ele><time>2026-03-22T11:11:58Z</time></trkpt><trkpt lat="38.40986782405419" lon="16.260422804301278"><ele>931.8000000000001</ele><time>2026-03-22T11:11:59Z</time></trkpt><trkpt lat="38.40973819822734" lon="16.260347576803685"><ele>934.4000000000001</ele><time>2026-03-22T11:12:01Z</time></trkpt><trkpt lat="38.40964332584973" lon="16.260345841045574"><ele>937.0</ele><time>2026-03-22T11:12:02Z</time></trkpt><trkpt lat="38.409527870730706" lon="16.260341043921734"><ele>937.0</ele><time>2026-03-22T11:12:03Z</time></trkpt><trkpt lat="38.409426020305524" lon="16.260336812060572"><ele>937.0</ele><time>2026-03-22T11:12:04Z</time></trkpt><trkpt lat="38.40934061155083" lon="16.26032691292239"><ele>937.0</ele><time>2026-03-22T11:12:05Z</time></trkpt><trkpt lat="38.40926243196439" lon="16.260291067313823"><ele>937.0</ele><time>2026-03-22T11:12:06Z</time></trkpt><trkpt lat="38.409174874079945" lon="16.260233132604625"><ele>937.0</ele><time>2026-03-22T11:12:07Z</time></trkpt><trkpt lat="38.409114288003195" lon="16.260123722429107"><ele>937.0</ele><time>2026-03-22T11:12:08Z</time></trkpt><trkpt lat="38.40906969816323" lon="16.259990674721642"><ele>937.0</ele><time>2026-03-22T11:12:09Z</time></trkpt><trkpt lat="38.409051046013886" lon="16.259848129233283"><ele>937.0</ele><time>2026-03-22T11:12:10Z</time></trkpt><trkpt lat="38.4090298802819" lon="16.25971948227694"><ele>937.0</ele><time>2026-03-22T11:12:11Z</time></trkpt><trkpt lat="38.4089974596219" lon="16.259613347112712"><ele>937.0</ele><time>2026-03-22T11:12:12Z</time></trkpt><trkpt lat="38.40895070637041" lon="16.259536022895684"><ele>938.6</ele><time>2026-03-22T11:12:13Z</time></trkpt><trkpt lat="38.40887427402487" lon="16.25951114478796"><ele>940.2</ele><time>2026-03-22T11:12:14Z</time></trkpt><trkpt lat="38.40878790385936" lon="16.259501645852584"><ele>941.8</ele><time>2026-03-22T11:12:15Z</time></trkpt><trkpt lat="38.4086976581662" lon="16.25957184967607"><ele>943.4</ele><time>2026-03-22T11:12:16Z</time></trkpt><trkpt lat="38.4085969823443" lon="16.259630480374888"><ele>945.0</ele><time>2026-03-22T11:12:17Z</time></trkpt><trkpt lat="38.408473903953315" lon="16.259601032131037"><ele>945.0</ele><time>2026-03-22T11:12:18Z</time></trkpt><trkpt lat="38.408335498283854" lon="16.259585699305237"><ele>945.0</ele><time>2026-03-22T11:12:19Z</time></trkpt><trkpt lat="38.40817870530611" lon="16.259567005471574"><ele>945.0</ele><time>2026-03-22T11:12:20Z</time></trkpt><trkpt lat="38.40802864777406" lon="16.259549114672765"><ele>945.0</ele><time>2026-03-22T11:12:21Z</time></trkpt><trkpt lat="38.40787979332313" lon="16.259531417115824"><ele>942.5</ele><time>2026-03-22T11:12:22Z</time></trkpt><trkpt lat="38.407748067680956" lon="16.259516340795432"><ele>940.0</ele><time>2026-03-22T11:12:23Z</time></trkpt><trkpt lat="38.407639261484384" lon="16.259506170980984"><ele>937.5</ele><time>2026-03-22T11:12:24Z</time></trkpt><trkpt lat="38.40754899564644" lon="16.25950710011555"><ele>935.0</ele><time>2026-03-22T11:12:25Z</time></trkpt><trkpt lat="38.40742732271122" lon="16.25955263019228"><ele>935.0</ele><time>2026-03-22T11:12:26Z</time></trkpt><trkpt lat="38.40729325953515" lon="16.259629862648346"><ele>935.0</ele><time>2026-03-22T11:12:27Z</time></trkpt><trkpt lat="38.407138724223095" lon="16.25972045999788"><ele>935.0</ele><time>2026-03-22T11:12:28Z</time></trkpt><trkpt lat="38.40699251435246" lon="16.259811033416156"><ele>929.5</ele><time>2026-03-22T11:12:29Z</time></trkpt><trkpt lat="38.40685322062566" lon="16.25989756033156"><ele>924.0</ele><time>2026-03-22T11:12:30Z</time></trkpt><trkpt lat="38.406727764902456" lon="16.25997342935664"><ele>918.5</ele><time>2026-03-22T11:12:31Z</time></trkpt><trkpt lat="38.40661338331242" lon="16.260039752013096"><ele>913.0</ele><time>2026-03-22T11:12:32Z</time></trkpt><trkpt lat="38.406530316552974" lon="16.2600999848569"><ele>913.0</ele><time>2026-03-22T11:12:33Z</time></trkpt><trkpt lat="38.40644397595018" lon="16.26011820110193"><ele>913.0</ele><time>2026-03-22T11:12:34Z</time></trkpt><trkpt lat="38.40634797895816" lon="16.260097010361626"><ele>913.0</ele><time>2026-03-22T11:12:35Z</time></trkpt><trkpt lat="38.406256387510204" lon="16.260045272359797"><ele>913.0</ele><time>2026-03-22T11:12:36Z</time></trkpt><trkpt lat="38.40617845793577" lon="16.259998375971392"><ele>913.0</ele><time>2026-03-22T11:12:37Z</time></trkpt><trkpt lat="38.406091500576004" lon="16.25998639880109"><ele>913.8</ele><time>2026-03-22T11:12:38Z</time></trkpt><trkpt lat="38.405996746031896" lon="16.260017053002674"><ele>914.5999999999999</ele><time>2026-03-22T11:12:39Z</time></trkpt><trkpt lat="38.40590382022803" lon="16.260094122638872"><ele>915.4000000000001</ele><time>2026-03-22T11:12:40Z</time></trkpt><trkpt lat="38.40582433784193" lon="16.2601795468984"><ele>916.2</ele><time>2026-03-22T11:12:41Z</time></trkpt><trkpt lat="38.40574841884453" lon="16.26027366336954"><ele>917.0</ele><time>2026-03-22T11:12:42Z</time></trkpt><trkpt lat="38.40563991497949" lon="16.260296517231236"><ele>917.0</ele><time>2026-03-22T11:12:43Z</time></trkpt><trkpt lat="38.40553504319546" lon="16.260271503154865"><ele>917.0</ele><time>2026-03-22T11:12:44Z</time></trkpt><trkpt lat="38.405462392793275" lon="16.26027217420677"><ele>917.0</ele><time>2026-03-22T11:12:45Z</time></trkpt><trkpt lat="38.40538129000187" lon="16.260325198565333"><ele>917.0</ele><time>2026-03-22T11:12:46Z</time></trkpt><trkpt lat="38.40529804318053" lon="16.260396651197556"><ele>917.0</ele><time>2026-03-22T11:12:47Z</time></trkpt><trkpt lat="38.40521245078298" lon="16.260520828930378"><ele>917.8</ele><time>2026-03-22T11:12:48Z</time></trkpt><trkpt lat="38.40513686303676" lon="16.26060965924813"><ele>918.6</ele><time>2026-03-22T11:12:49Z</time></trkpt><trkpt lat="38.405076834997445" lon="16.26066067262603"><ele>919.3999999999999</ele><time>2026-03-22T11:12:50Z</time></trkpt><trkpt lat="38.40499534884211" lon="16.260696347770015"><ele>920.1999999999999</ele><time>2026-03-22T11:12:51Z</time></trkpt><trkpt lat="38.404897929106966" lon="16.260713663109538"><ele>921.0</ele><time>2026-03-22T11:12:52Z</time></trkpt><trkpt lat="38.40475467806118" lon="16.260703544551728"><ele>911.75</ele><time>2026-03-22T11:12:53Z</time></trkpt><trkpt lat="38.40463255900534" lon="16.260699556992805"><ele>902.5</ele><time>2026-03-22T11:12:54Z</time></trkpt><trkpt lat="38.40452638468361" lon="16.260697720314962"><ele>893.25</ele><time>2026-03-22T11:12:55Z</time></trkpt><trkpt lat="38.40440634003118" lon="16.260681059361083"><ele>884.0</ele><time>2026-03-22T11:12:56Z</time></trkpt><trkpt lat="38.40417283715973" lon="16.260631183082285"><ele>888.75</ele><time>2026-03-22T11:12:57Z</time></trkpt><trkpt lat="38.40401845628108" lon="16.260587483458636"><ele>893.5</ele><time>2026-03-22T11:12:58Z</time></trkpt><trkpt lat="38.4039051142045" lon="16.26055904158849"><ele>898.25</ele><time>2026-03-22T11:12:59Z</time></trkpt><trkpt lat="38.40379859984115" lon="16.26053670081502"><ele>903.0</ele><time>2026-03-22T11:13:00Z</time></trkpt><trkpt lat="38.40369355406777" lon="16.260529448643084"><ele>903.0</ele><time>2026-03-22T11:13:01Z</time></trkpt><trkpt lat="38.40357852512701" lon="16.260556868822597"><ele>903.0</ele><time>2026-03-22T11:13:02Z</time></trkpt><trkpt lat="38.40347319769398" lon="16.260649941087543"><ele>903.0</ele><time>2026-03-22T11:13:03Z</time></trkpt><trkpt lat="38.40341296298426" lon="16.260812211225353"><ele>903.0</ele><time>2026-03-22T11:13:04Z</time></trkpt><trkpt lat="38.403358448139976" lon="16.26095551543677"><ele>902.0</ele><time>2026-03-22T11:13:05Z</time></trkpt><trkpt lat="38.403340018568905" lon="16.26111883652946"><ele>901.0</ele><time>2026-03-22T11:13:06Z</time></trkpt><trkpt lat="38.40334088030949" lon="16.26128400285042"><ele>900.0</ele><time>2026-03-22T11:13:07Z</time></trkpt><trkpt lat="38.40333958952411" lon="16.261411587734052"><ele>899.0</ele><time>2026-03-22T11:13:08Z</time></trkpt><trkpt lat="38.403317175728" lon="16.261501943293663"><ele>898.0</ele><time>2026-03-22T11:13:09Z</time></trkpt><trkpt lat="38.4032660883385" lon="16.26157241406026"><ele>894.5999999999999</ele><time>2026-03-22T11:13:10Z</time></trkpt><trkpt lat="38.40318987113565" lon="16.261594877968044"><ele>891.1999999999999</ele><time>2026-03-22T11:13:11Z</time></trkpt><trkpt lat="38.40311332248935" lon="16.261607480090206"><ele>887.8</ele><time>2026-03-22T11:13:12Z</time></trkpt><trkpt lat="38.403032422228144" lon="16.261577446254226"><ele>884.4</ele><time>2026-03-22T11:13:13Z</time></trkpt><trkpt lat="38.40293243107394" lon="16.2615114538846"><ele>881.0</ele><time>2026-03-22T11:13:14Z</time></trkpt><trkpt lat="38.40285180287497" lon="16.261430233787294"><ele>881.0</ele><time>2026-03-22T11:13:15Z</time></trkpt><trkpt lat="38.40276198170863" lon="16.26132664532295"><ele>881.0</ele><time>2026-03-22T11:13:16Z</time></trkpt><trkpt lat="38.40270537487282" lon="16.261207260342342"><ele>881.0</ele><time>2026-03-22T11:13:17Z</time></trkpt><trkpt lat="38.4026472710613" lon="16.26107155687421"><ele>881.0</ele><time>2026-03-22T11:13:18Z</time></trkpt><trkpt lat="38.40260819593877" lon="16.260934091059067"><ele>881.0</ele><time>2026-03-22T11:13:19Z</time></trkpt><trkpt lat="38.40259450794968" lon="16.26080387066549"><ele>881.0</ele><time>2026-03-22T11:13:20Z</time></trkpt><trkpt lat="38.40259989721531" lon="16.260671186268283"><ele>881.0</ele><time>2026-03-22T11:13:21Z</time></trkpt><trkpt lat="38.4026193792128" lon="16.260510065407665"><ele>881.0</ele><time>2026-03-22T11:13:22Z</time></trkpt><trkpt lat="38.402631290532575" lon="16.26032349946727"><ele>881.25</ele><time>2026-03-22T11:13:23Z</time></trkpt><trkpt lat="38.40261163691437" lon="16.260135676008975"><ele>881.5</ele><time>2026-03-22T11:13:24Z</time></trkpt><trkpt lat="38.402607612127134" lon="16.25996443675692"><ele>881.75</ele><time>2026-03-22T11:13:25Z</time></trkpt><trkpt lat="38.402592440351015" lon="16.259806288769823"><ele>882.0</ele><time>2026-03-22T11:13:26Z</time></trkpt><trkpt lat="38.40257220052735" lon="16.259671581265355"><ele>883.3333333333334</ele><time>2026-03-22T11:13:27Z</time></trkpt><trkpt lat="38.40254702034216" lon="16.25956114107822"><ele>884.6666666666667</ele><time>2026-03-22T11:13:28Z</time></trkpt><trkpt lat="38.40250546414231" lon="16.259487858238497"><ele>886.0</ele><time>2026-03-22T11:13:29Z</time></trkpt><trkpt lat="38.402437027970684" lon="16.25945066526134"><ele>887.3333333333334</ele><time>2026-03-22T11:13:30Z</time></trkpt><trkpt lat="38.40233313214443" lon="16.259421223499828"><ele>888.6666666666667</ele><time>2026-03-22T11:13:31Z</time></trkpt><trkpt lat="38.402233229068685" lon="16.259441251354666"><ele>890.0</ele><time>2026-03-22T11:13:32Z</time></trkpt><trkpt lat="38.40212133063837" lon="16.259519528651477"><ele>890.0</ele><time>2026-03-22T11:13:33Z</time></trkpt><trkpt lat="38.40204008885762" lon="16.25961972597797"><ele>890.0</ele><time>2026-03-22T11:13:34Z</time></trkpt><trkpt lat="38.40197083423404" lon="16.25970070804566"><ele>890.0</ele><time>2026-03-22T11:13:35Z</time></trkpt><trkpt lat="38.401908397214875" lon="16.259759883164186"><ele>890.0</ele><time>2026-03-22T11:13:36Z</time></trkpt><trkpt lat="38.40182286999767" lon="16.259744023739717"><ele>890.0</ele><time>2026-03-22T11:13:37Z</time></trkpt><trkpt lat="38.4017286746079" lon="16.2596831603513"><ele>890.0</ele><time>2026-03-22T11:13:38Z</time></trkpt><trkpt lat="38.40162423910366" lon="16.259588864872256"><ele>890.0</ele><time>2026-03-22T11:13:39Z</time></trkpt><trkpt lat="38.40150636692961" lon="16.259478382030405"><ele>890.0</ele><time>2026-03-22T11:13:40Z</time></trkpt><trkpt lat="38.4013883717875" lon="16.25935610277312"><ele>890.0</ele><time>2026-03-22T11:13:41Z</time></trkpt><trkpt lat="38.401312955627674" lon="16.259254726176717"><ele>892.4</ele><time>2026-03-22T11:13:42Z</time></trkpt><trkpt lat="38.40121094659777" lon="16.259159008755805"><ele>894.8</ele><time>2026-03-22T11:13:43Z</time></trkpt><trkpt lat="38.40113990723337" lon="16.259040759802872"><ele>897.2</ele><time>2026-03-22T11:13:44Z</time></trkpt><trkpt lat="38.401083040560906" lon="16.258943004895826"><ele>899.6</ele><time>2026-03-22T11:13:45Z</time></trkpt><trkpt lat="38.401019417007966" lon="16.258860380229113"><ele>902.0</ele><time>2026-03-22T11:13:46Z</time></trkpt><trkpt lat="38.400932993167466" lon="16.25884292111175"><ele>902.0</ele><time>2026-03-22T11:13:47Z</time></trkpt><trkpt lat="38.40082423609194" lon="16.258870846570087"><ele>902.0</ele><time>2026-03-22T11:13:48Z</time></trkpt><trkpt lat="38.400686627731666" lon="16.258918219245857"><ele>902.0</ele><time>2026-03-22T11:13:49Z</time></trkpt><trkpt lat="38.40052825367442" lon="16.258956984691125"><ele>902.0</ele><time>2026-03-22T11:13:50Z</time></trkpt><trkpt lat="38.40039209038318" lon="16.25899185775422"><ele>893.0</ele><time>2026-03-22T11:13:51Z</time></trkpt><trkpt lat="38.40026419326237" lon="16.259029836767333"><ele>884.0</ele><time>2026-03-22T11:13:52Z</time></trkpt><trkpt lat="38.40013465918881" lon="16.259068360581484"><ele>875.0</ele><time>2026-03-22T11:13:53Z</time></trkpt><trkpt lat="38.40001551301492" lon="16.25909382578701"><ele>866.0</ele><time>2026-03-22T11:13:54Z</time></trkpt><trkpt lat="38.39990202003794" lon="16.25908260695466"><ele>866.0</ele><time>2026-03-22T11:13:55Z</time></trkpt><trkpt lat="38.39977817035829" lon="16.259050862912158"><ele>865.9999999999999</ele><time>2026-03-22T11:13:56Z</time></trkpt><trkpt lat="38.39967278565622" lon="16.258969374221575"><ele>865.9999999999999</ele><time>2026-03-22T11:13:57Z</time></trkpt><trkpt lat="38.39960396106583" lon="16.258865513925553"><ele>866.0</ele><time>2026-03-22T11:13:58Z</time></trkpt><trkpt lat="38.39957944760298" lon="16.258751955201713"><ele>866.0</ele><time>2026-03-22T11:13:59Z</time></trkpt><trkpt lat="38.399524793898905" lon="16.25865183077798"><ele>871.0</ele><time>2026-03-22T11:14:00Z</time></trkpt><trkpt lat="38.399434425517875" lon="16.258581742493458"><ele>876.0</ele><time>2026-03-22T11:14:01Z</time></trkpt><trkpt lat="38.399303210434375" lon="16.25855596372905"><ele>881.0</ele><time>2026-03-22T11:14:02Z</time></trkpt><trkpt lat="38.399188251500476" lon="16.25857009094566"><ele>886.0</ele><time>2026-03-22T11:14:03Z</time></trkpt><trkpt lat="38.39908318145829" lon="16.258599559296037"><ele>886.0</ele><time>2026-03-22T11:14:04Z</time></trkpt><trkpt lat="38.39898784160668" lon="16.258704500586635"><ele>886.0</ele><time>2026-03-22T11:14:05Z</time></trkpt><trkpt lat="38.398889963980196" lon="16.258794425739858"><ele>886.0</ele><time>2026-03-22T11:14:06Z</time></trkpt><trkpt lat="38.39876381492072" lon="16.25893909670143"><ele>886.0</ele><time>2026-03-22T11:14:07Z</time></trkpt><trkpt lat="38.398693705348464" lon="16.25906013968241"><ele>879.25</ele><time>2026-03-22T11:14:08Z</time></trkpt><trkpt lat="38.39861641523067" lon="16.25916590377478"><ele>872.5</ele><time>2026-03-22T11:14:09Z</time></trkpt><trkpt lat="38.39851457573781" lon="16.259245639656825"><ele>865.75</ele><time>2026-03-22T11:14:10Z</time></trkpt><trkpt lat="38.39839750373776" lon="16.25932067243427"><ele>859.0</ele><time>2026-03-22T11:14:11Z</time></trkpt><trkpt lat="38.39828436584715" lon="16.259358824482387"><ele>859.0</ele><time>2026-03-22T11:14:12Z</time></trkpt><trkpt lat="38.398181431778404" lon="16.259393623949116"><ele>859.0</ele><time>2026-03-22T11:14:13Z</time></trkpt><trkpt lat="38.3980845590155" lon="16.259406572436127"><ele>859.0</ele><time>2026-03-22T11:14:14Z</time></trkpt><trkpt lat="38.39799038103868" lon="16.259323315156834"><ele>859.0</ele><time>2026-03-22T11:14:15Z</time></trkpt><trkpt lat="38.39787392033934" lon="16.25923704606993"><ele>856.2</ele><time>2026-03-22T11:14:16Z</time></trkpt><trkpt lat="38.39777219824276" lon="16.259157855243345"><ele>853.4000000000001</ele><time>2026-03-22T11:14:17Z</time></trkpt><trkpt lat="38.397675810162546" lon="16.259089027488393"><ele>850.6</ele><time>2026-03-22T11:14:18Z</time></trkpt><trkpt lat="38.397576709221745" lon="16.25905219075643"><ele>847.8</ele><time>2026-03-22T11:14:19Z</time></trkpt><trkpt lat="38.397494328380404" lon="16.259069202466105"><ele>845.0</ele><time>2026-03-22T11:14:20Z</time></trkpt><trkpt lat="38.397396936876326" lon="16.259087097673486"><ele>845.0</ele><time>2026-03-22T11:14:21Z</time></trkpt><trkpt lat="38.397262495097614" lon="16.259177618659034"><ele>845.0</ele><time>2026-03-22T11:14:22Z</time></trkpt><trkpt lat="38.397137357499204" lon="16.2592482260012"><ele>845.0</ele><time>2026-03-22T11:14:23Z</time></trkpt><trkpt lat="38.39702728219266" lon="16.259313278192902"><ele>845.0</ele><time>2026-03-22T11:14:24Z</time></trkpt><trkpt lat="38.39690452421076" lon="16.25934182046804"><ele>839.0</ele><time>2026-03-22T11:14:25Z</time></trkpt><trkpt lat="38.39674042900354" lon="16.2593969894236"><ele>833.0</ele><time>2026-03-22T11:14:26Z</time></trkpt><trkpt lat="38.39657566649199" lon="16.259429131679134"><ele>827.0</ele><time>2026-03-22T11:14:27Z</time></trkpt><trkpt lat="38.3964249563125" lon="16.259436601535615"><ele>827.0</ele><time>2026-03-22T11:14:28Z</time></trkpt><trkpt lat="38.39628076387525" lon="16.259464950920268"><ele>827.0</ele><time>2026-03-22T11:14:29Z</time></trkpt><trkpt lat="38.3961569321266" lon="16.259504283845864"><ele>827.0</ele><time>2026-03-22T11:14:30Z</time></trkpt><trkpt lat="38.396047356842246" lon="16.259517863535475"><ele>827.0</ele><time>2026-03-22T11:14:31Z</time></trkpt><trkpt lat="38.39593134555508" lon="16.259498136848187"><ele>827.0</ele><time>2026-03-22T11:14:32Z</time></trkpt><trkpt lat="38.39582827674616" lon="16.259412118621345"><ele>827.0</ele><time>2026-03-22T11:14:33Z</time></trkpt><trkpt lat="38.39571368045447" lon="16.25934302460746"><ele>827.0</ele><time>2026-03-22T11:14:34Z</time></trkpt><trkpt lat="38.395622958846566" lon="16.259279397995293"><ele>827.0</ele><time>2026-03-22T11:14:35Z</time></trkpt><trkpt lat="38.39554501181657" lon="16.259237488303597"><ele>827.0</ele><time>2026-03-22T11:14:36Z</time></trkpt><trkpt lat="38.395482332700155" lon="16.259222229727307"><ele>825.0</ele><time>2026-03-22T11:14:37Z</time></trkpt><trkpt lat="38.3953877312732" lon="16.259223788241492"><ele>823.0</ele><time>2026-03-22T11:14:39Z</time></trkpt><trkpt lat="38.39531014705198" lon="16.259255678557295"><ele>821.0</ele><time>2026-03-22T11:14:41Z</time></trkpt><trkpt lat="38.39525312292155" lon="16.259341179124267"><ele>819.0</ele><time>2026-03-22T11:14:47Z</time></trkpt><trkpt lat="38.39520827034216" lon="16.2594271059946"><ele>817.0</ele><time>2026-03-22T11:14:49Z</time></trkpt><trkpt lat="38.39517346683765" lon="16.259612794687605"><ele>817.0</ele><time>2026-03-22T11:19:09Z</time></trkpt><trkpt lat="38.39515277115957" lon="16.259737270525246"><ele>817.0</ele><time>2026-03-22T11:19:10Z</time></trkpt><trkpt lat="38.39510075781658" lon="16.259889393031038"><ele>817.0</ele><time>2026-03-22T11:19:11Z</time></trkpt><trkpt lat="38.395060598365056" lon="16.26000636509751"><ele>817.0</ele><time>2026-03-22T11:19:12Z</time></trkpt><trkpt lat="38.395088164950316" lon="16.260082242704712"><ele>817.0</ele><time>2026-03-22T11:19:14Z</time></trkpt><trkpt lat="38.395124456940714" lon="16.260182354972912"><ele>816.8</ele><time>2026-03-22T11:19:15Z</time></trkpt><trkpt lat="38.39516998780758" lon="16.26029665810511"><ele>816.6</ele><time>2026-03-22T11:19:16Z</time></trkpt><trkpt lat="38.395246378243435" lon="16.26041351274219"><ele>816.4</ele><time>2026-03-22T11:19:17Z</time></trkpt><trkpt lat="38.39527670582429" lon="16.260523526167802"><ele>816.1999999999999</ele><time>2026-03-22T11:19:18Z</time></trkpt><trkpt lat="38.3952765886419" lon="16.260613931088375"><ele>816.0</ele><time>2026-03-22T11:19:19Z</time></trkpt><trkpt lat="38.395245181586695" lon="16.260704341863082"><ele>816.0</ele><time>2026-03-22T11:19:20Z</time></trkpt><trkpt lat="38.39517864795054" lon="16.260788322327123"><ele>816.0</ele><time>2026-03-22T11:19:21Z</time></trkpt><trkpt lat="38.39510254776717" lon="16.26091429529448"><ele>816.0</ele><time>2026-03-22T11:19:22Z</time></trkpt><trkpt lat="38.39502251346619" lon="16.2610567040777"><ele>816.0</ele><time>2026-03-22T11:19:23Z</time></trkpt><trkpt lat="38.39494833578006" lon="16.26122195599864"><ele>816.0</ele><time>2026-03-22T11:19:24Z</time></trkpt><trkpt lat="38.394894813627985" lon="16.261389974133447"><ele>816.0</ele><time>2026-03-22T11:19:25Z</time></trkpt><trkpt lat="38.39485944621461" lon="16.261546838688083"><ele>816.0</ele><time>2026-03-22T11:19:26Z</time></trkpt><trkpt lat="38.39482097641657" lon="16.26169405261206"><ele>816.0</ele><time>2026-03-22T11:19:27Z</time></trkpt><trkpt lat="38.39478258819764" lon="16.261832926186074"><ele>816.5999999999999</ele><time>2026-03-22T11:19:28Z</time></trkpt><trkpt lat="38.39474276939481" lon="16.261969063956695"><ele>817.2</ele><time>2026-03-22T11:19:29Z</time></trkpt><trkpt lat="38.39471182848391" lon="16.262096088147437"><ele>817.8</ele><time>2026-03-22T11:19:30Z</time></trkpt><trkpt lat="38.3946902820377" lon="16.262225393967967"><ele>818.4000000000001</ele><time>2026-03-22T11:19:31Z</time></trkpt><trkpt lat="38.39470586794427" lon="16.26236826583867"><ele>819.0</ele><time>2026-03-22T11:19:32Z</time></trkpt><trkpt lat="38.394776564292414" lon="16.26249459704259"><ele>819.0</ele><time>2026-03-22T11:19:33Z</time></trkpt><trkpt lat="38.39482345762492" lon="16.26264803741154"><ele>819.0</ele><time>2026-03-22T11:19:34Z</time></trkpt><trkpt lat="38.39490568433987" lon="16.26279369174975"><ele>819.0</ele><time>2026-03-22T11:19:35Z</time></trkpt><trkpt lat="38.394960195658605" lon="16.262935018537398"><ele>819.0</ele><time>2026-03-22T11:19:36Z</time></trkpt><trkpt lat="38.39502371138682" lon="16.263069864709557"><ele>815.6666666666666</ele><time>2026-03-22T11:19:37Z</time></trkpt><trkpt lat="38.39508074097058" lon="16.263181899305053"><ele>812.3333333333333</ele><time>2026-03-22T11:19:38Z</time></trkpt><trkpt lat="38.39513177952708" lon="16.26327397699598"><ele>809.0</ele><time>2026-03-22T11:19:39Z</time></trkpt><trkpt lat="38.395198557986625" lon="16.263358261004043"><ele>805.6666666666666</ele><time>2026-03-22T11:19:40Z</time></trkpt><trkpt lat="38.39527515567978" lon="16.26339444782384"><ele>802.3333333333333</ele><time>2026-03-22T11:19:41Z</time></trkpt><trkpt lat="38.39535294850867" lon="16.263377823791895"><ele>799.0</ele><time>2026-03-22T11:19:42Z</time></trkpt><trkpt lat="38.39544056106614" lon="16.263330013402182"><ele>800.8000000000001</ele><time>2026-03-22T11:19:43Z</time></trkpt><trkpt lat="38.39551552497709" lon="16.26323949226455"><ele>802.6</ele><time>2026-03-22T11:19:44Z</time></trkpt><trkpt lat="38.395581500726045" lon="16.263157830746742"><ele>804.4</ele><time>2026-03-22T11:19:45Z</time></trkpt><trkpt lat="38.39565813793052" lon="16.263077830771593"><ele>806.2</ele><time>2026-03-22T11:19:46Z</time></trkpt><trkpt lat="38.39573466944159" lon="16.263014535587207"><ele>808.0</ele><time>2026-03-22T11:19:47Z</time></trkpt><trkpt lat="38.39583296139187" lon="16.26301352067899"><ele>808.0</ele><time>2026-03-22T11:19:48Z</time></trkpt><trkpt lat="38.39593485003989" lon="16.26305393850684"><ele>808.0</ele><time>2026-03-22T11:19:49Z</time></trkpt><trkpt lat="38.39604341013725" lon="16.263142116945573"><ele>808.0</ele><time>2026-03-22T11:19:50Z</time></trkpt><trkpt lat="38.39616124401926" lon="16.263200379464404"><ele>808.0</ele><time>2026-03-22T11:19:51Z</time></trkpt><trkpt lat="38.39626605146455" lon="16.26327771705713"><ele>809.25</ele><time>2026-03-22T11:19:52Z</time></trkpt><trkpt lat="38.396361376721885" lon="16.263354355624163"><ele>810.5</ele><time>2026-03-22T11:19:53Z</time></trkpt><trkpt lat="38.39644511779891" lon="16.26347322494629"><ele>811.75</ele><time>2026-03-22T11:19:54Z</time></trkpt><trkpt lat="38.39653166502109" lon="16.26363234551777"><ele>813.0</ele><time>2026-03-22T11:19:55Z</time></trkpt><trkpt lat="38.39663017272003" lon="16.263774234899852"><ele>813.0</ele><time>2026-03-22T11:19:56Z</time></trkpt><trkpt lat="38.39674045980404" lon="16.263899598332163"><ele>813.0</ele><time>2026-03-22T11:19:57Z</time></trkpt><trkpt lat="38.3968432997139" lon="16.26400861203392"><ele>813.0</ele><time>2026-03-22T11:19:58Z</time></trkpt><trkpt lat="38.39693463702182" lon="16.264099430308907"><ele>813.0</ele><time>2026-03-22T11:19:59Z</time></trkpt><trkpt lat="38.39701789040093" lon="16.264168018314937"><ele>809.3333333333334</ele><time>2026-03-22T11:20:00Z</time></trkpt><trkpt lat="38.39710462772364" lon="16.264203223570266"><ele>805.6666666666667</ele><time>2026-03-22T11:20:01Z</time></trkpt><trkpt lat="38.397175476357965" lon="16.264195612714495"><ele>802.0</ele><time>2026-03-22T11:20:02Z</time></trkpt><trkpt lat="38.39723262139359" lon="16.26413736642327"><ele>798.3333333333334</ele><time>2026-03-22T11:20:03Z</time></trkpt><trkpt lat="38.39727807538162" lon="16.264070663895126"><ele>794.6666666666667</ele><time>2026-03-22T11:20:04Z</time></trkpt><trkpt lat="38.39731021964554" lon="16.263968147999517"><ele>791.0</ele><time>2026-03-22T11:20:05Z</time></trkpt><trkpt lat="38.39734639948764" lon="16.263781248410453"><ele>791.0</ele><time>2026-03-22T11:20:06Z</time></trkpt><trkpt lat="38.39737263780544" lon="16.263594644872526"><ele>791.0</ele><time>2026-03-22T11:20:07Z</time></trkpt><trkpt lat="38.39740560389026" lon="16.263432922787796"><ele>791.0</ele><time>2026-03-22T11:20:08Z</time></trkpt><trkpt lat="38.397449547540816" lon="16.263282871210052"><ele>791.0</ele><time>2026-03-22T11:20:09Z</time></trkpt><trkpt lat="38.39747432743441" lon="16.263130357526368"><ele>792.8</ele><time>2026-03-22T11:20:10Z</time></trkpt><trkpt lat="38.39755377359366" lon="16.26299962005879"><ele>794.5999999999999</ele><time>2026-03-22T11:20:11Z</time></trkpt><trkpt lat="38.397584370399585" lon="16.26289873964131"><ele>796.4</ele><time>2026-03-22T11:20:12Z</time></trkpt><trkpt lat="38.39763425770328" lon="16.262763872809263"><ele>798.2</ele><time>2026-03-22T11:20:13Z</time></trkpt><trkpt lat="38.39765497444395" lon="16.26266061230634"><ele>800.0</ele><time>2026-03-22T11:20:14Z</time></trkpt><trkpt lat="38.39762994260269" lon="16.262519063388858"><ele>800.0</ele><time>2026-03-22T11:20:15Z</time></trkpt><trkpt lat="38.397604976114316" lon="16.26237121687218"><ele>800.0</ele><time>2026-03-22T11:20:16Z</time></trkpt><trkpt lat="38.39757378496831" lon="16.262200126939597"><ele>800.0</ele><time>2026-03-22T11:20:17Z</time></trkpt><trkpt lat="38.39754486511895" lon="16.262043721949233"><ele>800.0</ele><time>2026-03-22T11:20:18Z</time></trkpt><trkpt lat="38.39752708366186" lon="16.261906760066463"><ele>799.8</ele><time>2026-03-22T11:20:19Z</time></trkpt><trkpt lat="38.397501054469146" lon="16.261776141751216"><ele>799.6</ele><time>2026-03-22T11:20:20Z</time></trkpt><trkpt lat="38.397488362984994" lon="16.26167997814639"><ele>799.4000000000001</ele><time>2026-03-22T11:20:21Z</time></trkpt><trkpt lat="38.397489807228794" lon="16.261590296094063"><ele>799.2</ele><time>2026-03-22T11:20:22Z</time></trkpt><trkpt lat="38.3975497017499" lon="16.261442522190382"><ele>799.0</ele><time>2026-03-22T11:20:24Z</time></trkpt><trkpt lat="38.397636538094716" lon="16.26139617903821"><ele>802.2</ele><time>2026-03-22T11:20:25Z</time></trkpt><trkpt lat="38.39774987402884" lon="16.261384484439436"><ele>805.4000000000001</ele><time>2026-03-22T11:20:26Z</time></trkpt><trkpt lat="38.397855132920334" lon="16.261407953850618"><ele>808.6</ele><time>2026-03-22T11:20:27Z</time></trkpt><trkpt lat="38.39794566481044" lon="16.261428231657433"><ele>811.8</ele><time>2026-03-22T11:20:28Z</time></trkpt><trkpt lat="38.39800921550281" lon="16.261472018550567"><ele>815.0</ele><time>2026-03-22T11:20:29Z</time></trkpt><trkpt lat="38.398002227041886" lon="16.261592659790637"><ele>811.8</ele><time>2026-03-22T11:20:31Z</time></trkpt><trkpt lat="38.39793678888639" lon="16.261600337357187"><ele>808.6</ele><time>2026-03-22T11:20:33Z</time></trkpt><trkpt lat="38.397820203841135" lon="16.261518364926257"><ele>805.4000000000001</ele><time>2026-03-22T11:20:35Z</time></trkpt><trkpt lat="38.39774340864786" lon="16.261493685003924"><ele>802.2</ele><time>2026-03-22T11:20:36Z</time></trkpt><trkpt lat="38.39765771984385" lon="16.26152687156975"><ele>799.0</ele><time>2026-03-22T11:20:37Z</time></trkpt><trkpt lat="38.39760031520205" lon="16.261610887529343"><ele>799.0</ele><time>2026-03-22T11:20:38Z</time></trkpt><trkpt lat="38.397598929250215" lon="16.261760112497786"><ele>799.0</ele><time>2026-03-22T11:20:39Z</time></trkpt><trkpt lat="38.397646562273444" lon="16.2619071663516"><ele>799.0</ele><time>2026-03-22T11:20:40Z</time></trkpt><trkpt lat="38.3976968658296" lon="16.262065700657814"><ele>799.0</ele><time>2026-03-22T11:20:41Z</time></trkpt><trkpt lat="38.397745983475176" lon="16.262231222574144"><ele>799.2</ele><time>2026-03-22T11:20:42Z</time></trkpt><trkpt lat="38.39778905045509" lon="16.262381751976495"><ele>799.4000000000001</ele><time>2026-03-22T11:20:43Z</time></trkpt><trkpt lat="38.39782719338188" lon="16.262521685693542"><ele>799.6</ele><time>2026-03-22T11:20:44Z</time></trkpt><trkpt lat="38.39786268471965" lon="16.26264652292535"><ele>799.8</ele><time>2026-03-22T11:20:45Z</time></trkpt><trkpt lat="38.39789057065893" lon="16.26275853524536"><ele>800.0</ele><time>2026-03-22T11:20:46Z</time></trkpt><trkpt lat="38.397901575443875" lon="16.262844092187155"><ele>800.0</ele><time>2026-03-22T11:20:47Z</time></trkpt><trkpt lat="38.39786630643397" lon="16.26298740395536"><ele>800.0</ele><time>2026-03-22T11:20:49Z</time></trkpt><trkpt lat="38.397790531362965" lon="16.263114105425235"><ele>800.0</ele><time>2026-03-22T11:20:50Z</time></trkpt><trkpt lat="38.39772783833156" lon="16.263249017071896"><ele>800.0</ele><time>2026-03-22T11:20:51Z</time></trkpt><trkpt lat="38.3976788328604" lon="16.263405973740692"><ele>797.0</ele><time>2026-03-22T11:20:52Z</time></trkpt><trkpt lat="38.397657861361154" lon="16.26356933492278"><ele>794.0</ele><time>2026-03-22T11:20:53Z</time></trkpt><trkpt lat="38.397649268658704" lon="16.26374860309344"><ele>791.0</ele><time>2026-03-22T11:20:54Z</time></trkpt><trkpt lat="38.397639591679365" lon="16.26398113834951"><ele>787.3333333333334</ele><time>2026-03-22T11:20:55Z</time></trkpt><trkpt lat="38.397631368228836" lon="16.26420020164506"><ele>783.6666666666667</ele><time>2026-03-22T11:20:56Z</time></trkpt><trkpt lat="38.397641913719575" lon="16.264391677134416"><ele>780.0</ele><time>2026-03-22T11:20:57Z</time></trkpt><trkpt lat="38.397617606672775" lon="16.264568314011427"><ele>780.0</ele><time>2026-03-22T11:20:58Z</time></trkpt><trkpt lat="38.397625770487785" lon="16.264729376954993"><ele>780.0</ele><time>2026-03-22T11:20:59Z</time></trkpt><trkpt lat="38.397617978152795" lon="16.264853375702824"><ele>780.0</ele><time>2026-03-22T11:21:00Z</time></trkpt><trkpt lat="38.397604100371815" lon="16.26495109288267"><ele>780.0</ele><time>2026-03-22T11:21:01Z</time></trkpt><trkpt lat="38.39756204343268" lon="16.265033263590247"><ele>780.0</ele><time>2026-03-22T11:21:02Z</time></trkpt><trkpt lat="38.39748790543501" lon="16.265077511743627"><ele>775.8</ele><time>2026-03-22T11:21:03Z</time></trkpt><trkpt lat="38.39737436608002" lon="16.265117892588773"><ele>771.6</ele><time>2026-03-22T11:21:04Z</time></trkpt><trkpt lat="38.39726347595737" lon="16.265158448259697"><ele>767.4000000000001</ele><time>2026-03-22T11:21:05Z</time></trkpt><trkpt lat="38.397157410765054" lon="16.265185564497237"><ele>763.2</ele><time>2026-03-22T11:21:06Z</time></trkpt><trkpt lat="38.39704935081913" lon="16.265187091188693"><ele>759.0</ele><time>2026-03-22T11:21:07Z</time></trkpt><trkpt lat="38.396966805743524" lon="16.265158229051398"><ele>758.0</ele><time>2026-03-22T11:21:08Z</time></trkpt><trkpt lat="38.3968792387528" lon="16.265086010561312"><ele>757.0</ele><time>2026-03-22T11:21:09Z</time></trkpt><trkpt lat="38.39678924016001" lon="16.265002736860474"><ele>756.0</ele><time>2026-03-22T11:21:10Z</time></trkpt><trkpt lat="38.39670924103194" lon="16.26496332684721"><ele>755.0</ele><time>2026-03-22T11:21:11Z</time></trkpt><trkpt lat="38.39662518089492" lon="16.26488649785254"><ele>754.0</ele><time>2026-03-22T11:21:12Z</time></trkpt><trkpt lat="38.396560072455905" lon="16.264797400860683"><ele>759.2</ele><time>2026-03-22T11:21:13Z</time></trkpt><trkpt lat="38.396511899993506" lon="16.264723957737413"><ele>764.4000000000001</ele><time>2026-03-22T11:21:14Z</time></trkpt><trkpt lat="38.39647235344157" lon="16.264653505105098"><ele>769.6</ele><time>2026-03-22T11:21:15Z</time></trkpt><trkpt lat="38.396427114340746" lon="16.264567748064902"><ele>774.8</ele><time>2026-03-22T11:21:16Z</time></trkpt><trkpt lat="38.39637563325427" lon="16.26445866043741"><ele>780.0</ele><time>2026-03-22T11:21:18Z</time></trkpt><trkpt lat="38.39625750673132" lon="16.26433056203001"><ele>780.0</ele><time>2026-03-22T11:21:19Z</time></trkpt><trkpt lat="38.39608101405" lon="16.26438032993368"><ele>780.0</ele><time>2026-03-22T11:21:20Z</time></trkpt><trkpt lat="38.39599642120464" lon="16.264614791040977"><ele>780.0</ele><time>2026-03-22T11:21:21Z</time></trkpt><trkpt lat="38.39597510003986" lon="16.26474362754814"><ele>774.6</ele><time>2026-03-22T11:21:22Z</time></trkpt><trkpt lat="38.39594915070792" lon="16.26485680097002"><ele>769.2</ele><time>2026-03-22T11:21:23Z</time></trkpt><trkpt lat="38.3959257314237" lon="16.264955832076616"><ele>763.8</ele><time>2026-03-22T11:21:24Z</time></trkpt><trkpt lat="38.395888104649885" lon="16.26503767794273"><ele>758.4</ele><time>2026-03-22T11:21:25Z</time></trkpt><trkpt lat="38.39583062271034" lon="16.265108656353277"><ele>753.0</ele><time>2026-03-22T11:21:26Z</time></trkpt><trkpt lat="38.395703237746325" lon="16.265209168377194"><ele>753.0</ele><time>2026-03-22T11:21:27Z</time></trkpt><trkpt lat="38.39557496209211" lon="16.265296614781338"><ele>753.0</ele><time>2026-03-22T11:21:28Z</time></trkpt><trkpt lat="38.39544653901981" lon="16.265388851301502"><ele>753.0</ele><time>2026-03-22T11:21:29Z</time></trkpt><trkpt lat="38.395323883881936" lon="16.2655273673175"><ele>747.6666666666666</ele><time>2026-03-22T11:21:30Z</time></trkpt><trkpt lat="38.395217194702965" lon="16.2657154427559"><ele>742.3333333333333</ele><time>2026-03-22T11:21:31Z</time></trkpt><trkpt lat="38.39512615022395" lon="16.265872287287756"><ele>737.0</ele><time>2026-03-22T11:21:32Z</time></trkpt><trkpt lat="38.39504821317878" lon="16.266015775075836"><ele>737.0</ele><time>2026-03-22T11:21:33Z</time></trkpt><trkpt lat="38.39497926610473" lon="16.266128858254618"><ele>737.0</ele><time>2026-03-22T11:21:34Z</time></trkpt><trkpt lat="38.394927966142376" lon="16.26619836405453"><ele>737.0</ele><time>2026-03-22T11:21:35Z</time></trkpt><trkpt lat="38.39487040028656" lon="16.266245187662474"><ele>737.0</ele><time>2026-03-22T11:21:36Z</time></trkpt><trkpt lat="38.394795414180635" lon="16.2662644815383"><ele>737.0</ele><time>2026-03-22T11:21:37Z</time></trkpt><trkpt lat="38.39472883858176" lon="16.266221662932686"><ele>737.0</ele><time>2026-03-22T11:21:38Z</time></trkpt><trkpt lat="38.39465125357446" lon="16.266159223128184"><ele>730.5</ele><time>2026-03-22T11:21:39Z</time></trkpt><trkpt lat="38.39459909620906" lon="16.266035683135254"><ele>724.0</ele><time>2026-03-22T11:21:40Z</time></trkpt><trkpt lat="38.39453151136342" lon="16.26592392038226"><ele>717.5</ele><time>2026-03-22T11:21:41Z</time></trkpt><trkpt lat="38.39446377960985" lon="16.26577910874295"><ele>711.0</ele><time>2026-03-22T11:21:42Z</time></trkpt><trkpt lat="38.39439022281821" lon="16.26564209989545"><ele>713.75</ele><time>2026-03-22T11:21:43Z</time></trkpt><trkpt lat="38.394312278674285" lon="16.265508075295042"><ele>716.5</ele><time>2026-03-22T11:21:44Z</time></trkpt><trkpt lat="38.39425869918146" lon="16.265375676637852"><ele>719.25</ele><time>2026-03-22T11:21:45Z</time></trkpt><trkpt lat="38.39423272545838" lon="16.265228668922934"><ele>722.0</ele><time>2026-03-22T11:21:46Z</time></trkpt><trkpt lat="38.39421234191822" lon="16.265069810771863"><ele>722.0</ele><time>2026-03-22T11:21:47Z</time></trkpt><trkpt lat="38.39418701450281" lon="16.264935369253664"><ele>722.0</ele><time>2026-03-22T11:21:48Z</time></trkpt><trkpt lat="38.394161458503845" lon="16.264799898633324"><ele>722.0</ele><time>2026-03-22T11:21:49Z</time></trkpt><trkpt lat="38.394131825328756" lon="16.264674990624677"><ele>722.0</ele><time>2026-03-22T11:21:50Z</time></trkpt><trkpt lat="38.39409529633605" lon="16.26459182507878"><ele>722.0</ele><time>2026-03-22T11:21:51Z</time></trkpt><trkpt lat="38.394044096661865" lon="16.26451153272232"><ele>724.4000000000001</ele><time>2026-03-22T11:21:52Z</time></trkpt><trkpt lat="38.39396316321051" lon="16.264440460284213"><ele>726.8000000000001</ele><time>2026-03-22T11:21:53Z</time></trkpt><trkpt lat="38.393899661472325" lon="16.264361498302858"><ele>729.2</ele><time>2026-03-22T11:21:54Z</time></trkpt><trkpt lat="38.39387419661043" lon="16.26424438913862"><ele>731.6</ele><time>2026-03-22T11:21:55Z</time></trkpt><trkpt lat="38.39389445935851" lon="16.264123378462287"><ele>734.0</ele><time>2026-03-22T11:21:56Z</time></trkpt><trkpt lat="38.393933601625655" lon="16.26400268873898"><ele>736.5</ele><time>2026-03-22T11:21:57Z</time></trkpt><trkpt lat="38.39397061216674" lon="16.263915548928672"><ele>739.0</ele><time>2026-03-22T11:21:58Z</time></trkpt><trkpt lat="38.39399310896065" lon="16.26382953608555"><ele>741.5</ele><time>2026-03-22T11:21:59Z</time></trkpt><trkpt lat="38.3939519739459" lon="16.263683638715197"><ele>744.0</ele><time>2026-03-22T11:22:01Z</time></trkpt><trkpt lat="38.39389871491177" lon="16.26362043223898"><ele>746.5</ele><time>2026-03-22T11:22:02Z</time></trkpt><trkpt lat="38.39383422732237" lon="16.2635723156357"><ele>749.0</ele><time>2026-03-22T11:22:03Z</time></trkpt><trkpt lat="38.39376162609556" lon="16.263537969150626"><ele>742.0</ele><time>2026-03-22T11:22:04Z</time></trkpt><trkpt lat="38.39369283631214" lon="16.26351532287599"><ele>735.0</ele><time>2026-03-22T11:22:05Z</time></trkpt><trkpt lat="38.39360192276558" lon="16.263459867938323"><ele>728.0</ele><time>2026-03-22T11:22:07Z</time></trkpt><trkpt lat="38.39354918941249" lon="16.263415425715923"><ele>721.0</ele><time>2026-03-22T11:22:09Z</time></trkpt><trkpt lat="38.39347644901925" lon="16.26334394183287"><ele>714.0</ele><time>2026-03-22T11:22:11Z</time></trkpt><trkpt lat="38.3934234718015" lon="16.263274059550774"><ele>707.0</ele><time>2026-03-22T11:22:12Z</time></trkpt><trkpt lat="38.39336067892504" lon="16.263184009353218"><ele>709.0</ele><time>2026-03-22T11:22:13Z</time></trkpt><trkpt lat="38.39328325038803" lon="16.263083566064672"><ele>711.0</ele><time>2026-03-22T11:22:14Z</time></trkpt><trkpt lat="38.39320303587439" lon="16.262995748156378"><ele>713.0</ele><time>2026-03-22T11:22:15Z</time></trkpt><trkpt lat="38.39312260855665" lon="16.26292459678579"><ele>715.0</ele><time>2026-03-22T11:22:16Z</time></trkpt><trkpt lat="38.393052310168464" lon="16.262864746663155"><ele>717.0</ele><time>2026-03-22T11:22:17Z</time></trkpt><trkpt lat="38.39300038373723" lon="16.262785872630673"><ele>717.0</ele><time>2026-03-22T11:22:18Z</time></trkpt><trkpt lat="38.392991140832756" lon="16.262682118192153"><ele>717.0</ele><time>2026-03-22T11:22:19Z</time></trkpt><trkpt lat="38.39302164200001" lon="16.26257032787302"><ele>717.0</ele><time>2026-03-22T11:22:20Z</time></trkpt><trkpt lat="38.39306877589758" lon="16.262461227623838"><ele>717.0</ele><time>2026-03-22T11:22:21Z</time></trkpt><trkpt lat="38.393135706745824" lon="16.26234904015491"><ele>717.0</ele><time>2026-03-22T11:22:22Z</time></trkpt><trkpt lat="38.393223802557515" lon="16.262235254934378"><ele>716.6</ele><time>2026-03-22T11:22:23Z</time></trkpt><trkpt lat="38.39327553106301" lon="16.262127203203804"><ele>716.2</ele><time>2026-03-22T11:22:24Z</time></trkpt><trkpt lat="38.39333826002145" lon="16.26201354472442"><ele>715.8</ele><time>2026-03-22T11:22:25Z</time></trkpt><trkpt lat="38.39337844266981" lon="16.26191129585553"><ele>715.4</ele><time>2026-03-22T11:22:26Z</time></trkpt><trkpt lat="38.393390988460006" lon="16.2618031363975"><ele>715.0</ele><time>2026-03-22T11:22:27Z</time></trkpt><trkpt lat="38.39336769126535" lon="16.261718093143188"><ele>715.0</ele><time>2026-03-22T11:22:28Z</time></trkpt><trkpt lat="38.39332382119739" lon="16.261626229084783"><ele>715.0</ele><time>2026-03-22T11:22:29Z</time></trkpt><trkpt lat="38.39325754178027" lon="16.261546396604754"><ele>715.0</ele><time>2026-03-22T11:22:30Z</time></trkpt><trkpt lat="38.39313868794678" lon="16.261498637607463"><ele>715.0</ele><time>2026-03-22T11:22:31Z</time></trkpt><trkpt lat="38.39303599072508" lon="16.261511555636563"><ele>715.0</ele><time>2026-03-22T11:22:32Z</time></trkpt><trkpt lat="38.39294167517214" lon="16.2615301542882"><ele>714.0</ele><time>2026-03-22T11:22:33Z</time></trkpt><trkpt lat="38.39283364959433" lon="16.261531202540336"><ele>713.0</ele><time>2026-03-22T11:22:34Z</time></trkpt><trkpt lat="38.39272051907596" lon="16.2614832922757"><ele>712.0</ele><time>2026-03-22T11:22:35Z</time></trkpt><trkpt lat="38.39258700371098" lon="16.261415297223383"><ele>711.0</ele><time>2026-03-22T11:22:36Z</time></trkpt><trkpt lat="38.39244305898467" lon="16.261383815826616"><ele>711.0</ele><time>2026-03-22T11:22:37Z</time></trkpt><trkpt lat="38.39230334170248" lon="16.26138750233458"><ele>711.0</ele><time>2026-03-22T11:22:38Z</time></trkpt><trkpt lat="38.39221652902786" lon="16.261398390827765"><ele>711.0</ele><time>2026-03-22T11:22:39Z</time></trkpt><trkpt lat="38.39211947538027" lon="16.261381525020568"><ele>711.0</ele><time>2026-03-22T11:22:40Z</time></trkpt><trkpt lat="38.39203559829703" lon="16.26133913278127"><ele>711.0</ele><time>2026-03-22T11:22:41Z</time></trkpt><trkpt lat="38.39200575640215" lon="16.261239244538743"><ele>701.0</ele><time>2026-03-22T11:22:42Z</time></trkpt><trkpt lat="38.39199038772001" lon="16.261115049600082"><ele>691.0</ele><time>2026-03-22T11:22:43Z</time></trkpt><trkpt lat="38.39198662179588" lon="16.2609607450944"><ele>681.0</ele><time>2026-03-22T11:22:44Z</time></trkpt><trkpt lat="38.391983097445596" lon="16.260776287247012"><ele>671.0</ele><time>2026-03-22T11:22:45Z</time></trkpt><trkpt lat="38.39199445960736" lon="16.260611327125833"><ele>671.0</ele><time>2026-03-22T11:22:46Z</time></trkpt><trkpt lat="38.39198483519481" lon="16.260433660341352"><ele>671.0</ele><time>2026-03-22T11:22:47Z</time></trkpt><trkpt lat="38.391974054766756" lon="16.26028157242047"><ele>671.0</ele><time>2026-03-22T11:22:48Z</time></trkpt><trkpt lat="38.39201734915959" lon="16.26013971759373"><ele>671.0</ele><time>2026-03-22T11:22:49Z</time></trkpt><trkpt lat="38.39207984534669" lon="16.260021719144873"><ele>671.0</ele><time>2026-03-22T11:22:50Z</time></trkpt><trkpt lat="38.39213592974204" lon="16.259912422154425"><ele>671.0</ele><time>2026-03-22T11:22:51Z</time></trkpt><trkpt lat="38.39218892857089" lon="16.259824508313987"><ele>671.0</ele><time>2026-03-22T11:22:52Z</time></trkpt><trkpt lat="38.39222985830222" lon="16.25973831944077"><ele>671.0</ele><time>2026-03-22T11:22:53Z</time></trkpt><trkpt lat="38.39220599999955" lon="16.25963392535419"><ele>671.0</ele><time>2026-03-22T11:22:54Z</time></trkpt><trkpt lat="38.39217253792912" lon="16.25954117409915"><ele>671.0</ele><time>2026-03-22T11:22:55Z</time></trkpt><trkpt lat="38.392087140868036" lon="16.259465691408153"><ele>674.5</ele><time>2026-03-22T11:22:56Z</time></trkpt><trkpt lat="38.391972496345765" lon="16.259426373151978"><ele>678.0</ele><time>2026-03-22T11:22:57Z</time></trkpt><trkpt lat="38.391857884316835" lon="16.259390820838583"><ele>681.5</ele><time>2026-03-22T11:22:58Z</time></trkpt><trkpt lat="38.3917491541077" lon="16.259351184541295"><ele>685.0</ele><time>2026-03-22T11:22:59Z</time></trkpt><trkpt lat="38.39165225066069" lon="16.259299993439228"><ele>685.0</ele><time>2026-03-22T11:23:00Z</time></trkpt><trkpt lat="38.39158315340505" lon="16.25920562800364"><ele>685.0</ele><time>2026-03-22T11:23:01Z</time></trkpt><trkpt lat="38.39155865655976" lon="16.259120595638947"><ele>685.0</ele><time>2026-03-22T11:23:02Z</time></trkpt><trkpt lat="38.39154506168936" lon="16.259035353259097"><ele>685.0</ele><time>2026-03-22T11:23:03Z</time></trkpt><trkpt lat="38.391584451486445" lon="16.258924265448563"><ele>685.0</ele><time>2026-03-22T11:23:04Z</time></trkpt><trkpt lat="38.39162062689448" lon="16.258825523565154"><ele>685.0</ele><time>2026-03-22T11:23:05Z</time></trkpt><trkpt lat="38.39159799073073" lon="16.258730919774358"><ele>687.2</ele><time>2026-03-22T11:23:06Z</time></trkpt><trkpt lat="38.39153380672795" lon="16.258663703008043"><ele>689.4</ele><time>2026-03-22T11:23:07Z</time></trkpt><trkpt lat="38.3914535139681" lon="16.258616015491206"><ele>691.5999999999999</ele><time>2026-03-22T11:23:08Z</time></trkpt><trkpt lat="38.39132244287048" lon="16.258656841063626"><ele>693.8</ele><time>2026-03-22T11:23:09Z</time></trkpt><trkpt lat="38.391202765129265" lon="16.258709559062503"><ele>696.0</ele><time>2026-03-22T11:23:10Z</time></trkpt><trkpt lat="38.39107865333849" lon="16.258743622447827"><ele>691.4</ele><time>2026-03-22T11:23:11Z</time></trkpt><trkpt lat="38.390963919182724" lon="16.258780265979116"><ele>686.8</ele><time>2026-03-22T11:23:12Z</time></trkpt><trkpt lat="38.39086207814428" lon="16.25881270891998"><ele>682.1999999999999</ele><time>2026-03-22T11:23:13Z</time></trkpt><trkpt lat="38.39076351789447" lon="16.258840372818923"><ele>677.5999999999999</ele><time>2026-03-22T11:23:14Z</time></trkpt><trkpt lat="38.39066407853586" lon="16.258885323071503"><ele>673.0</ele><time>2026-03-22T11:23:15Z</time></trkpt><trkpt lat="38.39057398573312" lon="16.258943376838342"><ele>671.0</ele><time>2026-03-22T11:23:16Z</time></trkpt><trkpt lat="38.39048211616013" lon="16.259028597381004"><ele>669.0</ele><time>2026-03-22T11:23:17Z</time></trkpt><trkpt lat="38.390390522192995" lon="16.25915148499771"><ele>667.0</ele><time>2026-03-22T11:23:18Z</time></trkpt><trkpt lat="38.390296053318494" lon="16.25927440900945"><ele>665.0</ele><time>2026-03-22T11:23:19Z</time></trkpt><trkpt lat="38.390205774490035" lon="16.25942012977972"><ele>665.0</ele><time>2026-03-22T11:23:20Z</time></trkpt><trkpt lat="38.390111518437465" lon="16.25953233962956"><ele>665.0</ele><time>2026-03-22T11:23:21Z</time></trkpt><trkpt lat="38.39002981686825" lon="16.259646291728764"><ele>665.0</ele><time>2026-03-22T11:23:22Z</time></trkpt><trkpt lat="38.389950127282106" lon="16.25974361464801"><ele>665.0</ele><time>2026-03-22T11:23:23Z</time></trkpt><trkpt lat="38.38987667582754" lon="16.259807427713987"><ele>665.0</ele><time>2026-03-22T11:23:24Z</time></trkpt><trkpt lat="38.38978206371643" lon="16.259830097573655"><ele>664.75</ele><time>2026-03-22T11:23:25Z</time></trkpt><trkpt lat="38.389671959603234" lon="16.259795939096787"><ele>664.5</ele><time>2026-03-22T11:23:26Z</time></trkpt><trkpt lat="38.38956102988071" lon="16.259763948229068"><ele>664.25</ele><time>2026-03-22T11:23:27Z</time></trkpt><trkpt lat="38.38944146599442" lon="16.259748021326793"><ele>664.0</ele><time>2026-03-22T11:23:28Z</time></trkpt><trkpt lat="38.38930510030569" lon="16.25978161914531"><ele>664.0</ele><time>2026-03-22T11:23:29Z</time></trkpt><trkpt lat="38.38915794803623" lon="16.259819713527754"><ele>664.0</ele><time>2026-03-22T11:23:30Z</time></trkpt><trkpt lat="38.38902525865384" lon="16.25989291546887"><ele>664.0</ele><time>2026-03-22T11:23:31Z</time></trkpt><trkpt lat="38.388911672666296" lon="16.25996417204613"><ele>664.0</ele><time>2026-03-22T11:23:32Z</time></trkpt><trkpt lat="38.38880053228989" lon="16.259997096488295"><ele>662.5</ele><time>2026-03-22T11:23:33Z</time></trkpt><trkpt lat="38.38869745148811" lon="16.26000470893362"><ele>661.0</ele><time>2026-03-22T11:23:34Z</time></trkpt><trkpt lat="38.38858828145187" lon="16.259992900149182"><ele>659.5</ele><time>2026-03-22T11:23:35Z</time></trkpt><trkpt lat="38.38845823809723" lon="16.259952438473892"><ele>658.0</ele><time>2026-03-22T11:23:36Z</time></trkpt><trkpt lat="38.388348068956475" lon="16.259882854796224"><ele>658.0</ele><time>2026-03-22T11:23:37Z</time></trkpt><trkpt lat="38.388232518026335" lon="16.259859529933557"><ele>658.0</ele><time>2026-03-22T11:23:38Z</time></trkpt><trkpt lat="38.38811743405195" lon="16.259877928423347"><ele>658.0</ele><time>2026-03-22T11:23:39Z</time></trkpt><trkpt lat="38.38799555611669" lon="16.259928243532713"><ele>658.0</ele><time>2026-03-22T11:23:40Z</time></trkpt><trkpt lat="38.38787830030637" lon="16.260024966856438"><ele>662.0</ele><time>2026-03-22T11:23:41Z</time></trkpt><trkpt lat="38.38776267099273" lon="16.26013061477338"><ele>666.0</ele><time>2026-03-22T11:23:42Z</time></trkpt><trkpt lat="38.38764621689544" lon="16.260238988201287"><ele>670.0</ele><time>2026-03-22T11:23:43Z</time></trkpt><trkpt lat="38.38752961965871" lon="16.26034984792856"><ele>674.0</ele><time>2026-03-22T11:23:44Z</time></trkpt><trkpt lat="38.38742588332326" lon="16.26047276031175"><ele>664.0</ele><time>2026-03-22T11:23:45Z</time></trkpt><trkpt lat="38.38733336173892" lon="16.260620878468828"><ele>654.0</ele><time>2026-03-22T11:23:46Z</time></trkpt><trkpt lat="38.387275299130856" lon="16.260806708532158"><ele>644.0</ele><time>2026-03-22T11:23:47Z</time></trkpt><trkpt lat="38.38723699028586" lon="16.26099092918378"><ele>644.0</ele><time>2026-03-22T11:23:48Z</time></trkpt><trkpt lat="38.38720643543531" lon="16.261156635146005"><ele>644.0</ele><time>2026-03-22T11:23:49Z</time></trkpt><trkpt lat="38.38718022204971" lon="16.26128265949446"><ele>644.0</ele><time>2026-03-22T11:23:50Z</time></trkpt><trkpt lat="38.387152990056656" lon="16.261371495968884"><ele>644.0</ele><time>2026-03-22T11:23:51Z</time></trkpt><trkpt lat="38.3870641673908" lon="16.26144934131316"><ele>644.0</ele><time>2026-03-22T11:23:53Z</time></trkpt><trkpt lat="38.38700684788618" lon="16.261379520615797"><ele>643.5</ele><time>2026-03-22T11:23:54Z</time></trkpt><trkpt lat="38.386936817709454" lon="16.261269833775213"><ele>643.0</ele><time>2026-03-22T11:23:55Z</time></trkpt><trkpt lat="38.38684118047358" lon="16.2611405600756"><ele>642.5</ele><time>2026-03-22T11:23:56Z</time></trkpt><trkpt lat="38.38673927346018" lon="16.261005068321715"><ele>642.0</ele><time>2026-03-22T11:23:57Z</time></trkpt><trkpt lat="38.38660209451681" lon="16.260933873426666"><ele>642.0</ele><time>2026-03-22T11:23:58Z</time></trkpt><trkpt lat="38.386498088395506" lon="16.260837353250775"><ele>642.0</ele><time>2026-03-22T11:23:59Z</time></trkpt><trkpt lat="38.38642980118401" lon="16.26070189559299"><ele>642.0</ele><time>2026-03-22T11:24:00Z</time></trkpt><trkpt lat="38.38633908742192" lon="16.26063170254184"><ele>642.0</ele><time>2026-03-22T11:24:01Z</time></trkpt><trkpt lat="38.386229961314356" lon="16.26056606811491"><ele>644.5</ele><time>2026-03-22T11:24:02Z</time></trkpt><trkpt lat="38.386092213474036" lon="16.26051616926812"><ele>647.0</ele><time>2026-03-22T11:24:03Z</time></trkpt><trkpt lat="38.385978331506614" lon="16.260472103379787"><ele>649.5</ele><time>2026-03-22T11:24:04Z</time></trkpt><trkpt lat="38.38589018742349" lon="16.26038123672055"><ele>652.0</ele><time>2026-03-22T11:24:05Z</time></trkpt><trkpt lat="38.38581612284963" lon="16.26029132724944"><ele>652.0</ele><time>2026-03-22T11:24:06Z</time></trkpt><trkpt lat="38.38570516775144" lon="16.260260298094607"><ele>652.0</ele><time>2026-03-22T11:24:07Z</time></trkpt><trkpt lat="38.38561368819523" lon="16.260231364360564"><ele>652.0</ele><time>2026-03-22T11:24:08Z</time></trkpt><trkpt lat="38.38551467767602" lon="16.260166668694175"><ele>652.0</ele><time>2026-03-22T11:24:09Z</time></trkpt><trkpt lat="38.38541245510777" lon="16.260026461337706"><ele>653.3333333333334</ele><time>2026-03-22T11:24:10Z</time></trkpt><trkpt lat="38.3852572473016" lon="16.259883688514176"><ele>654.6666666666666</ele><time>2026-03-22T11:24:11Z</time></trkpt><trkpt lat="38.385113696128705" lon="16.25977585730884"><ele>656.0</ele><time>2026-03-22T11:24:12Z</time></trkpt><trkpt lat="38.38502472797816" lon="16.25971624029252"><ele>656.0</ele><time>2026-03-22T11:24:13Z</time></trkpt><trkpt lat="38.3848891023639" lon="16.259656545230502"><ele>656.0</ele><time>2026-03-22T11:24:14Z</time></trkpt><trkpt lat="38.38472435031977" lon="16.259649294802156"><ele>656.0</ele><time>2026-03-22T11:24:15Z</time></trkpt><trkpt lat="38.38453541782931" lon="16.25967259393273"><ele>651.6666666666666</ele><time>2026-03-22T11:24:16Z</time></trkpt><trkpt lat="38.38433857245227" lon="16.25969050617694"><ele>647.3333333333334</ele><time>2026-03-22T11:24:17Z</time></trkpt><trkpt lat="38.38416509513864" lon="16.25970424231537"><ele>643.0</ele><time>2026-03-22T11:24:18Z</time></trkpt><trkpt lat="38.38401722279513" lon="16.259720251215658"><ele>643.0</ele><time>2026-03-22T11:24:19Z</time></trkpt><trkpt lat="38.383900894330665" lon="16.25972950846041"><ele>643.0</ele><time>2026-03-22T11:24:20Z</time></trkpt><trkpt lat="38.38377624214087" lon="16.25971947776584"><ele>643.0</ele><time>2026-03-22T11:24:21Z</time></trkpt><trkpt lat="38.383663394189256" lon="16.25963846793986"><ele>643.0</ele><time>2026-03-22T11:24:22Z</time></trkpt><trkpt lat="38.38352877121038" lon="16.259531885212414"><ele>635.0</ele><time>2026-03-22T11:24:23Z</time></trkpt><trkpt lat="38.38333629875998" lon="16.25944941235947"><ele>627.0</ele><time>2026-03-22T11:24:24Z</time></trkpt><trkpt lat="38.38319997759408" lon="16.259371828956134"><ele>619.0</ele><time>2026-03-22T11:24:25Z</time></trkpt><trkpt lat="38.38305901311355" lon="16.25927619064104"><ele>617.3333333333334</ele><time>2026-03-22T11:24:26Z</time></trkpt><trkpt lat="38.38292219255729" lon="16.259128726221117"><ele>615.6666666666666</ele><time>2026-03-22T11:24:27Z</time></trkpt><trkpt lat="38.38279742755395" lon="16.258984194448132"><ele>614.0</ele><time>2026-03-22T11:24:28Z</time></trkpt><trkpt lat="38.382635647614485" lon="16.258838315769843"><ele>614.0</ele><time>2026-03-22T11:24:29Z</time></trkpt><trkpt lat="38.382514909975804" lon="16.258704018756138"><ele>614.0</ele><time>2026-03-22T11:24:30Z</time></trkpt><trkpt lat="38.38240165102027" lon="16.258569726532553"><ele>614.0</ele><time>2026-03-22T11:24:31Z</time></trkpt><trkpt lat="38.38229919672453" lon="16.25845364443816"><ele>614.0</ele><time>2026-03-22T11:24:32Z</time></trkpt><trkpt lat="38.38220963111714" lon="16.258337067850334"><ele>614.0</ele><time>2026-03-22T11:24:33Z</time></trkpt><trkpt lat="38.38213617817843" lon="16.258239756980032"><ele>614.0</ele><time>2026-03-22T11:24:34Z</time></trkpt><trkpt lat="38.3820687331498" lon="16.258147164997037"><ele>614.0</ele><time>2026-03-22T11:24:35Z</time></trkpt><trkpt lat="38.38200098502374" lon="16.25805072748877"><ele>614.0</ele><time>2026-03-22T11:24:36Z</time></trkpt><trkpt lat="38.38191677805285" lon="16.258009846006146"><ele>610.75</ele><time>2026-03-22T11:24:37Z</time></trkpt><trkpt lat="38.38180127454154" lon="16.258083372115227"><ele>607.5</ele><time>2026-03-22T11:24:38Z</time></trkpt><trkpt lat="38.38179653548434" lon="16.25828745469231"><ele>604.25</ele><time>2026-03-22T11:24:39Z</time></trkpt><trkpt lat="38.38189205175673" lon="16.25842553041973"><ele>601.0</ele><time>2026-03-22T11:24:40Z</time></trkpt><trkpt lat="38.38196252825493" lon="16.25857756552227"><ele>599.6666666666667</ele><time>2026-03-22T11:24:41Z</time></trkpt><trkpt lat="38.382046373179534" lon="16.25875892288252"><ele>598.3333333333334</ele><time>2026-03-22T11:24:42Z</time></trkpt><trkpt lat="38.382162620036034" lon="16.258974212615634"><ele>597.0</ele><time>2026-03-22T11:24:43Z</time></trkpt><trkpt lat="38.38228818682126" lon="16.25924798800279"><ele>601.0</ele><time>2026-03-22T11:24:44Z</time></trkpt><trkpt lat="38.38239808645612" lon="16.259500618122306"><ele>605.0</ele><time>2026-03-22T11:24:45Z</time></trkpt><trkpt lat="38.382510849334956" lon="16.25976444788525"><ele>601.0</ele><time>2026-03-22T11:24:46Z</time></trkpt><trkpt lat="38.38262270495975" lon="16.260000086506743"><ele>597.0</ele><time>2026-03-22T11:24:47Z</time></trkpt><trkpt lat="38.38271680893709" lon="16.260214456606228"><ele>593.0</ele><time>2026-03-22T11:24:48Z</time></trkpt><trkpt lat="38.382798732276235" lon="16.260408519481754"><ele>593.0</ele><time>2026-03-22T11:24:49Z</time></trkpt><trkpt lat="38.38284469348332" lon="16.260544904037303"><ele>593.0</ele><time>2026-03-22T11:24:50Z</time></trkpt><trkpt lat="38.38281113544387" lon="16.260746554531277"><ele>593.0</ele><time>2026-03-22T11:24:51Z</time></trkpt><trkpt lat="38.38273097172186" lon="16.26068713030572"><ele>593.0</ele><time>2026-03-22T11:24:53Z</time></trkpt><trkpt lat="38.38260299737667" lon="16.260821888289666"><ele>589.6666666666666</ele><time>2026-03-22T11:24:54Z</time></trkpt><trkpt lat="38.382465927794144" lon="16.260974727140162"><ele>586.3333333333334</ele><time>2026-03-22T11:24:55Z</time></trkpt><trkpt lat="38.38232869526929" lon="16.261133327731404"><ele>583.0</ele><time>2026-03-22T11:24:56Z</time></trkpt><trkpt lat="38.38220794903082" lon="16.26127545655668"><ele>579.6666666666667</ele><time>2026-03-22T11:24:57Z</time></trkpt><trkpt lat="38.38210585223677" lon="16.26142878428924"><ele>576.3333333333334</ele><time>2026-03-22T11:24:58Z</time></trkpt><trkpt lat="38.38204894414515" lon="16.261615830014314"><ele>573.0</ele><time>2026-03-22T11:24:59Z</time></trkpt><trkpt lat="38.38203206894396" lon="16.261796784388956"><ele>572.8</ele><time>2026-03-22T11:25:00Z</time></trkpt><trkpt lat="38.38200748205402" lon="16.261916305505178"><ele>572.5999999999999</ele><time>2026-03-22T11:25:01Z</time></trkpt><trkpt lat="38.38195799618365" lon="16.261980808398743"><ele>572.4000000000001</ele><time>2026-03-22T11:25:02Z</time></trkpt><trkpt lat="38.38186948240871" lon="16.261959881457418"><ele>572.2</ele><time>2026-03-22T11:25:04Z</time></trkpt><trkpt lat="38.38182508057911" lon="16.26186088929916"><ele>572.0</ele><time>2026-03-22T11:25:05Z</time></trkpt><trkpt lat="38.381832568535465" lon="16.261680380009118"><ele>572.0</ele><time>2026-03-22T11:25:06Z</time></trkpt><trkpt lat="38.38186394744381" lon="16.26146649872617"><ele>572.0</ele><time>2026-03-22T11:25:07Z</time></trkpt><trkpt lat="38.38187891080574" lon="16.261252744694055"><ele>572.0</ele><time>2026-03-22T11:25:08Z</time></trkpt><trkpt lat="38.38189283357094" lon="16.26106845960685"><ele>572.25</ele><time>2026-03-22T11:25:09Z</time></trkpt><trkpt lat="38.38189139906494" lon="16.260879538472896"><ele>572.5</ele><time>2026-03-22T11:25:10Z</time></trkpt><trkpt lat="38.38186363385888" lon="16.26069632590503"><ele>572.75</ele><time>2026-03-22T11:25:11Z</time></trkpt><trkpt lat="38.381800495209525" lon="16.260522101026808"><ele>573.0</ele><time>2026-03-22T11:25:12Z</time></trkpt><trkpt lat="38.38171321923797" lon="16.26037271524851"><ele>573.5</ele><time>2026-03-22T11:25:13Z</time></trkpt><trkpt lat="38.381612404299474" lon="16.260251510005087"><ele>574.0</ele><time>2026-03-22T11:25:14Z</time></trkpt><trkpt lat="38.381481656587965" lon="16.260171822393023"><ele>574.5</ele><time>2026-03-22T11:25:15Z</time></trkpt><trkpt lat="38.381333046195614" lon="16.260143327689722"><ele>575.0</ele><time>2026-03-22T11:25:16Z</time></trkpt><trkpt lat="38.381185736925005" lon="16.26016321274016"><ele>575.0</ele><time>2026-03-22T11:25:17Z</time></trkpt><trkpt lat="38.38103150910953" lon="16.2602343465096"><ele>575.0</ele><time>2026-03-22T11:25:18Z</time></trkpt><trkpt lat="38.380886980040906" lon="16.260377579239695"><ele>575.0</ele><time>2026-03-22T11:25:19Z</time></trkpt><trkpt lat="38.38076554570242" lon="16.26049659268531"><ele>575.0</ele><time>2026-03-22T11:25:20Z</time></trkpt><trkpt lat="38.38065038573488" lon="16.2605835404532"><ele>575.0</ele><time>2026-03-22T11:25:21Z</time></trkpt><trkpt lat="38.380530413877075" lon="16.260635670312155"><ele>575.0</ele><time>2026-03-22T11:25:22Z</time></trkpt><trkpt lat="38.3803893384168" lon="16.260649361295226"><ele>575.0</ele><time>2026-03-22T11:25:23Z</time></trkpt><trkpt lat="38.380230456591846" lon="16.260650014409162"><ele>570.0</ele><time>2026-03-22T11:25:24Z</time></trkpt><trkpt lat="38.38005887275188" lon="16.26066731671824"><ele>565.0</ele><time>2026-03-22T11:25:25Z</time></trkpt><trkpt lat="38.3798731059528" lon="16.260752600243492"><ele>560.0</ele><time>2026-03-22T11:25:26Z</time></trkpt><trkpt lat="38.37968691944109" lon="16.26087986918521"><ele>563.3333333333333</ele><time>2026-03-22T11:25:27Z</time></trkpt><trkpt lat="38.379521255388575" lon="16.26099974811895"><ele>566.6666666666666</ele><time>2026-03-22T11:25:28Z</time></trkpt><trkpt lat="38.37937143311702" lon="16.261103232858538"><ele>570.0</ele><time>2026-03-22T11:25:29Z</time></trkpt><trkpt lat="38.37923704893427" lon="16.261185651008425"><ele>570.0</ele><time>2026-03-22T11:25:30Z</time></trkpt><trkpt lat="38.37910656785106" lon="16.261237096372064"><ele>570.0</ele><time>2026-03-22T11:25:31Z</time></trkpt><trkpt lat="38.37898296668081" lon="16.261263665780806"><ele>570.0</ele><time>2026-03-22T11:25:32Z</time></trkpt><trkpt lat="38.37882951420044" lon="16.261260832649874"><ele>570.0</ele><time>2026-03-22T11:25:33Z</time></trkpt><trkpt lat="38.378654312033575" lon="16.261229869588007"><ele>567.5</ele><time>2026-03-22T11:25:34Z</time></trkpt><trkpt lat="38.3785077407923" lon="16.261200757805838"><ele>565.0</ele><time>2026-03-22T11:25:35Z</time></trkpt><trkpt lat="38.378395069119115" lon="16.26118976028624"><ele>562.5</ele><time>2026-03-22T11:25:36Z</time></trkpt><trkpt lat="38.37825344021483" lon="16.261101509569777"><ele>560.0</ele><time>2026-03-22T11:25:37Z</time></trkpt><trkpt lat="38.37810947189314" lon="16.261016676933863"><ele>556.5</ele><time>2026-03-22T11:25:38Z</time></trkpt><trkpt lat="38.37797977908535" lon="16.260935932993878"><ele>553.0</ele><time>2026-03-22T11:25:39Z</time></trkpt><trkpt lat="38.37785512237545" lon="16.26084728331326"><ele>549.5</ele><time>2026-03-22T11:25:40Z</time></trkpt><trkpt lat="38.37775138230375" lon="16.26074213193979"><ele>546.0</ele><time>2026-03-22T11:25:41Z</time></trkpt><trkpt lat="38.37768317427733" lon="16.260617123756347"><ele>549.25</ele><time>2026-03-22T11:25:42Z</time></trkpt><trkpt lat="38.37763169626223" lon="16.26046207440017"><ele>552.5</ele><time>2026-03-22T11:25:43Z</time></trkpt><trkpt lat="38.377591743688754" lon="16.26025817808827"><ele>555.75</ele><time>2026-03-22T11:25:44Z</time></trkpt><trkpt lat="38.37756586918537" lon="16.260068213050673"><ele>559.0</ele><time>2026-03-22T11:25:45Z</time></trkpt><trkpt lat="38.377535339009825" lon="16.259918237212283"><ele>559.0</ele><time>2026-03-22T11:25:46Z</time></trkpt><trkpt lat="38.37748454211396" lon="16.259815288118403"><ele>559.0</ele><time>2026-03-22T11:25:47Z</time></trkpt><trkpt lat="38.377397799221804" lon="16.25971723236865"><ele>559.0</ele><time>2026-03-22T11:25:48Z</time></trkpt><trkpt lat="38.377271394383634" lon="16.25962635491992"><ele>559.0</ele><time>2026-03-22T11:25:49Z</time></trkpt><trkpt lat="38.377113631827555" lon="16.259559111604784"><ele>556.0</ele><time>2026-03-22T11:25:50Z</time></trkpt><trkpt lat="38.3770037128431" lon="16.25950321072499"><ele>553.0</ele><time>2026-03-22T11:25:51Z</time></trkpt><trkpt lat="38.37692761493498" lon="16.259418851854196"><ele>550.0</ele><time>2026-03-22T11:25:52Z</time></trkpt><trkpt lat="38.3769040278479" lon="16.25929292363261"><ele>547.0</ele><time>2026-03-22T11:25:53Z</time></trkpt><trkpt lat="38.376916137055694" lon="16.259145623157362"><ele>544.0</ele><time>2026-03-22T11:25:54Z</time></trkpt><trkpt lat="38.37692779806526" lon="16.258995638497947"><ele>538.4</ele><time>2026-03-22T11:25:55Z</time></trkpt><trkpt lat="38.37690204650325" lon="16.258898657591487"><ele>532.8</ele><time>2026-03-22T11:25:56Z</time></trkpt><trkpt lat="38.3768355107594" lon="16.258843475416633"><ele>527.2</ele><time>2026-03-22T11:25:57Z</time></trkpt><trkpt lat="38.37672276969259" lon="16.25884748458714"><ele>521.6</ele><time>2026-03-22T11:25:58Z</time></trkpt><trkpt lat="38.37657683941598" lon="16.25884681949674"><ele>516.0</ele><time>2026-03-22T11:25:59Z</time></trkpt><trkpt lat="38.37643055567233" lon="16.25884764947899"><ele>514.25</ele><time>2026-03-22T11:26:00Z</time></trkpt><trkpt lat="38.37631867306944" lon="16.25886893818762"><ele>512.5</ele><time>2026-03-22T11:26:01Z</time></trkpt><trkpt lat="38.37622163465417" lon="16.258993255550806"><ele>510.75</ele><time>2026-03-22T11:26:02Z</time></trkpt><trkpt lat="38.3761205711583" lon="16.259061163383176"><ele>509.0</ele><time>2026-03-22T11:26:03Z</time></trkpt><trkpt lat="38.37600464663633" lon="16.259083279828396"><ele>519.6666666666666</ele><time>2026-03-22T11:26:04Z</time></trkpt><trkpt lat="38.37584621842773" lon="16.25905340782108"><ele>530.3333333333334</ele><time>2026-03-22T11:26:05Z</time></trkpt><trkpt lat="38.37563958308793" lon="16.25898572519116"><ele>541.0</ele><time>2026-03-22T11:26:06Z</time></trkpt><trkpt lat="38.375394744851214" lon="16.25895595959987"><ele>528.0</ele><time>2026-03-22T11:26:07Z</time></trkpt><trkpt lat="38.375186432227" lon="16.258935529493947"><ele>515.0</ele><time>2026-03-22T11:26:08Z</time></trkpt><trkpt lat="38.37500385864616" lon="16.258901385274502"><ele>502.0</ele><time>2026-03-22T11:26:09Z</time></trkpt><trkpt lat="38.37483666950246" lon="16.258859618186193"><ele>500.6666666666667</ele><time>2026-03-22T11:26:10Z</time></trkpt><trkpt lat="38.37466663387126" lon="16.25882014899571"><ele>499.33333333333337</ele><time>2026-03-22T11:26:11Z</time></trkpt><trkpt lat="38.37448545826684" lon="16.25881261089346"><ele>498.0</ele><time>2026-03-22T11:26:12Z</time></trkpt><trkpt lat="38.374320451466026" lon="16.258826526436938"><ele>498.0</ele><time>2026-03-22T11:26:13Z</time></trkpt><trkpt lat="38.37418990555506" lon="16.25883197922856"><ele>497.99999999999994</ele><time>2026-03-22T11:26:14Z</time></trkpt><trkpt lat="38.37409075203777" lon="16.258814873572664"><ele>497.99999999999994</ele><time>2026-03-22T11:26:15Z</time></trkpt><trkpt lat="38.37399361630372" lon="16.258771101371313"><ele>498.0</ele><time>2026-03-22T11:26:16Z</time></trkpt><trkpt lat="38.37389700370174" lon="16.258726983516688"><ele>498.0</ele><time>2026-03-22T11:26:17Z</time></trkpt><trkpt lat="38.37381200000384" lon="16.258702651679094"><ele>497.75</ele><time>2026-03-22T11:26:18Z</time></trkpt><trkpt lat="38.37371169992515" lon="16.258760313372022"><ele>497.5</ele><time>2026-03-22T11:26:19Z</time></trkpt><trkpt lat="38.37363202808683" lon="16.258902665850275"><ele>497.25</ele><time>2026-03-22T11:26:20Z</time></trkpt><trkpt lat="38.37356984664522" lon="16.259097546584844"><ele>497.0</ele><time>2026-03-22T11:26:21Z</time></trkpt><trkpt lat="38.37344600866716" lon="16.259223874357065"><ele>500.3333333333333</ele><time>2026-03-22T11:26:22Z</time></trkpt><trkpt lat="38.37336530784129" lon="16.25939894174202"><ele>503.66666666666663</ele><time>2026-03-22T11:26:23Z</time></trkpt><trkpt lat="38.373301407819355" lon="16.259603401187043"><ele>507.0</ele><time>2026-03-22T11:26:24Z</time></trkpt><trkpt lat="38.37322335412008" lon="16.259785519162854"><ele>507.0</ele><time>2026-03-22T11:26:25Z</time></trkpt><trkpt lat="38.37315772865307" lon="16.259949125127438"><ele>507.0</ele><time>2026-03-22T11:26:26Z</time></trkpt><trkpt lat="38.373096154796855" lon="16.260047308998526"><ele>507.0</ele><time>2026-03-22T11:26:27Z</time></trkpt><trkpt lat="38.373018775212024" lon="16.260121717618077"><ele>507.0</ele><time>2026-03-22T11:26:28Z</time></trkpt><trkpt lat="38.37291708270614" lon="16.260222025311524"><ele>505.40000000000003</ele><time>2026-03-22T11:26:29Z</time></trkpt><trkpt lat="38.37281281811517" lon="16.260320834841405"><ele>503.80000000000007</ele><time>2026-03-22T11:26:30Z</time></trkpt><trkpt lat="38.37271616247727" lon="16.260400162086864"><ele>502.2</ele><time>2026-03-22T11:26:31Z</time></trkpt><trkpt lat="38.37262756269231" lon="16.260459825977726"><ele>500.6</ele><time>2026-03-22T11:26:32Z</time></trkpt><trkpt lat="38.37253577011861" lon="16.260496773829463"><ele>499.0</ele><time>2026-03-22T11:26:33Z</time></trkpt><trkpt lat="38.37245673450123" lon="16.260496931317316"><ele>499.0</ele><time>2026-03-22T11:26:34Z</time></trkpt><trkpt lat="38.372380777273996" lon="16.260480059133666"><ele>499.0</ele><time>2026-03-22T11:26:35Z</time></trkpt><trkpt lat="38.37232212647589" lon="16.260344084420538"><ele>499.0</ele><time>2026-03-22T11:26:36Z</time></trkpt><trkpt lat="38.37226054261659" lon="16.260215113147353"><ele>499.0</ele><time>2026-03-22T11:26:37Z</time></trkpt><trkpt lat="38.372199966598906" lon="16.26009917315042"><ele>499.0</ele><time>2026-03-22T11:26:38Z</time></trkpt><trkpt lat="38.37211005329663" lon="16.260010244984024"><ele>498.0</ele><time>2026-03-22T11:26:39Z</time></trkpt><trkpt lat="38.37197975274624" lon="16.2599371131388"><ele>497.0</ele><time>2026-03-22T11:26:40Z</time></trkpt><trkpt lat="38.37184434802811" lon="16.259878531047757"><ele>496.0</ele><time>2026-03-22T11:26:41Z</time></trkpt><trkpt lat="38.37173264190367" lon="16.259835388181408"><ele>495.0</ele><time>2026-03-22T11:26:42Z</time></trkpt><trkpt lat="38.37162209063041" lon="16.259818707637574"><ele>495.0</ele><time>2026-03-22T11:26:43Z</time></trkpt><trkpt lat="38.371516815213994" lon="16.259827726464756"><ele>495.0</ele><time>2026-03-22T11:26:44Z</time></trkpt><trkpt lat="38.37141051923688" lon="16.259914912325144"><ele>495.0</ele><time>2026-03-22T11:26:45Z</time></trkpt><trkpt lat="38.371295893582726" lon="16.25997076193202"><ele>495.0</ele><time>2026-03-22T11:26:46Z</time></trkpt><trkpt lat="38.371173929818255" lon="16.259964147619332"><ele>491.25</ele><time>2026-03-22T11:26:47Z</time></trkpt><trkpt lat="38.371075845139075" lon="16.259936231287185"><ele>487.5</ele><time>2026-03-22T11:26:48Z</time></trkpt><trkpt lat="38.37096893219057" lon="16.259999891145487"><ele>483.75</ele><time>2026-03-22T11:26:49Z</time></trkpt><trkpt lat="38.37086810136321" lon="16.260144562882452"><ele>480.0</ele><time>2026-03-22T11:26:50Z</time></trkpt><trkpt lat="38.37077857566153" lon="16.260283319799953"><ele>480.0</ele><time>2026-03-22T11:26:51Z</time></trkpt><trkpt lat="38.37069988732836" lon="16.260394375106568"><ele>480.0</ele><time>2026-03-22T11:26:52Z</time></trkpt><trkpt lat="38.37062008096493" lon="16.260475030430648"><ele>480.0</ele><time>2026-03-22T11:26:53Z</time></trkpt><trkpt lat="38.37053035981762" lon="16.26054943185014"><ele>480.0</ele><time>2026-03-22T11:26:54Z</time></trkpt><trkpt lat="38.37042005455174" lon="16.260547310507796"><ele>480.0</ele><time>2026-03-22T11:26:55Z</time></trkpt><trkpt lat="38.37031675316376" lon="16.26053983127064"><ele>477.6</ele><time>2026-03-22T11:26:56Z</time></trkpt><trkpt lat="38.37022855245325" lon="16.260587334363766"><ele>475.2</ele><time>2026-03-22T11:26:57Z</time></trkpt><trkpt lat="38.37015077446967" lon="16.260647452818013"><ele>472.79999999999995</ele><time>2026-03-22T11:26:58Z</time></trkpt><trkpt lat="38.37011658169114" lon="16.26075691172914"><ele>470.4</ele><time>2026-03-22T11:26:59Z</time></trkpt><trkpt lat="38.37013323009526" lon="16.26087919885178"><ele>468.0</ele><time>2026-03-22T11:27:00Z</time></trkpt><trkpt lat="38.370201510989965" lon="16.26098874448603"><ele>468.0</ele><time>2026-03-22T11:27:01Z</time></trkpt><trkpt lat="38.37031046521351" lon="16.26107020733582"><ele>468.0</ele><time>2026-03-22T11:27:02Z</time></trkpt><trkpt lat="38.37044427715255" lon="16.261188833571925"><ele>468.0</ele><time>2026-03-22T11:27:04Z</time></trkpt><trkpt lat="38.370536209110426" lon="16.26128925449019"><ele>468.0</ele><time>2026-03-22T11:27:05Z</time></trkpt><trkpt lat="38.370569242984025" lon="16.26139459630624"><ele>473.0</ele><time>2026-03-22T11:27:06Z</time></trkpt><trkpt lat="38.3706485965808" lon="16.261439023861314"><ele>477.99999999999994</ele><time>2026-03-22T11:27:07Z</time></trkpt><trkpt lat="38.37074069295383" lon="16.261437781655793"><ele>482.99999999999994</ele><time>2026-03-22T11:27:08Z</time></trkpt><trkpt lat="38.370847497801336" lon="16.26138840309214"><ele>488.0</ele><time>2026-03-22T11:27:09Z</time></trkpt><trkpt lat="38.37094564800948" lon="16.261313290494716"><ele>493.0</ele><time>2026-03-22T11:27:10Z</time></trkpt><trkpt lat="38.37101520233736" lon="16.261213860281444"><ele>493.0</ele><time>2026-03-22T11:27:11Z</time></trkpt><trkpt lat="38.37105500961715" lon="16.261089710092357"><ele>492.99999999999994</ele><time>2026-03-22T11:27:12Z</time></trkpt><trkpt lat="38.37108081130998" lon="16.26098955607378"><ele>492.99999999999994</ele><time>2026-03-22T11:27:13Z</time></trkpt><trkpt lat="38.37115412144053" lon="16.260904728998867"><ele>493.0</ele><time>2026-03-22T11:27:14Z</time></trkpt><trkpt lat="38.371244549128775" lon="16.260862433935348"><ele>493.0</ele><time>2026-03-22T11:27:15Z</time></trkpt><trkpt lat="38.37132156445282" lon="16.2608691509228"><ele>491.33333333333337</ele><time>2026-03-22T11:27:16Z</time></trkpt><trkpt lat="38.371407179643164" lon="16.260898041860735"><ele>489.6666666666667</ele><time>2026-03-22T11:27:17Z</time></trkpt><trkpt lat="38.37148062778668" lon="16.260893494619978"><ele>488.0</ele><time>2026-03-22T11:27:18Z</time></trkpt><trkpt lat="38.37153860174748" lon="16.260842567527373"><ele>486.33333333333337</ele><time>2026-03-22T11:27:19Z</time></trkpt><trkpt lat="38.3715959668866" lon="16.260757225286085"><ele>484.6666666666667</ele><time>2026-03-22T11:27:20Z</time></trkpt><trkpt lat="38.371670096485786" lon="16.260679507994407"><ele>483.0</ele><time>2026-03-22T11:27:21Z</time></trkpt><trkpt lat="38.371791292143804" lon="16.26063870674661"><ele>483.0</ele><time>2026-03-22T11:27:22Z</time></trkpt><trkpt lat="38.3718934580629" lon="16.260619104924828"><ele>482.99999999999994</ele><time>2026-03-22T11:27:23Z</time></trkpt><trkpt lat="38.371972683311064" lon="16.260615289676874"><ele>482.99999999999994</ele><time>2026-03-22T11:27:24Z</time></trkpt><trkpt lat="38.37203358411093" lon="16.260672794452145"><ele>483.0</ele><time>2026-03-22T11:27:25Z</time></trkpt><trkpt lat="38.37207444030511" lon="16.26076272803689"><ele>483.0</ele><time>2026-03-22T11:27:26Z</time></trkpt><trkpt lat="38.372046597044374" lon="16.260903985847033"><ele>483.0</ele><time>2026-03-22T11:27:27Z</time></trkpt><trkpt lat="38.37205528821826" lon="16.261055394027416"><ele>482.99999999999994</ele><time>2026-03-22T11:27:28Z</time></trkpt><trkpt lat="38.37206837581294" lon="16.261199276408167"><ele>482.99999999999994</ele><time>2026-03-22T11:27:29Z</time></trkpt><trkpt lat="38.37208222996471" lon="16.261339561183707"><ele>483.0</ele><time>2026-03-22T11:27:30Z</time></trkpt><trkpt lat="38.37203743211931" lon="16.261443920146743"><ele>483.0</ele><time>2026-03-22T11:27:31Z</time></trkpt><trkpt lat="38.37201068825675" lon="16.261560879522467"><ele>480.0</ele><time>2026-03-22T11:27:32Z</time></trkpt><trkpt lat="38.3719832285663" lon="16.26163694126378"><ele>476.99999999999994</ele><time>2026-03-22T11:27:33Z</time></trkpt><trkpt lat="38.37202704123863" lon="16.26171477810025"><ele>473.99999999999994</ele><time>2026-03-22T11:27:34Z</time></trkpt><trkpt lat="38.37212822749246" lon="16.261710559843408"><ele>471.0</ele><time>2026-03-22T11:27:35Z</time></trkpt><trkpt lat="38.372219823223396" lon="16.26165403470457"><ele>468.0</ele><time>2026-03-22T11:27:36Z</time></trkpt><trkpt lat="38.37232365011247" lon="16.261588833864934"><ele>468.0</ele><time>2026-03-22T11:27:37Z</time></trkpt><trkpt lat="38.37241848911507" lon="16.261547174261207"><ele>468.0</ele><time>2026-03-22T11:27:38Z</time></trkpt><trkpt lat="38.372500777271085" lon="16.2615064503183"><ele>468.0</ele><time>2026-03-22T11:27:39Z</time></trkpt><trkpt lat="38.372571188888685" lon="16.26151144241106"><ele>468.0</ele><time>2026-03-22T11:27:40Z</time></trkpt><trkpt lat="38.37260583142809" lon="16.261602666587084"><ele>468.0</ele><time>2026-03-22T11:27:41Z</time></trkpt><trkpt lat="38.372597058648005" lon="16.261693080313265"><ele>468.0</ele><time>2026-03-22T11:27:42Z</time></trkpt><trkpt lat="38.372553953785456" lon="16.26180927783892"><ele>468.0</ele><time>2026-03-22T11:27:43Z</time></trkpt><trkpt lat="38.37253225373914" lon="16.26191088863885"><ele>468.0</ele><time>2026-03-22T11:27:44Z</time></trkpt><trkpt lat="38.37259239741643" lon="16.261992269487177"><ele>468.0</ele><time>2026-03-22T11:27:45Z</time></trkpt><trkpt lat="38.37266628353886" lon="16.262041130649227"><ele>468.0</ele><time>2026-03-22T11:27:46Z</time></trkpt><trkpt lat="38.37275420762272" lon="16.26209365560962"><ele>468.0</ele><time>2026-03-22T11:27:47Z</time></trkpt><trkpt lat="38.37279836882953" lon="16.262157766645764"><ele>468.0</ele><time>2026-03-22T11:27:48Z</time></trkpt><trkpt lat="38.372775124223324" lon="16.262298247312224"><ele>468.0</ele><time>2026-03-22T11:27:50Z</time></trkpt><trkpt lat="38.37269578971514" lon="16.262313914407635"><ele>467.99999999999994</ele><time>2026-03-22T11:27:51Z</time></trkpt><trkpt lat="38.37260035385263" lon="16.262272692643602"><ele>467.99999999999994</ele><time>2026-03-22T11:27:52Z</time></trkpt><trkpt lat="38.372528430597534" lon="16.26214080351083"><ele>468.0</ele><time>2026-03-22T11:27:53Z</time></trkpt><trkpt lat="38.3724382584365" lon="16.262029306004244"><ele>468.0</ele><time>2026-03-22T11:27:54Z</time></trkpt><trkpt lat="38.372349937539646" lon="16.26193772889045"><ele>468.0</ele><time>2026-03-22T11:27:55Z</time></trkpt><trkpt lat="38.372230699461745" lon="16.26190019851709"><ele>468.0</ele><time>2026-03-22T11:27:56Z</time></trkpt><trkpt lat="38.372094004629055" lon="16.26190962686785"><ele>468.0</ele><time>2026-03-22T11:27:57Z</time></trkpt><trkpt lat="38.37194994038045" lon="16.261903447417108"><ele>468.0</ele><time>2026-03-22T11:27:58Z</time></trkpt><trkpt lat="38.37185062341724" lon="16.261882047407852"><ele>471.75</ele><time>2026-03-22T11:27:59Z</time></trkpt><trkpt lat="38.37178082396477" lon="16.261727933945465"><ele>475.5</ele><time>2026-03-22T11:28:01Z</time></trkpt><trkpt lat="38.37184147759252" lon="16.261595634073814"><ele>479.25</ele><time>2026-03-22T11:28:02Z</time></trkpt><trkpt lat="38.37184741417563" lon="16.261469107619874"><ele>483.0</ele><time>2026-03-22T11:28:03Z</time></trkpt><trkpt lat="38.371864305037704" lon="16.261327056790208"><ele>483.0</ele><time>2026-03-22T11:28:04Z</time></trkpt><trkpt lat="38.37185962992201" lon="16.261231274584542"><ele>482.99999999999994</ele><time>2026-03-22T11:28:05Z</time></trkpt><trkpt lat="38.37176154340675" lon="16.26115910492538"><ele>482.99999999999994</ele><time>2026-03-22T11:28:07Z</time></trkpt><trkpt lat="38.37168697169545" lon="16.261125931105276"><ele>483.0</ele><time>2026-03-22T11:28:08Z</time></trkpt><trkpt lat="38.37156116837607" lon="16.261248576939842"><ele>483.0</ele><time>2026-03-22T11:28:09Z</time></trkpt><trkpt lat="38.37148292162476" lon="16.2612872075898"><ele>483.0</ele><time>2026-03-22T11:28:10Z</time></trkpt><trkpt lat="38.37139223462582" lon="16.26133234067342"><ele>483.0</ele><time>2026-03-22T11:28:11Z</time></trkpt><trkpt lat="38.37132019786263" lon="16.261483523069327"><ele>483.0</ele><time>2026-03-22T11:28:12Z</time></trkpt><trkpt lat="38.37128635330604" lon="16.26164292114679"><ele>483.0</ele><time>2026-03-22T11:28:13Z</time></trkpt><trkpt lat="38.37120722674594" lon="16.261780271208224"><ele>480.79999999999995</ele><time>2026-03-22T11:28:14Z</time></trkpt><trkpt lat="38.37114456740051" lon="16.26191989564857"><ele>478.59999999999997</ele><time>2026-03-22T11:28:15Z</time></trkpt><trkpt lat="38.37109689930073" lon="16.262053473845466"><ele>476.40000000000003</ele><time>2026-03-22T11:28:16Z</time></trkpt><trkpt lat="38.371058891961624" lon="16.26215109736771"><ele>474.20000000000005</ele><time>2026-03-22T11:28:17Z</time></trkpt><trkpt lat="38.371005806975006" lon="16.26220473754812"><ele>472.0</ele><time>2026-03-22T11:28:18Z</time></trkpt><trkpt lat="38.370893052351455" lon="16.262223199705556"><ele>462.75</ele><time>2026-03-22T11:28:19Z</time></trkpt><trkpt lat="38.37077838273354" lon="16.26229333854457"><ele>453.5</ele><time>2026-03-22T11:28:20Z</time></trkpt><trkpt lat="38.37069052480952" lon="16.26244763767004"><ele>444.25</ele><time>2026-03-22T11:28:21Z</time></trkpt><trkpt lat="38.37063680354284" lon="16.26256829804935"><ele>435.0</ele><time>2026-03-22T11:28:22Z</time></trkpt><trkpt lat="38.37057789278224" lon="16.2626652151534"><ele>433.6</ele><time>2026-03-22T11:28:23Z</time></trkpt><trkpt lat="38.37049333806527" lon="16.262696403163478"><ele>432.2</ele><time>2026-03-22T11:28:25Z</time></trkpt><trkpt lat="38.370439604746515" lon="16.26261610260709"><ele>430.79999999999995</ele><time>2026-03-22T11:28:26Z</time></trkpt><trkpt lat="38.37038974277415" lon="16.262478264424292"><ele>429.4</ele><time>2026-03-22T11:28:27Z</time></trkpt><trkpt lat="38.37034919628112" lon="16.262320296878222"><ele>428.0</ele><time>2026-03-22T11:28:28Z</time></trkpt><trkpt lat="38.370307653928734" lon="16.262198433092813"><ele>432.4</ele><time>2026-03-22T11:28:29Z</time></trkpt><trkpt lat="38.37026350467082" lon="16.262095672137175"><ele>436.79999999999995</ele><time>2026-03-22T11:28:30Z</time></trkpt><trkpt lat="38.37020579316953" lon="16.262044704412663"><ele>441.2</ele><time>2026-03-22T11:28:31Z</time></trkpt><trkpt lat="38.37012111643868" lon="16.262027101307808"><ele>445.6</ele><time>2026-03-22T11:28:32Z</time></trkpt><trkpt lat="38.370008738035644" lon="16.262074437954308"><ele>450.0</ele><time>2026-03-22T11:28:33Z</time></trkpt><trkpt lat="38.36992982652542" lon="16.262219449041186"><ele>444.5</ele><time>2026-03-22T11:28:34Z</time></trkpt><trkpt lat="38.369885714320645" lon="16.26237777189023"><ele>439.0</ele><time>2026-03-22T11:28:35Z</time></trkpt><trkpt lat="38.36986009381359" lon="16.26254488616015"><ele>433.5</ele><time>2026-03-22T11:28:36Z</time></trkpt><trkpt lat="38.3698229977666" lon="16.262707129995484"><ele>428.0</ele><time>2026-03-22T11:28:37Z</time></trkpt><trkpt lat="38.36978639669252" lon="16.262853281461737"><ele>428.0</ele><time>2026-03-22T11:28:38Z</time></trkpt><trkpt lat="38.36974682960639" lon="16.262948672400984"><ele>427.99999999999994</ele><time>2026-03-22T11:28:39Z</time></trkpt><trkpt lat="38.36964122680413" lon="16.263008954503007"><ele>427.99999999999994</ele><time>2026-03-22T11:28:41Z</time></trkpt><trkpt lat="38.36957768828267" lon="16.262982034904912"><ele>428.0</ele><time>2026-03-22T11:28:42Z</time></trkpt><trkpt lat="38.36947681226321" lon="16.26295159502479"><ele>428.0</ele><time>2026-03-22T11:28:43Z</time></trkpt><trkpt lat="38.36942229639594" lon="16.26279951897491"><ele>428.5</ele><time>2026-03-22T11:28:45Z</time></trkpt><trkpt lat="38.36944900042865" lon="16.26265646637063"><ele>429.0</ele><time>2026-03-22T11:28:46Z</time></trkpt><trkpt lat="38.369429321818714" lon="16.262502684785492"><ele>429.5</ele><time>2026-03-22T11:28:47Z</time></trkpt><trkpt lat="38.36944721160806" lon="16.26234074311516"><ele>430.0</ele><time>2026-03-22T11:28:48Z</time></trkpt><trkpt lat="38.3694993897075" lon="16.262134361337115"><ele>430.0</ele><time>2026-03-22T11:28:49Z</time></trkpt><trkpt lat="38.369500386174465" lon="16.261945804472067"><ele>430.0</ele><time>2026-03-22T11:28:50Z</time></trkpt><trkpt lat="38.36951082562846" lon="16.261794434982317"><ele>430.0</ele><time>2026-03-22T11:28:51Z</time></trkpt><trkpt lat="38.369512851743536" lon="16.261668971298075"><ele>430.0</ele><time>2026-03-22T11:28:52Z</time></trkpt><trkpt lat="38.369516535065614" lon="16.26156890808594"><ele>430.0</ele><time>2026-03-22T11:28:53Z</time></trkpt><trkpt lat="38.36948251861527" lon="16.261474458038528"><ele>430.0</ele><time>2026-03-22T11:28:54Z</time></trkpt><trkpt lat="38.36936506948137" lon="16.261386572250284"><ele>430.0</ele><time>2026-03-22T11:28:56Z</time></trkpt><trkpt lat="38.36925684437103" lon="16.261430031855195"><ele>430.0</ele><time>2026-03-22T11:28:57Z</time></trkpt><trkpt lat="38.369154988063016" lon="16.26153324548241"><ele>430.0</ele><time>2026-03-22T11:28:58Z</time></trkpt><trkpt lat="38.36903586154892" lon="16.261658836270506"><ele>430.0</ele><time>2026-03-22T11:28:59Z</time></trkpt><trkpt lat="38.36893487812223" lon="16.261781151740497"><ele>430.0</ele><time>2026-03-22T11:29:00Z</time></trkpt><trkpt lat="38.36884247694294" lon="16.261883259807878"><ele>430.0</ele><time>2026-03-22T11:29:01Z</time></trkpt><trkpt lat="38.36875810582496" lon="16.261962912189034"><ele>430.0</ele><time>2026-03-22T11:29:02Z</time></trkpt><trkpt lat="38.36870578600661" lon="16.262011949777744"><ele>430.0</ele><time>2026-03-22T11:29:03Z</time></trkpt><trkpt lat="38.36862285887986" lon="16.261961404845486"><ele>429.0</ele><time>2026-03-22T11:29:05Z</time></trkpt><trkpt lat="38.36859100005369" lon="16.261844251843375"><ele>428.0</ele><time>2026-03-22T11:29:07Z</time></trkpt><trkpt lat="38.368549979746575" lon="16.26176951838913"><ele>427.0</ele><time>2026-03-22T11:29:08Z</time></trkpt><trkpt lat="38.36842542942946" lon="16.261753999828738"><ele>426.0</ele><time>2026-03-22T11:29:10Z</time></trkpt><trkpt lat="38.36831167433903" lon="16.26188309187109"><ele>425.0</ele><time>2026-03-22T11:29:12Z</time></trkpt><trkpt lat="38.36824404418533" lon="16.261995919162604"><ele>425.0</ele><time>2026-03-22T11:29:13Z</time></trkpt><trkpt lat="38.36819379206494" lon="16.26212489671305"><ele>425.0</ele><time>2026-03-22T11:29:14Z</time></trkpt><trkpt lat="38.36813162532159" lon="16.262241778776183"><ele>425.0</ele><time>2026-03-22T11:29:15Z</time></trkpt><trkpt lat="38.36806169117129" lon="16.262344647700473"><ele>425.0</ele><time>2026-03-22T11:29:16Z</time></trkpt><trkpt lat="38.36797909113432" lon="16.262424251055247"><ele>425.0</ele><time>2026-03-22T11:29:17Z</time></trkpt><trkpt lat="38.36789868748989" lon="16.262480696644708"><ele>417.8</ele><time>2026-03-22T11:29:18Z</time></trkpt><trkpt lat="38.36781005045257" lon="16.262563535134056"><ele>410.6</ele><time>2026-03-22T11:29:19Z</time></trkpt><trkpt lat="38.367754816031" lon="16.262681198068726"><ele>403.4</ele><time>2026-03-22T11:29:20Z</time></trkpt><trkpt lat="38.3677422271217" lon="16.26285389521678"><ele>396.2</ele><time>2026-03-22T11:29:21Z</time></trkpt><trkpt lat="38.36772679516165" lon="16.262968569010553"><ele>389.0</ele><time>2026-03-22T11:29:22Z</time></trkpt><trkpt lat="38.36767747024834" lon="16.26307856341959"><ele>389.0</ele><time>2026-03-22T11:29:24Z</time></trkpt><trkpt lat="38.36759547689878" lon="16.26301117655453"><ele>389.0</ele><time>2026-03-22T11:29:26Z</time></trkpt><trkpt lat="38.36755101983108" lon="16.26290337690742"><ele>389.0</ele><time>2026-03-22T11:29:27Z</time></trkpt><trkpt lat="38.3675396500118" lon="16.26274823788461"><ele>389.0</ele><time>2026-03-22T11:29:28Z</time></trkpt><trkpt lat="38.36753730096658" lon="16.262608049173977"><ele>389.0</ele><time>2026-03-22T11:29:29Z</time></trkpt><trkpt lat="38.36757035216297" lon="16.262454469429997"><ele>389.0</ele><time>2026-03-22T11:29:30Z</time></trkpt><trkpt lat="38.36764367054876" lon="16.262298254938727"><ele>389.0</ele><time>2026-03-22T11:29:31Z</time></trkpt><trkpt lat="38.36768822652637" lon="16.26213586349863"><ele>389.0</ele><time>2026-03-22T11:29:32Z</time></trkpt><trkpt lat="38.36772150582087" lon="16.261988589171235"><ele>389.0</ele><time>2026-03-22T11:29:33Z</time></trkpt><trkpt lat="38.36773357080112" lon="16.26186336910447"><ele>392.79999999999995</ele><time>2026-03-22T11:29:34Z</time></trkpt><trkpt lat="38.36771964922001" lon="16.261762106028065"><ele>396.59999999999997</ele><time>2026-03-22T11:29:35Z</time></trkpt><trkpt lat="38.367667749878144" lon="16.26169011956828"><ele>400.4</ele><time>2026-03-22T11:29:36Z</time></trkpt><trkpt lat="38.367592434178505" lon="16.2616211232346"><ele>404.2</ele><time>2026-03-22T11:29:37Z</time></trkpt><trkpt lat="38.36746038269008" lon="16.261628988434477"><ele>408.0</ele><time>2026-03-22T11:29:38Z</time></trkpt><trkpt lat="38.367344385078006" lon="16.26169731506891"><ele>408.0</ele><time>2026-03-22T11:29:39Z</time></trkpt><trkpt lat="38.367249829875014" lon="16.261818809083227"><ele>408.0</ele><time>2026-03-22T11:29:40Z</time></trkpt><trkpt lat="38.36713826711549" lon="16.261936637931655"><ele>408.0</ele><time>2026-03-22T11:29:41Z</time></trkpt><trkpt lat="38.36704293234737" lon="16.26201889311612"><ele>408.0</ele><time>2026-03-22T11:29:42Z</time></trkpt><trkpt lat="38.36693358355293" lon="16.262025833828766"><ele>402.0</ele><time>2026-03-22T11:29:43Z</time></trkpt><trkpt lat="38.366784176900815" lon="16.262096336578825"><ele>396.0</ele><time>2026-03-22T11:29:44Z</time></trkpt><trkpt lat="38.366635351132544" lon="16.26220514413962"><ele>390.0</ele><time>2026-03-22T11:29:45Z</time></trkpt><trkpt lat="38.3665034548431" lon="16.262340515482105"><ele>389.5</ele><time>2026-03-22T11:29:46Z</time></trkpt><trkpt lat="38.366388414668045" lon="16.262449470984613"><ele>389.0</ele><time>2026-03-22T11:29:47Z</time></trkpt><trkpt lat="38.3662585489727" lon="16.262530995617904"><ele>388.5</ele><time>2026-03-22T11:29:48Z</time></trkpt><trkpt lat="38.36614611619368" lon="16.262641842394835"><ele>388.0</ele><time>2026-03-22T11:29:49Z</time></trkpt><trkpt lat="38.366076840927335" lon="16.2628142758309"><ele>388.0</ele><time>2026-03-22T11:29:50Z</time></trkpt><trkpt lat="38.36603588511223" lon="16.26299069543893"><ele>388.0</ele><time>2026-03-22T11:29:51Z</time></trkpt><trkpt lat="38.36600610570531" lon="16.26313020419474"><ele>388.0</ele><time>2026-03-22T11:29:52Z</time></trkpt><trkpt lat="38.36596625432002" lon="16.263238256834363"><ele>388.0</ele><time>2026-03-22T11:29:53Z</time></trkpt><trkpt lat="38.36590224690504" lon="16.263313372117985"><ele>388.0</ele><time>2026-03-22T11:29:54Z</time></trkpt><trkpt lat="38.36582973025731" lon="16.2633748669617"><ele>386.0</ele><time>2026-03-22T11:29:55Z</time></trkpt><trkpt lat="38.36575101514263" lon="16.26340294552884"><ele>384.0</ele><time>2026-03-22T11:29:56Z</time></trkpt><trkpt lat="38.365679699478434" lon="16.2633853973864"><ele>382.0</ele><time>2026-03-22T11:29:57Z</time></trkpt><trkpt lat="38.36556768288231" lon="16.2633252491725"><ele>380.0</ele><time>2026-03-22T11:29:58Z</time></trkpt><trkpt lat="38.36542910282381" lon="16.26331298577169"><ele>378.0</ele><time>2026-03-22T11:29:59Z</time></trkpt><trkpt lat="38.36528716757548" lon="16.263368065385013"><ele>378.0</ele><time>2026-03-22T11:30:00Z</time></trkpt><trkpt lat="38.3651667200052" lon="16.263423837755283"><ele>378.0</ele><time>2026-03-22T11:30:01Z</time></trkpt><trkpt lat="38.36507623093904" lon="16.26347203046447"><ele>378.0</ele><time>2026-03-22T11:30:02Z</time></trkpt><trkpt lat="38.36499867470187" lon="16.26352485505734"><ele>378.0</ele><time>2026-03-22T11:30:03Z</time></trkpt><trkpt lat="38.364922712096856" lon="16.26362532164125"><ele>378.0</ele><time>2026-03-22T11:30:04Z</time></trkpt><trkpt lat="38.36488995693961" lon="16.263811302640363"><ele>373.5</ele><time>2026-03-22T11:30:05Z</time></trkpt><trkpt lat="38.36487210490446" lon="16.264001532411857"><ele>369.0</ele><time>2026-03-22T11:30:06Z</time></trkpt><trkpt lat="38.36485079319132" lon="16.264162974958207"><ele>364.5</ele><time>2026-03-22T11:30:07Z</time></trkpt><trkpt lat="38.364820983785386" lon="16.26428515001404"><ele>360.0</ele><time>2026-03-22T11:30:08Z</time></trkpt><trkpt lat="38.36478255224343" lon="16.26439660374158"><ele>360.0</ele><time>2026-03-22T11:30:09Z</time></trkpt><trkpt lat="38.36475267472368" lon="16.26450729242377"><ele>360.0</ele><time>2026-03-22T11:30:10Z</time></trkpt><trkpt lat="38.36473907308898" lon="16.26460704119171"><ele>360.0</ele><time>2026-03-22T11:30:11Z</time></trkpt><trkpt lat="38.364769748454975" lon="16.264731362835807"><ele>360.0</ele><time>2026-03-22T11:30:12Z</time></trkpt><trkpt lat="38.36481932542713" lon="16.2648280435544"><ele>360.0</ele><time>2026-03-22T11:30:13Z</time></trkpt><trkpt lat="38.364902784615595" lon="16.26488677715315"><ele>360.0</ele><time>2026-03-22T11:30:14Z</time></trkpt><trkpt lat="38.36499321609018" lon="16.264870463416138"><ele>360.0</ele><time>2026-03-22T11:30:15Z</time></trkpt><trkpt lat="38.36506279801608" lon="16.264826338346463"><ele>360.0</ele><time>2026-03-22T11:30:16Z</time></trkpt><trkpt lat="38.365105493750356" lon="16.264737769023235"><ele>360.0</ele><time>2026-03-22T11:30:17Z</time></trkpt><trkpt lat="38.365094743702706" lon="16.264633732265136"><ele>360.0</ele><time>2026-03-22T11:30:18Z</time></trkpt><trkpt lat="38.365058672082014" lon="16.26450002647007"><ele>360.0</ele><time>2026-03-22T11:30:19Z</time></trkpt><trkpt lat="38.36502913230316" lon="16.26435499800186"><ele>360.0</ele><time>2026-03-22T11:30:20Z</time></trkpt><trkpt lat="38.36502735201212" lon="16.26420848984223"><ele>360.0</ele><time>2026-03-22T11:30:21Z</time></trkpt><trkpt lat="38.365047274902025" lon="16.264068763843056"><ele>360.0</ele><time>2026-03-22T11:30:22Z</time></trkpt><trkpt lat="38.36507561595075" lon="16.26394208441738"><ele>360.0</ele><time>2026-03-22T11:30:23Z</time></trkpt><trkpt lat="38.3651101433572" lon="16.263841753053427"><ele>360.0</ele><time>2026-03-22T11:30:24Z</time></trkpt><trkpt lat="38.36518373525039" lon="16.263776493600144"><ele>362.0</ele><time>2026-03-22T11:30:25Z</time></trkpt><trkpt lat="38.36529536929293" lon="16.263746481970696"><ele>364.0</ele><time>2026-03-22T11:30:26Z</time></trkpt><trkpt lat="38.36540808455318" lon="16.26373083895739"><ele>366.0</ele><time>2026-03-22T11:30:27Z</time></trkpt><trkpt lat="38.36549062761779" lon="16.26373752840596"><ele>368.0</ele><time>2026-03-22T11:30:28Z</time></trkpt><trkpt lat="38.36554554938412" lon="16.26380003638048"><ele>370.0</ele><time>2026-03-22T11:30:29Z</time></trkpt><trkpt lat="38.36555166956301" lon="16.26392732187875"><ele>364.0</ele><time>2026-03-22T11:30:30Z</time></trkpt><trkpt lat="38.36559244786898" lon="16.264095392260824"><ele>358.0</ele><time>2026-03-22T11:30:31Z</time></trkpt><trkpt lat="38.36564408112493" lon="16.264246411002816"><ele>352.0</ele><time>2026-03-22T11:30:32Z</time></trkpt><trkpt lat="38.36570547009173" lon="16.264343095891025"><ele>346.0</ele><time>2026-03-22T11:30:33Z</time></trkpt><trkpt lat="38.3658072665674" lon="16.264368815728577"><ele>346.0</ele><time>2026-03-22T11:30:34Z</time></trkpt><trkpt lat="38.36587500841472" lon="16.2643618934469"><ele>346.0</ele><time>2026-03-22T11:30:35Z</time></trkpt><trkpt lat="38.36594077498751" lon="16.26430073620407"><ele>346.0</ele><time>2026-03-22T11:30:36Z</time></trkpt><trkpt lat="38.365996049526466" lon="16.264190585618955"><ele>346.0</ele><time>2026-03-22T11:30:37Z</time></trkpt><trkpt lat="38.36604960286398" lon="16.264074506363357"><ele>346.0</ele><time>2026-03-22T11:30:38Z</time></trkpt><trkpt lat="38.366114314162786" lon="16.26400774523942"><ele>346.0</ele><time>2026-03-22T11:30:39Z</time></trkpt><trkpt lat="38.36619982937906" lon="16.26398531905166"><ele>349.0</ele><time>2026-03-22T11:30:40Z</time></trkpt><trkpt lat="38.36636915311093" lon="16.26393257119877"><ele>352.0</ele><time>2026-03-22T11:30:41Z</time></trkpt><trkpt lat="38.36649247060058" lon="16.263813892266572"><ele>355.0</ele><time>2026-03-22T11:30:42Z</time></trkpt><trkpt lat="38.36661900802366" lon="16.263676798618548"><ele>355.0</ele><time>2026-03-22T11:30:43Z</time></trkpt><trkpt lat="38.36673284044965" lon="16.26356865528817"><ele>355.0</ele><time>2026-03-22T11:30:44Z</time></trkpt><trkpt lat="38.36684551843612" lon="16.2635261892805"><ele>355.0</ele><time>2026-03-22T11:30:45Z</time></trkpt><trkpt lat="38.36690673278589" lon="16.26368180101799"><ele>355.0</ele><time>2026-03-22T11:30:47Z</time></trkpt><trkpt lat="38.366835672585346" lon="16.26380674994736"><ele>355.0</ele><time>2026-03-22T11:30:48Z</time></trkpt><trkpt lat="38.36677342420498" lon="16.2638939656646"><ele>355.0</ele><time>2026-03-22T11:30:49Z</time></trkpt><trkpt lat="38.36670305922886" lon="16.264046290246792"><ele>355.0</ele><time>2026-03-22T11:30:50Z</time></trkpt><trkpt lat="38.36666259390721" lon="16.264182137599235"><ele>355.0</ele><time>2026-03-22T11:30:51Z</time></trkpt><trkpt lat="38.36670469055809" lon="16.264305212083134"><ele>351.4</ele><time>2026-03-22T11:30:52Z</time></trkpt><trkpt lat="38.366756575885816" lon="16.264408193402286"><ele>347.8</ele><time>2026-03-22T11:30:53Z</time></trkpt><trkpt lat="38.366815245844805" lon="16.26452663283895"><ele>344.20000000000005</ele><time>2026-03-22T11:30:54Z</time></trkpt><trkpt lat="38.366902478873435" lon="16.264568094877262"><ele>340.6</ele><time>2026-03-22T11:30:55Z</time></trkpt><trkpt lat="38.36699368055651" lon="16.264580244909958"><ele>337.0</ele><time>2026-03-22T11:30:56Z</time></trkpt><trkpt lat="38.367114088417324" lon="16.264540457336732"><ele>339.0</ele><time>2026-03-22T11:30:57Z</time></trkpt><trkpt lat="38.367263975161244" lon="16.26446832025148"><ele>341.0</ele><time>2026-03-22T11:30:58Z</time></trkpt><trkpt lat="38.367444209106644" lon="16.26438793067433"><ele>343.0</ele><time>2026-03-22T11:30:59Z</time></trkpt><trkpt lat="38.36759835885727" lon="16.264335878850755"><ele>343.0</ele><time>2026-03-22T11:31:00Z</time></trkpt><trkpt lat="38.36775556042326" lon="16.26432620309364"><ele>343.0</ele><time>2026-03-22T11:31:01Z</time></trkpt><trkpt lat="38.367904244182505" lon="16.26432116180599"><ele>343.0</ele><time>2026-03-22T11:31:02Z</time></trkpt><trkpt lat="38.36803695352239" lon="16.26428484674245"><ele>343.0</ele><time>2026-03-22T11:31:03Z</time></trkpt><trkpt lat="38.36814704162757" lon="16.26421991501296"><ele>341.2</ele><time>2026-03-22T11:31:04Z</time></trkpt><trkpt lat="38.368231869048714" lon="16.26419965482286"><ele>339.4</ele><time>2026-03-22T11:31:05Z</time></trkpt><trkpt lat="38.368309621121305" lon="16.264271327736125"><ele>337.59999999999997</ele><time>2026-03-22T11:31:06Z</time></trkpt><trkpt lat="38.3683427687934" lon="16.264378263627002"><ele>335.79999999999995</ele><time>2026-03-22T11:31:07Z</time></trkpt><trkpt lat="38.36843155455065" lon="16.264533152259055"><ele>334.0</ele><time>2026-03-22T11:31:08Z</time></trkpt><trkpt lat="38.368527041288324" lon="16.264695062428757"><ele>328.75</ele><time>2026-03-22T11:31:09Z</time></trkpt><trkpt lat="38.368610075985316" lon="16.26484658335386"><ele>323.5</ele><time>2026-03-22T11:31:10Z</time></trkpt><trkpt lat="38.368677932471435" lon="16.26496048291317"><ele>318.25</ele><time>2026-03-22T11:31:11Z</time></trkpt><trkpt lat="38.36872448523071" lon="16.265043329010865"><ele>313.0</ele><time>2026-03-22T11:31:12Z</time></trkpt><trkpt lat="38.368744744569945" lon="16.265213810985962"><ele>313.0</ele><time>2026-03-22T11:31:14Z</time></trkpt><trkpt lat="38.36868611713793" lon="16.26528561571503"><ele>313.0</ele><time>2026-03-22T11:31:15Z</time></trkpt><trkpt lat="38.3686128485927" lon="16.265294425609714"><ele>313.0</ele><time>2026-03-22T11:31:16Z</time></trkpt><trkpt lat="38.368528942631016" lon="16.265187198281335"><ele>313.0</ele><time>2026-03-22T11:31:18Z</time></trkpt><trkpt lat="38.36848241145725" lon="16.26510575849958"><ele>313.0</ele><time>2026-03-22T11:31:19Z</time></trkpt><trkpt lat="38.36843933900242" lon="16.265006191565142"><ele>313.0</ele><time>2026-03-22T11:31:20Z</time></trkpt><trkpt lat="38.368430191898064" lon="16.264872346448357"><ele>317.2</ele><time>2026-03-22T11:31:21Z</time></trkpt><trkpt lat="38.3684037344663" lon="16.26473979728284"><ele>321.4</ele><time>2026-03-22T11:31:22Z</time></trkpt><trkpt lat="38.36834580992098" lon="16.264628516350985"><ele>325.59999999999997</ele><time>2026-03-22T11:31:23Z</time></trkpt><trkpt lat="38.368272139825386" lon="16.26454955423994"><ele>329.8</ele><time>2026-03-22T11:31:24Z</time></trkpt><trkpt lat="38.36819690643485" lon="16.264481252204124"><ele>334.0</ele><time>2026-03-22T11:31:25Z</time></trkpt><trkpt lat="38.368085404754446" lon="16.264471513109577"><ele>336.25</ele><time>2026-03-22T11:31:26Z</time></trkpt><trkpt lat="38.36793788376538" lon="16.26450618621182"><ele>338.5</ele><time>2026-03-22T11:31:27Z</time></trkpt><trkpt lat="38.36778352911862" lon="16.26453404167803"><ele>340.75</ele><time>2026-03-22T11:31:28Z</time></trkpt><trkpt lat="38.36764370331265" lon="16.264559275201858"><ele>343.0</ele><time>2026-03-22T11:31:29Z</time></trkpt><trkpt lat="38.367505651067745" lon="16.26459534327595"><ele>343.0</ele><time>2026-03-22T11:31:30Z</time></trkpt><trkpt lat="38.36738627159792" lon="16.264651499232734"><ele>343.0</ele><time>2026-03-22T11:31:31Z</time></trkpt><trkpt lat="38.367265070257204" lon="16.26473095579249"><ele>343.0</ele><time>2026-03-22T11:31:32Z</time></trkpt><trkpt lat="38.367182456737396" lon="16.264794379399984"><ele>343.0</ele><time>2026-03-22T11:31:33Z</time></trkpt><trkpt lat="38.367106665436125" lon="16.264856263531552"><ele>337.0</ele><time>2026-03-22T11:31:34Z</time></trkpt><trkpt lat="38.36702932634752" lon="16.26490066358026"><ele>331.0</ele><time>2026-03-22T11:31:35Z</time></trkpt><trkpt lat="38.36696350797977" lon="16.26490918539462"><ele>325.0</ele><time>2026-03-22T11:31:36Z</time></trkpt><trkpt lat="38.36686405141281" lon="16.26486415220598"><ele>319.0</ele><time>2026-03-22T11:31:37Z</time></trkpt><trkpt lat="38.36675137854745" lon="16.26481661323796"><ele>313.0</ele><time>2026-03-22T11:31:38Z</time></trkpt><trkpt lat="38.36661579475712" lon="16.264837060529338"><ele>313.0</ele><time>2026-03-22T11:31:39Z</time></trkpt><trkpt lat="38.36648050728009" lon="16.26486945593624"><ele>313.0</ele><time>2026-03-22T11:31:40Z</time></trkpt><trkpt lat="38.36637092774027" lon="16.264899460561008"><ele>313.0</ele><time>2026-03-22T11:31:41Z</time></trkpt><trkpt lat="38.36628623541429" lon="16.264938366896242"><ele>313.0</ele><time>2026-03-22T11:31:42Z</time></trkpt><trkpt lat="38.366261126081525" lon="16.265095264696022"><ele>315.6</ele><time>2026-03-22T11:31:43Z</time></trkpt><trkpt lat="38.366197972359075" lon="16.265175314593474"><ele>318.20000000000005</ele><time>2026-03-22T11:31:44Z</time></trkpt><trkpt lat="38.36613569990774" lon="16.26523800403975"><ele>320.8</ele><time>2026-03-22T11:31:45Z</time></trkpt><trkpt lat="38.366047152302954" lon="16.265280336599318"><ele>323.40000000000003</ele><time>2026-03-22T11:31:46Z</time></trkpt><trkpt lat="38.365947728179684" lon="16.265336177539552"><ele>326.0</ele><time>2026-03-22T11:31:47Z</time></trkpt><trkpt lat="38.36584558693648" lon="16.265380013730603"><ele>326.0</ele><time>2026-03-22T11:31:48Z</time></trkpt><trkpt lat="38.36573103038863" lon="16.265383791140337"><ele>326.0</ele><time>2026-03-22T11:31:49Z</time></trkpt><trkpt lat="38.365618406434514" lon="16.26540446512867"><ele>326.0</ele><time>2026-03-22T11:31:50Z</time></trkpt><trkpt lat="38.365522226380016" lon="16.265405205127728"><ele>326.0</ele><time>2026-03-22T11:31:51Z</time></trkpt><trkpt lat="38.36543672717514" lon="16.265414163508318"><ele>326.0</ele><time>2026-03-22T11:31:52Z</time></trkpt><trkpt lat="38.36534016308517" lon="16.265525406124873"><ele>322.33333333333337</ele><time>2026-03-22T11:31:53Z</time></trkpt><trkpt lat="38.36522580262813" lon="16.265660235795327"><ele>318.6666666666667</ele><time>2026-03-22T11:31:54Z</time></trkpt><trkpt lat="38.36510147652954" lon="16.265798671477924"><ele>315.0</ele><time>2026-03-22T11:31:55Z</time></trkpt><trkpt lat="38.36500905651374" lon="16.26591757326864"><ele>315.0</ele><time>2026-03-22T11:31:56Z</time></trkpt><trkpt lat="38.364945615492644" lon="16.266043664651285"><ele>315.0</ele><time>2026-03-22T11:31:57Z</time></trkpt><trkpt lat="38.36489888829052" lon="16.266171124884703"><ele>315.0</ele><time>2026-03-22T11:31:58Z</time></trkpt><trkpt lat="38.36487316943548" lon="16.266271867722924"><ele>315.0</ele><time>2026-03-22T11:31:59Z</time></trkpt><trkpt lat="38.36482027154819" lon="16.266320128806132"><ele>315.0</ele><time>2026-03-22T11:32:00Z</time></trkpt><trkpt lat="38.3647501116268" lon="16.266313210527088"><ele>315.0</ele><time>2026-03-22T11:32:01Z</time></trkpt><trkpt lat="38.364633488394475" lon="16.2662160682621"><ele>313.6</ele><time>2026-03-22T11:32:03Z</time></trkpt><trkpt lat="38.36456234367292" lon="16.26609593778193"><ele>312.2</ele><time>2026-03-22T11:32:04Z</time></trkpt><trkpt lat="38.36448272617271" lon="16.266008005112123"><ele>310.8</ele><time>2026-03-22T11:32:05Z</time></trkpt><trkpt lat="38.36440339749915" lon="16.26593819846227"><ele>309.4</ele><time>2026-03-22T11:32:06Z</time></trkpt><trkpt lat="38.36432908769992" lon="16.265914378221037"><ele>308.0</ele><time>2026-03-22T11:32:07Z</time></trkpt><trkpt lat="38.364182068684805" lon="16.266007935237443"><ele>308.0</ele><time>2026-03-22T11:32:09Z</time></trkpt><trkpt lat="38.36412985287168" lon="16.266097011140374"><ele>308.0</ele><time>2026-03-22T11:32:10Z</time></trkpt><trkpt lat="38.3640663185523" lon="16.26612065326135"><ele>308.0</ele><time>2026-03-22T11:32:11Z</time></trkpt><trkpt lat="38.364001710504056" lon="16.26613999254137"><ele>308.0</ele><time>2026-03-22T11:32:12Z</time></trkpt><trkpt lat="38.36393634907264" lon="16.266114991682517"><ele>308.0</ele><time>2026-03-22T11:32:13Z</time></trkpt><trkpt lat="38.36388020896257" lon="16.266066051133244"><ele>308.0</ele><time>2026-03-22T11:32:14Z</time></trkpt><trkpt lat="38.36381711213483" lon="16.265978619790204"><ele>308.0</ele><time>2026-03-22T11:32:15Z</time></trkpt><trkpt lat="38.36374028148515" lon="16.265872311562596"><ele>308.83333333333337</ele><time>2026-03-22T11:32:16Z</time></trkpt><trkpt lat="38.36369544468039" lon="16.265771354880936"><ele>309.6666666666667</ele><time>2026-03-22T11:32:17Z</time></trkpt><trkpt lat="38.36366087046745" lon="16.265683762104807"><ele>310.5</ele><time>2026-03-22T11:32:18Z</time></trkpt><trkpt lat="38.36365786805999" lon="16.265592311406024"><ele>311.3333333333333</ele><time>2026-03-22T11:32:19Z</time></trkpt><trkpt lat="38.36375035506837" lon="16.26547640944792"><ele>312.16666666666663</ele><time>2026-03-22T11:32:21Z</time></trkpt><trkpt lat="38.363758077579504" lon="16.26538306475979"><ele>313.0</ele><time>2026-03-22T11:32:22Z</time></trkpt><trkpt lat="38.363707643457936" lon="16.265323648162262"><ele>313.0</ele><time>2026-03-22T11:32:23Z</time></trkpt><trkpt lat="38.36362662389638" lon="16.265284948382586"><ele>313.0</ele><time>2026-03-22T11:32:24Z</time></trkpt><trkpt lat="38.3635040071406" lon="16.265316886835897"><ele>313.0</ele><time>2026-03-22T11:32:25Z</time></trkpt><trkpt lat="38.36338643558292" lon="16.265313678249868"><ele>313.0</ele><time>2026-03-22T11:32:26Z</time></trkpt><trkpt lat="38.36326534709677" lon="16.265266509192372"><ele>313.0</ele><time>2026-03-22T11:32:27Z</time></trkpt><trkpt lat="38.36314218528224" lon="16.265231130955176"><ele>313.0</ele><time>2026-03-22T11:32:28Z</time></trkpt><trkpt lat="38.36300474640874" lon="16.265256211449575"><ele>313.0</ele><time>2026-03-22T11:32:29Z</time></trkpt><trkpt lat="38.36288057866266" lon="16.26537414751663"><ele>313.0</ele><time>2026-03-22T11:32:30Z</time></trkpt><trkpt lat="38.36278886391688" lon="16.265543152577212"><ele>309.66666666666663</ele><time>2026-03-22T11:32:31Z</time></trkpt><trkpt lat="38.362677980680836" lon="16.265739423914486"><ele>306.3333333333333</ele><time>2026-03-22T11:32:32Z</time></trkpt><trkpt lat="38.36258560826323" lon="16.265907173830943"><ele>303.0</ele><time>2026-03-22T11:32:33Z</time></trkpt><trkpt lat="38.36250923883696" lon="16.266058201562817"><ele>303.0</ele><time>2026-03-22T11:32:34Z</time></trkpt><trkpt lat="38.36247182289682" lon="16.266221074841525"><ele>303.0</ele><time>2026-03-22T11:32:35Z</time></trkpt><trkpt lat="38.362424631854836" lon="16.26634834386308"><ele>303.0</ele><time>2026-03-22T11:32:36Z</time></trkpt><trkpt lat="38.3623667200395" lon="16.266426070537847"><ele>303.0</ele><time>2026-03-22T11:32:37Z</time></trkpt><trkpt lat="38.36227519605296" lon="16.26649202366033"><ele>303.0</ele><time>2026-03-22T11:32:38Z</time></trkpt><trkpt lat="38.36217158566247" lon="16.26656392283239"><ele>298.25</ele><time>2026-03-22T11:32:39Z</time></trkpt><trkpt lat="38.362049484326434" lon="16.266646063206686"><ele>293.5</ele><time>2026-03-22T11:32:40Z</time></trkpt><trkpt lat="38.36191693257456" lon="16.266705692604464"><ele>288.75</ele><time>2026-03-22T11:32:41Z</time></trkpt><trkpt lat="38.36179111309575" lon="16.26673759443459"><ele>284.0</ele><time>2026-03-22T11:32:42Z</time></trkpt><trkpt lat="38.36166194687225" lon="16.266752633370114"><ele>284.0</ele><time>2026-03-22T11:32:43Z</time></trkpt><trkpt lat="38.36153836793369" lon="16.26675452831914"><ele>284.0</ele><time>2026-03-22T11:32:44Z</time></trkpt><trkpt lat="38.36143373668534" lon="16.266679963328688"><ele>284.0</ele><time>2026-03-22T11:32:45Z</time></trkpt><trkpt lat="38.36134844524605" lon="16.266612826392226"><ele>284.0</ele><time>2026-03-22T11:32:46Z</time></trkpt><trkpt lat="38.36127192934002" lon="16.266551382854423"><ele>284.0</ele><time>2026-03-22T11:32:47Z</time></trkpt><trkpt lat="38.361204722658506" lon="16.266529217889634"><ele>280.8</ele><time>2026-03-22T11:32:48Z</time></trkpt><trkpt lat="38.36113577032099" lon="16.266546420530396"><ele>277.59999999999997</ele><time>2026-03-22T11:32:49Z</time></trkpt><trkpt lat="38.361076970812974" lon="16.2666808813596"><ele>274.4</ele><time>2026-03-22T11:32:50Z</time></trkpt><trkpt lat="38.36110981433872" lon="16.266776685494804"><ele>271.2</ele><time>2026-03-22T11:32:51Z</time></trkpt><trkpt lat="38.3612300399408" lon="16.266819358098406"><ele>268.0</ele><time>2026-03-22T11:32:52Z</time></trkpt><trkpt lat="38.36136346312127" lon="16.26688713762203"><ele>273.3333333333333</ele><time>2026-03-22T11:32:53Z</time></trkpt><trkpt lat="38.36152506302085" lon="16.266959575842147"><ele>278.6666666666667</ele><time>2026-03-22T11:32:54Z</time></trkpt><trkpt lat="38.36168118621319" lon="16.26699522106452"><ele>284.0</ele><time>2026-03-22T11:32:55Z</time></trkpt><trkpt lat="38.36184078019401" lon="16.267016704548833"><ele>284.0</ele><time>2026-03-22T11:32:56Z</time></trkpt><trkpt lat="38.36198633898054" lon="16.267003368300667"><ele>284.0</ele><time>2026-03-22T11:32:57Z</time></trkpt><trkpt lat="38.36207973995238" lon="16.266962059669723"><ele>284.0</ele><time>2026-03-22T11:32:58Z</time></trkpt><trkpt lat="38.36214316817019" lon="16.266939623573393"><ele>284.0</ele><time>2026-03-22T11:32:59Z</time></trkpt><trkpt lat="38.36226167198386" lon="16.266955761487356"><ele>284.0</ele><time>2026-03-22T11:33:02Z</time></trkpt><trkpt lat="38.36213167154887" lon="16.266995597461797"><ele>284.0</ele><time>2026-03-22T11:33:03Z</time></trkpt><trkpt lat="38.36204341811837" lon="16.267030121148817"><ele>284.0</ele><time>2026-03-22T11:33:04Z</time></trkpt><trkpt lat="38.361886440894935" lon="16.26707001504279"><ele>284.0</ele><time>2026-03-22T11:33:05Z</time></trkpt><trkpt lat="38.36202314470223" lon="16.26703700324179"><ele>284.0</ele><time>2026-03-22T11:33:06Z</time></trkpt><trkpt lat="38.361867250834614" lon="16.267069331202116"><ele>284.0</ele><time>2026-03-22T11:33:07Z</time></trkpt><trkpt lat="38.36170812650139" lon="16.267069045996024"><ele>284.0</ele><time>2026-03-22T11:33:08Z</time></trkpt><trkpt lat="38.361526976495654" lon="16.26701602115056"><ele>284.0</ele><time>2026-03-22T11:33:09Z</time></trkpt><trkpt lat="38.361362311576755" lon="16.266941737761453"><ele>278.6666666666667</ele><time>2026-03-22T11:33:10Z</time></trkpt><trkpt lat="38.36119006269315" lon="16.266866020212163"><ele>273.3333333333333</ele><time>2026-03-22T11:33:11Z</time></trkpt><trkpt lat="38.36104120248526" lon="16.266800583908406"><ele>268.0</ele><time>2026-03-22T11:33:12Z</time></trkpt><trkpt lat="38.36088542010913" lon="16.266748277265044"><ele>268.0</ele><time>2026-03-22T11:33:13Z</time></trkpt><trkpt lat="38.36077100740203" lon="16.266677193306172"><ele>268.0</ele><time>2026-03-22T11:33:14Z</time></trkpt><trkpt lat="38.36068277106451" lon="16.26659658487048"><ele>268.0</ele><time>2026-03-22T11:33:15Z</time></trkpt><trkpt lat="38.36057900885092" lon="16.266459144032"><ele>268.0</ele><time>2026-03-22T11:33:16Z</time></trkpt><trkpt lat="38.360510798190575" lon="16.266333660006353"><ele>274.25</ele><time>2026-03-22T11:33:17Z</time></trkpt><trkpt lat="38.36039002439084" lon="16.266175796741063"><ele>280.5</ele><time>2026-03-22T11:33:18Z</time></trkpt><trkpt lat="38.360309337664404" lon="16.26610141677044"><ele>286.75</ele><time>2026-03-22T11:33:19Z</time></trkpt><trkpt lat="38.36019685310946" lon="16.266071662730308"><ele>293.0</ele><time>2026-03-22T11:33:20Z</time></trkpt><trkpt lat="38.36011513439409" lon="16.266101033879057"><ele>293.0</ele><time>2026-03-22T11:33:21Z</time></trkpt><trkpt lat="38.35999490157784" lon="16.266249267696352"><ele>293.0</ele><time>2026-03-22T11:33:22Z</time></trkpt><trkpt lat="38.3598747408576" lon="16.266444739626486"><ele>293.0</ele><time>2026-03-22T11:33:23Z</time></trkpt><trkpt lat="38.35974755816322" lon="16.266622858847963"><ele>285.6666666666667</ele><time>2026-03-22T11:33:24Z</time></trkpt><trkpt lat="38.35962339544314" lon="16.266764092640596"><ele>278.3333333333333</ele><time>2026-03-22T11:33:25Z</time></trkpt><trkpt lat="38.35948841555785" lon="16.26686580902717"><ele>271.0</ele><time>2026-03-22T11:33:26Z</time></trkpt><trkpt lat="38.35934834152272" lon="16.26695144816807"><ele>271.0</ele><time>2026-03-22T11:33:27Z</time></trkpt><trkpt lat="38.3592124255316" lon="16.267006915843297"><ele>271.0</ele><time>2026-03-22T11:33:28Z</time></trkpt><trkpt lat="38.3590706517386" lon="16.267036406124436"><ele>271.0</ele><time>2026-03-22T11:33:29Z</time></trkpt><trkpt lat="38.35891893222296" lon="16.267046169903715"><ele>271.0</ele><time>2026-03-22T11:33:30Z</time></trkpt><trkpt lat="38.35874408572032" lon="16.267069029611115"><ele>272.0</ele><time>2026-03-22T11:33:31Z</time></trkpt><trkpt lat="38.35856554569871" lon="16.267127468537552"><ele>273.0</ele><time>2026-03-22T11:33:32Z</time></trkpt><trkpt lat="38.35845241588357" lon="16.267225075183333"><ele>274.0</ele><time>2026-03-22T11:33:33Z</time></trkpt><trkpt lat="38.358335556410054" lon="16.267365732377044"><ele>266.66666666666663</ele><time>2026-03-22T11:33:34Z</time></trkpt><trkpt lat="38.358241677174966" lon="16.267580080760535"><ele>259.3333333333333</ele><time>2026-03-22T11:33:35Z</time></trkpt><trkpt lat="38.35813697483861" lon="16.26783969387469"><ele>252.0</ele><time>2026-03-22T11:33:36Z</time></trkpt><trkpt lat="38.35806319269017" lon="16.268071874332698"><ele>254.5</ele><time>2026-03-22T11:33:37Z</time></trkpt><trkpt lat="38.35802293652048" lon="16.268243520028054"><ele>257.0</ele><time>2026-03-22T11:33:38Z</time></trkpt><trkpt lat="38.3579665821831" lon="16.268356184914747"><ele>259.5</ele><time>2026-03-22T11:33:39Z</time></trkpt><trkpt lat="38.35788573382719" lon="16.26845940027662"><ele>262.0</ele><time>2026-03-22T11:33:40Z</time></trkpt><trkpt lat="38.35777629903173" lon="16.26859570406967"><ele>262.0</ele><time>2026-03-22T11:33:41Z</time></trkpt><trkpt lat="38.357666695277715" lon="16.268723151542947"><ele>262.0</ele><time>2026-03-22T11:33:42Z</time></trkpt><trkpt lat="38.357560256882074" lon="16.268822319434186"><ele>262.0</ele><time>2026-03-22T11:33:43Z</time></trkpt><trkpt lat="38.357455955289666" lon="16.268880444284836"><ele>262.0</ele><time>2026-03-22T11:33:44Z</time></trkpt><trkpt lat="38.35730101315287" lon="16.268971786518115"><ele>257.5</ele><time>2026-03-22T11:33:45Z</time></trkpt><trkpt lat="38.35712437895634" lon="16.269088999649927"><ele>253.0</ele><time>2026-03-22T11:33:46Z</time></trkpt><trkpt lat="38.3569933427159" lon="16.269169996740562"><ele>248.5</ele><time>2026-03-22T11:33:47Z</time></trkpt><trkpt lat="38.356914918680374" lon="16.26919808016622"><ele>244.0</ele><time>2026-03-22T11:33:48Z</time></trkpt><trkpt lat="38.35676822626001" lon="16.269170282200644"><ele>244.0</ele><time>2026-03-22T11:33:50Z</time></trkpt><trkpt lat="38.356642709299834" lon="16.269075856961017"><ele>244.0</ele><time>2026-03-22T11:33:51Z</time></trkpt><trkpt lat="38.356381477280856" lon="16.268963948304908"><ele>244.0</ele><time>2026-03-22T11:33:52Z</time></trkpt><trkpt lat="38.35619268040008" lon="16.26891002792986"><ele>249.66666666666666</ele><time>2026-03-22T11:33:53Z</time></trkpt><trkpt lat="38.35600952821121" lon="16.26886140269691"><ele>255.33333333333331</ele><time>2026-03-22T11:33:54Z</time></trkpt><trkpt lat="38.355840499234986" lon="16.268826641167497"><ele>261.0</ele><time>2026-03-22T11:33:55Z</time></trkpt><trkpt lat="38.35570135538547" lon="16.26883395652085"><ele>261.0</ele><time>2026-03-22T11:33:56Z</time></trkpt><trkpt lat="38.35555396118133" lon="16.268924241557123"><ele>261.0</ele><time>2026-03-22T11:33:57Z</time></trkpt><trkpt lat="38.35541775022508" lon="16.26903103648559"><ele>261.0</ele><time>2026-03-22T11:33:58Z</time></trkpt><trkpt lat="38.35529800153523" lon="16.269151250965475"><ele>259.0</ele><time>2026-03-22T11:33:59Z</time></trkpt><trkpt lat="38.355202381924656" lon="16.26925891913327"><ele>257.0</ele><time>2026-03-22T11:34:00Z</time></trkpt><trkpt lat="38.35515808509966" lon="16.269384951109796"><ele>255.0</ele><time>2026-03-22T11:34:01Z</time></trkpt><trkpt lat="38.35515816855716" lon="16.26954404797724"><ele>253.0</ele><time>2026-03-22T11:34:02Z</time></trkpt><trkpt lat="38.355229368897994" lon="16.26973493012336"><ele>251.60000000000002</ele><time>2026-03-22T11:34:03Z</time></trkpt><trkpt lat="38.35529713421582" lon="16.269903944482067"><ele>250.20000000000002</ele><time>2026-03-22T11:34:04Z</time></trkpt><trkpt lat="38.35534107629776" lon="16.270028316211704"><ele>248.8</ele><time>2026-03-22T11:34:05Z</time></trkpt><trkpt lat="38.35534370133475" lon="16.27014129011753"><ele>247.4</ele><time>2026-03-22T11:34:06Z</time></trkpt><trkpt lat="38.355318482372894" lon="16.270244577602455"><ele>246.0</ele><time>2026-03-22T11:34:07Z</time></trkpt><trkpt lat="38.35521007804589" lon="16.270307194166687"><ele>246.0</ele><time>2026-03-22T11:34:08Z</time></trkpt><trkpt lat="38.35508386678562" lon="16.270446788758864"><ele>246.0</ele><time>2026-03-22T11:34:09Z</time></trkpt><trkpt lat="38.35494767973198" lon="16.27062503741437"><ele>246.0</ele><time>2026-03-22T11:34:10Z</time></trkpt><trkpt lat="38.35482896576787" lon="16.2707744836731"><ele>245.5</ele><time>2026-03-22T11:34:11Z</time></trkpt><trkpt lat="38.35470440526788" lon="16.270903985509626"><ele>245.0</ele><time>2026-03-22T11:34:12Z</time></trkpt><trkpt lat="38.35457413353657" lon="16.271011590848715"><ele>244.5</ele><time>2026-03-22T11:34:13Z</time></trkpt><trkpt lat="38.354462104815546" lon="16.27108818994522"><ele>244.0</ele><time>2026-03-22T11:34:14Z</time></trkpt><trkpt lat="38.35436711255059" lon="16.27116167368106"><ele>244.0</ele><time>2026-03-22T11:34:15Z</time></trkpt><trkpt lat="38.354292398541695" lon="16.271240216063177"><ele>243.99999999999997</ele><time>2026-03-22T11:34:16Z</time></trkpt><trkpt lat="38.35425056735158" lon="16.271389073716325"><ele>243.99999999999997</ele><time>2026-03-22T11:34:17Z</time></trkpt><trkpt lat="38.35419799586619" lon="16.27153231282586"><ele>244.0</ele><time>2026-03-22T11:34:18Z</time></trkpt><trkpt lat="38.35414700218298" lon="16.271632236050788"><ele>244.0</ele><time>2026-03-22T11:34:19Z</time></trkpt><trkpt lat="38.354088111845144" lon="16.271720971015984"><ele>243.5</ele><time>2026-03-22T11:34:20Z</time></trkpt><trkpt lat="38.3540260149973" lon="16.271842066105982"><ele>243.0</ele><time>2026-03-22T11:34:35Z</time></trkpt><trkpt lat="38.353956380251304" lon="16.27192863677592"><ele>242.5</ele><time>2026-03-22T11:34:36Z</time></trkpt><trkpt lat="38.35385157554107" lon="16.272039178319055"><ele>242.0</ele><time>2026-03-22T11:34:37Z</time></trkpt><trkpt lat="38.35374649812809" lon="16.27218583039975"><ele>238.5</ele><time>2026-03-22T11:34:38Z</time></trkpt><trkpt lat="38.353640043509536" lon="16.272314236238344"><ele>235.0</ele><time>2026-03-22T11:34:39Z</time></trkpt><trkpt lat="38.35355442337202" lon="16.272427514453796"><ele>231.5</ele><time>2026-03-22T11:34:40Z</time></trkpt><trkpt lat="38.353476343036576" lon="16.272546483858058"><ele>228.0</ele><time>2026-03-22T11:34:41Z</time></trkpt><trkpt lat="38.35340997177841" lon="16.2726445736862"><ele>228.0</ele><time>2026-03-22T11:34:42Z</time></trkpt><trkpt lat="38.353381454650886" lon="16.272806727487936"><ele>228.0</ele><time>2026-03-22T11:34:43Z</time></trkpt><trkpt lat="38.353349956379944" lon="16.27290789383593"><ele>228.0</ele><time>2026-03-22T11:34:44Z</time></trkpt><trkpt lat="38.353299740131625" lon="16.273029903586828"><ele>228.0</ele><time>2026-03-22T11:34:45Z</time></trkpt><trkpt lat="38.35322249806013" lon="16.273084594890886"><ele>228.0</ele><time>2026-03-22T11:34:46Z</time></trkpt><trkpt lat="38.3531020125752" lon="16.2730802265984"><ele>228.5</ele><time>2026-03-22T11:34:47Z</time></trkpt><trkpt lat="38.35298266767344" lon="16.272992635543673"><ele>229.0</ele><time>2026-03-22T11:34:48Z</time></trkpt><trkpt lat="38.35284084569853" lon="16.27289019489364"><ele>229.5</ele><time>2026-03-22T11:34:49Z</time></trkpt><trkpt lat="38.35271610680055" lon="16.27281389861243"><ele>230.0</ele><time>2026-03-22T11:34:50Z</time></trkpt><trkpt lat="38.35257568958115" lon="16.27278663598303"><ele>230.0</ele><time>2026-03-22T11:34:51Z</time></trkpt><trkpt lat="38.35240520792888" lon="16.272806274563482"><ele>230.0</ele><time>2026-03-22T11:34:52Z</time></trkpt><trkpt lat="38.35222624566732" lon="16.27288442217113"><ele>230.0</ele><time>2026-03-22T11:34:53Z</time></trkpt><trkpt lat="38.352026568211194" lon="16.27297495368012"><ele>231.66666666666669</ele><time>2026-03-22T11:34:54Z</time></trkpt><trkpt lat="38.35182664209473" lon="16.27305700100316"><ele>233.33333333333331</ele><time>2026-03-22T11:34:55Z</time></trkpt><trkpt lat="38.35162767246438" lon="16.273143360303287"><ele>235.0</ele><time>2026-03-22T11:34:56Z</time></trkpt><trkpt lat="38.35145462929888" lon="16.27323031460908"><ele>230.66666666666666</ele><time>2026-03-22T11:34:57Z</time></trkpt><trkpt lat="38.351283254090944" lon="16.273343633250192"><ele>226.33333333333331</ele><time>2026-03-22T11:34:58Z</time></trkpt><trkpt lat="38.3511220132372" lon="16.273475953400837"><ele>222.0</ele><time>2026-03-22T11:34:59Z</time></trkpt><trkpt lat="38.35098823860691" lon="16.273627795203005"><ele>222.0</ele><time>2026-03-22T11:35:00Z</time></trkpt><trkpt lat="38.350873916732056" lon="16.2737804792009"><ele>222.0</ele><time>2026-03-22T11:35:01Z</time></trkpt><trkpt lat="38.350766153426825" lon="16.27392336119645"><ele>222.0</ele><time>2026-03-22T11:35:02Z</time></trkpt><trkpt lat="38.35064709858096" lon="16.274051064033394"><ele>218.33333333333331</ele><time>2026-03-22T11:35:03Z</time></trkpt><trkpt lat="38.35051656518339" lon="16.274157855728"><ele>214.66666666666666</ele><time>2026-03-22T11:35:04Z</time></trkpt><trkpt lat="38.350382996322594" lon="16.274237998492655"><ele>211.0</ele><time>2026-03-22T11:35:05Z</time></trkpt><trkpt lat="38.350239832400476" lon="16.27430822596473"><ele>211.0</ele><time>2026-03-22T11:35:06Z</time></trkpt><trkpt lat="38.350079244148255" lon="16.27436665519501"><ele>211.0</ele><time>2026-03-22T11:35:07Z</time></trkpt><trkpt lat="38.34992374797028" lon="16.27442786681468"><ele>211.0</ele><time>2026-03-22T11:35:08Z</time></trkpt><trkpt lat="38.349782422322384" lon="16.274507969938583"><ele>212.33333333333331</ele><time>2026-03-22T11:35:09Z</time></trkpt><trkpt lat="38.34965170735493" lon="16.27462726703325"><ele>213.66666666666669</ele><time>2026-03-22T11:35:10Z</time></trkpt><trkpt lat="38.349520583138805" lon="16.274777656999603"><ele>215.0</ele><time>2026-03-22T11:35:11Z</time></trkpt><trkpt lat="38.34941524770488" lon="16.274971996401135"><ele>215.0</ele><time>2026-03-22T11:35:12Z</time></trkpt><trkpt lat="38.349312114058364" lon="16.27519753362562"><ele>215.0</ele><time>2026-03-22T11:35:13Z</time></trkpt><trkpt lat="38.3492328446272" lon="16.275457701902667"><ele>215.0</ele><time>2026-03-22T11:35:14Z</time></trkpt><trkpt lat="38.3491589449492" lon="16.27573756673193"><ele>210.66666666666669</ele><time>2026-03-22T11:35:15Z</time></trkpt><trkpt lat="38.34908947617416" lon="16.27597343610305"><ele>206.33333333333331</ele><time>2026-03-22T11:35:16Z</time></trkpt><trkpt lat="38.34900945983135" lon="16.276159972139137"><ele>202.0</ele><time>2026-03-22T11:35:17Z</time></trkpt><trkpt lat="38.34892288451549" lon="16.27631865506022"><ele>201.25</ele><time>2026-03-22T11:35:18Z</time></trkpt><trkpt lat="38.348831243443186" lon="16.276468167425875"><ele>200.5</ele><time>2026-03-22T11:35:19Z</time></trkpt><trkpt lat="38.34872935341363" lon="16.276600999125233"><ele>199.75</ele><time>2026-03-22T11:35:20Z</time></trkpt><trkpt lat="38.34860664884545" lon="16.276707370757524"><ele>199.0</ele><time>2026-03-22T11:35:21Z</time></trkpt><trkpt lat="38.3484637868489" lon="16.276822367010112"><ele>199.0</ele><time>2026-03-22T11:35:22Z</time></trkpt><trkpt lat="38.348324678445465" lon="16.27692883371641"><ele>199.0</ele><time>2026-03-22T11:35:23Z</time></trkpt><trkpt lat="38.34821417288701" lon="16.277011111467502"><ele>199.0</ele><time>2026-03-22T11:35:24Z</time></trkpt><trkpt lat="38.34811571581057" lon="16.27707482453758"><ele>199.0</ele><time>2026-03-22T11:35:25Z</time></trkpt><trkpt lat="38.34800945199328" lon="16.27708561045609"><ele>197.5</ele><time>2026-03-22T11:35:26Z</time></trkpt><trkpt lat="38.347864371491056" lon="16.27707116416807"><ele>196.0</ele><time>2026-03-22T11:35:27Z</time></trkpt><trkpt lat="38.347729740698256" lon="16.27705756388074"><ele>194.5</ele><time>2026-03-22T11:35:28Z</time></trkpt><trkpt lat="38.34762364870527" lon="16.27703485410607"><ele>193.0</ele><time>2026-03-22T11:35:29Z</time></trkpt><trkpt lat="38.34754530181276" lon="16.276992040614015"><ele>193.0</ele><time>2026-03-22T11:35:30Z</time></trkpt><trkpt lat="38.34749956608607" lon="16.276859765057342"><ele>193.0</ele><time>2026-03-22T11:35:31Z</time></trkpt><trkpt lat="38.34741992307069" lon="16.276689878371847"><ele>193.0</ele><time>2026-03-22T11:35:32Z</time></trkpt><trkpt lat="38.34734884246491" lon="16.27656914292901"><ele>193.0</ele><time>2026-03-22T11:35:33Z</time></trkpt><trkpt lat="38.34724670411809" lon="16.276525875545154"><ele>193.0</ele><time>2026-03-22T11:35:34Z</time></trkpt><trkpt lat="38.347128116385335" lon="16.276539033484493"><ele>193.0</ele><time>2026-03-22T11:35:35Z</time></trkpt><trkpt lat="38.34699354314925" lon="16.276581489857655"><ele>193.0</ele><time>2026-03-22T11:35:36Z</time></trkpt><trkpt lat="38.346861293830905" lon="16.27664977589342"><ele>193.0</ele><time>2026-03-22T11:35:37Z</time></trkpt><trkpt lat="38.34670388119743" lon="16.27670284944235"><ele>193.0</ele><time>2026-03-22T11:35:38Z</time></trkpt><trkpt lat="38.34656683985436" lon="16.27674417503002"><ele>193.0</ele><time>2026-03-22T11:35:39Z</time></trkpt><trkpt lat="38.346443034718845" lon="16.27678805882931"><ele>193.0</ele><time>2026-03-22T11:35:40Z</time></trkpt><trkpt lat="38.346330862491996" lon="16.276927845484035"><ele>193.0</ele><time>2026-03-22T11:35:41Z</time></trkpt><trkpt lat="38.346248093485336" lon="16.277094696808206"><ele>192.0</ele><time>2026-03-22T11:35:42Z</time></trkpt><trkpt lat="38.34612073422546" lon="16.27727123552741"><ele>191.0</ele><time>2026-03-22T11:35:43Z</time></trkpt><trkpt lat="38.346014653450744" lon="16.277434802446813"><ele>190.0</ele><time>2026-03-22T11:35:44Z</time></trkpt><trkpt lat="38.345923093433186" lon="16.27756602850839"><ele>190.0</ele><time>2026-03-22T11:35:45Z</time></trkpt><trkpt lat="38.345840875067864" lon="16.27766073746855"><ele>190.0</ele><time>2026-03-22T11:35:46Z</time></trkpt><trkpt lat="38.34575036520295" lon="16.277702926496897"><ele>190.0</ele><time>2026-03-22T11:35:47Z</time></trkpt><trkpt lat="38.34562734571972" lon="16.277716263044056"><ele>190.0</ele><time>2026-03-22T11:35:48Z</time></trkpt><trkpt lat="38.345477518804316" lon="16.277713845717873"><ele>190.66666666666669</ele><time>2026-03-22T11:35:49Z</time></trkpt><trkpt lat="38.345317013634656" lon="16.277719429821847"><ele>191.33333333333334</ele><time>2026-03-22T11:35:50Z</time></trkpt><trkpt lat="38.34512664470125" lon="16.277785617093247"><ele>192.0</ele><time>2026-03-22T11:35:51Z</time></trkpt><trkpt lat="38.344954997723896" lon="16.277878389484112"><ele>192.0</ele><time>2026-03-22T11:35:52Z</time></trkpt><trkpt lat="38.34478132822463" lon="16.278018002578627"><ele>192.0</ele><time>2026-03-22T11:35:53Z</time></trkpt><trkpt lat="38.34460777523622" lon="16.278158276790567"><ele>192.0</ele><time>2026-03-22T11:35:54Z</time></trkpt><trkpt lat="38.34446703480901" lon="16.278275436635003"><ele>188.0</ele><time>2026-03-22T11:35:55Z</time></trkpt><trkpt lat="38.3443493797153" lon="16.278401093883772"><ele>184.0</ele><time>2026-03-22T11:35:56Z</time></trkpt><trkpt lat="38.34427515056332" lon="16.27862755726575"><ele>180.0</ele><time>2026-03-22T11:35:57Z</time></trkpt><trkpt lat="38.34421108408217" lon="16.278865454513706"><ele>176.33333333333334</ele><time>2026-03-22T11:35:58Z</time></trkpt><trkpt lat="38.34415075944825" lon="16.279098194239108"><ele>172.66666666666669</ele><time>2026-03-22T11:35:59Z</time></trkpt><trkpt lat="38.344096713179724" lon="16.279302787697155"><ele>169.0</ele><time>2026-03-22T11:36:00Z</time></trkpt><trkpt lat="38.34404169113952" lon="16.27946396321018"><ele>169.0</ele><time>2026-03-22T11:36:01Z</time></trkpt><trkpt lat="38.34397300597567" lon="16.27960425031623"><ele>169.0</ele><time>2026-03-22T11:36:02Z</time></trkpt><trkpt lat="38.343893972686786" lon="16.27970317593625"><ele>169.0</ele><time>2026-03-22T11:36:03Z</time></trkpt><trkpt lat="38.34377884994383" lon="16.279749279958693"><ele>169.0</ele><time>2026-03-22T11:36:04Z</time></trkpt><trkpt lat="38.34367415384212" lon="16.27984592248439"><ele>170.5</ele><time>2026-03-22T11:36:05Z</time></trkpt><trkpt lat="38.3436033944442" lon="16.279956848669176"><ele>172.0</ele><time>2026-03-22T11:36:06Z</time></trkpt><trkpt lat="38.343607753870046" lon="16.280140204666214"><ele>173.5</ele><time>2026-03-22T11:36:07Z</time></trkpt><trkpt lat="38.3435399470585" lon="16.28026800868412"><ele>175.0</ele><time>2026-03-22T11:36:08Z</time></trkpt><trkpt lat="38.343417770878965" lon="16.28035887998665"><ele>175.0</ele><time>2026-03-22T11:36:09Z</time></trkpt><trkpt lat="38.34327750866745" lon="16.280503288734323"><ele>175.0</ele><time>2026-03-22T11:36:10Z</time></trkpt><trkpt lat="38.34315710117206" lon="16.2805941938675"><ele>175.0</ele><time>2026-03-22T11:36:11Z</time></trkpt><trkpt lat="38.34304591606971" lon="16.280674963557438"><ele>175.0</ele><time>2026-03-22T11:36:12Z</time></trkpt><trkpt lat="38.342956604018056" lon="16.280782617075666"><ele>171.33333333333334</ele><time>2026-03-22T11:36:13Z</time></trkpt><trkpt lat="38.34291742657243" lon="16.280983195001774"><ele>167.66666666666666</ele><time>2026-03-22T11:36:14Z</time></trkpt><trkpt lat="38.34286201102502" lon="16.281195398090745"><ele>164.0</ele><time>2026-03-22T11:36:15Z</time></trkpt><trkpt lat="38.34279797359545" lon="16.281460690490672"><ele>164.0</ele><time>2026-03-22T11:36:16Z</time></trkpt><trkpt lat="38.34274610735045" lon="16.281707020656622"><ele>164.0</ele><time>2026-03-22T11:36:17Z</time></trkpt><trkpt lat="38.34270796235953" lon="16.281887841717914"><ele>164.0</ele><time>2026-03-22T11:36:18Z</time></trkpt><trkpt lat="38.34267725239967" lon="16.282008064641268"><ele>164.0</ele><time>2026-03-22T11:36:19Z</time></trkpt><trkpt lat="38.34263813478817" lon="16.282101351842726"><ele>164.0</ele><time>2026-03-22T11:36:20Z</time></trkpt><trkpt lat="38.34256907980662" lon="16.28214796342061"><ele>164.0</ele><time>2026-03-22T11:36:21Z</time></trkpt><trkpt lat="38.34244526295039" lon="16.28217758961192"><ele>164.0</ele><time>2026-03-22T11:36:22Z</time></trkpt><trkpt lat="38.34227952923674" lon="16.282248518735372"><ele>164.0</ele><time>2026-03-22T11:36:23Z</time></trkpt><trkpt lat="38.34209894527565" lon="16.28238894287472"><ele>158.0</ele><time>2026-03-22T11:36:24Z</time></trkpt><trkpt lat="38.341940938818496" lon="16.28250606282697"><ele>152.0</ele><time>2026-03-22T11:36:25Z</time></trkpt><trkpt lat="38.341791503589754" lon="16.282551580176435"><ele>146.0</ele><time>2026-03-22T11:36:26Z</time></trkpt><trkpt lat="38.34166999781835" lon="16.282606208188998"><ele>146.0</ele><time>2026-03-22T11:36:27Z</time></trkpt><trkpt lat="38.34156865436084" lon="16.28269761762694"><ele>146.0</ele><time>2026-03-22T11:36:28Z</time></trkpt><trkpt lat="38.341527200998435" lon="16.282856473647296"><ele>146.0</ele><time>2026-03-22T11:36:29Z</time></trkpt><trkpt lat="38.341477864429905" lon="16.282952177137243"><ele>146.0</ele><time>2026-03-22T11:36:30Z</time></trkpt><trkpt lat="38.34134604216183" lon="16.28294753945832"><ele>142.33333333333331</ele><time>2026-03-22T11:36:32Z</time></trkpt><trkpt lat="38.34124234240047" lon="16.28283263907974"><ele>138.66666666666666</ele><time>2026-03-22T11:36:33Z</time></trkpt><trkpt lat="38.34110910514593" lon="16.28271460607908"><ele>135.0</ele><time>2026-03-22T11:36:34Z</time></trkpt><trkpt lat="38.34099050181481" lon="16.282581834712488"><ele>135.0</ele><time>2026-03-22T11:36:35Z</time></trkpt><trkpt lat="38.340882750481605" lon="16.28247772268693"><ele>135.0</ele><time>2026-03-22T11:36:36Z</time></trkpt><trkpt lat="38.34074813012688" lon="16.28239773098716"><ele>135.0</ele><time>2026-03-22T11:36:37Z</time></trkpt><trkpt lat="38.34055877990451" lon="16.282376106292954"><ele>130.66666666666666</ele><time>2026-03-22T11:36:38Z</time></trkpt><trkpt lat="38.34034931824118" lon="16.28232119512367"><ele>126.33333333333333</ele><time>2026-03-22T11:36:39Z</time></trkpt><trkpt lat="38.340143756700776" lon="16.28228002898409"><ele>122.0</ele><time>2026-03-22T11:36:40Z</time></trkpt><trkpt lat="38.3399412102511" lon="16.282240394807157"><ele>128.33333333333331</ele><time>2026-03-22T11:36:41Z</time></trkpt><trkpt lat="38.33974687325885" lon="16.282204131409248"><ele>134.66666666666666</ele><time>2026-03-22T11:36:42Z</time></trkpt><trkpt lat="38.33959309411849" lon="16.282184949244872"><ele>141.0</ele><time>2026-03-22T11:36:43Z</time></trkpt><trkpt lat="38.33945292988175" lon="16.282208708145742"><ele>141.0</ele><time>2026-03-22T11:36:44Z</time></trkpt><trkpt lat="38.33932899569722" lon="16.282251192941395"><ele>141.0</ele><time>2026-03-22T11:36:45Z</time></trkpt><trkpt lat="38.339224525274595" lon="16.282282867917825"><ele>141.0</ele><time>2026-03-22T11:36:46Z</time></trkpt><trkpt lat="38.339153554597026" lon="16.2823105798305"><ele>141.0</ele><time>2026-03-22T11:36:47Z</time></trkpt><trkpt lat="38.33909693554547" lon="16.2823638721257"><ele>141.0</ele><time>2026-03-22T11:36:48Z</time></trkpt><trkpt lat="38.33910378804957" lon="16.282500681657712"><ele>135.75</ele><time>2026-03-22T11:36:49Z</time></trkpt><trkpt lat="38.33919701456479" lon="16.282576610170658"><ele>130.5</ele><time>2026-03-22T11:36:50Z</time></trkpt><trkpt lat="38.33934649745902" lon="16.282503695720465"><ele>125.25</ele><time>2026-03-22T11:36:51Z</time></trkpt><trkpt lat="38.339458865396814" lon="16.28250539386054"><ele>120.0</ele><time>2026-03-22T11:36:52Z</time></trkpt><trkpt lat="38.33955975929715" lon="16.282585825090564"><ele>120.0</ele><time>2026-03-22T11:36:53Z</time></trkpt><trkpt lat="38.339651545628776" lon="16.28271308071127"><ele>120.0</ele><time>2026-03-22T11:36:54Z</time></trkpt><trkpt lat="38.339745985756494" lon="16.282854480132897"><ele>120.0</ele><time>2026-03-22T11:36:55Z</time></trkpt><trkpt lat="38.33981532181405" lon="16.2829636267012"><ele>120.0</ele><time>2026-03-22T11:36:56Z</time></trkpt><trkpt lat="38.33987924063976" lon="16.283006374387824"><ele>120.4</ele><time>2026-03-22T11:36:57Z</time></trkpt><trkpt lat="38.33994823131523" lon="16.28303300481873"><ele>120.8</ele><time>2026-03-22T11:36:59Z</time></trkpt><trkpt lat="38.34006250343605" lon="16.28312587937265"><ele>121.19999999999999</ele><time>2026-03-22T11:37:01Z</time></trkpt><trkpt lat="38.3401753181199" lon="16.283155210349136"><ele>121.6</ele><time>2026-03-22T11:37:02Z</time></trkpt><trkpt lat="38.34028734347908" lon="16.283179944963507"><ele>122.0</ele><time>2026-03-22T11:37:03Z</time></trkpt><trkpt lat="38.34036401960674" lon="16.283229748870582"><ele>119.6</ele><time>2026-03-22T11:37:04Z</time></trkpt><trkpt lat="38.340429735704255" lon="16.28329277283277"><ele>117.19999999999999</ele><time>2026-03-22T11:37:05Z</time></trkpt><trkpt lat="38.34048093127804" lon="16.283376074139213"><ele>114.8</ele><time>2026-03-22T11:37:06Z</time></trkpt><trkpt lat="38.34052455074514" lon="16.28347007807978"><ele>112.4</ele><time>2026-03-22T11:37:07Z</time></trkpt><trkpt lat="38.34053863316516" lon="16.283594134589862"><ele>110.0</ele><time>2026-03-22T11:37:08Z</time></trkpt><trkpt lat="38.34054242151483" lon="16.283729075104816"><ele>110.0</ele><time>2026-03-22T11:37:09Z</time></trkpt><trkpt lat="38.34054748297547" lon="16.283898435187602"><ele>110.0</ele><time>2026-03-22T11:37:10Z</time></trkpt><trkpt lat="38.34055133314281" lon="16.28410842673654"><ele>110.0</ele><time>2026-03-22T11:37:11Z</time></trkpt><trkpt lat="38.340563839875955" lon="16.284309016473454"><ele>110.0</ele><time>2026-03-22T11:37:12Z</time></trkpt><trkpt lat="38.340557925445914" lon="16.284486709330817"><ele>110.0</ele><time>2026-03-22T11:37:13Z</time></trkpt><trkpt lat="38.34056116314226" lon="16.284641041165283"><ele>110.0</ele><time>2026-03-22T11:37:14Z</time></trkpt><trkpt lat="38.340563933690504" lon="16.28478909236721"><ele>110.0</ele><time>2026-03-22T11:37:15Z</time></trkpt><trkpt lat="38.340566363698066" lon="16.284918945902778"><ele>110.4</ele><time>2026-03-22T11:37:16Z</time></trkpt><trkpt lat="38.34056488708133" lon="16.285035999304437"><ele>110.8</ele><time>2026-03-22T11:37:17Z</time></trkpt><trkpt lat="38.34055822257125" lon="16.285140084341005"><ele>111.19999999999999</ele><time>2026-03-22T11:37:18Z</time></trkpt><trkpt lat="38.34047663980153" lon="16.285194130376425"><ele>111.6</ele><time>2026-03-22T11:37:19Z</time></trkpt><trkpt lat="38.34037948078005" lon="16.285232256154416"><ele>112.0</ele><time>2026-03-22T11:37:20Z</time></trkpt><trkpt lat="38.34025552000159" lon="16.28524925441425"><ele>112.0</ele><time>2026-03-22T11:37:21Z</time></trkpt><trkpt lat="38.34010521286984" lon="16.28526327088781"><ele>112.0</ele><time>2026-03-22T11:37:22Z</time></trkpt><trkpt lat="38.339942337335216" lon="16.28527031415185"><ele>112.0</ele><time>2026-03-22T11:37:23Z</time></trkpt><trkpt lat="38.33976036999688" lon="16.2852773594059"><ele>111.33333333333334</ele><time>2026-03-22T11:37:24Z</time></trkpt><trkpt lat="38.3395703233355" lon="16.28528467779395"><ele>110.66666666666666</ele><time>2026-03-22T11:37:25Z</time></trkpt><trkpt lat="38.33936829646521" lon="16.285292508592885"><ele>110.0</ele><time>2026-03-22T11:37:26Z</time></trkpt><trkpt lat="38.33915679246646" lon="16.285317403076604"><ele>110.0</ele><time>2026-03-22T11:37:27Z</time></trkpt><trkpt lat="38.338949200739336" lon="16.28532331919052"><ele>110.0</ele><time>2026-03-22T11:37:28Z</time></trkpt><trkpt lat="38.33873711347163" lon="16.285329387215615"><ele>110.0</ele><time>2026-03-22T11:37:29Z</time></trkpt><trkpt lat="38.338524332825614" lon="16.285336244291067"><ele>108.66666666666666</ele><time>2026-03-22T11:37:30Z</time></trkpt><trkpt lat="38.338313465210895" lon="16.285352742043642"><ele>107.33333333333334</ele><time>2026-03-22T11:37:31Z</time></trkpt><trkpt lat="38.33811732025127" lon="16.28534227330246"><ele>106.0</ele><time>2026-03-22T11:37:32Z</time></trkpt><trkpt lat="38.33791624422258" lon="16.285347877322238"><ele>105.0</ele><time>2026-03-22T11:37:33Z</time></trkpt><trkpt lat="38.337716699913834" lon="16.285350420415785"><ele>104.0</ele><time>2026-03-22T11:37:34Z</time></trkpt><trkpt lat="38.33751799162242" lon="16.28534509276102"><ele>103.0</ele><time>2026-03-22T11:37:35Z</time></trkpt><trkpt lat="38.33732735380502" lon="16.285339981484718"><ele>103.0</ele><time>2026-03-22T11:37:36Z</time></trkpt><trkpt lat="38.337146522454056" lon="16.28533233418275"><ele>103.0</ele><time>2026-03-22T11:37:37Z</time></trkpt><trkpt lat="38.33695410508082" lon="16.285323134878816"><ele>103.0</ele><time>2026-03-22T11:37:38Z</time></trkpt><trkpt lat="38.3367592604065" lon="16.28531133865162"><ele>103.0</ele><time>2026-03-22T11:37:39Z</time></trkpt><trkpt lat="38.33656975836183" lon="16.285300759876076"><ele>103.0</ele><time>2026-03-22T11:37:40Z</time></trkpt><trkpt lat="38.33639358003617" lon="16.285292608091385"><ele>103.0</ele><time>2026-03-22T11:37:41Z</time></trkpt><trkpt lat="38.336229179621014" lon="16.285286616427538"><ele>102.25</ele><time>2026-03-22T11:37:42Z</time></trkpt><trkpt lat="38.336073371114026" lon="16.28528235728041"><ele>101.5</ele><time>2026-03-22T11:37:43Z</time></trkpt><trkpt lat="38.33592991872979" lon="16.2852758780434"><ele>100.75</ele><time>2026-03-22T11:37:44Z</time></trkpt><trkpt lat="38.335795957107365" lon="16.285268009317278"><ele>100.0</ele><time>2026-03-22T11:37:45Z</time></trkpt><trkpt lat="38.33566505680089" lon="16.285261372113144"><ele>99.5</ele><time>2026-03-22T11:37:46Z</time></trkpt><trkpt lat="38.335520195885344" lon="16.28525445750652"><ele>99.0</ele><time>2026-03-22T11:37:47Z</time></trkpt><trkpt lat="38.33538157355479" lon="16.285258044319708"><ele>98.5</ele><time>2026-03-22T11:37:48Z</time></trkpt><trkpt lat="38.335247813895485" lon="16.28531069285927"><ele>98.0</ele><time>2026-03-22T11:37:49Z</time></trkpt><trkpt lat="38.335130468843246" lon="16.2854406910856"><ele>98.0</ele><time>2026-03-22T11:37:50Z</time></trkpt><trkpt lat="38.33499798849014" lon="16.285566669310185"><ele>98.0</ele><time>2026-03-22T11:37:51Z</time></trkpt><trkpt lat="38.334842898097705" lon="16.28569208149988"><ele>98.0</ele><time>2026-03-22T11:37:52Z</time></trkpt><trkpt lat="38.334686846213366" lon="16.285841523628118"><ele>97.0</ele><time>2026-03-22T11:37:53Z</time></trkpt><trkpt lat="38.33453030935626" lon="16.285992866090638"><ele>96.0</ele><time>2026-03-22T11:37:54Z</time></trkpt><trkpt lat="38.33438813231681" lon="16.286124447097308"><ele>95.0</ele><time>2026-03-22T11:37:55Z</time></trkpt><trkpt lat="38.33424464872012" lon="16.286256277997918"><ele>95.0</ele><time>2026-03-22T11:37:56Z</time></trkpt><trkpt lat="38.33411561312642" lon="16.28637966636052"><ele>95.0</ele><time>2026-03-22T11:37:57Z</time></trkpt><trkpt lat="38.333983649753705" lon="16.286479000864855"><ele>95.0</ele><time>2026-03-22T11:37:58Z</time></trkpt><trkpt lat="38.33385556085244" lon="16.286538998238992"><ele>98.33333333333334</ele><time>2026-03-22T11:37:59Z</time></trkpt><trkpt lat="38.333717867057196" lon="16.286558558236926"><ele>101.66666666666667</ele><time>2026-03-22T11:38:00Z</time></trkpt><trkpt lat="38.333556141303454" lon="16.286556889203563"><ele>105.0</ele><time>2026-03-22T11:38:01Z</time></trkpt><trkpt lat="38.33336325845088" lon="16.286553377160637"><ele>105.0</ele><time>2026-03-22T11:38:02Z</time></trkpt><trkpt lat="38.333162498571575" lon="16.28654778306262"><ele>105.0</ele><time>2026-03-22T11:38:03Z</time></trkpt><trkpt lat="38.33297764660756" lon="16.28654246474465"><ele>105.0</ele><time>2026-03-22T11:38:04Z</time></trkpt><trkpt lat="38.33281077139828" lon="16.28653735996581"><ele>102.25</ele><time>2026-03-22T11:38:05Z</time></trkpt><trkpt lat="38.332657858289146" lon="16.286532682897715"><ele>99.5</ele><time>2026-03-22T11:38:06Z</time></trkpt><trkpt lat="38.332535905421224" lon="16.286525852900727"><ele>96.75</ele><time>2026-03-22T11:38:07Z</time></trkpt><trkpt lat="38.33241755261836" lon="16.28652397311877"><ele>94.0</ele><time>2026-03-22T11:38:08Z</time></trkpt><trkpt lat="38.33228642796888" lon="16.286556641490396"><ele>91.66666666666666</ele><time>2026-03-22T11:38:09Z</time></trkpt><trkpt lat="38.332219639642645" lon="16.286748798267404"><ele>89.33333333333333</ele><time>2026-03-22T11:38:10Z</time></trkpt><trkpt lat="38.33214854582524" lon="16.286911502807673"><ele>87.0</ele><time>2026-03-22T11:38:11Z</time></trkpt><trkpt lat="38.33205568947722" lon="16.28711178185274"><ele>85.66666666666667</ele><time>2026-03-22T11:38:12Z</time></trkpt><trkpt lat="38.33198004865128" lon="16.287320082766694"><ele>84.33333333333334</ele><time>2026-03-22T11:38:13Z</time></trkpt><trkpt lat="38.33192210393155" lon="16.28754108371672"><ele>83.0</ele><time>2026-03-22T11:38:14Z</time></trkpt><trkpt lat="38.33187142156919" lon="16.287793737441685"><ele>83.0</ele><time>2026-03-22T11:38:15Z</time></trkpt><trkpt lat="38.33182595669364" lon="16.288046833430148"><ele>83.0</ele><time>2026-03-22T11:38:16Z</time></trkpt><trkpt lat="38.33167635279163" lon="16.288237717641813"><ele>83.0</ele><time>2026-03-22T11:38:17Z</time></trkpt><trkpt lat="38.33163578711403" lon="16.288451634427656"><ele>83.0</ele><time>2026-03-22T11:38:18Z</time></trkpt><trkpt lat="38.33158865014914" lon="16.288700202313564"><ele>83.0</ele><time>2026-03-22T11:38:19Z</time></trkpt><trkpt lat="38.33154194100484" lon="16.288946515264858"><ele>83.0</ele><time>2026-03-22T11:38:20Z</time></trkpt><trkpt lat="38.33149551787401" lon="16.28919131961786"><ele>82.33333333333334</ele><time>2026-03-22T11:38:21Z</time></trkpt><trkpt lat="38.33144759766345" lon="16.28944401873669"><ele>81.66666666666667</ele><time>2026-03-22T11:38:22Z</time></trkpt><trkpt lat="38.331397760277355" lon="16.289706827710255"><ele>81.0</ele><time>2026-03-22T11:38:23Z</time></trkpt><trkpt lat="38.3313493057876" lon="16.28996234414827"><ele>81.0</ele><time>2026-03-22T11:38:24Z</time></trkpt><trkpt lat="38.33130412512349" lon="16.29020229819716"><ele>81.0</ele><time>2026-03-22T11:38:25Z</time></trkpt><trkpt lat="38.3312648504469" lon="16.290498208351543"><ele>81.0</ele><time>2026-03-22T11:38:26Z</time></trkpt><trkpt lat="38.33120246362951" lon="16.290748282436645"><ele>81.5</ele><time>2026-03-22T11:38:27Z</time></trkpt><trkpt lat="38.3311535021069" lon="16.291012968483766"><ele>82.0</ele><time>2026-03-22T11:38:28Z</time></trkpt><trkpt lat="38.33110049030629" lon="16.291332593258804"><ele>82.5</ele><time>2026-03-22T11:38:29Z</time></trkpt><trkpt lat="38.33105129695176" lon="16.291623772246002"><ele>83.0</ele><time>2026-03-22T11:38:30Z</time></trkpt><trkpt lat="38.33100189597826" lon="16.291905003677872"><ele>83.0</ele><time>2026-03-22T11:38:31Z</time></trkpt><trkpt lat="38.330957842650676" lon="16.29216091285673"><ele>83.0</ele><time>2026-03-22T11:38:32Z</time></trkpt><trkpt lat="38.330918942683205" lon="16.29239423812692"><ele>83.0</ele><time>2026-03-22T11:38:33Z</time></trkpt><trkpt lat="38.33087800801517" lon="16.292639767848268"><ele>84.66666666666667</ele><time>2026-03-22T11:38:34Z</time></trkpt><trkpt lat="38.33083517607539" lon="16.292891111874724"><ele>86.33333333333333</ele><time>2026-03-22T11:38:35Z</time></trkpt><trkpt lat="38.33079057220785" lon="16.29315021475898"><ele>88.0</ele><time>2026-03-22T11:38:36Z</time></trkpt><trkpt lat="38.33074621971906" lon="16.293407946406706"><ele>91.0</ele><time>2026-03-22T11:38:37Z</time></trkpt><trkpt lat="38.330705508454464" lon="16.293645191831395"><ele>94.0</ele><time>2026-03-22T11:38:38Z</time></trkpt><trkpt lat="38.3306698915311" lon="16.293852749850767"><ele>97.0</ele><time>2026-03-22T11:38:39Z</time></trkpt><trkpt lat="38.330637675792445" lon="16.294055588151107"><ele>99.25</ele><time>2026-03-22T11:38:40Z</time></trkpt><trkpt lat="38.33062079156127" lon="16.294236345806937"><ele>101.5</ele><time>2026-03-22T11:38:41Z</time></trkpt><trkpt lat="38.33061720392199" lon="16.29440657233677"><ele>103.75</ele><time>2026-03-22T11:38:42Z</time></trkpt><trkpt lat="38.33062135377071" lon="16.29456356178178"><ele>106.0</ele><time>2026-03-22T11:38:43Z</time></trkpt><trkpt lat="38.33063210897121" lon="16.29474369634598"><ele>105.0</ele><time>2026-03-22T11:38:44Z</time></trkpt><trkpt lat="38.33064976867969" lon="16.294957355476882"><ele>104.0</ele><time>2026-03-22T11:38:45Z</time></trkpt><trkpt lat="38.33067545144238" lon="16.295188764424005"><ele>103.0</ele><time>2026-03-22T11:38:46Z</time></trkpt><trkpt lat="38.330689623999916" lon="16.295403910368563"><ele>101.5</ele><time>2026-03-22T11:38:47Z</time></trkpt><trkpt lat="38.33070098907841" lon="16.295728322664385"><ele>100.0</ele><time>2026-03-22T11:38:48Z</time></trkpt><trkpt lat="38.33071088827457" lon="16.296013416464152"><ele>100.0</ele><time>2026-03-22T11:38:49Z</time></trkpt><trkpt lat="38.330724235045636" lon="16.296308101783005"><ele>100.0</ele><time>2026-03-22T11:38:50Z</time></trkpt><trkpt lat="38.33073841574794" lon="16.296606439443124"><ele>102.0</ele><time>2026-03-22T11:38:51Z</time></trkpt><trkpt lat="38.33075309324861" lon="16.296909219934136"><ele>104.0</ele><time>2026-03-22T11:38:52Z</time></trkpt><trkpt lat="38.33075461025588" lon="16.29719298960244"><ele>103.33333333333333</ele><time>2026-03-22T11:38:53Z</time></trkpt><trkpt lat="38.33076364267947" lon="16.297473949868284"><ele>102.66666666666666</ele><time>2026-03-22T11:38:54Z</time></trkpt><trkpt lat="38.33077714687128" lon="16.297758286270913"><ele>102.0</ele><time>2026-03-22T11:38:55Z</time></trkpt><trkpt lat="38.3307706782723" lon="16.298022135639915"><ele>101.33333333333334</ele><time>2026-03-22T11:38:56Z</time></trkpt><trkpt lat="38.3307802169475" lon="16.298268028600788"><ele>100.66666666666667</ele><time>2026-03-22T11:38:57Z</time></trkpt><trkpt lat="38.330812883277794" lon="16.298494078619704"><ele>100.0</ele><time>2026-03-22T11:38:58Z</time></trkpt><trkpt lat="38.330849104842734" lon="16.29871661466434"><ele>99.66666666666667</ele><time>2026-03-22T11:38:59Z</time></trkpt><trkpt lat="38.33092074363697" lon="16.298949081490385"><ele>99.33333333333334</ele><time>2026-03-22T11:39:00Z</time></trkpt><trkpt lat="38.33100678034754" lon="16.29919650301647"><ele>99.0</ele><time>2026-03-22T11:39:01Z</time></trkpt><trkpt lat="38.331088036435176" lon="16.2994543395778"><ele>99.0</ele><time>2026-03-22T11:39:02Z</time></trkpt><trkpt lat="38.331156249541614" lon="16.29972991321016"><ele>99.0</ele><time>2026-03-22T11:39:03Z</time></trkpt><trkpt lat="38.331229350632285" lon="16.299972049879962"><ele>99.0</ele><time>2026-03-22T11:39:04Z</time></trkpt><trkpt lat="38.3312994263854" lon="16.300203438229058"><ele>99.33333333333334</ele><time>2026-03-22T11:39:05Z</time></trkpt><trkpt lat="38.33137111037845" lon="16.300431509805716"><ele>99.66666666666667</ele><time>2026-03-22T11:39:06Z</time></trkpt><trkpt lat="38.331443931772014" lon="16.300649360838474"><ele>100.0</ele><time>2026-03-22T11:39:07Z</time></trkpt><trkpt lat="38.331517715648985" lon="16.300862057639115"><ele>100.0</ele><time>2026-03-22T11:39:08Z</time></trkpt><trkpt lat="38.33158483126934" lon="16.30105553154316"><ele>100.0</ele><time>2026-03-22T11:39:09Z</time></trkpt><trkpt lat="38.3316470402949" lon="16.30123777924034"><ele>100.0</ele><time>2026-03-22T11:39:10Z</time></trkpt><trkpt lat="38.33169931936815" lon="16.301399469111146"><ele>100.16666666666667</ele><time>2026-03-22T11:39:11Z</time></trkpt><trkpt lat="38.33174811395924" lon="16.301515546898287"><ele>100.33333333333334</ele><time>2026-03-22T11:39:12Z</time></trkpt><trkpt lat="38.331775808842835" lon="16.301610312491306"><ele>100.5</ele><time>2026-03-22T11:39:13Z</time></trkpt><trkpt lat="38.33179262249474" lon="16.30169382564417"><ele>100.66666666666666</ele><time>2026-03-22T11:39:14Z</time></trkpt><trkpt lat="38.331793641947684" lon="16.301821207409112"><ele>100.83333333333333</ele><time>2026-03-22T11:39:16Z</time></trkpt><trkpt lat="38.33177659344952" lon="16.301912474263723"><ele>101.0</ele><time>2026-03-22T11:39:18Z</time></trkpt><trkpt lat="38.331790233435775" lon="16.302087572300547"><ele>100.99999999999999</ele><time>2026-03-22T11:39:20Z</time></trkpt><trkpt lat="38.33181109002175" lon="16.302176223278323"><ele>101.0</ele><time>2026-03-22T11:39:21Z</time></trkpt><trkpt lat="38.331804406023" lon="16.302294035478255"><ele>101.0</ele><time>2026-03-22T11:39:23Z</time></trkpt><trkpt lat="38.33179208266784" lon="16.30237378360941"><ele>101.0</ele><time>2026-03-22T11:40:05Z</time></trkpt><trkpt lat="38.331654938919385" lon="16.30237181351671"><ele>100.99999999999999</ele><time>2026-03-22T11:40:07Z</time></trkpt><trkpt lat="38.33157608601575" lon="16.302393963584425"><ele>101.0</ele><time>2026-03-22T11:40:08Z</time></trkpt><trkpt lat="38.33144153064209" lon="16.302400303720326"><ele>99.66666666666666</ele><time>2026-03-22T11:40:09Z</time></trkpt><trkpt lat="38.33131255907567" lon="16.30239545310686"><ele>98.33333333333334</ele><time>2026-03-22T11:40:10Z</time></trkpt><trkpt lat="38.33113772763239" lon="16.302403154669147"><ele>97.0</ele><time>2026-03-22T11:40:11Z</time></trkpt><trkpt lat="38.330936450166845" lon="16.302415809933624"><ele>97.0</ele><time>2026-03-22T11:40:12Z</time></trkpt><trkpt lat="38.33077229983728" lon="16.302399116241542"><ele>97.0</ele><time>2026-03-22T11:40:13Z</time></trkpt><trkpt lat="38.330581568745906" lon="16.30239799484395"><ele>97.0</ele><time>2026-03-22T11:40:14Z</time></trkpt><trkpt lat="38.330428729975075" lon="16.30239997782721"><ele>95.66666666666667</ele><time>2026-03-22T11:40:15Z</time></trkpt><trkpt lat="38.33026270949597" lon="16.302402292601872"><ele>94.33333333333334</ele><time>2026-03-22T11:40:16Z</time></trkpt><trkpt lat="38.330081076843484" lon="16.302404943205346"><ele>93.0</ele><time>2026-03-22T11:40:17Z</time></trkpt><trkpt lat="38.32987178461991" lon="16.302407997447354"><ele>92.33333333333333</ele><time>2026-03-22T11:40:18Z</time></trkpt><trkpt lat="38.329656049179455" lon="16.302412489858575"><ele>91.66666666666666</ele><time>2026-03-22T11:40:19Z</time></trkpt><trkpt lat="38.32947509069376" lon="16.302416621979066"><ele>91.0</ele><time>2026-03-22T11:40:20Z</time></trkpt><trkpt lat="38.32932370168171" lon="16.30242004803778"><ele>91.0</ele><time>2026-03-22T11:40:21Z</time></trkpt><trkpt lat="38.32919650769302" lon="16.302422926521757"><ele>91.0</ele><time>2026-03-22T11:40:22Z</time></trkpt><trkpt lat="38.32909451986805" lon="16.302424698581518"><ele>91.0</ele><time>2026-03-22T11:40:23Z</time></trkpt><trkpt lat="38.3290016674996" lon="16.302426423161428"><ele>91.0</ele><time>2026-03-22T11:40:24Z</time></trkpt><trkpt lat="38.32892316551105" lon="16.30242788121454"><ele>91.0</ele><time>2026-03-22T11:40:25Z</time></trkpt><trkpt lat="38.328842332307744" lon="16.302429382555154"><ele>90.83333333333333</ele><time>2026-03-22T11:40:26Z</time></trkpt><trkpt lat="38.32876870008324" lon="16.30243075015854"><ele>90.66666666666666</ele><time>2026-03-22T11:40:27Z</time></trkpt><trkpt lat="38.32869748838305" lon="16.302432072787063"><ele>90.5</ele><time>2026-03-22T11:40:28Z</time></trkpt><trkpt lat="38.328631010868406" lon="16.302434141430826"><ele>90.33333333333333</ele><time>2026-03-22T11:40:29Z</time></trkpt><trkpt lat="38.328521266432865" lon="16.30243726548512"><ele>90.16666666666667</ele><time>2026-03-22T11:40:31Z</time></trkpt><trkpt lat="38.328410324243364" lon="16.30244163256008"><ele>90.0</ele><time>2026-03-22T11:40:33Z</time></trkpt><trkpt lat="38.328334913773006" lon="16.30244460097763"><ele>90.0</ele><time>2026-03-22T11:40:35Z</time></trkpt><trkpt lat="38.328272900651044" lon="16.30246848421981"><ele>90.0</ele><time>2026-03-22T11:40:37Z</time></trkpt><trkpt lat="38.32818359884957" lon="16.302469458439596"><ele>90.0</ele><time>2026-03-22T11:40:43Z</time></trkpt><trkpt lat="38.328091892277826" lon="16.302462934478413"><ele>90.0</ele><time>2026-03-22T11:40:47Z</time></trkpt><trkpt lat="38.32796163663489" lon="16.302548546295085"><ele>90.0</ele><time>2026-03-22T11:40:49Z</time></trkpt><trkpt lat="38.327844818830094" lon="16.302620473817207"><ele>89.0</ele><time>2026-03-22T11:40:50Z</time></trkpt><trkpt lat="38.32771094246789" lon="16.302702096242072"><ele>88.0</ele><time>2026-03-22T11:40:51Z</time></trkpt><trkpt lat="38.32754146015919" lon="16.302804346711707"><ele>87.0</ele><time>2026-03-22T11:40:52Z</time></trkpt><trkpt lat="38.327345932323944" lon="16.30292144145614"><ele>85.66666666666667</ele><time>2026-03-22T11:40:53Z</time></trkpt><trkpt lat="38.32715509062877" lon="16.303036568237246"><ele>84.33333333333334</ele><time>2026-03-22T11:40:54Z</time></trkpt><trkpt lat="38.32700444483542" lon="16.303209769315202"><ele>83.0</ele><time>2026-03-22T11:40:55Z</time></trkpt><trkpt lat="38.32682691857721" lon="16.303318699045498"><ele>83.0</ele><time>2026-03-22T11:40:56Z</time></trkpt><trkpt lat="38.32664533951935" lon="16.303419747361097"><ele>83.0</ele><time>2026-03-22T11:40:57Z</time></trkpt><trkpt lat="38.32643244215398" lon="16.30353415958952"><ele>83.0</ele><time>2026-03-22T11:40:58Z</time></trkpt><trkpt lat="38.32625175167789" lon="16.303581555494077"><ele>81.33333333333334</ele><time>2026-03-22T11:40:59Z</time></trkpt><trkpt lat="38.326091110176606" lon="16.3036786920817"><ele>79.66666666666667</ele><time>2026-03-22T11:41:00Z</time></trkpt><trkpt lat="38.32593198394477" lon="16.303775596352505"><ele>78.0</ele><time>2026-03-22T11:41:01Z</time></trkpt><trkpt lat="38.325775885403154" lon="16.30386994691642"><ele>78.33333333333333</ele><time>2026-03-22T11:41:02Z</time></trkpt><trkpt lat="38.32561185705413" lon="16.30396884301217"><ele>78.66666666666666</ele><time>2026-03-22T11:41:03Z</time></trkpt><trkpt lat="38.32544797286335" lon="16.304064526176443"><ele>79.0</ele><time>2026-03-22T11:41:04Z</time></trkpt><trkpt lat="38.32526804352272" lon="16.304171837010763"><ele>77.5</ele><time>2026-03-22T11:41:05Z</time></trkpt><trkpt lat="38.325057720484615" lon="16.30429639001171"><ele>76.0</ele><time>2026-03-22T11:41:06Z</time></trkpt><trkpt lat="38.3248603031358" lon="16.30441472537304"><ele>75.33333333333333</ele><time>2026-03-22T11:41:07Z</time></trkpt><trkpt lat="38.324702764478864" lon="16.304586970227774"><ele>74.66666666666667</ele><time>2026-03-22T11:41:08Z</time></trkpt><trkpt lat="38.324536051536235" lon="16.304706000725115"><ele>74.0</ele><time>2026-03-22T11:41:09Z</time></trkpt><trkpt lat="38.324380634168485" lon="16.304812806937278"><ele>74.0</ele><time>2026-03-22T11:41:10Z</time></trkpt><trkpt lat="38.32423577174935" lon="16.304920827812147"><ele>74.0</ele><time>2026-03-22T11:41:11Z</time></trkpt><trkpt lat="38.32407253612579" lon="16.30497377907113"><ele>74.0</ele><time>2026-03-22T11:41:12Z</time></trkpt><trkpt lat="38.32392806210522" lon="16.305066884672417"><ele>73.0</ele><time>2026-03-22T11:41:13Z</time></trkpt><trkpt lat="38.3237804347188" lon="16.305167123727067"><ele>72.0</ele><time>2026-03-22T11:41:14Z</time></trkpt><trkpt lat="38.32363570705301" lon="16.305273820297078"><ele>71.0</ele><time>2026-03-22T11:41:15Z</time></trkpt><trkpt lat="38.32349256732031" lon="16.305383248766166"><ele>71.0</ele><time>2026-03-22T11:41:16Z</time></trkpt><trkpt lat="38.32334291301422" lon="16.305507943673348"><ele>71.0</ele><time>2026-03-22T11:41:17Z</time></trkpt><trkpt lat="38.323200739165536" lon="16.30563222458702"><ele>71.0</ele><time>2026-03-22T11:41:18Z</time></trkpt><trkpt lat="38.323069438361095" lon="16.305748455050743"><ele>70.0</ele><time>2026-03-22T11:41:19Z</time></trkpt><trkpt lat="38.3229438829348" lon="16.305860000977617"><ele>69.0</ele><time>2026-03-22T11:41:20Z</time></trkpt><trkpt lat="38.32282757779178" lon="16.30596365955779"><ele>68.0</ele><time>2026-03-22T11:41:21Z</time></trkpt><trkpt lat="38.32271470609779" lon="16.306064258019923"><ele>67.0</ele><time>2026-03-22T11:41:22Z</time></trkpt><trkpt lat="38.32260750350602" lon="16.306159803844682"><ele>67.0</ele><time>2026-03-22T11:41:23Z</time></trkpt><trkpt lat="38.32250923816644" lon="16.30624707425413"><ele>67.0</ele><time>2026-03-22T11:41:24Z</time></trkpt><trkpt lat="38.32241619911617" lon="16.30632958870896"><ele>67.0</ele><time>2026-03-22T11:41:25Z</time></trkpt><trkpt lat="38.32232467626723" lon="16.306410761602248"><ele>67.0</ele><time>2026-03-22T11:41:26Z</time></trkpt><trkpt lat="38.32222313723247" lon="16.30650106543242"><ele>66.5</ele><time>2026-03-22T11:41:27Z</time></trkpt><trkpt lat="38.32210999695681" lon="16.3066026110039"><ele>66.0</ele><time>2026-03-22T11:41:28Z</time></trkpt><trkpt lat="38.32198951709439" lon="16.30670905366687"><ele>65.5</ele><time>2026-03-22T11:41:29Z</time></trkpt><trkpt lat="38.321860243346656" lon="16.30682137906247"><ele>65.0</ele><time>2026-03-22T11:41:30Z</time></trkpt><trkpt lat="38.32173933618642" lon="16.3069526924171"><ele>65.0</ele><time>2026-03-22T11:41:31Z</time></trkpt><trkpt lat="38.32159446929354" lon="16.307070879315376"><ele>65.0</ele><time>2026-03-22T11:41:32Z</time></trkpt><trkpt lat="38.321454183372346" lon="16.307204926719574"><ele>65.0</ele><time>2026-03-22T11:41:33Z</time></trkpt><trkpt lat="38.32129866311452" lon="16.30733354055875"><ele>64.0</ele><time>2026-03-22T11:41:34Z</time></trkpt><trkpt lat="38.32113400107981" lon="16.307467157164137"><ele>63.0</ele><time>2026-03-22T11:41:35Z</time></trkpt><trkpt lat="38.320970304961925" lon="16.307622639927956"><ele>62.0</ele><time>2026-03-22T11:41:36Z</time></trkpt><trkpt lat="38.32081198192493" lon="16.307773742416803"><ele>62.0</ele><time>2026-03-22T11:41:37Z</time></trkpt><trkpt lat="38.32066519477775" lon="16.307913785484192"><ele>62.0</ele><time>2026-03-22T11:41:38Z</time></trkpt><trkpt lat="38.32053108679697" lon="16.308041401959766"><ele>62.0</ele><time>2026-03-22T11:41:39Z</time></trkpt><trkpt lat="38.32038903646035" lon="16.308176306769678"><ele>61.0</ele><time>2026-03-22T11:41:40Z</time></trkpt><trkpt lat="38.32025114708305" lon="16.30830501860182"><ele>60.0</ele><time>2026-03-22T11:41:41Z</time></trkpt><trkpt lat="38.32010798340135" lon="16.308434022385356"><ele>59.0</ele><time>2026-03-22T11:41:42Z</time></trkpt><trkpt lat="38.31996191190689" lon="16.308559354513445"><ele>59.0</ele><time>2026-03-22T11:41:43Z</time></trkpt><trkpt lat="38.319826605407314" lon="16.308674547377354"><ele>59.0</ele><time>2026-03-22T11:41:44Z</time></trkpt><trkpt lat="38.31969391013682" lon="16.308787516534853"><ele>59.0</ele><time>2026-03-22T11:41:45Z</time></trkpt><trkpt lat="38.319564288351536" lon="16.30889860722958"><ele>58.0</ele><time>2026-03-22T11:41:46Z</time></trkpt><trkpt lat="38.31943123056836" lon="16.309011202277713"><ele>57.0</ele><time>2026-03-22T11:41:47Z</time></trkpt><trkpt lat="38.319297495040914" lon="16.309124351436374"><ele>56.0</ele><time>2026-03-22T11:41:48Z</time></trkpt><trkpt lat="38.31916447903705" lon="16.309237799454184"><ele>56.0</ele><time>2026-03-22T11:41:49Z</time></trkpt><trkpt lat="38.31903152286741" lon="16.309351458334884"><ele>56.0</ele><time>2026-03-22T11:41:50Z</time></trkpt><trkpt lat="38.3188963929924" lon="16.30946536246501"><ele>56.0</ele><time>2026-03-22T11:41:51Z</time></trkpt><trkpt lat="38.31876271050998" lon="16.309575575958515"><ele>55.66666666666667</ele><time>2026-03-22T11:41:52Z</time></trkpt><trkpt lat="38.31863347451482" lon="16.309674460398792"><ele>55.33333333333333</ele><time>2026-03-22T11:41:53Z</time></trkpt><trkpt lat="38.318491838989836" lon="16.309761229080856"><ele>55.0</ele><time>2026-03-22T11:41:54Z</time></trkpt><trkpt lat="38.31833675531474" lon="16.309853705108008"><ele>55.0</ele><time>2026-03-22T11:41:55Z</time></trkpt><trkpt lat="38.3181774312041" lon="16.309949674121377"><ele>55.0</ele><time>2026-03-22T11:41:56Z</time></trkpt><trkpt lat="38.318017963466126" lon="16.31004138345559"><ele>55.0</ele><time>2026-03-22T11:41:57Z</time></trkpt><trkpt lat="38.31785804498361" lon="16.310130730004367"><ele>54.33333333333333</ele><time>2026-03-22T11:41:58Z</time></trkpt><trkpt lat="38.317703463026916" lon="16.310217095039842"><ele>53.66666666666667</ele><time>2026-03-22T11:41:59Z</time></trkpt><trkpt lat="38.317557959711564" lon="16.310298387811244"><ele>53.0</ele><time>2026-03-22T11:42:00Z</time></trkpt><trkpt lat="38.317412015944356" lon="16.31037992668627"><ele>53.0</ele><time>2026-03-22T11:42:01Z</time></trkpt><trkpt lat="38.31726196826514" lon="16.31046376008967"><ele>53.0</ele><time>2026-03-22T11:42:02Z</time></trkpt><trkpt lat="38.31709800039453" lon="16.310554574257463"><ele>53.0</ele><time>2026-03-22T11:42:03Z</time></trkpt><trkpt lat="38.31693128680701" lon="16.310650226328185"><ele>51.66666666666667</ele><time>2026-03-22T11:42:04Z</time></trkpt><trkpt lat="38.31677137255517" lon="16.310744215122167"><ele>50.33333333333333</ele><time>2026-03-22T11:42:05Z</time></trkpt><trkpt lat="38.31660040248" lon="16.31084924170756"><ele>49.0</ele><time>2026-03-22T11:42:06Z</time></trkpt><trkpt lat="38.31640422741365" lon="16.310973568049544"><ele>47.5</ele><time>2026-03-22T11:42:07Z</time></trkpt><trkpt lat="38.31619266463367" lon="16.311113340427895"><ele>46.0</ele><time>2026-03-22T11:42:08Z</time></trkpt><trkpt lat="38.3159476333971" lon="16.311291069413272"><ele>46.0</ele><time>2026-03-22T11:42:09Z</time></trkpt><trkpt lat="38.31571950448373" lon="16.311466314863"><ele>46.0</ele><time>2026-03-22T11:42:10Z</time></trkpt><trkpt lat="38.31552401620059" lon="16.31162344990853"><ele>45.333333333333336</ele><time>2026-03-22T11:42:11Z</time></trkpt><trkpt lat="38.31536637952845" lon="16.311750876627215"><ele>44.666666666666664</ele><time>2026-03-22T11:42:12Z</time></trkpt><trkpt lat="38.31522281339519" lon="16.311865805033644"><ele>44.0</ele><time>2026-03-22T11:42:13Z</time></trkpt><trkpt lat="38.31508308272764" lon="16.3119776632311"><ele>44.0</ele><time>2026-03-22T11:42:14Z</time></trkpt><trkpt lat="38.31495312029438" lon="16.31208170155322"><ele>44.0</ele><time>2026-03-22T11:42:15Z</time></trkpt><trkpt lat="38.31482153176976" lon="16.312175677273956"><ele>44.0</ele><time>2026-03-22T11:42:16Z</time></trkpt><trkpt lat="38.314690621031076" lon="16.31225922759101"><ele>43.25</ele><time>2026-03-22T11:42:17Z</time></trkpt><trkpt lat="38.31456353044391" lon="16.312332003436374"><ele>42.5</ele><time>2026-03-22T11:42:18Z</time></trkpt><trkpt lat="38.314440085668515" lon="16.312402260860672"><ele>41.75</ele><time>2026-03-22T11:42:19Z</time></trkpt><trkpt lat="38.31431896887106" lon="16.31247119330744"><ele>41.0</ele><time>2026-03-22T11:42:20Z</time></trkpt><trkpt lat="38.314207611883575" lon="16.312533995936818"><ele>41.0</ele><time>2026-03-22T11:42:21Z</time></trkpt><trkpt lat="38.31410012648336" lon="16.312588957644472"><ele>41.0</ele><time>2026-03-22T11:42:22Z</time></trkpt><trkpt lat="38.31400195547146" lon="16.31262710620679"><ele>41.0</ele><time>2026-03-22T11:42:23Z</time></trkpt><trkpt lat="38.31391334109842" lon="16.31264723625423"><ele>41.0</ele><time>2026-03-22T11:42:24Z</time></trkpt><trkpt lat="38.313828283332015" lon="16.31266054275779"><ele>41.0</ele><time>2026-03-22T11:42:25Z</time></trkpt><trkpt lat="38.31376879341206" lon="16.312626833585863"><ele>40.5</ele><time>2026-03-22T11:42:27Z</time></trkpt><trkpt lat="38.31368339034511" lon="16.31257747797377"><ele>40.0</ele><time>2026-03-22T11:42:29Z</time></trkpt><trkpt lat="38.31361503923699" lon="16.312552053239"><ele>39.5</ele><time>2026-03-22T11:42:30Z</time></trkpt><trkpt lat="38.31353425212281" lon="16.312573796453382"><ele>39.0</ele><time>2026-03-22T11:42:31Z</time></trkpt><trkpt lat="38.31347381765916" lon="16.312626371372172"><ele>38.5</ele><time>2026-03-22T11:42:32Z</time></trkpt><trkpt lat="38.31344098519734" lon="16.31277288265051"><ele>38.0</ele><time>2026-03-22T11:42:34Z</time></trkpt><trkpt lat="38.313446811575204" lon="16.3128750734584"><ele>38.0</ele><time>2026-03-22T11:42:35Z</time></trkpt><trkpt lat="38.31340595572941" lon="16.313013959179884"><ele>38.0</ele><time>2026-03-22T11:42:36Z</time></trkpt><trkpt lat="38.31332779162084" lon="16.313077203792986"><ele>38.0</ele><time>2026-03-22T11:42:37Z</time></trkpt><trkpt lat="38.313229443113414" lon="16.31313623686163"><ele>38.0</ele><time>2026-03-22T11:42:38Z</time></trkpt><trkpt lat="38.313112661827155" lon="16.31321819017097"><ele>38.666666666666664</ele><time>2026-03-22T11:42:39Z</time></trkpt><trkpt lat="38.312985809285" lon="16.313322461996236"><ele>39.333333333333336</ele><time>2026-03-22T11:42:40Z</time></trkpt><trkpt lat="38.312844420127" lon="16.31343815327476"><ele>40.0</ele><time>2026-03-22T11:42:41Z</time></trkpt><trkpt lat="38.31269082134152" lon="16.31356644178655"><ele>40.0</ele><time>2026-03-22T11:42:42Z</time></trkpt><trkpt lat="38.31252588483336" lon="16.313705645002834"><ele>40.0</ele><time>2026-03-22T11:42:43Z</time></trkpt><trkpt lat="38.312348846541646" lon="16.313854647032215"><ele>40.0</ele><time>2026-03-22T11:42:44Z</time></trkpt><trkpt lat="38.312173576002635" lon="16.3140019636891"><ele>39.333333333333336</ele><time>2026-03-22T11:42:45Z</time></trkpt><trkpt lat="38.31199121662925" lon="16.314155238270256"><ele>38.666666666666664</ele><time>2026-03-22T11:42:46Z</time></trkpt><trkpt lat="38.311798645419685" lon="16.31431709623167"><ele>38.0</ele><time>2026-03-22T11:42:47Z</time></trkpt><trkpt lat="38.311598809132015" lon="16.314485060853908"><ele>37.5</ele><time>2026-03-22T11:42:48Z</time></trkpt><trkpt lat="38.311388006609256" lon="16.314664879096906"><ele>37.0</ele><time>2026-03-22T11:42:49Z</time></trkpt><trkpt lat="38.31117956053909" lon="16.31483991391572"><ele>36.5</ele><time>2026-03-22T11:42:50Z</time></trkpt><trkpt lat="38.31095163265376" lon="16.315030020959234"><ele>36.0</ele><time>2026-03-22T11:42:51Z</time></trkpt><trkpt lat="38.31070281977875" lon="16.315237682654335"><ele>34.5</ele><time>2026-03-22T11:42:52Z</time></trkpt><trkpt lat="38.31047728096198" lon="16.31542564344655"><ele>33.0</ele><time>2026-03-22T11:42:53Z</time></trkpt><trkpt lat="38.31026700343942" lon="16.315601052644922"><ele>32.666666666666664</ele><time>2026-03-22T11:42:54Z</time></trkpt><trkpt lat="38.310071013417925" lon="16.315761625154682"><ele>32.33333333333333</ele><time>2026-03-22T11:42:55Z</time></trkpt><trkpt lat="38.30989128479168" lon="16.315909811836008"><ele>32.0</ele><time>2026-03-22T11:42:56Z</time></trkpt><trkpt lat="38.309724992401094" lon="16.316049610367916"><ele>31.666666666666664</ele><time>2026-03-22T11:42:57Z</time></trkpt><trkpt lat="38.3095703119108" lon="16.316179741852427"><ele>31.333333333333336</ele><time>2026-03-22T11:42:58Z</time></trkpt><trkpt lat="38.30942881127114" lon="16.316314940612063"><ele>31.0</ele><time>2026-03-22T11:42:59Z</time></trkpt><trkpt lat="38.30932314401736" lon="16.316451885785803"><ele>31.0</ele><time>2026-03-22T11:43:00Z</time></trkpt><trkpt lat="38.30925373102089" lon="16.316663306560162"><ele>31.0</ele><time>2026-03-22T11:43:01Z</time></trkpt><trkpt lat="38.309209992567546" lon="16.316899827476462"><ele>31.0</ele><time>2026-03-22T11:43:02Z</time></trkpt><trkpt lat="38.3091644190482" lon="16.31714105048692"><ele>31.333333333333336</ele><time>2026-03-22T11:43:03Z</time></trkpt><trkpt lat="38.30910895798665" lon="16.317383258114532"><ele>31.666666666666664</ele><time>2026-03-22T11:43:04Z</time></trkpt><trkpt lat="38.30902906527341" lon="16.31761113218109"><ele>32.0</ele><time>2026-03-22T11:43:05Z</time></trkpt><trkpt lat="38.30891007047834" lon="16.31783703831703"><ele>31.0</ele><time>2026-03-22T11:43:06Z</time></trkpt><trkpt lat="38.30877221130758" lon="16.31807897129679"><ele>30.0</ele><time>2026-03-22T11:43:07Z</time></trkpt><trkpt lat="38.30861726356537" lon="16.31834666850468"><ele>30.0</ele><time>2026-03-22T11:43:08Z</time></trkpt><trkpt lat="38.30845351842474" lon="16.31862835374806"><ele>30.0</ele><time>2026-03-22T11:43:09Z</time></trkpt><trkpt lat="38.30829076002626" lon="16.3189112134217"><ele>30.5</ele><time>2026-03-22T11:43:10Z</time></trkpt><trkpt lat="38.30813829183029" lon="16.319176925640033"><ele>31.0</ele><time>2026-03-22T11:43:11Z</time></trkpt><trkpt lat="38.307996835451235" lon="16.319423447094596"><ele>29.0</ele><time>2026-03-22T11:43:12Z</time></trkpt><trkpt lat="38.30786144714466" lon="16.319658422182737"><ele>27.0</ele><time>2026-03-22T11:43:13Z</time></trkpt><trkpt lat="38.30772404958601" lon="16.31989628477439"><ele>26.5</ele><time>2026-03-22T11:43:14Z</time></trkpt><trkpt lat="38.307583780332926" lon="16.320139023111548"><ele>26.0</ele><time>2026-03-22T11:43:15Z</time></trkpt><trkpt lat="38.30743708045516" lon="16.32039288973274"><ele>27.0</ele><time>2026-03-22T11:43:16Z</time></trkpt><trkpt lat="38.30728747574297" lon="16.320651783045513"><ele>28.0</ele><time>2026-03-22T11:43:17Z</time></trkpt><trkpt lat="38.307133291144225" lon="16.32091848040356"><ele>25.5</ele><time>2026-03-22T11:43:18Z</time></trkpt><trkpt lat="38.30696044376615" lon="16.321202735173454"><ele>23.0</ele><time>2026-03-22T11:43:19Z</time></trkpt><trkpt lat="38.30682950663993" lon="16.321379986653824"><ele>23.333333333333336</ele><time>2026-03-22T11:43:21Z</time></trkpt><trkpt lat="38.30666195927265" lon="16.321579332945987"><ele>23.666666666666668</ele><time>2026-03-22T11:43:22Z</time></trkpt><trkpt lat="38.30652545346397" lon="16.32172243630554"><ele>24.0</ele><time>2026-03-22T11:43:23Z</time></trkpt><trkpt lat="38.30639382610451" lon="16.321846870544"><ele>24.0</ele><time>2026-03-22T11:43:24Z</time></trkpt><trkpt lat="38.30625974065973" lon="16.321973446862373"><ele>24.0</ele><time>2026-03-22T11:43:25Z</time></trkpt><trkpt lat="38.30614063234946" lon="16.322089082601135"><ele>24.0</ele><time>2026-03-22T11:43:26Z</time></trkpt><trkpt lat="38.30603845936259" lon="16.32218902969475"><ele>24.0</ele><time>2026-03-22T11:43:27Z</time></trkpt><trkpt lat="38.30591608029272" lon="16.32230874270869"><ele>24.0</ele><time>2026-03-22T11:43:28Z</time></trkpt><trkpt lat="38.30581799739518" lon="16.322405257385153"><ele>24.0</ele><time>2026-03-22T11:43:29Z</time></trkpt><trkpt lat="38.30571430056603" lon="16.32250741404125"><ele>24.0</ele><time>2026-03-22T11:43:30Z</time></trkpt><trkpt lat="38.30561776452492" lon="16.322602516284363"><ele>24.0</ele><time>2026-03-22T11:43:31Z</time></trkpt><trkpt lat="38.30551434729469" lon="16.322704397510538"><ele>23.75</ele><time>2026-03-22T11:43:32Z</time></trkpt><trkpt lat="38.305416988834665" lon="16.322800309959252"><ele>23.5</ele><time>2026-03-22T11:43:33Z</time></trkpt><trkpt lat="38.30532202159955" lon="16.322893688406168"><ele>23.25</ele><time>2026-03-22T11:43:34Z</time></trkpt><trkpt lat="38.30522914196134" lon="16.322984997035707"><ele>23.0</ele><time>2026-03-22T11:43:35Z</time></trkpt><trkpt lat="38.30513985335814" lon="16.323072775338282"><ele>23.0</ele><time>2026-03-22T11:43:36Z</time></trkpt><trkpt lat="38.305049385445464" lon="16.32316171302296"><ele>23.0</ele><time>2026-03-22T11:43:37Z</time></trkpt><trkpt lat="38.30495363945944" lon="16.323255839511486"><ele>23.0</ele><time>2026-03-22T11:43:38Z</time></trkpt><trkpt lat="38.304854355004004" lon="16.323353444632897"><ele>23.0</ele><time>2026-03-22T11:43:39Z</time></trkpt><trkpt lat="38.30475120476012" lon="16.323454850124477"><ele>22.0</ele><time>2026-03-22T11:43:40Z</time></trkpt><trkpt lat="38.30464488248623" lon="16.323559373984132"><ele>21.0</ele><time>2026-03-22T11:43:41Z</time></trkpt><trkpt lat="38.30454467398493" lon="16.32365788729709"><ele>20.0</ele><time>2026-03-22T11:43:42Z</time></trkpt><trkpt lat="38.30444169187713" lon="16.323759126784374"><ele>19.0</ele><time>2026-03-22T11:43:43Z</time></trkpt><trkpt lat="38.30435000778155" lon="16.323849259449336"><ele>19.0</ele><time>2026-03-22T11:43:44Z</time></trkpt><trkpt lat="38.30425149904189" lon="16.323947021925466"><ele>19.0</ele><time>2026-03-22T11:43:45Z</time></trkpt><trkpt lat="38.30415020187092" lon="16.324046587741815"><ele>19.0</ele><time>2026-03-22T11:43:46Z</time></trkpt><trkpt lat="38.304040986259025" lon="16.324159628546376"><ele>19.0</ele><time>2026-03-22T11:43:47Z</time></trkpt><trkpt lat="38.30395141850157" lon="16.324265954766556"><ele>18.599999999999998</ele><time>2026-03-22T11:43:48Z</time></trkpt><trkpt lat="38.30385109936847" lon="16.32436290946714"><ele>18.2</ele><time>2026-03-22T11:43:49Z</time></trkpt><trkpt lat="38.303768905104505" lon="16.324450190404477"><ele>17.799999999999997</ele><time>2026-03-22T11:43:50Z</time></trkpt><trkpt lat="38.303691350186554" lon="16.32453494529076"><ele>17.4</ele><time>2026-03-22T11:43:51Z</time></trkpt><trkpt lat="38.30362223763973" lon="16.324609477413777"><ele>17.0</ele><time>2026-03-22T11:43:52Z</time></trkpt><trkpt lat="38.30356712634165" lon="16.3246674039499"><ele>17.0</ele><time>2026-03-22T11:43:53Z</time></trkpt><trkpt lat="38.30351789364705" lon="16.32472592255888"><ele>17.0</ele><time>2026-03-22T11:43:54Z</time></trkpt><trkpt lat="38.30345640660363" lon="16.32478021189654"><ele>17.0</ele><time>2026-03-22T11:43:55Z</time></trkpt><trkpt lat="38.303395357407396" lon="16.32483608103066"><ele>17.0</ele><time>2026-03-22T11:43:56Z</time></trkpt><trkpt lat="38.30332725012101" lon="16.32489335721054"><ele>17.0</ele><time>2026-03-22T11:43:57Z</time></trkpt><trkpt lat="38.30324417385618" lon="16.324958426984324"><ele>17.0</ele><time>2026-03-22T11:43:58Z</time></trkpt><trkpt lat="38.30314882743869" lon="16.32505480656797"><ele>18.333333333333336</ele><time>2026-03-22T11:43:59Z</time></trkpt><trkpt lat="38.303040951782435" lon="16.325182619944734"><ele>19.666666666666668</ele><time>2026-03-22T11:44:00Z</time></trkpt><trkpt lat="38.302887491460545" lon="16.325330946294194"><ele>21.0</ele><time>2026-03-22T11:44:01Z</time></trkpt><trkpt lat="38.30269794035152" lon="16.32548600284982"><ele>21.0</ele><time>2026-03-22T11:44:02Z</time></trkpt><trkpt lat="38.302498250807396" lon="16.325678351374854"><ele>21.0</ele><time>2026-03-22T11:44:03Z</time></trkpt><trkpt lat="38.302292455820236" lon="16.325885774982645"><ele>19.5</ele><time>2026-03-22T11:44:04Z</time></trkpt><trkpt lat="38.302116085518584" lon="16.32609194522558"><ele>18.0</ele><time>2026-03-22T11:44:05Z</time></trkpt><trkpt lat="38.301988527504" lon="16.326306254467763"><ele>17.666666666666668</ele><time>2026-03-22T11:44:06Z</time></trkpt><trkpt lat="38.301836680911656" lon="16.326493554146165"><ele>17.333333333333336</ele><time>2026-03-22T11:44:07Z</time></trkpt><trkpt lat="38.3016999787322" lon="16.326659704227655"><ele>17.0</ele><time>2026-03-22T11:44:08Z</time></trkpt><trkpt lat="38.301554922500216" lon="16.326807721101254"><ele>17.0</ele><time>2026-03-22T11:44:09Z</time></trkpt><trkpt lat="38.30143375914476" lon="16.326958525656895"><ele>17.0</ele><time>2026-03-22T11:44:10Z</time></trkpt><trkpt lat="38.301316058021804" lon="16.327092740701683"><ele>17.0</ele><time>2026-03-22T11:44:11Z</time></trkpt><trkpt lat="38.30120300655374" lon="16.327236153161685"><ele>15.75</ele><time>2026-03-22T11:44:12Z</time></trkpt><trkpt lat="38.30109559808056" lon="16.32735742271633"><ele>14.5</ele><time>2026-03-22T11:44:13Z</time></trkpt><trkpt lat="38.300998968860334" lon="16.327466009628594"><ele>13.25</ele><time>2026-03-22T11:44:14Z</time></trkpt><trkpt lat="38.30090583688123" lon="16.327574340603448"><ele>12.0</ele><time>2026-03-22T11:44:15Z</time></trkpt><trkpt lat="38.30081331031506" lon="16.327678210848088"><ele>12.0</ele><time>2026-03-22T11:44:16Z</time></trkpt><trkpt lat="38.300735589815304" lon="16.327774294294063"><ele>12.0</ele><time>2026-03-22T11:44:17Z</time></trkpt><trkpt lat="38.30066022597004" lon="16.327851744803088"><ele>12.0</ele><time>2026-03-22T11:44:18Z</time></trkpt><trkpt lat="38.30058933933057" lon="16.3279295454056"><ele>12.0</ele><time>2026-03-22T11:44:19Z</time></trkpt><trkpt lat="38.300524893223155" lon="16.32799871038887"><ele>12.0</ele><time>2026-03-22T11:44:20Z</time></trkpt><trkpt lat="38.30048077965967" lon="16.32805611337851"><ele>12.0</ele><time>2026-03-22T11:44:21Z</time></trkpt><trkpt lat="38.30042922907848" lon="16.328116171688066"><ele>12.0</ele><time>2026-03-22T11:44:22Z</time></trkpt><trkpt lat="38.30037911169812" lon="16.328170689222894"><ele>12.0</ele><time>2026-03-22T11:44:23Z</time></trkpt><trkpt lat="38.30029958156778" lon="16.32825969256279"><ele>12.0</ele><time>2026-03-22T11:44:25Z</time></trkpt><trkpt lat="38.30024260016382" lon="16.32830126171063"><ele>12.0</ele><time>2026-03-22T11:44:26Z</time></trkpt><trkpt lat="38.30016740457258" lon="16.328397416290702"><ele>12.0</ele><time>2026-03-22T11:44:28Z</time></trkpt><trkpt lat="38.300092105465886" lon="16.328479943137904"><ele>12.0</ele><time>2026-03-22T11:44:30Z</time></trkpt><trkpt lat="38.30004413905765" lon="16.328533378490842"><ele>12.0</ele><time>2026-03-22T11:44:34Z</time></trkpt><trkpt lat="38.29999302713397" lon="16.328614956039342"><ele>12.0</ele><time>2026-03-22T11:44:37Z</time></trkpt><trkpt lat="38.29994051102279" lon="16.328682909098443"><ele>12.0</ele><time>2026-03-22T11:44:40Z</time></trkpt><trkpt lat="38.299881036019556" lon="16.328731523946626"><ele>12.0</ele><time>2026-03-22T11:45:25Z</time></trkpt><trkpt lat="38.29982565674469" lon="16.328795566346137"><ele>12.0</ele><time>2026-03-22T11:45:27Z</time></trkpt><trkpt lat="38.29980102765385" lon="16.328708948893127"><ele>12.0</ele><time>2026-03-22T11:45:30Z</time></trkpt><trkpt lat="38.29973798714433" lon="16.328647853821817"><ele>12.0</ele><time>2026-03-22T11:47:26Z</time></trkpt><trkpt lat="38.29978865574901" lon="16.3287056889537"><ele>12.0</ele><time>2026-03-22T11:47:43Z</time></trkpt><trkpt lat="38.29974208879347" lon="16.328643365050326"><ele>12.0</ele><time>2026-03-22T11:51:57.001Z</time></trkpt><trkpt lat="38.29989401100156" lon="16.3284974863112"><ele>12.0</ele><time>2026-03-22T11:53:08.417Z</time></trkpt><trkpt lat="38.29990232955437" lon="16.32837073864005"><ele>12.0</ele><time>2026-03-22T11:53:58.913Z</time></trkpt><trkpt lat="38.299854513679435" lon="16.328266268114376"><ele>12.0</ele><time>2026-03-22T11:54:07.943Z</time></trkpt><trkpt lat="38.29986590788051" lon="16.328526151303397"><ele>12.0</ele><time>2026-03-22T11:54:23.392Z</time></trkpt><trkpt lat="38.299767527957876" lon="16.328597962556316"><ele>12.0</ele><time>2026-03-22T11:54:47.389Z</time></trkpt><trkpt lat="38.299592378990845" lon="16.32859351713789"><ele>12.0</ele><time>2026-03-22T11:54:53.001Z</time></trkpt><trkpt lat="38.29975408838976" lon="16.328593141016484"><ele>12.0</ele><time>2026-03-22T11:55:22.001Z</time></trkpt><trkpt lat="38.29977131902856" lon="16.328674589884706"><ele>12.0</ele><time>2026-03-22T11:59:21Z</time></trkpt><trkpt lat="38.299824537594546" lon="16.328727508362064"><ele>12.0</ele><time>2026-03-22T11:59:29Z</time></trkpt><trkpt lat="38.29984981214898" lon="16.328814400582704"><ele>12.0</ele><time>2026-03-22T11:59:43Z</time></trkpt><trkpt lat="38.29981441250827" lon="16.32872907145891"><ele>12.0</ele><time>2026-03-22T12:04:12Z</time></trkpt><trkpt lat="38.29975050009555" lon="16.328682475889146"><ele>11.8</ele><time>2026-03-22T12:04:49Z</time></trkpt><trkpt lat="38.29967667890129" lon="16.328578485118385"><ele>11.6</ele><time>2026-03-22T12:04:52Z</time></trkpt><trkpt lat="38.29960373484164" lon="16.328444111043346"><ele>11.4</ele><time>2026-03-22T12:04:54Z</time></trkpt><trkpt lat="38.29954662441371" lon="16.32833824051982"><ele>11.200000000000001</ele><time>2026-03-22T12:04:56Z</time></trkpt><trkpt lat="38.29950578999196" lon="16.328274797450227"><ele>11.0</ele><time>2026-03-22T12:04:58Z</time></trkpt><trkpt lat="38.29945058950981" lon="16.328178527052465"><ele>11.600000000000001</ele><time>2026-03-22T12:05:00Z</time></trkpt><trkpt lat="38.299392451775745" lon="16.328059080665966"><ele>12.2</ele><time>2026-03-22T12:05:02Z</time></trkpt><trkpt lat="38.2993181235188" lon="16.327934874296126"><ele>12.799999999999999</ele><time>2026-03-22T12:05:04Z</time></trkpt><trkpt lat="38.29927153264604" lon="16.327839208552916"><ele>13.399999999999999</ele><time>2026-03-22T12:05:05Z</time></trkpt><trkpt lat="38.29921623928447" lon="16.327728857469527"><ele>14.0</ele><time>2026-03-22T12:05:07Z</time></trkpt><trkpt lat="38.29917824476549" lon="16.32766246070527"><ele>14.000000000000002</ele><time>2026-03-22T12:05:08Z</time></trkpt><trkpt lat="38.299141899984185" lon="16.32758916895567"><ele>14.0</ele><time>2026-03-22T12:05:09Z</time></trkpt><trkpt lat="38.299103022872444" lon="16.32751709102152"><ele>14.0</ele><time>2026-03-22T12:05:10Z</time></trkpt><trkpt lat="38.2990704771741" lon="16.32742210789941"><ele>14.0</ele><time>2026-03-22T12:05:11Z</time></trkpt><trkpt lat="38.299024165803324" lon="16.32732370857911"><ele>14.000000000000002</ele><time>2026-03-22T12:05:12Z</time></trkpt><trkpt lat="38.2989611696286" lon="16.327248132543144"><ele>14.0</ele><time>2026-03-22T12:05:13Z</time></trkpt><trkpt lat="38.29891224624155" lon="16.327168288603616"><ele>14.0</ele><time>2026-03-22T12:05:14Z</time></trkpt><trkpt lat="38.29886127777203" lon="16.32709231003997"><ele>13.999999999999998</ele><time>2026-03-22T12:05:15Z</time></trkpt><trkpt lat="38.298816679659026" lon="16.327007993031007"><ele>13.999999999999998</ele><time>2026-03-22T12:05:16Z</time></trkpt><trkpt lat="38.298757079541545" lon="16.326895418378804"><ele>14.0</ele><time>2026-03-22T12:05:17Z</time></trkpt><trkpt lat="38.298685174376125" lon="16.326763386089063"><ele>14.0</ele><time>2026-03-22T12:05:18Z</time></trkpt><trkpt lat="38.29862474240329" lon="16.326626324715285"><ele>14.0</ele><time>2026-03-22T12:05:19Z</time></trkpt><trkpt lat="38.298537183944234" lon="16.326477264664554"><ele>14.0</ele><time>2026-03-22T12:05:20Z</time></trkpt><trkpt lat="38.298436887938834" lon="16.326303609346546"><ele>14.0</ele><time>2026-03-22T12:05:21Z</time></trkpt><trkpt lat="38.29833190505201" lon="16.3261280765799"><ele>13.666666666666668</ele><time>2026-03-22T12:05:22Z</time></trkpt><trkpt lat="38.29823231765189" lon="16.325936704610783"><ele>13.333333333333332</ele><time>2026-03-22T12:05:23Z</time></trkpt><trkpt lat="38.29813052036431" lon="16.32573693355469"><ele>13.0</ele><time>2026-03-22T12:05:24Z</time></trkpt><trkpt lat="38.29801850453876" lon="16.325547133612464"><ele>12.0</ele><time>2026-03-22T12:05:25Z</time></trkpt><trkpt lat="38.297895001172996" lon="16.325365588746926"><ele>11.0</ele><time>2026-03-22T12:05:26Z</time></trkpt><trkpt lat="38.29775936653322" lon="16.32518385035202"><ele>10.0</ele><time>2026-03-22T12:05:27Z</time></trkpt><trkpt lat="38.29761027491246" lon="16.325015347485024"><ele>10.0</ele><time>2026-03-22T12:05:28Z</time></trkpt><trkpt lat="38.29745343038659" lon="16.324835947551342"><ele>10.0</ele><time>2026-03-22T12:05:29Z</time></trkpt><trkpt lat="38.29729768070633" lon="16.324658731336577"><ele>10.0</ele><time>2026-03-22T12:05:30Z</time></trkpt><trkpt lat="38.29713883804678" lon="16.324487352168006"><ele>9.333333333333334</ele><time>2026-03-22T12:05:31Z</time></trkpt><trkpt lat="38.296973231560685" lon="16.3243114139775"><ele>8.666666666666666</ele><time>2026-03-22T12:05:32Z</time></trkpt><trkpt lat="38.296809888190815" lon="16.324133917607888"><ele>8.0</ele><time>2026-03-22T12:05:33Z</time></trkpt><trkpt lat="38.29664613835077" lon="16.323951199168334"><ele>7.666666666666666</ele><time>2026-03-22T12:05:34Z</time></trkpt><trkpt lat="38.29648402292381" lon="16.323770220950298"><ele>7.333333333333334</ele><time>2026-03-22T12:05:35Z</time></trkpt><trkpt lat="38.2963160949994" lon="16.32358379617205"><ele>7.0</ele><time>2026-03-22T12:05:36Z</time></trkpt><trkpt lat="38.29615420265676" lon="16.32339593352075"><ele>7.0</ele><time>2026-03-22T12:05:37Z</time></trkpt><trkpt lat="38.29599053414956" lon="16.323211937514998"><ele>7.0</ele><time>2026-03-22T12:05:38Z</time></trkpt><trkpt lat="38.29580912915926" lon="16.323011781412227"><ele>7.0</ele><time>2026-03-22T12:05:39Z</time></trkpt><trkpt lat="38.29562964144969" lon="16.322825015199836"><ele>7.0</ele><time>2026-03-22T12:05:40Z</time></trkpt><trkpt lat="38.29545054063051" lon="16.322640294720124"><ele>8.5</ele><time>2026-03-22T12:05:41Z</time></trkpt><trkpt lat="38.29527659960949" lon="16.322461393715216"><ele>10.0</ele><time>2026-03-22T12:05:42Z</time></trkpt><trkpt lat="38.29510382265977" lon="16.322268300986266"><ele>9.5</ele><time>2026-03-22T12:05:43Z</time></trkpt><trkpt lat="38.29492802233478" lon="16.32206693715403"><ele>9.0</ele><time>2026-03-22T12:05:44Z</time></trkpt><trkpt lat="38.29473858370221" lon="16.321879208958826"><ele>9.0</ele><time>2026-03-22T12:05:45Z</time></trkpt><trkpt lat="38.29453829458026" lon="16.32170876442506"><ele>9.0</ele><time>2026-03-22T12:05:46Z</time></trkpt><trkpt lat="38.29434160829911" lon="16.321550541886364"><ele>9.0</ele><time>2026-03-22T12:05:47Z</time></trkpt><trkpt lat="38.29414985782842" lon="16.321404233128803"><ele>9.0</ele><time>2026-03-22T12:05:48Z</time></trkpt><trkpt lat="38.293956523350296" lon="16.321234621994137"><ele>9.5</ele><time>2026-03-22T12:05:49Z</time></trkpt><trkpt lat="38.29376803735612" lon="16.321068681036195"><ele>10.0</ele><time>2026-03-22T12:05:50Z</time></trkpt><trkpt lat="38.29357414051911" lon="16.32089415943412"><ele>10.0</ele><time>2026-03-22T12:05:51Z</time></trkpt><trkpt lat="38.29338510047423" lon="16.32070752833086"><ele>10.0</ele><time>2026-03-22T12:05:52Z</time></trkpt><trkpt lat="38.2931934295814" lon="16.32054881518494"><ele>10.0</ele><time>2026-03-22T12:05:53Z</time></trkpt><trkpt lat="38.29299794278543" lon="16.320382855836666"><ele>10.0</ele><time>2026-03-22T12:05:54Z</time></trkpt><trkpt lat="38.29280576796084" lon="16.320213299838652"><ele>10.0</ele><time>2026-03-22T12:05:55Z</time></trkpt><trkpt lat="38.29261449081353" lon="16.320040805878993"><ele>10.0</ele><time>2026-03-22T12:05:56Z</time></trkpt><trkpt lat="38.2924274412535" lon="16.31987442013915"><ele>9.666666666666668</ele><time>2026-03-22T12:05:57Z</time></trkpt><trkpt lat="38.29224039240727" lon="16.319710627120536"><ele>9.333333333333334</ele><time>2026-03-22T12:05:58Z</time></trkpt><trkpt lat="38.2920622694403" lon="16.319546559666026"><ele>9.0</ele><time>2026-03-22T12:05:59Z</time></trkpt><trkpt lat="38.291882008366116" lon="16.31938738598906"><ele>9.0</ele><time>2026-03-22T12:06:00Z</time></trkpt><trkpt lat="38.291707678688425" lon="16.319229745946227"><ele>9.0</ele><time>2026-03-22T12:06:01Z</time></trkpt><trkpt lat="38.29152745995232" lon="16.319065643721117"><ele>9.0</ele><time>2026-03-22T12:06:02Z</time></trkpt><trkpt lat="38.29135060617431" lon="16.318905174583268"><ele>8.333333333333334</ele><time>2026-03-22T12:06:03Z</time></trkpt><trkpt lat="38.29117550111483" lon="16.318750049044667"><ele>7.666666666666667</ele><time>2026-03-22T12:06:04Z</time></trkpt><trkpt lat="38.2910227159093" lon="16.318608644960708"><ele>7.0</ele><time>2026-03-22T12:06:05Z</time></trkpt><trkpt lat="38.29086751597808" lon="16.318471187451813"><ele>7.0</ele><time>2026-03-22T12:06:06Z</time></trkpt><trkpt lat="38.2907189112776" lon="16.318336310231153"><ele>7.0</ele><time>2026-03-22T12:06:07Z</time></trkpt><trkpt lat="38.290571669598954" lon="16.318204292637898"><ele>7.0</ele><time>2026-03-22T12:06:08Z</time></trkpt><trkpt lat="38.29043496041335" lon="16.318080123984686"><ele>7.666666666666667</ele><time>2026-03-22T12:06:09Z</time></trkpt><trkpt lat="38.29030679510383" lon="16.31795817005928"><ele>8.333333333333334</ele><time>2026-03-22T12:06:10Z</time></trkpt><trkpt lat="38.2901803662641" lon="16.31783517137919"><ele>9.0</ele><time>2026-03-22T12:06:11Z</time></trkpt><trkpt lat="38.29004404816775" lon="16.317722300281496"><ele>9.0</ele><time>2026-03-22T12:06:12Z</time></trkpt><trkpt lat="38.289911757474215" lon="16.317611401220535"><ele>9.0</ele><time>2026-03-22T12:06:13Z</time></trkpt><trkpt lat="38.2897817438098" lon="16.317498028343014"><ele>9.0</ele><time>2026-03-22T12:06:14Z</time></trkpt><trkpt lat="38.28965696651355" lon="16.317387872640058"><ele>9.0</ele><time>2026-03-22T12:06:15Z</time></trkpt><trkpt lat="38.28954596166748" lon="16.31728492456885"><ele>9.0</ele><time>2026-03-22T12:06:16Z</time></trkpt><trkpt lat="38.28944415585781" lon="16.317189491899814"><ele>9.0</ele><time>2026-03-22T12:06:17Z</time></trkpt><trkpt lat="38.28934256548059" lon="16.31709994760545"><ele>9.0</ele><time>2026-03-22T12:06:18Z</time></trkpt><trkpt lat="38.28925112404467" lon="16.31700771624382"><ele>8.75</ele><time>2026-03-22T12:06:19Z</time></trkpt><trkpt lat="38.28915366888644" lon="16.316908738438027"><ele>8.5</ele><time>2026-03-22T12:06:20Z</time></trkpt><trkpt lat="38.28905059975468" lon="16.316815087468818"><ele>8.25</ele><time>2026-03-22T12:06:21Z</time></trkpt><trkpt lat="38.28897949095508" lon="16.316714353599554"><ele>8.0</ele><time>2026-03-22T12:06:22Z</time></trkpt><trkpt lat="38.28888748605522" lon="16.316636765309703"><ele>8.4</ele><time>2026-03-22T12:06:23Z</time></trkpt><trkpt lat="38.288792516152874" lon="16.31656335917966"><ele>8.8</ele><time>2026-03-22T12:06:24Z</time></trkpt><trkpt lat="38.28869879121107" lon="16.31648775711371"><ele>9.2</ele><time>2026-03-22T12:06:25Z</time></trkpt><trkpt lat="38.288620441043534" lon="16.31642306902164"><ele>9.6</ele><time>2026-03-22T12:06:26Z</time></trkpt><trkpt lat="38.288555881977445" lon="16.316370367946803"><ele>10.0</ele><time>2026-03-22T12:06:27Z</time></trkpt><trkpt lat="38.28850146981665" lon="16.31632677393667"><ele>10.0</ele><time>2026-03-22T12:06:28Z</time></trkpt><trkpt lat="38.28842847837096" lon="16.316257078686817"><ele>10.0</ele><time>2026-03-22T12:06:30Z</time></trkpt><trkpt lat="38.28832185712081" lon="16.316207532692772"><ele>10.0</ele><time>2026-03-22T12:06:57Z</time></trkpt><trkpt lat="38.28825554996282" lon="16.31616430830108"><ele>10.0</ele><time>2026-03-22T12:06:57.999Z</time></trkpt><trkpt lat="38.288148688655134" lon="16.316082862425286"><ele>10.0</ele><time>2026-03-22T12:06:58.999Z</time></trkpt><trkpt lat="38.28802312791057" lon="16.31598950112918"><ele>9.0</ele><time>2026-03-22T12:06:59.999Z</time></trkpt><trkpt lat="38.2878489288221" lon="16.315868344400947"><ele>8.0</ele><time>2026-03-22T12:07:00.999Z</time></trkpt><trkpt lat="38.287650946426794" lon="16.31572877570122"><ele>7.0</ele><time>2026-03-22T12:07:01.999Z</time></trkpt><trkpt lat="38.28743696350042" lon="16.315586817893227"><ele>7.5</ele><time>2026-03-22T12:07:02.999Z</time></trkpt><trkpt lat="38.28723777624683" lon="16.315428333877612"><ele>8.0</ele><time>2026-03-22T12:07:03.999Z</time></trkpt><trkpt lat="38.28700288173053" lon="16.315248330406575"><ele>8.0</ele><time>2026-03-22T12:07:04.999Z</time></trkpt><trkpt lat="38.28679884048246" lon="16.315088366949073"><ele>8.0</ele><time>2026-03-22T12:07:05.999Z</time></trkpt><trkpt lat="38.28660646815206" lon="16.314924334751083"><ele>6.5</ele><time>2026-03-22T12:07:06.999Z</time></trkpt><trkpt lat="38.28642197106226" lon="16.314771396499584"><ele>5.0</ele><time>2026-03-22T12:07:07.999Z</time></trkpt><trkpt lat="38.28623189399214" lon="16.31460525754126"><ele>5.0</ele><time>2026-03-22T12:07:08.999Z</time></trkpt><trkpt lat="38.28603460126251" lon="16.31443966165014"><ele>5.0</ele><time>2026-03-22T12:07:09.999Z</time></trkpt><trkpt lat="38.28581454360773" lon="16.314247987315905"><ele>5.0</ele><time>2026-03-22T12:07:10.999Z</time></trkpt><trkpt lat="38.2855987231784" lon="16.314045868245124"><ele>5.0</ele><time>2026-03-22T12:07:11.999Z</time></trkpt><trkpt lat="38.28538624340392" lon="16.31386235554283"><ele>7.0</ele><time>2026-03-22T12:07:12.999Z</time></trkpt><trkpt lat="38.285168765058685" lon="16.313659601104934"><ele>9.0</ele><time>2026-03-22T12:07:13.999Z</time></trkpt><trkpt lat="38.284997934707995" lon="16.313494148596533"><ele>9.0</ele><time>2026-03-22T12:07:14.999Z</time></trkpt><trkpt lat="38.284818025467715" lon="16.313362241872095"><ele>9.0</ele><time>2026-03-22T12:07:15.999Z</time></trkpt><trkpt lat="38.284328270011464" lon="16.31310263118948"><ele>7.5</ele><time>2026-03-22T12:07:16.999Z</time></trkpt><trkpt lat="38.28410383455367" lon="16.31293983772612"><ele>6.0</ele><time>2026-03-22T12:07:17.999Z</time></trkpt><trkpt lat="38.28388014919677" lon="16.312782179486234"><ele>6.0</ele><time>2026-03-22T12:07:18.999Z</time></trkpt><trkpt lat="38.28365295306118" lon="16.31262965781208"><ele>6.0</ele><time>2026-03-22T12:07:19.999Z</time></trkpt><trkpt lat="38.28343142546976" lon="16.31247363693325"><ele>6.0</ele><time>2026-03-22T12:07:20.999Z</time></trkpt><trkpt lat="38.28320860537668" lon="16.312315005951167"><ele>6.0</ele><time>2026-03-22T12:07:21.999Z</time></trkpt><trkpt lat="38.28299170799079" lon="16.312158937797072"><ele>6.0</ele><time>2026-03-22T12:07:22.999Z</time></trkpt><trkpt lat="38.28277709223714" lon="16.31200455781509"><ele>6.0</ele><time>2026-03-22T12:07:24Z</time></trkpt><trkpt lat="38.282578973990965" lon="16.31186337560072"><ele>6.0</ele><time>2026-03-22T12:07:25Z</time></trkpt><trkpt lat="38.282384938403226" lon="16.311731017408007"><ele>6.0</ele><time>2026-03-22T12:07:26Z</time></trkpt><trkpt lat="38.2822144773227" lon="16.311600658598405"><ele>6.0</ele><time>2026-03-22T12:07:27Z</time></trkpt><trkpt lat="38.28205020574676" lon="16.31147757797054"><ele>6.666666666666666</ele><time>2026-03-22T12:07:28Z</time></trkpt><trkpt lat="38.28189724772659" lon="16.31135961148693"><ele>7.333333333333333</ele><time>2026-03-22T12:07:29Z</time></trkpt><trkpt lat="38.28174088960167" lon="16.311245540275245"><ele>8.0</ele><time>2026-03-22T12:07:30Z</time></trkpt><trkpt lat="38.281600728861825" lon="16.311140005844052"><ele>8.0</ele><time>2026-03-22T12:07:31Z</time></trkpt><trkpt lat="38.28146474109899" lon="16.31103476719184"><ele>8.0</ele><time>2026-03-22T12:07:32Z</time></trkpt><trkpt lat="38.281349436509245" lon="16.310935334692637"><ele>8.0</ele><time>2026-03-22T12:07:33Z</time></trkpt><trkpt lat="38.28123376323061" lon="16.310847721654806"><ele>8.0</ele><time>2026-03-22T12:07:34Z</time></trkpt><trkpt lat="38.28114203634442" lon="16.310759447010838"><ele>7.75</ele><time>2026-03-22T12:07:35Z</time></trkpt><trkpt lat="38.28102179457406" lon="16.310668250371766"><ele>7.5</ele><time>2026-03-22T12:07:36Z</time></trkpt><trkpt lat="38.28090743909643" lon="16.310570742220015"><ele>7.25</ele><time>2026-03-22T12:07:37Z</time></trkpt><trkpt lat="38.280775503583484" lon="16.310462564223208"><ele>7.0</ele><time>2026-03-22T12:07:38Z</time></trkpt><trkpt lat="38.28061793876053" lon="16.31034346220836"><ele>7.666666666666667</ele><time>2026-03-22T12:07:39Z</time></trkpt><trkpt lat="38.28045041715738" lon="16.310215096495796"><ele>8.333333333333334</ele><time>2026-03-22T12:07:40Z</time></trkpt><trkpt lat="38.280265520692176" lon="16.3100743712853"><ele>9.0</ele><time>2026-03-22T12:07:41Z</time></trkpt><trkpt lat="38.28007746827017" lon="16.309932267049778"><ele>9.0</ele><time>2026-03-22T12:07:42Z</time></trkpt><trkpt lat="38.279879869274545" lon="16.309788252926413"><ele>9.0</ele><time>2026-03-22T12:07:43Z</time></trkpt><trkpt lat="38.279675642563056" lon="16.3096276470863"><ele>8.0</ele><time>2026-03-22T12:07:44Z</time></trkpt><trkpt lat="38.27947114054349" lon="16.309466394526634"><ele>7.0</ele><time>2026-03-22T12:07:45Z</time></trkpt><trkpt lat="38.27925888743432" lon="16.30931099372761"><ele>7.0</ele><time>2026-03-22T12:07:46Z</time></trkpt><trkpt lat="38.27905321356491" lon="16.309151446195237"><ele>7.0</ele><time>2026-03-22T12:07:47Z</time></trkpt><trkpt lat="38.27885897957973" lon="16.309002946386222"><ele>7.0</ele><time>2026-03-22T12:07:48Z</time></trkpt><trkpt lat="38.27866541686058" lon="16.308859970652794"><ele>7.0</ele><time>2026-03-22T12:07:49Z</time></trkpt><trkpt lat="38.27845433777534" lon="16.308738559171672"><ele>7.0</ele><time>2026-03-22T12:07:50Z</time></trkpt><trkpt lat="38.278245636271656" lon="16.30862362298589"><ele>7.0</ele><time>2026-03-22T12:07:51Z</time></trkpt><trkpt lat="38.278033882023756" lon="16.308510963487052"><ele>7.0</ele><time>2026-03-22T12:07:52Z</time></trkpt><trkpt lat="38.27782121029614" lon="16.308397077183724"><ele>7.0</ele><time>2026-03-22T12:07:53Z</time></trkpt><trkpt lat="38.27760742939438" lon="16.30826910289588"><ele>7.0</ele><time>2026-03-22T12:07:54Z</time></trkpt><trkpt lat="38.2773905590783" lon="16.308110502334664"><ele>7.0</ele><time>2026-03-22T12:07:55Z</time></trkpt><trkpt lat="38.27718183291838" lon="16.30790974556281"><ele>6.0</ele><time>2026-03-22T12:07:56Z</time></trkpt><trkpt lat="38.27695856278798" lon="16.30768683203369"><ele>5.0</ele><time>2026-03-22T12:07:57Z</time></trkpt><trkpt lat="38.27672751983376" lon="16.30746144621091"><ele>5.0</ele><time>2026-03-22T12:07:58Z</time></trkpt><trkpt lat="38.27651154727826" lon="16.30725058502984"><ele>5.0</ele><time>2026-03-22T12:07:59Z</time></trkpt><trkpt lat="38.27628561924895" lon="16.307033164818815"><ele>6.5</ele><time>2026-03-22T12:08:00Z</time></trkpt><trkpt lat="38.27605199775836" lon="16.306803031901463"><ele>8.0</ele><time>2026-03-22T12:08:01Z</time></trkpt><trkpt lat="38.27581360362479" lon="16.306570550101704"><ele>7.0</ele><time>2026-03-22T12:08:02Z</time></trkpt><trkpt lat="38.275593319599786" lon="16.306356071213216"><ele>6.0</ele><time>2026-03-22T12:08:03Z</time></trkpt><trkpt lat="38.27539525606934" lon="16.30615727392783"><ele>6.0</ele><time>2026-03-22T12:08:04Z</time></trkpt><trkpt lat="38.27521625227977" lon="16.305966865560627"><ele>6.0</ele><time>2026-03-22T12:08:05Z</time></trkpt><trkpt lat="38.2750475640516" lon="16.305798012355034"><ele>6.0</ele><time>2026-03-22T12:08:06Z</time></trkpt><trkpt lat="38.27489671915942" lon="16.30564706582108"><ele>6.333333333333334</ele><time>2026-03-22T12:08:07Z</time></trkpt><trkpt lat="38.274763701788395" lon="16.305511636212863"><ele>6.666666666666667</ele><time>2026-03-22T12:08:08Z</time></trkpt><trkpt lat="38.274645206319455" lon="16.30538865794427"><ele>7.0</ele><time>2026-03-22T12:08:09Z</time></trkpt><trkpt lat="38.2745422709237" lon="16.305282006599644"><ele>7.0</ele><time>2026-03-22T12:08:10Z</time></trkpt><trkpt lat="38.27445413094249" lon="16.305190698915258"><ele>6.999999999999999</ele><time>2026-03-22T12:08:11Z</time></trkpt><trkpt lat="38.27436909539075" lon="16.305098936636334"><ele>6.999999999999999</ele><time>2026-03-22T12:08:12Z</time></trkpt><trkpt lat="38.274315376965625" lon="16.30501621741563"><ele>7.0</ele><time>2026-03-22T12:08:13Z</time></trkpt><trkpt lat="38.27435773337436" lon="16.304879250029867"><ele>7.0</ele><time>2026-03-22T12:08:15Z</time></trkpt><trkpt lat="38.27442989757112" lon="16.304836965786716"><ele>7.0</ele><time>2026-03-22T12:08:16Z</time></trkpt><trkpt lat="38.27451961426036" lon="16.304753932592156"><ele>7.0</ele><time>2026-03-22T12:08:17Z</time></trkpt><trkpt lat="38.2746246857516" lon="16.304623814099163"><ele>7.0</ele><time>2026-03-22T12:08:18Z</time></trkpt><trkpt lat="38.27473287337865" lon="16.304476619231046"><ele>7.0</ele><time>2026-03-22T12:08:19Z</time></trkpt><trkpt lat="38.27484627986769" lon="16.304326045786613"><ele>7.25</ele><time>2026-03-22T12:08:20Z</time></trkpt><trkpt lat="38.27494982002383" lon="16.304184356277386"><ele>7.5</ele><time>2026-03-22T12:08:21Z</time></trkpt><trkpt lat="38.27504970488161" lon="16.30406255979978"><ele>7.75</ele><time>2026-03-22T12:08:22Z</time></trkpt><trkpt lat="38.275147799697194" lon="16.303971646497317"><ele>8.0</ele><time>2026-03-22T12:08:23Z</time></trkpt><trkpt lat="38.275198821579124" lon="16.303892715026873"><ele>8.25</ele><time>2026-03-22T12:08:24Z</time></trkpt><trkpt lat="38.27520647816502" lon="16.303810892802655"><ele>8.5</ele><time>2026-03-22T12:08:25Z</time></trkpt><trkpt lat="38.275088287769165" lon="16.303621155928912"><ele>8.75</ele><time>2026-03-22T12:08:27Z</time></trkpt><trkpt lat="38.274993966399485" lon="16.303529037349286"><ele>9.0</ele><time>2026-03-22T12:08:28Z</time></trkpt><trkpt lat="38.27485468015271" lon="16.303389087803968"><ele>8.666666666666666</ele><time>2026-03-22T12:08:29Z</time></trkpt><trkpt lat="38.274727751804825" lon="16.303228192456995"><ele>8.333333333333332</ele><time>2026-03-22T12:08:30Z</time></trkpt><trkpt lat="38.27458449221907" lon="16.30305688800374"><ele>8.0</ele><time>2026-03-22T12:08:31Z</time></trkpt><trkpt lat="38.27443821418656" lon="16.302891605870144"><ele>7.666666666666666</ele><time>2026-03-22T12:08:32Z</time></trkpt><trkpt lat="38.274302087233806" lon="16.302740429615096"><ele>7.333333333333334</ele><time>2026-03-22T12:08:33Z</time></trkpt><trkpt lat="38.27417639197745" lon="16.30259004398647"><ele>7.0</ele><time>2026-03-22T12:08:34Z</time></trkpt><trkpt lat="38.27406195389637" lon="16.302460376047865"><ele>7.0</ele><time>2026-03-22T12:08:35Z</time></trkpt><trkpt lat="38.273940563836206" lon="16.302310016545714"><ele>7.0</ele><time>2026-03-22T12:08:36Z</time></trkpt><trkpt lat="38.27381036426614" lon="16.30216449943636"><ele>7.0</ele><time>2026-03-22T12:08:37Z</time></trkpt><trkpt lat="38.27368552592793" lon="16.30200640173284"><ele>7.333333333333334</ele><time>2026-03-22T12:08:38Z</time></trkpt><trkpt lat="38.27355712692119" lon="16.301835616863148"><ele>7.666666666666666</ele><time>2026-03-22T12:08:39Z</time></trkpt><trkpt lat="38.27341737794974" lon="16.30165647324916"><ele>8.0</ele><time>2026-03-22T12:08:40Z</time></trkpt><trkpt lat="38.27327379066155" lon="16.301482495823723"><ele>8.333333333333332</ele><time>2026-03-22T12:08:41Z</time></trkpt><trkpt lat="38.27313910417904" lon="16.301307973665015"><ele>8.666666666666666</ele><time>2026-03-22T12:08:42Z</time></trkpt><trkpt lat="38.27300731710543" lon="16.301155181457876"><ele>9.0</ele><time>2026-03-22T12:08:43Z</time></trkpt><trkpt lat="38.272883750836165" lon="16.301013812499043"><ele>9.0</ele><time>2026-03-22T12:08:44Z</time></trkpt><trkpt lat="38.27276977295023" lon="16.30087829771475"><ele>9.0</ele><time>2026-03-22T12:08:45Z</time></trkpt><trkpt lat="38.272666662935556" lon="16.30075545372548"><ele>9.0</ele><time>2026-03-22T12:08:46Z</time></trkpt><trkpt lat="38.27257764169448" lon="16.300648838902855"><ele>9.0</ele><time>2026-03-22T12:08:47Z</time></trkpt><trkpt lat="38.27250299656288" lon="16.30056132175012"><ele>9.666666666666666</ele><time>2026-03-22T12:08:48Z</time></trkpt><trkpt lat="38.272441588286256" lon="16.300489181603588"><ele>10.333333333333332</ele><time>2026-03-22T12:08:49Z</time></trkpt><trkpt lat="38.2723925448779" lon="16.300425782726826"><ele>11.0</ele><time>2026-03-22T12:08:50Z</time></trkpt><trkpt lat="38.272331789245044" lon="16.30033352603718"><ele>11.666666666666666</ele><time>2026-03-22T12:08:52Z</time></trkpt><trkpt lat="38.27225934295016" lon="16.30024345742561"><ele>12.333333333333332</ele><time>2026-03-22T12:09:03.999Z</time></trkpt><trkpt lat="38.27218890302542" lon="16.30016217015612"><ele>13.0</ele><time>2026-03-22T12:09:04.999Z</time></trkpt><trkpt lat="38.27209358458344" lon="16.30004707602917"><ele>13.0</ele><time>2026-03-22T12:09:05.999Z</time></trkpt><trkpt lat="38.27196381563401" lon="16.299898077313063"><ele>13.0</ele><time>2026-03-22T12:09:06.999Z</time></trkpt><trkpt lat="38.27182266436776" lon="16.29973792722201"><ele>13.0</ele><time>2026-03-22T12:09:07.999Z</time></trkpt><trkpt lat="38.27166213344099" lon="16.29955362079365"><ele>13.0</ele><time>2026-03-22T12:09:08.999Z</time></trkpt><trkpt lat="38.27146354987266" lon="16.299304958788472"><ele>13.0</ele><time>2026-03-22T12:09:09.999Z</time></trkpt><trkpt lat="38.27127546641216" lon="16.299070323454725"><ele>12.666666666666666</ele><time>2026-03-22T12:09:10.999Z</time></trkpt><trkpt lat="38.27112115789464" lon="16.29886481576826"><ele>12.333333333333332</ele><time>2026-03-22T12:09:11.999Z</time></trkpt><trkpt lat="38.270976517935175" lon="16.298683378480277"><ele>12.0</ele><time>2026-03-22T12:09:12.999Z</time></trkpt><trkpt lat="38.27083161801787" lon="16.298510426678195"><ele>12.0</ele><time>2026-03-22T12:09:13.999Z</time></trkpt><trkpt lat="38.27069723090628" lon="16.2983471316291"><ele>12.0</ele><time>2026-03-22T12:09:14.999Z</time></trkpt><trkpt lat="38.27056835829966" lon="16.298199237803004"><ele>12.0</ele><time>2026-03-22T12:09:15.999Z</time></trkpt><trkpt lat="38.270455688160304" lon="16.298062404685247"><ele>11.8</ele><time>2026-03-22T12:09:16.999Z</time></trkpt><trkpt lat="38.2703566341874" lon="16.29793920482855"><ele>11.6</ele><time>2026-03-22T12:09:18Z</time></trkpt><trkpt lat="38.27027803663852" lon="16.297827945176923"><ele>11.4</ele><time>2026-03-22T12:09:19Z</time></trkpt><trkpt lat="38.27020030176424" lon="16.29774214893385"><ele>11.200000000000001</ele><time>2026-03-22T12:09:20Z</time></trkpt><trkpt lat="38.27016036151118" lon="16.297666367004503"><ele>11.0</ele><time>2026-03-22T12:09:21Z</time></trkpt><trkpt lat="38.27008776031372" lon="16.29758512182383"><ele>11.0</ele><time>2026-03-22T12:09:23Z</time></trkpt><trkpt lat="38.269956568003884" lon="16.297461763906416"><ele>11.0</ele><time>2026-03-22T12:09:25Z</time></trkpt><trkpt lat="38.269914218557254" lon="16.297352782959244"><ele>11.0</ele><time>2026-03-22T12:09:26Z</time></trkpt><trkpt lat="38.26977564222502" lon="16.297231520098272"><ele>11.0</ele><time>2026-03-22T12:09:27Z</time></trkpt><trkpt lat="38.2696611704817" lon="16.297093867994978"><ele>11.75</ele><time>2026-03-22T12:09:28Z</time></trkpt><trkpt lat="38.2695462654225" lon="16.296958769974964"><ele>12.5</ele><time>2026-03-22T12:09:29Z</time></trkpt><trkpt lat="38.2694336585961" lon="16.29683984550899"><ele>13.25</ele><time>2026-03-22T12:09:30Z</time></trkpt><trkpt lat="38.26934984202254" lon="16.296732516032026"><ele>14.0</ele><time>2026-03-22T12:09:31Z</time></trkpt><trkpt lat="38.269259438996606" lon="16.29662313417758"><ele>14.0</ele><time>2026-03-22T12:09:32Z</time></trkpt><trkpt lat="38.269169821781965" lon="16.296509640406754"><ele>14.0</ele><time>2026-03-22T12:09:33Z</time></trkpt><trkpt lat="38.26906690247076" lon="16.296381904113698"><ele>14.0</ele><time>2026-03-22T12:09:34Z</time></trkpt><trkpt lat="38.268978795171144" lon="16.29624085074019"><ele>14.0</ele><time>2026-03-22T12:09:35Z</time></trkpt><trkpt lat="38.2688825842986" lon="16.296120146875143"><ele>13.666666666666668</ele><time>2026-03-22T12:09:36Z</time></trkpt><trkpt lat="38.26873970715435" lon="16.29600780360999"><ele>13.333333333333332</ele><time>2026-03-22T12:09:37Z</time></trkpt><trkpt lat="38.26863023550711" lon="16.295883189617054"><ele>13.0</ele><time>2026-03-22T12:09:38Z</time></trkpt><trkpt lat="38.26851381738669" lon="16.29574180939322"><ele>13.0</ele><time>2026-03-22T12:09:39Z</time></trkpt><trkpt lat="38.26839844008672" lon="16.29559438528063"><ele>13.0</ele><time>2026-03-22T12:09:40Z</time></trkpt><trkpt lat="38.26827101002922" lon="16.295442356348907"><ele>13.0</ele><time>2026-03-22T12:09:41Z</time></trkpt><trkpt lat="38.26814372419985" lon="16.295291414366154"><ele>12.666666666666666</ele><time>2026-03-22T12:09:42Z</time></trkpt><trkpt lat="38.26802363076331" lon="16.295153767154993"><ele>12.333333333333332</ele><time>2026-03-22T12:09:43Z</time></trkpt><trkpt lat="38.26791136883122" lon="16.29501196884426"><ele>12.0</ele><time>2026-03-22T12:09:44Z</time></trkpt><trkpt lat="38.26781123394131" lon="16.29487791709985"><ele>12.0</ele><time>2026-03-22T12:09:45Z</time></trkpt><trkpt lat="38.267717928563265" lon="16.294759835186284"><ele>12.0</ele><time>2026-03-22T12:09:46Z</time></trkpt><trkpt lat="38.2676280772918" lon="16.294645049795932"><ele>12.0</ele><time>2026-03-22T12:09:47Z</time></trkpt><trkpt lat="38.267564059346945" lon="16.294550356917362"><ele>12.0</ele><time>2026-03-22T12:09:48Z</time></trkpt><trkpt lat="38.26750233101121" lon="16.294470907305236"><ele>12.0</ele><time>2026-03-22T12:09:49Z</time></trkpt><trkpt lat="38.26745220588656" lon="16.294404071731147"><ele>11.6</ele><time>2026-03-22T12:09:50Z</time></trkpt><trkpt lat="38.26740753715962" lon="16.294345579753212"><ele>11.2</ele><time>2026-03-22T12:09:52Z</time></trkpt><trkpt lat="38.2673192392385" lon="16.2942524764631"><ele>10.8</ele><time>2026-03-22T12:10:04Z</time></trkpt><trkpt lat="38.26725362310649" lon="16.294184871430268"><ele>10.4</ele><time>2026-03-22T12:10:05Z</time></trkpt><trkpt lat="38.26718033035092" lon="16.294099076853968"><ele>10.0</ele><time>2026-03-22T12:10:06Z</time></trkpt><trkpt lat="38.26709702602712" lon="16.294001468284012"><ele>10.25</ele><time>2026-03-22T12:10:07Z</time></trkpt><trkpt lat="38.267003653928526" lon="16.293887451962377"><ele>10.5</ele><time>2026-03-22T12:10:08Z</time></trkpt><trkpt lat="38.26689766249065" lon="16.293760516237676"><ele>10.75</ele><time>2026-03-22T12:10:09Z</time></trkpt><trkpt lat="38.26678561957834" lon="16.29362979949221"><ele>11.0</ele><time>2026-03-22T12:10:10Z</time></trkpt><trkpt lat="38.266665802193536" lon="16.293480169466342"><ele>11.0</ele><time>2026-03-22T12:10:11Z</time></trkpt><trkpt lat="38.266543728664644" lon="16.293329868063864"><ele>11.0</ele><time>2026-03-22T12:10:12Z</time></trkpt><trkpt lat="38.266427137514235" lon="16.29318277487745"><ele>11.0</ele><time>2026-03-22T12:10:13Z</time></trkpt><trkpt lat="38.266302234890475" lon="16.293039866262337"><ele>11.333333333333332</ele><time>2026-03-22T12:10:14Z</time></trkpt><trkpt lat="38.266177498566094" lon="16.292887413620768"><ele>11.666666666666666</ele><time>2026-03-22T12:10:15Z</time></trkpt><trkpt lat="38.266052312800426" lon="16.292737474086113"><ele>12.0</ele><time>2026-03-22T12:10:16Z</time></trkpt><trkpt lat="38.26592632964822" lon="16.292592575253124"><ele>12.0</ele><time>2026-03-22T12:10:17Z</time></trkpt><trkpt lat="38.265803304288625" lon="16.292446913572505"><ele>12.0</ele><time>2026-03-22T12:10:18Z</time></trkpt><trkpt lat="38.26568300943216" lon="16.292304866742516"><ele>12.0</ele><time>2026-03-22T12:10:19Z</time></trkpt><trkpt lat="38.26556506838855" lon="16.29215015708301"><ele>11.0</ele><time>2026-03-22T12:10:20Z</time></trkpt><trkpt lat="38.26544738208308" lon="16.2920151708944"><ele>10.0</ele><time>2026-03-22T12:10:21Z</time></trkpt><trkpt lat="38.265328153204074" lon="16.29187258680364"><ele>9.0</ele><time>2026-03-22T12:10:22Z</time></trkpt><trkpt lat="38.265209821595256" lon="16.291727890675325"><ele>9.0</ele><time>2026-03-22T12:10:23Z</time></trkpt><trkpt lat="38.265093325122606" lon="16.2915871336736"><ele>9.0</ele><time>2026-03-22T12:10:24Z</time></trkpt><trkpt lat="38.26498409172243" lon="16.291466913800118"><ele>9.0</ele><time>2026-03-22T12:10:25Z</time></trkpt><trkpt lat="38.26488444144681" lon="16.291354958939603"><ele>9.0</ele><time>2026-03-22T12:10:26Z</time></trkpt><trkpt lat="38.26480421344586" lon="16.29126068759378"><ele>9.166666666666666</ele><time>2026-03-22T12:10:27Z</time></trkpt><trkpt lat="38.2647350218494" lon="16.291171148828383"><ele>9.333333333333334</ele><time>2026-03-22T12:10:28Z</time></trkpt><trkpt lat="38.26468284315884" lon="16.291112129842215"><ele>9.5</ele><time>2026-03-22T12:10:29Z</time></trkpt><trkpt lat="38.2646279203715" lon="16.291046484388225"><ele>9.666666666666668</ele><time>2026-03-22T12:10:31Z</time></trkpt><trkpt lat="38.26458177939363" lon="16.290982367449992"><ele>9.833333333333334</ele><time>2026-03-22T12:10:34Z</time></trkpt><trkpt lat="38.264512211715264" lon="16.290901879638128"><ele>10.0</ele><time>2026-03-22T12:10:40Z</time></trkpt><trkpt lat="38.264436246445456" lon="16.290816622764133"><ele>10.0</ele><time>2026-03-22T12:10:41Z</time></trkpt><trkpt lat="38.26434682927139" lon="16.290710378658833"><ele>10.0</ele><time>2026-03-22T12:10:42Z</time></trkpt><trkpt lat="38.26424647982493" lon="16.290581093964814"><ele>10.0</ele><time>2026-03-22T12:10:43Z</time></trkpt><trkpt lat="38.26414205895374" lon="16.290458527670065"><ele>10.0</ele><time>2026-03-22T12:10:44Z</time></trkpt><trkpt lat="38.26402649790754" lon="16.290322024488944"><ele>10.333333333333334</ele><time>2026-03-22T12:10:45Z</time></trkpt><trkpt lat="38.26390506038784" lon="16.29017350656581"><ele>10.666666666666666</ele><time>2026-03-22T12:10:46Z</time></trkpt><trkpt lat="38.26377689984737" lon="16.290031064596533"><ele>11.0</ele><time>2026-03-22T12:10:47Z</time></trkpt><trkpt lat="38.26364586752915" lon="16.289869101194416"><ele>10.666666666666666</ele><time>2026-03-22T12:10:48Z</time></trkpt><trkpt lat="38.263518093648216" lon="16.28970385609852"><ele>10.333333333333334</ele><time>2026-03-22T12:10:49Z</time></trkpt><trkpt lat="38.26339139185574" lon="16.289557525887336"><ele>10.0</ele><time>2026-03-22T12:10:50Z</time></trkpt><trkpt lat="38.26327365247841" lon="16.2894142972721"><ele>10.0</ele><time>2026-03-22T12:10:51Z</time></trkpt><trkpt lat="38.26316608732114" lon="16.289283414779877"><ele>10.0</ele><time>2026-03-22T12:10:52Z</time></trkpt><trkpt lat="38.263070213108236" lon="16.289160524997023"><ele>10.0</ele><time>2026-03-22T12:10:53Z</time></trkpt><trkpt lat="38.26298917069035" lon="16.289058920300164"><ele>10.0</ele><time>2026-03-22T12:10:54Z</time></trkpt><trkpt lat="38.2629199533033" lon="16.28896646356853"><ele>9.8</ele><time>2026-03-22T12:10:55.001Z</time></trkpt><trkpt lat="38.26287130115342" lon="16.288898292296615"><ele>9.6</ele><time>2026-03-22T12:10:56.001Z</time></trkpt><trkpt lat="38.262816974050374" lon="16.288829967328116"><ele>9.4</ele><time>2026-03-22T12:10:58.001Z</time></trkpt><trkpt lat="38.262706295409174" lon="16.288709381213373"><ele>9.2</ele><time>2026-03-22T12:11:04.001Z</time></trkpt><trkpt lat="38.262632616708395" lon="16.288623827176824"><ele>9.0</ele><time>2026-03-22T12:11:05.001Z</time></trkpt><trkpt lat="38.26254546159859" lon="16.288523443084962"><ele>9.0</ele><time>2026-03-22T12:11:06.001Z</time></trkpt><trkpt lat="38.26244396099327" lon="16.288403033608983"><ele>9.0</ele><time>2026-03-22T12:11:07.001Z</time></trkpt><trkpt lat="38.262338558910564" lon="16.288279836987677"><ele>9.0</ele><time>2026-03-22T12:11:08.001Z</time></trkpt><trkpt lat="38.262218594672966" lon="16.288137820766494"><ele>9.0</ele><time>2026-03-22T12:11:09.001Z</time></trkpt><trkpt lat="38.262085897442184" lon="16.287988002522205"><ele>8.666666666666666</ele><time>2026-03-22T12:11:10Z</time></trkpt><trkpt lat="38.26196939100184" lon="16.287820255840302"><ele>8.333333333333332</ele><time>2026-03-22T12:11:11Z</time></trkpt><trkpt lat="38.26183919476583" lon="16.287658540560344"><ele>8.0</ele><time>2026-03-22T12:11:12Z</time></trkpt><trkpt lat="38.26169609640508" lon="16.287469566640098"><ele>8.0</ele><time>2026-03-22T12:11:13Z</time></trkpt><trkpt lat="38.26154149079557" lon="16.287293573534267"><ele>8.0</ele><time>2026-03-22T12:11:14Z</time></trkpt><trkpt lat="38.2613862494533" lon="16.287074797742232"><ele>8.0</ele><time>2026-03-22T12:11:15Z</time></trkpt><trkpt lat="38.26122959710182" lon="16.286881359393156"><ele>7.333333333333333</ele><time>2026-03-22T12:11:16Z</time></trkpt><trkpt lat="38.26106744831245" lon="16.286684569840588"><ele>6.666666666666666</ele><time>2026-03-22T12:11:17Z</time></trkpt><trkpt lat="38.26090920400161" lon="16.286499174858076"><ele>6.0</ele><time>2026-03-22T12:11:18Z</time></trkpt><trkpt lat="38.26076635049981" lon="16.28632442007058"><ele>6.0</ele><time>2026-03-22T12:11:19Z</time></trkpt><trkpt lat="38.26063427446248" lon="16.28616244636076"><ele>6.0</ele><time>2026-03-22T12:11:20Z</time></trkpt><trkpt lat="38.260514364662406" lon="16.286012930902213"><ele>6.0</ele><time>2026-03-22T12:11:21Z</time></trkpt><trkpt lat="38.260402225974595" lon="16.285873338185255"><ele>6.0</ele><time>2026-03-22T12:11:22Z</time></trkpt><trkpt lat="38.260300327607354" lon="16.285747866855026"><ele>6.0</ele><time>2026-03-22T12:11:23Z</time></trkpt><trkpt lat="38.26022337467719" lon="16.285657103967985"><ele>6.0</ele><time>2026-03-22T12:11:24Z</time></trkpt><trkpt lat="38.2601612677942" lon="16.285577697311833"><ele>6.0</ele><time>2026-03-22T12:11:25Z</time></trkpt><trkpt lat="38.260113956144565" lon="16.28550835016883"><ele>6.0</ele><time>2026-03-22T12:11:26Z</time></trkpt><trkpt lat="38.26015771229564" lon="16.285340263281643"><ele>6.0</ele><time>2026-03-22T12:11:28Z</time></trkpt><trkpt lat="38.26021939038096" lon="16.28521961961539"><ele>6.0</ele><time>2026-03-22T12:11:29Z</time></trkpt><trkpt lat="38.26030202326784" lon="16.285062993284182"><ele>6.0</ele><time>2026-03-22T12:11:30Z</time></trkpt><trkpt lat="38.260400702424626" lon="16.284876796432258"><ele>6.0</ele><time>2026-03-22T12:11:31Z</time></trkpt><trkpt lat="38.26050617494864" lon="16.284682455291374"><ele>7.0</ele><time>2026-03-22T12:11:32Z</time></trkpt><trkpt lat="38.260608796980385" lon="16.28445626731591"><ele>8.0</ele><time>2026-03-22T12:11:33Z</time></trkpt><trkpt lat="38.26070636561532" lon="16.28423167812802"><ele>9.0</ele><time>2026-03-22T12:11:34Z</time></trkpt><trkpt lat="38.260824933773996" lon="16.283994300980773"><ele>9.5</ele><time>2026-03-22T12:11:35Z</time></trkpt><trkpt lat="38.26096914043582" lon="16.283698457282178"><ele>10.0</ele><time>2026-03-22T12:11:36Z</time></trkpt><trkpt lat="38.2610849252182" lon="16.28345663987079"><ele>10.0</ele><time>2026-03-22T12:11:37Z</time></trkpt><trkpt lat="38.26119849460623" lon="16.283229894777513"><ele>10.0</ele><time>2026-03-22T12:11:38Z</time></trkpt><trkpt lat="38.26130292938318" lon="16.283038350602517"><ele>10.0</ele><time>2026-03-22T12:11:39Z</time></trkpt><trkpt lat="38.26140553239987" lon="16.282856679303883"><ele>10.25</ele><time>2026-03-22T12:11:40Z</time></trkpt><trkpt lat="38.26150526809369" lon="16.282696854145627"><ele>10.5</ele><time>2026-03-22T12:11:41Z</time></trkpt><trkpt lat="38.261589183611164" lon="16.282543451215385"><ele>10.75</ele><time>2026-03-22T12:11:42Z</time></trkpt><trkpt lat="38.261667258933755" lon="16.28240242703666"><ele>11.0</ele><time>2026-03-22T12:11:43Z</time></trkpt><trkpt lat="38.26174294694283" lon="16.282279293876393"><ele>11.200000000000001</ele><time>2026-03-22T12:11:44Z</time></trkpt><trkpt lat="38.26181558270474" lon="16.282168379387212"><ele>11.4</ele><time>2026-03-22T12:11:45Z</time></trkpt><trkpt lat="38.26186728313276" lon="16.282079170235782"><ele>11.6</ele><time>2026-03-22T12:11:46Z</time></trkpt><trkpt lat="38.261889671861965" lon="16.281962928698427"><ele>11.8</ele><time>2026-03-22T12:11:48Z</time></trkpt><trkpt lat="38.26178524987901" lon="16.281834446650088"><ele>12.0</ele><time>2026-03-22T12:11:49Z</time></trkpt><trkpt lat="38.261673249756825" lon="16.2817356880837"><ele>12.0</ele><time>2026-03-22T12:11:50Z</time></trkpt><trkpt lat="38.261531552877436" lon="16.281598086514585"><ele>12.0</ele><time>2026-03-22T12:11:51Z</time></trkpt><trkpt lat="38.261359301266324" lon="16.281434699943865"><ele>12.0</ele><time>2026-03-22T12:11:52Z</time></trkpt><trkpt lat="38.26116587811678" lon="16.281250779578457"><ele>11.5</ele><time>2026-03-22T12:11:53Z</time></trkpt><trkpt lat="38.260945990936285" lon="16.28102964698356"><ele>11.0</ele><time>2026-03-22T12:11:54Z</time></trkpt><trkpt lat="38.26070623679353" lon="16.28080190877848"><ele>10.0</ele><time>2026-03-22T12:11:55Z</time></trkpt><trkpt lat="38.2604448570544" lon="16.28056439377483"><ele>9.0</ele><time>2026-03-22T12:11:56Z</time></trkpt><trkpt lat="38.26016828134222" lon="16.280311553585594"><ele>9.0</ele><time>2026-03-22T12:11:57Z</time></trkpt><trkpt lat="38.25990259393873" lon="16.280076391144384"><ele>9.0</ele><time>2026-03-22T12:11:58Z</time></trkpt><trkpt lat="38.25967002082967" lon="16.279860601862463"><ele>9.0</ele><time>2026-03-22T12:11:59Z</time></trkpt><trkpt lat="38.25944968567255" lon="16.27965970842165"><ele>9.0</ele><time>2026-03-22T12:12:00Z</time></trkpt><trkpt lat="38.25924849501017" lon="16.279473217944286"><ele>9.0</ele><time>2026-03-22T12:12:01Z</time></trkpt><trkpt lat="38.25906870107166" lon="16.27930929862164"><ele>9.0</ele><time>2026-03-22T12:12:02Z</time></trkpt><trkpt lat="38.258913677382075" lon="16.279167864274164"><ele>9.0</ele><time>2026-03-22T12:12:03Z</time></trkpt><trkpt lat="38.258783494555914" lon="16.27904679261858"><ele>8.75</ele><time>2026-03-22T12:12:04Z</time></trkpt><trkpt lat="38.258669466123784" lon="16.278939191019735"><ele>8.5</ele><time>2026-03-22T12:12:05Z</time></trkpt><trkpt lat="38.258562963369094" lon="16.27884145649731"><ele>8.25</ele><time>2026-03-22T12:12:06Z</time></trkpt><trkpt lat="38.258415555482834" lon="16.278732093919928"><ele>8.0</ele><time>2026-03-22T12:12:07Z</time></trkpt><trkpt lat="38.258241927074096" lon="16.278607429269425"><ele>8.5</ele><time>2026-03-22T12:12:08Z</time></trkpt><trkpt lat="38.25804444812241" lon="16.27845979996463"><ele>9.0</ele><time>2026-03-22T12:12:09Z</time></trkpt><trkpt lat="38.257826920033644" lon="16.27831821490793"><ele>9.0</ele><time>2026-03-22T12:12:10Z</time></trkpt><trkpt lat="38.25760328211567" lon="16.27814160067855"><ele>9.0</ele><time>2026-03-22T12:12:11Z</time></trkpt><trkpt lat="38.257368181422684" lon="16.277956318031503"><ele>8.0</ele><time>2026-03-22T12:12:12Z</time></trkpt><trkpt lat="38.25711979985504" lon="16.277769198052717"><ele>7.0</ele><time>2026-03-22T12:12:13Z</time></trkpt><trkpt lat="38.256855646756186" lon="16.27757110310175"><ele>7.0</ele><time>2026-03-22T12:12:14Z</time></trkpt><trkpt lat="38.25660416998511" lon="16.27737595186321"><ele>7.0</ele><time>2026-03-22T12:12:15Z</time></trkpt><trkpt lat="38.25635450431614" lon="16.277180766165067"><ele>7.5</ele><time>2026-03-22T12:12:16Z</time></trkpt><trkpt lat="38.25610648181192" lon="16.276982754612494"><ele>8.0</ele><time>2026-03-22T12:12:17Z</time></trkpt><trkpt lat="38.25585838210797" lon="16.27678597139108"><ele>7.5</ele><time>2026-03-22T12:12:18Z</time></trkpt><trkpt lat="38.255612356492186" lon="16.276571586055365"><ele>7.0</ele><time>2026-03-22T12:12:19Z</time></trkpt><trkpt lat="38.25536704933066" lon="16.27630852657442"><ele>8.0</ele><time>2026-03-22T12:12:20Z</time></trkpt><trkpt lat="38.255126998295545" lon="16.276019296834416"><ele>9.0</ele><time>2026-03-22T12:12:21Z</time></trkpt><trkpt lat="38.25488795326597" lon="16.275743451382418"><ele>9.5</ele><time>2026-03-22T12:12:22Z</time></trkpt><trkpt lat="38.254630310949366" lon="16.27548773979595"><ele>10.0</ele><time>2026-03-22T12:12:23Z</time></trkpt><trkpt lat="38.25435844749539" lon="16.275242572794866"><ele>10.0</ele><time>2026-03-22T12:12:24Z</time></trkpt><trkpt lat="38.25408743139451" lon="16.274986378922087"><ele>10.0</ele><time>2026-03-22T12:12:25Z</time></trkpt><trkpt lat="38.253825525039716" lon="16.274732613137047"><ele>9.5</ele><time>2026-03-22T12:12:26Z</time></trkpt><trkpt lat="38.25356104181343" lon="16.27447624164204"><ele>9.0</ele><time>2026-03-22T12:12:27Z</time></trkpt><trkpt lat="38.25328450347049" lon="16.274218182231735"><ele>9.5</ele><time>2026-03-22T12:12:28Z</time></trkpt><trkpt lat="38.253003611781416" lon="16.273954009178727"><ele>10.0</ele><time>2026-03-22T12:12:29Z</time></trkpt><trkpt lat="38.25272501893184" lon="16.273694609897035"><ele>10.5</ele><time>2026-03-22T12:12:30Z</time></trkpt><trkpt lat="38.25245322051488" lon="16.273438360677467"><ele>11.0</ele><time>2026-03-22T12:12:31Z</time></trkpt><trkpt lat="38.252183087277515" lon="16.273187873176838"><ele>11.5</ele><time>2026-03-22T12:12:32Z</time></trkpt><trkpt lat="38.25190691109213" lon="16.272938492194584"><ele>12.0</ele><time>2026-03-22T12:12:33.001Z</time></trkpt><trkpt lat="38.25162167265308" lon="16.27268720682463"><ele>11.0</ele><time>2026-03-22T12:12:34.001Z</time></trkpt><trkpt lat="38.251339337412816" lon="16.272443248403306"><ele>10.0</ele><time>2026-03-22T12:12:35.001Z</time></trkpt><trkpt lat="38.251050643497656" lon="16.2721954165581"><ele>10.0</ele><time>2026-03-22T12:12:36.001Z</time></trkpt><trkpt lat="38.2507616416204" lon="16.271944907047338"><ele>10.0</ele><time>2026-03-22T12:12:37.001Z</time></trkpt><trkpt lat="38.25046656159872" lon="16.271685941982646"><ele>9.5</ele><time>2026-03-22T12:12:38.001Z</time></trkpt><trkpt lat="38.25016934208267" lon="16.2714288602695"><ele>9.0</ele><time>2026-03-22T12:12:39.001Z</time></trkpt><trkpt lat="38.24986229854104" lon="16.271170317468485"><ele>8.5</ele><time>2026-03-22T12:12:40.001Z</time></trkpt><trkpt lat="38.24954817450487" lon="16.270896176699885"><ele>8.0</ele><time>2026-03-22T12:12:41.001Z</time></trkpt><trkpt lat="38.249230101165296" lon="16.27061289605614"><ele>9.5</ele><time>2026-03-22T12:12:42.001Z</time></trkpt><trkpt lat="38.24890868155636" lon="16.27032921981611"><ele>11.0</ele><time>2026-03-22T12:12:43.001Z</time></trkpt><trkpt lat="38.24858671618151" lon="16.270050923626325"><ele>11.0</ele><time>2026-03-22T12:12:44.001Z</time></trkpt><trkpt lat="38.2482891555604" lon="16.26979074888877"><ele>11.0</ele><time>2026-03-22T12:12:45.001Z</time></trkpt><trkpt lat="38.248016810320955" lon="16.2695564323866"><ele>11.0</ele><time>2026-03-22T12:12:46.001Z</time></trkpt><trkpt lat="38.24775925314168" lon="16.269337620298497"><ele>11.0</ele><time>2026-03-22T12:12:47.001Z</time></trkpt><trkpt lat="38.2475216653928" lon="16.269134864273465"><ele>11.0</ele><time>2026-03-22T12:12:48.001Z</time></trkpt><trkpt lat="38.24729435959549" lon="16.268946024499495"><ele>11.0</ele><time>2026-03-22T12:12:49.001Z</time></trkpt><trkpt lat="38.24707722690086" lon="16.26875739211311"><ele>12.0</ele><time>2026-03-22T12:12:50.001Z</time></trkpt><trkpt lat="38.246871220645616" lon="16.268579993685204"><ele>13.0</ele><time>2026-03-22T12:12:51.001Z</time></trkpt><trkpt lat="38.246668259375056" lon="16.268410639541298"><ele>13.0</ele><time>2026-03-22T12:12:52.001Z</time></trkpt><trkpt lat="38.246471464768106" lon="16.26824209482328"><ele>13.0</ele><time>2026-03-22T12:12:53.001Z</time></trkpt><trkpt lat="38.24626310350442" lon="16.26806412113744"><ele>13.5</ele><time>2026-03-22T12:12:54.001Z</time></trkpt><trkpt lat="38.24606301603247" lon="16.267889917983737"><ele>14.0</ele><time>2026-03-22T12:12:55.001Z</time></trkpt><trkpt lat="38.24588035412721" lon="16.26773073202556"><ele>14.0</ele><time>2026-03-22T12:12:56.001Z</time></trkpt><trkpt lat="38.245702839913896" lon="16.26757474691877"><ele>14.0</ele><time>2026-03-22T12:12:57.001Z</time></trkpt><trkpt lat="38.245541033648436" lon="16.26743052442346"><ele>14.0</ele><time>2026-03-22T12:12:58.001Z</time></trkpt><trkpt lat="38.245385443317" lon="16.26729016484556"><ele>14.333333333333334</ele><time>2026-03-22T12:12:59.001Z</time></trkpt><trkpt lat="38.245239961493624" lon="16.267154944148647"><ele>14.666666666666668</ele><time>2026-03-22T12:13:00.001Z</time></trkpt><trkpt lat="38.24510554730107" lon="16.267018677382183"><ele>15.0</ele><time>2026-03-22T12:13:01.001Z</time></trkpt><trkpt lat="38.244970888850666" lon="16.266903920351535"><ele>15.0</ele><time>2026-03-22T12:13:02.001Z</time></trkpt><trkpt lat="38.244831040199976" lon="16.266838688788017"><ele>15.0</ele><time>2026-03-22T12:13:03.001Z</time></trkpt><trkpt lat="38.244674831443156" lon="16.266796999502134"><ele>15.0</ele><time>2026-03-22T12:13:04.001Z</time></trkpt><trkpt lat="38.24452465435158" lon="16.26670594625583"><ele>15.0</ele><time>2026-03-22T12:13:05.001Z</time></trkpt><trkpt lat="38.244406111405645" lon="16.266589631033266"><ele>15.0</ele><time>2026-03-22T12:13:06.001Z</time></trkpt><trkpt lat="38.244307798167796" lon="16.266457844223847"><ele>15.0</ele><time>2026-03-22T12:13:07.001Z</time></trkpt><trkpt lat="38.244189906737134" lon="16.266329901680233"><ele>15.0</ele><time>2026-03-22T12:13:08.001Z</time></trkpt><trkpt lat="38.24404578479526" lon="16.266214775013808"><ele>14.333333333333332</ele><time>2026-03-22T12:13:09.001Z</time></trkpt><trkpt lat="38.24388486707596" lon="16.266045982029894"><ele>13.666666666666666</ele><time>2026-03-22T12:13:10.001Z</time></trkpt><trkpt lat="38.24372631723106" lon="16.265886828948606"><ele>13.0</ele><time>2026-03-22T12:13:11.001Z</time></trkpt><trkpt lat="38.243575779549964" lon="16.265736742147702"><ele>14.0</ele><time>2026-03-22T12:13:12.001Z</time></trkpt><trkpt lat="38.24343483551837" lon="16.265602972588262"><ele>15.0</ele><time>2026-03-22T12:13:13.001Z</time></trkpt><trkpt lat="38.24329857987784" lon="16.26547135185191"><ele>16.0</ele><time>2026-03-22T12:13:14.001Z</time></trkpt><trkpt lat="38.243170586879" lon="16.265348753620746"><ele>16.333333333333332</ele><time>2026-03-22T12:13:15.001Z</time></trkpt><trkpt lat="38.24304868449016" lon="16.265222652794222"><ele>16.666666666666668</ele><time>2026-03-22T12:13:16Z</time></trkpt><trkpt lat="38.242925182467495" lon="16.265099336961132"><ele>17.0</ele><time>2026-03-22T12:13:17Z</time></trkpt><trkpt lat="38.242810436240866" lon="16.264980722569042"><ele>17.0</ele><time>2026-03-22T12:13:18Z</time></trkpt><trkpt lat="38.24265926177749" lon="16.264852384939207"><ele>17.0</ele><time>2026-03-22T12:13:19Z</time></trkpt><trkpt lat="38.24253204028802" lon="16.264724371034198"><ele>17.0</ele><time>2026-03-22T12:13:20Z</time></trkpt><trkpt lat="38.24242070363247" lon="16.264603236287417"><ele>17.0</ele><time>2026-03-22T12:13:21Z</time></trkpt><trkpt lat="38.242315795225245" lon="16.2644886897338"><ele>17.0</ele><time>2026-03-22T12:13:22Z</time></trkpt><trkpt lat="38.24220706048432" lon="16.264378818970552"><ele>17.0</ele><time>2026-03-22T12:13:23Z</time></trkpt><trkpt lat="38.24209747696207" lon="16.26427018354789"><ele>17.0</ele><time>2026-03-22T12:13:24Z</time></trkpt><trkpt lat="38.241992233345364" lon="16.264170540537947"><ele>16.5</ele><time>2026-03-22T12:13:25Z</time></trkpt><trkpt lat="38.241898008960845" lon="16.264078301688098"><ele>16.0</ele><time>2026-03-22T12:13:26Z</time></trkpt><trkpt lat="38.2418176111796" lon="16.26398791327935"><ele>15.5</ele><time>2026-03-22T12:13:27Z</time></trkpt><trkpt lat="38.241744838503756" lon="16.263893001387867"><ele>15.0</ele><time>2026-03-22T12:13:28Z</time></trkpt><trkpt lat="38.241645368655874" lon="16.263779011967973"><ele>14.666666666666668</ele><time>2026-03-22T12:13:29Z</time></trkpt><trkpt lat="38.24152991017544" lon="16.263676849990972"><ele>14.333333333333334</ele><time>2026-03-22T12:13:30Z</time></trkpt><trkpt lat="38.2413984322173" lon="16.26357694420919"><ele>14.0</ele><time>2026-03-22T12:13:31Z</time></trkpt><trkpt lat="38.24127524160021" lon="16.263449059144875"><ele>14.0</ele><time>2026-03-22T12:13:32Z</time></trkpt><trkpt lat="38.241152951871264" lon="16.26332723078062"><ele>14.0</ele><time>2026-03-22T12:13:33Z</time></trkpt><trkpt lat="38.24101829836807" lon="16.263193085389414"><ele>14.0</ele><time>2026-03-22T12:13:34Z</time></trkpt><trkpt lat="38.24086929496557" lon="16.263044120837915"><ele>14.5</ele><time>2026-03-22T12:13:35Z</time></trkpt><trkpt lat="38.240701603010095" lon="16.262875926711125"><ele>15.0</ele><time>2026-03-22T12:13:36Z</time></trkpt><trkpt lat="38.240501831335386" lon="16.262694278916555"><ele>15.0</ele><time>2026-03-22T12:13:37Z</time></trkpt><trkpt lat="38.24031351497263" lon="16.26248008377554"><ele>15.0</ele><time>2026-03-22T12:13:38Z</time></trkpt><trkpt lat="38.24011155519379" lon="16.262254261903795"><ele>15.5</ele><time>2026-03-22T12:13:39Z</time></trkpt><trkpt lat="38.23990917947166" lon="16.26203563484941"><ele>16.0</ele><time>2026-03-22T12:13:40Z</time></trkpt><trkpt lat="38.23972269336358" lon="16.26184056599553"><ele>16.0</ele><time>2026-03-22T12:13:41Z</time></trkpt><trkpt lat="38.23954256053151" lon="16.261669691791525"><ele>16.0</ele><time>2026-03-22T12:13:42Z</time></trkpt><trkpt lat="38.239370859489235" lon="16.2615062501928"><ele>16.0</ele><time>2026-03-22T12:13:43Z</time></trkpt><trkpt lat="38.23920538744098" lon="16.261351917651986"><ele>16.0</ele><time>2026-03-22T12:13:44Z</time></trkpt><trkpt lat="38.239053248433315" lon="16.261202713858264"><ele>16.0</ele><time>2026-03-22T12:13:45Z</time></trkpt><trkpt lat="38.23891418476922" lon="16.26106625958878"><ele>16.0</ele><time>2026-03-22T12:13:46Z</time></trkpt><trkpt lat="38.238799045281475" lon="16.26094547800555"><ele>16.0</ele><time>2026-03-22T12:13:47Z</time></trkpt><trkpt lat="38.238707740946815" lon="16.260849919058348"><ele>16.0</ele><time>2026-03-22T12:13:48Z</time></trkpt><trkpt lat="38.23861589107151" lon="16.26077940221691"><ele>16.0</ele><time>2026-03-22T12:13:49Z</time></trkpt><trkpt lat="38.23853330271316" lon="16.260695485085193"><ele>16.0</ele><time>2026-03-22T12:13:50Z</time></trkpt><trkpt lat="38.238479244981505" lon="16.260638416081434"><ele>16.0</ele><time>2026-03-22T12:13:51Z</time></trkpt><trkpt lat="38.23840563478594" lon="16.260563002302014"><ele>16.0</ele><time>2026-03-22T12:13:53Z</time></trkpt><trkpt lat="38.23829384790112" lon="16.260446475357302"><ele>16.0</ele><time>2026-03-22T12:13:55Z</time></trkpt><trkpt lat="38.23818833293423" lon="16.260370165934372"><ele>16.0</ele><time>2026-03-22T12:13:56Z</time></trkpt><trkpt lat="38.23807521298471" lon="16.26026188150741"><ele>16.0</ele><time>2026-03-22T12:13:57Z</time></trkpt><trkpt lat="38.237952537391934" lon="16.260132288554413"><ele>16.0</ele><time>2026-03-22T12:13:58Z</time></trkpt><trkpt lat="38.23779113241823" lon="16.259978003499636"><ele>16.0</ele><time>2026-03-22T12:13:59Z</time></trkpt><trkpt lat="38.23761070587561" lon="16.259823378122494"><ele>16.0</ele><time>2026-03-22T12:14:00Z</time></trkpt><trkpt lat="38.2374360282671" lon="16.25963097825433"><ele>16.0</ele><time>2026-03-22T12:14:01Z</time></trkpt><trkpt lat="38.237258582571776" lon="16.259477844714084"><ele>16.0</ele><time>2026-03-22T12:14:02Z</time></trkpt><trkpt lat="38.237109826819626" lon="16.2593250713662"><ele>16.0</ele><time>2026-03-22T12:14:03Z</time></trkpt><trkpt lat="38.236982518870576" lon="16.259191309872744"><ele>16.0</ele><time>2026-03-22T12:14:04Z</time></trkpt><trkpt lat="38.23687325850574" lon="16.25908656363925"><ele>16.0</ele><time>2026-03-22T12:14:05Z</time></trkpt><trkpt lat="38.236790023303264" lon="16.259007691285223"><ele>16.0</ele><time>2026-03-22T12:14:06Z</time></trkpt><trkpt lat="38.23671700432128" lon="16.25888891320342"><ele>16.0</ele><time>2026-03-22T12:14:08Z</time></trkpt><trkpt lat="38.23681665913026" lon="16.2587618923564"><ele>17.0</ele><time>2026-03-22T12:14:10Z</time></trkpt><trkpt lat="38.2368974538337" lon="16.25859878017282"><ele>18.0</ele><time>2026-03-22T12:14:11Z</time></trkpt><trkpt lat="38.237015086346965" lon="16.25841111743837"><ele>19.0</ele><time>2026-03-22T12:14:12Z</time></trkpt><trkpt lat="38.23716002370338" lon="16.258208524755652"><ele>20.0</ele><time>2026-03-22T12:14:13Z</time></trkpt><trkpt lat="38.23732149640626" lon="16.257946877908843"><ele>21.0</ele><time>2026-03-22T12:14:14Z</time></trkpt><trkpt lat="38.23749166937057" lon="16.257671394343834"><ele>21.0</ele><time>2026-03-22T12:14:15Z</time></trkpt><trkpt lat="38.23766424745697" lon="16.257370635649277"><ele>21.0</ele><time>2026-03-22T12:14:16Z</time></trkpt><trkpt lat="38.237831319721344" lon="16.257117592957055"><ele>21.0</ele><time>2026-03-22T12:14:17Z</time></trkpt><trkpt lat="38.23801557408613" lon="16.25681677629383"><ele>21.0</ele><time>2026-03-22T12:14:18Z</time></trkpt><trkpt lat="38.23815864250267" lon="16.256583750667627"><ele>22.0</ele><time>2026-03-22T12:14:19Z</time></trkpt><trkpt lat="38.23829823290868" lon="16.256355198072708"><ele>23.0</ele><time>2026-03-22T12:14:20Z</time></trkpt><trkpt lat="38.238436983284025" lon="16.256128722213987"><ele>23.0</ele><time>2026-03-22T12:14:21Z</time></trkpt><trkpt lat="38.238591449915226" lon="16.255879262653522"><ele>23.0</ele><time>2026-03-22T12:14:22Z</time></trkpt><trkpt lat="38.23875777434772" lon="16.255613664281146"><ele>22.5</ele><time>2026-03-22T12:14:23Z</time></trkpt><trkpt lat="38.23890544854383" lon="16.25537781488235"><ele>22.0</ele><time>2026-03-22T12:14:24Z</time></trkpt><trkpt lat="38.239045832909525" lon="16.25515252613622"><ele>23.0</ele><time>2026-03-22T12:14:25.001Z</time></trkpt><trkpt lat="38.23917243010317" lon="16.254947403418708"><ele>24.0</ele><time>2026-03-22T12:14:26.001Z</time></trkpt><trkpt lat="38.23929580080262" lon="16.254746204573852"><ele>25.0</ele><time>2026-03-22T12:14:27.001Z</time></trkpt><trkpt lat="38.239394722526114" lon="16.254560016244064"><ele>25.666666666666668</ele><time>2026-03-22T12:14:28.001Z</time></trkpt><trkpt lat="38.23950850296528" lon="16.254390686996178"><ele>26.333333333333336</ele><time>2026-03-22T12:14:29.001Z</time></trkpt><trkpt lat="38.2396042341731" lon="16.254236197814837"><ele>27.0</ele><time>2026-03-22T12:14:30.001Z</time></trkpt><trkpt lat="38.23968154257675" lon="16.25408476447533"><ele>27.0</ele><time>2026-03-22T12:14:31.001Z</time></trkpt><trkpt lat="38.23971929325588" lon="16.25397159677155"><ele>27.000000000000004</ele><time>2026-03-22T12:14:32.001Z</time></trkpt><trkpt lat="38.23972878852" lon="16.253875588311363"><ele>27.000000000000004</ele><time>2026-03-22T12:14:33.001Z</time></trkpt><trkpt lat="38.239727036345464" lon="16.253749057344383"><ele>27.0</ele><time>2026-03-22T12:14:34.001Z</time></trkpt><trkpt lat="38.2396665165872" lon="16.253554858570368"><ele>27.0</ele><time>2026-03-22T12:14:35.001Z</time></trkpt><trkpt lat="38.239578026602146" lon="16.25338777014893"><ele>27.333333333333336</ele><time>2026-03-22T12:14:36.001Z</time></trkpt><trkpt lat="38.239444864428606" lon="16.253202479270882"><ele>27.666666666666668</ele><time>2026-03-22T12:14:37.001Z</time></trkpt><trkpt lat="38.239277823889104" lon="16.25297588547599"><ele>28.0</ele><time>2026-03-22T12:14:38.001Z</time></trkpt><trkpt lat="38.23901050707524" lon="16.252699011054844"><ele>27.5</ele><time>2026-03-22T12:14:39.001Z</time></trkpt><trkpt lat="38.23881545161793" lon="16.252426290037516"><ele>27.0</ele><time>2026-03-22T12:14:40.001Z</time></trkpt><trkpt lat="38.23860802792611" lon="16.252134722790373"><ele>27.0</ele><time>2026-03-22T12:14:41.001Z</time></trkpt><trkpt lat="38.2383889080491" lon="16.2518251220034"><ele>27.0</ele><time>2026-03-22T12:14:42.001Z</time></trkpt><trkpt lat="38.23818307766022" lon="16.251542282539354"><ele>28.0</ele><time>2026-03-22T12:14:43.001Z</time></trkpt><trkpt lat="38.238004530175" lon="16.25131716053522"><ele>29.0</ele><time>2026-03-22T12:14:44.001Z</time></trkpt><trkpt lat="38.23783076710412" lon="16.251092246373634"><ele>29.0</ele><time>2026-03-22T12:14:45.001Z</time></trkpt><trkpt lat="38.23766035767759" lon="16.2508675022387"><ele>29.0</ele><time>2026-03-22T12:14:46.001Z</time></trkpt><trkpt lat="38.23748752268625" lon="16.250637929687922"><ele>29.5</ele><time>2026-03-22T12:14:47.001Z</time></trkpt><trkpt lat="38.237329514751345" lon="16.250378661050505"><ele>30.0</ele><time>2026-03-22T12:14:48.001Z</time></trkpt><trkpt lat="38.237147551921595" lon="16.250160355794726"><ele>30.0</ele><time>2026-03-22T12:14:49.001Z</time></trkpt><trkpt lat="38.236970763127474" lon="16.249923757113944"><ele>30.0</ele><time>2026-03-22T12:14:50.001Z</time></trkpt><trkpt lat="38.23679498921228" lon="16.24969446757387"><ele>30.0</ele><time>2026-03-22T12:14:51.001Z</time></trkpt><trkpt lat="38.23663772851588" lon="16.249459279571205"><ele>30.0</ele><time>2026-03-22T12:14:52.001Z</time></trkpt><trkpt lat="38.23646908737499" lon="16.249263742844953"><ele>30.0</ele><time>2026-03-22T12:14:53.001Z</time></trkpt><trkpt lat="38.236331066628814" lon="16.24908414889375"><ele>30.0</ele><time>2026-03-22T12:14:54.001Z</time></trkpt><trkpt lat="38.23621482922378" lon="16.248891468611095"><ele>30.0</ele><time>2026-03-22T12:14:55.001Z</time></trkpt><trkpt lat="38.236106626394346" lon="16.248743666062982"><ele>30.0</ele><time>2026-03-22T12:14:56.001Z</time></trkpt><trkpt lat="38.236044571737466" lon="16.248568878330147"><ele>30.0</ele><time>2026-03-22T12:14:57.001Z</time></trkpt><trkpt lat="38.235979356864306" lon="16.248405083093928"><ele>30.0</ele><time>2026-03-22T12:14:58.001Z</time></trkpt><trkpt lat="38.235911316268265" lon="16.248248334101486"><ele>30.0</ele><time>2026-03-22T12:14:59.001Z</time></trkpt><trkpt lat="38.23585011896502" lon="16.248090056157427"><ele>30.0</ele><time>2026-03-22T12:15:00.001Z</time></trkpt><trkpt lat="38.23578967971165" lon="16.247944361987695"><ele>30.0</ele><time>2026-03-22T12:15:01.001Z</time></trkpt><trkpt lat="38.23572369388541" lon="16.24781556249796"><ele>30.0</ele><time>2026-03-22T12:15:02.001Z</time></trkpt><trkpt lat="38.23560745887038" lon="16.24775041418466"><ele>30.0</ele><time>2026-03-22T12:15:03.001Z</time></trkpt><trkpt lat="38.235490352411716" lon="16.24766420944673"><ele>29.75</ele><time>2026-03-22T12:15:04.001Z</time></trkpt><trkpt lat="38.23537422306624" lon="16.247592894464642"><ele>29.5</ele><time>2026-03-22T12:15:05.001Z</time></trkpt><trkpt lat="38.23527010039653" lon="16.247513938698273"><ele>29.25</ele><time>2026-03-22T12:15:06.001Z</time></trkpt><trkpt lat="38.23520687780575" lon="16.247442975166337"><ele>29.0</ele><time>2026-03-22T12:15:07.001Z</time></trkpt><trkpt lat="38.23512066762045" lon="16.247341555287967"><ele>30.5</ele><time>2026-03-22T12:15:08.001Z</time></trkpt><trkpt lat="38.235050701371165" lon="16.24719132739747"><ele>32.0</ele><time>2026-03-22T12:15:09.001Z</time></trkpt><trkpt lat="38.23501601942839" lon="16.247015540971073"><ele>33.5</ele><time>2026-03-22T12:15:10.001Z</time></trkpt><trkpt lat="38.23497537231405" lon="16.246853063957545"><ele>35.0</ele><time>2026-03-22T12:15:11.001Z</time></trkpt><trkpt lat="38.23493918803344" lon="16.246680679858745"><ele>35.0</ele><time>2026-03-22T12:15:12.001Z</time></trkpt><trkpt lat="38.23490548708444" lon="16.24652767741649"><ele>35.0</ele><time>2026-03-22T12:15:13.001Z</time></trkpt><trkpt lat="38.23487507824846" lon="16.246396070021458"><ele>35.0</ele><time>2026-03-22T12:15:14.001Z</time></trkpt><trkpt lat="38.23484207547904" lon="16.246284593107603"><ele>35.0</ele><time>2026-03-22T12:15:15.001Z</time></trkpt><trkpt lat="38.23482189151366" lon="16.246185816325568"><ele>35.0</ele><time>2026-03-22T12:15:16.001Z</time></trkpt><trkpt lat="38.23481180644793" lon="16.2460967141211"><ele>36.0</ele><time>2026-03-22T12:15:17.001Z</time></trkpt><trkpt lat="38.234828653565025" lon="16.246006069300023"><ele>37.0</ele><time>2026-03-22T12:15:18.001Z</time></trkpt><trkpt lat="38.234908366580626" lon="16.245852222098065"><ele>38.0</ele><time>2026-03-22T12:15:20.001Z</time></trkpt><trkpt lat="38.234962976337485" lon="16.245790709180344"><ele>39.0</ele><time>2026-03-22T12:15:21.001Z</time></trkpt><trkpt lat="38.235016486632006" lon="16.24572616339563"><ele>40.0</ele><time>2026-03-22T12:15:22Z</time></trkpt><trkpt lat="38.23506496701645" lon="16.24566271632041"><ele>41.0</ele><time>2026-03-22T12:15:23Z</time></trkpt><trkpt lat="38.235079728447516" lon="16.24555500213548"><ele>40.99999999999999</ele><time>2026-03-22T12:15:24Z</time></trkpt><trkpt lat="38.235126279537106" lon="16.245499117708103"><ele>41.0</ele><time>2026-03-22T12:15:25Z</time></trkpt><trkpt lat="38.23517355692361" lon="16.24543656698262"><ele>41.0</ele><time>2026-03-22T12:15:26Z</time></trkpt><trkpt lat="38.235223953568905" lon="16.245372544010543"><ele>41.0</ele><time>2026-03-22T12:15:27Z</time></trkpt><trkpt lat="38.23527859952685" lon="16.245312859899865"><ele>41.0</ele><time>2026-03-22T12:15:28Z</time></trkpt><trkpt lat="38.235344240850075" lon="16.24526064050695"><ele>40.99999999999999</ele><time>2026-03-22T12:15:29Z</time></trkpt><trkpt lat="38.23541639213579" lon="16.245229794625825"><ele>41.0</ele><time>2026-03-22T12:15:30Z</time></trkpt><trkpt lat="38.235469973590426" lon="16.245180988996395"><ele>41.0</ele><time>2026-03-22T12:15:31Z</time></trkpt><trkpt lat="38.23558632483093" lon="16.245103346229595"><ele>41.0</ele><time>2026-03-22T12:15:33Z</time></trkpt><trkpt lat="38.235672343000225" lon="16.245015202686997"><ele>41.0</ele><time>2026-03-22T12:15:35Z</time></trkpt><trkpt lat="38.23576731770907" lon="16.244932205938532"><ele>41.0</ele><time>2026-03-22T12:15:37Z</time></trkpt><trkpt lat="38.235846564655276" lon="16.244848091406663"><ele>43.599999999999994</ele><time>2026-03-22T12:15:39Z</time></trkpt><trkpt lat="38.23594453278569" lon="16.24476253530133"><ele>46.2</ele><time>2026-03-22T12:15:41Z</time></trkpt><trkpt lat="38.236023528305644" lon="16.244673382327413"><ele>48.800000000000004</ele><time>2026-03-22T12:15:43Z</time></trkpt><trkpt lat="38.236078673153465" lon="16.2446235424103"><ele>51.400000000000006</ele><time>2026-03-22T12:15:45Z</time></trkpt><trkpt lat="38.2361592511883" lon="16.244553342160035"><ele>54.0</ele><time>2026-03-22T12:15:48Z</time></trkpt><trkpt lat="38.23622636339459" lon="16.24449099616671"><ele>54.0</ele><time>2026-03-22T12:15:51Z</time></trkpt><trkpt lat="38.236293341783934" lon="16.244411249375176"><ele>54.00000000000001</ele><time>2026-03-22T12:15:53Z</time></trkpt><trkpt lat="38.23635973502184" lon="16.24433372853414"><ele>54.00000000000001</ele><time>2026-03-22T12:15:55Z</time></trkpt><trkpt lat="38.23644247136111" lon="16.244291917427816"><ele>54.0</ele><time>2026-03-22T12:15:57Z</time></trkpt><trkpt lat="38.236534010704425" lon="16.24440073735212"><ele>54.0</ele><time>2026-03-22T12:15:59Z</time></trkpt><trkpt lat="38.2365963668137" lon="16.24446177053356"><ele>54.800000000000004</ele><time>2026-03-22T12:16:01Z</time></trkpt><trkpt lat="38.236677589005964" lon="16.244540098331495"><ele>55.60000000000001</ele><time>2026-03-22T12:16:04Z</time></trkpt><trkpt lat="38.23659553996875" lon="16.244733238585944"><ele>56.4</ele><time>2026-03-22T12:16:12Z</time></trkpt><trkpt lat="38.236504910191925" lon="16.244733521092797"><ele>57.2</ele><time>2026-03-22T12:16:19Z</time></trkpt><trkpt lat="38.23655612177662" lon="16.244783116888637"><ele>58.0</ele><time>2026-03-22T12:16:24Z</time></trkpt><trkpt lat="38.23661262352868" lon="16.24473687245191"><ele>58.0</ele><time>2026-03-22T12:17:17.001Z</time></trkpt><trkpt lat="38.23657140222658" lon="16.2448198645108"><ele>58.0</ele><time>2026-03-22T12:21:27.001Z</time></trkpt><trkpt lat="38.23664146651272" lon="16.24479928902527"><ele>58.0</ele><time>2026-03-22T12:22:46Z</time></trkpt><trkpt lat="38.236576543282936" lon="16.244796799607062"><ele>58.0</ele><time>2026-03-22T12:22:58Z</time></trkpt><trkpt lat="38.236677330035214" lon="16.244558743136434"><ele>58.0</ele><time>2026-03-22T12:37:21Z</time></trkpt><trkpt lat="38.2366120287606" lon="16.24444831122515"><ele>58.0</ele><time>2026-03-22T12:37:25Z</time></trkpt><trkpt lat="38.23651299633556" lon="16.244352258300008"><ele>58.0</ele><time>2026-03-22T12:37:27Z</time></trkpt><trkpt lat="38.23642204847322" lon="16.244288930158"><ele>58.0</ele><time>2026-03-22T12:37:29Z</time></trkpt><trkpt lat="38.2363060243545" lon="16.244316355083477"><ele>58.0</ele><time>2026-03-22T12:37:31Z</time></trkpt><trkpt lat="38.236217337917" lon="16.24434885858711"><ele>58.0</ele><time>2026-03-22T12:37:33Z</time></trkpt><trkpt lat="38.236206603716575" lon="16.244458107691607"><ele>57.2</ele><time>2026-03-22T12:37:34Z</time></trkpt><trkpt lat="38.23615259496851" lon="16.244540436705705"><ele>56.4</ele><time>2026-03-22T12:37:38Z</time></trkpt><trkpt lat="38.23599451883922" lon="16.24438790187279"><ele>55.60000000000001</ele><time>2026-03-22T12:37:45Z</time></trkpt><trkpt lat="38.23592269049378" lon="16.24432885993043"><ele>54.800000000000004</ele><time>2026-03-22T12:37:46Z</time></trkpt><trkpt lat="38.23586102059153" lon="16.244301554013337"><ele>54.0</ele><time>2026-03-22T12:37:47Z</time></trkpt><trkpt lat="38.23576650938857" lon="16.244302608665535"><ele>54.0</ele><time>2026-03-22T12:37:49Z</time></trkpt><trkpt lat="38.23571106465038" lon="16.244371550023782"><ele>54.0</ele><time>2026-03-22T12:37:51Z</time></trkpt><trkpt lat="38.23564806700914" lon="16.244432356524612"><ele>54.0</ele><time>2026-03-22T12:37:54Z</time></trkpt><trkpt lat="38.23558846508713" lon="16.244480763081143"><ele>54.0</ele><time>2026-03-22T12:37:56Z</time></trkpt><trkpt lat="38.23552365051207" lon="16.24453327428946"><ele>54.0</ele><time>2026-03-22T12:37:58Z</time></trkpt><trkpt lat="38.23546062478329" lon="16.244592745719846"><ele>54.0</ele><time>2026-03-22T12:38:00Z</time></trkpt><trkpt lat="38.23541330165939" lon="16.244647133887987"><ele>54.0</ele><time>2026-03-22T12:38:01Z</time></trkpt><trkpt lat="38.235376340612866" lon="16.244718073025197"><ele>51.833333333333336</ele><time>2026-03-22T12:38:02Z</time></trkpt><trkpt lat="38.23536592942192" lon="16.244807264824296"><ele>49.666666666666664</ele><time>2026-03-22T12:38:03Z</time></trkpt><trkpt lat="38.235318966257374" lon="16.24495169993654"><ele>47.5</ele><time>2026-03-22T12:38:05Z</time></trkpt><trkpt lat="38.23528803601722" lon="16.245026549181954"><ele>45.33333333333333</ele><time>2026-03-22T12:38:06Z</time></trkpt><trkpt lat="38.235237063322344" lon="16.245090282404345"><ele>43.166666666666664</ele><time>2026-03-22T12:38:07Z</time></trkpt><trkpt lat="38.2351940411563" lon="16.245168256323975"><ele>41.0</ele><time>2026-03-22T12:38:08Z</time></trkpt><trkpt lat="38.235139992641535" lon="16.24523743971345"><ele>40.99999999999999</ele><time>2026-03-22T12:38:09Z</time></trkpt><trkpt lat="38.23507624311461" lon="16.245291558107017"><ele>41.0</ele><time>2026-03-22T12:38:10Z</time></trkpt><trkpt lat="38.23503695019769" lon="16.245369857464055"><ele>41.0</ele><time>2026-03-22T12:38:11Z</time></trkpt><trkpt lat="38.2349874716685" lon="16.24544088916505"><ele>41.0</ele><time>2026-03-22T12:38:12Z</time></trkpt><trkpt lat="38.23494242375574" lon="16.245519904750935"><ele>41.0</ele><time>2026-03-22T12:38:13Z</time></trkpt><trkpt lat="38.23490454943884" lon="16.245599768911333"><ele>40.99999999999999</ele><time>2026-03-22T12:38:14Z</time></trkpt><trkpt lat="38.23489338136583" lon="16.24568931972273"><ele>41.0</ele><time>2026-03-22T12:38:15Z</time></trkpt><trkpt lat="38.23487823901477" lon="16.245774056502878"><ele>41.0</ele><time>2026-03-22T12:38:16Z</time></trkpt><trkpt lat="38.234885468212916" lon="16.24588975309362"><ele>41.0</ele><time>2026-03-22T12:38:18Z</time></trkpt><trkpt lat="38.234788845356995" lon="16.245918712360858"><ele>41.0</ele><time>2026-03-22T12:38:20Z</time></trkpt><trkpt lat="38.234736973616805" lon="16.24609247527733"><ele>41.0</ele><time>2026-03-22T12:38:23Z</time></trkpt><trkpt lat="38.23477236180462" lon="16.246200426877447"><ele>41.0</ele><time>2026-03-22T12:38:24Z</time></trkpt><trkpt lat="38.23479540302107" lon="16.246317668405727"><ele>41.0</ele><time>2026-03-22T12:38:25Z</time></trkpt><trkpt lat="38.234825116889155" lon="16.246445963315658"><ele>41.0</ele><time>2026-03-22T12:38:26Z</time></trkpt><trkpt lat="38.23486497160567" lon="16.24658755083297"><ele>41.0</ele><time>2026-03-22T12:38:27Z</time></trkpt><trkpt lat="38.234898738832314" lon="16.246716394629768"><ele>41.0</ele><time>2026-03-22T12:38:28Z</time></trkpt><trkpt lat="38.23492897912917" lon="16.246841362677593"><ele>41.0</ele><time>2026-03-22T12:38:29Z</time></trkpt><trkpt lat="38.234960213593425" lon="16.24695325021449"><ele>40.0</ele><time>2026-03-22T12:38:30Z</time></trkpt><trkpt lat="38.23499339163437" lon="16.24707001197451"><ele>39.0</ele><time>2026-03-22T12:38:31Z</time></trkpt><trkpt lat="38.23502803133437" lon="16.24717216949741"><ele>38.0</ele><time>2026-03-22T12:38:32Z</time></trkpt><trkpt lat="38.235039440769675" lon="16.247273798759636"><ele>37.0</ele><time>2026-03-22T12:38:33Z</time></trkpt><trkpt lat="38.23501180898254" lon="16.24737045693659"><ele>36.0</ele><time>2026-03-22T12:38:34Z</time></trkpt><trkpt lat="38.23496656610583" lon="16.247452695559943"><ele>35.0</ele><time>2026-03-22T12:38:35Z</time></trkpt><trkpt lat="38.23489819931122" lon="16.247495737181694"><ele>34.0</ele><time>2026-03-22T12:38:36Z</time></trkpt><trkpt lat="38.234813154544895" lon="16.247443915733445"><ele>33.0</ele><time>2026-03-22T12:38:37Z</time></trkpt><trkpt lat="38.23474367768891" lon="16.24743250253005"><ele>32.0</ele><time>2026-03-22T12:38:38Z</time></trkpt><trkpt lat="38.234679828755716" lon="16.247387573528634"><ele>31.0</ele><time>2026-03-22T12:38:39Z</time></trkpt><trkpt lat="38.23461959876858" lon="16.247314736062496"><ele>29.999999999999996</ele><time>2026-03-22T12:38:40Z</time></trkpt><trkpt lat="38.23458353930647" lon="16.247211496058476"><ele>29.0</ele><time>2026-03-22T12:38:41Z</time></trkpt><trkpt lat="38.234543469693435" lon="16.247104168975323"><ele>28.4</ele><time>2026-03-22T12:38:42Z</time></trkpt><trkpt lat="38.23451350542563" lon="16.24699156854769"><ele>27.799999999999997</ele><time>2026-03-22T12:38:43Z</time></trkpt><trkpt lat="38.234478079822" lon="16.246876960637007"><ele>27.200000000000003</ele><time>2026-03-22T12:38:44Z</time></trkpt><trkpt lat="38.23445463439936" lon="16.246763011643644"><ele>26.6</ele><time>2026-03-22T12:38:45Z</time></trkpt><trkpt lat="38.23444200814789" lon="16.24663415544341"><ele>26.0</ele><time>2026-03-22T12:38:46Z</time></trkpt><trkpt lat="38.23443735210622" lon="16.246496075124753"><ele>26.499999999999996</ele><time>2026-03-22T12:38:47Z</time></trkpt><trkpt lat="38.23443462125204" lon="16.24639096967989"><ele>27.0</ele><time>2026-03-22T12:38:48Z</time></trkpt><trkpt lat="38.2344221870848" lon="16.246299755933627"><ele>27.5</ele><time>2026-03-22T12:38:49Z</time></trkpt><trkpt lat="38.234399893591494" lon="16.246220824461354"><ele>28.0</ele><time>2026-03-22T12:38:51Z</time></trkpt><trkpt lat="38.23434197578121" lon="16.246183989392406"><ele>28.499999999999996</ele><time>2026-03-22T12:38:54Z</time></trkpt><trkpt lat="38.234219823844604" lon="16.24630117759888"><ele>29.0</ele><time>2026-03-22T12:38:55Z</time></trkpt><trkpt lat="38.23417590843827" lon="16.246377602732785"><ele>28.4</ele><time>2026-03-22T12:38:56Z</time></trkpt><trkpt lat="38.234127181672214" lon="16.246463877545487"><ele>27.799999999999997</ele><time>2026-03-22T12:38:57Z</time></trkpt><trkpt lat="38.234071242260335" lon="16.246562923054327"><ele>27.200000000000003</ele><time>2026-03-22T12:38:58Z</time></trkpt><trkpt lat="38.23401012547075" lon="16.246672187909788"><ele>26.6</ele><time>2026-03-22T12:38:59Z</time></trkpt><trkpt lat="38.233946439554124" lon="16.246789465636073"><ele>26.0</ele><time>2026-03-22T12:39:00Z</time></trkpt><trkpt lat="38.23388133959957" lon="16.246901255127284"><ele>25.5</ele><time>2026-03-22T12:39:01Z</time></trkpt><trkpt lat="38.233811909739295" lon="16.24701432469626"><ele>25.0</ele><time>2026-03-22T12:39:02Z</time></trkpt><trkpt lat="38.23373934580714" lon="16.247129394251374"><ele>24.5</ele><time>2026-03-22T12:39:03Z</time></trkpt><trkpt lat="38.233658426957824" lon="16.247239018529044"><ele>24.0</ele><time>2026-03-22T12:39:04Z</time></trkpt><trkpt lat="38.23356274791079" lon="16.247357092971512"><ele>23.5</ele><time>2026-03-22T12:39:05Z</time></trkpt><trkpt lat="38.23345808774332" lon="16.247482161365387"><ele>23.0</ele><time>2026-03-22T12:39:06Z</time></trkpt><trkpt lat="38.23335089532902" lon="16.247610131269354"><ele>22.5</ele><time>2026-03-22T12:39:07Z</time></trkpt><trkpt lat="38.23324119289362" lon="16.247741097723626"><ele>22.0</ele><time>2026-03-22T12:39:08Z</time></trkpt><trkpt lat="38.233127073398755" lon="16.24788066968985"><ele>21.666666666666664</ele><time>2026-03-22T12:39:09Z</time></trkpt><trkpt lat="38.233017189524574" lon="16.248029814569314"><ele>21.333333333333332</ele><time>2026-03-22T12:39:10Z</time></trkpt><trkpt lat="38.23292898601989" lon="16.24820473835607"><ele>21.0</ele><time>2026-03-22T12:39:11Z</time></trkpt><trkpt lat="38.23285510221643" lon="16.248389529449053"><ele>20.666666666666668</ele><time>2026-03-22T12:39:12Z</time></trkpt><trkpt lat="38.23278280009518" lon="16.248575524355005"><ele>20.333333333333336</ele><time>2026-03-22T12:39:13Z</time></trkpt><trkpt lat="38.23270842729998" lon="16.24876607682738"><ele>20.0</ele><time>2026-03-22T12:39:14Z</time></trkpt><trkpt lat="38.23263371433026" lon="16.248970189655108"><ele>20.0</ele><time>2026-03-22T12:39:15Z</time></trkpt><trkpt lat="38.23253484782286" lon="16.24915636348726"><ele>20.0</ele><time>2026-03-22T12:39:16Z</time></trkpt><trkpt lat="38.232426148095804" lon="16.249347582298586"><ele>20.0</ele><time>2026-03-22T12:39:17Z</time></trkpt><trkpt lat="38.232321140399286" lon="16.249541658194214"><ele>19.333333333333336</ele><time>2026-03-22T12:39:18Z</time></trkpt><trkpt lat="38.232224803593965" lon="16.249718657394666"><ele>18.666666666666668</ele><time>2026-03-22T12:39:19Z</time></trkpt><trkpt lat="38.23212955680827" lon="16.249891494252942"><ele>18.0</ele><time>2026-03-22T12:39:20Z</time></trkpt><trkpt lat="38.232030616079506" lon="16.25007103416195"><ele>17.666666666666668</ele><time>2026-03-22T12:39:21Z</time></trkpt><trkpt lat="38.23192725952777" lon="16.25026031533866"><ele>17.333333333333336</ele><time>2026-03-22T12:39:22Z</time></trkpt><trkpt lat="38.231835961241494" lon="16.250427929159233"><ele>17.0</ele><time>2026-03-22T12:39:23Z</time></trkpt><trkpt lat="38.23173729044532" lon="16.250609078187328"><ele>16.666666666666668</ele><time>2026-03-22T12:39:24Z</time></trkpt><trkpt lat="38.23164689458459" lon="16.250775035055145"><ele>16.333333333333332</ele><time>2026-03-22T12:39:25Z</time></trkpt><trkpt lat="38.23155583472116" lon="16.250942211106054"><ele>16.0</ele><time>2026-03-22T12:39:26Z</time></trkpt><trkpt lat="38.231468412863784" lon="16.251103533227017"><ele>15.75</ele><time>2026-03-22T12:39:27Z</time></trkpt><trkpt lat="38.23139004362781" lon="16.25124361495159"><ele>15.5</ele><time>2026-03-22T12:39:28Z</time></trkpt><trkpt lat="38.23131103127121" lon="16.251385571558004"><ele>15.25</ele><time>2026-03-22T12:39:29Z</time></trkpt><trkpt lat="38.23123197800034" lon="16.25152329658905"><ele>15.0</ele><time>2026-03-22T12:39:30Z</time></trkpt><trkpt lat="38.23115471490345" lon="16.251654069196203"><ele>14.75</ele><time>2026-03-22T12:39:31Z</time></trkpt><trkpt lat="38.23107006721913" lon="16.251789525153015"><ele>14.5</ele><time>2026-03-22T12:39:32Z</time></trkpt><trkpt lat="38.230987425800926" lon="16.251917740898914"><ele>14.25</ele><time>2026-03-22T12:39:33Z</time></trkpt><trkpt lat="38.2309056623899" lon="16.252042856117644"><ele>14.0</ele><time>2026-03-22T12:39:34Z</time></trkpt><trkpt lat="38.23082586657039" lon="16.25216376552417"><ele>14.0</ele><time>2026-03-22T12:39:35Z</time></trkpt><trkpt lat="38.23075029289043" lon="16.25227827732091"><ele>14.0</ele><time>2026-03-22T12:39:36Z</time></trkpt><trkpt lat="38.23066930677945" lon="16.252400989941275"><ele>14.0</ele><time>2026-03-22T12:39:37Z</time></trkpt><trkpt lat="38.230590819614726" lon="16.252519916427158"><ele>14.0</ele><time>2026-03-22T12:39:38Z</time></trkpt><trkpt lat="38.23051612031418" lon="16.252634787888603"><ele>13.399999999999999</ele><time>2026-03-22T12:39:39Z</time></trkpt><trkpt lat="38.23044384105859" lon="16.25274613464917"><ele>12.799999999999999</ele><time>2026-03-22T12:39:40Z</time></trkpt><trkpt lat="38.23037117517293" lon="16.252858073917874"><ele>12.2</ele><time>2026-03-22T12:39:41Z</time></trkpt><trkpt lat="38.230301222050294" lon="16.252965599370597"><ele>11.600000000000001</ele><time>2026-03-22T12:39:42Z</time></trkpt><trkpt lat="38.23023530558532" lon="16.253066384665342"><ele>11.0</ele><time>2026-03-22T12:39:43Z</time></trkpt><trkpt lat="38.23017354265105" lon="16.25316081617549"><ele>11.0</ele><time>2026-03-22T12:39:44Z</time></trkpt><trkpt lat="38.23011465246863" lon="16.253271215790175"><ele>11.0</ele><time>2026-03-22T12:39:45Z</time></trkpt><trkpt lat="38.23006443793159" lon="16.253383741402182"><ele>11.0</ele><time>2026-03-22T12:39:46Z</time></trkpt><trkpt lat="38.229994091394566" lon="16.25349979979356"><ele>11.0</ele><time>2026-03-22T12:39:47Z</time></trkpt><trkpt lat="38.229931125171625" lon="16.253589412681855"><ele>11.0</ele><time>2026-03-22T12:39:48Z</time></trkpt><trkpt lat="38.22984350570314" lon="16.253666948630013"><ele>11.0</ele><time>2026-03-22T12:39:49Z</time></trkpt><trkpt lat="38.22979082287781" lon="16.253773752378745"><ele>11.0</ele><time>2026-03-22T12:39:50Z</time></trkpt><trkpt lat="38.22972716677319" lon="16.25385210992637"><ele>11.0</ele><time>2026-03-22T12:39:51Z</time></trkpt><trkpt lat="38.22964630919539" lon="16.253921567119555"><ele>11.0</ele><time>2026-03-22T12:39:52Z</time></trkpt><trkpt lat="38.229604807897175" lon="16.254008761378106"><ele>11.0</ele><time>2026-03-22T12:39:53Z</time></trkpt><trkpt lat="38.229563523455234" lon="16.254113453396457"><ele>10.75</ele><time>2026-03-22T12:39:54Z</time></trkpt><trkpt lat="38.22949386516789" lon="16.254218501123447"><ele>10.5</ele><time>2026-03-22T12:39:55Z</time></trkpt><trkpt lat="38.2294142582257" lon="16.25432350177155"><ele>10.25</ele><time>2026-03-22T12:39:56Z</time></trkpt><trkpt lat="38.229357660553056" lon="16.25444176301946"><ele>10.0</ele><time>2026-03-22T12:39:57Z</time></trkpt><trkpt lat="38.22927849748753" lon="16.254565585153873"><ele>10.0</ele><time>2026-03-22T12:39:58Z</time></trkpt><trkpt lat="38.22919725656082" lon="16.254694354474783"><ele>10.0</ele><time>2026-03-22T12:39:59Z</time></trkpt><trkpt lat="38.229131152336755" lon="16.25479913157303"><ele>10.0</ele><time>2026-03-22T12:40:00Z</time></trkpt><trkpt lat="38.22905238964885" lon="16.254923972846033"><ele>10.0</ele><time>2026-03-22T12:40:01Z</time></trkpt><trkpt lat="38.228978856801625" lon="16.25504052445806"><ele>9.75</ele><time>2026-03-22T12:40:02Z</time></trkpt><trkpt lat="38.22889099775519" lon="16.25517978364124"><ele>9.5</ele><time>2026-03-22T12:40:03Z</time></trkpt><trkpt lat="38.22882359828465" lon="16.255318283420877"><ele>9.25</ele><time>2026-03-22T12:40:04Z</time></trkpt><trkpt lat="38.228741485575334" lon="16.255444124503725"><ele>9.0</ele><time>2026-03-22T12:40:05Z</time></trkpt><trkpt lat="38.2286572056031" lon="16.25557174321041"><ele>9.0</ele><time>2026-03-22T12:40:06Z</time></trkpt><trkpt lat="38.2285767551531" lon="16.255693781417474"><ele>9.0</ele><time>2026-03-22T12:40:07Z</time></trkpt><trkpt lat="38.228499133816804" lon="16.255817129543352"><ele>9.0</ele><time>2026-03-22T12:40:08Z</time></trkpt><trkpt lat="38.22842130066506" lon="16.255946602421293"><ele>9.0</ele><time>2026-03-22T12:40:09Z</time></trkpt><trkpt lat="38.2283300608021" lon="16.256056588907743"><ele>9.0</ele><time>2026-03-22T12:40:10Z</time></trkpt><trkpt lat="38.228256733055" lon="16.25616320870783"><ele>9.0</ele><time>2026-03-22T12:40:11Z</time></trkpt><trkpt lat="38.228160819676944" lon="16.25629625045551"><ele>9.0</ele><time>2026-03-22T12:40:12Z</time></trkpt><trkpt lat="38.22806802387788" lon="16.256423320336523"><ele>9.0</ele><time>2026-03-22T12:40:13Z</time></trkpt><trkpt lat="38.22797814321589" lon="16.25654600414934"><ele>8.25</ele><time>2026-03-22T12:40:14Z</time></trkpt><trkpt lat="38.22788933073341" lon="16.256667229922424"><ele>7.5</ele><time>2026-03-22T12:40:15Z</time></trkpt><trkpt lat="38.227798221354966" lon="16.256794112663044"><ele>6.75</ele><time>2026-03-22T12:40:16Z</time></trkpt><trkpt lat="38.22771394391928" lon="16.256911596566994"><ele>6.0</ele><time>2026-03-22T12:40:17Z</time></trkpt><trkpt lat="38.22763275563679" lon="16.25702477410621"><ele>6.0</ele><time>2026-03-22T12:40:18Z</time></trkpt><trkpt lat="38.22755083034956" lon="16.257138979088168"><ele>6.0</ele><time>2026-03-22T12:40:19Z</time></trkpt><trkpt lat="38.22746463182926" lon="16.257289343535405"><ele>6.0</ele><time>2026-03-22T12:40:20Z</time></trkpt><trkpt lat="38.227339802993875" lon="16.25741631501095"><ele>6.0</ele><time>2026-03-22T12:40:21Z</time></trkpt><trkpt lat="38.22729276592647" lon="16.257498724392082"><ele>6.199999999999999</ele><time>2026-03-22T12:40:22Z</time></trkpt><trkpt lat="38.22722069600459" lon="16.257599190838103"><ele>6.3999999999999995</ele><time>2026-03-22T12:40:23Z</time></trkpt><trkpt lat="38.227155635610536" lon="16.25768988590044"><ele>6.6</ele><time>2026-03-22T12:40:24Z</time></trkpt><trkpt lat="38.22709805355923" lon="16.257770156067068"><ele>6.8</ele><time>2026-03-22T12:40:25Z</time></trkpt><trkpt lat="38.227070812835144" lon="16.25786902768657"><ele>7.0</ele><time>2026-03-22T12:40:26Z</time></trkpt><trkpt lat="38.22703235009632" lon="16.258013455424333"><ele>7.0</ele><time>2026-03-22T12:40:28Z</time></trkpt><trkpt lat="38.227064202695296" lon="16.258093777898182"><ele>6.999999999999999</ele><time>2026-03-22T12:40:29Z</time></trkpt><trkpt lat="38.22711383919837" lon="16.25816486317198"><ele>6.999999999999999</ele><time>2026-03-22T12:40:30Z</time></trkpt><trkpt lat="38.2271970145372" lon="16.258174390575753"><ele>7.0</ele><time>2026-03-22T12:40:31Z</time></trkpt><trkpt lat="38.22725759614205" lon="16.258237544317456"><ele>7.0</ele><time>2026-03-22T12:40:33Z</time></trkpt><trkpt lat="38.22716726489254" lon="16.25842715073011"><ele>7.0</ele><time>2026-03-22T12:40:34Z</time></trkpt><trkpt lat="38.22711441538062" lon="16.25834332910931"><ele>6.999999999999999</ele><time>2026-03-22T12:40:35Z</time></trkpt><trkpt lat="38.22719876333591" lon="16.25845776049065"><ele>6.999999999999999</ele><time>2026-03-22T12:40:36Z</time></trkpt><trkpt lat="38.22729272183149" lon="16.25857926140345"><ele>7.0</ele><time>2026-03-22T12:40:38Z</time></trkpt><trkpt lat="38.227355154375" lon="16.25864318148147"><ele>7.0</ele><time>2026-03-22T12:40:39Z</time></trkpt><trkpt lat="38.227452719305134" lon="16.25869029768706"><ele>6.8</ele><time>2026-03-22T12:40:41Z</time></trkpt><trkpt lat="38.227556523208236" lon="16.258520762341334"><ele>6.6</ele><time>2026-03-22T12:40:44Z</time></trkpt><trkpt lat="38.227597924458756" lon="16.258435015784393"><ele>6.3999999999999995</ele><time>2026-03-22T12:40:45Z</time></trkpt><trkpt lat="38.227654604513795" lon="16.2583522701199"><ele>6.199999999999999</ele><time>2026-03-22T12:40:46Z</time></trkpt><trkpt lat="38.22772220814216" lon="16.258288862443592"><ele>6.0</ele><time>2026-03-22T12:40:47Z</time></trkpt><trkpt lat="38.22776292130743" lon="16.258216996584395"><ele>6.0</ele><time>2026-03-22T12:40:48Z</time></trkpt><trkpt lat="38.22782324214711" lon="16.25809398853157"><ele>6.0</ele><time>2026-03-22T12:40:50Z</time></trkpt><trkpt lat="38.22799468975468" lon="16.25821049989339"><ele>6.0</ele><time>2026-03-22T12:40:56Z</time></trkpt><trkpt lat="38.228045673657554" lon="16.258151823205537"><ele>6.0</ele><time>2026-03-22T12:41:00Z</time></trkpt><trkpt lat="38.2281072811196" lon="16.258184114046255"><ele>6.0</ele><time>2026-03-22T12:41:28Z</time></trkpt><trkpt lat="38.2280330179363" lon="16.258233988196668"><ele>6.0</ele><time>2026-03-22T12:58:15Z</time></trkpt><trkpt lat="38.22796203806835" lon="16.258228028753084"><ele>6.0</ele><time>2026-03-22T12:58:22Z</time></trkpt><trkpt lat="38.22788743728735" lon="16.258232535950867"><ele>6.0</ele><time>2026-03-22T12:58:30Z</time></trkpt><trkpt lat="38.22782215367035" lon="16.25821874466953"><ele>6.0</ele><time>2026-03-22T12:59:13Z</time></trkpt><trkpt lat="38.22792045086112" lon="16.25822771228413"><ele>6.0</ele><time>2026-03-22T13:03:51Z</time></trkpt><trkpt lat="38.22789567212894" lon="16.258153779655515"><ele>6.0</ele><time>2026-03-22T13:03:54Z</time></trkpt><trkpt lat="38.22781180328897" lon="16.258223920125978"><ele>6.0</ele><time>2026-03-22T13:03:58Z</time></trkpt><trkpt lat="38.22774092392052" lon="16.25831365617698"><ele>6.0</ele><time>2026-03-22T13:04:00Z</time></trkpt><trkpt lat="38.22759678667439" lon="16.25837372854541"><ele>6.0</ele><time>2026-03-22T13:04:02Z</time></trkpt><trkpt lat="38.22755769549317" lon="16.258439272102528"><ele>6.0</ele><time>2026-03-22T13:04:03Z</time></trkpt><trkpt lat="38.22749842424658" lon="16.25853376238732"><ele>6.0</ele><time>2026-03-22T13:04:05Z</time></trkpt><trkpt lat="38.227453567814884" lon="16.258598575100148"><ele>6.0</ele><time>2026-03-22T13:04:07Z</time></trkpt><trkpt lat="38.227408247751626" lon="16.258662984369025"><ele>6.0</ele><time>2026-03-22T13:04:10Z</time></trkpt><trkpt lat="38.227369726978885" lon="16.258577377873895"><ele>6.0</ele><time>2026-03-22T13:04:13Z</time></trkpt><trkpt lat="38.22728109221877" lon="16.258491192382618"><ele>6.0</ele><time>2026-03-22T13:04:15Z</time></trkpt><trkpt lat="38.227196539192235" lon="16.258421665298926"><ele>6.0</ele><time>2026-03-22T13:04:17Z</time></trkpt><trkpt lat="38.22717611648671" lon="16.25831929006461"><ele>6.0</ele><time>2026-03-22T13:04:19Z</time></trkpt><trkpt lat="38.22721867182255" lon="16.25824081584695"><ele>6.166666666666667</ele><time>2026-03-22T13:04:21Z</time></trkpt><trkpt lat="38.22713210040241" lon="16.258119423535913"><ele>6.333333333333334</ele><time>2026-03-22T13:04:26Z</time></trkpt><trkpt lat="38.22708881945592" lon="16.258049378982992"><ele>6.5</ele><time>2026-03-22T13:04:29Z</time></trkpt><trkpt lat="38.22705842476224" lon="16.2579754865633"><ele>6.666666666666667</ele><time>2026-03-22T13:13:37Z</time></trkpt><trkpt lat="38.22699301226524" lon="16.257980900272045"><ele>6.833333333333334</ele><time>2026-03-22T13:13:48Z</time></trkpt><trkpt lat="38.22704119203964" lon="16.257871415978272"><ele>7.0</ele><time>2026-03-22T13:13:51Z</time></trkpt><trkpt lat="38.22710620735107" lon="16.25781169047247"><ele>7.0</ele><time>2026-03-22T13:13:53Z</time></trkpt><trkpt lat="38.22717144499681" lon="16.25774473638138"><ele>7.0</ele><time>2026-03-22T13:13:55Z</time></trkpt><trkpt lat="38.227232667420076" lon="16.257686249835523"><ele>7.0</ele><time>2026-03-22T13:13:57Z</time></trkpt><trkpt lat="38.227280342756664" lon="16.257623497749268"><ele>7.0</ele><time>2026-03-22T13:13:59Z</time></trkpt><trkpt lat="38.22732295093525" lon="16.2575596142033"><ele>7.0</ele><time>2026-03-22T13:14:01Z</time></trkpt><trkpt lat="38.22737488436652" lon="16.257503732115183"><ele>7.0</ele><time>2026-03-22T13:14:03Z</time></trkpt><trkpt lat="38.22742085498308" lon="16.257446257720733"><ele>7.0</ele><time>2026-03-22T13:14:05Z</time></trkpt><trkpt lat="38.227464493060616" lon="16.25737807067576"><ele>6.857142857142857</ele><time>2026-03-22T13:14:07Z</time></trkpt><trkpt lat="38.22751852512131" lon="16.25731300137782"><ele>6.714285714285714</ele><time>2026-03-22T13:14:09Z</time></trkpt><trkpt lat="38.22756868547116" lon="16.25725754761113"><ele>6.571428571428571</ele><time>2026-03-22T13:14:11Z</time></trkpt><trkpt lat="38.227621326815225" lon="16.257174746642356"><ele>6.428571428571429</ele><time>2026-03-22T13:14:14Z</time></trkpt><trkpt lat="38.227617032889775" lon="16.257084424704694"><ele>6.285714285714286</ele><time>2026-03-22T13:14:18Z</time></trkpt><trkpt lat="38.22757700620761" lon="16.257157812109472"><ele>6.142857142857142</ele><time>2026-03-22T13:14:21Z</time></trkpt><trkpt lat="38.22750605517998" lon="16.25718368975154"><ele>6.0</ele><time>2026-03-22T13:14:25Z</time></trkpt><trkpt lat="38.22747828697882" lon="16.257255905249185"><ele>5.833333333333333</ele><time>2026-03-22T13:14:49Z</time></trkpt><trkpt lat="38.22745607769618" lon="16.257341877677906"><ele>5.666666666666667</ele><time>2026-03-22T13:15:23Z</time></trkpt><trkpt lat="38.22743711357944" lon="16.257422494880647"><ele>5.5</ele><time>2026-03-22T13:15:25Z</time></trkpt><trkpt lat="38.227359395819015" lon="16.25740584147193"><ele>5.333333333333334</ele><time>2026-03-22T13:15:26Z</time></trkpt><trkpt lat="38.227295148582925" lon="16.257495403057444"><ele>5.166666666666667</ele><time>2026-03-22T13:15:28Z</time></trkpt><trkpt lat="38.22722106434477" lon="16.25759867740377"><ele>5.0</ele><time>2026-03-22T13:15:30Z</time></trkpt><trkpt lat="38.2271425773813" lon="16.257708089314402"><ele>5.4</ele><time>2026-03-22T13:15:32Z</time></trkpt><trkpt lat="38.22707133152437" lon="16.257807407027876"><ele>5.8</ele><time>2026-03-22T13:15:34Z</time></trkpt><trkpt lat="38.22701323806436" lon="16.257912626812434"><ele>6.199999999999999</ele><time>2026-03-22T13:15:36Z</time></trkpt><trkpt lat="38.22694593148194" lon="16.257997825696656"><ele>6.6</ele><time>2026-03-22T13:15:38Z</time></trkpt><trkpt lat="38.2268913039158" lon="16.258065949034386"><ele>7.0</ele><time>2026-03-22T13:15:41Z</time></trkpt><trkpt lat="38.22681850700965" lon="16.258066340517086"><ele>7.0</ele><time>2026-03-22T13:15:45Z</time></trkpt><trkpt lat="38.22673804230294" lon="16.257975951476944"><ele>7.0</ele><time>2026-03-22T13:15:47Z</time></trkpt><trkpt lat="38.226675926940764" lon="16.25788979249957"><ele>7.0</ele><time>2026-03-22T13:15:48Z</time></trkpt><trkpt lat="38.226558480985254" lon="16.257777470095228"><ele>7.0</ele><time>2026-03-22T13:15:49Z</time></trkpt><trkpt lat="38.226419835781456" lon="16.25763766480391"><ele>7.0</ele><time>2026-03-22T13:15:50Z</time></trkpt><trkpt lat="38.22625373850388" lon="16.257489957328254"><ele>7.0</ele><time>2026-03-22T13:15:51Z</time></trkpt><trkpt lat="38.22608637966074" lon="16.25729602330172"><ele>7.0</ele><time>2026-03-22T13:15:52Z</time></trkpt><trkpt lat="38.22592571631366" lon="16.257134434303847"><ele>7.333333333333334</ele><time>2026-03-22T13:15:53Z</time></trkpt><trkpt lat="38.2257829084677" lon="16.256990580556266"><ele>7.666666666666666</ele><time>2026-03-22T13:15:54Z</time></trkpt><trkpt lat="38.22564659914847" lon="16.256853132752063"><ele>8.0</ele><time>2026-03-22T13:15:55Z</time></trkpt><trkpt lat="38.225519863326" lon="16.256724872400685"><ele>7.25</ele><time>2026-03-22T13:15:56Z</time></trkpt><trkpt lat="38.225405663233275" lon="16.25660909736216"><ele>6.5</ele><time>2026-03-22T13:15:57Z</time></trkpt><trkpt lat="38.22530120726888" lon="16.256503200499584"><ele>5.75</ele><time>2026-03-22T13:15:58Z</time></trkpt><trkpt lat="38.22520090970588" lon="16.256401752707035"><ele>5.0</ele><time>2026-03-22T13:15:59Z</time></trkpt><trkpt lat="38.22509847486193" lon="16.25632000293491"><ele>5.0</ele><time>2026-03-22T13:16:00Z</time></trkpt><trkpt lat="38.22502740474563" lon="16.25619213572841"><ele>5.0</ele><time>2026-03-22T13:16:01Z</time></trkpt><trkpt lat="38.2249301056329" lon="16.25611541552628"><ele>5.0</ele><time>2026-03-22T13:16:02Z</time></trkpt><trkpt lat="38.22484828682062" lon="16.2560340747775"><ele>5.0</ele><time>2026-03-22T13:16:03Z</time></trkpt><trkpt lat="38.22475726030499" lon="16.25595938328587"><ele>5.0</ele><time>2026-03-22T13:16:04Z</time></trkpt><trkpt lat="38.22466566949185" lon="16.25588340764374"><ele>5.0</ele><time>2026-03-22T13:16:05Z</time></trkpt><trkpt lat="38.22458370542792" lon="16.255794814081206"><ele>5.0</ele><time>2026-03-22T13:16:06Z</time></trkpt><trkpt lat="38.22450331500773" lon="16.255714276050433"><ele>5.0</ele><time>2026-03-22T13:16:07Z</time></trkpt><trkpt lat="38.224421471524224" lon="16.255630052616063"><ele>5.0</ele><time>2026-03-22T13:16:08Z</time></trkpt><trkpt lat="38.2243449623445" lon="16.255551921415844"><ele>5.166666666666667</ele><time>2026-03-22T13:16:09Z</time></trkpt><trkpt lat="38.224280261789644" lon="16.255484424417187"><ele>5.333333333333334</ele><time>2026-03-22T13:16:10Z</time></trkpt><trkpt lat="38.22421793379766" lon="16.25542762140387"><ele>5.5</ele><time>2026-03-22T13:16:11Z</time></trkpt><trkpt lat="38.22415321735446" lon="16.255375155477385"><ele>5.666666666666667</ele><time>2026-03-22T13:16:12Z</time></trkpt><trkpt lat="38.22409141206231" lon="16.25530758052027"><ele>5.833333333333333</ele><time>2026-03-22T13:16:13Z</time></trkpt><trkpt lat="38.224024999548845" lon="16.25524185785893"><ele>6.0</ele><time>2026-03-22T13:16:14Z</time></trkpt><trkpt lat="38.22396244427274" lon="16.255182260309706"><ele>6.0</ele><time>2026-03-22T13:16:15Z</time></trkpt><trkpt lat="38.22390368253541" lon="16.25511792002482"><ele>6.0</ele><time>2026-03-22T13:16:16Z</time></trkpt><trkpt lat="38.22384882635932" lon="16.25505203804251"><ele>6.0</ele><time>2026-03-22T13:16:17Z</time></trkpt><trkpt lat="38.22379141720761" lon="16.25497107676016"><ele>6.0</ele><time>2026-03-22T13:16:18Z</time></trkpt><trkpt lat="38.22371661940962" lon="16.25489726105843"><ele>6.0</ele><time>2026-03-22T13:16:19Z</time></trkpt><trkpt lat="38.22364572257832" lon="16.2548110708834"><ele>6.0</ele><time>2026-03-22T13:16:20Z</time></trkpt><trkpt lat="38.22357381932935" lon="16.254722882916038"><ele>6.0</ele><time>2026-03-22T13:16:21Z</time></trkpt><trkpt lat="38.22350159668617" lon="16.254662270191123"><ele>6.0</ele><time>2026-03-22T13:16:22Z</time></trkpt><trkpt lat="38.22343369138042" lon="16.254598817603068"><ele>6.0</ele><time>2026-03-22T13:16:23Z</time></trkpt><trkpt lat="38.223355321384254" lon="16.25453268921742"><ele>6.0</ele><time>2026-03-22T13:16:24Z</time></trkpt><trkpt lat="38.22327245153327" lon="16.25446057401599"><ele>6.0</ele><time>2026-03-22T13:16:25Z</time></trkpt><trkpt lat="38.223183213694384" lon="16.254375775243656"><ele>5.75</ele><time>2026-03-22T13:16:26Z</time></trkpt><trkpt lat="38.22308102528913" lon="16.254277352765055"><ele>5.5</ele><time>2026-03-22T13:16:27Z</time></trkpt><trkpt lat="38.222967174793574" lon="16.254169396563565"><ele>5.25</ele><time>2026-03-22T13:16:28Z</time></trkpt><trkpt lat="38.222839916755284" lon="16.254045398862093"><ele>5.0</ele><time>2026-03-22T13:16:29Z</time></trkpt><trkpt lat="38.22270590138009" lon="16.25391706663997"><ele>5.0</ele><time>2026-03-22T13:16:30Z</time></trkpt><trkpt lat="38.22256287129847" lon="16.25378766867285"><ele>5.0</ele><time>2026-03-22T13:16:31Z</time></trkpt><trkpt lat="38.222423113106345" lon="16.2536360589249"><ele>5.0</ele><time>2026-03-22T13:16:32Z</time></trkpt><trkpt lat="38.22227090432683" lon="16.253488915400652"><ele>5.0</ele><time>2026-03-22T13:16:33Z</time></trkpt><trkpt lat="38.22211839092084" lon="16.25333551692563"><ele>5.0</ele><time>2026-03-22T13:16:34Z</time></trkpt><trkpt lat="38.22197059756299" lon="16.253198273723157"><ele>5.0</ele><time>2026-03-22T13:16:35Z</time></trkpt><trkpt lat="38.221811020843674" lon="16.253054034613015"><ele>5.0</ele><time>2026-03-22T13:16:36Z</time></trkpt><trkpt lat="38.22164659880613" lon="16.252902958361354"><ele>5.0</ele><time>2026-03-22T13:16:37Z</time></trkpt><trkpt lat="38.2214914318811" lon="16.252730739132083"><ele>5.0</ele><time>2026-03-22T13:16:38Z</time></trkpt><trkpt lat="38.221331101479606" lon="16.252575578951653"><ele>5.0</ele><time>2026-03-22T13:16:39Z</time></trkpt><trkpt lat="38.22116749546621" lon="16.252414613027817"><ele>5.0</ele><time>2026-03-22T13:16:40Z</time></trkpt><trkpt lat="38.221009518694686" lon="16.25226053174173"><ele>5.0</ele><time>2026-03-22T13:16:41Z</time></trkpt><trkpt lat="38.220845893370374" lon="16.25210160815523"><ele>5.333333333333334</ele><time>2026-03-22T13:16:42Z</time></trkpt><trkpt lat="38.22067661625347" lon="16.25193630173303"><ele>5.666666666666667</ele><time>2026-03-22T13:16:43Z</time></trkpt><trkpt lat="38.22050929421644" lon="16.25177219267882"><ele>6.0</ele><time>2026-03-22T13:16:44Z</time></trkpt><trkpt lat="38.22034381784787" lon="16.2516078857334"><ele>6.333333333333334</ele><time>2026-03-22T13:16:45Z</time></trkpt><trkpt lat="38.22018263157482" lon="16.25144783853119"><ele>6.666666666666667</ele><time>2026-03-22T13:16:46Z</time></trkpt><trkpt lat="38.22002331348702" lon="16.251289646371117"><ele>7.0</ele><time>2026-03-22T13:16:47Z</time></trkpt><trkpt lat="38.219869502489594" lon="16.25113654241041"><ele>7.666666666666667</ele><time>2026-03-22T13:16:48Z</time></trkpt><trkpt lat="38.21972053446974" lon="16.250987990880187"><ele>8.333333333333334</ele><time>2026-03-22T13:16:49Z</time></trkpt><trkpt lat="38.21956927018993" lon="16.25083714957733"><ele>9.0</ele><time>2026-03-22T13:16:50Z</time></trkpt><trkpt lat="38.21941391347018" lon="16.250682227189362"><ele>7.666666666666667</ele><time>2026-03-22T13:16:51Z</time></trkpt><trkpt lat="38.21925913095053" lon="16.250527279177522"><ele>6.333333333333334</ele><time>2026-03-22T13:16:52Z</time></trkpt><trkpt lat="38.219101780942225" lon="16.250369339069614"><ele>5.0</ele><time>2026-03-22T13:16:53Z</time></trkpt><trkpt lat="38.21894148266615" lon="16.2502084396707"><ele>5.0</ele><time>2026-03-22T13:16:54Z</time></trkpt><trkpt lat="38.21878528032939" lon="16.250051651451283"><ele>5.0</ele><time>2026-03-22T13:16:55Z</time></trkpt><trkpt lat="38.21862649945991" lon="16.249892481604522"><ele>5.0</ele><time>2026-03-22T13:16:56Z</time></trkpt><trkpt lat="38.21847051692672" lon="16.249735617257034"><ele>4.666666666666667</ele><time>2026-03-22T13:16:57Z</time></trkpt><trkpt lat="38.218307745341214" lon="16.24957197133522"><ele>4.333333333333333</ele><time>2026-03-22T13:16:58Z</time></trkpt><trkpt lat="38.218141264827125" lon="16.249404937783638"><ele>4.0</ele><time>2026-03-22T13:16:59Z</time></trkpt><trkpt lat="38.217973933866084" lon="16.24923705113984"><ele>4.333333333333333</ele><time>2026-03-22T13:17:00Z</time></trkpt><trkpt lat="38.21780439453017" lon="16.249066948763645"><ele>4.666666666666667</ele><time>2026-03-22T13:17:01Z</time></trkpt><trkpt lat="38.21763653976211" lon="16.248898549963865"><ele>5.0</ele><time>2026-03-22T13:17:02Z</time></trkpt><trkpt lat="38.21746411865999" lon="16.248725561072597"><ele>5.333333333333334</ele><time>2026-03-22T13:17:03Z</time></trkpt><trkpt lat="38.21728591218437" lon="16.248546640341292"><ele>5.666666666666667</ele><time>2026-03-22T13:17:04Z</time></trkpt><trkpt lat="38.217111867192166" lon="16.248371897307713"><ele>6.0</ele><time>2026-03-22T13:17:05Z</time></trkpt><trkpt lat="38.216937992056245" lon="16.248197324842952"><ele>6.333333333333334</ele><time>2026-03-22T13:17:06Z</time></trkpt><trkpt lat="38.21676397685678" lon="16.248024390665005"><ele>6.666666666666667</ele><time>2026-03-22T13:17:07Z</time></trkpt><trkpt lat="38.21659005322937" lon="16.247852001311742"><ele>7.0</ele><time>2026-03-22T13:17:08Z</time></trkpt><trkpt lat="38.21641482521122" lon="16.247678319289108"><ele>7.0</ele><time>2026-03-22T13:17:09Z</time></trkpt><trkpt lat="38.21623226809587" lon="16.24752072686586"><ele>7.0</ele><time>2026-03-22T13:17:10Z</time></trkpt><trkpt lat="38.21605942615726" lon="16.247348915130402"><ele>7.0</ele><time>2026-03-22T13:17:11Z</time></trkpt><trkpt lat="38.21589819279438" lon="16.247190880472616"><ele>7.0</ele><time>2026-03-22T13:17:12Z</time></trkpt><trkpt lat="38.215747240147905" lon="16.247042438027403"><ele>7.0</ele><time>2026-03-22T13:17:13Z</time></trkpt><trkpt lat="38.2156131723212" lon="16.246885264365183"><ele>7.0</ele><time>2026-03-22T13:17:14Z</time></trkpt><trkpt lat="38.21548394589912" lon="16.246780456797637"><ele>7.0</ele><time>2026-03-22T13:17:15Z</time></trkpt><trkpt lat="38.215396279556046" lon="16.24665754418325"><ele>6.999999999999999</ele><time>2026-03-22T13:17:16Z</time></trkpt><trkpt lat="38.21531811946626" lon="16.246562193346172"><ele>6.999999999999999</ele><time>2026-03-22T13:17:17Z</time></trkpt><trkpt lat="38.215251361801656" lon="16.24646751220028"><ele>7.0</ele><time>2026-03-22T13:17:18Z</time></trkpt><trkpt lat="38.21521499623109" lon="16.246364330528316"><ele>7.0</ele><time>2026-03-22T13:17:19Z</time></trkpt><trkpt lat="38.215206479340715" lon="16.24624885116861"><ele>7.000000000000001</ele><time>2026-03-22T13:17:20Z</time></trkpt><trkpt lat="38.21522923111945" lon="16.24614238147096"><ele>7.0</ele><time>2026-03-22T13:17:21Z</time></trkpt><trkpt lat="38.215249242941546" lon="16.24604788280085"><ele>7.0</ele><time>2026-03-22T13:17:22Z</time></trkpt><trkpt lat="38.215234099671754" lon="16.245955731503166"><ele>7.0</ele><time>2026-03-22T13:17:23Z</time></trkpt><trkpt lat="38.21518247946077" lon="16.245882594184277"><ele>7.000000000000001</ele><time>2026-03-22T13:17:24Z</time></trkpt><trkpt lat="38.21510398330246" lon="16.245860869181904"><ele>7.0</ele><time>2026-03-22T13:17:25Z</time></trkpt><trkpt lat="38.21501935631412" lon="16.24586130418859"><ele>7.000000000000001</ele><time>2026-03-22T13:17:26Z</time></trkpt><trkpt lat="38.21493666722624" lon="16.245890663435524"><ele>7.0</ele><time>2026-03-22T13:17:27Z</time></trkpt><trkpt lat="38.21485691258894" lon="16.245928112459712"><ele>7.0</ele><time>2026-03-22T13:17:28Z</time></trkpt><trkpt lat="38.214769847750574" lon="16.245930595354807"><ele>7.0</ele><time>2026-03-22T13:17:29Z</time></trkpt><trkpt lat="38.21468300802049" lon="16.245903097996433"><ele>7.000000000000001</ele><time>2026-03-22T13:17:30Z</time></trkpt><trkpt lat="38.214600932984034" lon="16.245829069754677"><ele>7.0</ele><time>2026-03-22T13:17:31Z</time></trkpt><trkpt lat="38.214502580680445" lon="16.24576115729654"><ele>6.75</ele><time>2026-03-22T13:17:32Z</time></trkpt><trkpt lat="38.21439320511865" lon="16.245707013359695"><ele>6.5</ele><time>2026-03-22T13:17:33Z</time></trkpt><trkpt lat="38.214294267718515" lon="16.245604392235762"><ele>6.25</ele><time>2026-03-22T13:17:34Z</time></trkpt><trkpt lat="38.21418349116448" lon="16.245495579370775"><ele>6.0</ele><time>2026-03-22T13:17:35Z</time></trkpt><trkpt lat="38.214069902079984" lon="16.245394580770085"><ele>6.0</ele><time>2026-03-22T13:17:36Z</time></trkpt><trkpt lat="38.213956505789255" lon="16.24528081160422"><ele>6.0</ele><time>2026-03-22T13:17:37Z</time></trkpt><trkpt lat="38.21383362527395" lon="16.245164800348252"><ele>6.0</ele><time>2026-03-22T13:17:38Z</time></trkpt><trkpt lat="38.21371138668053" lon="16.245042889485163"><ele>6.0</ele><time>2026-03-22T13:17:39Z</time></trkpt><trkpt lat="38.21358814974334" lon="16.24491705335287"><ele>6.0</ele><time>2026-03-22T13:17:40Z</time></trkpt><trkpt lat="38.213459816688506" lon="16.244795293867845"><ele>6.0</ele><time>2026-03-22T13:17:41Z</time></trkpt><trkpt lat="38.2133386239508" lon="16.244665402110588"><ele>6.0</ele><time>2026-03-22T13:17:42Z</time></trkpt><trkpt lat="38.213211576533226" lon="16.244530217778227"><ele>6.0</ele><time>2026-03-22T13:17:43Z</time></trkpt><trkpt lat="38.21308109048462" lon="16.24439661429647"><ele>6.0</ele><time>2026-03-22T13:17:44Z</time></trkpt><trkpt lat="38.21294536152673" lon="16.24426235875088"><ele>6.0</ele><time>2026-03-22T13:17:45Z</time></trkpt><trkpt lat="38.21281032591321" lon="16.244128019799035"><ele>6.0</ele><time>2026-03-22T13:17:46Z</time></trkpt><trkpt lat="38.21267467631726" lon="16.243995231688512"><ele>6.0</ele><time>2026-03-22T13:17:47Z</time></trkpt><trkpt lat="38.212547974898946" lon="16.243856714845258"><ele>6.333333333333334</ele><time>2026-03-22T13:17:48Z</time></trkpt><trkpt lat="38.212410534960675" lon="16.243719180128643"><ele>6.666666666666667</ele><time>2026-03-22T13:17:49Z</time></trkpt><trkpt lat="38.2122747384152" lon="16.24357955621341"><ele>7.0</ele><time>2026-03-22T13:17:50Z</time></trkpt><trkpt lat="38.21214202725121" lon="16.243441340903015"><ele>7.0</ele><time>2026-03-22T13:17:51Z</time></trkpt><trkpt lat="38.21200916875253" lon="16.24330802446792"><ele>7.0</ele><time>2026-03-22T13:17:52Z</time></trkpt><trkpt lat="38.2118718029465" lon="16.243174665239486"><ele>7.0</ele><time>2026-03-22T13:17:53Z</time></trkpt><trkpt lat="38.21173569601052" lon="16.243039663263296"><ele>7.0</ele><time>2026-03-22T13:17:54Z</time></trkpt><trkpt lat="38.21160385228032" lon="16.24290027658996"><ele>7.0</ele><time>2026-03-22T13:17:55Z</time></trkpt><trkpt lat="38.21146638257273" lon="16.24276192897691"><ele>7.0</ele><time>2026-03-22T13:17:56Z</time></trkpt><trkpt lat="38.211335835247255" lon="16.24262240056408"><ele>7.0</ele><time>2026-03-22T13:17:57Z</time></trkpt><trkpt lat="38.21120200624981" lon="16.24248077872514"><ele>7.0</ele><time>2026-03-22T13:17:58Z</time></trkpt><trkpt lat="38.21107415413479" lon="16.242341718303276"><ele>7.0</ele><time>2026-03-22T13:17:59Z</time></trkpt><trkpt lat="38.210941056140506" lon="16.242205875687514"><ele>7.333333333333334</ele><time>2026-03-22T13:18:00Z</time></trkpt><trkpt lat="38.21080282379465" lon="16.24206664173342"><ele>7.666666666666666</ele><time>2026-03-22T13:18:01Z</time></trkpt><trkpt lat="38.21065340777477" lon="16.241938405184587"><ele>8.0</ele><time>2026-03-22T13:18:02Z</time></trkpt><trkpt lat="38.21051525451883" lon="16.2418022215045"><ele>7.666666666666666</ele><time>2026-03-22T13:18:03Z</time></trkpt><trkpt lat="38.210377284782304" lon="16.241667966536937"><ele>7.333333333333334</ele><time>2026-03-22T13:18:04Z</time></trkpt><trkpt lat="38.210238705644116" lon="16.241527631296442"><ele>7.0</ele><time>2026-03-22T13:18:05Z</time></trkpt><trkpt lat="38.21010747529925" lon="16.24137619866145"><ele>7.0</ele><time>2026-03-22T13:18:06Z</time></trkpt><trkpt lat="38.209965291865984" lon="16.24123896684027"><ele>7.0</ele><time>2026-03-22T13:18:07Z</time></trkpt><trkpt lat="38.20981768788854" lon="16.241099533849916"><ele>7.0</ele><time>2026-03-22T13:18:08Z</time></trkpt><trkpt lat="38.20966063083446" lon="16.24092784316217"><ele>7.0</ele><time>2026-03-22T13:18:09Z</time></trkpt><trkpt lat="38.209473954824034" lon="16.24071794735106"><ele>7.0</ele><time>2026-03-22T13:18:10Z</time></trkpt><trkpt lat="38.20926902825239" lon="16.24049235648608"><ele>7.0</ele><time>2026-03-22T13:18:11Z</time></trkpt><trkpt lat="38.20904010662836" lon="16.240247347318316"><ele>7.0</ele><time>2026-03-22T13:18:12Z</time></trkpt><trkpt lat="38.20879072535457" lon="16.239981949438437"><ele>6.0</ele><time>2026-03-22T13:18:13Z</time></trkpt><trkpt lat="38.20852623047798" lon="16.239697254499255"><ele>5.0</ele><time>2026-03-22T13:18:14Z</time></trkpt><trkpt lat="38.2082517006456" lon="16.239401328977504"><ele>5.0</ele><time>2026-03-22T13:18:15Z</time></trkpt><trkpt lat="38.20797036106534" lon="16.239098125882037"><ele>5.0</ele><time>2026-03-22T13:18:16Z</time></trkpt><trkpt lat="38.20767682551329" lon="16.238788772970313"><ele>5.0</ele><time>2026-03-22T13:18:17Z</time></trkpt><trkpt lat="38.207383568839205" lon="16.238467882858398"><ele>5.0</ele><time>2026-03-22T13:18:18Z</time></trkpt><trkpt lat="38.207082548084294" lon="16.23813673087468"><ele>5.0</ele><time>2026-03-22T13:18:19Z</time></trkpt><trkpt lat="38.20676895402253" lon="16.237803444229392"><ele>5.0</ele><time>2026-03-22T13:18:20Z</time></trkpt><trkpt lat="38.20645965244461" lon="16.2374601069148"><ele>6.0</ele><time>2026-03-22T13:18:21Z</time></trkpt><trkpt lat="38.20615371002132" lon="16.237118202673553"><ele>7.0</ele><time>2026-03-22T13:18:22Z</time></trkpt><trkpt lat="38.20585049406347" lon="16.236784931703582"><ele>6.5</ele><time>2026-03-22T13:18:23Z</time></trkpt><trkpt lat="38.205571490819324" lon="16.236488544442803"><ele>6.0</ele><time>2026-03-22T13:18:24Z</time></trkpt><trkpt lat="38.20530999485434" lon="16.236204111040266"><ele>7.0</ele><time>2026-03-22T13:18:25Z</time></trkpt><trkpt lat="38.20507267537013" lon="16.23592200739016"><ele>8.0</ele><time>2026-03-22T13:18:26Z</time></trkpt><trkpt lat="38.20483632124495" lon="16.235690135762024"><ele>8.5</ele><time>2026-03-22T13:18:27Z</time></trkpt><trkpt lat="38.20463987479157" lon="16.235449300152112"><ele>9.0</ele><time>2026-03-22T13:18:28Z</time></trkpt><trkpt lat="38.204443406246156" lon="16.235243094444286"><ele>9.0</ele><time>2026-03-22T13:18:29Z</time></trkpt><trkpt lat="38.20427220227459" lon="16.23505600257488"><ele>9.0</ele><time>2026-03-22T13:18:30Z</time></trkpt><trkpt lat="38.20412428292877" lon="16.234899424563366"><ele>9.0</ele><time>2026-03-22T13:18:31Z</time></trkpt><trkpt lat="38.20399905359028" lon="16.234747364799663"><ele>8.666666666666666</ele><time>2026-03-22T13:18:32Z</time></trkpt><trkpt lat="38.20387304552415" lon="16.234636226105913"><ele>8.333333333333332</ele><time>2026-03-22T13:18:33Z</time></trkpt><trkpt lat="38.20375418836764" lon="16.23450476405379"><ele>8.0</ele><time>2026-03-22T13:18:34Z</time></trkpt><trkpt lat="38.20365050416412" lon="16.234377420760136"><ele>8.0</ele><time>2026-03-22T13:18:35Z</time></trkpt><trkpt lat="38.20355035758396" lon="16.234265809485244"><ele>8.0</ele><time>2026-03-22T13:18:36Z</time></trkpt><trkpt lat="38.20345245905131" lon="16.234168286936566"><ele>8.0</ele><time>2026-03-22T13:18:37Z</time></trkpt><trkpt lat="38.20339286128898" lon="16.234055082679642"><ele>8.0</ele><time>2026-03-22T13:18:38Z</time></trkpt><trkpt lat="38.20331186389044" lon="16.23396469492069"><ele>8.0</ele><time>2026-03-22T13:18:39Z</time></trkpt><trkpt lat="38.20322744791401" lon="16.23386589590502"><ele>8.0</ele><time>2026-03-22T13:18:40Z</time></trkpt><trkpt lat="38.20313824188256" lon="16.233767975043737"><ele>8.0</ele><time>2026-03-22T13:18:41Z</time></trkpt><trkpt lat="38.20304140778578" lon="16.233673841378756"><ele>8.0</ele><time>2026-03-22T13:18:42Z</time></trkpt><trkpt lat="38.20294524588956" lon="16.23356922843823"><ele>7.75</ele><time>2026-03-22T13:18:43Z</time></trkpt><trkpt lat="38.20285297015744" lon="16.233460727164264"><ele>7.5</ele><time>2026-03-22T13:18:44Z</time></trkpt><trkpt lat="38.20274965111831" lon="16.233352305542248"><ele>7.25</ele><time>2026-03-22T13:18:45Z</time></trkpt><trkpt lat="38.202651163045196" lon="16.23323627466846"><ele>7.0</ele><time>2026-03-22T13:18:46Z</time></trkpt><trkpt lat="38.202548293504236" lon="16.233118761484793"><ele>6.75</ele><time>2026-03-22T13:18:47Z</time></trkpt><trkpt lat="38.202444375754254" lon="16.232999645516827"><ele>6.5</ele><time>2026-03-22T13:18:48Z</time></trkpt><trkpt lat="38.202336359098695" lon="16.232882692624354"><ele>6.25</ele><time>2026-03-22T13:18:49Z</time></trkpt><trkpt lat="38.202225825061845" lon="16.232763862418654"><ele>6.0</ele><time>2026-03-22T13:18:50Z</time></trkpt><trkpt lat="38.20211418339974" lon="16.23265211175167"><ele>6.0</ele><time>2026-03-22T13:18:51Z</time></trkpt><trkpt lat="38.202001381862694" lon="16.232531604888962"><ele>6.0</ele><time>2026-03-22T13:18:52Z</time></trkpt><trkpt lat="38.20188599239484" lon="16.232410181891787"><ele>6.0</ele><time>2026-03-22T13:18:53Z</time></trkpt><trkpt lat="38.20177367258431" lon="16.232285662292746"><ele>6.0</ele><time>2026-03-22T13:18:54Z</time></trkpt><trkpt lat="38.20166027540745" lon="16.232157270291776"><ele>6.25</ele><time>2026-03-22T13:18:55Z</time></trkpt><trkpt lat="38.201545886226285" lon="16.232038524069313"><ele>6.5</ele><time>2026-03-22T13:18:56Z</time></trkpt><trkpt lat="38.201428204916716" lon="16.231920734461674"><ele>6.75</ele><time>2026-03-22T13:18:57Z</time></trkpt><trkpt lat="38.20131255801934" lon="16.231802252448883"><ele>7.0</ele><time>2026-03-22T13:18:58Z</time></trkpt><trkpt lat="38.201198227844074" lon="16.2316774361353"><ele>6.75</ele><time>2026-03-22T13:18:59Z</time></trkpt><trkpt lat="38.201084964285855" lon="16.23155688150261"><ele>6.5</ele><time>2026-03-22T13:19:00Z</time></trkpt><trkpt lat="38.20097626714222" lon="16.231430802309358"><ele>6.25</ele><time>2026-03-22T13:19:01Z</time></trkpt><trkpt lat="38.20086474575018" lon="16.231304482096515"><ele>6.0</ele><time>2026-03-22T13:19:02Z</time></trkpt><trkpt lat="38.20075055137647" lon="16.23118409310052"><ele>6.0</ele><time>2026-03-22T13:19:03Z</time></trkpt><trkpt lat="38.20063884781945" lon="16.231058977108503"><ele>6.0</ele><time>2026-03-22T13:19:04Z</time></trkpt><trkpt lat="38.200535885932034" lon="16.23091677873194"><ele>6.0</ele><time>2026-03-22T13:19:05Z</time></trkpt><trkpt lat="38.20041450913577" lon="16.230783672998797"><ele>6.0</ele><time>2026-03-22T13:19:06Z</time></trkpt><trkpt lat="38.200298898060176" lon="16.230657006798406"><ele>6.0</ele><time>2026-03-22T13:19:07Z</time></trkpt><trkpt lat="38.20017704944479" lon="16.230523548615622"><ele>6.0</ele><time>2026-03-22T13:19:08Z</time></trkpt><trkpt lat="38.200058351925975" lon="16.23039262138392"><ele>6.0</ele><time>2026-03-22T13:19:09Z</time></trkpt><trkpt lat="38.199927735901696" lon="16.230273980820495"><ele>6.0</ele><time>2026-03-22T13:19:10Z</time></trkpt><trkpt lat="38.19981087905174" lon="16.230133808563252"><ele>6.0</ele><time>2026-03-22T13:19:11Z</time></trkpt><trkpt lat="38.19968904483077" lon="16.230000712135137"><ele>6.0</ele><time>2026-03-22T13:19:12Z</time></trkpt><trkpt lat="38.19956367799793" lon="16.229868634205165"><ele>6.0</ele><time>2026-03-22T13:19:13Z</time></trkpt><trkpt lat="38.19945541691153" lon="16.22972046081279"><ele>6.0</ele><time>2026-03-22T13:19:14Z</time></trkpt><trkpt lat="38.19932999185703" lon="16.229587654967347"><ele>6.0</ele><time>2026-03-22T13:19:15Z</time></trkpt><trkpt lat="38.1992089219534" lon="16.229456626315855"><ele>6.0</ele><time>2026-03-22T13:19:16Z</time></trkpt><trkpt lat="38.19909740654006" lon="16.229331473127257"><ele>6.0</ele><time>2026-03-22T13:19:17Z</time></trkpt><trkpt lat="38.198991570118174" lon="16.229220998032723"><ele>6.0</ele><time>2026-03-22T13:19:18Z</time></trkpt><trkpt lat="38.198887592554726" lon="16.229120620605478"><ele>6.0</ele><time>2026-03-22T13:19:19Z</time></trkpt><trkpt lat="38.19879851537903" lon="16.229022957615896"><ele>6.0</ele><time>2026-03-22T13:19:20Z</time></trkpt><trkpt lat="38.19870963399961" lon="16.228936755369947"><ele>6.0</ele><time>2026-03-22T13:19:21Z</time></trkpt><trkpt lat="38.198605948410155" lon="16.228840248976116"><ele>6.0</ele><time>2026-03-22T13:19:22Z</time></trkpt><trkpt lat="38.198508321089065" lon="16.228727528350046"><ele>6.25</ele><time>2026-03-22T13:19:23Z</time></trkpt><trkpt lat="38.19840109195819" lon="16.228632910787994"><ele>6.5</ele><time>2026-03-22T13:19:24Z</time></trkpt><trkpt lat="38.19828850667047" lon="16.22852771876041"><ele>6.75</ele><time>2026-03-22T13:19:25Z</time></trkpt><trkpt lat="38.198178873145594" lon="16.228411844383785"><ele>7.0</ele><time>2026-03-22T13:19:26Z</time></trkpt><trkpt lat="38.198051554078425" lon="16.22830219010977"><ele>7.0</ele><time>2026-03-22T13:19:27Z</time></trkpt><trkpt lat="38.1979338031457" lon="16.22817125707137"><ele>7.0</ele><time>2026-03-22T13:19:28Z</time></trkpt><trkpt lat="38.19780152089769" lon="16.228050584293793"><ele>7.0</ele><time>2026-03-22T13:19:29Z</time></trkpt><trkpt lat="38.197666107902165" lon="16.227927109151654"><ele>7.0</ele><time>2026-03-22T13:19:30Z</time></trkpt><trkpt lat="38.197525904647975" lon="16.227799764014744"><ele>7.0</ele><time>2026-03-22T13:19:31Z</time></trkpt><trkpt lat="38.19738690117669" lon="16.227672904807083"><ele>7.0</ele><time>2026-03-22T13:19:32Z</time></trkpt><trkpt lat="38.19724917354296" lon="16.2275459867327"><ele>7.0</ele><time>2026-03-22T13:19:33Z</time></trkpt><trkpt lat="38.197112740310175" lon="16.22741970727129"><ele>7.0</ele><time>2026-03-22T13:19:34Z</time></trkpt><trkpt lat="38.196975588243625" lon="16.227292128320006"><ele>7.0</ele><time>2026-03-22T13:19:35Z</time></trkpt><trkpt lat="38.196839974131734" lon="16.227166377090562"><ele>7.0</ele><time>2026-03-22T13:19:36Z</time></trkpt><trkpt lat="38.196704159387515" lon="16.22704051921191"><ele>7.0</ele><time>2026-03-22T13:19:37Z</time></trkpt><trkpt lat="38.196554244007665" lon="16.22690159432936"><ele>7.0</ele><time>2026-03-22T13:19:38Z</time></trkpt><trkpt lat="38.196398212525885" lon="16.22675712593834"><ele>6.666666666666667</ele><time>2026-03-22T13:19:39Z</time></trkpt><trkpt lat="38.196233826500894" lon="16.22660537233745"><ele>6.333333333333334</ele><time>2026-03-22T13:19:40Z</time></trkpt><trkpt lat="38.19605933318448" lon="16.22644428831654"><ele>6.0</ele><time>2026-03-22T13:19:41Z</time></trkpt><trkpt lat="38.19587818296806" lon="16.22627705885331"><ele>6.0</ele><time>2026-03-22T13:19:42Z</time></trkpt><trkpt lat="38.19569203977765" lon="16.226105220273286"><ele>6.0</ele><time>2026-03-22T13:19:43Z</time></trkpt><trkpt lat="38.195499800643674" lon="16.225927754120896"><ele>6.0</ele><time>2026-03-22T13:19:44Z</time></trkpt><trkpt lat="38.1953041202838" lon="16.225747364894683"><ele>6.0</ele><time>2026-03-22T13:19:45Z</time></trkpt><trkpt lat="38.19511056759998" lon="16.22557125121573"><ele>6.5</ele><time>2026-03-22T13:19:46Z</time></trkpt><trkpt lat="38.19491216272452" lon="16.225389821511293"><ele>7.0</ele><time>2026-03-22T13:19:47Z</time></trkpt><trkpt lat="38.194710961053" lon="16.22520658765177"><ele>5.5</ele><time>2026-03-22T13:19:48Z</time></trkpt><trkpt lat="38.19451097668896" lon="16.225023585548477"><ele>4.0</ele><time>2026-03-22T13:19:49Z</time></trkpt><trkpt lat="38.1943095624693" lon="16.224839067726894"><ele>4.5</ele><time>2026-03-22T13:19:50Z</time></trkpt><trkpt lat="38.19410978169282" lon="16.224656046335124"><ele>5.0</ele><time>2026-03-22T13:19:51Z</time></trkpt><trkpt lat="38.19390913993593" lon="16.224472237336823"><ele>5.0</ele><time>2026-03-22T13:19:52Z</time></trkpt><trkpt lat="38.193711043502134" lon="16.224290758968483"><ele>5.0</ele><time>2026-03-22T13:19:53Z</time></trkpt><trkpt lat="38.193513542498835" lon="16.22410982607211"><ele>5.0</ele><time>2026-03-22T13:19:54Z</time></trkpt><trkpt lat="38.19331404479731" lon="16.22392706401441"><ele>5.0</ele><time>2026-03-22T13:19:55Z</time></trkpt><trkpt lat="38.19311201586154" lon="16.223741983066542"><ele>5.0</ele><time>2026-03-22T13:19:56Z</time></trkpt><trkpt lat="38.19290684032629" lon="16.223554019465524"><ele>5.0</ele><time>2026-03-22T13:19:57Z</time></trkpt><trkpt lat="38.1927013578982" lon="16.223365775413733"><ele>5.0</ele><time>2026-03-22T13:19:58Z</time></trkpt><trkpt lat="38.192492842254126" lon="16.223173883025602"><ele>5.0</ele><time>2026-03-22T13:19:59Z</time></trkpt><trkpt lat="38.19228383330217" lon="16.222981178180827"><ele>4.5</ele><time>2026-03-22T13:20:00Z</time></trkpt><trkpt lat="38.19207374460964" lon="16.22278653080541"><ele>4.0</ele><time>2026-03-22T13:20:01Z</time></trkpt><trkpt lat="38.19185864506626" lon="16.222590170566235"><ele>4.0</ele><time>2026-03-22T13:20:02Z</time></trkpt><trkpt lat="38.19164774895551" lon="16.22239624053874"><ele>4.0</ele><time>2026-03-22T13:20:03Z</time></trkpt><trkpt lat="38.19143595525581" lon="16.222196834453957"><ele>4.5</ele><time>2026-03-22T13:20:04Z</time></trkpt><trkpt lat="38.19122624863665" lon="16.222000927998163"><ele>5.0</ele><time>2026-03-22T13:20:05Z</time></trkpt><trkpt lat="38.191016360056665" lon="16.221805192795696"><ele>5.0</ele><time>2026-03-22T13:20:06Z</time></trkpt><trkpt lat="38.19080406274136" lon="16.221611981058643"><ele>5.0</ele><time>2026-03-22T13:20:07Z</time></trkpt><trkpt lat="38.19059483044757" lon="16.221420397923627"><ele>6.5</ele><time>2026-03-22T13:20:08Z</time></trkpt><trkpt lat="38.19039559349202" lon="16.2212348254755"><ele>8.0</ele><time>2026-03-22T13:20:09Z</time></trkpt><trkpt lat="38.19020455270873" lon="16.22105858523138"><ele>8.0</ele><time>2026-03-22T13:20:10Z</time></trkpt><trkpt lat="38.19001923571349" lon="16.220887625117747"><ele>8.0</ele><time>2026-03-22T13:20:11Z</time></trkpt><trkpt lat="38.189832158661595" lon="16.220715252719422"><ele>6.0</ele><time>2026-03-22T13:20:12Z</time></trkpt><trkpt lat="38.189648251575164" lon="16.220545940737196"><ele>4.0</ele><time>2026-03-22T13:20:13Z</time></trkpt><trkpt lat="38.18946392900045" lon="16.220376610268264"><ele>4.0</ele><time>2026-03-22T13:20:14Z</time></trkpt><trkpt lat="38.18927447314054" lon="16.220203850011156"><ele>4.0</ele><time>2026-03-22T13:20:15Z</time></trkpt><trkpt lat="38.189082796181424" lon="16.220028156774884"><ele>2.5</ele><time>2026-03-22T13:20:16Z</time></trkpt><trkpt lat="38.188892044615244" lon="16.219854742628662"><ele>1.0</ele><time>2026-03-22T13:20:17Z</time></trkpt><trkpt lat="38.18870209836655" lon="16.219682108510785"><ele>4.0</ele><time>2026-03-22T13:20:18Z</time></trkpt><trkpt lat="38.188509261102716" lon="16.21950748945858"><ele>7.0</ele><time>2026-03-22T13:20:19Z</time></trkpt><trkpt lat="38.18831706168843" lon="16.219332948845427"><ele>4.5</ele><time>2026-03-22T13:20:20Z</time></trkpt><trkpt lat="38.18811996721979" lon="16.21916361052526"><ele>2.0</ele><time>2026-03-22T13:20:21Z</time></trkpt><trkpt lat="38.187923164716786" lon="16.219001394912723"><ele>3.5</ele><time>2026-03-22T13:20:22Z</time></trkpt><trkpt lat="38.1877301865959" lon="16.21884233155304"><ele>5.0</ele><time>2026-03-22T13:20:23Z</time></trkpt><trkpt lat="38.18753797530562" lon="16.218683900305106"><ele>5.0</ele><time>2026-03-22T13:20:24Z</time></trkpt><trkpt lat="38.18734391367515" lon="16.218523943924655"><ele>5.0</ele><time>2026-03-22T13:20:25Z</time></trkpt><trkpt lat="38.187150310169194" lon="16.218364365116116"><ele>4.5</ele><time>2026-03-22T13:20:26Z</time></trkpt><trkpt lat="38.18696268182212" lon="16.21820122845184"><ele>4.0</ele><time>2026-03-22T13:20:27Z</time></trkpt><trkpt lat="38.18678426053444" lon="16.218025581925122"><ele>4.0</ele><time>2026-03-22T13:20:28Z</time></trkpt><trkpt lat="38.18660702635712" lon="16.21784654370026"><ele>4.0</ele><time>2026-03-22T13:20:29Z</time></trkpt><trkpt lat="38.18643022767168" lon="16.2176690847608"><ele>4.333333333333333</ele><time>2026-03-22T13:20:30Z</time></trkpt><trkpt lat="38.18625955260868" lon="16.21749718345932"><ele>4.666666666666667</ele><time>2026-03-22T13:20:31Z</time></trkpt><trkpt lat="38.18609729260137" lon="16.21733385062363"><ele>5.0</ele><time>2026-03-22T13:20:32Z</time></trkpt><trkpt lat="38.18594606444955" lon="16.21718002713813"><ele>5.333333333333334</ele><time>2026-03-22T13:20:33Z</time></trkpt><trkpt lat="38.18579602562831" lon="16.21702731338358"><ele>5.666666666666667</ele><time>2026-03-22T13:20:34Z</time></trkpt><trkpt lat="38.18564863775606" lon="16.216877313363167"><ele>6.0</ele><time>2026-03-22T13:20:35Z</time></trkpt><trkpt lat="38.18550659202738" lon="16.216733750802483"><ele>6.333333333333334</ele><time>2026-03-22T13:20:36Z</time></trkpt><trkpt lat="38.18535572404693" lon="16.216616683113816"><ele>6.666666666666667</ele><time>2026-03-22T13:20:37Z</time></trkpt><trkpt lat="38.18521828318745" lon="16.216477220755344"><ele>7.0</ele><time>2026-03-22T13:20:38Z</time></trkpt><trkpt lat="38.1850875272211" lon="16.216344653755964"><ele>7.0</ele><time>2026-03-22T13:20:39Z</time></trkpt><trkpt lat="38.18495812795166" lon="16.216209516874464"><ele>7.0</ele><time>2026-03-22T13:20:40Z</time></trkpt><trkpt lat="38.184848088253666" lon="16.216059559376895"><ele>7.0</ele><time>2026-03-22T13:20:41Z</time></trkpt><trkpt lat="38.18471969804549" lon="16.21592771725836"><ele>7.0</ele><time>2026-03-22T13:20:42Z</time></trkpt><trkpt lat="38.18458951092206" lon="16.215794464791763"><ele>7.0</ele><time>2026-03-22T13:20:43Z</time></trkpt><trkpt lat="38.184448015361895" lon="16.21566921094031"><ele>7.0</ele><time>2026-03-22T13:20:44Z</time></trkpt><trkpt lat="38.18430996394016" lon="16.215533273197828"><ele>7.0</ele><time>2026-03-22T13:20:45Z</time></trkpt><trkpt lat="38.18417213331096" lon="16.215390968812343"><ele>7.0</ele><time>2026-03-22T13:20:46Z</time></trkpt><trkpt lat="38.184031551892424" lon="16.215245660035684"><ele>7.0</ele><time>2026-03-22T13:20:47Z</time></trkpt><trkpt lat="38.183901790543445" lon="16.21508771087668"><ele>7.333333333333334</ele><time>2026-03-22T13:20:48Z</time></trkpt><trkpt lat="38.183761189781386" lon="16.214944759337737"><ele>7.666666666666666</ele><time>2026-03-22T13:20:49Z</time></trkpt><trkpt lat="38.18360783715518" lon="16.214823854946474"><ele>8.0</ele><time>2026-03-22T13:20:50Z</time></trkpt><trkpt lat="38.18346814250922" lon="16.214678575295984"><ele>8.0</ele><time>2026-03-22T13:20:51Z</time></trkpt><trkpt lat="38.18332875818606" lon="16.21453541546724"><ele>8.0</ele><time>2026-03-22T13:20:52Z</time></trkpt><trkpt lat="38.18319136739895" lon="16.21439129433655"><ele>8.0</ele><time>2026-03-22T13:20:53Z</time></trkpt><trkpt lat="38.18305824868978" lon="16.214233344588237"><ele>7.666666666666666</ele><time>2026-03-22T13:20:54Z</time></trkpt><trkpt lat="38.182917958924946" lon="16.2140910955617"><ele>7.333333333333334</ele><time>2026-03-22T13:20:55Z</time></trkpt><trkpt lat="38.1827771460511" lon="16.21395110921983"><ele>7.0</ele><time>2026-03-22T13:20:56Z</time></trkpt><trkpt lat="38.18263628234681" lon="16.213810368071833"><ele>7.0</ele><time>2026-03-22T13:20:57Z</time></trkpt><trkpt lat="38.18249424186724" lon="16.21366845121684"><ele>7.0</ele><time>2026-03-22T13:20:58Z</time></trkpt><trkpt lat="38.18235326264772" lon="16.21352759589392"><ele>7.0</ele><time>2026-03-22T13:20:59Z</time></trkpt><trkpt lat="38.18221250512813" lon="16.213386267455117"><ele>7.333333333333334</ele><time>2026-03-22T13:21:00Z</time></trkpt><trkpt lat="38.18206841691098" lon="16.21324174537258"><ele>7.666666666666666</ele><time>2026-03-22T13:21:01Z</time></trkpt><trkpt lat="38.18192727065847" lon="16.21310017573275"><ele>8.0</ele><time>2026-03-22T13:21:02Z</time></trkpt><trkpt lat="38.18177371282131" lon="16.212983740342334"><ele>7.666666666666666</ele><time>2026-03-22T13:21:03Z</time></trkpt><trkpt lat="38.18163177817813" lon="16.212841169166847"><ele>7.333333333333334</ele><time>2026-03-22T13:21:04Z</time></trkpt><trkpt lat="38.181490072128" lon="16.212697806913514"><ele>7.0</ele><time>2026-03-22T13:21:05Z</time></trkpt><trkpt lat="38.18134910060743" lon="16.212555773445533"><ele>7.0</ele><time>2026-03-22T13:21:06Z</time></trkpt><trkpt lat="38.18121036856976" lon="16.212418912257824"><ele>7.0</ele><time>2026-03-22T13:21:07Z</time></trkpt><trkpt lat="38.1810716559842" lon="16.21227552449465"><ele>7.0</ele><time>2026-03-22T13:21:08Z</time></trkpt><trkpt lat="38.18093319256455" lon="16.212132721153516"><ele>7.0</ele><time>2026-03-22T13:21:09Z</time></trkpt><trkpt lat="38.18079164644409" lon="16.211994473281287"><ele>7.0</ele><time>2026-03-22T13:21:10Z</time></trkpt><trkpt lat="38.18067695093773" lon="16.211836403568558"><ele>7.0</ele><time>2026-03-22T13:21:11Z</time></trkpt><trkpt lat="38.180555782063934" lon="16.2117084577288"><ele>7.25</ele><time>2026-03-22T13:21:12Z</time></trkpt><trkpt lat="38.18044203506672" lon="16.211588333099535"><ele>7.5</ele><time>2026-03-22T13:21:13Z</time></trkpt><trkpt lat="38.18033268278257" lon="16.2114728489968"><ele>7.75</ele><time>2026-03-22T13:21:14Z</time></trkpt><trkpt lat="38.18022424655629" lon="16.21136135674276"><ele>8.0</ele><time>2026-03-22T13:21:15Z</time></trkpt><trkpt lat="38.18011099912596" lon="16.211245460130876"><ele>8.25</ele><time>2026-03-22T13:21:16Z</time></trkpt><trkpt lat="38.17999965652027" lon="16.211131825726984"><ele>8.5</ele><time>2026-03-22T13:21:17Z</time></trkpt><trkpt lat="38.17988905821938" lon="16.21101895091908"><ele>8.75</ele><time>2026-03-22T13:21:18Z</time></trkpt><trkpt lat="38.17978006265083" lon="16.21090763722742"><ele>9.0</ele><time>2026-03-22T13:21:19Z</time></trkpt><trkpt lat="38.179671035105095" lon="16.21079606194806"><ele>9.0</ele><time>2026-03-22T13:21:20Z</time></trkpt><trkpt lat="38.179555816176816" lon="16.210681240476454"><ele>9.0</ele><time>2026-03-22T13:21:21Z</time></trkpt><trkpt lat="38.17942608019983" lon="16.210564015197225"><ele>9.0</ele><time>2026-03-22T13:21:22Z</time></trkpt><trkpt lat="38.17928819405716" lon="16.210416052743977"><ele>9.333333333333334</ele><time>2026-03-22T13:21:23Z</time></trkpt><trkpt lat="38.179145544281326" lon="16.210277433561423"><ele>9.666666666666668</ele><time>2026-03-22T13:21:24Z</time></trkpt><trkpt lat="38.179017806464486" lon="16.210145933701885"><ele>10.0</ele><time>2026-03-22T13:21:25Z</time></trkpt><trkpt lat="38.178901299071036" lon="16.210021712234926"><ele>10.0</ele><time>2026-03-22T13:21:26Z</time></trkpt><trkpt lat="38.17879157213556" lon="16.20990764756049"><ele>10.0</ele><time>2026-03-22T13:21:27Z</time></trkpt><trkpt lat="38.178678556366876" lon="16.209800124408247"><ele>10.0</ele><time>2026-03-22T13:21:28Z</time></trkpt><trkpt lat="38.17855615983768" lon="16.2096829669906"><ele>10.0</ele><time>2026-03-22T13:21:29Z</time></trkpt><trkpt lat="38.1784439616262" lon="16.209537198167272"><ele>9.666666666666668</ele><time>2026-03-22T13:21:30Z</time></trkpt><trkpt lat="38.17831406148872" lon="16.209415505015567"><ele>9.333333333333334</ele><time>2026-03-22T13:21:31Z</time></trkpt><trkpt lat="38.17818413392773" lon="16.209286875508813"><ele>9.0</ele><time>2026-03-22T13:21:32Z</time></trkpt><trkpt lat="38.17804862354515" lon="16.209149864232142"><ele>9.0</ele><time>2026-03-22T13:21:33Z</time></trkpt><trkpt lat="38.17789958071847" lon="16.209011566262184"><ele>9.0</ele><time>2026-03-22T13:21:34Z</time></trkpt><trkpt lat="38.17775671746136" lon="16.208867012351128"><ele>9.0</ele><time>2026-03-22T13:21:35Z</time></trkpt><trkpt lat="38.177614411334055" lon="16.208722840918092"><ele>9.333333333333334</ele><time>2026-03-22T13:21:36Z</time></trkpt><trkpt lat="38.17747383289888" lon="16.20857385519846"><ele>9.666666666666668</ele><time>2026-03-22T13:21:37Z</time></trkpt><trkpt lat="38.177329969392304" lon="16.208428476164297"><ele>10.0</ele><time>2026-03-22T13:21:38Z</time></trkpt><trkpt lat="38.177188895646154" lon="16.208281788894983"><ele>10.333333333333334</ele><time>2026-03-22T13:21:39Z</time></trkpt><trkpt lat="38.17703790456879" lon="16.208146566651003"><ele>10.666666666666666</ele><time>2026-03-22T13:21:40Z</time></trkpt><trkpt lat="38.17689831219845" lon="16.20798634326622"><ele>11.0</ele><time>2026-03-22T13:21:41Z</time></trkpt><trkpt lat="38.176750416624486" lon="16.207837471878577"><ele>11.0</ele><time>2026-03-22T13:21:42Z</time></trkpt><trkpt lat="38.17660611154944" lon="16.207690538499712"><ele>11.0</ele><time>2026-03-22T13:21:43Z</time></trkpt><trkpt lat="38.176464383963285" lon="16.20754591085108"><ele>11.0</ele><time>2026-03-22T13:21:44Z</time></trkpt><trkpt lat="38.176321865541155" lon="16.20740047621675"><ele>11.0</ele><time>2026-03-22T13:21:45Z</time></trkpt><trkpt lat="38.17617875551187" lon="16.207261368562655"><ele>11.0</ele><time>2026-03-22T13:21:46Z</time></trkpt><trkpt lat="38.176040492868175" lon="16.207125987858543"><ele>11.0</ele><time>2026-03-22T13:21:47Z</time></trkpt><trkpt lat="38.1759011711432" lon="16.206983949582703"><ele>11.0</ele><time>2026-03-22T13:21:48Z</time></trkpt><trkpt lat="38.17573317150058" lon="16.2068890581947"><ele>11.0</ele><time>2026-03-22T13:21:49Z</time></trkpt><trkpt lat="38.17559403916631" lon="16.206741342506003"><ele>11.0</ele><time>2026-03-22T13:21:50Z</time></trkpt><trkpt lat="38.17545859087832" lon="16.206597325914505"><ele>11.0</ele><time>2026-03-22T13:21:51Z</time></trkpt><trkpt lat="38.17532437005957" lon="16.206454055579005"><ele>11.0</ele><time>2026-03-22T13:21:52Z</time></trkpt><trkpt lat="38.175212299846486" lon="16.206276056307523"><ele>11.0</ele><time>2026-03-22T13:21:53Z</time></trkpt><trkpt lat="38.175074136831036" lon="16.206135585211463"><ele>11.0</ele><time>2026-03-22T13:21:54Z</time></trkpt><trkpt lat="38.174936868065664" lon="16.205996363759976"><ele>11.0</ele><time>2026-03-22T13:21:55Z</time></trkpt><trkpt lat="38.174797859291914" lon="16.20585540115503"><ele>11.0</ele><time>2026-03-22T13:21:56Z</time></trkpt><trkpt lat="38.174659185535326" lon="16.205714778294613"><ele>10.333333333333332</ele><time>2026-03-22T13:21:57Z</time></trkpt><trkpt lat="38.174519838358144" lon="16.205573472544383"><ele>9.666666666666666</ele><time>2026-03-22T13:21:58Z</time></trkpt><trkpt lat="38.17437712512132" lon="16.205428582076422"><ele>9.0</ele><time>2026-03-22T13:21:59Z</time></trkpt><trkpt lat="38.17423960657539" lon="16.205287222101777"><ele>9.0</ele><time>2026-03-22T13:22:00Z</time></trkpt><trkpt lat="38.174099925817615" lon="16.205143639665614"><ele>9.0</ele><time>2026-03-22T13:22:01Z</time></trkpt><trkpt lat="38.173958633340945" lon="16.204999624775223"><ele>9.0</ele><time>2026-03-22T13:22:02Z</time></trkpt><trkpt lat="38.17381757886074" lon="16.20485723516822"><ele>9.333333333333334</ele><time>2026-03-22T13:22:03Z</time></trkpt><trkpt lat="38.17367854832763" lon="16.204719398589607"><ele>9.666666666666668</ele><time>2026-03-22T13:22:04Z</time></trkpt><trkpt lat="38.17353630086689" lon="16.204579498057857"><ele>10.0</ele><time>2026-03-22T13:22:05Z</time></trkpt><trkpt lat="38.17339796309601" lon="16.20444068788893"><ele>10.0</ele><time>2026-03-22T13:22:06Z</time></trkpt><trkpt lat="38.17325861577649" lon="16.204299923810886"><ele>10.0</ele><time>2026-03-22T13:22:07Z</time></trkpt><trkpt lat="38.173117022787935" lon="16.20415732113721"><ele>10.0</ele><time>2026-03-22T13:22:08Z</time></trkpt><trkpt lat="38.172973878869854" lon="16.204016928847793"><ele>9.333333333333334</ele><time>2026-03-22T13:22:09Z</time></trkpt><trkpt lat="38.17283365905409" lon="16.20387940583405"><ele>8.666666666666666</ele><time>2026-03-22T13:22:10Z</time></trkpt><trkpt lat="38.17268538239176" lon="16.20374562786325"><ele>8.0</ele><time>2026-03-22T13:22:11Z</time></trkpt><trkpt lat="38.172537552471965" lon="16.203613225257204"><ele>8.0</ele><time>2026-03-22T13:22:12Z</time></trkpt><trkpt lat="38.17239126535296" lon="16.203484046857966"><ele>8.0</ele><time>2026-03-22T13:22:13Z</time></trkpt><trkpt lat="38.172241588623706" lon="16.203354211235784"><ele>8.0</ele><time>2026-03-22T13:22:14Z</time></trkpt><trkpt lat="38.1720912084167" lon="16.20322450084711"><ele>8.333333333333332</ele><time>2026-03-22T13:22:15Z</time></trkpt><trkpt lat="38.17193910226159" lon="16.20309752434298"><ele>8.666666666666666</ele><time>2026-03-22T13:22:16Z</time></trkpt><trkpt lat="38.17179106206047" lon="16.20297246492912"><ele>9.0</ele><time>2026-03-22T13:22:17Z</time></trkpt><trkpt lat="38.17163473739139" lon="16.202840407034916"><ele>8.0</ele><time>2026-03-22T13:22:18Z</time></trkpt><trkpt lat="38.171464667668936" lon="16.202719123730958"><ele>7.0</ele><time>2026-03-22T13:22:19Z</time></trkpt><trkpt lat="38.17131062551903" lon="16.202588908275963"><ele>6.0</ele><time>2026-03-22T13:22:20Z</time></trkpt><trkpt lat="38.17116182754014" lon="16.20243807506244"><ele>6.0</ele><time>2026-03-22T13:22:21Z</time></trkpt><trkpt lat="38.171000211349046" lon="16.202299878076502"><ele>6.0</ele><time>2026-03-22T13:22:22Z</time></trkpt><trkpt lat="38.170833263731026" lon="16.202179738607175"><ele>6.0</ele><time>2026-03-22T13:22:23Z</time></trkpt><trkpt lat="38.170677684242726" lon="16.202040601141135"><ele>7.0</ele><time>2026-03-22T13:22:24Z</time></trkpt><trkpt lat="38.17052383913923" lon="16.201903844014932"><ele>8.0</ele><time>2026-03-22T13:22:25Z</time></trkpt><trkpt lat="38.17038488214862" lon="16.201779363948116"><ele>9.0</ele><time>2026-03-22T13:22:26Z</time></trkpt><trkpt lat="38.17026428867348" lon="16.201661799333017"><ele>9.0</ele><time>2026-03-22T13:22:27Z</time></trkpt><trkpt lat="38.17013877604831" lon="16.20154612961021"><ele>9.0</ele><time>2026-03-22T13:22:28Z</time></trkpt><trkpt lat="38.169994874423665" lon="16.20143501520005"><ele>9.0</ele><time>2026-03-22T13:22:29Z</time></trkpt><trkpt lat="38.16985027163184" lon="16.201322316401967"><ele>8.666666666666666</ele><time>2026-03-22T13:22:30Z</time></trkpt><trkpt lat="38.1697124456532" lon="16.20118174323435"><ele>8.333333333333332</ele><time>2026-03-22T13:22:31Z</time></trkpt><trkpt lat="38.16956270867142" lon="16.201051541092962"><ele>8.0</ele><time>2026-03-22T13:22:32Z</time></trkpt><trkpt lat="38.16941231470088" lon="16.200921017171567"><ele>8.0</ele><time>2026-03-22T13:22:33Z</time></trkpt><trkpt lat="38.1692601880099" lon="16.200789151211715"><ele>8.0</ele><time>2026-03-22T13:22:34Z</time></trkpt><trkpt lat="38.169107533133996" lon="16.200656733393142"><ele>8.0</ele><time>2026-03-22T13:22:35Z</time></trkpt><trkpt lat="38.16892930208543" lon="16.20057321589303"><ele>8.0</ele><time>2026-03-22T13:22:36Z</time></trkpt><trkpt lat="38.168782041312944" lon="16.200437693998204"><ele>8.0</ele><time>2026-03-22T13:22:37Z</time></trkpt><trkpt lat="38.168640899677264" lon="16.200315231115535"><ele>8.0</ele><time>2026-03-22T13:22:38Z</time></trkpt><trkpt lat="38.168498824386845" lon="16.200201854737518"><ele>8.0</ele><time>2026-03-22T13:22:39Z</time></trkpt><trkpt lat="38.16838401426116" lon="16.200034634540373"><ele>8.0</ele><time>2026-03-22T13:22:40Z</time></trkpt><trkpt lat="38.168245527457465" lon="16.199915772801944"><ele>8.0</ele><time>2026-03-22T13:22:41Z</time></trkpt><trkpt lat="38.16810993488306" lon="16.199799297736714"><ele>7.666666666666666</ele><time>2026-03-22T13:22:42Z</time></trkpt><trkpt lat="38.16797721962589" lon="16.199685185831825"><ele>7.333333333333334</ele><time>2026-03-22T13:22:43Z</time></trkpt><trkpt lat="38.16784577683548" lon="16.19957216830685"><ele>7.0</ele><time>2026-03-22T13:22:44Z</time></trkpt><trkpt lat="38.1677126322646" lon="16.199459531372586"><ele>7.0</ele><time>2026-03-22T13:22:45Z</time></trkpt><trkpt lat="38.16757892940277" lon="16.199345218434228"><ele>7.0</ele><time>2026-03-22T13:22:46Z</time></trkpt><trkpt lat="38.16744367926034" lon="16.199228281491294"><ele>7.0</ele><time>2026-03-22T13:22:47Z</time></trkpt><trkpt lat="38.16730653441909" lon="16.19910970702452"><ele>6.666666666666667</ele><time>2026-03-22T13:22:48Z</time></trkpt><trkpt lat="38.1671675008021" lon="16.198986850958406"><ele>6.333333333333334</ele><time>2026-03-22T13:22:49Z</time></trkpt><trkpt lat="38.167027968910666" lon="16.19886411382846"><ele>6.0</ele><time>2026-03-22T13:22:50Z</time></trkpt><trkpt lat="38.16688521280953" lon="16.198738540617335"><ele>6.0</ele><time>2026-03-22T13:22:51Z</time></trkpt><trkpt lat="38.16674993916662" lon="16.198618230190263"><ele>6.0</ele><time>2026-03-22T13:22:52Z</time></trkpt><trkpt lat="38.16662082448499" lon="16.198499045053044"><ele>6.0</ele><time>2026-03-22T13:22:53Z</time></trkpt><trkpt lat="38.166502373683" lon="16.198380332576036"><ele>6.0</ele><time>2026-03-22T13:22:54Z</time></trkpt><trkpt lat="38.16638491674591" lon="16.198261959491433"><ele>6.0</ele><time>2026-03-22T13:22:55Z</time></trkpt><trkpt lat="38.166269172706045" lon="16.19815145491871"><ele>6.0</ele><time>2026-03-22T13:22:56Z</time></trkpt><trkpt lat="38.166151654124036" lon="16.19805406663539"><ele>6.0</ele><time>2026-03-22T13:22:57Z</time></trkpt><trkpt lat="38.16604853362714" lon="16.197964565693802"><ele>6.0</ele><time>2026-03-22T13:22:58Z</time></trkpt><trkpt lat="38.16594895694808" lon="16.197876979057725"><ele>6.0</ele><time>2026-03-22T13:22:59Z</time></trkpt><trkpt lat="38.165859399381574" lon="16.197797308014035"><ele>6.0</ele><time>2026-03-22T13:23:00Z</time></trkpt><trkpt lat="38.16577076977933" lon="16.197719037517665"><ele>6.0</ele><time>2026-03-22T13:23:01Z</time></trkpt><trkpt lat="38.16566153785058" lon="16.197673178469618"><ele>6.0</ele><time>2026-03-22T13:23:02Z</time></trkpt><trkpt lat="38.16557548953155" lon="16.197594383273106"><ele>6.0</ele><time>2026-03-22T13:23:03Z</time></trkpt><trkpt lat="38.165484720162794" lon="16.197522626744693"><ele>6.0</ele><time>2026-03-22T13:23:04Z</time></trkpt><trkpt lat="38.16539511923664" lon="16.19744461296868"><ele>6.0</ele><time>2026-03-22T13:23:05Z</time></trkpt><trkpt lat="38.165310893583296" lon="16.197365348908637"><ele>6.0</ele><time>2026-03-22T13:23:06Z</time></trkpt><trkpt lat="38.165225450519806" lon="16.197285996217285"><ele>6.199999999999999</ele><time>2026-03-22T13:23:07Z</time></trkpt><trkpt lat="38.16515579372769" lon="16.19717556544669"><ele>6.3999999999999995</ele><time>2026-03-22T13:23:08Z</time></trkpt><trkpt lat="38.16506160369354" lon="16.197105718801044"><ele>6.6</ele><time>2026-03-22T13:23:09Z</time></trkpt><trkpt lat="38.16497425858093" lon="16.197018416488266"><ele>6.8</ele><time>2026-03-22T13:23:10Z</time></trkpt><trkpt lat="38.164891763588074" lon="16.19692784049733"><ele>7.0</ele><time>2026-03-22T13:23:11Z</time></trkpt><trkpt lat="38.164806940322535" lon="16.196827981069212"><ele>7.0</ele><time>2026-03-22T13:23:12Z</time></trkpt><trkpt lat="38.16472398437945" lon="16.19672330206288"><ele>7.0</ele><time>2026-03-22T13:23:13Z</time></trkpt><trkpt lat="38.1646317543492" lon="16.196623463972735"><ele>7.0</ele><time>2026-03-22T13:23:14Z</time></trkpt><trkpt lat="38.16454826422737" lon="16.196516133830862"><ele>7.0</ele><time>2026-03-22T13:23:15Z</time></trkpt><trkpt lat="38.16446089408927" lon="16.196406373866914"><ele>6.75</ele><time>2026-03-22T13:23:16Z</time></trkpt><trkpt lat="38.16437174086488" lon="16.19629778569224"><ele>6.5</ele><time>2026-03-22T13:23:17Z</time></trkpt><trkpt lat="38.164291109578286" lon="16.196177606840596"><ele>6.25</ele><time>2026-03-22T13:23:18Z</time></trkpt><trkpt lat="38.16420245313764" lon="16.196069680917674"><ele>6.0</ele><time>2026-03-22T13:23:19Z</time></trkpt><trkpt lat="38.16411489565331" lon="16.195964120415987"><ele>6.5</ele><time>2026-03-22T13:23:20Z</time></trkpt><trkpt lat="38.164027547645475" lon="16.195856851755757"><ele>7.0</ele><time>2026-03-22T13:23:21Z</time></trkpt><trkpt lat="38.16394273385912" lon="16.195753110974426"><ele>7.5</ele><time>2026-03-22T13:23:22Z</time></trkpt><trkpt lat="38.16386021066165" lon="16.195636117577504"><ele>8.0</ele><time>2026-03-22T13:23:23Z</time></trkpt><trkpt lat="38.163777906859586" lon="16.195518993513048"><ele>8.25</ele><time>2026-03-22T13:23:24Z</time></trkpt><trkpt lat="38.16369803113845" lon="16.195399240132673"><ele>8.5</ele><time>2026-03-22T13:23:25Z</time></trkpt><trkpt lat="38.16362052119301" lon="16.195280782486737"><ele>8.75</ele><time>2026-03-22T13:23:26Z</time></trkpt><trkpt lat="38.16354790765214" lon="16.195158654289127"><ele>9.0</ele><time>2026-03-22T13:23:27Z</time></trkpt><trkpt lat="38.163474819801074" lon="16.195035327182996"><ele>9.0</ele><time>2026-03-22T13:23:28Z</time></trkpt><trkpt lat="38.163399273561616" lon="16.19491709676113"><ele>9.0</ele><time>2026-03-22T13:23:29Z</time></trkpt><trkpt lat="38.163328067235405" lon="16.194790907970265"><ele>9.0</ele><time>2026-03-22T13:23:30Z</time></trkpt><trkpt lat="38.16326180752223" lon="16.194657211164017"><ele>9.0</ele><time>2026-03-22T13:23:31Z</time></trkpt><trkpt lat="38.16319043639028" lon="16.194526463254135"><ele>9.0</ele><time>2026-03-22T13:23:32Z</time></trkpt><trkpt lat="38.163115868793966" lon="16.19438978877004"><ele>9.0</ele><time>2026-03-22T13:23:33Z</time></trkpt><trkpt lat="38.163036113140095" lon="16.194249268217888"><ele>9.0</ele><time>2026-03-22T13:23:34Z</time></trkpt><trkpt lat="38.16295038778703" lon="16.194101298096435"><ele>9.0</ele><time>2026-03-22T13:23:35Z</time></trkpt><trkpt lat="38.16286281138753" lon="16.193945332234275"><ele>9.0</ele><time>2026-03-22T13:23:36Z</time></trkpt><trkpt lat="38.16277007257837" lon="16.19378632327514"><ele>9.0</ele><time>2026-03-22T13:23:37Z</time></trkpt><trkpt lat="38.16269061974314" lon="16.19361145494143"><ele>9.0</ele><time>2026-03-22T13:23:38Z</time></trkpt><trkpt lat="38.16259224953687" lon="16.19343871863333"><ele>9.0</ele><time>2026-03-22T13:23:39Z</time></trkpt><trkpt lat="38.16250085264215" lon="16.193254868805035"><ele>9.0</ele><time>2026-03-22T13:23:40Z</time></trkpt><trkpt lat="38.16240025871077" lon="16.193075141169174"><ele>9.0</ele><time>2026-03-22T13:23:41Z</time></trkpt><trkpt lat="38.16229560353055" lon="16.19289379920314"><ele>9.0</ele><time>2026-03-22T13:23:42Z</time></trkpt><trkpt lat="38.16219013726444" lon="16.192706468288506"><ele>9.0</ele><time>2026-03-22T13:23:43Z</time></trkpt><trkpt lat="38.16208512746679" lon="16.192518077742932"><ele>9.0</ele><time>2026-03-22T13:23:44Z</time></trkpt><trkpt lat="38.161980742013505" lon="16.192325593950272"><ele>10.0</ele><time>2026-03-22T13:23:45Z</time></trkpt><trkpt lat="38.16187584877825" lon="16.19213395709524"><ele>11.0</ele><time>2026-03-22T13:23:46Z</time></trkpt><trkpt lat="38.16176989940236" lon="16.191944659769113"><ele>12.0</ele><time>2026-03-22T13:23:47Z</time></trkpt><trkpt lat="38.161667495038756" lon="16.191747357112018"><ele>12.0</ele><time>2026-03-22T13:23:48Z</time></trkpt><trkpt lat="38.16156125105246" lon="16.191543609167663"><ele>12.0</ele><time>2026-03-22T13:23:49Z</time></trkpt><trkpt lat="38.161461974997266" lon="16.191332817430197"><ele>12.0</ele><time>2026-03-22T13:23:50Z</time></trkpt><trkpt lat="38.16136087587557" lon="16.191116876388225"><ele>10.666666666666666</ele><time>2026-03-22T13:23:51Z</time></trkpt><trkpt lat="38.16126866953778" lon="16.190894424328626"><ele>9.333333333333332</ele><time>2026-03-22T13:23:52Z</time></trkpt><trkpt lat="38.16117532752193" lon="16.190667739468882"><ele>8.0</ele><time>2026-03-22T13:23:53Z</time></trkpt><trkpt lat="38.16108211970715" lon="16.190437789620407"><ele>7.666666666666666</ele><time>2026-03-22T13:23:54Z</time></trkpt><trkpt lat="38.16098682295973" lon="16.190207956326233"><ele>7.333333333333334</ele><time>2026-03-22T13:23:55Z</time></trkpt><trkpt lat="38.160890944697776" lon="16.18997439095702"><ele>7.0</ele><time>2026-03-22T13:23:56Z</time></trkpt><trkpt lat="38.1607854838631" lon="16.189741084136987"><ele>7.333333333333334</ele><time>2026-03-22T13:23:57Z</time></trkpt><trkpt lat="38.160681665373716" lon="16.18950610178321"><ele>7.666666666666666</ele><time>2026-03-22T13:23:58Z</time></trkpt><trkpt lat="38.160581368346556" lon="16.189266948669214"><ele>8.0</ele><time>2026-03-22T13:23:59Z</time></trkpt><trkpt lat="38.160481555307705" lon="16.18903322772779"><ele>8.666666666666666</ele><time>2026-03-22T13:24:00Z</time></trkpt><trkpt lat="38.160379549904405" lon="16.188800153999527"><ele>9.333333333333334</ele><time>2026-03-22T13:24:01Z</time></trkpt><trkpt lat="38.16027960816776" lon="16.188569064723062"><ele>10.0</ele><time>2026-03-22T13:24:02Z</time></trkpt><trkpt lat="38.16018264610914" lon="16.188338318458754"><ele>10.666666666666668</ele><time>2026-03-22T13:24:03Z</time></trkpt><trkpt lat="38.16008703969648" lon="16.18810754155258"><ele>11.333333333333334</ele><time>2026-03-22T13:24:04Z</time></trkpt><trkpt lat="38.15998294373973" lon="16.187879974264852"><ele>12.0</ele><time>2026-03-22T13:24:05Z</time></trkpt><trkpt lat="38.159882627849605" lon="16.18764678347294"><ele>11.666666666666666</ele><time>2026-03-22T13:24:06Z</time></trkpt><trkpt lat="38.159796349750714" lon="16.187404507244974"><ele>11.333333333333332</ele><time>2026-03-22T13:24:07Z</time></trkpt><trkpt lat="38.159695678892625" lon="16.18716851603196"><ele>11.0</ele><time>2026-03-22T13:24:08Z</time></trkpt><trkpt lat="38.15957599539624" lon="16.18694792342899"><ele>11.0</ele><time>2026-03-22T13:24:09Z</time></trkpt><trkpt lat="38.15947462141411" lon="16.18671681091731"><ele>11.0</ele><time>2026-03-22T13:24:10Z</time></trkpt><trkpt lat="38.1593745959197" lon="16.186484532087054"><ele>11.0</ele><time>2026-03-22T13:24:11Z</time></trkpt><trkpt lat="38.15927456470711" lon="16.186249891626577"><ele>11.666666666666666</ele><time>2026-03-22T13:24:12Z</time></trkpt><trkpt lat="38.15919808231537" lon="16.185999371998584"><ele>12.333333333333332</ele><time>2026-03-22T13:24:13Z</time></trkpt><trkpt lat="38.15909587703805" lon="16.185760581742326"><ele>13.0</ele><time>2026-03-22T13:24:14Z</time></trkpt><trkpt lat="38.158993599817975" lon="16.185520714718"><ele>13.666666666666666</ele><time>2026-03-22T13:24:15Z</time></trkpt><trkpt lat="38.15889032715564" lon="16.185277194656685"><ele>14.333333333333332</ele><time>2026-03-22T13:24:16Z</time></trkpt><trkpt lat="38.158788465650396" lon="16.185037137669536"><ele>15.0</ele><time>2026-03-22T13:24:17Z</time></trkpt><trkpt lat="38.158686824074536" lon="16.18479792580396"><ele>15.333333333333332</ele><time>2026-03-22T13:24:18Z</time></trkpt><trkpt lat="38.158583623379506" lon="16.184555044668507"><ele>15.666666666666666</ele><time>2026-03-22T13:24:19Z</time></trkpt><trkpt lat="38.15847872049596" lon="16.18430815743826"><ele>16.0</ele><time>2026-03-22T13:24:20Z</time></trkpt><trkpt lat="38.158373983373345" lon="16.184061660280097"><ele>16.666666666666664</ele><time>2026-03-22T13:24:21Z</time></trkpt><trkpt lat="38.15827181111538" lon="16.183821199497075"><ele>17.333333333333332</ele><time>2026-03-22T13:24:22Z</time></trkpt><trkpt lat="38.15816869308779" lon="16.183578512863985"><ele>18.0</ele><time>2026-03-22T13:24:23Z</time></trkpt><trkpt lat="38.1580652967943" lon="16.18333529471637"><ele>18.666666666666668</ele><time>2026-03-22T13:24:24Z</time></trkpt><trkpt lat="38.15795966254579" lon="16.18308916194735"><ele>19.333333333333336</ele><time>2026-03-22T13:24:25Z</time></trkpt><trkpt lat="38.157852300288525" lon="16.182838934003005"><ele>20.0</ele><time>2026-03-22T13:24:26Z</time></trkpt><trkpt lat="38.157746398442136" lon="16.18258994207826"><ele>22.5</ele><time>2026-03-22T13:24:27Z</time></trkpt><trkpt lat="38.157640711342935" lon="16.182336773724867"><ele>25.0</ele><time>2026-03-22T13:24:28Z</time></trkpt><trkpt lat="38.15753403041522" lon="16.182086055311302"><ele>25.0</ele><time>2026-03-22T13:24:29Z</time></trkpt><trkpt lat="38.157425364089995" lon="16.18183663466636"><ele>25.0</ele><time>2026-03-22T13:24:30Z</time></trkpt><trkpt lat="38.157317195352476" lon="16.18159080116007"><ele>25.0</ele><time>2026-03-22T13:24:31Z</time></trkpt><trkpt lat="38.1572023654282" lon="16.181338046278274"><ele>24.666666666666668</ele><time>2026-03-22T13:24:32Z</time></trkpt><trkpt lat="38.157079748714914" lon="16.181096510976463"><ele>24.333333333333336</ele><time>2026-03-22T13:24:33Z</time></trkpt><trkpt lat="38.156954885010286" lon="16.180869262006535"><ele>24.0</ele><time>2026-03-22T13:24:34Z</time></trkpt><trkpt lat="38.15682285239605" lon="16.180643652792828"><ele>25.333333333333336</ele><time>2026-03-22T13:24:35Z</time></trkpt><trkpt lat="38.15668977017815" lon="16.18042132666823"><ele>26.666666666666668</ele><time>2026-03-22T13:24:36Z</time></trkpt><trkpt lat="38.15655588801087" lon="16.18019788328777"><ele>28.0</ele><time>2026-03-22T13:24:37Z</time></trkpt><trkpt lat="38.15640920061958" lon="16.17998898880178"><ele>28.0</ele><time>2026-03-22T13:24:38Z</time></trkpt><trkpt lat="38.15629107850166" lon="16.17975815115374"><ele>28.0</ele><time>2026-03-22T13:24:39Z</time></trkpt><trkpt lat="38.15616280657711" lon="16.179545515586007"><ele>28.0</ele><time>2026-03-22T13:24:40Z</time></trkpt><trkpt lat="38.15603492411352" lon="16.179334143055616"><ele>28.0</ele><time>2026-03-22T13:24:41Z</time></trkpt><trkpt lat="38.155904382436354" lon="16.179118375206336"><ele>28.0</ele><time>2026-03-22T13:24:42Z</time></trkpt><trkpt lat="38.1557709577114" lon="16.178897842030665"><ele>28.0</ele><time>2026-03-22T13:24:43Z</time></trkpt><trkpt lat="38.1556405495319" lon="16.178682294792498"><ele>27.666666666666668</ele><time>2026-03-22T13:24:44Z</time></trkpt><trkpt lat="38.15550858568931" lon="16.178463210136705"><ele>27.333333333333336</ele><time>2026-03-22T13:24:45Z</time></trkpt><trkpt lat="38.15537468805196" lon="16.17824304994199"><ele>27.0</ele><time>2026-03-22T13:24:46Z</time></trkpt><trkpt lat="38.15523978350083" lon="16.178021526170703"><ele>27.0</ele><time>2026-03-22T13:24:47Z</time></trkpt><trkpt lat="38.155106564350135" lon="16.17780276981316"><ele>27.0</ele><time>2026-03-22T13:24:48Z</time></trkpt><trkpt lat="38.15497486666621" lon="16.177581958317212"><ele>27.0</ele><time>2026-03-22T13:24:49Z</time></trkpt><trkpt lat="38.154832125225944" lon="16.17737273371726"><ele>26.333333333333336</ele><time>2026-03-22T13:24:50Z</time></trkpt><trkpt lat="38.15470812310245" lon="16.177148988754215"><ele>25.666666666666668</ele><time>2026-03-22T13:24:51Z</time></trkpt><trkpt lat="38.15458318528957" lon="16.176927518071107"><ele>25.0</ele><time>2026-03-22T13:24:52Z</time></trkpt><trkpt lat="38.154466838335594" lon="16.176702025301985"><ele>25.333333333333336</ele><time>2026-03-22T13:24:53Z</time></trkpt><trkpt lat="38.154358093451606" lon="16.176474352253077"><ele>25.666666666666664</ele><time>2026-03-22T13:24:54Z</time></trkpt><trkpt lat="38.154278483576206" lon="16.176247681472617"><ele>26.0</ele><time>2026-03-22T13:24:55Z</time></trkpt><trkpt lat="38.15417948566783" lon="16.176030891199265"><ele>26.0</ele><time>2026-03-22T13:24:56Z</time></trkpt><trkpt lat="38.154100491204254" lon="16.175805714923857"><ele>26.0</ele><time>2026-03-22T13:24:57Z</time></trkpt><trkpt lat="38.15402383697358" lon="16.175580771573795"><ele>26.0</ele><time>2026-03-22T13:24:58Z</time></trkpt><trkpt lat="38.15396522947221" lon="16.175350865988044"><ele>25.666666666666664</ele><time>2026-03-22T13:24:59Z</time></trkpt><trkpt lat="38.15387707022694" lon="16.175135722974954"><ele>25.333333333333336</ele><time>2026-03-22T13:25:00Z</time></trkpt><trkpt lat="38.15382065242621" lon="16.17490333489776"><ele>25.0</ele><time>2026-03-22T13:25:01Z</time></trkpt><trkpt lat="38.15374760585674" lon="16.174675274593802"><ele>25.666666666666668</ele><time>2026-03-22T13:25:02Z</time></trkpt><trkpt lat="38.15367305529437" lon="16.174444119453465"><ele>26.333333333333336</ele><time>2026-03-22T13:25:03Z</time></trkpt><trkpt lat="38.153597710338154" lon="16.17421050115964"><ele>27.0</ele><time>2026-03-22T13:25:04Z</time></trkpt><trkpt lat="38.153520948769284" lon="16.173973825401493"><ele>28.333333333333336</ele><time>2026-03-22T13:25:05Z</time></trkpt><trkpt lat="38.153430598228894" lon="16.173744691868027"><ele>29.666666666666668</ele><time>2026-03-22T13:25:06Z</time></trkpt><trkpt lat="38.153365134628146" lon="16.173493251262357"><ele>31.0</ele><time>2026-03-22T13:25:07Z</time></trkpt><trkpt lat="38.153267798173836" lon="16.17325820308999"><ele>30.333333333333336</ele><time>2026-03-22T13:25:08Z</time></trkpt><trkpt lat="38.153184760267365" lon="16.173020682267794"><ele>29.666666666666664</ele><time>2026-03-22T13:25:09Z</time></trkpt><trkpt lat="38.153105517529866" lon="16.1727669177943"><ele>29.0</ele><time>2026-03-22T13:25:10Z</time></trkpt><trkpt lat="38.15303040004293" lon="16.17252851580801"><ele>30.333333333333332</ele><time>2026-03-22T13:25:11Z</time></trkpt><trkpt lat="38.15294901410821" lon="16.172285104650395"><ele>31.666666666666664</ele><time>2026-03-22T13:25:12Z</time></trkpt><trkpt lat="38.152864690703936" lon="16.172041755329218"><ele>33.0</ele><time>2026-03-22T13:25:13Z</time></trkpt><trkpt lat="38.15280951010874" lon="16.171779758348627"><ele>33.0</ele><time>2026-03-22T13:25:14Z</time></trkpt><trkpt lat="38.15272217577543" lon="16.171538870565122"><ele>33.0</ele><time>2026-03-22T13:25:15Z</time></trkpt><trkpt lat="38.15260674014437" lon="16.171315581877767"><ele>33.0</ele><time>2026-03-22T13:25:16Z</time></trkpt><trkpt lat="38.15250335073921" lon="16.17107973235521"><ele>34.333333333333336</ele><time>2026-03-22T13:25:17Z</time></trkpt><trkpt lat="38.152377409705586" lon="16.170874449966508"><ele>35.66666666666667</ele><time>2026-03-22T13:25:18Z</time></trkpt><trkpt lat="38.152235390070324" lon="16.170679851849236"><ele>37.0</ele><time>2026-03-22T13:25:19Z</time></trkpt><trkpt lat="38.15209464078578" lon="16.170511236716234"><ele>34.333333333333336</ele><time>2026-03-22T13:25:20Z</time></trkpt><trkpt lat="38.1519541617928" lon="16.170353344422782"><ele>31.666666666666664</ele><time>2026-03-22T13:25:21Z</time></trkpt><trkpt lat="38.15181805108058" lon="16.17020291806709"><ele>29.0</ele><time>2026-03-22T13:25:22.015Z</time></trkpt><trkpt lat="38.151682307256195" lon="16.170052669451803"><ele>29.0</ele><time>2026-03-22T13:25:23.015Z</time></trkpt><trkpt lat="38.15154469675258" lon="16.169900385189937"><ele>29.0</ele><time>2026-03-22T13:25:24Z</time></trkpt><trkpt lat="38.15137825782897" lon="16.16971446548967"><ele>29.0</ele><time>2026-03-22T13:25:25Z</time></trkpt><trkpt lat="38.151204759780214" lon="16.169568033960157"><ele>26.666666666666664</ele><time>2026-03-22T13:25:26Z</time></trkpt><trkpt lat="38.15106205606307" lon="16.16940756240562"><ele>24.333333333333332</ele><time>2026-03-22T13:25:27Z</time></trkpt><trkpt lat="38.15091054636671" lon="16.169252957256468"><ele>22.0</ele><time>2026-03-22T13:25:28Z</time></trkpt><trkpt lat="38.150765802186264" lon="16.169093012069624"><ele>21.666666666666664</ele><time>2026-03-22T13:25:29Z</time></trkpt><trkpt lat="38.15062038830146" lon="16.16893140736527"><ele>21.333333333333332</ele><time>2026-03-22T13:25:30Z</time></trkpt><trkpt lat="38.15047094251698" lon="16.168774576675638"><ele>21.0</ele><time>2026-03-22T13:25:31Z</time></trkpt><trkpt lat="38.15032482992849" lon="16.168622605578545"><ele>21.0</ele><time>2026-03-22T13:25:32Z</time></trkpt><trkpt lat="38.1501649768198" lon="16.16849164227632"><ele>21.0</ele><time>2026-03-22T13:25:33Z</time></trkpt><trkpt lat="38.15002605880379" lon="16.168326384956508"><ele>21.0</ele><time>2026-03-22T13:25:34Z</time></trkpt><trkpt lat="38.149848222484174" lon="16.16822691579486"><ele>21.0</ele><time>2026-03-22T13:25:35Z</time></trkpt><trkpt lat="38.14967207497618" lon="16.168148199252702"><ele>21.0</ele><time>2026-03-22T13:25:36Z</time></trkpt><trkpt lat="38.149482408847696" lon="16.168083077748996"><ele>21.0</ele><time>2026-03-22T13:25:37Z</time></trkpt><trkpt lat="38.14929042484457" lon="16.168039393467815"><ele>21.0</ele><time>2026-03-22T13:25:38Z</time></trkpt><trkpt lat="38.149102307414886" lon="16.16801881530536"><ele>21.0</ele><time>2026-03-22T13:25:39Z</time></trkpt><trkpt lat="38.14891025599743" lon="16.168013794284878"><ele>21.0</ele><time>2026-03-22T13:25:40Z</time></trkpt><trkpt lat="38.148719376149515" lon="16.168013794281794"><ele>20.666666666666668</ele><time>2026-03-22T13:25:41Z</time></trkpt><trkpt lat="38.148524306049914" lon="16.168015140717724"><ele>20.333333333333336</ele><time>2026-03-22T13:25:42Z</time></trkpt><trkpt lat="38.1483292412077" lon="16.168016524155878"><ele>20.0</ele><time>2026-03-22T13:25:43Z</time></trkpt><trkpt lat="38.148133132697836" lon="16.168094447605156"><ele>20.0</ele><time>2026-03-22T13:25:44Z</time></trkpt><trkpt lat="38.147938674329716" lon="16.168095647690958"><ele>20.0</ele><time>2026-03-22T13:25:45Z</time></trkpt><trkpt lat="38.147737283366965" lon="16.168099508395287"><ele>20.0</ele><time>2026-03-22T13:25:46Z</time></trkpt><trkpt lat="38.14753333466345" lon="16.16810198963895"><ele>19.666666666666668</ele><time>2026-03-22T13:25:47Z</time></trkpt><trkpt lat="38.147328819475185" lon="16.16802010756277"><ele>19.333333333333332</ele><time>2026-03-22T13:25:48Z</time></trkpt><trkpt lat="38.147125172184516" lon="16.16802194636201"><ele>19.0</ele><time>2026-03-22T13:25:49Z</time></trkpt><trkpt lat="38.14691569450477" lon="16.168023013688856"><ele>19.0</ele><time>2026-03-22T13:25:50Z</time></trkpt><trkpt lat="38.14671159019881" lon="16.16802634202548"><ele>19.0</ele><time>2026-03-22T13:25:51Z</time></trkpt><trkpt lat="38.14650341719978" lon="16.168029814659327"><ele>19.0</ele><time>2026-03-22T13:25:52Z</time></trkpt><trkpt lat="38.146297494301386" lon="16.168032594272926"><ele>18.333333333333332</ele><time>2026-03-22T13:25:53Z</time></trkpt><trkpt lat="38.14608738036798" lon="16.168032594271423"><ele>17.666666666666668</ele><time>2026-03-22T13:25:54Z</time></trkpt><trkpt lat="38.14587492813313" lon="16.16803355168874"><ele>17.0</ele><time>2026-03-22T13:25:55Z</time></trkpt><trkpt lat="38.145668120979245" lon="16.168034866357807"><ele>15.666666666666668</ele><time>2026-03-22T13:25:56Z</time></trkpt><trkpt lat="38.145455591969814" lon="16.168038018120267"><ele>14.333333333333332</ele><time>2026-03-22T13:25:57Z</time></trkpt><trkpt lat="38.145247757951374" lon="16.1680353086327"><ele>13.0</ele><time>2026-03-22T13:25:58Z</time></trkpt><trkpt lat="38.14504248704263" lon="16.16801150312353"><ele>12.0</ele><time>2026-03-22T13:25:59Z</time></trkpt><trkpt lat="38.144842298089884" lon="16.167970308051988"><ele>11.0</ele><time>2026-03-22T13:26:00Z</time></trkpt><trkpt lat="38.14464364053571" lon="16.167911223306326"><ele>10.0</ele><time>2026-03-22T13:26:01Z</time></trkpt><trkpt lat="38.144448624749316" lon="16.167834798438363"><ele>10.0</ele><time>2026-03-22T13:26:02Z</time></trkpt><trkpt lat="38.144263990476254" lon="16.167737795300443"><ele>10.0</ele><time>2026-03-22T13:26:03Z</time></trkpt><trkpt lat="38.14408345511664" lon="16.16761819430516"><ele>10.0</ele><time>2026-03-22T13:26:04Z</time></trkpt><trkpt lat="38.143903535427995" lon="16.167492821146805"><ele>10.0</ele><time>2026-03-22T13:26:05Z</time></trkpt><trkpt lat="38.14372707425228" lon="16.167366068014232"><ele>10.0</ele><time>2026-03-22T13:26:06Z</time></trkpt><trkpt lat="38.14355553227562" lon="16.16724277400588"><ele>10.0</ele><time>2026-03-22T13:26:07Z</time></trkpt><trkpt lat="38.14338425209262" lon="16.167118586387026"><ele>10.0</ele><time>2026-03-22T13:26:08Z</time></trkpt><trkpt lat="38.14321401832675" lon="16.16699515747454"><ele>10.0</ele><time>2026-03-22T13:26:09Z</time></trkpt><trkpt lat="38.143046571314144" lon="16.166873662452502"><ele>10.0</ele><time>2026-03-22T13:26:10Z</time></trkpt><trkpt lat="38.1428798340636" lon="16.166755150993414"><ele>9.666666666666668</ele><time>2026-03-22T13:26:11Z</time></trkpt><trkpt lat="38.14271516523684" lon="16.166636920153895"><ele>9.333333333333334</ele><time>2026-03-22T13:26:12Z</time></trkpt><trkpt lat="38.142551296566964" lon="16.16651852464929"><ele>9.0</ele><time>2026-03-22T13:26:13Z</time></trkpt><trkpt lat="38.14238644576282" lon="16.166397366577957"><ele>9.0</ele><time>2026-03-22T13:26:14Z</time></trkpt><trkpt lat="38.14222200108147" lon="16.1662766128036"><ele>9.0</ele><time>2026-03-22T13:26:15Z</time></trkpt><trkpt lat="38.142059954780784" lon="16.166156998365757"><ele>9.0</ele><time>2026-03-22T13:26:16Z</time></trkpt><trkpt lat="38.141894786553515" lon="16.166034910425818"><ele>9.0</ele><time>2026-03-22T13:26:17Z</time></trkpt><trkpt lat="38.1417209906489" lon="16.165915497392476"><ele>9.0</ele><time>2026-03-22T13:26:18Z</time></trkpt><trkpt lat="38.1415468561592" lon="16.165809613816396"><ele>9.0</ele><time>2026-03-22T13:26:19Z</time></trkpt><trkpt lat="38.14136992783221" lon="16.16571840099909"><ele>8.333333333333334</ele><time>2026-03-22T13:26:20Z</time></trkpt><trkpt lat="38.1411857444371" lon="16.16564667828832"><ele>7.666666666666667</ele><time>2026-03-22T13:26:21Z</time></trkpt><trkpt lat="38.141002411975514" lon="16.16558824552887"><ele>7.0</ele><time>2026-03-22T13:26:22Z</time></trkpt><trkpt lat="38.14080648551544" lon="16.165549493272888"><ele>8.0</ele><time>2026-03-22T13:26:23Z</time></trkpt><trkpt lat="38.14060754029965" lon="16.16552341701972"><ele>9.0</ele><time>2026-03-22T13:26:24Z</time></trkpt><trkpt lat="38.1404026450427" lon="16.16555595665131"><ele>10.0</ele><time>2026-03-22T13:26:25Z</time></trkpt><trkpt lat="38.14019857967668" lon="16.16556416117896"><ele>10.0</ele><time>2026-03-22T13:26:26Z</time></trkpt><trkpt lat="38.13999141148539" lon="16.165577383812494"><ele>10.0</ele><time>2026-03-22T13:26:27Z</time></trkpt><trkpt lat="38.13978478124669" lon="16.165589418385117"><ele>10.0</ele><time>2026-03-22T13:26:28Z</time></trkpt><trkpt lat="38.13957418790348" lon="16.165535739762948"><ele>8.666666666666668</ele><time>2026-03-22T13:26:29Z</time></trkpt><trkpt lat="38.13936235670985" lon="16.16554182784055"><ele>7.333333333333334</ele><time>2026-03-22T13:26:30Z</time></trkpt><trkpt lat="38.13914680091976" lon="16.16554572798566"><ele>6.0</ele><time>2026-03-22T13:26:31Z</time></trkpt><trkpt lat="38.1389431447964" lon="16.165552808202726"><ele>6.0</ele><time>2026-03-22T13:26:32Z</time></trkpt><trkpt lat="38.13874305504134" lon="16.165560662306227"><ele>6.0</ele><time>2026-03-22T13:26:33Z</time></trkpt><trkpt lat="38.13854344501674" lon="16.165552423346554"><ele>6.0</ele><time>2026-03-22T13:26:34Z</time></trkpt><trkpt lat="38.1383411694093" lon="16.165522538579385"><ele>5.333333333333333</ele><time>2026-03-22T13:26:35Z</time></trkpt><trkpt lat="38.13814311496738" lon="16.165458178784505"><ele>4.666666666666666</ele><time>2026-03-22T13:26:36Z</time></trkpt><trkpt lat="38.13795450230271" lon="16.165357263926566"><ele>4.0</ele><time>2026-03-22T13:26:37Z</time></trkpt><trkpt lat="38.1377692849675" lon="16.165232747212038"><ele>4.0</ele><time>2026-03-22T13:26:38Z</time></trkpt><trkpt lat="38.137589957171286" lon="16.165091539802724"><ele>4.0</ele><time>2026-03-22T13:26:39Z</time></trkpt><trkpt lat="38.13740489086029" lon="16.164950694565164"><ele>4.0</ele><time>2026-03-22T13:26:40Z</time></trkpt><trkpt lat="38.13721480296207" lon="16.164808777190537"><ele>3.6666666666666665</ele><time>2026-03-22T13:26:41Z</time></trkpt><trkpt lat="38.137024808347554" lon="16.164670562507506"><ele>3.333333333333333</ele><time>2026-03-22T13:26:42Z</time></trkpt><trkpt lat="38.13683209747272" lon="16.164533475977397"><ele>3.0</ele><time>2026-03-22T13:26:43Z</time></trkpt><trkpt lat="38.136636512585554" lon="16.16439552946162"><ele>3.666666666666667</ele><time>2026-03-22T13:26:44Z</time></trkpt><trkpt lat="38.13644131711802" lon="16.164258633702914"><ele>4.333333333333334</ele><time>2026-03-22T13:26:45Z</time></trkpt><trkpt lat="38.136246054844015" lon="16.164122856551597"><ele>5.0</ele><time>2026-03-22T13:26:46Z</time></trkpt><trkpt lat="38.13604725381114" lon="16.163984618699434"><ele>5.0</ele><time>2026-03-22T13:26:47Z</time></trkpt><trkpt lat="38.13584617220162" lon="16.163844466141953"><ele>5.0</ele><time>2026-03-22T13:26:48Z</time></trkpt><trkpt lat="38.135645657770084" lon="16.163704556783326"><ele>6.0</ele><time>2026-03-22T13:26:49Z</time></trkpt><trkpt lat="38.135445219394946" lon="16.163564700485438"><ele>7.0</ele><time>2026-03-22T13:26:50Z</time></trkpt><trkpt lat="38.13524428309415" lon="16.16342449732823"><ele>7.0</ele><time>2026-03-22T13:26:51Z</time></trkpt><trkpt lat="38.135040461236976" lon="16.163283035763676"><ele>7.0</ele><time>2026-03-22T13:26:52Z</time></trkpt><trkpt lat="38.13483809088003" lon="16.163142760602465"><ele>7.666666666666667</ele><time>2026-03-22T13:26:53Z</time></trkpt><trkpt lat="38.13464052284081" lon="16.163005814267756"><ele>8.333333333333334</ele><time>2026-03-22T13:26:54Z</time></trkpt><trkpt lat="38.13444432065507" lon="16.16286942053894"><ele>9.0</ele><time>2026-03-22T13:26:55Z</time></trkpt><trkpt lat="38.1342508276032" lon="16.162732625171692"><ele>9.0</ele><time>2026-03-22T13:26:56Z</time></trkpt><trkpt lat="38.13406139493517" lon="16.16259039770337"><ele>9.0</ele><time>2026-03-22T13:26:57Z</time></trkpt><trkpt lat="38.13387260937087" lon="16.162444791193423"><ele>9.0</ele><time>2026-03-22T13:26:58Z</time></trkpt><trkpt lat="38.133687637284986" lon="16.162298967862654"><ele>9.333333333333334</ele><time>2026-03-22T13:26:59Z</time></trkpt><trkpt lat="38.13350562610284" lon="16.16215359473596"><ele>9.666666666666668</ele><time>2026-03-22T13:27:00Z</time></trkpt><trkpt lat="38.133322745502774" lon="16.16200648096646"><ele>10.0</ele><time>2026-03-22T13:27:01Z</time></trkpt><trkpt lat="38.13313713850798" lon="16.161857267967697"><ele>10.0</ele><time>2026-03-22T13:27:02Z</time></trkpt><trkpt lat="38.132950885965954" lon="16.161707231659065"><ele>10.0</ele><time>2026-03-22T13:27:03Z</time></trkpt><trkpt lat="38.13276224606016" lon="16.161554674643188"><ele>10.0</ele><time>2026-03-22T13:27:04Z</time></trkpt><trkpt lat="38.132572439673446" lon="16.161398924899665"><ele>9.5</ele><time>2026-03-22T13:27:05Z</time></trkpt><trkpt lat="38.13238123186191" lon="16.16124158329915"><ele>9.0</ele><time>2026-03-22T13:27:06Z</time></trkpt><trkpt lat="38.13218433366624" lon="16.161085363525963"><ele>9.0</ele><time>2026-03-22T13:27:07Z</time></trkpt><trkpt lat="38.13198461471471" lon="16.160931787659884"><ele>9.0</ele><time>2026-03-22T13:27:08Z</time></trkpt><trkpt lat="38.131783252862945" lon="16.160783833196675"><ele>8.5</ele><time>2026-03-22T13:27:09Z</time></trkpt><trkpt lat="38.131573364966" lon="16.160651920282923"><ele>8.0</ele><time>2026-03-22T13:27:10Z</time></trkpt><trkpt lat="38.13135982144181" lon="16.16052976928874"><ele>8.0</ele><time>2026-03-22T13:27:11Z</time></trkpt><trkpt lat="38.131141259033875" lon="16.160411820020673"><ele>8.0</ele><time>2026-03-22T13:27:12Z</time></trkpt><trkpt lat="38.130919944476744" lon="16.160298770562484"><ele>8.5</ele><time>2026-03-22T13:27:13Z</time></trkpt><trkpt lat="38.130697176574216" lon="16.16018573489983"><ele>9.0</ele><time>2026-03-22T13:27:14Z</time></trkpt><trkpt lat="38.13047543158174" lon="16.160075085985778"><ele>9.0</ele><time>2026-03-22T13:27:15Z</time></trkpt><trkpt lat="38.13025146345574" lon="16.159970329635204"><ele>9.0</ele><time>2026-03-22T13:27:16Z</time></trkpt><trkpt lat="38.13002917654082" lon="16.159877566809573"><ele>7.5</ele><time>2026-03-22T13:27:17Z</time></trkpt><trkpt lat="38.12981066533924" lon="16.15979645895506"><ele>6.0</ele><time>2026-03-22T13:27:18Z</time></trkpt><trkpt lat="38.12959048130143" lon="16.159717405983713"><ele>6.0</ele><time>2026-03-22T13:27:19Z</time></trkpt><trkpt lat="38.12936811645055" lon="16.15964042736349"><ele>6.0</ele><time>2026-03-22T13:27:20Z</time></trkpt><trkpt lat="38.12914399591636" lon="16.15956264494272"><ele>6.5</ele><time>2026-03-22T13:27:21Z</time></trkpt><trkpt lat="38.12891410145449" lon="16.159484367998356"><ele>7.0</ele><time>2026-03-22T13:27:22Z</time></trkpt><trkpt lat="38.12867480658731" lon="16.159489984241883"><ele>7.0</ele><time>2026-03-22T13:27:23Z</time></trkpt><trkpt lat="38.128440314074645" lon="16.159460772750776"><ele>7.0</ele><time>2026-03-22T13:27:24Z</time></trkpt><trkpt lat="38.12820661387037" lon="16.15944513172871"><ele>6.0</ele><time>2026-03-22T13:27:25Z</time></trkpt><trkpt lat="38.127975084691464" lon="16.159428453065647"><ele>5.0</ele><time>2026-03-22T13:27:26Z</time></trkpt><trkpt lat="38.127749225753504" lon="16.15934010724566"><ele>5.0</ele><time>2026-03-22T13:27:27Z</time></trkpt><trkpt lat="38.12751341796888" lon="16.15932324672313"><ele>5.0</ele><time>2026-03-22T13:27:28Z</time></trkpt><trkpt lat="38.12727955945369" lon="16.159306689451356"><ele>6.5</ele><time>2026-03-22T13:27:29Z</time></trkpt><trkpt lat="38.127044956204706" lon="16.159289132860696"><ele>8.0</ele><time>2026-03-22T13:27:30Z</time></trkpt><trkpt lat="38.12680774063191" lon="16.159271240677924"><ele>8.0</ele><time>2026-03-22T13:27:31Z</time></trkpt><trkpt lat="38.126569998411846" lon="16.159258304051068"><ele>8.0</ele><time>2026-03-22T13:27:32Z</time></trkpt><trkpt lat="38.12632422536153" lon="16.15926336328623"><ele>7.0</ele><time>2026-03-22T13:27:33Z</time></trkpt><trkpt lat="38.12607604011328" lon="16.159284317161777"><ele>6.0</ele><time>2026-03-22T13:27:34Z</time></trkpt><trkpt lat="38.12583044187395" lon="16.15931236129033"><ele>6.5</ele><time>2026-03-22T13:27:35Z</time></trkpt><trkpt lat="38.12557908831337" lon="16.159342695476234"><ele>7.0</ele><time>2026-03-22T13:27:36Z</time></trkpt><trkpt lat="38.12532650612576" lon="16.159373108268095"><ele>7.0</ele><time>2026-03-22T13:27:37Z</time></trkpt><trkpt lat="38.12507159725035" lon="16.15940276125361"><ele>7.0</ele><time>2026-03-22T13:27:38Z</time></trkpt><trkpt lat="38.12481784600127" lon="16.159423665545145"><ele>7.0</ele><time>2026-03-22T13:27:39Z</time></trkpt><trkpt lat="38.124569678065605" lon="16.15942158970802"><ele>7.0</ele><time>2026-03-22T13:27:40Z</time></trkpt><trkpt lat="38.12432482700741" lon="16.15940280674919"><ele>7.0</ele><time>2026-03-22T13:27:41Z</time></trkpt><trkpt lat="38.12407703650533" lon="16.159372590638327"><ele>7.0</ele><time>2026-03-22T13:27:42Z</time></trkpt><trkpt lat="38.1238274559109" lon="16.1593396879184"><ele>6.5</ele><time>2026-03-22T13:27:43Z</time></trkpt><trkpt lat="38.12357682466837" lon="16.159306085418937"><ele>6.0</ele><time>2026-03-22T13:27:44Z</time></trkpt><trkpt lat="38.12332389600922" lon="16.159271958684574"><ele>7.0</ele><time>2026-03-22T13:27:45Z</time></trkpt><trkpt lat="38.12306868540804" lon="16.159237524054475"><ele>8.0</ele><time>2026-03-22T13:27:46Z</time></trkpt><trkpt lat="38.122813683225395" lon="16.15920311754377"><ele>8.0</ele><time>2026-03-22T13:27:47Z</time></trkpt><trkpt lat="38.1225581673492" lon="16.159168641933878"><ele>8.0</ele><time>2026-03-22T13:27:48Z</time></trkpt><trkpt lat="38.122304416356954" lon="16.159133200946304"><ele>8.5</ele><time>2026-03-22T13:27:49Z</time></trkpt><trkpt lat="38.12204991216119" lon="16.159097963899107"><ele>9.0</ele><time>2026-03-22T13:27:50Z</time></trkpt><trkpt lat="38.121793516461906" lon="16.15906271657529"><ele>11.0</ele><time>2026-03-22T13:27:51Z</time></trkpt><trkpt lat="38.12153580800981" lon="16.15902800554032"><ele>13.0</ele><time>2026-03-22T13:27:52Z</time></trkpt><trkpt lat="38.12128610472788" lon="16.1589943727297"><ele>13.0</ele><time>2026-03-22T13:27:53Z</time></trkpt><trkpt lat="38.121026317739485" lon="16.158959622303882"><ele>13.0</ele><time>2026-03-22T13:27:54Z</time></trkpt><trkpt lat="38.12076706054137" lon="16.158925342234355"><ele>14.0</ele><time>2026-03-22T13:27:55Z</time></trkpt><trkpt lat="38.12051211726125" lon="16.158891632545743"><ele>15.0</ele><time>2026-03-22T13:27:56Z</time></trkpt><trkpt lat="38.12025819199415" lon="16.158858057468372"><ele>15.0</ele><time>2026-03-22T13:27:57Z</time></trkpt><trkpt lat="38.120005173911885" lon="16.158824602343792"><ele>15.0</ele><time>2026-03-22T13:27:58Z</time></trkpt><trkpt lat="38.11975138885443" lon="16.158791045805135"><ele>13.5</ele><time>2026-03-22T13:27:59Z</time></trkpt><trkpt lat="38.11949251627243" lon="16.158756816560814"><ele>12.0</ele><time>2026-03-22T13:28:00Z</time></trkpt><trkpt lat="38.11923659560123" lon="16.15872297765479"><ele>11.0</ele><time>2026-03-22T13:28:01Z</time></trkpt><trkpt lat="38.11898004758968" lon="16.158689055402252"><ele>10.0</ele><time>2026-03-22T13:28:02Z</time></trkpt><trkpt lat="38.11872383273536" lon="16.158655011771295"><ele>10.0</ele><time>2026-03-22T13:28:03Z</time></trkpt><trkpt lat="38.118473455792184" lon="16.158621774786507"><ele>10.0</ele><time>2026-03-22T13:28:04Z</time></trkpt><trkpt lat="38.118219173786265" lon="16.158588065709345"><ele>9.0</ele><time>2026-03-22T13:28:05Z</time></trkpt><trkpt lat="38.11796224745057" lon="16.158554677889697"><ele>8.0</ele><time>2026-03-22T13:28:06Z</time></trkpt><trkpt lat="38.11770720399495" lon="16.158521534751646"><ele>8.0</ele><time>2026-03-22T13:28:07Z</time></trkpt><trkpt lat="38.117454521453745" lon="16.158488698413382"><ele>8.0</ele><time>2026-03-22T13:28:08Z</time></trkpt><trkpt lat="38.117196790681604" lon="16.15845340320304"><ele>8.0</ele><time>2026-03-22T13:28:09Z</time></trkpt><trkpt lat="38.11693547263756" lon="16.158419257354787"><ele>8.0</ele><time>2026-03-22T13:28:10Z</time></trkpt><trkpt lat="38.11667504872469" lon="16.158385073099787"><ele>7.5</ele><time>2026-03-22T13:28:11Z</time></trkpt><trkpt lat="38.116414079935666" lon="16.158350817314123"><ele>7.0</ele><time>2026-03-22T13:28:12Z</time></trkpt><trkpt lat="38.11614831071193" lon="16.15831593138525"><ele>7.0</ele><time>2026-03-22T13:28:13Z</time></trkpt><trkpt lat="38.11587992865533" lon="16.15828070252262"><ele>7.0</ele><time>2026-03-22T13:28:14Z</time></trkpt><trkpt lat="38.115610089836274" lon="16.15824528242296"><ele>7.0</ele><time>2026-03-22T13:28:15Z</time></trkpt><trkpt lat="38.11533391427176" lon="16.158209030528376"><ele>7.0</ele><time>2026-03-22T13:28:16Z</time></trkpt><trkpt lat="38.115056885178156" lon="16.15817266660644"><ele>7.5</ele><time>2026-03-22T13:28:17Z</time></trkpt><trkpt lat="38.114783402449966" lon="16.1581367682017"><ele>8.0</ele><time>2026-03-22T13:28:18Z</time></trkpt><trkpt lat="38.11450800468343" lon="16.15810060755165"><ele>8.0</ele><time>2026-03-22T13:28:19Z</time></trkpt><trkpt lat="38.11422749510469" lon="16.158063772583386"><ele>8.0</ele><time>2026-03-22T13:28:20Z</time></trkpt><trkpt lat="38.11394789239893" lon="16.158026927527207"><ele>7.5</ele><time>2026-03-22T13:28:21Z</time></trkpt><trkpt lat="38.113665021926884" lon="16.157989358273184"><ele>7.0</ele><time>2026-03-22T13:28:22Z</time></trkpt><trkpt lat="38.11338340710979" lon="16.157952363290104"><ele>7.0</ele><time>2026-03-22T13:28:23Z</time></trkpt><trkpt lat="38.113097845503646" lon="16.15791484984032"><ele>7.0</ele><time>2026-03-22T13:28:24Z</time></trkpt><trkpt lat="38.112804500888025" lon="16.157876313948023"><ele>7.0</ele><time>2026-03-22T13:28:25Z</time></trkpt><trkpt lat="38.1125094083925" lon="16.157837548456587"><ele>7.0</ele><time>2026-03-22T13:28:26Z</time></trkpt><trkpt lat="38.11221158292848" lon="16.15779842392477"><ele>7.5</ele><time>2026-03-22T13:28:27Z</time></trkpt><trkpt lat="38.111913686192175" lon="16.157759364402683"><ele>8.0</ele><time>2026-03-22T13:28:28Z</time></trkpt><trkpt lat="38.111614283759515" lon="16.15771985941511"><ele>8.5</ele><time>2026-03-22T13:28:29Z</time></trkpt><trkpt lat="38.11131512451196" lon="16.157680337190445"><ele>9.0</ele><time>2026-03-22T13:28:30Z</time></trkpt><trkpt lat="38.111011027933294" lon="16.157640162717232"><ele>8.5</ele><time>2026-03-22T13:28:31Z</time></trkpt><trkpt lat="38.11070227590525" lon="16.157599373181665"><ele>8.0</ele><time>2026-03-22T13:28:32Z</time></trkpt><trkpt lat="38.11038965005604" lon="16.157558071909925"><ele>8.0</ele><time>2026-03-22T13:28:33Z</time></trkpt><trkpt lat="38.110073601302076" lon="16.15751610728624"><ele>8.0</ele><time>2026-03-22T13:28:34Z</time></trkpt><trkpt lat="38.109751213290835" lon="16.15747233363398"><ele>9.0</ele><time>2026-03-22T13:28:35Z</time></trkpt><trkpt lat="38.109426380227234" lon="16.15742822796084"><ele>10.0</ele><time>2026-03-22T13:28:36Z</time></trkpt><trkpt lat="38.10909837279499" lon="16.15738369128162"><ele>10.0</ele><time>2026-03-22T13:28:37Z</time></trkpt><trkpt lat="38.108777892562536" lon="16.157340178080624"><ele>10.0</ele><time>2026-03-22T13:28:38Z</time></trkpt><trkpt lat="38.10847765938259" lon="16.157300417794886"><ele>9.0</ele><time>2026-03-22T13:28:39Z</time></trkpt><trkpt lat="38.10817210977322" lon="16.1572609540701"><ele>8.0</ele><time>2026-03-22T13:28:40Z</time></trkpt><trkpt lat="38.10787340263353" lon="16.157222374096495"><ele>8.0</ele><time>2026-03-22T13:28:41Z</time></trkpt><trkpt lat="38.10757287246848" lon="16.157184358265773"><ele>8.0</ele><time>2026-03-22T13:28:42Z</time></trkpt><trkpt lat="38.10727373401626" lon="16.157146584215866"><ele>8.0</ele><time>2026-03-22T13:28:43Z</time></trkpt><trkpt lat="38.10697723629816" lon="16.157109143626393"><ele>8.0</ele><time>2026-03-22T13:28:44Z</time></trkpt><trkpt lat="38.10667912123545" lon="16.15707241069194"><ele>8.0</ele><time>2026-03-22T13:28:45Z</time></trkpt><trkpt lat="38.10638010972117" lon="16.15703633166429"><ele>8.0</ele><time>2026-03-22T13:28:46Z</time></trkpt><trkpt lat="38.10608000896357" lon="16.157000121205012"><ele>8.0</ele><time>2026-03-22T13:28:47Z</time></trkpt><trkpt lat="38.105780127893446" lon="16.15696393736604"><ele>8.0</ele><time>2026-03-22T13:28:48Z</time></trkpt><trkpt lat="38.10548119317592" lon="16.156927743646165"><ele>8.0</ele><time>2026-03-22T13:28:49Z</time></trkpt><trkpt lat="38.10519369962312" lon="16.156893372742214"><ele>8.0</ele><time>2026-03-22T13:28:50Z</time></trkpt><trkpt lat="38.10491029821176" lon="16.15686011536798"><ele>7.5</ele><time>2026-03-22T13:28:51Z</time></trkpt><trkpt lat="38.10462865862933" lon="16.156827064729633"><ele>7.0</ele><time>2026-03-22T13:28:52Z</time></trkpt><trkpt lat="38.104345953541895" lon="16.156793889061902"><ele>6.0</ele><time>2026-03-22T13:28:53Z</time></trkpt><trkpt lat="38.10406654801871" lon="16.156761100626643"><ele>5.0</ele><time>2026-03-22T13:28:54Z</time></trkpt><trkpt lat="38.103789464734845" lon="16.15672858609896"><ele>5.0</ele><time>2026-03-22T13:28:55Z</time></trkpt><trkpt lat="38.10351721214031" lon="16.156697971317875"><ele>5.0</ele><time>2026-03-22T13:28:56Z</time></trkpt><trkpt lat="38.1032463845908" lon="16.156667552720577"><ele>5.5</ele><time>2026-03-22T13:28:57Z</time></trkpt><trkpt lat="38.10297478390721" lon="16.156635933933774"><ele>6.0</ele><time>2026-03-22T13:28:58Z</time></trkpt><trkpt lat="38.10270163125637" lon="16.156604082498838"><ele>6.0</ele><time>2026-03-22T13:28:59Z</time></trkpt><trkpt lat="38.102427604385475" lon="16.156572697779435"><ele>6.0</ele><time>2026-03-22T13:29:00Z</time></trkpt><trkpt lat="38.10215484070675" lon="16.156542463595457"><ele>6.0</ele><time>2026-03-22T13:29:01Z</time></trkpt><trkpt lat="38.10188251906112" lon="16.15651227840566"><ele>6.0</ele><time>2026-03-22T13:29:02Z</time></trkpt><trkpt lat="38.10162516390216" lon="16.156483752164583"><ele>7.0</ele><time>2026-03-22T13:29:03Z</time></trkpt><trkpt lat="38.101370779409706" lon="16.156452747875836"><ele>8.0</ele><time>2026-03-22T13:29:04Z</time></trkpt><trkpt lat="38.10112415785023" lon="16.156410170903737"><ele>8.0</ele><time>2026-03-22T13:29:05Z</time></trkpt><trkpt lat="38.100888069619735" lon="16.156358193160422"><ele>8.0</ele><time>2026-03-22T13:29:06Z</time></trkpt><trkpt lat="38.10064772420078" lon="16.156297164332326"><ele>7.5</ele><time>2026-03-22T13:29:07Z</time></trkpt><trkpt lat="38.10040352222747" lon="16.156225489486122"><ele>7.0</ele><time>2026-03-22T13:29:08Z</time></trkpt><trkpt lat="38.10015628218061" lon="16.156149777811148"><ele>6.5</ele><time>2026-03-22T13:29:09Z</time></trkpt><trkpt lat="38.099907928696986" lon="16.15607225474735"><ele>6.0</ele><time>2026-03-22T13:29:10Z</time></trkpt><trkpt lat="38.099657660417805" lon="16.15599250552927"><ele>6.0</ele><time>2026-03-22T13:29:11Z</time></trkpt><trkpt lat="38.09940607865443" lon="16.15591446732054"><ele>6.0</ele><time>2026-03-22T13:29:12Z</time></trkpt><trkpt lat="38.09915297939195" lon="16.155836434627147"><ele>6.5</ele><time>2026-03-22T13:29:13Z</time></trkpt><trkpt lat="38.09890848187487" lon="16.155761036271336"><ele>7.0</ele><time>2026-03-22T13:29:14Z</time></trkpt><trkpt lat="38.0986667782254" lon="16.155686481368082"><ele>7.5</ele><time>2026-03-22T13:29:15Z</time></trkpt><trkpt lat="38.09841978335273" lon="16.15561029435968"><ele>8.0</ele><time>2026-03-22T13:29:16Z</time></trkpt><trkpt lat="38.098169181656836" lon="16.15553326965395"><ele>8.0</ele><time>2026-03-22T13:29:17Z</time></trkpt><trkpt lat="38.09791710142" lon="16.155456333573543"><ele>8.0</ele><time>2026-03-22T13:29:18Z</time></trkpt><trkpt lat="38.09766964182589" lon="16.155378932501453"><ele>8.0</ele><time>2026-03-22T13:29:19Z</time></trkpt><trkpt lat="38.09742340902669" lon="16.155302619654357"><ele>8.0</ele><time>2026-03-22T13:29:20Z</time></trkpt><trkpt lat="38.09717971719142" lon="16.155228083147918"><ele>8.0</ele><time>2026-03-22T13:29:21Z</time></trkpt><trkpt lat="38.09694292432107" lon="16.15515517097563"><ele>8.0</ele><time>2026-03-22T13:29:22Z</time></trkpt><trkpt lat="38.0967158162275" lon="16.155085240894483"><ele>7.0</ele><time>2026-03-22T13:29:23Z</time></trkpt><trkpt lat="38.0964911079838" lon="16.155016049766076"><ele>6.0</ele><time>2026-03-22T13:29:24Z</time></trkpt><trkpt lat="38.096264296445696" lon="16.154945362246647"><ele>6.0</ele><time>2026-03-22T13:29:25Z</time></trkpt><trkpt lat="38.09603744740711" lon="16.154874323974983"><ele>6.0</ele><time>2026-03-22T13:29:26Z</time></trkpt><trkpt lat="38.09581013215993" lon="16.15480313970937"><ele>7.0</ele><time>2026-03-22T13:29:27Z</time></trkpt><trkpt lat="38.09558033260891" lon="16.15473117747735"><ele>8.0</ele><time>2026-03-22T13:29:28Z</time></trkpt><trkpt lat="38.09534798579075" lon="16.15465930311366"><ele>8.0</ele><time>2026-03-22T13:29:29Z</time></trkpt><trkpt lat="38.09510722657286" lon="16.154661928352084"><ele>8.0</ele><time>2026-03-22T13:29:30Z</time></trkpt><trkpt lat="38.09488420080277" lon="16.15459358904024"><ele>8.0</ele><time>2026-03-22T13:29:31Z</time></trkpt><trkpt lat="38.09466512330555" lon="16.15452393473789"><ele>8.0</ele><time>2026-03-22T13:29:32Z</time></trkpt><trkpt lat="38.094444162271664" lon="16.15445455387067"><ele>8.0</ele><time>2026-03-22T13:29:33Z</time></trkpt><trkpt lat="38.09423144379296" lon="16.154315668436418"><ele>8.0</ele><time>2026-03-22T13:29:34Z</time></trkpt><trkpt lat="38.09398862810428" lon="16.154314631732007"><ele>7.5</ele><time>2026-03-22T13:29:35Z</time></trkpt><trkpt lat="38.093755748656406" lon="16.154243560812446"><ele>7.0</ele><time>2026-03-22T13:29:36Z</time></trkpt><trkpt lat="38.093524990121644" lon="16.154177552557314"><ele>7.0</ele><time>2026-03-22T13:29:37Z</time></trkpt><trkpt lat="38.09329256966433" lon="16.15411183865515"><ele>7.0</ele><time>2026-03-22T13:29:38Z</time></trkpt><trkpt lat="38.09308593741467" lon="16.153961680094564"><ele>7.666666666666667</ele><time>2026-03-22T13:29:39Z</time></trkpt><trkpt lat="38.09287147130757" lon="16.15389390951037"><ele>8.333333333333334</ele><time>2026-03-22T13:29:40Z</time></trkpt><trkpt lat="38.092664398302745" lon="16.15382898682364"><ele>9.0</ele><time>2026-03-22T13:29:41Z</time></trkpt><trkpt lat="38.09245535735444" lon="16.153764171562884"><ele>8.666666666666666</ele><time>2026-03-22T13:29:42Z</time></trkpt><trkpt lat="38.092239211959345" lon="16.153697449569176"><ele>8.333333333333332</ele><time>2026-03-22T13:29:43Z</time></trkpt><trkpt lat="38.09201984673965" lon="16.153628840226578"><ele>8.0</ele><time>2026-03-22T13:29:44Z</time></trkpt><trkpt lat="38.09180594590809" lon="16.153561553509963"><ele>8.0</ele><time>2026-03-22T13:29:45Z</time></trkpt><trkpt lat="38.09160213669842" lon="16.153496870868643"><ele>8.0</ele><time>2026-03-22T13:29:46Z</time></trkpt><trkpt lat="38.09141306321021" lon="16.15343652254638"><ele>8.0</ele><time>2026-03-22T13:29:47Z</time></trkpt><trkpt lat="38.091234859396394" lon="16.153379933945445"><ele>7.333333333333333</ele><time>2026-03-22T13:29:48Z</time></trkpt><trkpt lat="38.091061190220636" lon="16.153324925432152"><ele>6.666666666666666</ele><time>2026-03-22T13:29:49Z</time></trkpt><trkpt lat="38.09089015376513" lon="16.15327103145593"><ele>6.0</ele><time>2026-03-22T13:29:50Z</time></trkpt><trkpt lat="38.0907239472959" lon="16.153221631456766"><ele>6.666666666666666</ele><time>2026-03-22T13:29:51Z</time></trkpt><trkpt lat="38.09055497880721" lon="16.153172340099466"><ele>7.333333333333333</ele><time>2026-03-22T13:29:52Z</time></trkpt><trkpt lat="38.090383086263664" lon="16.153122173163393"><ele>8.0</ele><time>2026-03-22T13:29:53Z</time></trkpt><trkpt lat="38.09020880191238" lon="16.153069562906467"><ele>8.0</ele><time>2026-03-22T13:29:54Z</time></trkpt><trkpt lat="38.090030462828466" lon="16.15301577961736"><ele>8.0</ele><time>2026-03-22T13:29:55Z</time></trkpt><trkpt lat="38.08985440321688" lon="16.152963501297947"><ele>8.0</ele><time>2026-03-22T13:29:56Z</time></trkpt><trkpt lat="38.08969210080216" lon="16.152915382950432"><ele>8.666666666666666</ele><time>2026-03-22T13:29:57Z</time></trkpt><trkpt lat="38.089534198234986" lon="16.152871048455765"><ele>9.333333333333334</ele><time>2026-03-22T13:29:58Z</time></trkpt><trkpt lat="38.0893743384466" lon="16.152899497084878"><ele>10.0</ele><time>2026-03-22T13:29:59Z</time></trkpt><trkpt lat="38.08923897306956" lon="16.152865547119386"><ele>10.0</ele><time>2026-03-22T13:30:00Z</time></trkpt><trkpt lat="38.089112555944574" lon="16.152827884691376"><ele>10.0</ele><time>2026-03-22T13:30:01Z</time></trkpt><trkpt lat="38.08899058692226" lon="16.152783692293426"><ele>10.0</ele><time>2026-03-22T13:30:02Z</time></trkpt><trkpt lat="38.088884410871216" lon="16.15268154434371"><ele>10.0</ele><time>2026-03-22T13:30:03Z</time></trkpt><trkpt lat="38.08876790768839" lon="16.15264837898418"><ele>10.0</ele><time>2026-03-22T13:30:04Z</time></trkpt><trkpt lat="38.088664149075036" lon="16.152618323183262"><ele>10.0</ele><time>2026-03-22T13:30:05Z</time></trkpt><trkpt lat="38.08855784457074" lon="16.152587449508086"><ele>10.0</ele><time>2026-03-22T13:30:06Z</time></trkpt><trkpt lat="38.088441912515364" lon="16.152553122599755"><ele>10.0</ele><time>2026-03-22T13:30:07Z</time></trkpt><trkpt lat="38.088321653358825" lon="16.152517514451134"><ele>10.0</ele><time>2026-03-22T13:30:08Z</time></trkpt><trkpt lat="38.08819742275049" lon="16.152478168838027"><ele>10.0</ele><time>2026-03-22T13:30:09Z</time></trkpt><trkpt lat="38.08807272644766" lon="16.15243124058042"><ele>10.0</ele><time>2026-03-22T13:30:10Z</time></trkpt><trkpt lat="38.087945247736265" lon="16.152369474896854"><ele>10.0</ele><time>2026-03-22T13:30:11Z</time></trkpt><trkpt lat="38.087819688305345" lon="16.15230733333853"><ele>10.0</ele><time>2026-03-22T13:30:12Z</time></trkpt><trkpt lat="38.08769000486086" lon="16.15224298124572"><ele>10.0</ele><time>2026-03-22T13:30:13Z</time></trkpt><trkpt lat="38.08756241130738" lon="16.15218039295573"><ele>10.0</ele><time>2026-03-22T13:30:14Z</time></trkpt><trkpt lat="38.0874286315798" lon="16.152117345952554"><ele>10.0</ele><time>2026-03-22T13:30:15Z</time></trkpt><trkpt lat="38.08728882534976" lon="16.15206198701595"><ele>10.333333333333334</ele><time>2026-03-22T13:30:16Z</time></trkpt><trkpt lat="38.08714916504064" lon="16.152008560507028"><ele>10.666666666666666</ele><time>2026-03-22T13:30:17Z</time></trkpt><trkpt lat="38.08700630683369" lon="16.151945807376265"><ele>11.0</ele><time>2026-03-22T13:30:18Z</time></trkpt><trkpt lat="38.08685962651312" lon="16.151863855180324"><ele>11.0</ele><time>2026-03-22T13:30:19Z</time></trkpt><trkpt lat="38.086718909844386" lon="16.151779651704086"><ele>11.0</ele><time>2026-03-22T13:30:20Z</time></trkpt><trkpt lat="38.08657922587468" lon="16.151686207457157"><ele>11.0</ele><time>2026-03-22T13:30:21Z</time></trkpt><trkpt lat="38.0864405542777" lon="16.151584792682158"><ele>10.333333333333332</ele><time>2026-03-22T13:30:22Z</time></trkpt><trkpt lat="38.08629852726037" lon="16.151474903438572"><ele>9.666666666666666</ele><time>2026-03-22T13:30:23Z</time></trkpt><trkpt lat="38.08615664645756" lon="16.151364572630627"><ele>9.0</ele><time>2026-03-22T13:30:24Z</time></trkpt><trkpt lat="38.08601069329243" lon="16.151240679606044"><ele>9.0</ele><time>2026-03-22T13:30:25Z</time></trkpt><trkpt lat="38.08587569244654" lon="16.151100260561673"><ele>9.0</ele><time>2026-03-22T13:30:26Z</time></trkpt><trkpt lat="38.08574115452394" lon="16.150952421669086"><ele>9.0</ele><time>2026-03-22T13:30:27Z</time></trkpt><trkpt lat="38.08561029997143" lon="16.150801462614883"><ele>9.666666666666666</ele><time>2026-03-22T13:30:28Z</time></trkpt><trkpt lat="38.08547032099392" lon="16.150659799510272"><ele>10.333333333333332</ele><time>2026-03-22T13:30:29Z</time></trkpt><trkpt lat="38.08532191103131" lon="16.15051938585529"><ele>11.0</ele><time>2026-03-22T13:30:30Z</time></trkpt><trkpt lat="38.085176696811075" lon="16.150380164777612"><ele>11.0</ele><time>2026-03-22T13:30:31Z</time></trkpt><trkpt lat="38.08503261995861" lon="16.150240285151806"><ele>11.0</ele><time>2026-03-22T13:30:32Z</time></trkpt><trkpt lat="38.084868223213356" lon="16.15011882123751"><ele>11.0</ele><time>2026-03-22T13:30:33Z</time></trkpt><trkpt lat="38.08470418652866" lon="16.149976435485314"><ele>11.333333333333332</ele><time>2026-03-22T13:30:34Z</time></trkpt><trkpt lat="38.08454320841251" lon="16.14982293562891"><ele>11.666666666666666</ele><time>2026-03-22T13:30:35Z</time></trkpt><trkpt lat="38.084377426934864" lon="16.149667074207127"><ele>12.0</ele><time>2026-03-22T13:30:36Z</time></trkpt><trkpt lat="38.08421649712266" lon="16.149504670268776"><ele>11.666666666666666</ele><time>2026-03-22T13:30:37Z</time></trkpt><trkpt lat="38.08406057777868" lon="16.149319993943298"><ele>11.333333333333332</ele><time>2026-03-22T13:30:38Z</time></trkpt><trkpt lat="38.08388174074577" lon="16.149146172817023"><ele>11.0</ele><time>2026-03-22T13:30:39Z</time></trkpt><trkpt lat="38.08370985940178" lon="16.14897893568023"><ele>11.0</ele><time>2026-03-22T13:30:40Z</time></trkpt><trkpt lat="38.08353713816892" lon="16.148810993555916"><ele>11.0</ele><time>2026-03-22T13:30:41Z</time></trkpt><trkpt lat="38.083362162431655" lon="16.148641410542492"><ele>11.0</ele><time>2026-03-22T13:30:42Z</time></trkpt><trkpt lat="38.08318486140418" lon="16.14846737537765"><ele>10.5</ele><time>2026-03-22T13:30:43Z</time></trkpt><trkpt lat="38.083003796711296" lon="16.148289941158694"><ele>10.0</ele><time>2026-03-22T13:30:44Z</time></trkpt><trkpt lat="38.08282264161277" lon="16.148111645448484"><ele>10.0</ele><time>2026-03-22T13:30:45Z</time></trkpt><trkpt lat="38.08263860644837" lon="16.14793189129123"><ele>10.0</ele><time>2026-03-22T13:30:46Z</time></trkpt><trkpt lat="38.08245446807795" lon="16.147750672265367"><ele>10.5</ele><time>2026-03-22T13:30:47Z</time></trkpt><trkpt lat="38.08227565573117" lon="16.147573140705926"><ele>11.0</ele><time>2026-03-22T13:30:48Z</time></trkpt><trkpt lat="38.082092825337426" lon="16.147391619884225"><ele>10.0</ele><time>2026-03-22T13:30:49Z</time></trkpt><trkpt lat="38.0819084170152" lon="16.14721131330052"><ele>9.0</ele><time>2026-03-22T13:30:50Z</time></trkpt><trkpt lat="38.08172738724221" lon="16.14703487886242"><ele>9.0</ele><time>2026-03-22T13:30:51Z</time></trkpt><trkpt lat="38.081540388628945" lon="16.14685262709519"><ele>9.0</ele><time>2026-03-22T13:30:52Z</time></trkpt><trkpt lat="38.081353900712614" lon="16.14667083863158"><ele>9.0</ele><time>2026-03-22T13:30:53Z</time></trkpt><trkpt lat="38.081168049444244" lon="16.146489343055364"><ele>9.0</ele><time>2026-03-22T13:30:54Z</time></trkpt><trkpt lat="38.08098355987739" lon="16.146309177265508"><ele>9.0</ele><time>2026-03-22T13:30:55Z</time></trkpt><trkpt lat="38.08079414523664" lon="16.14612420182992"><ele>9.0</ele><time>2026-03-22T13:30:56Z</time></trkpt><trkpt lat="38.08060633479809" lon="16.14594060231784"><ele>10.0</ele><time>2026-03-22T13:30:57Z</time></trkpt><trkpt lat="38.08041844040408" lon="16.145754582420203"><ele>11.0</ele><time>2026-03-22T13:30:58Z</time></trkpt><trkpt lat="38.080228104990454" lon="16.14557291743004"><ele>13.0</ele><time>2026-03-22T13:30:59Z</time></trkpt><trkpt lat="38.08003574539508" lon="16.145393396547206"><ele>15.0</ele><time>2026-03-22T13:31:00Z</time></trkpt><trkpt lat="38.07983514242757" lon="16.14522195486266"><ele>15.0</ele><time>2026-03-22T13:31:01Z</time></trkpt><trkpt lat="38.07963528000711" lon="16.14506032773298"><ele>15.0</ele><time>2026-03-22T13:31:02Z</time></trkpt><trkpt lat="38.079430637398914" lon="16.14489666149453"><ele>19.0</ele><time>2026-03-22T13:31:03Z</time></trkpt><trkpt lat="38.0792260592212" lon="16.144735705966088"><ele>23.0</ele><time>2026-03-22T13:31:04Z</time></trkpt><trkpt lat="38.079018682720694" lon="16.144574567418797"><ele>23.0</ele><time>2026-03-22T13:31:05Z</time></trkpt><trkpt lat="38.07880518661561" lon="16.144419823428493"><ele>23.0</ele><time>2026-03-22T13:31:06Z</time></trkpt><trkpt lat="38.078575077831225" lon="16.144292130876334"><ele>23.0</ele><time>2026-03-22T13:31:07Z</time></trkpt><trkpt lat="38.07832440533628" lon="16.14421277476642"><ele>23.0</ele><time>2026-03-22T13:31:08Z</time></trkpt><trkpt lat="38.078054517878186" lon="16.144147600297156"><ele>22.0</ele><time>2026-03-22T13:31:09Z</time></trkpt><trkpt lat="38.077779032095854" lon="16.14408198892255"><ele>21.0</ele><time>2026-03-22T13:31:10Z</time></trkpt><trkpt lat="38.07751663747114" lon="16.144015258020968"><ele>22.5</ele><time>2026-03-22T13:31:11Z</time></trkpt><trkpt lat="38.07726549682443" lon="16.143951366900726"><ele>24.0</ele><time>2026-03-22T13:31:12Z</time></trkpt><trkpt lat="38.07702015260021" lon="16.143888950426053"><ele>24.0</ele><time>2026-03-22T13:31:13Z</time></trkpt><trkpt lat="38.07678156507094" lon="16.143828252880237"><ele>24.0</ele><time>2026-03-22T13:31:14Z</time></trkpt><trkpt lat="38.07654334247293" lon="16.143767829833205"><ele>24.5</ele><time>2026-03-22T13:31:15Z</time></trkpt><trkpt lat="38.076310173609315" lon="16.14370873173181"><ele>25.0</ele><time>2026-03-22T13:31:16Z</time></trkpt><trkpt lat="38.07607328342423" lon="16.143649074711778"><ele>25.0</ele><time>2026-03-22T13:31:17Z</time></trkpt><trkpt lat="38.07584208522978" lon="16.14359100183944"><ele>25.0</ele><time>2026-03-22T13:31:18Z</time></trkpt><trkpt lat="38.0756112363608" lon="16.143533223365345"><ele>23.5</ele><time>2026-03-22T13:31:19Z</time></trkpt><trkpt lat="38.07538573187629" lon="16.14347593211855"><ele>22.0</ele><time>2026-03-22T13:31:20Z</time></trkpt><trkpt lat="38.07516332998004" lon="16.143419319941543"><ele>22.0</ele><time>2026-03-22T13:31:21Z</time></trkpt><trkpt lat="38.07493869999137" lon="16.143362348536844"><ele>22.0</ele><time>2026-03-22T13:31:22Z</time></trkpt><trkpt lat="38.07471785010658" lon="16.143306470390584"><ele>21.666666666666664</ele><time>2026-03-22T13:31:23Z</time></trkpt><trkpt lat="38.07450194754833" lon="16.143251843979883"><ele>21.333333333333332</ele><time>2026-03-22T13:31:24Z</time></trkpt><trkpt lat="38.07428960071252" lon="16.143198082106412"><ele>21.0</ele><time>2026-03-22T13:31:25Z</time></trkpt><trkpt lat="38.07407590492594" lon="16.143143131775034"><ele>23.0</ele><time>2026-03-22T13:31:26Z</time></trkpt><trkpt lat="38.073868676998366" lon="16.143090078663498"><ele>25.0</ele><time>2026-03-22T13:31:27Z</time></trkpt><trkpt lat="38.07366047065708" lon="16.143036816573023"><ele>27.0</ele><time>2026-03-22T13:31:28Z</time></trkpt><trkpt lat="38.07345488787362" lon="16.14298422562836"><ele>25.0</ele><time>2026-03-22T13:31:29Z</time></trkpt><trkpt lat="38.07324937217969" lon="16.142930170919897"><ele>23.0</ele><time>2026-03-22T13:31:30Z</time></trkpt><trkpt lat="38.07304365847433" lon="16.14287617132373"><ele>21.0</ele><time>2026-03-22T13:31:31Z</time></trkpt><trkpt lat="38.072839530119" lon="16.142822587879678"><ele>21.0</ele><time>2026-03-22T13:31:32Z</time></trkpt><trkpt lat="38.072635137989195" lon="16.142768935193068"><ele>21.0</ele><time>2026-03-22T13:31:33Z</time></trkpt><trkpt lat="38.07242877349368" lon="16.142714764763777"><ele>21.0</ele><time>2026-03-22T13:31:34Z</time></trkpt><trkpt lat="38.07221766386102" lon="16.142658720827107"><ele>21.0</ele><time>2026-03-22T13:31:35Z</time></trkpt><trkpt lat="38.07200414026556" lon="16.142601608356077"><ele>21.0</ele><time>2026-03-22T13:31:36Z</time></trkpt><trkpt lat="38.0717867890818" lon="16.1425434720988"><ele>21.0</ele><time>2026-03-22T13:31:37Z</time></trkpt><trkpt lat="38.071568872895135" lon="16.14248621586012"><ele>21.0</ele><time>2026-03-22T13:31:38Z</time></trkpt><trkpt lat="38.07134425601802" lon="16.142429719393487"><ele>21.0</ele><time>2026-03-22T13:31:39Z</time></trkpt><trkpt lat="38.071119763693574" lon="16.142371508394845"><ele>22.0</ele><time>2026-03-22T13:31:40Z</time></trkpt><trkpt lat="38.07089121323696" lon="16.142310904507934"><ele>23.0</ele><time>2026-03-22T13:31:41Z</time></trkpt><trkpt lat="38.07065788148842" lon="16.142249032665372"><ele>23.0</ele><time>2026-03-22T13:31:42Z</time></trkpt><trkpt lat="38.07041490652687" lon="16.142185910223755"><ele>23.0</ele><time>2026-03-22T13:31:43Z</time></trkpt><trkpt lat="38.070168354441265" lon="16.14212153342165"><ele>21.5</ele><time>2026-03-22T13:31:44Z</time></trkpt><trkpt lat="38.06991723722752" lon="16.142053592923236"><ele>20.0</ele><time>2026-03-22T13:31:45Z</time></trkpt><trkpt lat="38.069663332678736" lon="16.141984542825334"><ele>20.0</ele><time>2026-03-22T13:31:46Z</time></trkpt><trkpt lat="38.06940682399317" lon="16.14191373018422"><ele>20.0</ele><time>2026-03-22T13:31:47Z</time></trkpt><trkpt lat="38.06914698544761" lon="16.141840499802832"><ele>19.5</ele><time>2026-03-22T13:31:48Z</time></trkpt><trkpt lat="38.06888276284311" lon="16.14176243507638"><ele>19.0</ele><time>2026-03-22T13:31:49Z</time></trkpt><trkpt lat="38.06861854496725" lon="16.14168337692472"><ele>19.0</ele><time>2026-03-22T13:31:50Z</time></trkpt><trkpt lat="38.0683556041726" lon="16.14160368715539"><ele>19.0</ele><time>2026-03-22T13:31:51Z</time></trkpt><trkpt lat="38.068089249898826" lon="16.141522119575946"><ele>20.5</ele><time>2026-03-22T13:31:52Z</time></trkpt><trkpt lat="38.06781962406924" lon="16.141438951821648"><ele>22.0</ele><time>2026-03-22T13:31:53Z</time></trkpt><trkpt lat="38.06754251150962" lon="16.14135347475383"><ele>18.0</ele><time>2026-03-22T13:31:54Z</time></trkpt><trkpt lat="38.06726949231865" lon="16.14126926029586"><ele>14.0</ele><time>2026-03-22T13:31:55Z</time></trkpt><trkpt lat="38.06699331109713" lon="16.141185053145808"><ele>14.0</ele><time>2026-03-22T13:31:56Z</time></trkpt><trkpt lat="38.06671544849079" lon="16.141100460318032"><ele>14.0</ele><time>2026-03-22T13:31:57Z</time></trkpt><trkpt lat="38.06643514597617" lon="16.141013190412508"><ele>13.0</ele><time>2026-03-22T13:31:58Z</time></trkpt><trkpt lat="38.066153510380964" lon="16.140926306009643"><ele>12.0</ele><time>2026-03-22T13:31:59Z</time></trkpt><trkpt lat="38.06587089880473" lon="16.140840649087504"><ele>12.5</ele><time>2026-03-22T13:32:00Z</time></trkpt><trkpt lat="38.065587937182755" lon="16.140754886078145"><ele>13.0</ele><time>2026-03-22T13:32:01Z</time></trkpt><trkpt lat="38.06530773785703" lon="16.140669690124657"><ele>13.0</ele><time>2026-03-22T13:32:02Z</time></trkpt><trkpt lat="38.06502952446795" lon="16.140584509908976"><ele>13.0</ele><time>2026-03-22T13:32:03Z</time></trkpt><trkpt lat="38.06474648692053" lon="16.140499979040865"><ele>12.0</ele><time>2026-03-22T13:32:04Z</time></trkpt><trkpt lat="38.06446032273068" lon="16.14042562725598"><ele>11.0</ele><time>2026-03-22T13:32:05Z</time></trkpt><trkpt lat="38.06417483517513" lon="16.140368661851085"><ele>10.0</ele><time>2026-03-22T13:32:06Z</time></trkpt><trkpt lat="38.0638931929158" lon="16.140314654750178"><ele>9.0</ele><time>2026-03-22T13:32:07Z</time></trkpt><trkpt lat="38.06361194437055" lon="16.14026072318763"><ele>9.0</ele><time>2026-03-22T13:32:08Z</time></trkpt><trkpt lat="38.06333178550736" lon="16.140207093495732"><ele>9.0</ele><time>2026-03-22T13:32:09Z</time></trkpt><trkpt lat="38.06305857907565" lon="16.14015496348697"><ele>10.0</ele><time>2026-03-22T13:32:10Z</time></trkpt><trkpt lat="38.06278802935409" lon="16.1401039014356"><ele>11.0</ele><time>2026-03-22T13:32:11Z</time></trkpt><trkpt lat="38.06252062918978" lon="16.140052634454584"><ele>10.0</ele><time>2026-03-22T13:32:12Z</time></trkpt><trkpt lat="38.062249012049215" lon="16.14000076390471"><ele>9.0</ele><time>2026-03-22T13:32:13Z</time></trkpt><trkpt lat="38.06197643466085" lon="16.13994956458872"><ele>9.0</ele><time>2026-03-22T13:32:14Z</time></trkpt><trkpt lat="38.06170702092022" lon="16.139901173314104"><ele>9.0</ele><time>2026-03-22T13:32:15Z</time></trkpt><trkpt lat="38.06142810151959" lon="16.139929896889345"><ele>10.5</ele><time>2026-03-22T13:32:16Z</time></trkpt><trkpt lat="38.06115884784095" lon="16.139883380143768"><ele>12.0</ele><time>2026-03-22T13:32:17Z</time></trkpt><trkpt lat="38.0608937007431" lon="16.13984452158388"><ele>12.5</ele><time>2026-03-22T13:32:18Z</time></trkpt><trkpt lat="38.06062493991131" lon="16.13982039226771"><ele>13.0</ele><time>2026-03-22T13:32:19Z</time></trkpt><trkpt lat="38.06035850316142" lon="16.139825610492185"><ele>13.0</ele><time>2026-03-22T13:32:20Z</time></trkpt><trkpt lat="38.06009492929547" lon="16.13983988935623"><ele>13.0</ele><time>2026-03-22T13:32:21Z</time></trkpt><trkpt lat="38.059835773805894" lon="16.139841099597074"><ele>10.5</ele><time>2026-03-22T13:32:22Z</time></trkpt><trkpt lat="38.059582281056045" lon="16.139738593967582"><ele>8.0</ele><time>2026-03-22T13:32:23Z</time></trkpt><trkpt lat="38.05932039615937" lon="16.139691258163225"><ele>10.0</ele><time>2026-03-22T13:32:24Z</time></trkpt><trkpt lat="38.059055166768225" lon="16.139642732189742"><ele>12.0</ele><time>2026-03-22T13:32:25Z</time></trkpt><trkpt lat="38.05879312079195" lon="16.139594214958958"><ele>12.0</ele><time>2026-03-22T13:32:26Z</time></trkpt><trkpt lat="38.05853541181508" lon="16.139545786780534"><ele>12.0</ele><time>2026-03-22T13:32:27Z</time></trkpt><trkpt lat="38.058288291725745" lon="16.13949945234466"><ele>12.5</ele><time>2026-03-22T13:32:28Z</time></trkpt><trkpt lat="38.058054315524714" lon="16.13945619040702"><ele>13.0</ele><time>2026-03-22T13:32:29Z</time></trkpt><trkpt lat="38.057829011589625" lon="16.139416705080315"><ele>13.0</ele><time>2026-03-22T13:32:30Z</time></trkpt><trkpt lat="38.05761034463837" lon="16.1393924334492"><ele>13.0</ele><time>2026-03-22T13:32:31Z</time></trkpt><trkpt lat="38.05738618386842" lon="16.13939918696482"><ele>13.0</ele><time>2026-03-22T13:32:32Z</time></trkpt><trkpt lat="38.057166372900504" lon="16.139438613480305"><ele>14.0</ele><time>2026-03-22T13:32:33Z</time></trkpt><trkpt lat="38.056947886749505" lon="16.139494966903797"><ele>15.0</ele><time>2026-03-22T13:32:34Z</time></trkpt><trkpt lat="38.05673834841149" lon="16.139550082218623"><ele>16.0</ele><time>2026-03-22T13:32:35Z</time></trkpt><trkpt lat="38.05653572774864" lon="16.139600161055267"><ele>16.0</ele><time>2026-03-22T13:32:36Z</time></trkpt><trkpt lat="38.056337590187155" lon="16.13964129447487"><ele>16.0</ele><time>2026-03-22T13:32:37Z</time></trkpt><trkpt lat="38.05613916133898" lon="16.139642395465813"><ele>16.0</ele><time>2026-03-22T13:32:38Z</time></trkpt><trkpt lat="38.055937596862364" lon="16.139612918198488"><ele>16.333333333333332</ele><time>2026-03-22T13:32:39Z</time></trkpt><trkpt lat="38.05572961717433" lon="16.13956783178773"><ele>16.666666666666668</ele><time>2026-03-22T13:32:40Z</time></trkpt><trkpt lat="38.0555232676891" lon="16.139522052889316"><ele>17.0</ele><time>2026-03-22T13:32:41Z</time></trkpt><trkpt lat="38.05532053361503" lon="16.13947707607909"><ele>17.0</ele><time>2026-03-22T13:32:42Z</time></trkpt><trkpt lat="38.055125931232126" lon="16.139433625751415"><ele>17.0</ele><time>2026-03-22T13:32:43Z</time></trkpt><trkpt lat="38.05493983584977" lon="16.13939190013574"><ele>17.0</ele><time>2026-03-22T13:32:44Z</time></trkpt><trkpt lat="38.054762339618726" lon="16.13935210402424"><ele>16.666666666666668</ele><time>2026-03-22T13:32:45Z</time></trkpt><trkpt lat="38.05458234566656" lon="16.139312357914612"><ele>16.333333333333332</ele><time>2026-03-22T13:32:46Z</time></trkpt><trkpt lat="38.05440395800873" lon="16.1392737848111"><ele>16.0</ele><time>2026-03-22T13:32:47Z</time></trkpt><trkpt lat="38.05422485654973" lon="16.13924066688269"><ele>14.666666666666666</ele><time>2026-03-22T13:32:48Z</time></trkpt><trkpt lat="38.05404269898805" lon="16.13922136402938"><ele>13.333333333333332</ele><time>2026-03-22T13:32:49Z</time></trkpt><trkpt lat="38.053856206695606" lon="16.139218175705025"><ele>12.0</ele><time>2026-03-22T13:32:50Z</time></trkpt><trkpt lat="38.053666325756694" lon="16.139221602553203"><ele>12.0</ele><time>2026-03-22T13:32:51Z</time></trkpt><trkpt lat="38.053473317645846" lon="16.13922512223584"><ele>12.0</ele><time>2026-03-22T13:32:52Z</time></trkpt><trkpt lat="38.05327713743369" lon="16.139228738459888"><ele>12.0</ele><time>2026-03-22T13:32:53Z</time></trkpt><trkpt lat="38.053077224308886" lon="16.13923299116097"><ele>11.666666666666666</ele><time>2026-03-22T13:32:54Z</time></trkpt><trkpt lat="38.052875962474154" lon="16.139237658703987"><ele>11.333333333333332</ele><time>2026-03-22T13:32:55Z</time></trkpt><trkpt lat="38.052667390598394" lon="16.139242495780586"><ele>11.0</ele><time>2026-03-22T13:32:56Z</time></trkpt><trkpt lat="38.05245448447704" lon="16.139247088887885"><ele>10.0</ele><time>2026-03-22T13:32:57Z</time></trkpt><trkpt lat="38.05223906839204" lon="16.139251632819914"><ele>9.0</ele><time>2026-03-22T13:32:58Z</time></trkpt><trkpt lat="38.052026230634866" lon="16.13925612236514"><ele>8.0</ele><time>2026-03-22T13:32:59Z</time></trkpt><trkpt lat="38.051816949286845" lon="16.139329240228143"><ele>7.666666666666666</ele><time>2026-03-22T13:33:00Z</time></trkpt><trkpt lat="38.051607463690466" lon="16.139335006909217"><ele>7.333333333333334</ele><time>2026-03-22T13:33:01Z</time></trkpt><trkpt lat="38.05139132914182" lon="16.139334929017156"><ele>7.0</ele><time>2026-03-22T13:33:02Z</time></trkpt><trkpt lat="38.05116903039637" lon="16.139337131378117"><ele>7.0</ele><time>2026-03-22T13:33:03Z</time></trkpt><trkpt lat="38.050942032077856" lon="16.1392791724312"><ele>7.0</ele><time>2026-03-22T13:33:04Z</time></trkpt><trkpt lat="38.05071465828491" lon="16.13928444298414"><ele>6.5</ele><time>2026-03-22T13:33:05Z</time></trkpt><trkpt lat="38.050485059351594" lon="16.139290149807326"><ele>6.0</ele><time>2026-03-22T13:33:06Z</time></trkpt><trkpt lat="38.05025640456753" lon="16.139295834503585"><ele>6.0</ele><time>2026-03-22T13:33:07Z</time></trkpt><trkpt lat="38.05003896752621" lon="16.13930123903628"><ele>6.0</ele><time>2026-03-22T13:33:08Z</time></trkpt><trkpt lat="38.04983403788159" lon="16.13930633268573"><ele>6.0</ele><time>2026-03-22T13:33:09Z</time></trkpt><trkpt lat="38.04963820428108" lon="16.1393114295086"><ele>6.0</ele><time>2026-03-22T13:33:10Z</time></trkpt><trkpt lat="38.04944322078915" lon="16.139316626121293"><ele>6.0</ele><time>2026-03-22T13:33:11Z</time></trkpt><trkpt lat="38.04925706460885" lon="16.139321502685828"><ele>6.0</ele><time>2026-03-22T13:33:12Z</time></trkpt><trkpt lat="38.04906398286063" lon="16.139327001637103"><ele>6.0</ele><time>2026-03-22T13:33:13Z</time></trkpt><trkpt lat="38.048865006159176" lon="16.139331580378652"><ele>6.0</ele><time>2026-03-22T13:33:14Z</time></trkpt><trkpt lat="38.04866312603958" lon="16.1393359523806"><ele>6.0</ele><time>2026-03-22T13:33:15Z</time></trkpt><trkpt lat="38.04845932741516" lon="16.139340365928252"><ele>6.333333333333334</ele><time>2026-03-22T13:33:16Z</time></trkpt><trkpt lat="38.04825762213688" lon="16.13934472727149"><ele>6.666666666666667</ele><time>2026-03-22T13:33:17Z</time></trkpt><trkpt lat="38.04805396449149" lon="16.139349151764755"><ele>7.0</ele><time>2026-03-22T13:33:18Z</time></trkpt><trkpt lat="38.047852177933386" lon="16.139353673627244"><ele>7.0</ele><time>2026-03-22T13:33:19Z</time></trkpt><trkpt lat="38.047656313077695" lon="16.139357574820096"><ele>7.0</ele><time>2026-03-22T13:33:20Z</time></trkpt><trkpt lat="38.04745821020858" lon="16.13936004036013"><ele>7.0</ele><time>2026-03-22T13:33:21Z</time></trkpt><trkpt lat="38.047255054082484" lon="16.139364288067323"><ele>7.333333333333334</ele><time>2026-03-22T13:33:22Z</time></trkpt><trkpt lat="38.04706145784221" lon="16.13944618221426"><ele>7.666666666666666</ele><time>2026-03-22T13:33:23Z</time></trkpt><trkpt lat="38.04686473687491" lon="16.139451759026542"><ele>8.0</ele><time>2026-03-22T13:33:24Z</time></trkpt><trkpt lat="38.046672282485055" lon="16.13946305653105"><ele>8.333333333333332</ele><time>2026-03-22T13:33:25Z</time></trkpt><trkpt lat="38.04648648789487" lon="16.139483476016174"><ele>8.666666666666666</ele><time>2026-03-22T13:33:26Z</time></trkpt><trkpt lat="38.046291004585264" lon="16.13945073098484"><ele>9.0</ele><time>2026-03-22T13:33:27Z</time></trkpt><trkpt lat="38.0461023029366" lon="16.139509601972943"><ele>9.0</ele><time>2026-03-22T13:33:28Z</time></trkpt><trkpt lat="38.04592595609165" lon="16.139582051164897"><ele>9.0</ele><time>2026-03-22T13:33:29Z</time></trkpt><trkpt lat="38.045746627335184" lon="16.139657573011107"><ele>9.0</ele><time>2026-03-22T13:33:30Z</time></trkpt><trkpt lat="38.04557288083704" lon="16.139731880792716"><ele>9.0</ele><time>2026-03-22T13:33:31Z</time></trkpt><trkpt lat="38.04541143877226" lon="16.139801460307474"><ele>9.0</ele><time>2026-03-22T13:33:32Z</time></trkpt><trkpt lat="38.04525214698987" lon="16.13987032404509"><ele>9.0</ele><time>2026-03-22T13:33:33Z</time></trkpt><trkpt lat="38.045094656141956" lon="16.139938409230524"><ele>10.666666666666668</ele><time>2026-03-22T13:33:34Z</time></trkpt><trkpt lat="38.04493925259462" lon="16.140005592059893"><ele>12.333333333333334</ele><time>2026-03-22T13:33:35Z</time></trkpt><trkpt lat="38.04478224025128" lon="16.14007347041387"><ele>14.0</ele><time>2026-03-22T13:33:36Z</time></trkpt><trkpt lat="38.04462529568881" lon="16.140141319396722"><ele>14.0</ele><time>2026-03-22T13:33:37Z</time></trkpt><trkpt lat="38.04446801381059" lon="16.14020897690981"><ele>14.0</ele><time>2026-03-22T13:33:38Z</time></trkpt><trkpt lat="38.04431252161737" lon="16.140275742299785"><ele>14.0</ele><time>2026-03-22T13:33:39Z</time></trkpt><trkpt lat="38.04415320758489" lon="16.14034414874685"><ele>17.333333333333336</ele><time>2026-03-22T13:33:40Z</time></trkpt><trkpt lat="38.04398768191067" lon="16.140415222326837"><ele>20.666666666666668</ele><time>2026-03-22T13:33:41Z</time></trkpt><trkpt lat="38.043814212332364" lon="16.14048898831477"><ele>24.0</ele><time>2026-03-22T13:33:42Z</time></trkpt><trkpt lat="38.04363101091744" lon="16.14056339945134"><ele>24.0</ele><time>2026-03-22T13:33:43Z</time></trkpt><trkpt lat="38.04343796649188" lon="16.140632443902952"><ele>24.0</ele><time>2026-03-22T13:33:44Z</time></trkpt><trkpt lat="38.04324260545169" lon="16.14068159258618"><ele>24.0</ele><time>2026-03-22T13:33:45Z</time></trkpt><trkpt lat="38.043030763865566" lon="16.14071219020065"><ele>22.0</ele><time>2026-03-22T13:33:46Z</time></trkpt><trkpt lat="38.04282101224244" lon="16.140839977797203"><ele>20.0</ele><time>2026-03-22T13:33:47Z</time></trkpt><trkpt lat="38.0426181677289" lon="16.140905741681078"><ele>18.0</ele><time>2026-03-22T13:33:48Z</time></trkpt><trkpt lat="38.04242803546972" lon="16.141000935471006"><ele>24.333333333333336</ele><time>2026-03-22T13:33:49Z</time></trkpt><trkpt lat="38.04224685242331" lon="16.141119550824683"><ele>30.666666666666668</ele><time>2026-03-22T13:33:50Z</time></trkpt><trkpt lat="38.04203789171601" lon="16.14118887244145"><ele>37.0</ele><time>2026-03-22T13:33:51Z</time></trkpt><trkpt lat="38.04186823806521" lon="16.141344736801123"><ele>37.0</ele><time>2026-03-22T13:33:52Z</time></trkpt><trkpt lat="38.04170692019243" lon="16.141499543263713"><ele>37.0</ele><time>2026-03-22T13:33:53Z</time></trkpt><trkpt lat="38.04156441558743" lon="16.141638403059165"><ele>37.0</ele><time>2026-03-22T13:33:54Z</time></trkpt><trkpt lat="38.04143324100812" lon="16.141766222424327"><ele>40.5</ele><time>2026-03-22T13:33:55Z</time></trkpt><trkpt lat="38.04130986177492" lon="16.1418864459234"><ele>44.0</ele><time>2026-03-22T13:33:56Z</time></trkpt><trkpt lat="38.04119514147063" lon="16.141998436147517"><ele>47.5</ele><time>2026-03-22T13:33:57Z</time></trkpt><trkpt lat="38.04108962411188" lon="16.142101895994447"><ele>51.0</ele><time>2026-03-22T13:33:58Z</time></trkpt><trkpt lat="38.04099371721981" lon="16.142197340968476"><ele>51.0</ele><time>2026-03-22T13:33:59Z</time></trkpt><trkpt lat="38.040906828990984" lon="16.14228387463867"><ele>51.0</ele><time>2026-03-22T13:34:00Z</time></trkpt><trkpt lat="38.04082461863375" lon="16.142366673582384"><ele>51.0</ele><time>2026-03-22T13:34:01Z</time></trkpt><trkpt lat="38.04075012794013" lon="16.142449337802535"><ele>51.0</ele><time>2026-03-22T13:34:02Z</time></trkpt><trkpt lat="38.040685391252445" lon="16.142526071858637"><ele>51.0</ele><time>2026-03-22T13:34:03Z</time></trkpt><trkpt lat="38.04063069071807" lon="16.142601069541353"><ele>53.4</ele><time>2026-03-22T13:34:04Z</time></trkpt><trkpt lat="38.040574860945135" lon="16.142693055314307"><ele>55.8</ele><time>2026-03-22T13:34:06Z</time></trkpt><trkpt lat="38.04053867722119" lon="16.14276035829986"><ele>58.199999999999996</ele><time>2026-03-22T13:34:09Z</time></trkpt><trkpt lat="38.04048990736991" lon="16.142863336950583"><ele>60.599999999999994</ele><time>2026-03-22T13:35:48Z</time></trkpt><trkpt lat="38.04046009071847" lon="16.14294220753845"><ele>63.0</ele><time>2026-03-22T13:35:49Z</time></trkpt><trkpt lat="38.04041360090164" lon="16.14310453412386"><ele>60.2</ele><time>2026-03-22T13:35:50Z</time></trkpt><trkpt lat="38.04039229970025" lon="16.1432298166088"><ele>57.4</ele><time>2026-03-22T13:35:51Z</time></trkpt><trkpt lat="38.040379086744835" lon="16.14333124820554"><ele>54.6</ele><time>2026-03-22T13:35:52Z</time></trkpt><trkpt lat="38.040356621796306" lon="16.143489372473926"><ele>51.800000000000004</ele><time>2026-03-22T13:35:54Z</time></trkpt><trkpt lat="38.04032761531387" lon="16.143655635224746"><ele>49.0</ele><time>2026-03-22T13:35:56Z</time></trkpt><trkpt lat="38.04029878606752" lon="16.143753815933636"><ele>49.0</ele><time>2026-03-22T13:35:57Z</time></trkpt><trkpt lat="38.040258645729324" lon="16.143865873772242"><ele>49.0</ele><time>2026-03-22T13:35:58Z</time></trkpt><trkpt lat="38.040191799310996" lon="16.14402456139954"><ele>49.0</ele><time>2026-03-22T13:35:59Z</time></trkpt><trkpt lat="38.04009834532441" lon="16.14420486945341"><ele>49.0</ele><time>2026-03-22T13:36:00Z</time></trkpt><trkpt lat="38.04002455682763" lon="16.14434092913816"><ele>47.400000000000006</ele><time>2026-03-22T13:36:01Z</time></trkpt><trkpt lat="38.03995676801134" lon="16.14446168881593"><ele>45.8</ele><time>2026-03-22T13:36:02Z</time></trkpt><trkpt lat="38.039888905095935" lon="16.144569253337956"><ele>44.2</ele><time>2026-03-22T13:36:03Z</time></trkpt><trkpt lat="38.039818570406936" lon="16.144667740515573"><ele>42.599999999999994</ele><time>2026-03-22T13:36:04Z</time></trkpt><trkpt lat="38.03973859834661" lon="16.144731198018675"><ele>41.0</ele><time>2026-03-22T13:36:05Z</time></trkpt><trkpt lat="38.03965519573295" lon="16.144761708566538"><ele>41.0</ele><time>2026-03-22T13:36:06Z</time></trkpt><trkpt lat="38.03955823314469" lon="16.14480165843508"><ele>41.0</ele><time>2026-03-22T13:36:07Z</time></trkpt><trkpt lat="38.03945361261755" lon="16.144802569370032"><ele>41.0</ele><time>2026-03-22T13:36:08Z</time></trkpt><trkpt lat="38.03935558877046" lon="16.144760773131612"><ele>41.0</ele><time>2026-03-22T13:36:09Z</time></trkpt><trkpt lat="38.039260036222466" lon="16.14472820899434"><ele>41.0</ele><time>2026-03-22T13:36:10Z</time></trkpt><trkpt lat="38.03917589549214" lon="16.144653847445657"><ele>34.599999999999994</ele><time>2026-03-22T13:36:11Z</time></trkpt><trkpt lat="38.03911395560692" lon="16.144536691479985"><ele>28.2</ele><time>2026-03-22T13:36:12Z</time></trkpt><trkpt lat="38.03904727846197" lon="16.144436591021385"><ele>21.799999999999997</ele><time>2026-03-22T13:36:13Z</time></trkpt><trkpt lat="38.038986572675235" lon="16.144336010663007"><ele>15.399999999999999</ele><time>2026-03-22T13:36:14Z</time></trkpt><trkpt lat="38.03892798014113" lon="16.144252790752567"><ele>9.0</ele><time>2026-03-22T13:36:15Z</time></trkpt><trkpt lat="38.03887026140778" lon="16.14418064179454"><ele>9.0</ele><time>2026-03-22T13:36:16Z</time></trkpt><trkpt lat="38.0388123948987" lon="16.144114162565806"><ele>9.0</ele><time>2026-03-22T13:36:17Z</time></trkpt><trkpt lat="38.03876075952723" lon="16.14403070262679"><ele>9.0</ele><time>2026-03-22T13:36:18Z</time></trkpt><trkpt lat="38.03870992195847" lon="16.143934438092487"><ele>9.0</ele><time>2026-03-22T13:36:19Z</time></trkpt><trkpt lat="38.038637529143095" lon="16.143832485707993"><ele>9.0</ele><time>2026-03-22T13:36:20Z</time></trkpt><trkpt lat="38.03854662363734" lon="16.143715640712042"><ele>8.5</ele><time>2026-03-22T13:36:21Z</time></trkpt><trkpt lat="38.03846523075491" lon="16.14357352856933"><ele>8.0</ele><time>2026-03-22T13:36:22Z</time></trkpt><trkpt lat="38.03837597623342" lon="16.143440110127905"><ele>7.5</ele><time>2026-03-22T13:36:23Z</time></trkpt><trkpt lat="38.03828856020357" lon="16.14330825453266"><ele>7.0</ele><time>2026-03-22T13:36:24Z</time></trkpt><trkpt lat="38.038197384139345" lon="16.14317289622296"><ele>14.666666666666668</ele><time>2026-03-22T13:36:25Z</time></trkpt><trkpt lat="38.03809978623965" lon="16.143041732066965"><ele>22.333333333333332</ele><time>2026-03-22T13:36:26Z</time></trkpt><trkpt lat="38.03798382393729" lon="16.142911939183215"><ele>30.0</ele><time>2026-03-22T13:36:27Z</time></trkpt><trkpt lat="38.03783211629339" lon="16.142802725278756"><ele>30.0</ele><time>2026-03-22T13:36:28Z</time></trkpt><trkpt lat="38.037640225018066" lon="16.142746188012065"><ele>30.0</ele><time>2026-03-22T13:36:29Z</time></trkpt><trkpt lat="38.03743793643952" lon="16.14271457859004"><ele>30.0</ele><time>2026-03-22T13:36:30Z</time></trkpt><trkpt lat="38.03723816887979" lon="16.142691285142003"><ele>29.0</ele><time>2026-03-22T13:36:31Z</time></trkpt><trkpt lat="38.03703294975506" lon="16.142669502566015"><ele>28.0</ele><time>2026-03-22T13:36:32Z</time></trkpt><trkpt lat="38.03683201956167" lon="16.142648659425834"><ele>27.0</ele><time>2026-03-22T13:36:33Z</time></trkpt><trkpt lat="38.036632866012994" lon="16.142626370876524"><ele>25.0</ele><time>2026-03-22T13:36:34Z</time></trkpt><trkpt lat="38.03643970923271" lon="16.14259604684769"><ele>23.0</ele><time>2026-03-22T13:36:35Z</time></trkpt><trkpt lat="38.03624587273434" lon="16.142560047839613"><ele>21.0</ele><time>2026-03-22T13:36:36Z</time></trkpt><trkpt lat="38.03604814993222" lon="16.14252536917025"><ele>21.0</ele><time>2026-03-22T13:36:37Z</time></trkpt><trkpt lat="38.03584754363216" lon="16.142506730294837"><ele>21.0</ele><time>2026-03-22T13:36:38Z</time></trkpt><trkpt lat="38.035646052743026" lon="16.142520710761225"><ele>21.0</ele><time>2026-03-22T13:36:39Z</time></trkpt><trkpt lat="38.035442272584774" lon="16.142553968290787"><ele>24.333333333333336</ele><time>2026-03-22T13:36:40Z</time></trkpt><trkpt lat="38.035257823086575" lon="16.142586708218662"><ele>27.666666666666668</ele><time>2026-03-22T13:36:41Z</time></trkpt><trkpt lat="38.035071821789955" lon="16.142619322140117"><ele>31.0</ele><time>2026-03-22T13:36:42Z</time></trkpt><trkpt lat="38.034884597372454" lon="16.14265215817144"><ele>35.0</ele><time>2026-03-22T13:36:43Z</time></trkpt><trkpt lat="38.03469771558832" lon="16.14268494699421"><ele>39.0</ele><time>2026-03-22T13:36:44Z</time></trkpt><trkpt lat="38.03451116103527" lon="16.142717678362754"><ele>43.0</ele><time>2026-03-22T13:36:45Z</time></trkpt><trkpt lat="38.03432426250637" lon="16.142750470091332"><ele>47.0</ele><time>2026-03-22T13:36:46Z</time></trkpt><trkpt lat="38.034135836127874" lon="16.14278414894067"><ele>51.0</ele><time>2026-03-22T13:36:47Z</time></trkpt><trkpt lat="38.03395502742884" lon="16.142819013239357"><ele>55.0</ele><time>2026-03-22T13:36:48Z</time></trkpt><trkpt lat="38.03377694488277" lon="16.142866535165155"><ele>55.0</ele><time>2026-03-22T13:36:49Z</time></trkpt><trkpt lat="38.03360633570655" lon="16.142921740376593"><ele>55.0</ele><time>2026-03-22T13:36:50Z</time></trkpt><trkpt lat="38.03344373607424" lon="16.142984799610346"><ele>55.0</ele><time>2026-03-22T13:36:51Z</time></trkpt><trkpt lat="38.033284583845585" lon="16.143055138133644"><ele>56.666666666666664</ele><time>2026-03-22T13:36:52Z</time></trkpt><trkpt lat="38.03313395168059" lon="16.143123667367597"><ele>58.33333333333333</ele><time>2026-03-22T13:36:53Z</time></trkpt><trkpt lat="38.03298575350841" lon="16.143180561587677"><ele>60.0</ele><time>2026-03-22T13:36:54Z</time></trkpt><trkpt lat="38.032837690987556" lon="16.143208347512484"><ele>60.0</ele><time>2026-03-22T13:36:55Z</time></trkpt><trkpt lat="38.03268847417813" lon="16.14321757169398"><ele>60.0</ele><time>2026-03-22T13:36:56Z</time></trkpt><trkpt lat="38.03253273536373" lon="16.14321346709809"><ele>60.0</ele><time>2026-03-22T13:36:57Z</time></trkpt><trkpt lat="38.03238259266022" lon="16.14320345875052"><ele>54.666666666666664</ele><time>2026-03-22T13:36:58Z</time></trkpt><trkpt lat="38.032232165233204" lon="16.14318599305314"><ele>49.33333333333333</ele><time>2026-03-22T13:36:59Z</time></trkpt><trkpt lat="38.032075651197616" lon="16.143173051111056"><ele>44.0</ele><time>2026-03-22T13:37:00Z</time></trkpt><trkpt lat="38.031925658075686" lon="16.14311687889305"><ele>44.0</ele><time>2026-03-22T13:37:01Z</time></trkpt><trkpt lat="38.03177132038562" lon="16.143061717584207"><ele>44.0</ele><time>2026-03-22T13:37:02Z</time></trkpt><trkpt lat="38.03163011321424" lon="16.143025268286365"><ele>44.0</ele><time>2026-03-22T13:37:03Z</time></trkpt><trkpt lat="38.031508690222374" lon="16.14295734900193"><ele>44.0</ele><time>2026-03-22T13:37:04Z</time></trkpt><trkpt lat="38.03139588117478" lon="16.142903761222286"><ele>40.25</ele><time>2026-03-22T13:37:05Z</time></trkpt><trkpt lat="38.03128975335943" lon="16.142846268158312"><ele>36.5</ele><time>2026-03-22T13:37:06Z</time></trkpt><trkpt lat="38.03118281523966" lon="16.14277875948168"><ele>32.75</ele><time>2026-03-22T13:37:07Z</time></trkpt><trkpt lat="38.0310704740926" lon="16.14269126159861"><ele>29.0</ele><time>2026-03-22T13:37:08Z</time></trkpt><trkpt lat="38.03095158795081" lon="16.14259374628354"><ele>29.0</ele><time>2026-03-22T13:37:09Z</time></trkpt><trkpt lat="38.03081354555278" lon="16.1425141883286"><ele>29.0</ele><time>2026-03-22T13:37:10Z</time></trkpt><trkpt lat="38.03065630809143" lon="16.142450579088983"><ele>29.0</ele><time>2026-03-22T13:37:11Z</time></trkpt><trkpt lat="38.030486610046495" lon="16.142416327363037"><ele>27.0</ele><time>2026-03-22T13:37:12Z</time></trkpt><trkpt lat="38.030311584904986" lon="16.142390886089057"><ele>25.0</ele><time>2026-03-22T13:37:13Z</time></trkpt><trkpt lat="38.03013053002152" lon="16.142367829453566"><ele>23.0</ele><time>2026-03-22T13:37:14Z</time></trkpt><trkpt lat="38.02994819558799" lon="16.14235148721773"><ele>38.0</ele><time>2026-03-22T13:37:15Z</time></trkpt><trkpt lat="38.02976020829042" lon="16.142344894826692"><ele>53.0</ele><time>2026-03-22T13:37:16Z</time></trkpt><trkpt lat="38.029592558170606" lon="16.14234567908679"><ele>68.0</ele><time>2026-03-22T13:37:17Z</time></trkpt><trkpt lat="38.02942521983938" lon="16.14234474546861"><ele>68.0</ele><time>2026-03-22T13:37:18Z</time></trkpt><trkpt lat="38.02928023329108" lon="16.14231603801076"><ele>68.0</ele><time>2026-03-22T13:37:19Z</time></trkpt><trkpt lat="38.02912718407385" lon="16.14224725029948"><ele>68.0</ele><time>2026-03-22T13:37:20Z</time></trkpt><trkpt lat="38.02897851628928" lon="16.14214149518669"><ele>55.0</ele><time>2026-03-22T13:37:21Z</time></trkpt><trkpt lat="38.02881800370354" lon="16.142023142235182"><ele>42.0</ele><time>2026-03-22T13:37:22Z</time></trkpt><trkpt lat="38.02865472144239" lon="16.141899889629496"><ele>29.0</ele><time>2026-03-22T13:37:23Z</time></trkpt><trkpt lat="38.02849086905096" lon="16.141768766945663"><ele>29.0</ele><time>2026-03-22T13:37:24Z</time></trkpt><trkpt lat="38.028323991931316" lon="16.14162544972153"><ele>29.0</ele><time>2026-03-22T13:37:25Z</time></trkpt><trkpt lat="38.028160050567195" lon="16.141467263103884"><ele>29.0</ele><time>2026-03-22T13:37:26Z</time></trkpt><trkpt lat="38.02799476192029" lon="16.14130262733565"><ele>26.666666666666664</ele><time>2026-03-22T13:37:27Z</time></trkpt><trkpt lat="38.02782955684027" lon="16.14113569332632"><ele>24.333333333333332</ele><time>2026-03-22T13:37:28Z</time></trkpt><trkpt lat="38.027660157207414" lon="16.140964520884204"><ele>22.0</ele><time>2026-03-22T13:37:29Z</time></trkpt><trkpt lat="38.027491444747525" lon="16.140793282029907"><ele>21.333333333333332</ele><time>2026-03-22T13:37:30Z</time></trkpt><trkpt lat="38.02732020369714" lon="16.14061936111146"><ele>20.666666666666668</ele><time>2026-03-22T13:37:31Z</time></trkpt><trkpt lat="38.02714731575158" lon="16.140443438372852"><ele>20.0</ele><time>2026-03-22T13:37:32Z</time></trkpt><trkpt lat="38.02697161884569" lon="16.140266708814146"><ele>20.0</ele><time>2026-03-22T13:37:33Z</time></trkpt><trkpt lat="38.026786305464206" lon="16.140103351655796"><ele>20.0</ele><time>2026-03-22T13:37:34Z</time></trkpt><trkpt lat="38.026594526892474" lon="16.139954647212463"><ele>19.666666666666668</ele><time>2026-03-22T13:37:35Z</time></trkpt><trkpt lat="38.02640443834677" lon="16.13981354645869"><ele>19.333333333333332</ele><time>2026-03-22T13:37:36Z</time></trkpt><trkpt lat="38.02621136051852" lon="16.13967302260842"><ele>19.0</ele><time>2026-03-22T13:37:37Z</time></trkpt><trkpt lat="38.026016624107754" lon="16.139535588414507"><ele>16.0</ele><time>2026-03-22T13:37:38Z</time></trkpt><trkpt lat="38.02580960396006" lon="16.13942016723813"><ele>13.0</ele><time>2026-03-22T13:37:39Z</time></trkpt><trkpt lat="38.025593702756694" lon="16.13932199181735"><ele>13.0</ele><time>2026-03-22T13:37:40Z</time></trkpt><trkpt lat="38.025376078466714" lon="16.139238914218016"><ele>13.0</ele><time>2026-03-22T13:37:41Z</time></trkpt><trkpt lat="38.025162209629734" lon="16.139156764356628"><ele>11.0</ele><time>2026-03-22T13:37:42Z</time></trkpt><trkpt lat="38.02494889468157" lon="16.13907346049909"><ele>9.0</ele><time>2026-03-22T13:37:43Z</time></trkpt><trkpt lat="38.024734972685216" lon="16.138989694974477"><ele>7.0</ele><time>2026-03-22T13:37:44Z</time></trkpt><trkpt lat="38.02452701203662" lon="16.138902215526148"><ele>8.666666666666668</ele><time>2026-03-22T13:37:45Z</time></trkpt><trkpt lat="38.024320891076556" lon="16.138801279027838"><ele>10.333333333333334</ele><time>2026-03-22T13:37:46Z</time></trkpt><trkpt lat="38.024116618649686" lon="16.138694729811203"><ele>12.0</ele><time>2026-03-22T13:37:47Z</time></trkpt><trkpt lat="38.02391080667926" lon="16.13858580050686"><ele>12.0</ele><time>2026-03-22T13:37:48Z</time></trkpt><trkpt lat="38.023704200575494" lon="16.138476450851016"><ele>12.0</ele><time>2026-03-22T13:37:49Z</time></trkpt><trkpt lat="38.0234972429585" lon="16.138366557042005"><ele>12.0</ele><time>2026-03-22T13:37:50Z</time></trkpt><trkpt lat="38.02329103315769" lon="16.138255693025286"><ele>13.666666666666668</ele><time>2026-03-22T13:37:51Z</time></trkpt><trkpt lat="38.02308564983299" lon="16.138146553704562"><ele>15.333333333333334</ele><time>2026-03-22T13:37:52Z</time></trkpt><trkpt lat="38.02288608445587" lon="16.13802273930607"><ele>17.0</ele><time>2026-03-22T13:37:53Z</time></trkpt><trkpt lat="38.02269342575151" lon="16.137881539372003"><ele>17.0</ele><time>2026-03-22T13:37:54Z</time></trkpt><trkpt lat="38.0225090978666" lon="16.13772119845349"><ele>17.0</ele><time>2026-03-22T13:37:55Z</time></trkpt><trkpt lat="38.022335381414365" lon="16.1375314673821"><ele>17.5</ele><time>2026-03-22T13:37:56Z</time></trkpt><trkpt lat="38.02216287496904" lon="16.13733891319307"><ele>18.0</ele><time>2026-03-22T13:37:57Z</time></trkpt><trkpt lat="38.02199103308217" lon="16.13714285713062"><ele>18.0</ele><time>2026-03-22T13:37:58Z</time></trkpt><trkpt lat="38.02182150572027" lon="16.136943018140848"><ele>18.0</ele><time>2026-03-22T13:37:59Z</time></trkpt><trkpt lat="38.02164720436392" lon="16.13673870520229"><ele>16.5</ele><time>2026-03-22T13:38:00Z</time></trkpt><trkpt lat="38.021471288023704" lon="16.136537776180088"><ele>15.0</ele><time>2026-03-22T13:38:01Z</time></trkpt><trkpt lat="38.02129577637253" lon="16.136335960327475"><ele>15.0</ele><time>2026-03-22T13:38:02Z</time></trkpt><trkpt lat="38.02112291152092" lon="16.136134190744745"><ele>15.0</ele><time>2026-03-22T13:38:03Z</time></trkpt><trkpt lat="38.02095034053233" lon="16.135930498535977"><ele>13.0</ele><time>2026-03-22T13:38:04Z</time></trkpt><trkpt lat="38.020783386448564" lon="16.135726237227978"><ele>11.0</ele><time>2026-03-22T13:38:05Z</time></trkpt><trkpt lat="38.020640360678485" lon="16.13550896524829"><ele>11.0</ele><time>2026-03-22T13:38:06Z</time></trkpt><trkpt lat="38.020507496686356" lon="16.135272178709958"><ele>11.0</ele><time>2026-03-22T13:38:07Z</time></trkpt><trkpt lat="38.020376509293534" lon="16.135037173354462"><ele>11.666666666666666</ele><time>2026-03-22T13:38:08Z</time></trkpt><trkpt lat="38.02024767116037" lon="16.134809954836847"><ele>12.333333333333332</ele><time>2026-03-22T13:38:09Z</time></trkpt><trkpt lat="38.02012097080152" lon="16.134596762697598"><ele>13.0</ele><time>2026-03-22T13:38:10Z</time></trkpt><trkpt lat="38.0199683508392" lon="16.134419232128867"><ele>11.666666666666666</ele><time>2026-03-22T13:38:11Z</time></trkpt><trkpt lat="38.01978960182089" lon="16.134266267512174"><ele>10.333333333333332</ele><time>2026-03-22T13:38:12Z</time></trkpt><trkpt lat="38.019597858819424" lon="16.13415112477171"><ele>9.0</ele><time>2026-03-22T13:38:13Z</time></trkpt><trkpt lat="38.01939541173812" lon="16.134053081126677"><ele>8.666666666666666</ele><time>2026-03-22T13:38:14Z</time></trkpt><trkpt lat="38.01919821864354" lon="16.133964382087477"><ele>8.333333333333332</ele><time>2026-03-22T13:38:15Z</time></trkpt><trkpt lat="38.018998010768" lon="16.133870383882503"><ele>8.0</ele><time>2026-03-22T13:38:16Z</time></trkpt><trkpt lat="38.01880049978487" lon="16.13377829252926"><ele>8.0</ele><time>2026-03-22T13:38:17Z</time></trkpt><trkpt lat="38.01860396214293" lon="16.133687108692648"><ele>8.0</ele><time>2026-03-22T13:38:18Z</time></trkpt><trkpt lat="38.018412234449116" lon="16.133598202608987"><ele>8.0</ele><time>2026-03-22T13:38:19Z</time></trkpt><trkpt lat="38.01822996402423" lon="16.13351330245607"><ele>9.333333333333332</ele><time>2026-03-22T13:38:20Z</time></trkpt><trkpt lat="38.018050492544354" lon="16.133435076042865"><ele>10.666666666666666</ele><time>2026-03-22T13:38:21Z</time></trkpt><trkpt lat="38.01786556208295" lon="16.133375326640067"><ele>12.0</ele><time>2026-03-22T13:38:22Z</time></trkpt><trkpt lat="38.01765588189686" lon="16.133350131187274"><ele>14.666666666666668</ele><time>2026-03-22T13:38:23Z</time></trkpt><trkpt lat="38.017456191458905" lon="16.13338322519128"><ele>17.333333333333336</ele><time>2026-03-22T13:38:24Z</time></trkpt><trkpt lat="38.0172570768223" lon="16.133465236259575"><ele>20.0</ele><time>2026-03-22T13:38:25Z</time></trkpt><trkpt lat="38.01709098761174" lon="16.133629912605166"><ele>20.0</ele><time>2026-03-22T13:38:26Z</time></trkpt><trkpt lat="38.016914172690505" lon="16.133748699560208"><ele>20.0</ele><time>2026-03-22T13:38:27Z</time></trkpt><trkpt lat="38.01673483417814" lon="16.133850568481215"><ele>20.0</ele><time>2026-03-22T13:38:28Z</time></trkpt><trkpt lat="38.01655222593595" lon="16.133913798307596"><ele>21.0</ele><time>2026-03-22T13:38:29Z</time></trkpt><trkpt lat="38.01635915069752" lon="16.133835731204048"><ele>22.0</ele><time>2026-03-22T13:38:30Z</time></trkpt><trkpt lat="38.016169491133226" lon="16.133806435486992"><ele>23.0</ele><time>2026-03-22T13:38:31Z</time></trkpt><trkpt lat="38.0159772882971" lon="16.13372805914627"><ele>20.333333333333336</ele><time>2026-03-22T13:38:32Z</time></trkpt><trkpt lat="38.01579053780737" lon="16.13362375464918"><ele>17.666666666666668</ele><time>2026-03-22T13:38:33Z</time></trkpt><trkpt lat="38.015598014200116" lon="16.133511037206038"><ele>15.0</ele><time>2026-03-22T13:38:34Z</time></trkpt><trkpt lat="38.01539945301825" lon="16.133394784936833"><ele>15.0</ele><time>2026-03-22T13:38:35Z</time></trkpt><trkpt lat="38.01520380127271" lon="16.133276909057756"><ele>15.0</ele><time>2026-03-22T13:38:36Z</time></trkpt><trkpt lat="38.015008997845236" lon="16.13315911478714"><ele>15.0</ele><time>2026-03-22T13:38:37Z</time></trkpt><trkpt lat="38.01481251458551" lon="16.13304030515543"><ele>16.333333333333332</ele><time>2026-03-22T13:38:38Z</time></trkpt><trkpt lat="38.01461883265398" lon="16.13292310139521"><ele>17.666666666666664</ele><time>2026-03-22T13:38:39Z</time></trkpt><trkpt lat="38.014419424389864" lon="16.132802450528153"><ele>19.0</ele><time>2026-03-22T13:38:40Z</time></trkpt><trkpt lat="38.01421912816076" lon="16.132681262453797"><ele>19.0</ele><time>2026-03-22T13:38:41Z</time></trkpt><trkpt lat="38.014019252531796" lon="16.13256116992504"><ele>19.0</ele><time>2026-03-22T13:38:42Z</time></trkpt><trkpt lat="38.01381655048749" lon="16.1324409010148"><ele>19.0</ele><time>2026-03-22T13:38:43Z</time></trkpt><trkpt lat="38.01361434089807" lon="16.132320924765317"><ele>19.0</ele><time>2026-03-22T13:38:44Z</time></trkpt><trkpt lat="38.01341011093252" lon="16.132196634117168"><ele>19.0</ele><time>2026-03-22T13:38:45Z</time></trkpt><trkpt lat="38.01320760377602" lon="16.13207371841448"><ele>17.0</ele><time>2026-03-22T13:38:46Z</time></trkpt><trkpt lat="38.013003535002355" lon="16.13194981813707"><ele>15.0</ele><time>2026-03-22T13:38:47Z</time></trkpt><trkpt lat="38.012799357600365" lon="16.13182594415416"><ele>15.0</ele><time>2026-03-22T13:38:48Z</time></trkpt><trkpt lat="38.01259170429949" lon="16.131700387030392"><ele>15.0</ele><time>2026-03-22T13:38:49Z</time></trkpt><trkpt lat="38.0123858515698" lon="16.13157591859847"><ele>17.0</ele><time>2026-03-22T13:38:50Z</time></trkpt><trkpt lat="38.0121775337273" lon="16.131449959660337"><ele>19.0</ele><time>2026-03-22T13:38:51Z</time></trkpt><trkpt lat="38.011967564057386" lon="16.131319305425027"><ele>19.0</ele><time>2026-03-22T13:38:52Z</time></trkpt><trkpt lat="38.01175378865974" lon="16.131185950515132"><ele>19.0</ele><time>2026-03-22T13:38:53Z</time></trkpt><trkpt lat="38.0115394623387" lon="16.131052309615157"><ele>15.0</ele><time>2026-03-22T13:38:54Z</time></trkpt><trkpt lat="38.01132417888539" lon="16.130917612924463"><ele>11.0</ele><time>2026-03-22T13:38:55Z</time></trkpt><trkpt lat="38.01110860162706" lon="16.130782156290223"><ele>10.0</ele><time>2026-03-22T13:38:56Z</time></trkpt><trkpt lat="38.01089711453658" lon="16.13064926967179"><ele>9.0</ele><time>2026-03-22T13:38:57Z</time></trkpt><trkpt lat="38.01068557256229" lon="16.130516348577164"><ele>9.0</ele><time>2026-03-22T13:38:58Z</time></trkpt><trkpt lat="38.01047401285511" lon="16.130382767716505"><ele>9.0</ele><time>2026-03-22T13:38:59Z</time></trkpt><trkpt lat="38.01026644768818" lon="16.130250654222813"><ele>9.0</ele><time>2026-03-22T13:39:00Z</time></trkpt><trkpt lat="38.01006236511376" lon="16.130121342267184"><ele>9.0</ele><time>2026-03-22T13:39:01Z</time></trkpt><trkpt lat="38.009859621293096" lon="16.12999371136173"><ele>10.0</ele><time>2026-03-22T13:39:02Z</time></trkpt><trkpt lat="38.009656050816105" lon="16.129866018470114"><ele>11.0</ele><time>2026-03-22T13:39:03Z</time></trkpt><trkpt lat="38.00945499998072" lon="16.12974072637288"><ele>11.0</ele><time>2026-03-22T13:39:04Z</time></trkpt><trkpt lat="38.0092603036288" lon="16.129614826912494"><ele>11.0</ele><time>2026-03-22T13:39:05Z</time></trkpt><trkpt lat="38.00902676708264" lon="16.129578887686943"><ele>10.666666666666666</ele><time>2026-03-22T13:39:06Z</time></trkpt><trkpt lat="38.00882854054487" lon="16.129457175670602"><ele>10.333333333333334</ele><time>2026-03-22T13:39:07Z</time></trkpt><trkpt lat="38.00862822514837" lon="16.129338968259248"><ele>10.0</ele><time>2026-03-22T13:39:08Z</time></trkpt><trkpt lat="38.00842451852219" lon="16.129218488166664"><ele>8.0</ele><time>2026-03-22T13:39:09Z</time></trkpt><trkpt lat="38.008221355653475" lon="16.129100619445026"><ele>6.0</ele><time>2026-03-22T13:39:10Z</time></trkpt><trkpt lat="38.008048198800864" lon="16.128900233587693"><ele>11.0</ele><time>2026-03-22T13:39:11Z</time></trkpt><trkpt lat="38.00784571029067" lon="16.12877900862834"><ele>16.0</ele><time>2026-03-22T13:39:12Z</time></trkpt><trkpt lat="38.007639198020414" lon="16.12865717017869"><ele>12.5</ele><time>2026-03-22T13:39:13Z</time></trkpt><trkpt lat="38.00743296676643" lon="16.12853797360913"><ele>9.0</ele><time>2026-03-22T13:39:14Z</time></trkpt><trkpt lat="38.007225504223115" lon="16.128417924001457"><ele>9.0</ele><time>2026-03-22T13:39:15Z</time></trkpt><trkpt lat="38.00701281867977" lon="16.128294509992298"><ele>9.0</ele><time>2026-03-22T13:39:16Z</time></trkpt><trkpt lat="38.00679232210406" lon="16.12816656362122"><ele>10.0</ele><time>2026-03-22T13:39:17Z</time></trkpt><trkpt lat="38.00656221864636" lon="16.12803720366487"><ele>11.0</ele><time>2026-03-22T13:39:18Z</time></trkpt><trkpt lat="38.00632718999223" lon="16.12791411512586"><ele>11.0</ele><time>2026-03-22T13:39:19Z</time></trkpt><trkpt lat="38.006082307458705" lon="16.127799853433103"><ele>11.0</ele><time>2026-03-22T13:39:20Z</time></trkpt><trkpt lat="38.0058389962372" lon="16.12769471873159"><ele>11.0</ele><time>2026-03-22T13:39:21Z</time></trkpt><trkpt lat="38.005596340572026" lon="16.127592110047875"><ele>11.0</ele><time>2026-03-22T13:39:22Z</time></trkpt><trkpt lat="38.005355859912704" lon="16.127489920637416"><ele>15.0</ele><time>2026-03-22T13:39:23Z</time></trkpt><trkpt lat="38.00511667951528" lon="16.127388753369008"><ele>19.0</ele><time>2026-03-22T13:39:24Z</time></trkpt><trkpt lat="38.00487786303345" lon="16.127285893920536"><ele>19.0</ele><time>2026-03-22T13:39:25Z</time></trkpt><trkpt lat="38.004641761034385" lon="16.12717897599811"><ele>19.0</ele><time>2026-03-22T13:39:26Z</time></trkpt><trkpt lat="38.00440853386302" lon="16.1270681178852"><ele>19.0</ele><time>2026-03-22T13:39:27Z</time></trkpt><trkpt lat="38.00417499142601" lon="16.126948928101953"><ele>19.0</ele><time>2026-03-22T13:39:28Z</time></trkpt><trkpt lat="38.00393967241897" lon="16.12682563248563"><ele>13.5</ele><time>2026-03-22T13:39:29Z</time></trkpt><trkpt lat="38.00370765839926" lon="16.126700303806132"><ele>8.0</ele><time>2026-03-22T13:39:30Z</time></trkpt><trkpt lat="38.00347480235647" lon="16.1265695066404"><ele>9.5</ele><time>2026-03-22T13:39:31Z</time></trkpt><trkpt lat="38.00324254783995" lon="16.126438648800846"><ele>11.0</ele><time>2026-03-22T13:39:32Z</time></trkpt><trkpt lat="38.00301235861578" lon="16.126303379189558"><ele>11.0</ele><time>2026-03-22T13:39:33Z</time></trkpt><trkpt lat="38.00278416261234" lon="16.126158853086245"><ele>11.0</ele><time>2026-03-22T13:39:34Z</time></trkpt><trkpt lat="38.00255428066155" lon="16.126009401241824"><ele>10.5</ele><time>2026-03-22T13:39:35Z</time></trkpt><trkpt lat="38.00233177119363" lon="16.125854202341703"><ele>10.0</ele><time>2026-03-22T13:39:36Z</time></trkpt><trkpt lat="38.00211972236468" lon="16.12568672581844"><ele>10.0</ele><time>2026-03-22T13:39:37Z</time></trkpt><trkpt lat="38.00193408271097" lon="16.125487085178303"><ele>10.0</ele><time>2026-03-22T13:39:38Z</time></trkpt><trkpt lat="38.00175970145373" lon="16.1252588732819"><ele>9.0</ele><time>2026-03-22T13:39:39Z</time></trkpt><trkpt lat="38.0015895512902" lon="16.1250318011959"><ele>8.0</ele><time>2026-03-22T13:39:40Z</time></trkpt><trkpt lat="38.00142857221439" lon="16.124813269950195"><ele>8.0</ele><time>2026-03-22T13:39:41Z</time></trkpt><trkpt lat="38.00126927800728" lon="16.12460005564564"><ele>8.0</ele><time>2026-03-22T13:39:42Z</time></trkpt><trkpt lat="38.00111588789372" lon="16.124395967743837"><ele>8.0</ele><time>2026-03-22T13:39:43Z</time></trkpt><trkpt lat="38.000967414702906" lon="16.124195497199644"><ele>8.0</ele><time>2026-03-22T13:39:44Z</time></trkpt><trkpt lat="38.000820760844775" lon="16.123995845398735"><ele>8.0</ele><time>2026-03-22T13:39:45Z</time></trkpt><trkpt lat="38.00067662289927" lon="16.123798327023955"><ele>7.666666666666666</ele><time>2026-03-22T13:39:46Z</time></trkpt><trkpt lat="38.0005339174921" lon="16.123605265417336"><ele>7.333333333333334</ele><time>2026-03-22T13:39:47Z</time></trkpt><trkpt lat="38.00038479416119" lon="16.123417370613623"><ele>7.0</ele><time>2026-03-22T13:39:48Z</time></trkpt><trkpt lat="38.00020861462452" lon="16.123243328784728"><ele>7.666666666666667</ele><time>2026-03-22T13:39:49Z</time></trkpt><trkpt lat="38.00001741015829" lon="16.123098713966023"><ele>8.333333333333334</ele><time>2026-03-22T13:39:50Z</time></trkpt><trkpt lat="37.99981680367485" lon="16.12297557942494"><ele>9.0</ele><time>2026-03-22T13:39:51Z</time></trkpt><trkpt lat="37.99959621957679" lon="16.122880035769462"><ele>9.0</ele><time>2026-03-22T13:39:52Z</time></trkpt><trkpt lat="37.99936738050184" lon="16.122817762243454"><ele>9.0</ele><time>2026-03-22T13:39:53Z</time></trkpt><trkpt lat="37.999140753220814" lon="16.122790533275392"><ele>8.0</ele><time>2026-03-22T13:39:54Z</time></trkpt><trkpt lat="37.99890793367282" lon="16.122794530237517"><ele>7.0</ele><time>2026-03-22T13:39:55Z</time></trkpt><trkpt lat="37.99868480892284" lon="16.12281687556099"><ele>7.0</ele><time>2026-03-22T13:39:56Z</time></trkpt><trkpt lat="37.99846141968996" lon="16.1228442174723"><ele>7.0</ele><time>2026-03-22T13:39:57Z</time></trkpt><trkpt lat="37.99823918473314" lon="16.122861211479687"><ele>7.0</ele><time>2026-03-22T13:39:58Z</time></trkpt><trkpt lat="37.99802425636218" lon="16.12284957334393"><ele>8.0</ele><time>2026-03-22T13:39:59Z</time></trkpt><trkpt lat="37.997812849002216" lon="16.122808376180494"><ele>9.0</ele><time>2026-03-22T13:40:00Z</time></trkpt><trkpt lat="37.99760026907686" lon="16.122739693337905"><ele>10.0</ele><time>2026-03-22T13:40:01Z</time></trkpt><trkpt lat="37.99738065094341" lon="16.12266174579502"><ele>11.0</ele><time>2026-03-22T13:40:02Z</time></trkpt><trkpt lat="37.9971635787038" lon="16.122584701851263"><ele>12.0</ele><time>2026-03-22T13:40:03Z</time></trkpt><trkpt lat="37.99694348689084" lon="16.122507376806908"><ele>12.0</ele><time>2026-03-22T13:40:04Z</time></trkpt><trkpt lat="37.99672589696249" lon="16.122431767841956"><ele>12.0</ele><time>2026-03-22T13:40:05Z</time></trkpt><trkpt lat="37.99650520613649" lon="16.122355081368404"><ele>18.5</ele><time>2026-03-22T13:40:06Z</time></trkpt><trkpt lat="37.99628311959849" lon="16.122277909909005"><ele>25.0</ele><time>2026-03-22T13:40:07Z</time></trkpt><trkpt lat="37.996061776221964" lon="16.122200212686902"><ele>25.0</ele><time>2026-03-22T13:40:08Z</time></trkpt><trkpt lat="37.99583972346003" lon="16.122122265078303"><ele>25.0</ele><time>2026-03-22T13:40:09Z</time></trkpt><trkpt lat="37.99561479155582" lon="16.122043428550445"><ele>20.0</ele><time>2026-03-22T13:40:10Z</time></trkpt><trkpt lat="37.99539206232762" lon="16.12196508339524"><ele>15.0</ele><time>2026-03-22T13:40:11Z</time></trkpt><trkpt lat="37.995166106262005" lon="16.121885509762777"><ele>13.0</ele><time>2026-03-22T13:40:12Z</time></trkpt><trkpt lat="37.9949416482537" lon="16.1218064636899"><ele>11.0</ele><time>2026-03-22T13:40:13Z</time></trkpt><trkpt lat="37.99471979671749" lon="16.1217283355145"><ele>11.0</ele><time>2026-03-22T13:40:14Z</time></trkpt><trkpt lat="37.99449946735467" lon="16.121650743401684"><ele>11.0</ele><time>2026-03-22T13:40:15Z</time></trkpt><trkpt lat="37.99427705297238" lon="16.121572276727754"><ele>14.5</ele><time>2026-03-22T13:40:16Z</time></trkpt><trkpt lat="37.99405459508469" lon="16.121492979335645"><ele>18.0</ele><time>2026-03-22T13:40:17Z</time></trkpt><trkpt lat="37.9938297689618" lon="16.121412837765792"><ele>18.0</ele><time>2026-03-22T13:40:18Z</time></trkpt><trkpt lat="37.99360078831186" lon="16.121331469602012"><ele>18.0</ele><time>2026-03-22T13:40:19Z</time></trkpt><trkpt lat="37.99337584290017" lon="16.121251593863143"><ele>15.5</ele><time>2026-03-22T13:40:20Z</time></trkpt><trkpt lat="37.993150057186526" lon="16.121171420868198"><ele>13.0</ele><time>2026-03-22T13:40:21Z</time></trkpt><trkpt lat="37.99292420964352" lon="16.121091225918004"><ele>13.0</ele><time>2026-03-22T13:40:22Z</time></trkpt><trkpt lat="37.99270368777592" lon="16.121016935146503"><ele>13.0</ele><time>2026-03-22T13:40:23Z</time></trkpt><trkpt lat="37.992475365719606" lon="16.12101131239087"><ele>12.0</ele><time>2026-03-22T13:40:24Z</time></trkpt><trkpt lat="37.992274311343245" lon="16.120939768738403"><ele>11.0</ele><time>2026-03-22T13:40:25Z</time></trkpt><trkpt lat="37.99207413669307" lon="16.120865239328158"><ele>10.0</ele><time>2026-03-22T13:40:26Z</time></trkpt><trkpt lat="37.99187479529384" lon="16.120783911229797"><ele>10.333333333333334</ele><time>2026-03-22T13:40:27Z</time></trkpt><trkpt lat="37.99167758903914" lon="16.120704288609225"><ele>10.666666666666666</ele><time>2026-03-22T13:40:28Z</time></trkpt><trkpt lat="37.99148155697278" lon="16.120623880023935"><ele>11.0</ele><time>2026-03-22T13:40:29Z</time></trkpt><trkpt lat="37.99128425974437" lon="16.1205372787762"><ele>11.0</ele><time>2026-03-22T13:40:30Z</time></trkpt><trkpt lat="37.99108325331357" lon="16.1204479559439"><ele>11.0</ele><time>2026-03-22T13:40:31Z</time></trkpt><trkpt lat="37.99087229070494" lon="16.120350661045883"><ele>11.0</ele><time>2026-03-22T13:40:32Z</time></trkpt><trkpt lat="37.99065808343804" lon="16.12024461665495"><ele>9.0</ele><time>2026-03-22T13:40:33Z</time></trkpt><trkpt lat="37.990445048313184" lon="16.120128576789853"><ele>7.0</ele><time>2026-03-22T13:40:34Z</time></trkpt><trkpt lat="37.99023443872634" lon="16.12000782299821"><ele>8.5</ele><time>2026-03-22T13:40:35Z</time></trkpt><trkpt lat="37.99002639619594" lon="16.119881522252218"><ele>10.0</ele><time>2026-03-22T13:40:36Z</time></trkpt><trkpt lat="37.989821892725324" lon="16.119759024815412"><ele>10.0</ele><time>2026-03-22T13:40:37Z</time></trkpt><trkpt lat="37.989617041361164" lon="16.119639963796267"><ele>10.0</ele><time>2026-03-22T13:40:38Z</time></trkpt><trkpt lat="37.98941066640965" lon="16.119521661058048"><ele>10.0</ele><time>2026-03-22T13:40:39Z</time></trkpt><trkpt lat="37.98920607209806" lon="16.11940162993588"><ele>10.0</ele><time>2026-03-22T13:40:40Z</time></trkpt><trkpt lat="37.9890028640846" lon="16.11928329105676"><ele>10.0</ele><time>2026-03-22T13:40:41Z</time></trkpt><trkpt lat="37.98880009189537" lon="16.119164875951814"><ele>10.0</ele><time>2026-03-22T13:40:42Z</time></trkpt><trkpt lat="37.988598022300735" lon="16.1190458612668"><ele>10.0</ele><time>2026-03-22T13:40:43Z</time></trkpt><trkpt lat="37.98839607442127" lon="16.11892769931198"><ele>10.0</ele><time>2026-03-22T13:40:44Z</time></trkpt><trkpt lat="37.988192710104144" lon="16.11880924831644"><ele>9.333333333333334</ele><time>2026-03-22T13:40:45Z</time></trkpt><trkpt lat="37.987991851855966" lon="16.118691946497847"><ele>8.666666666666666</ele><time>2026-03-22T13:40:46Z</time></trkpt><trkpt lat="37.98778973227762" lon="16.11857469460336"><ele>8.0</ele><time>2026-03-22T13:40:47Z</time></trkpt><trkpt lat="37.9875868261453" lon="16.11845458325032"><ele>7.5</ele><time>2026-03-22T13:40:48Z</time></trkpt><trkpt lat="37.98738255812538" lon="16.11832935060948"><ele>7.0</ele><time>2026-03-22T13:40:49Z</time></trkpt><trkpt lat="37.98717993409456" lon="16.11820701112828"><ele>8.0</ele><time>2026-03-22T13:40:50Z</time></trkpt><trkpt lat="37.986975652065524" lon="16.118083237404157"><ele>9.0</ele><time>2026-03-22T13:40:51Z</time></trkpt><trkpt lat="37.98677528504946" lon="16.117955216841988"><ele>8.0</ele><time>2026-03-22T13:40:52Z</time></trkpt><trkpt lat="37.986579648189874" lon="16.117826812432664"><ele>7.0</ele><time>2026-03-22T13:40:53Z</time></trkpt><trkpt lat="37.98638341192104" lon="16.117696778583092"><ele>6.0</ele><time>2026-03-22T13:40:54Z</time></trkpt><trkpt lat="37.986183999901876" lon="16.117568717395603"><ele>6.0</ele><time>2026-03-22T13:40:55Z</time></trkpt><trkpt lat="37.98598174242744" lon="16.117445443286012"><ele>6.0</ele><time>2026-03-22T13:40:56Z</time></trkpt><trkpt lat="37.98577394302347" lon="16.117331048124516"><ele>5.5</ele><time>2026-03-22T13:40:57Z</time></trkpt><trkpt lat="37.98556596401803" lon="16.117220765298782"><ele>5.0</ele><time>2026-03-22T13:40:58Z</time></trkpt><trkpt lat="37.98535589270464" lon="16.117116320987126"><ele>5.0</ele><time>2026-03-22T13:40:59Z</time></trkpt><trkpt lat="37.98514406384331" lon="16.117006000384812"><ele>5.0</ele><time>2026-03-22T13:41:00Z</time></trkpt><trkpt lat="37.98493489216017" lon="16.116892538465216"><ele>5.0</ele><time>2026-03-22T13:41:01Z</time></trkpt><trkpt lat="37.98472968207019" lon="16.116777134209272"><ele>5.0</ele><time>2026-03-22T13:41:02Z</time></trkpt><trkpt lat="37.98452337672995" lon="16.116656018452222"><ele>5.0</ele><time>2026-03-22T13:41:03Z</time></trkpt><trkpt lat="37.98431445185417" lon="16.11653366679201"><ele>5.0</ele><time>2026-03-22T13:41:04Z</time></trkpt><trkpt lat="37.98410438061738" lon="16.116411869089983"><ele>5.0</ele><time>2026-03-22T13:41:05Z</time></trkpt><trkpt lat="37.98389446950294" lon="16.11629166426912"><ele>5.0</ele><time>2026-03-22T13:41:06Z</time></trkpt><trkpt lat="37.98368194661802" lon="16.116171994866388"><ele>5.0</ele><time>2026-03-22T13:41:07Z</time></trkpt><trkpt lat="37.983468799043585" lon="16.11605004676434"><ele>5.0</ele><time>2026-03-22T13:41:08Z</time></trkpt><trkpt lat="37.98324366719695" lon="16.115928701570407"><ele>5.0</ele><time>2026-03-22T13:41:09Z</time></trkpt><trkpt lat="37.983013987377106" lon="16.11580591047257"><ele>5.0</ele><time>2026-03-22T13:41:10Z</time></trkpt><trkpt lat="37.982784042140935" lon="16.115674989028776"><ele>5.0</ele><time>2026-03-22T13:41:11Z</time></trkpt><trkpt lat="37.98255951946121" lon="16.115545991341758"><ele>5.0</ele><time>2026-03-22T13:41:12Z</time></trkpt><trkpt lat="37.98233173820058" lon="16.1154101793608"><ele>4.5</ele><time>2026-03-22T13:41:13Z</time></trkpt><trkpt lat="37.982133999134845" lon="16.115194623231066"><ele>4.0</ele><time>2026-03-22T13:41:14Z</time></trkpt><trkpt lat="37.98190096993091" lon="16.11506058348023"><ele>4.0</ele><time>2026-03-22T13:41:15Z</time></trkpt><trkpt lat="37.98166763275854" lon="16.114925679816633"><ele>4.0</ele><time>2026-03-22T13:41:16Z</time></trkpt><trkpt lat="37.981438126395894" lon="16.1147934394927"><ele>5.0</ele><time>2026-03-22T13:41:17Z</time></trkpt><trkpt lat="37.9812160668365" lon="16.114665279016922"><ele>6.0</ele><time>2026-03-22T13:41:18Z</time></trkpt><trkpt lat="37.98099392737336" lon="16.114536539484014"><ele>6.5</ele><time>2026-03-22T13:41:19Z</time></trkpt><trkpt lat="37.98077054218262" lon="16.1144071386864"><ele>7.0</ele><time>2026-03-22T13:41:20Z</time></trkpt><trkpt lat="37.9805489714392" lon="16.11427793235855"><ele>7.0</ele><time>2026-03-22T13:41:21Z</time></trkpt><trkpt lat="37.9803290215385" lon="16.114149620903884"><ele>7.0</ele><time>2026-03-22T13:41:22Z</time></trkpt><trkpt lat="37.9801104133829" lon="16.114022026240107"><ele>9.0</ele><time>2026-03-22T13:41:23Z</time></trkpt><trkpt lat="37.97989215765686" lon="16.113894578252218"><ele>11.0</ele><time>2026-03-22T13:41:24Z</time></trkpt><trkpt lat="37.979669945367704" lon="16.113765837200663"><ele>11.0</ele><time>2026-03-22T13:41:25Z</time></trkpt><trkpt lat="37.97944589088978" lon="16.113636028858117"><ele>11.0</ele><time>2026-03-22T13:41:26Z</time></trkpt><trkpt lat="37.97922226461078" lon="16.113507678370347"><ele>10.0</ele><time>2026-03-22T13:41:27Z</time></trkpt><trkpt lat="37.9790022766393" lon="16.113381964954296"><ele>9.0</ele><time>2026-03-22T13:41:28Z</time></trkpt><trkpt lat="37.978785693672016" lon="16.113257676384837"><ele>14.0</ele><time>2026-03-22T13:41:29Z</time></trkpt><trkpt lat="37.978571681117096" lon="16.113133693838623"><ele>19.0</ele><time>2026-03-22T13:41:30Z</time></trkpt><trkpt lat="37.97836319880505" lon="16.113012915093137"><ele>15.666666666666666</ele><time>2026-03-22T13:41:31Z</time></trkpt><trkpt lat="37.978164561405094" lon="16.112897566704177"><ele>12.333333333333332</ele><time>2026-03-22T13:41:32Z</time></trkpt><trkpt lat="37.9779764742151" lon="16.112785414088428"><ele>9.0</ele><time>2026-03-22T13:41:33Z</time></trkpt><trkpt lat="37.97780274902031" lon="16.112681825185653"><ele>9.0</ele><time>2026-03-22T13:41:34Z</time></trkpt><trkpt lat="37.97763661498156" lon="16.112582175450644"><ele>9.0</ele><time>2026-03-22T13:41:35Z</time></trkpt><trkpt lat="37.977479605892306" lon="16.112477712142383"><ele>9.0</ele><time>2026-03-22T13:41:36Z</time></trkpt><trkpt lat="37.97731891374217" lon="16.11235678350302"><ele>9.666666666666666</ele><time>2026-03-22T13:41:37Z</time></trkpt><trkpt lat="37.977161933711606" lon="16.11222950540622"><ele>10.333333333333332</ele><time>2026-03-22T13:41:38Z</time></trkpt><trkpt lat="37.977005308659685" lon="16.112098928396406"><ele>11.0</ele><time>2026-03-22T13:41:39Z</time></trkpt><trkpt lat="37.976853974013316" lon="16.111972214982327"><ele>11.0</ele><time>2026-03-22T13:41:40Z</time></trkpt><trkpt lat="37.97670536374769" lon="16.111847782723334"><ele>11.0</ele><time>2026-03-22T13:41:41Z</time></trkpt><trkpt lat="37.97655482404814" lon="16.11172173491238"><ele>11.0</ele><time>2026-03-22T13:41:42Z</time></trkpt><trkpt lat="37.97641058497628" lon="16.11159831345125"><ele>11.333333333333332</ele><time>2026-03-22T13:41:43Z</time></trkpt><trkpt lat="37.97625441561102" lon="16.111502923826187"><ele>11.666666666666666</ele><time>2026-03-22T13:41:44Z</time></trkpt><trkpt lat="37.97611192260946" lon="16.111370918693765"><ele>12.0</ele><time>2026-03-22T13:41:45Z</time></trkpt><trkpt lat="37.97597250381792" lon="16.111231056729704"><ele>10.0</ele><time>2026-03-22T13:41:46Z</time></trkpt><trkpt lat="37.97583549240261" lon="16.11109674760402"><ele>8.0</ele><time>2026-03-22T13:41:47Z</time></trkpt><trkpt lat="37.975731578391255" lon="16.11092292994126"><ele>6.0</ele><time>2026-03-22T13:41:48Z</time></trkpt><trkpt lat="37.97559710651207" lon="16.110782769853895"><ele>8.0</ele><time>2026-03-22T13:41:49Z</time></trkpt><trkpt lat="37.975461366144756" lon="16.110641287619014"><ele>10.0</ele><time>2026-03-22T13:41:50Z</time></trkpt><trkpt lat="37.97531689822741" lon="16.110491654123432"><ele>12.0</ele><time>2026-03-22T13:41:51Z</time></trkpt><trkpt lat="37.97516898963805" lon="16.11033885222072"><ele>11.0</ele><time>2026-03-22T13:41:52Z</time></trkpt><trkpt lat="37.9750201211334" lon="16.110184875184498"><ele>10.0</ele><time>2026-03-22T13:41:53Z</time></trkpt><trkpt lat="37.97486120083785" lon="16.110018360460867"><ele>9.0</ele><time>2026-03-22T13:41:54Z</time></trkpt><trkpt lat="37.974696103775315" lon="16.109845373820075"><ele>9.0</ele><time>2026-03-22T13:41:55Z</time></trkpt><trkpt lat="37.97452703331043" lon="16.109669492907052"><ele>9.0</ele><time>2026-03-22T13:41:56Z</time></trkpt><trkpt lat="37.97435914977314" lon="16.109495522140126"><ele>9.0</ele><time>2026-03-22T13:41:57Z</time></trkpt><trkpt lat="37.97418694312217" lon="16.109317176613853"><ele>9.5</ele><time>2026-03-22T13:41:58Z</time></trkpt><trkpt lat="37.97400778750881" lon="16.109130258734428"><ele>10.0</ele><time>2026-03-22T13:41:59Z</time></trkpt><trkpt lat="37.97382285948857" lon="16.108938579449507"><ele>10.0</ele><time>2026-03-22T13:42:00Z</time></trkpt><trkpt lat="37.97363858656167" lon="16.108749806823536"><ele>10.0</ele><time>2026-03-22T13:42:01Z</time></trkpt><trkpt lat="37.973455802399165" lon="16.10856157324046"><ele>10.5</ele><time>2026-03-22T13:42:02Z</time></trkpt><trkpt lat="37.97326398583955" lon="16.108375310444323"><ele>11.0</ele><time>2026-03-22T13:42:03Z</time></trkpt><trkpt lat="37.973064484128486" lon="16.10820849246266"><ele>11.0</ele><time>2026-03-22T13:42:04Z</time></trkpt><trkpt lat="37.972866161655986" lon="16.108054444365337"><ele>11.0</ele><time>2026-03-22T13:42:05Z</time></trkpt><trkpt lat="37.97266768491566" lon="16.107900904132542"><ele>9.5</ele><time>2026-03-22T13:42:06Z</time></trkpt><trkpt lat="37.97246545902682" lon="16.107749712729433"><ele>8.0</ele><time>2026-03-22T13:42:07Z</time></trkpt><trkpt lat="37.97225623373707" lon="16.107597881269065"><ele>8.0</ele><time>2026-03-22T13:42:08Z</time></trkpt><trkpt lat="37.972022958021284" lon="16.10751843582593"><ele>8.0</ele><time>2026-03-22T13:42:09Z</time></trkpt><trkpt lat="37.97181776708808" lon="16.107371819028685"><ele>8.0</ele><time>2026-03-22T13:42:10Z</time></trkpt><trkpt lat="37.97161662440929" lon="16.107229284418313"><ele>8.0</ele><time>2026-03-22T13:42:11Z</time></trkpt><trkpt lat="37.97141732182035" lon="16.107078168422596"><ele>8.0</ele><time>2026-03-22T13:42:12Z</time></trkpt><trkpt lat="37.97124694125555" lon="16.106870298468777"><ele>8.0</ele><time>2026-03-22T13:42:13Z</time></trkpt><trkpt lat="37.97104751173129" lon="16.106727017033524"><ele>8.0</ele><time>2026-03-22T13:42:14Z</time></trkpt><trkpt lat="37.97084953500619" lon="16.1065824542104"><ele>8.0</ele><time>2026-03-22T13:42:15Z</time></trkpt><trkpt lat="37.97065373747757" lon="16.106437470081573"><ele>7.5</ele><time>2026-03-22T13:42:16Z</time></trkpt><trkpt lat="37.970458909694365" lon="16.106291289037628"><ele>7.0</ele><time>2026-03-22T13:42:17Z</time></trkpt><trkpt lat="37.97026344391612" lon="16.106145464718093"><ele>7.0</ele><time>2026-03-22T13:42:18Z</time></trkpt><trkpt lat="37.97006842494521" lon="16.106000871405772"><ele>7.0</ele><time>2026-03-22T13:42:19Z</time></trkpt><trkpt lat="37.969877409114765" lon="16.105858190016455"><ele>7.0</ele><time>2026-03-22T13:42:20Z</time></trkpt><trkpt lat="37.96968759387548" lon="16.105717000098124"><ele>7.0</ele><time>2026-03-22T13:42:21Z</time></trkpt><trkpt lat="37.96949771404212" lon="16.10557720333008"><ele>7.0</ele><time>2026-03-22T13:42:22Z</time></trkpt><trkpt lat="37.96931594098368" lon="16.105443376419526"><ele>7.0</ele><time>2026-03-22T13:42:23Z</time></trkpt><trkpt lat="37.96913852079713" lon="16.105311684480398"><ele>7.0</ele><time>2026-03-22T13:42:24Z</time></trkpt><trkpt lat="37.96896225703346" lon="16.10518074401935"><ele>7.0</ele><time>2026-03-22T13:42:25Z</time></trkpt><trkpt lat="37.96879520516631" lon="16.10505731186834"><ele>7.0</ele><time>2026-03-22T13:42:26Z</time></trkpt><trkpt lat="37.96864081975" lon="16.104943923234845"><ele>7.333333333333334</ele><time>2026-03-22T13:42:27Z</time></trkpt><trkpt lat="37.96849532727741" lon="16.10483711168204"><ele>7.666666666666666</ele><time>2026-03-22T13:42:28Z</time></trkpt><trkpt lat="37.96836115575889" lon="16.10473861017138"><ele>8.0</ele><time>2026-03-22T13:42:29Z</time></trkpt><trkpt lat="37.96823675473552" lon="16.10464715057637"><ele>9.333333333333332</ele><time>2026-03-22T13:42:30Z</time></trkpt><trkpt lat="37.96810514071587" lon="16.104550231500873"><ele>10.666666666666666</ele><time>2026-03-22T13:42:31Z</time></trkpt><trkpt lat="37.96794474459888" lon="16.104480427200485"><ele>12.0</ele><time>2026-03-22T13:42:32Z</time></trkpt><trkpt lat="37.96779855022783" lon="16.104367073327847"><ele>12.0</ele><time>2026-03-22T13:42:33Z</time></trkpt><trkpt lat="37.967641212411195" lon="16.104261595563155"><ele>12.0</ele><time>2026-03-22T13:42:34Z</time></trkpt><trkpt lat="37.96749102758544" lon="16.104150671337827"><ele>12.0</ele><time>2026-03-22T13:42:35Z</time></trkpt><trkpt lat="37.96736040585686" lon="16.10400293852013"><ele>14.0</ele><time>2026-03-22T13:42:36Z</time></trkpt><trkpt lat="37.96721337622239" lon="16.103898423429722"><ele>16.0</ele><time>2026-03-22T13:42:37Z</time></trkpt><trkpt lat="37.96706686829605" lon="16.103795011261195"><ele>18.0</ele><time>2026-03-22T13:42:38Z</time></trkpt><trkpt lat="37.966921660286275" lon="16.103692586860333"><ele>18.0</ele><time>2026-03-22T13:42:39Z</time></trkpt><trkpt lat="37.96677989610336" lon="16.103593305440242"><ele>18.0</ele><time>2026-03-22T13:42:40Z</time></trkpt><trkpt lat="37.96664103786872" lon="16.10349608266533"><ele>18.0</ele><time>2026-03-22T13:42:41Z</time></trkpt><trkpt lat="37.96651304571421" lon="16.103407659331577"><ele>18.0</ele><time>2026-03-22T13:42:42Z</time></trkpt><trkpt lat="37.96639002158082" lon="16.10332250582597"><ele>18.0</ele><time>2026-03-22T13:42:43Z</time></trkpt><trkpt lat="37.966270880381764" lon="16.103238565745684"><ele>18.0</ele><time>2026-03-22T13:42:44Z</time></trkpt><trkpt lat="37.96616123568779" lon="16.103160989923854"><ele>18.0</ele><time>2026-03-22T13:42:45Z</time></trkpt><trkpt lat="37.96605504580865" lon="16.103085988846647"><ele>18.0</ele><time>2026-03-22T13:42:46Z</time></trkpt><trkpt lat="37.96595636388014" lon="16.10301649617423"><ele>18.0</ele><time>2026-03-22T13:42:47Z</time></trkpt><trkpt lat="37.96586193875629" lon="16.102950001227736"><ele>18.0</ele><time>2026-03-22T13:42:48Z</time></trkpt><trkpt lat="37.9657751400461" lon="16.102888876306984"><ele>18.0</ele><time>2026-03-22T13:42:49Z</time></trkpt><trkpt lat="37.96569135524747" lon="16.102828489868266"><ele>18.0</ele><time>2026-03-22T13:42:50Z</time></trkpt><trkpt lat="37.96559939018979" lon="16.10276286781435"><ele>16.8</ele><time>2026-03-22T13:42:51Z</time></trkpt><trkpt lat="37.96550802416672" lon="16.10269787038302"><ele>15.600000000000001</ele><time>2026-03-22T13:42:52Z</time></trkpt><trkpt lat="37.965410655865604" lon="16.102628801315333"><ele>14.399999999999999</ele><time>2026-03-22T13:42:53Z</time></trkpt><trkpt lat="37.965313817786" lon="16.10257175725942"><ele>13.2</ele><time>2026-03-22T13:42:54Z</time></trkpt><trkpt lat="37.965213292521184" lon="16.102506176128877"><ele>12.0</ele><time>2026-03-22T13:42:55Z</time></trkpt><trkpt lat="37.96511807234" lon="16.102421327403952"><ele>12.25</ele><time>2026-03-22T13:42:56Z</time></trkpt><trkpt lat="37.96501004697914" lon="16.102366792754662"><ele>12.5</ele><time>2026-03-22T13:42:57Z</time></trkpt><trkpt lat="37.964912674946085" lon="16.102275526403716"><ele>12.75</ele><time>2026-03-22T13:42:58Z</time></trkpt><trkpt lat="37.96480845531403" lon="16.102210425250714"><ele>13.0</ele><time>2026-03-22T13:42:59Z</time></trkpt><trkpt lat="37.96470518689441" lon="16.102133274040366"><ele>13.0</ele><time>2026-03-22T13:43:00Z</time></trkpt><trkpt lat="37.96459711439771" lon="16.102059337685226"><ele>13.0</ele><time>2026-03-22T13:43:01Z</time></trkpt><trkpt lat="37.964486046806584" lon="16.101980779484073"><ele>13.0</ele><time>2026-03-22T13:43:02Z</time></trkpt><trkpt lat="37.96436598664942" lon="16.10190622920155"><ele>13.0</ele><time>2026-03-22T13:43:03Z</time></trkpt><trkpt lat="37.96424976410054" lon="16.101824102066814"><ele>13.25</ele><time>2026-03-22T13:43:04Z</time></trkpt><trkpt lat="37.96413319975824" lon="16.10173776769926"><ele>13.5</ele><time>2026-03-22T13:43:05Z</time></trkpt><trkpt lat="37.964014697976914" lon="16.101648356178757"><ele>13.75</ele><time>2026-03-22T13:43:06Z</time></trkpt><trkpt lat="37.96389495710795" lon="16.10155603939586"><ele>14.0</ele><time>2026-03-22T13:43:07Z</time></trkpt><trkpt lat="37.963768772776085" lon="16.10146888801703"><ele>14.25</ele><time>2026-03-22T13:43:08Z</time></trkpt><trkpt lat="37.96364418660342" lon="16.10137457546704"><ele>14.5</ele><time>2026-03-22T13:43:09Z</time></trkpt><trkpt lat="37.96351385094259" lon="16.101287136641552"><ele>14.75</ele><time>2026-03-22T13:43:10Z</time></trkpt><trkpt lat="37.96338685929106" lon="16.10119581526219"><ele>15.0</ele><time>2026-03-22T13:43:11Z</time></trkpt><trkpt lat="37.96325758204116" lon="16.10110337190533"><ele>15.0</ele><time>2026-03-22T13:43:12Z</time></trkpt><trkpt lat="37.96313501369295" lon="16.10099377961821"><ele>15.0</ele><time>2026-03-22T13:43:13Z</time></trkpt><trkpt lat="37.96301086864838" lon="16.100894512367937"><ele>15.0</ele><time>2026-03-22T13:43:14Z</time></trkpt><trkpt lat="37.96289011137207" lon="16.100805501558753"><ele>15.0</ele><time>2026-03-22T13:43:15Z</time></trkpt><trkpt lat="37.96278182624967" lon="16.100719274345504"><ele>15.8</ele><time>2026-03-22T13:43:16Z</time></trkpt><trkpt lat="37.962681716487076" lon="16.100641560560593"><ele>16.6</ele><time>2026-03-22T13:43:17Z</time></trkpt><trkpt lat="37.96258966103068" lon="16.10056995716907"><ele>17.4</ele><time>2026-03-22T13:43:18Z</time></trkpt><trkpt lat="37.96250925533356" lon="16.10049970647598"><ele>18.2</ele><time>2026-03-22T13:43:19Z</time></trkpt><trkpt lat="37.962440487489346" lon="16.10042936085922"><ele>19.0</ele><time>2026-03-22T13:43:20Z</time></trkpt><trkpt lat="37.96237319316998" lon="16.10036478959698"><ele>19.0</ele><time>2026-03-22T13:43:21Z</time></trkpt><trkpt lat="37.96230827106017" lon="16.100304476363004"><ele>19.0</ele><time>2026-03-22T13:43:22Z</time></trkpt><trkpt lat="37.96224635870132" lon="16.100245481042833"><ele>19.0</ele><time>2026-03-22T13:43:23Z</time></trkpt><trkpt lat="37.96217063237989" lon="16.100201313792137"><ele>19.0</ele><time>2026-03-22T13:43:24Z</time></trkpt><trkpt lat="37.962110353384965" lon="16.100149874200493"><ele>19.0</ele><time>2026-03-22T13:43:25Z</time></trkpt><trkpt lat="37.96203345702374" lon="16.10008996547683"><ele>19.0</ele><time>2026-03-22T13:43:26Z</time></trkpt><trkpt lat="37.961948905672" lon="16.10002379862607"><ele>19.0</ele><time>2026-03-22T13:43:27Z</time></trkpt><trkpt lat="37.96187085546223" lon="16.099952253799657"><ele>19.0</ele><time>2026-03-22T13:43:28Z</time></trkpt><trkpt lat="37.96181234960334" lon="16.099903245754547"><ele>19.0</ele><time>2026-03-22T13:43:29Z</time></trkpt><trkpt lat="37.961722320670425" lon="16.099820249245244"><ele>19.0</ele><time>2026-03-22T13:43:31Z</time></trkpt><trkpt lat="37.96166760132754" lon="16.099773236261402"><ele>19.0</ele><time>2026-03-22T13:43:32Z</time></trkpt><trkpt lat="37.96160786793574" lon="16.09972898023159"><ele>19.0</ele><time>2026-03-22T13:43:33Z</time></trkpt><trkpt lat="37.96155411097994" lon="16.09967523590366"><ele>18.8</ele><time>2026-03-22T13:43:34Z</time></trkpt><trkpt lat="37.96148226411204" lon="16.09959837896928"><ele>18.599999999999998</ele><time>2026-03-22T13:43:36Z</time></trkpt><trkpt lat="37.96157734195937" lon="16.099779185932363"><ele>18.4</ele><time>2026-03-22T13:43:42Z</time></trkpt><trkpt lat="37.961664216960045" lon="16.099808648998145"><ele>18.2</ele><time>2026-03-22T13:43:44Z</time></trkpt><trkpt lat="37.96173436969206" lon="16.09986842997523"><ele>18.0</ele><time>2026-03-22T13:43:45Z</time></trkpt><trkpt lat="37.96179877544186" lon="16.099911024543314"><ele>18.166666666666668</ele><time>2026-03-22T13:43:46Z</time></trkpt><trkpt lat="37.961894386982294" lon="16.099923239553853"><ele>18.333333333333332</ele><time>2026-03-22T13:43:48Z</time></trkpt><trkpt lat="37.96196339739658" lon="16.09989503917677"><ele>18.5</ele><time>2026-03-22T13:43:51Z</time></trkpt><trkpt lat="37.962014864827665" lon="16.099836246536935"><ele>18.666666666666664</ele><time>2026-03-22T13:45:33Z</time></trkpt><trkpt lat="37.96207530218383" lon="16.099884651751783"><ele>18.833333333333332</ele><time>2026-03-22T13:45:35Z</time></trkpt><trkpt lat="37.96212098091903" lon="16.09996891522002"><ele>19.0</ele><time>2026-03-22T13:45:37Z</time></trkpt><trkpt lat="37.96215421438407" lon="16.100065159802707"><ele>19.0</ele><time>2026-03-22T13:45:39Z</time></trkpt><trkpt lat="37.96209641530744" lon="16.10011585400428"><ele>19.0</ele><time>2026-03-22T13:45:41Z</time></trkpt><trkpt lat="37.962013862724135" lon="16.100057394853994"><ele>19.0</ele><time>2026-03-22T13:45:45Z</time></trkpt><trkpt lat="37.96195203970411" lon="16.100004712352018"><ele>19.0</ele><time>2026-03-22T13:45:47Z</time></trkpt><trkpt lat="37.961838648310945" lon="16.09990754700362"><ele>19.0</ele><time>2026-03-22T13:45:49Z</time></trkpt><trkpt lat="37.96174057434654" lon="16.099823428754664"><ele>18.666666666666664</ele><time>2026-03-22T13:45:50Z</time></trkpt><trkpt lat="37.961610331931254" lon="16.099712513909736"><ele>18.333333333333332</ele><time>2026-03-22T13:45:51Z</time></trkpt><trkpt lat="37.96146733917708" lon="16.09958929267994"><ele>18.0</ele><time>2026-03-22T13:45:52Z</time></trkpt><trkpt lat="37.96128350016547" lon="16.09943239647086"><ele>18.0</ele><time>2026-03-22T13:45:53Z</time></trkpt><trkpt lat="37.96107119257157" lon="16.099250977116256"><ele>18.0</ele><time>2026-03-22T13:45:54Z</time></trkpt><trkpt lat="37.96084407877091" lon="16.099056327262147"><ele>16.5</ele><time>2026-03-22T13:45:55Z</time></trkpt><trkpt lat="37.96061182665189" lon="16.098858855805325"><ele>15.0</ele><time>2026-03-22T13:45:56Z</time></trkpt><trkpt lat="37.96039709384185" lon="16.09867804102676"><ele>15.0</ele><time>2026-03-22T13:45:57Z</time></trkpt><trkpt lat="37.96020428011829" lon="16.098513756432965"><ele>15.0</ele><time>2026-03-22T13:45:58Z</time></trkpt><trkpt lat="37.96002601635765" lon="16.098359355048046"><ele>15.0</ele><time>2026-03-22T13:45:59Z</time></trkpt><trkpt lat="37.959856072915514" lon="16.09821861588855"><ele>14.0</ele><time>2026-03-22T13:46:00Z</time></trkpt><trkpt lat="37.959697049410465" lon="16.098084835329566"><ele>13.0</ele><time>2026-03-22T13:46:01Z</time></trkpt><trkpt lat="37.95954109933399" lon="16.097940370395236"><ele>12.0</ele><time>2026-03-22T13:46:02Z</time></trkpt><trkpt lat="37.959398522664685" lon="16.097798022339592"><ele>12.0</ele><time>2026-03-22T13:46:03Z</time></trkpt><trkpt lat="37.95926177036593" lon="16.09765041083762"><ele>12.0</ele><time>2026-03-22T13:46:04Z</time></trkpt><trkpt lat="37.95912056659652" lon="16.09749495320417"><ele>12.0</ele><time>2026-03-22T13:46:05Z</time></trkpt><trkpt lat="37.958981351782874" lon="16.097341611393023"><ele>11.666666666666666</ele><time>2026-03-22T13:46:06Z</time></trkpt><trkpt lat="37.9588477328774" lon="16.097192594457006"><ele>11.333333333333332</ele><time>2026-03-22T13:46:07Z</time></trkpt><trkpt lat="37.95869419184837" lon="16.097082792426985"><ele>11.0</ele><time>2026-03-22T13:46:08Z</time></trkpt><trkpt lat="37.95856173256172" lon="16.096932983876457"><ele>11.0</ele><time>2026-03-22T13:46:09Z</time></trkpt><trkpt lat="37.95842832612705" lon="16.096785299714355"><ele>11.0</ele><time>2026-03-22T13:46:10Z</time></trkpt><trkpt lat="37.95829634050746" lon="16.09664091324568"><ele>11.0</ele><time>2026-03-22T13:46:11Z</time></trkpt><trkpt lat="37.95816849908331" lon="16.096491025012003"><ele>13.0</ele><time>2026-03-22T13:46:12Z</time></trkpt><trkpt lat="37.95803602979337" lon="16.096345244130326"><ele>15.0</ele><time>2026-03-22T13:46:13Z</time></trkpt><trkpt lat="37.957909446814064" lon="16.096203010950237"><ele>17.0</ele><time>2026-03-22T13:46:14Z</time></trkpt><trkpt lat="37.95778406502621" lon="16.09606321185922"><ele>17.0</ele><time>2026-03-22T13:46:15Z</time></trkpt><trkpt lat="37.95768427520444" lon="16.095884311100434"><ele>17.0</ele><time>2026-03-22T13:46:16Z</time></trkpt><trkpt lat="37.95756126216969" lon="16.095743823379287"><ele>17.0</ele><time>2026-03-22T13:46:17Z</time></trkpt><trkpt lat="37.95743766996592" lon="16.095602674184047"><ele>17.0</ele><time>2026-03-22T13:46:18Z</time></trkpt><trkpt lat="37.95731757507291" lon="16.09546376564847"><ele>17.0</ele><time>2026-03-22T13:46:19Z</time></trkpt><trkpt lat="37.95719596277178" lon="16.095323071116507"><ele>17.0</ele><time>2026-03-22T13:46:20Z</time></trkpt><trkpt lat="37.957074208151525" lon="16.095182210032956"><ele>17.0</ele><time>2026-03-22T13:46:21Z</time></trkpt><trkpt lat="37.95692149983933" lon="16.09508288795328"><ele>17.0</ele><time>2026-03-22T13:46:22Z</time></trkpt><trkpt lat="37.9567919926209" lon="16.094950681664077"><ele>17.0</ele><time>2026-03-22T13:46:23Z</time></trkpt><trkpt lat="37.95666953820717" lon="16.094809408746375"><ele>15.666666666666668</ele><time>2026-03-22T13:46:24Z</time></trkpt><trkpt lat="37.95654194338951" lon="16.094672599874215"><ele>14.333333333333332</ele><time>2026-03-22T13:46:25Z</time></trkpt><trkpt lat="37.95646302686379" lon="16.094479204086156"><ele>13.0</ele><time>2026-03-22T13:46:26Z</time></trkpt><trkpt lat="37.956340083347285" lon="16.09433794387802"><ele>13.0</ele><time>2026-03-22T13:46:27Z</time></trkpt><trkpt lat="37.95621071312885" lon="16.09418929941138"><ele>13.0</ele><time>2026-03-22T13:46:28Z</time></trkpt><trkpt lat="37.95608127091127" lon="16.09404057231682"><ele>13.0</ele><time>2026-03-22T13:46:29Z</time></trkpt><trkpt lat="37.955952089361894" lon="16.09389214468569"><ele>12.0</ele><time>2026-03-22T13:46:30Z</time></trkpt><trkpt lat="37.95582078727056" lon="16.09374082826812"><ele>11.0</ele><time>2026-03-22T13:46:31Z</time></trkpt><trkpt lat="37.955689907511264" lon="16.09358978236272"><ele>10.0</ele><time>2026-03-22T13:46:32Z</time></trkpt><trkpt lat="37.95555964865836" lon="16.09343857561011"><ele>10.0</ele><time>2026-03-22T13:46:33Z</time></trkpt><trkpt lat="37.95543054020491" lon="16.09328754873743"><ele>10.0</ele><time>2026-03-22T13:46:34Z</time></trkpt><trkpt lat="37.9553022564931" lon="16.093137658283364"><ele>10.0</ele><time>2026-03-22T13:46:35Z</time></trkpt><trkpt lat="37.95517462297458" lon="16.09298875251436"><ele>10.0</ele><time>2026-03-22T13:46:36Z</time></trkpt><trkpt lat="37.955049337112385" lon="16.092842585688167"><ele>10.0</ele><time>2026-03-22T13:46:37Z</time></trkpt><trkpt lat="37.95492896793996" lon="16.09270114825368"><ele>10.0</ele><time>2026-03-22T13:46:38Z</time></trkpt><trkpt lat="37.9548088967714" lon="16.092560943821937"><ele>11.0</ele><time>2026-03-22T13:46:39Z</time></trkpt><trkpt lat="37.954686668817914" lon="16.092418219656796"><ele>12.0</ele><time>2026-03-22T13:46:40Z</time></trkpt><trkpt lat="37.95455991933908" lon="16.092270887289533"><ele>13.0</ele><time>2026-03-22T13:46:41Z</time></trkpt><trkpt lat="37.95443531111149" lon="16.092125854018715"><ele>13.0</ele><time>2026-03-22T13:46:42Z</time></trkpt><trkpt lat="37.95430661331462" lon="16.091976060533664"><ele>13.0</ele><time>2026-03-22T13:46:43Z</time></trkpt><trkpt lat="37.95417813471017" lon="16.091826521642027"><ele>13.0</ele><time>2026-03-22T13:46:44Z</time></trkpt><trkpt lat="37.95404806259985" lon="16.091673428950685"><ele>13.333333333333332</ele><time>2026-03-22T13:46:45Z</time></trkpt><trkpt lat="37.9539193057788" lon="16.091524157709287"><ele>13.666666666666668</ele><time>2026-03-22T13:46:46Z</time></trkpt><trkpt lat="37.953787962594305" lon="16.091372342069064"><ele>14.0</ele><time>2026-03-22T13:46:47Z</time></trkpt><trkpt lat="37.953656486083055" lon="16.09122011535277"><ele>14.0</ele><time>2026-03-22T13:46:48Z</time></trkpt><trkpt lat="37.9535262409993" lon="16.09106809475945"><ele>14.0</ele><time>2026-03-22T13:46:49Z</time></trkpt><trkpt lat="37.95339516859333" lon="16.090916569006087"><ele>14.0</ele><time>2026-03-22T13:46:50Z</time></trkpt><trkpt lat="37.95326131469766" lon="16.090763195294826"><ele>15.0</ele><time>2026-03-22T13:46:51Z</time></trkpt><trkpt lat="37.95312446981352" lon="16.090607839611735"><ele>16.0</ele><time>2026-03-22T13:46:52Z</time></trkpt><trkpt lat="37.95298776844489" lon="16.090455362388703"><ele>17.0</ele><time>2026-03-22T13:46:53Z</time></trkpt><trkpt lat="37.952854537053085" lon="16.090311107353745"><ele>17.0</ele><time>2026-03-22T13:46:54Z</time></trkpt><trkpt lat="37.95272420706044" lon="16.0901714960758"><ele>17.0</ele><time>2026-03-22T13:46:55Z</time></trkpt><trkpt lat="37.95258893819549" lon="16.090027371852425"><ele>17.0</ele><time>2026-03-22T13:46:56Z</time></trkpt><trkpt lat="37.952456566029824" lon="16.089888498451018"><ele>16.333333333333336</ele><time>2026-03-22T13:46:57Z</time></trkpt><trkpt lat="37.95231880783316" lon="16.0897490397344"><ele>15.666666666666668</ele><time>2026-03-22T13:46:58Z</time></trkpt><trkpt lat="37.952173260851815" lon="16.089608404521517"><ele>15.0</ele><time>2026-03-22T13:46:59Z</time></trkpt><trkpt lat="37.95202770454206" lon="16.089471822634742"><ele>15.0</ele><time>2026-03-22T13:47:00Z</time></trkpt><trkpt lat="37.951885812261494" lon="16.089340284963704"><ele>15.0</ele><time>2026-03-22T13:47:01Z</time></trkpt><trkpt lat="37.95174151434196" lon="16.08920871198318"><ele>15.0</ele><time>2026-03-22T13:47:02Z</time></trkpt><trkpt lat="37.9515984388309" lon="16.089080958545335"><ele>14.0</ele><time>2026-03-22T13:47:03Z</time></trkpt><trkpt lat="37.95144766822272" lon="16.088949120882234"><ele>13.0</ele><time>2026-03-22T13:47:04Z</time></trkpt><trkpt lat="37.95129655988867" lon="16.08882285714182"><ele>12.0</ele><time>2026-03-22T13:47:05Z</time></trkpt><trkpt lat="37.95114252283104" lon="16.088696406656908"><ele>12.0</ele><time>2026-03-22T13:47:06Z</time></trkpt><trkpt lat="37.95098709216938" lon="16.088568812234428"><ele>12.0</ele><time>2026-03-22T13:47:07Z</time></trkpt><trkpt lat="37.95082598482586" lon="16.08843723826803"><ele>12.0</ele><time>2026-03-22T13:47:08Z</time></trkpt><trkpt lat="37.95067143209053" lon="16.088311109052242"><ele>14.333333333333332</ele><time>2026-03-22T13:47:09Z</time></trkpt><trkpt lat="37.950514096203115" lon="16.088182708475607"><ele>16.666666666666664</ele><time>2026-03-22T13:47:10Z</time></trkpt><trkpt lat="37.95035988285432" lon="16.088056856233095"><ele>19.0</ele><time>2026-03-22T13:47:11Z</time></trkpt><trkpt lat="37.950203244294464" lon="16.08792896352728"><ele>15.666666666666666</ele><time>2026-03-22T13:47:12Z</time></trkpt><trkpt lat="37.95004082680712" lon="16.087796326715857"><ele>12.333333333333332</ele><time>2026-03-22T13:47:13Z</time></trkpt><trkpt lat="37.949878071294116" lon="16.087663413787613"><ele>9.0</ele><time>2026-03-22T13:47:14Z</time></trkpt><trkpt lat="37.949717684998085" lon="16.08753243568972"><ele>9.333333333333334</ele><time>2026-03-22T13:47:15Z</time></trkpt><trkpt lat="37.949555993405106" lon="16.087400391712336"><ele>9.666666666666668</ele><time>2026-03-22T13:47:16Z</time></trkpt><trkpt lat="37.949395791593254" lon="16.087269583405106"><ele>10.0</ele><time>2026-03-22T13:47:17Z</time></trkpt><trkpt lat="37.94923697878026" lon="16.08713993856285"><ele>9.0</ele><time>2026-03-22T13:47:18Z</time></trkpt><trkpt lat="37.94907759734793" lon="16.087009830614363"><ele>8.0</ele><time>2026-03-22T13:47:19Z</time></trkpt><trkpt lat="37.94891522818377" lon="16.086877282588308"><ele>7.0</ele><time>2026-03-22T13:47:20Z</time></trkpt><trkpt lat="37.94875131686934" lon="16.086743408570705"><ele>7.0</ele><time>2026-03-22T13:47:21Z</time></trkpt><trkpt lat="37.94858471652769" lon="16.086607334653973"><ele>7.0</ele><time>2026-03-22T13:47:22Z</time></trkpt><trkpt lat="37.948421294976356" lon="16.08647345102686"><ele>7.0</ele><time>2026-03-22T13:47:23Z</time></trkpt><trkpt lat="37.94825735703748" lon="16.08633883750054"><ele>7.666666666666667</ele><time>2026-03-22T13:47:24Z</time></trkpt><trkpt lat="37.94809022831459" lon="16.08620160427861"><ele>8.333333333333334</ele><time>2026-03-22T13:47:25Z</time></trkpt><trkpt lat="37.94792307896939" lon="16.086064354039202"><ele>9.0</ele><time>2026-03-22T13:47:26Z</time></trkpt><trkpt lat="37.94775704008411" lon="16.085928569290893"><ele>9.0</ele><time>2026-03-22T13:47:27Z</time></trkpt><trkpt lat="37.947587630270455" lon="16.085791614573456"><ele>9.0</ele><time>2026-03-22T13:47:28Z</time></trkpt><trkpt lat="37.94741999790824" lon="16.08565609674617"><ele>9.0</ele><time>2026-03-22T13:47:29Z</time></trkpt><trkpt lat="37.947250867900046" lon="16.085518879876886"><ele>9.0</ele><time>2026-03-22T13:47:30Z</time></trkpt><trkpt lat="37.94708416854712" lon="16.085382870692136"><ele>9.0</ele><time>2026-03-22T13:47:31Z</time></trkpt><trkpt lat="37.94691450035138" lon="16.085244439258563"><ele>9.0</ele><time>2026-03-22T13:47:32Z</time></trkpt><trkpt lat="37.94674780269718" lon="16.08510843149866"><ele>9.0</ele><time>2026-03-22T13:47:33Z</time></trkpt><trkpt lat="37.946581012968394" lon="16.084972348569273"><ele>9.0</ele><time>2026-03-22T13:47:34Z</time></trkpt><trkpt lat="37.94641308581555" lon="16.0848353376134"><ele>9.0</ele><time>2026-03-22T13:47:35Z</time></trkpt><trkpt lat="37.94624655899379" lon="16.084699378026368"><ele>9.0</ele><time>2026-03-22T13:47:36Z</time></trkpt><trkpt lat="37.946082469321" lon="16.084565396561693"><ele>9.0</ele><time>2026-03-22T13:47:37Z</time></trkpt><trkpt lat="37.9459193547619" lon="16.084431089365598"><ele>9.0</ele><time>2026-03-22T13:47:38Z</time></trkpt><trkpt lat="37.94575469754661" lon="16.08429503718444"><ele>9.0</ele><time>2026-03-22T13:47:39Z</time></trkpt><trkpt lat="37.94558927985343" lon="16.08415892857711"><ele>9.0</ele><time>2026-03-22T13:47:40Z</time></trkpt><trkpt lat="37.945420750905484" lon="16.08402295923106"><ele>9.0</ele><time>2026-03-22T13:47:41Z</time></trkpt><trkpt lat="37.94524974803996" lon="16.083885847772436"><ele>9.0</ele><time>2026-03-22T13:47:42Z</time></trkpt><trkpt lat="37.9450833750495" lon="16.083748587712552"><ele>9.0</ele><time>2026-03-22T13:47:43Z</time></trkpt><trkpt lat="37.94491488804043" lon="16.083610787106938"><ele>9.0</ele><time>2026-03-22T13:47:44Z</time></trkpt><trkpt lat="37.94474568344347" lon="16.0834758630789"><ele>8.666666666666666</ele><time>2026-03-22T13:47:45Z</time></trkpt><trkpt lat="37.944576222264985" lon="16.083332951077498"><ele>8.333333333333332</ele><time>2026-03-22T13:47:46Z</time></trkpt><trkpt lat="37.94440230882918" lon="16.083188034212856"><ele>8.0</ele><time>2026-03-22T13:47:47Z</time></trkpt><trkpt lat="37.94422935789042" lon="16.083040977771226"><ele>8.666666666666666</ele><time>2026-03-22T13:47:48Z</time></trkpt><trkpt lat="37.94406948501667" lon="16.082888874970703"><ele>9.333333333333334</ele><time>2026-03-22T13:47:49Z</time></trkpt><trkpt lat="37.94391964096545" lon="16.082716076626216"><ele>10.0</ele><time>2026-03-22T13:47:50Z</time></trkpt><trkpt lat="37.943761300399196" lon="16.082525966394346"><ele>10.0</ele><time>2026-03-22T13:47:51Z</time></trkpt><trkpt lat="37.943463691315195" lon="16.082528779102983"><ele>10.0</ele><time>2026-03-22T13:47:52Z</time></trkpt><trkpt lat="37.94329245421216" lon="16.08237550762018"><ele>9.0</ele><time>2026-03-22T13:47:53Z</time></trkpt><trkpt lat="37.94315323123677" lon="16.08218095798788"><ele>8.0</ele><time>2026-03-22T13:47:54Z</time></trkpt><trkpt lat="37.94304800960299" lon="16.081993069964764"><ele>7.0</ele><time>2026-03-22T13:47:55Z</time></trkpt><trkpt lat="37.943062021459504" lon="16.08165723039564"><ele>8.666666666666668</ele><time>2026-03-22T13:47:56Z</time></trkpt><trkpt lat="37.9429262562482" lon="16.081490241453828"><ele>10.333333333333334</ele><time>2026-03-22T13:47:57Z</time></trkpt><trkpt lat="37.94279165147809" lon="16.081324678625982"><ele>12.0</ele><time>2026-03-22T13:47:58Z</time></trkpt><trkpt lat="37.94265956663704" lon="16.08116161899683"><ele>11.333333333333334</ele><time>2026-03-22T13:47:59Z</time></trkpt><trkpt lat="37.942508745725334" lon="16.081003228524736"><ele>10.666666666666668</ele><time>2026-03-22T13:48:00Z</time></trkpt><trkpt lat="37.94239897986246" lon="16.080803388509672"><ele>10.0</ele><time>2026-03-22T13:48:01Z</time></trkpt><trkpt lat="37.942299620719965" lon="16.08060482908163"><ele>10.0</ele><time>2026-03-22T13:48:02Z</time></trkpt><trkpt lat="37.94218073067443" lon="16.080438675428887"><ele>10.0</ele><time>2026-03-22T13:48:03Z</time></trkpt><trkpt lat="37.94206049103667" lon="16.08029038214482"><ele>10.0</ele><time>2026-03-22T13:48:04Z</time></trkpt><trkpt lat="37.94193535654101" lon="16.080136052181004"><ele>10.0</ele><time>2026-03-22T13:48:05Z</time></trkpt><trkpt lat="37.941783206412346" lon="16.08008155549256"><ele>10.0</ele><time>2026-03-22T13:48:06Z</time></trkpt><trkpt lat="37.94165868684413" lon="16.079933708873817"><ele>10.0</ele><time>2026-03-22T13:48:07Z</time></trkpt><trkpt lat="37.94153751972117" lon="16.079796664609887"><ele>10.0</ele><time>2026-03-22T13:48:08Z</time></trkpt><trkpt lat="37.9414139364718" lon="16.079663292980175"><ele>10.0</ele><time>2026-03-22T13:48:09Z</time></trkpt><trkpt lat="37.94129755659953" lon="16.079540580228308"><ele>10.0</ele><time>2026-03-22T13:48:10Z</time></trkpt><trkpt lat="37.941175664727375" lon="16.079416185734416"><ele>10.0</ele><time>2026-03-22T13:48:11Z</time></trkpt><trkpt lat="37.9410560216234" lon="16.079296892703013"><ele>10.0</ele><time>2026-03-22T13:48:12Z</time></trkpt><trkpt lat="37.94094038053606" lon="16.079183891488828"><ele>10.0</ele><time>2026-03-22T13:48:13Z</time></trkpt><trkpt lat="37.94082457171344" lon="16.079071787053817"><ele>10.0</ele><time>2026-03-22T13:48:14Z</time></trkpt><trkpt lat="37.940711958533754" lon="16.07896277600737"><ele>9.75</ele><time>2026-03-22T13:48:15Z</time></trkpt><trkpt lat="37.940600651967316" lon="16.078855029817408"><ele>9.5</ele><time>2026-03-22T13:48:16Z</time></trkpt><trkpt lat="37.940482005460524" lon="16.078740177615217"><ele>9.25</ele><time>2026-03-22T13:48:17Z</time></trkpt><trkpt lat="37.94036283925587" lon="16.07862481533581"><ele>9.0</ele><time>2026-03-22T13:48:18Z</time></trkpt><trkpt lat="37.940241001685045" lon="16.078507246410837"><ele>9.0</ele><time>2026-03-22T13:48:19Z</time></trkpt><trkpt lat="37.94011535023649" lon="16.078385997281966"><ele>9.0</ele><time>2026-03-22T13:48:20Z</time></trkpt><trkpt lat="37.939997212482034" lon="16.07827199849021"><ele>9.0</ele><time>2026-03-22T13:48:21Z</time></trkpt><trkpt lat="37.93987104461086" lon="16.07815025091618"><ele>9.666666666666666</ele><time>2026-03-22T13:48:22Z</time></trkpt><trkpt lat="37.939745006661596" lon="16.078028628742533"><ele>10.333333333333332</ele><time>2026-03-22T13:48:23Z</time></trkpt><trkpt lat="37.93962133026456" lon="16.07790928543007"><ele>11.0</ele><time>2026-03-22T13:48:24Z</time></trkpt><trkpt lat="37.93949633509516" lon="16.077788669508855"><ele>11.0</ele><time>2026-03-22T13:48:25Z</time></trkpt><trkpt lat="37.93937306967347" lon="16.077669722762263"><ele>11.0</ele><time>2026-03-22T13:48:26Z</time></trkpt><trkpt lat="37.93924759446809" lon="16.077548644694783"><ele>11.0</ele><time>2026-03-22T13:48:27Z</time></trkpt><trkpt lat="37.93911414520278" lon="16.077420097881696"><ele>13.0</ele><time>2026-03-22T13:48:28Z</time></trkpt><trkpt lat="37.93898514188414" lon="16.077293135971235"><ele>15.0</ele><time>2026-03-22T13:48:29Z</time></trkpt><trkpt lat="37.938857691239704" lon="16.077163657157826"><ele>17.0</ele><time>2026-03-22T13:48:30Z</time></trkpt><trkpt lat="37.93872967114169" lon="16.07702837342884"><ele>17.0</ele><time>2026-03-22T13:48:31Z</time></trkpt><trkpt lat="37.938607459496325" lon="16.07689024040579"><ele>17.0</ele><time>2026-03-22T13:48:32Z</time></trkpt><trkpt lat="37.938488904737696" lon="16.07674688914519"><ele>17.0</ele><time>2026-03-22T13:48:33Z</time></trkpt><trkpt lat="37.938370628925234" lon="16.076595972370065"><ele>15.666666666666668</ele><time>2026-03-22T13:48:34Z</time></trkpt><trkpt lat="37.93825158684755" lon="16.076441178778467"><ele>14.333333333333332</ele><time>2026-03-22T13:48:35Z</time></trkpt><trkpt lat="37.93813537334154" lon="16.076290063132078"><ele>13.0</ele><time>2026-03-22T13:48:36Z</time></trkpt><trkpt lat="37.93801798206233" lon="16.07613741604304"><ele>13.0</ele><time>2026-03-22T13:48:37Z</time></trkpt><trkpt lat="37.937901659623314" lon="16.075986158631945"><ele>13.0</ele><time>2026-03-22T13:48:38Z</time></trkpt><trkpt lat="37.9377826970359" lon="16.075831470427616"><ele>13.0</ele><time>2026-03-22T13:48:39Z</time></trkpt><trkpt lat="37.93766197822437" lon="16.07567597998675"><ele>11.333333333333332</ele><time>2026-03-22T13:48:40Z</time></trkpt><trkpt lat="37.93754401397912" lon="16.075523503400397"><ele>9.666666666666666</ele><time>2026-03-22T13:48:41Z</time></trkpt><trkpt lat="37.937425465694076" lon="16.07536989092715"><ele>8.0</ele><time>2026-03-22T13:48:42Z</time></trkpt><trkpt lat="37.9373059575317" lon="16.075215034680873"><ele>8.0</ele><time>2026-03-22T13:48:43Z</time></trkpt><trkpt lat="37.93718564667623" lon="16.07505827341819"><ele>8.0</ele><time>2026-03-22T13:48:44Z</time></trkpt><trkpt lat="37.93706354924861" lon="16.07489912049925"><ele>8.0</ele><time>2026-03-22T13:48:45Z</time></trkpt><trkpt lat="37.93694227289366" lon="16.0747410380733"><ele>7.666666666666666</ele><time>2026-03-22T13:48:46Z</time></trkpt><trkpt lat="37.93682145469001" lon="16.074583552764302"><ele>7.333333333333334</ele><time>2026-03-22T13:48:47Z</time></trkpt><trkpt lat="37.9366956104759" lon="16.074419516171652"><ele>7.0</ele><time>2026-03-22T13:48:48Z</time></trkpt><trkpt lat="37.93657137139206" lon="16.074257591517608"><ele>8.666666666666668</ele><time>2026-03-22T13:48:49Z</time></trkpt><trkpt lat="37.93644388995965" lon="16.074091769457205"><ele>10.333333333333334</ele><time>2026-03-22T13:48:50Z</time></trkpt><trkpt lat="37.936320240340585" lon="16.07393093164989"><ele>12.0</ele><time>2026-03-22T13:48:51Z</time></trkpt><trkpt lat="37.93619058992893" lon="16.073762288266206"><ele>12.0</ele><time>2026-03-22T13:48:52Z</time></trkpt><trkpt lat="37.93606156442967" lon="16.07359445768169"><ele>12.0</ele><time>2026-03-22T13:48:53Z</time></trkpt><trkpt lat="37.93593418087934" lon="16.073429149032957"><ele>12.0</ele><time>2026-03-22T13:48:54Z</time></trkpt><trkpt lat="37.9358077450028" lon="16.073265113545173"><ele>11.333333333333334</ele><time>2026-03-22T13:48:55Z</time></trkpt><trkpt lat="37.93567758541346" lon="16.073096247112147"><ele>10.666666666666668</ele><time>2026-03-22T13:48:56Z</time></trkpt><trkpt lat="37.935549223068676" lon="16.072931082987566"><ele>10.0</ele><time>2026-03-22T13:48:57Z</time></trkpt><trkpt lat="37.93542276254595" lon="16.072766107838216"><ele>10.0</ele><time>2026-03-22T13:48:58Z</time></trkpt><trkpt lat="37.935293161804445" lon="16.072598424394492"><ele>10.0</ele><time>2026-03-22T13:48:59Z</time></trkpt><trkpt lat="37.93516487948985" lon="16.072432446769795"><ele>10.0</ele><time>2026-03-22T13:49:00Z</time></trkpt><trkpt lat="37.93503774472866" lon="16.072267953896837"><ele>10.0</ele><time>2026-03-22T13:49:01Z</time></trkpt><trkpt lat="37.93490718466782" lon="16.072099029146695"><ele>10.0</ele><time>2026-03-22T13:49:02Z</time></trkpt><trkpt lat="37.934778098409026" lon="16.071931947291013"><ele>10.0</ele><time>2026-03-22T13:49:03Z</time></trkpt><trkpt lat="37.93464555958791" lon="16.07176043843344"><ele>10.333333333333334</ele><time>2026-03-22T13:49:04Z</time></trkpt><trkpt lat="37.93450630419361" lon="16.071580242660897"><ele>10.666666666666666</ele><time>2026-03-22T13:49:05Z</time></trkpt><trkpt lat="37.93436453540789" lon="16.0713967936434"><ele>11.0</ele><time>2026-03-22T13:49:06Z</time></trkpt><trkpt lat="37.93422021871606" lon="16.071210047622017"><ele>11.333333333333332</ele><time>2026-03-22T13:49:07Z</time></trkpt><trkpt lat="37.934073113116746" lon="16.071019894754297"><ele>11.666666666666666</ele><time>2026-03-22T13:49:08Z</time></trkpt><trkpt lat="37.933922498656415" lon="16.070825664647522"><ele>12.0</ele><time>2026-03-22T13:49:09Z</time></trkpt><trkpt lat="37.93377041136038" lon="16.070629535123153"><ele>12.0</ele><time>2026-03-22T13:49:10Z</time></trkpt><trkpt lat="37.93361666699511" lon="16.07043126853201"><ele>12.0</ele><time>2026-03-22T13:49:11Z</time></trkpt><trkpt lat="37.933457697031216" lon="16.070226263281665"><ele>12.0</ele><time>2026-03-22T13:49:12Z</time></trkpt><trkpt lat="37.933296534823526" lon="16.070018457226382"><ele>11.0</ele><time>2026-03-22T13:49:13Z</time></trkpt><trkpt lat="37.93313094085814" lon="16.069805668189545"><ele>10.0</ele><time>2026-03-22T13:49:14Z</time></trkpt><trkpt lat="37.9329650936371" lon="16.0695925536095"><ele>10.0</ele><time>2026-03-22T13:49:15Z</time></trkpt><trkpt lat="37.93279762715137" lon="16.069377358417427"><ele>10.0</ele><time>2026-03-22T13:49:16Z</time></trkpt><trkpt lat="37.93263374357222" lon="16.069166682088277"><ele>10.333333333333334</ele><time>2026-03-22T13:49:17Z</time></trkpt><trkpt lat="37.93247628539572" lon="16.068964045375818"><ele>10.666666666666666</ele><time>2026-03-22T13:49:18Z</time></trkpt><trkpt lat="37.93232179203826" lon="16.068767134741908"><ele>11.0</ele><time>2026-03-22T13:49:19Z</time></trkpt><trkpt lat="37.93217088931237" lon="16.068574699182196"><ele>11.0</ele><time>2026-03-22T13:49:20Z</time></trkpt><trkpt lat="37.93202456398817" lon="16.06838886813796"><ele>11.0</ele><time>2026-03-22T13:49:21Z</time></trkpt><trkpt lat="37.93186520139439" lon="16.068192718968824"><ele>11.0</ele><time>2026-03-22T13:49:22Z</time></trkpt><trkpt lat="37.93171353198286" lon="16.068008022854276"><ele>11.5</ele><time>2026-03-22T13:49:23Z</time></trkpt><trkpt lat="37.93152962126531" lon="16.067820513103175"><ele>12.0</ele><time>2026-03-22T13:49:24Z</time></trkpt><trkpt lat="37.931347088922806" lon="16.06765390422904"><ele>12.0</ele><time>2026-03-22T13:49:25Z</time></trkpt><trkpt lat="37.93115140053587" lon="16.067499528568973"><ele>12.0</ele><time>2026-03-22T13:49:26Z</time></trkpt><trkpt lat="37.93094578673192" lon="16.067350236937926"><ele>14.5</ele><time>2026-03-22T13:49:27Z</time></trkpt><trkpt lat="37.93074343315334" lon="16.06720794593742"><ele>17.0</ele><time>2026-03-22T13:49:28Z</time></trkpt><trkpt lat="37.93053646956009" lon="16.06706498011942"><ele>17.0</ele><time>2026-03-22T13:49:29Z</time></trkpt><trkpt lat="37.93033621175916" lon="16.06692654499447"><ele>17.0</ele><time>2026-03-22T13:49:30Z</time></trkpt><trkpt lat="37.93014151462717" lon="16.066793905476075"><ele>17.0</ele><time>2026-03-22T13:49:31Z</time></trkpt><trkpt lat="37.92995174993258" lon="16.066665320130802"><ele>19.0</ele><time>2026-03-22T13:49:32Z</time></trkpt><trkpt lat="37.92976270394104" lon="16.066538700333535"><ele>21.0</ele><time>2026-03-22T13:49:33Z</time></trkpt><trkpt lat="37.92957799660437" lon="16.066417709584417"><ele>23.0</ele><time>2026-03-22T13:49:34Z</time></trkpt><trkpt lat="37.929387843605554" lon="16.06629315181921"><ele>20.333333333333336</ele><time>2026-03-22T13:49:35Z</time></trkpt><trkpt lat="37.929197675709474" lon="16.066168585556156"><ele>17.666666666666668</ele><time>2026-03-22T13:49:36Z</time></trkpt><trkpt lat="37.92900597974688" lon="16.066044448159264"><ele>15.0</ele><time>2026-03-22T13:49:37Z</time></trkpt><trkpt lat="37.92881908605142" lon="16.065923101855283"><ele>15.0</ele><time>2026-03-22T13:49:38Z</time></trkpt><trkpt lat="37.92863331932306" lon="16.06580248732821"><ele>15.0</ele><time>2026-03-22T13:49:39Z</time></trkpt><trkpt lat="37.92845491655847" lon="16.06568382975404"><ele>15.0</ele><time>2026-03-22T13:49:40Z</time></trkpt><trkpt lat="37.928281901985386" lon="16.06556490971499"><ele>17.333333333333332</ele><time>2026-03-22T13:49:41Z</time></trkpt><trkpt lat="37.92811241060845" lon="16.065443966589115"><ele>19.666666666666664</ele><time>2026-03-22T13:49:42Z</time></trkpt><trkpt lat="37.92795367246888" lon="16.06532786235161"><ele>22.0</ele><time>2026-03-22T13:49:43Z</time></trkpt><trkpt lat="37.92780725492099" lon="16.065213995454535"><ele>22.0</ele><time>2026-03-22T13:49:44Z</time></trkpt><trkpt lat="37.927670520828606" lon="16.065104344235305"><ele>22.0</ele><time>2026-03-22T13:49:45Z</time></trkpt><trkpt lat="37.92754162626096" lon="16.06500584296275"><ele>22.0</ele><time>2026-03-22T13:49:46Z</time></trkpt><trkpt lat="37.9274364330957" lon="16.06491628010564"><ele>22.0</ele><time>2026-03-22T13:49:47Z</time></trkpt><trkpt lat="37.927349361586565" lon="16.064813505660275"><ele>19.5</ele><time>2026-03-22T13:49:48Z</time></trkpt><trkpt lat="37.92725239047973" lon="16.064691011587545"><ele>17.0</ele><time>2026-03-22T13:49:49Z</time></trkpt><trkpt lat="37.92716982369611" lon="16.064557756734743"><ele>14.5</ele><time>2026-03-22T13:49:50Z</time></trkpt><trkpt lat="37.92702971068342" lon="16.06444469228106"><ele>12.0</ele><time>2026-03-22T13:49:51Z</time></trkpt><trkpt lat="37.92692061189891" lon="16.064295994977584"><ele>12.0</ele><time>2026-03-22T13:49:52Z</time></trkpt><trkpt lat="37.926791212037244" lon="16.064156613472413"><ele>12.0</ele><time>2026-03-22T13:49:53Z</time></trkpt><trkpt lat="37.926647833348454" lon="16.06401920243841"><ele>12.0</ele><time>2026-03-22T13:49:54Z</time></trkpt><trkpt lat="37.92654838289988" lon="16.063805021615185"><ele>9.666666666666666</ele><time>2026-03-22T13:49:55Z</time></trkpt><trkpt lat="37.926407715066254" lon="16.063656454068646"><ele>7.333333333333334</ele><time>2026-03-22T13:49:56Z</time></trkpt><trkpt lat="37.92626689930195" lon="16.063505110113272"><ele>5.0</ele><time>2026-03-22T13:49:57Z</time></trkpt><trkpt lat="37.926123245566764" lon="16.06334669008158"><ele>5.666666666666667</ele><time>2026-03-22T13:49:58Z</time></trkpt><trkpt lat="37.925983464658046" lon="16.06317100335033"><ele>6.333333333333334</ele><time>2026-03-22T13:49:59Z</time></trkpt><trkpt lat="37.925856827058986" lon="16.062976069071777"><ele>7.0</ele><time>2026-03-22T13:50:00Z</time></trkpt><trkpt lat="37.92574391056482" lon="16.062756899336453"><ele>7.0</ele><time>2026-03-22T13:50:01Z</time></trkpt><trkpt lat="37.925643383240775" lon="16.06252654027529"><ele>7.0</ele><time>2026-03-22T13:50:02Z</time></trkpt><trkpt lat="37.925542730451596" lon="16.0622873361755"><ele>7.0</ele><time>2026-03-22T13:50:03Z</time></trkpt><trkpt lat="37.92544812298642" lon="16.06203681217398"><ele>10.0</ele><time>2026-03-22T13:50:04Z</time></trkpt><trkpt lat="37.9253619264416" lon="16.06178488982089"><ele>13.0</ele><time>2026-03-22T13:50:05Z</time></trkpt><trkpt lat="37.92528799885219" lon="16.061523225003747"><ele>16.0</ele><time>2026-03-22T13:50:06Z</time></trkpt><trkpt lat="37.925226355945576" lon="16.06125168507541"><ele>24.0</ele><time>2026-03-22T13:50:07Z</time></trkpt><trkpt lat="37.92517618442996" lon="16.06096688001385"><ele>32.0</ele><time>2026-03-22T13:50:08Z</time></trkpt><trkpt lat="37.925147151263786" lon="16.060682086077247"><ele>34.5</ele><time>2026-03-22T13:50:09Z</time></trkpt><trkpt lat="37.92514483909365" lon="16.06037780132988"><ele>37.0</ele><time>2026-03-22T13:50:10Z</time></trkpt><trkpt lat="37.92514892875153" lon="16.060072572679083"><ele>41.5</ele><time>2026-03-22T13:50:11Z</time></trkpt><trkpt lat="37.92513569203857" lon="16.05975758327686"><ele>46.0</ele><time>2026-03-22T13:50:12Z</time></trkpt><trkpt lat="37.925130465938096" lon="16.059440830820193"><ele>46.0</ele><time>2026-03-22T13:50:13Z</time></trkpt><trkpt lat="37.925107797540626" lon="16.05912495693654"><ele>46.0</ele><time>2026-03-22T13:50:14Z</time></trkpt><trkpt lat="37.92507548535393" lon="16.05880998560796"><ele>47.5</ele><time>2026-03-22T13:50:15Z</time></trkpt><trkpt lat="37.925062852649155" lon="16.058481898719165"><ele>49.0</ele><time>2026-03-22T13:50:16Z</time></trkpt><trkpt lat="37.92501280339916" lon="16.05816081296567"><ele>34.0</ele><time>2026-03-22T13:50:17Z</time></trkpt><trkpt lat="37.92498141014192" lon="16.05784481480347"><ele>19.0</ele><time>2026-03-22T13:50:18Z</time></trkpt><trkpt lat="37.92493969231639" lon="16.05753152721977"><ele>21.0</ele><time>2026-03-22T13:50:19Z</time></trkpt><trkpt lat="37.92489745137194" lon="16.057223343087614"><ele>23.0</ele><time>2026-03-22T13:50:20Z</time></trkpt><trkpt lat="37.924886578060494" lon="16.056904334165647"><ele>26.5</ele><time>2026-03-22T13:50:21Z</time></trkpt><trkpt lat="37.92484374820204" lon="16.0565968196314"><ele>30.0</ele><time>2026-03-22T13:50:22Z</time></trkpt><trkpt lat="37.92479862292198" lon="16.056283944018443"><ele>30.0</ele><time>2026-03-22T13:50:23Z</time></trkpt><trkpt lat="37.92475381932459" lon="16.05596364979536"><ele>30.0</ele><time>2026-03-22T13:50:24Z</time></trkpt><trkpt lat="37.92471962053588" lon="16.05563751063634"><ele>30.0</ele><time>2026-03-22T13:50:25Z</time></trkpt><trkpt lat="37.92469954108706" lon="16.05531430655729"><ele>30.0</ele><time>2026-03-22T13:50:26Z</time></trkpt><trkpt lat="37.9246837534178" lon="16.054982063885873"><ele>24.5</ele><time>2026-03-22T13:50:27Z</time></trkpt><trkpt lat="37.92466629722416" lon="16.054645753321047"><ele>19.0</ele><time>2026-03-22T13:50:28Z</time></trkpt><trkpt lat="37.92464623938415" lon="16.054315216915224"><ele>15.5</ele><time>2026-03-22T13:50:29Z</time></trkpt><trkpt lat="37.92462011549473" lon="16.05399117797004"><ele>12.0</ele><time>2026-03-22T13:50:30Z</time></trkpt><trkpt lat="37.924583766867094" lon="16.05366535904546"><ele>12.0</ele><time>2026-03-22T13:50:31Z</time></trkpt><trkpt lat="37.92454404808138" lon="16.053349568082737"><ele>12.0</ele><time>2026-03-22T13:50:32Z</time></trkpt><trkpt lat="37.924504453913535" lon="16.05303829370313"><ele>15.0</ele><time>2026-03-22T13:50:33Z</time></trkpt><trkpt lat="37.924432638130824" lon="16.052735572767904"><ele>18.0</ele><time>2026-03-22T13:50:34Z</time></trkpt><trkpt lat="37.92440121431964" lon="16.052433095614422"><ele>20.5</ele><time>2026-03-22T13:50:35Z</time></trkpt><trkpt lat="37.924370114193565" lon="16.052121344190905"><ele>23.0</ele><time>2026-03-22T13:50:36Z</time></trkpt><trkpt lat="37.92435175765434" lon="16.051810480590277"><ele>22.5</ele><time>2026-03-22T13:50:37Z</time></trkpt><trkpt lat="37.92435213817886" lon="16.051496986058947"><ele>22.0</ele><time>2026-03-22T13:50:38Z</time></trkpt><trkpt lat="37.924361599980514" lon="16.05118365430668"><ele>22.0</ele><time>2026-03-22T13:50:39Z</time></trkpt><trkpt lat="37.924356516879996" lon="16.050875237370427"><ele>22.0</ele><time>2026-03-22T13:50:40Z</time></trkpt><trkpt lat="37.92433681668767" lon="16.050564805711698"><ele>20.5</ele><time>2026-03-22T13:50:41Z</time></trkpt><trkpt lat="37.924314951831" lon="16.050255024439792"><ele>19.0</ele><time>2026-03-22T13:50:42Z</time></trkpt><trkpt lat="37.92429271291865" lon="16.04994833894036"><ele>19.0</ele><time>2026-03-22T13:50:43Z</time></trkpt><trkpt lat="37.92423912588537" lon="16.04963831329085"><ele>19.0</ele><time>2026-03-22T13:50:44Z</time></trkpt><trkpt lat="37.92418654051377" lon="16.04933191008958"><ele>15.0</ele><time>2026-03-22T13:50:45Z</time></trkpt><trkpt lat="37.924134098283346" lon="16.04902634101091"><ele>11.0</ele><time>2026-03-22T13:50:46Z</time></trkpt><trkpt lat="37.92408284167872" lon="16.048727775840312"><ele>11.0</ele><time>2026-03-22T13:50:47Z</time></trkpt><trkpt lat="37.92403300072863" lon="16.048437637199797"><ele>11.0</ele><time>2026-03-22T13:50:48Z</time></trkpt><trkpt lat="37.92398355957184" lon="16.048149825626826"><ele>13.0</ele><time>2026-03-22T13:50:49Z</time></trkpt><trkpt lat="37.923933618790386" lon="16.04785910580646"><ele>15.0</ele><time>2026-03-22T13:50:50Z</time></trkpt><trkpt lat="37.92388338145585" lon="16.04756645503184"><ele>16.5</ele><time>2026-03-22T13:50:51Z</time></trkpt><trkpt lat="37.92382679483764" lon="16.047274719185797"><ele>18.0</ele><time>2026-03-22T13:50:52Z</time></trkpt><trkpt lat="37.92375410497388" lon="16.046988799092922"><ele>18.0</ele><time>2026-03-22T13:50:53Z</time></trkpt><trkpt lat="37.923669018176334" lon="16.046711686791962"><ele>18.0</ele><time>2026-03-22T13:50:54Z</time></trkpt><trkpt lat="37.923586712113284" lon="16.04644443792452"><ele>18.333333333333332</ele><time>2026-03-22T13:50:55Z</time></trkpt><trkpt lat="37.92350459000995" lon="16.04617778637984"><ele>18.666666666666664</ele><time>2026-03-22T13:50:56Z</time></trkpt><trkpt lat="37.92342369494277" lon="16.04591771729448"><ele>19.0</ele><time>2026-03-22T13:50:57Z</time></trkpt><trkpt lat="37.923343845395095" lon="16.04566350235945"><ele>17.0</ele><time>2026-03-22T13:50:58Z</time></trkpt><trkpt lat="37.92327052268404" lon="16.045426652218858"><ele>15.0</ele><time>2026-03-22T13:50:59Z</time></trkpt><trkpt lat="37.923205590294046" lon="16.045205975994968"><ele>13.0</ele><time>2026-03-22T13:51:00Z</time></trkpt><trkpt lat="37.923133107112314" lon="16.04498023958591"><ele>11.666666666666666</ele><time>2026-03-22T13:51:01Z</time></trkpt><trkpt lat="37.92312264973498" lon="16.04472452088124"><ele>10.333333333333332</ele><time>2026-03-22T13:51:02Z</time></trkpt><trkpt lat="37.92314557846028" lon="16.044466520179505"><ele>9.0</ele><time>2026-03-22T13:51:03Z</time></trkpt><trkpt lat="37.92317180050313" lon="16.044215131543904"><ele>9.0</ele><time>2026-03-22T13:51:04Z</time></trkpt><trkpt lat="37.92318716596399" lon="16.04396964724506"><ele>9.0</ele><time>2026-03-22T13:51:05Z</time></trkpt><trkpt lat="37.9232075025287" lon="16.04372618344314"><ele>9.0</ele><time>2026-03-22T13:51:06Z</time></trkpt><trkpt lat="37.92322356379658" lon="16.043487719295822"><ele>9.333333333333334</ele><time>2026-03-22T13:51:07Z</time></trkpt><trkpt lat="37.92323838159732" lon="16.043243817788152"><ele>9.666666666666668</ele><time>2026-03-22T13:51:08Z</time></trkpt><trkpt lat="37.92325805018582" lon="16.043001619831493"><ele>10.0</ele><time>2026-03-22T13:51:09Z</time></trkpt><trkpt lat="37.92329002375118" lon="16.042763239497326"><ele>10.0</ele><time>2026-03-22T13:51:10Z</time></trkpt><trkpt lat="37.923340136194106" lon="16.04253137878329"><ele>10.0</ele><time>2026-03-22T13:51:11Z</time></trkpt><trkpt lat="37.92341604498815" lon="16.04231071054157"><ele>10.0</ele><time>2026-03-22T13:51:12Z</time></trkpt><trkpt lat="37.923517810229114" lon="16.04209699837652"><ele>11.0</ele><time>2026-03-22T13:51:13Z</time></trkpt><trkpt lat="37.92361840148437" lon="16.041883125225016"><ele>12.0</ele><time>2026-03-22T13:51:14Z</time></trkpt><trkpt lat="37.92371123287598" lon="16.04165898099954"><ele>13.0</ele><time>2026-03-22T13:51:15Z</time></trkpt><trkpt lat="37.92381659987316" lon="16.04142711826605"><ele>13.0</ele><time>2026-03-22T13:51:16Z</time></trkpt><trkpt lat="37.923927770669025" lon="16.041185940480293"><ele>13.0</ele><time>2026-03-22T13:51:17Z</time></trkpt><trkpt lat="37.92404130243666" lon="16.040942462854026"><ele>13.0</ele><time>2026-03-22T13:51:18Z</time></trkpt><trkpt lat="37.924173339613546" lon="16.040692776673712"><ele>15.333333333333332</ele><time>2026-03-22T13:51:19Z</time></trkpt><trkpt lat="37.9242902674317" lon="16.040450114555238"><ele>17.666666666666668</ele><time>2026-03-22T13:51:20Z</time></trkpt><trkpt lat="37.9243961662215" lon="16.04021896840109"><ele>20.0</ele><time>2026-03-22T13:51:21Z</time></trkpt><trkpt lat="37.92448546887609" lon="16.03998639671923"><ele>19.333333333333336</ele><time>2026-03-22T13:51:22Z</time></trkpt><trkpt lat="37.92452454900671" lon="16.03973241721899"><ele>18.666666666666668</ele><time>2026-03-22T13:51:23Z</time></trkpt><trkpt lat="37.9245281276234" lon="16.039461853748424"><ele>18.0</ele><time>2026-03-22T13:51:24Z</time></trkpt><trkpt lat="37.924552098897465" lon="16.039190775567082"><ele>16.666666666666668</ele><time>2026-03-22T13:51:25Z</time></trkpt><trkpt lat="37.92458744320347" lon="16.038916942016385"><ele>15.333333333333334</ele><time>2026-03-22T13:51:26Z</time></trkpt><trkpt lat="37.92461606502807" lon="16.03864707953778"><ele>14.0</ele><time>2026-03-22T13:51:27Z</time></trkpt><trkpt lat="37.92464387751917" lon="16.038383459059315"><ele>14.0</ele><time>2026-03-22T13:51:28Z</time></trkpt><trkpt lat="37.92467057210423" lon="16.038110346002952"><ele>14.0</ele><time>2026-03-22T13:51:29Z</time></trkpt><trkpt lat="37.92470075025024" lon="16.037838576045644"><ele>14.0</ele><time>2026-03-22T13:51:30Z</time></trkpt><trkpt lat="37.92472696950658" lon="16.03756988931105"><ele>13.666666666666668</ele><time>2026-03-22T13:51:31Z</time></trkpt><trkpt lat="37.92475381044578" lon="16.0373061187979"><ele>13.333333333333332</ele><time>2026-03-22T13:51:32Z</time></trkpt><trkpt lat="37.92478159182422" lon="16.037043880252885"><ele>13.0</ele><time>2026-03-22T13:51:33Z</time></trkpt><trkpt lat="37.92480816016948" lon="16.036787594405506"><ele>13.333333333333332</ele><time>2026-03-22T13:51:34Z</time></trkpt><trkpt lat="37.924832541689405" lon="16.036522864874186"><ele>13.666666666666668</ele><time>2026-03-22T13:51:35Z</time></trkpt><trkpt lat="37.92485076988795" lon="16.036265530054415"><ele>14.0</ele><time>2026-03-22T13:51:36Z</time></trkpt><trkpt lat="37.92485125396251" lon="16.036001707776965"><ele>17.333333333333336</ele><time>2026-03-22T13:51:37Z</time></trkpt><trkpt lat="37.92480063706843" lon="16.035746166499944"><ele>20.666666666666668</ele><time>2026-03-22T13:51:38Z</time></trkpt><trkpt lat="37.92471345613476" lon="16.035497522632024"><ele>24.0</ele><time>2026-03-22T13:51:39Z</time></trkpt><trkpt lat="37.92462968206263" lon="16.035249674824506"><ele>24.0</ele><time>2026-03-22T13:51:40Z</time></trkpt><trkpt lat="37.92455530949252" lon="16.035003258206196"><ele>24.0</ele><time>2026-03-22T13:51:41Z</time></trkpt><trkpt lat="37.92448940922843" lon="16.034755805884394"><ele>24.0</ele><time>2026-03-22T13:51:42Z</time></trkpt><trkpt lat="37.924430339639606" lon="16.034512242206883"><ele>25.333333333333336</ele><time>2026-03-22T13:51:43Z</time></trkpt><trkpt lat="37.92439091868713" lon="16.034267098621612"><ele>26.666666666666668</ele><time>2026-03-22T13:51:44Z</time></trkpt><trkpt lat="37.92433721398831" lon="16.034029290174242"><ele>28.0</ele><time>2026-03-22T13:51:45Z</time></trkpt><trkpt lat="37.924285352808674" lon="16.033791081962924"><ele>28.0</ele><time>2026-03-22T13:51:46Z</time></trkpt><trkpt lat="37.92424745241591" lon="16.033545793355426"><ele>28.0</ele><time>2026-03-22T13:51:47Z</time></trkpt><trkpt lat="37.92423053183607" lon="16.033293645073954"><ele>28.0</ele><time>2026-03-22T13:51:48Z</time></trkpt><trkpt lat="37.924254845887106" lon="16.03303279403543"><ele>25.333333333333336</ele><time>2026-03-22T13:51:49Z</time></trkpt><trkpt lat="37.924275394654124" lon="16.032781202367627"><ele>22.666666666666668</ele><time>2026-03-22T13:51:50Z</time></trkpt><trkpt lat="37.92427442055902" lon="16.03251435935791"><ele>20.0</ele><time>2026-03-22T13:51:51Z</time></trkpt><trkpt lat="37.924230637368076" lon="16.03225726336738"><ele>17.666666666666668</ele><time>2026-03-22T13:51:52Z</time></trkpt><trkpt lat="37.92417973870527" lon="16.032008495740723"><ele>15.333333333333332</ele><time>2026-03-22T13:51:53Z</time></trkpt><trkpt lat="37.9241300631846" lon="16.03176785010808"><ele>13.0</ele><time>2026-03-22T13:51:54Z</time></trkpt><trkpt lat="37.92408695921792" lon="16.031521985486872"><ele>13.0</ele><time>2026-03-22T13:51:55Z</time></trkpt><trkpt lat="37.924063017590846" lon="16.031277582988043"><ele>13.0</ele><time>2026-03-22T13:51:56Z</time></trkpt><trkpt lat="37.92405068554147" lon="16.031027022704443"><ele>13.0</ele><time>2026-03-22T13:51:57Z</time></trkpt><trkpt lat="37.92403832131887" lon="16.030776774197108"><ele>13.0</ele><time>2026-03-22T13:51:58Z</time></trkpt><trkpt lat="37.92402612795263" lon="16.03052337660101"><ele>13.0</ele><time>2026-03-22T13:51:59Z</time></trkpt><trkpt lat="37.92401397165047" lon="16.03027923301408"><ele>13.0</ele><time>2026-03-22T13:52:00Z</time></trkpt><trkpt lat="37.9240013117453" lon="16.030042159466856"><ele>13.333333333333332</ele><time>2026-03-22T13:52:01Z</time></trkpt><trkpt lat="37.923988578888334" lon="16.029809927764703"><ele>13.666666666666668</ele><time>2026-03-22T13:52:02Z</time></trkpt><trkpt lat="37.923979482537085" lon="16.029572984667528"><ele>14.0</ele><time>2026-03-22T13:52:03Z</time></trkpt><trkpt lat="37.92398438643962" lon="16.029328900354745"><ele>14.333333333333334</ele><time>2026-03-22T13:52:04Z</time></trkpt><trkpt lat="37.92401190330783" lon="16.029082866978875"><ele>14.666666666666668</ele><time>2026-03-22T13:52:05Z</time></trkpt><trkpt lat="37.924043715207404" lon="16.028839323274738"><ele>15.0</ele><time>2026-03-22T13:52:06Z</time></trkpt><trkpt lat="37.924074977899735" lon="16.028593332223725"><ele>15.0</ele><time>2026-03-22T13:52:07Z</time></trkpt><trkpt lat="37.92410409984987" lon="16.02835481532417"><ele>15.0</ele><time>2026-03-22T13:52:08Z</time></trkpt><trkpt lat="37.92412210712909" lon="16.028117776560556"><ele>15.0</ele><time>2026-03-22T13:52:09Z</time></trkpt><trkpt lat="37.924151403676376" lon="16.02787709602557"><ele>14.666666666666668</ele><time>2026-03-22T13:52:10Z</time></trkpt><trkpt lat="37.92415559023829" lon="16.027631759475263"><ele>14.333333333333334</ele><time>2026-03-22T13:52:11Z</time></trkpt><trkpt lat="37.92415782117067" lon="16.027384557535896"><ele>14.0</ele><time>2026-03-22T13:52:12Z</time></trkpt><trkpt lat="37.92415816808889" lon="16.02713581782344"><ele>14.0</ele><time>2026-03-22T13:52:13Z</time></trkpt><trkpt lat="37.92415851859071" lon="16.026884507739588"><ele>14.0</ele><time>2026-03-22T13:52:14Z</time></trkpt><trkpt lat="37.92415887016684" lon="16.02663242754025"><ele>14.0</ele><time>2026-03-22T13:52:15Z</time></trkpt><trkpt lat="37.92415961725391" lon="16.026377362096646"><ele>13.333333333333334</ele><time>2026-03-22T13:52:16Z</time></trkpt><trkpt lat="37.92415041044247" lon="16.02612046356102"><ele>12.666666666666668</ele><time>2026-03-22T13:52:17Z</time></trkpt><trkpt lat="37.92416740386469" lon="16.025864097939543"><ele>12.0</ele><time>2026-03-22T13:52:18Z</time></trkpt><trkpt lat="37.92419550805451" lon="16.025612028876267"><ele>11.666666666666666</ele><time>2026-03-22T13:52:19Z</time></trkpt><trkpt lat="37.924198317233056" lon="16.025353001415084"><ele>11.333333333333332</ele><time>2026-03-22T13:52:20Z</time></trkpt><trkpt lat="37.92416793443921" lon="16.025092238720713"><ele>11.0</ele><time>2026-03-22T13:52:21Z</time></trkpt><trkpt lat="37.92411855340688" lon="16.024839588969808"><ele>11.0</ele><time>2026-03-22T13:52:22Z</time></trkpt><trkpt lat="37.92406641933393" lon="16.024583402503705"><ele>11.0</ele><time>2026-03-22T13:52:23Z</time></trkpt><trkpt lat="37.92401434978853" lon="16.024330000011194"><ele>11.0</ele><time>2026-03-22T13:52:24Z</time></trkpt><trkpt lat="37.92396050040303" lon="16.024067935721092"><ele>12.333333333333332</ele><time>2026-03-22T13:52:25Z</time></trkpt><trkpt lat="37.92390741109858" lon="16.023809360833436"><ele>13.666666666666666</ele><time>2026-03-22T13:52:26Z</time></trkpt><trkpt lat="37.92385400440301" lon="16.023549216523815"><ele>15.0</ele><time>2026-03-22T13:52:27Z</time></trkpt><trkpt lat="37.92379921628355" lon="16.023282342972003"><ele>15.333333333333332</ele><time>2026-03-22T13:52:28Z</time></trkpt><trkpt lat="37.92374905978141" lon="16.023016312716504"><ele>15.666666666666666</ele><time>2026-03-22T13:52:29Z</time></trkpt><trkpt lat="37.92370321943154" lon="16.02274381561928"><ele>16.0</ele><time>2026-03-22T13:52:30Z</time></trkpt><trkpt lat="37.92365809639251" lon="16.022468092257178"><ele>16.0</ele><time>2026-03-22T13:52:31Z</time></trkpt><trkpt lat="37.923612950882024" lon="16.02219223159744"><ele>16.0</ele><time>2026-03-22T13:52:32Z</time></trkpt><trkpt lat="37.92356620668597" lon="16.021906602159174"><ele>14.0</ele><time>2026-03-22T13:52:33Z</time></trkpt><trkpt lat="37.923519669743214" lon="16.021622100329008"><ele>12.0</ele><time>2026-03-22T13:52:34Z</time></trkpt><trkpt lat="37.92347368102897" lon="16.021340884691746"><ele>12.0</ele><time>2026-03-22T13:52:35Z</time></trkpt><trkpt lat="37.923426942167495" lon="16.021055082024716"><ele>12.0</ele><time>2026-03-22T13:52:36Z</time></trkpt><trkpt lat="37.92337941544513" lon="16.020764461779496"><ele>11.0</ele><time>2026-03-22T13:52:37Z</time></trkpt><trkpt lat="37.92333089732119" lon="16.02047470128733"><ele>10.0</ele><time>2026-03-22T13:52:38Z</time></trkpt><trkpt lat="37.92328106653503" lon="16.020183919745172"><ele>10.0</ele><time>2026-03-22T13:52:39Z</time></trkpt><trkpt lat="37.92323049656326" lon="16.01989598355531"><ele>10.0</ele><time>2026-03-22T13:52:40Z</time></trkpt><trkpt lat="37.92317999562948" lon="16.019608440405893"><ele>10.0</ele><time>2026-03-22T13:52:41Z</time></trkpt><trkpt lat="37.923127758769496" lon="16.019311013288927"><ele>10.0</ele><time>2026-03-22T13:52:42Z</time></trkpt><trkpt lat="37.92307454632731" lon="16.0190136870616"><ele>12.0</ele><time>2026-03-22T13:52:43Z</time></trkpt><trkpt lat="37.92302000102568" lon="16.018720813520225"><ele>14.0</ele><time>2026-03-22T13:52:44Z</time></trkpt><trkpt lat="37.92296527581039" lon="16.01842697388225"><ele>15.0</ele><time>2026-03-22T13:52:45Z</time></trkpt><trkpt lat="37.922911025217964" lon="16.018135682667484"><ele>16.0</ele><time>2026-03-22T13:52:46Z</time></trkpt><trkpt lat="37.92284469066229" lon="16.01784944178587"><ele>16.0</ele><time>2026-03-22T13:52:47Z</time></trkpt><trkpt lat="37.92279659255408" lon="16.017557184246964"><ele>16.0</ele><time>2026-03-22T13:52:48Z</time></trkpt><trkpt lat="37.92274715717405" lon="16.01727031084819"><ele>16.0</ele><time>2026-03-22T13:52:49Z</time></trkpt><trkpt lat="37.9226972964923" lon="16.01697572248814"><ele>16.0</ele><time>2026-03-22T13:52:50Z</time></trkpt><trkpt lat="37.92265034348668" lon="16.016685658842018"><ele>18.5</ele><time>2026-03-22T13:52:51Z</time></trkpt><trkpt lat="37.92259779581711" lon="16.01640006834439"><ele>21.0</ele><time>2026-03-22T13:52:52Z</time></trkpt><trkpt lat="37.92253612275677" lon="16.01611528781557"><ele>16.0</ele><time>2026-03-22T13:52:53Z</time></trkpt><trkpt lat="37.922479523430745" lon="16.015834052400848"><ele>11.0</ele><time>2026-03-22T13:52:54Z</time></trkpt><trkpt lat="37.9224176658325" lon="16.01555226592048"><ele>11.0</ele><time>2026-03-22T13:52:55Z</time></trkpt><trkpt lat="37.92234684639837" lon="16.015272589045303"><ele>11.0</ele><time>2026-03-22T13:52:56Z</time></trkpt><trkpt lat="37.922272324625126" lon="16.014991891522346"><ele>11.666666666666666</ele><time>2026-03-22T13:52:57Z</time></trkpt><trkpt lat="37.92219870022929" lon="16.014720453941035"><ele>12.333333333333332</ele><time>2026-03-22T13:52:58Z</time></trkpt><trkpt lat="37.92213456326536" lon="16.014452117658678"><ele>13.0</ele><time>2026-03-22T13:52:59Z</time></trkpt><trkpt lat="37.92208625337833" lon="16.0141961750949"><ele>13.0</ele><time>2026-03-22T13:53:00Z</time></trkpt><trkpt lat="37.922048964352406" lon="16.013968283830796"><ele>13.0</ele><time>2026-03-22T13:53:01Z</time></trkpt><trkpt lat="37.922019751881805" lon="16.013772323269933"><ele>13.0</ele><time>2026-03-22T13:53:02Z</time></trkpt><trkpt lat="37.922002979727154" lon="16.013605979427673"><ele>12.999999999999998</ele><time>2026-03-22T13:53:03Z</time></trkpt><trkpt lat="37.921994050763075" lon="16.01346988682929"><ele>13.0</ele><time>2026-03-22T13:53:04Z</time></trkpt><trkpt lat="37.92199872109154" lon="16.013353870791754"><ele>13.0</ele><time>2026-03-22T13:53:05Z</time></trkpt><trkpt lat="37.92200457096667" lon="16.013260341147138"><ele>13.0</ele><time>2026-03-22T13:53:06Z</time></trkpt><trkpt lat="37.92202149232935" lon="16.013179692461012"><ele>12.999999999999998</ele><time>2026-03-22T13:53:07Z</time></trkpt><trkpt lat="37.92203036395058" lon="16.01309778067476"><ele>13.0</ele><time>2026-03-22T13:53:08Z</time></trkpt><trkpt lat="37.921996759074105" lon="16.01298300185943"><ele>13.166666666666666</ele><time>2026-03-22T13:53:10Z</time></trkpt><trkpt lat="37.921970765623065" lon="16.012880516875878"><ele>13.333333333333332</ele><time>2026-03-22T13:53:12Z</time></trkpt><trkpt lat="37.92189491212698" lon="16.012847581220782"><ele>13.5</ele><time>2026-03-22T13:53:13Z</time></trkpt><trkpt lat="37.92181046578927" lon="16.012853289744797"><ele>13.666666666666668</ele><time>2026-03-22T13:53:15Z</time></trkpt><trkpt lat="37.9217316302669" lon="16.012833528700877"><ele>13.833333333333334</ele><time>2026-03-22T13:53:17Z</time></trkpt><trkpt lat="37.92172655131193" lon="16.01274169887642"><ele>14.0</ele><time>2026-03-22T13:53:18Z</time></trkpt><trkpt lat="37.92168104179" lon="16.01268075828741"><ele>13.333333333333334</ele><time>2026-03-22T13:53:19Z</time></trkpt><trkpt lat="37.921628013047616" lon="16.01260919097741"><ele>12.666666666666668</ele><time>2026-03-22T13:53:20Z</time></trkpt><trkpt lat="37.92157167636233" lon="16.012529768357037"><ele>12.0</ele><time>2026-03-22T13:53:21Z</time></trkpt><trkpt lat="37.921514194311996" lon="16.012440609750826"><ele>11.333333333333334</ele><time>2026-03-22T13:53:22Z</time></trkpt><trkpt lat="37.921457386630195" lon="16.012345924670147"><ele>10.666666666666668</ele><time>2026-03-22T13:53:23Z</time></trkpt><trkpt lat="37.92139534858884" lon="16.012242801987593"><ele>10.0</ele><time>2026-03-22T13:53:24Z</time></trkpt><trkpt lat="37.921330641009746" lon="16.012136925306066"><ele>10.0</ele><time>2026-03-22T13:53:25Z</time></trkpt><trkpt lat="37.92125789945467" lon="16.012029325890065"><ele>10.0</ele><time>2026-03-22T13:53:26Z</time></trkpt><trkpt lat="37.92117748669209" lon="16.011923177957943"><ele>10.0</ele><time>2026-03-22T13:53:27Z</time></trkpt><trkpt lat="37.92108882031894" lon="16.011821070325517"><ele>10.0</ele><time>2026-03-22T13:53:28Z</time></trkpt><trkpt lat="37.92099878206985" lon="16.011719957052176"><ele>9.25</ele><time>2026-03-22T13:53:29Z</time></trkpt><trkpt lat="37.920905697895485" lon="16.01161542287421"><ele>8.5</ele><time>2026-03-22T13:53:30Z</time></trkpt><trkpt lat="37.92081687718597" lon="16.011508428397484"><ele>7.75</ele><time>2026-03-22T13:53:31Z</time></trkpt><trkpt lat="37.920728760490114" lon="16.01138950471361"><ele>7.0</ele><time>2026-03-22T13:53:32Z</time></trkpt><trkpt lat="37.92064771145599" lon="16.01126004330228"><ele>7.0</ele><time>2026-03-22T13:53:33Z</time></trkpt><trkpt lat="37.920571103010815" lon="16.01111347209573"><ele>7.0</ele><time>2026-03-22T13:53:34Z</time></trkpt><trkpt lat="37.92050702857106" lon="16.010955010821398"><ele>7.0</ele><time>2026-03-22T13:53:35Z</time></trkpt><trkpt lat="37.92045351906063" lon="16.010790925258497"><ele>7.0</ele><time>2026-03-22T13:53:36Z</time></trkpt><trkpt lat="37.92040355892528" lon="16.010622518645246"><ele>8.0</ele><time>2026-03-22T13:53:37Z</time></trkpt><trkpt lat="37.920352406508655" lon="16.010445963594208"><ele>9.0</ele><time>2026-03-22T13:53:38Z</time></trkpt><trkpt lat="37.92029775514113" lon="16.0102651047675"><ele>10.0</ele><time>2026-03-22T13:53:39Z</time></trkpt><trkpt lat="37.920245103590545" lon="16.010082181227993"><ele>11.333333333333334</ele><time>2026-03-22T13:53:40Z</time></trkpt><trkpt lat="37.920190463758715" lon="16.009884518581334"><ele>12.666666666666668</ele><time>2026-03-22T13:53:41Z</time></trkpt><trkpt lat="37.920136127640816" lon="16.009677243679963"><ele>14.0</ele><time>2026-03-22T13:53:42Z</time></trkpt><trkpt lat="37.92009079527559" lon="16.00946037344804"><ele>13.666666666666668</ele><time>2026-03-22T13:53:43Z</time></trkpt><trkpt lat="37.920038391038645" lon="16.009241757180423"><ele>13.333333333333332</ele><time>2026-03-22T13:53:44Z</time></trkpt><trkpt lat="37.920006275913735" lon="16.009011314963985"><ele>13.0</ele><time>2026-03-22T13:53:45Z</time></trkpt><trkpt lat="37.91997403629053" lon="16.008774247818902"><ele>13.0</ele><time>2026-03-22T13:53:46Z</time></trkpt><trkpt lat="37.91993201563589" lon="16.008542590667794"><ele>13.0</ele><time>2026-03-22T13:53:47Z</time></trkpt><trkpt lat="37.919908748417285" lon="16.008296632099796"><ele>13.0</ele><time>2026-03-22T13:53:48Z</time></trkpt><trkpt lat="37.91987159254836" lon="16.008044856669443"><ele>13.333333333333332</ele><time>2026-03-22T13:53:49Z</time></trkpt><trkpt lat="37.9198343701777" lon="16.007791586809166"><ele>13.666666666666668</ele><time>2026-03-22T13:53:50Z</time></trkpt><trkpt lat="37.919784789147144" lon="16.007529593789968"><ele>14.0</ele><time>2026-03-22T13:53:51Z</time></trkpt><trkpt lat="37.919742576876494" lon="16.00726476160577"><ele>14.333333333333334</ele><time>2026-03-22T13:53:52Z</time></trkpt><trkpt lat="37.91971734245474" lon="16.00699380427525"><ele>14.666666666666668</ele><time>2026-03-22T13:53:53Z</time></trkpt><trkpt lat="37.91967728974006" lon="16.006721876628287"><ele>15.0</ele><time>2026-03-22T13:53:54Z</time></trkpt><trkpt lat="37.919636426886385" lon="16.006444448617454"><ele>15.5</ele><time>2026-03-22T13:53:55Z</time></trkpt><trkpt lat="37.91959456982023" lon="16.00616027090997"><ele>16.0</ele><time>2026-03-22T13:53:56Z</time></trkpt><trkpt lat="37.919548300012146" lon="16.005859780172106"><ele>17.0</ele><time>2026-03-22T13:53:57Z</time></trkpt><trkpt lat="37.919497975157526" lon="16.005556751670852"><ele>18.0</ele><time>2026-03-22T13:53:58Z</time></trkpt><trkpt lat="37.91944418176346" lon="16.005251765072444"><ele>21.5</ele><time>2026-03-22T13:53:59Z</time></trkpt><trkpt lat="37.91938710971935" lon="16.004949594424144"><ele>25.0</ele><time>2026-03-22T13:54:00Z</time></trkpt><trkpt lat="37.919328230714136" lon="16.004644981748612"><ele>25.0</ele><time>2026-03-22T13:54:01Z</time></trkpt><trkpt lat="37.91927013327324" lon="16.004354083203378"><ele>25.0</ele><time>2026-03-22T13:54:02Z</time></trkpt><trkpt lat="37.919216396123886" lon="16.004084646986367"><ele>21.333333333333336</ele><time>2026-03-22T13:54:03Z</time></trkpt><trkpt lat="37.91916489089731" lon="16.003828206293"><ele>17.666666666666668</ele><time>2026-03-22T13:54:04Z</time></trkpt><trkpt lat="37.919116721957444" lon="16.00358837667971"><ele>14.0</ele><time>2026-03-22T13:54:05Z</time></trkpt><trkpt lat="37.91907074021316" lon="16.003358959221647"><ele>17.333333333333336</ele><time>2026-03-22T13:54:06Z</time></trkpt><trkpt lat="37.919023859387465" lon="16.003123031584128"><ele>20.666666666666668</ele><time>2026-03-22T13:54:07Z</time></trkpt><trkpt lat="37.91896961997231" lon="16.002883105361647"><ele>24.0</ele><time>2026-03-22T13:54:08Z</time></trkpt><trkpt lat="37.91888367926277" lon="16.002644829308753"><ele>30.333333333333336</ele><time>2026-03-22T13:54:09Z</time></trkpt><trkpt lat="37.91878464613433" lon="16.002438148092747"><ele>36.66666666666667</ele><time>2026-03-22T13:54:10Z</time></trkpt><trkpt lat="37.91868227423646" lon="16.0022305560171"><ele>43.0</ele><time>2026-03-22T13:54:11Z</time></trkpt><trkpt lat="37.91857747071703" lon="16.00202011755426"><ele>43.0</ele><time>2026-03-22T13:54:12Z</time></trkpt><trkpt lat="37.918475426815995" lon="16.001815541934064"><ele>43.0</ele><time>2026-03-22T13:54:13Z</time></trkpt><trkpt lat="37.918373906784" lon="16.001611289503913"><ele>43.0</ele><time>2026-03-22T13:54:14Z</time></trkpt><trkpt lat="37.91827430634961" lon="16.0014108991166"><ele>36.66666666666667</ele><time>2026-03-22T13:54:15Z</time></trkpt><trkpt lat="37.9181733448328" lon="16.00120688964146"><ele>30.333333333333336</ele><time>2026-03-22T13:54:16Z</time></trkpt><trkpt lat="37.91808291592851" lon="16.001024574069444"><ele>24.0</ele><time>2026-03-22T13:54:17Z</time></trkpt><trkpt lat="37.917998155919456" lon="16.000853746927113"><ele>28.0</ele><time>2026-03-22T13:54:18Z</time></trkpt><trkpt lat="37.91791187878658" lon="16.000680098019792"><ele>32.0</ele><time>2026-03-22T13:54:19Z</time></trkpt><trkpt lat="37.9178311532071" lon="16.000521314884057"><ele>36.0</ele><time>2026-03-22T13:54:20Z</time></trkpt><trkpt lat="37.91775393272214" lon="16.000370058269937"><ele>36.0</ele><time>2026-03-22T13:54:21Z</time></trkpt><trkpt lat="37.91768223452634" lon="16.00022961840845"><ele>36.0</ele><time>2026-03-22T13:54:22Z</time></trkpt><trkpt lat="37.917611624729915" lon="16.000098697923875"><ele>36.0</ele><time>2026-03-22T13:54:23Z</time></trkpt><trkpt lat="37.91754300081428" lon="15.999982089946279"><ele>36.0</ele><time>2026-03-22T13:54:24Z</time></trkpt><trkpt lat="37.91747266602996" lon="15.999873234922708"><ele>31.0</ele><time>2026-03-22T13:54:25Z</time></trkpt><trkpt lat="37.917379183402396" lon="15.99975317076476"><ele>26.0</ele><time>2026-03-22T13:54:26Z</time></trkpt><trkpt lat="37.91727866311944" lon="15.99962742598479"><ele>21.0</ele><time>2026-03-22T13:54:27Z</time></trkpt><trkpt lat="37.91718249260887" lon="15.999495411929015"><ele>16.0</ele><time>2026-03-22T13:54:28Z</time></trkpt><trkpt lat="37.917115374356605" lon="15.999353962992204"><ele>16.0</ele><time>2026-03-22T13:54:29Z</time></trkpt><trkpt lat="37.91704293962264" lon="15.999224721720232"><ele>16.0</ele><time>2026-03-22T13:54:30Z</time></trkpt><trkpt lat="37.916987936459435" lon="15.999088511109203"><ele>16.0</ele><time>2026-03-22T13:54:31Z</time></trkpt><trkpt lat="37.91687311476845" lon="15.998993278973833"><ele>16.0</ele><time>2026-03-22T13:54:32Z</time></trkpt><trkpt lat="37.91675163178546" lon="15.998914545567478"><ele>14.75</ele><time>2026-03-22T13:54:33Z</time></trkpt><trkpt lat="37.91664966261389" lon="15.998831713114768"><ele>13.5</ele><time>2026-03-22T13:54:34Z</time></trkpt><trkpt lat="37.916567326393974" lon="15.998689693657075"><ele>12.25</ele><time>2026-03-22T13:54:35Z</time></trkpt><trkpt lat="37.91647965474324" lon="15.998506811717508"><ele>11.0</ele><time>2026-03-22T13:54:36Z</time></trkpt><trkpt lat="37.91640598687498" lon="15.998341922811651"><ele>13.0</ele><time>2026-03-22T13:54:37Z</time></trkpt><trkpt lat="37.91635463646173" lon="15.99818623693247"><ele>15.0</ele><time>2026-03-22T13:54:38Z</time></trkpt><trkpt lat="37.91633868727071" lon="15.998028616573166"><ele>17.0</ele><time>2026-03-22T13:54:39Z</time></trkpt><trkpt lat="37.91639661746609" lon="15.997874965588524"><ele>19.0</ele><time>2026-03-22T13:54:40Z</time></trkpt><trkpt lat="37.91649051339502" lon="15.997736090778792"><ele>19.0</ele><time>2026-03-22T13:54:41Z</time></trkpt><trkpt lat="37.91660040820963" lon="15.997624427475106"><ele>19.0</ele><time>2026-03-22T13:54:42Z</time></trkpt><trkpt lat="37.916739410994424" lon="15.997562494116998"><ele>19.0</ele><time>2026-03-22T13:54:43Z</time></trkpt><trkpt lat="37.916897313854136" lon="15.997543142272733"><ele>19.0</ele><time>2026-03-22T13:54:44Z</time></trkpt><trkpt lat="37.917052774241036" lon="15.997571033303927"><ele>18.75</ele><time>2026-03-22T13:54:45Z</time></trkpt><trkpt lat="37.917187936154" lon="15.997593517130964"><ele>18.5</ele><time>2026-03-22T13:54:46Z</time></trkpt><trkpt lat="37.9173187616464" lon="15.997574589571999"><ele>18.25</ele><time>2026-03-22T13:54:47Z</time></trkpt><trkpt lat="37.91744220757101" lon="15.99750837486061"><ele>18.0</ele><time>2026-03-22T13:54:48Z</time></trkpt><trkpt lat="37.917548994441255" lon="15.997378887280487"><ele>18.75</ele><time>2026-03-22T13:54:49Z</time></trkpt><trkpt lat="37.91763556738844" lon="15.997229497638289"><ele>19.5</ele><time>2026-03-22T13:54:50Z</time></trkpt><trkpt lat="37.917719339179115" lon="15.997073624926355"><ele>20.25</ele><time>2026-03-22T13:54:51Z</time></trkpt><trkpt lat="37.91780060953772" lon="15.9969165796946"><ele>21.0</ele><time>2026-03-22T13:54:52Z</time></trkpt><trkpt lat="37.917886468907476" lon="15.99676933878774"><ele>19.400000000000002</ele><time>2026-03-22T13:54:53Z</time></trkpt><trkpt lat="37.91796048389591" lon="15.996638316416561"><ele>17.8</ele><time>2026-03-22T13:54:54Z</time></trkpt><trkpt lat="37.91801317237898" lon="15.996526337322376"><ele>16.200000000000003</ele><time>2026-03-22T13:54:55Z</time></trkpt><trkpt lat="37.91804214516287" lon="15.996434069080452"><ele>14.600000000000001</ele><time>2026-03-22T13:54:56Z</time></trkpt><trkpt lat="37.91805760877087" lon="15.996335631016336"><ele>13.0</ele><time>2026-03-22T13:54:58Z</time></trkpt><trkpt lat="37.91803040264646" lon="15.996228844307295"><ele>13.0</ele><time>2026-03-22T13:55:01Z</time></trkpt><trkpt lat="37.91800480737483" lon="15.996064971567145"><ele>13.0</ele><time>2026-03-22T13:55:03Z</time></trkpt><trkpt lat="37.91799692315114" lon="15.995951867985479"><ele>13.0</ele><time>2026-03-22T13:55:04Z</time></trkpt><trkpt lat="37.91798887494935" lon="15.995821194666055"><ele>13.0</ele><time>2026-03-22T13:55:05Z</time></trkpt><trkpt lat="37.91797705421277" lon="15.995690099854885"><ele>13.0</ele><time>2026-03-22T13:55:06Z</time></trkpt><trkpt lat="37.9179602000302" lon="15.995542582164495"><ele>12.5</ele><time>2026-03-22T13:55:07Z</time></trkpt><trkpt lat="37.91794547762776" lon="15.995385750211042"><ele>12.0</ele><time>2026-03-22T13:55:08Z</time></trkpt><trkpt lat="37.91793137814816" lon="15.995225463567591"><ele>11.5</ele><time>2026-03-22T13:55:09Z</time></trkpt><trkpt lat="37.91791941286908" lon="15.995066018465739"><ele>11.0</ele><time>2026-03-22T13:55:10Z</time></trkpt><trkpt lat="37.91790857579565" lon="15.994899996663404"><ele>10.5</ele><time>2026-03-22T13:55:11Z</time></trkpt><trkpt lat="37.91791191867762" lon="15.994734333040329"><ele>10.0</ele><time>2026-03-22T13:55:12Z</time></trkpt><trkpt lat="37.91794766793647" lon="15.994561526851514"><ele>9.5</ele><time>2026-03-22T13:55:13Z</time></trkpt><trkpt lat="37.9180044602419" lon="15.994399538047515"><ele>9.0</ele><time>2026-03-22T13:55:14Z</time></trkpt><trkpt lat="37.91806011854232" lon="15.994243063573439"><ele>8.5</ele><time>2026-03-22T13:55:15Z</time></trkpt><trkpt lat="37.918110255353575" lon="15.994100393330331"><ele>8.0</ele><time>2026-03-22T13:55:16Z</time></trkpt><trkpt lat="37.91815269927023" lon="15.993964076268952"><ele>7.5</ele><time>2026-03-22T13:55:17Z</time></trkpt><trkpt lat="37.91819904829691" lon="15.99382033491207"><ele>7.0</ele><time>2026-03-22T13:55:18Z</time></trkpt><trkpt lat="37.9182494119415" lon="15.993678466173215"><ele>7.0</ele><time>2026-03-22T13:55:19Z</time></trkpt><trkpt lat="37.91828706298303" lon="15.993532087143661"><ele>7.0</ele><time>2026-03-22T13:55:20Z</time></trkpt><trkpt lat="37.9183255770632" lon="15.993382215558972"><ele>7.0</ele><time>2026-03-22T13:55:21Z</time></trkpt><trkpt lat="37.918364619320606" lon="15.993243396096995"><ele>7.0</ele><time>2026-03-22T13:55:22Z</time></trkpt><trkpt lat="37.91840090924897" lon="15.993096098380256"><ele>8.25</ele><time>2026-03-22T13:55:23Z</time></trkpt><trkpt lat="37.918434769762555" lon="15.99294490810482"><ele>9.5</ele><time>2026-03-22T13:55:24Z</time></trkpt><trkpt lat="37.918462839642764" lon="15.992798656240476"><ele>10.75</ele><time>2026-03-22T13:55:25Z</time></trkpt><trkpt lat="37.918498795253356" lon="15.992648115139373"><ele>12.0</ele><time>2026-03-22T13:55:26Z</time></trkpt><trkpt lat="37.918525472223294" lon="15.992496802321973"><ele>13.5</ele><time>2026-03-22T13:55:27Z</time></trkpt><trkpt lat="37.91853849834704" lon="15.992344775958696"><ele>15.0</ele><time>2026-03-22T13:55:28Z</time></trkpt><trkpt lat="37.91855092131157" lon="15.992184865587866"><ele>16.5</ele><time>2026-03-22T13:55:29Z</time></trkpt><trkpt lat="37.91856726540187" lon="15.992018747550095"><ele>18.0</ele><time>2026-03-22T13:55:30Z</time></trkpt><trkpt lat="37.91857533206535" lon="15.991848428391842"><ele>18.0</ele><time>2026-03-22T13:55:31Z</time></trkpt><trkpt lat="37.91858387420082" lon="15.991675995320172"><ele>18.0</ele><time>2026-03-22T13:55:32Z</time></trkpt><trkpt lat="37.91859209209298" lon="15.991507874363252"><ele>18.0</ele><time>2026-03-22T13:55:33Z</time></trkpt><trkpt lat="37.9186028041375" lon="15.991330460718281"><ele>18.0</ele><time>2026-03-22T13:55:34Z</time></trkpt><trkpt lat="37.91860953144769" lon="15.991153425735261"><ele>18.0</ele><time>2026-03-22T13:55:35Z</time></trkpt><trkpt lat="37.9186146747079" lon="15.990982276740988"><ele>18.0</ele><time>2026-03-22T13:55:36Z</time></trkpt><trkpt lat="37.918625766654074" lon="15.990807937983277"><ele>18.0</ele><time>2026-03-22T13:55:37Z</time></trkpt><trkpt lat="37.91863864698486" lon="15.990634884152493"><ele>18.0</ele><time>2026-03-22T13:55:38Z</time></trkpt><trkpt lat="37.91864955180887" lon="15.990472220706485"><ele>17.0</ele><time>2026-03-22T13:55:39Z</time></trkpt><trkpt lat="37.91866020110674" lon="15.990328684045451"><ele>16.0</ele><time>2026-03-22T13:55:40Z</time></trkpt><trkpt lat="37.91866429520751" lon="15.990209312337187"><ele>15.0</ele><time>2026-03-22T13:55:41Z</time></trkpt><trkpt lat="37.918673316918216" lon="15.990126120924987"><ele>14.0</ele><time>2026-03-22T13:55:42Z</time></trkpt><trkpt lat="37.918730093250396" lon="15.990051287088276"><ele>13.0</ele><time>2026-03-22T13:55:44Z</time></trkpt><trkpt lat="37.918805679746576" lon="15.990034715961617"><ele>12.0</ele><time>2026-03-22T13:55:46Z</time></trkpt><trkpt lat="37.91889871433426" lon="15.99002968914417"><ele>12.0</ele><time>2026-03-22T13:55:48Z</time></trkpt><trkpt lat="37.91896796455399" lon="15.990038086534808"><ele>12.0</ele><time>2026-03-22T13:55:50Z</time></trkpt><trkpt lat="37.91903483922311" lon="15.990047308788075"><ele>12.0</ele><time>2026-03-22T13:55:53Z</time></trkpt><trkpt lat="37.91911283636932" lon="15.990058065177966"><ele>12.0</ele><time>2026-03-22T13:55:56Z</time></trkpt><trkpt lat="37.919215951214994" lon="15.990073264888089"><ele>12.0</ele><time>2026-03-22T13:55:58Z</time></trkpt><trkpt lat="37.91928092952951" lon="15.990081064209278"><ele>12.0</ele><time>2026-03-22T13:55:59Z</time></trkpt><trkpt lat="37.91935169506661" lon="15.990089172721172"><ele>13.6</ele><time>2026-03-22T13:56:00Z</time></trkpt><trkpt lat="37.91941547469505" lon="15.99009631538939"><ele>15.2</ele><time>2026-03-22T13:56:01Z</time></trkpt><trkpt lat="37.91949575531387" lon="15.990105306006624"><ele>16.8</ele><time>2026-03-22T13:56:03Z</time></trkpt><trkpt lat="37.919508770408626" lon="15.990296330926117"><ele>18.4</ele><time>2026-03-22T13:56:07Z</time></trkpt><trkpt lat="37.91950960179449" lon="15.990403200479628"><ele>20.0</ele><time>2026-03-22T13:56:10Z</time></trkpt><trkpt lat="37.919501659077625" lon="15.990531814820764"><ele>20.0</ele><time>2026-03-22T13:56:12Z</time></trkpt><trkpt lat="37.919493976782185" lon="15.990656212032539"><ele>20.0</ele><time>2026-03-22T13:56:14Z</time></trkpt><trkpt lat="37.91948744462662" lon="15.990761985699306"><ele>20.0</ele><time>2026-03-22T13:56:16Z</time></trkpt><trkpt lat="37.91948245545334" lon="15.990842775633872"><ele>20.0</ele><time>2026-03-22T13:56:19Z</time></trkpt><trkpt lat="37.91963691136397" lon="15.990849302218608"><ele>20.0</ele><time>2026-03-22T13:56:25Z</time></trkpt><trkpt lat="37.91972587977312" lon="15.990862226279223"><ele>20.6</ele><time>2026-03-22T13:56:27Z</time></trkpt><trkpt lat="37.91982125148994" lon="15.990871126455868"><ele>21.2</ele><time>2026-03-22T13:56:29Z</time></trkpt><trkpt lat="37.91992906232298" lon="15.990883033358136"><ele>21.799999999999997</ele><time>2026-03-22T13:56:31Z</time></trkpt><trkpt lat="37.92003021613645" lon="15.990893520665354"><ele>22.4</ele><time>2026-03-22T13:56:33Z</time></trkpt><trkpt lat="37.92013504853222" lon="15.990904389365705"><ele>23.0</ele><time>2026-03-22T13:56:35Z</time></trkpt><trkpt lat="37.92020041858492" lon="15.990911300322196"><ele>24.0</ele><time>2026-03-22T13:56:36Z</time></trkpt><trkpt lat="37.92026533630297" lon="15.990912417103013"><ele>25.0</ele><time>2026-03-22T13:56:37Z</time></trkpt><trkpt lat="37.9203541918342" lon="15.990909945793977"><ele>25.999999999999996</ele><time>2026-03-22T13:56:38Z</time></trkpt><trkpt lat="37.92045862180243" lon="15.990904991795142"><ele>27.0</ele><time>2026-03-22T13:56:39Z</time></trkpt><trkpt lat="37.92058289119952" lon="15.990910297538058"><ele>28.0</ele><time>2026-03-22T13:56:40Z</time></trkpt><trkpt lat="37.92067441518717" lon="15.990939878886909"><ele>28.000000000000004</ele><time>2026-03-22T13:56:41Z</time></trkpt><trkpt lat="37.920755497750974" lon="15.990950381138694"><ele>28.0</ele><time>2026-03-22T13:56:42Z</time></trkpt><trkpt lat="37.920858284495644" lon="15.990963694627268"><ele>28.0</ele><time>2026-03-22T13:56:44Z</time></trkpt><trkpt lat="37.92092737219299" lon="15.990972971332939"><ele>28.0</ele><time>2026-03-22T13:56:47Z</time></trkpt><trkpt lat="37.92099915161362" lon="15.990993386691214"><ele>28.000000000000004</ele><time>2026-03-22T13:56:49Z</time></trkpt><trkpt lat="37.921064954578554" lon="15.991011561794666"><ele>28.0</ele><time>2026-03-22T13:56:51Z</time></trkpt><trkpt lat="37.921151646494096" lon="15.991023172390568"><ele>35.0</ele><time>2026-03-22T13:56:53Z</time></trkpt><trkpt lat="37.92122420460321" lon="15.991038425785375"><ele>35.0</ele><time>2026-03-22T13:56:55Z</time></trkpt><trkpt lat="37.921290083718006" lon="15.991049453406378"><ele>35.0</ele><time>2026-03-22T13:56:59Z</time></trkpt></trkseg></trk></gpx>